<?xml version="1.0" encoding="UTF-8" standalone="no" ?>
<gpx xmlns="http://www.topografix.com/GPX/1/1" xmlns:xsi="http://www.w3.org/2001/XMLSchema-instance" xsi:schemaLocation="http://www.topografix.com/GPX/1/1 http://www.topografix.com/GPX/1/1/gpx.xsd" version="1.1" creator="VisuGPX - https://www.visugpx.com">
  <metadata>
    <name>2010 Pic St Michel</name>
    <desc><![CDATA[2010 Pic St Michel Lans en Vercors]]></desc>
  </metadata>
  <trk>
    <name><![CDATA[2010 Pic St Michel_1]]></name>
    <trkseg>
      <trkpt lat="45.12771" lon="5.589">
        <ele>1025</ele>
        <time>2010-06-06T08:34:35Z</time>
      </trkpt>
      <trkpt lat="45.12742" lon="5.58907">
        <ele>1027</ele>
        <time>2010-06-06T08:34:44Z</time>
      </trkpt>
      <trkpt lat="45.12738" lon="5.58909">
        <ele>1027</ele>
        <time>2010-06-06T08:34:45Z</time>
      </trkpt>
      <trkpt lat="45.12734" lon="5.58912">
        <ele>1027</ele>
        <time>2010-06-06T08:34:46Z</time>
      </trkpt>
      <trkpt lat="45.1273" lon="5.58915">
        <ele>1027</ele>
        <time>2010-06-06T08:34:47Z</time>
      </trkpt>
      <trkpt lat="45.12726" lon="5.58918">
        <ele>1027</ele>
        <time>2010-06-06T08:34:48Z</time>
      </trkpt>
      <trkpt lat="45.12722" lon="5.58921">
        <ele>1027</ele>
        <time>2010-06-06T08:34:49Z</time>
      </trkpt>
      <trkpt lat="45.12718" lon="5.58921">
        <ele>1027</ele>
        <time>2010-06-06T08:34:50Z</time>
      </trkpt>
      <trkpt lat="45.12715" lon="5.58925">
        <ele>1027</ele>
        <time>2010-06-06T08:34:51Z</time>
      </trkpt>
      <trkpt lat="45.12712" lon="5.58928">
        <ele>1027</ele>
        <time>2010-06-06T08:34:52Z</time>
      </trkpt>
      <trkpt lat="45.12708" lon="5.58931">
        <ele>1027</ele>
        <time>2010-06-06T08:34:53Z</time>
      </trkpt>
      <trkpt lat="45.12705" lon="5.58934">
        <ele>1027</ele>
        <time>2010-06-06T08:34:54Z</time>
      </trkpt>
      <trkpt lat="45.12702" lon="5.58936">
        <ele>1027</ele>
        <time>2010-06-06T08:34:55Z</time>
      </trkpt>
      <trkpt lat="45.12698" lon="5.58939">
        <ele>1027</ele>
        <time>2010-06-06T08:34:56Z</time>
      </trkpt>
      <trkpt lat="45.12695" lon="5.58941">
        <ele>1027</ele>
        <time>2010-06-06T08:34:57Z</time>
      </trkpt>
      <trkpt lat="45.12692" lon="5.58944">
        <ele>1027</ele>
        <time>2010-06-06T08:34:58Z</time>
      </trkpt>
      <trkpt lat="45.12689" lon="5.58948">
        <ele>1027</ele>
        <time>2010-06-06T08:34:59Z</time>
      </trkpt>
      <trkpt lat="45.12686" lon="5.5895">
        <ele>1027</ele>
        <time>2010-06-06T08:35:00Z</time>
      </trkpt>
      <trkpt lat="45.12684" lon="5.58952">
        <ele>1027</ele>
        <time>2010-06-06T08:35:01Z</time>
      </trkpt>
      <trkpt lat="45.12681" lon="5.58953">
        <ele>1027</ele>
        <time>2010-06-06T08:35:02Z</time>
      </trkpt>
      <trkpt lat="45.12678" lon="5.58956">
        <ele>1027</ele>
        <time>2010-06-06T08:35:03Z</time>
      </trkpt>
      <trkpt lat="45.12675" lon="5.58958">
        <ele>1027</ele>
        <time>2010-06-06T08:35:04Z</time>
      </trkpt>
      <trkpt lat="45.12672" lon="5.58961">
        <ele>1027</ele>
        <time>2010-06-06T08:35:05Z</time>
      </trkpt>
      <trkpt lat="45.12669" lon="5.58964">
        <ele>1027</ele>
        <time>2010-06-06T08:35:06Z</time>
      </trkpt>
      <trkpt lat="45.12666" lon="5.58967">
        <ele>1027</ele>
        <time>2010-06-06T08:35:07Z</time>
      </trkpt>
      <trkpt lat="45.12662" lon="5.58971">
        <ele>1027</ele>
        <time>2010-06-06T08:35:08Z</time>
      </trkpt>
      <trkpt lat="45.12659" lon="5.58974">
        <ele>1027</ele>
        <time>2010-06-06T08:35:09Z</time>
      </trkpt>
      <trkpt lat="45.12656" lon="5.58977">
        <ele>1027</ele>
        <time>2010-06-06T08:35:10Z</time>
      </trkpt>
      <trkpt lat="45.12653" lon="5.5898">
        <ele>1027</ele>
        <time>2010-06-06T08:35:11Z</time>
      </trkpt>
      <trkpt lat="45.1265" lon="5.58981">
        <ele>1027</ele>
        <time>2010-06-06T08:35:12Z</time>
      </trkpt>
      <trkpt lat="45.12646" lon="5.58983">
        <ele>1027</ele>
        <time>2010-06-06T08:35:13Z</time>
      </trkpt>
      <trkpt lat="45.12643" lon="5.58985">
        <ele>1027</ele>
        <time>2010-06-06T08:35:14Z</time>
      </trkpt>
      <trkpt lat="45.1264" lon="5.58987">
        <ele>1027</ele>
        <time>2010-06-06T08:35:15Z</time>
      </trkpt>
      <trkpt lat="45.12637" lon="5.58989">
        <ele>1026</ele>
        <time>2010-06-06T08:35:16Z</time>
      </trkpt>
      <trkpt lat="45.12634" lon="5.58992">
        <ele>1026</ele>
        <time>2010-06-06T08:35:17Z</time>
      </trkpt>
      <trkpt lat="45.12631" lon="5.58994">
        <ele>1026</ele>
        <time>2010-06-06T08:35:18Z</time>
      </trkpt>
      <trkpt lat="45.12628" lon="5.58996">
        <ele>1026</ele>
        <time>2010-06-06T08:35:19Z</time>
      </trkpt>
      <trkpt lat="45.12625" lon="5.58998">
        <ele>1025</ele>
        <time>2010-06-06T08:35:20Z</time>
      </trkpt>
      <trkpt lat="45.12622" lon="5.59">
        <ele>1025</ele>
        <time>2010-06-06T08:35:21Z</time>
      </trkpt>
      <trkpt lat="45.12619" lon="5.59002">
        <ele>1024</ele>
        <time>2010-06-06T08:35:22Z</time>
      </trkpt>
      <trkpt lat="45.12616" lon="5.59003">
        <ele>1024</ele>
        <time>2010-06-06T08:35:23Z</time>
      </trkpt>
      <trkpt lat="45.12613" lon="5.59005">
        <ele>1024</ele>
        <time>2010-06-06T08:35:24Z</time>
      </trkpt>
      <trkpt lat="45.1261" lon="5.59006">
        <ele>1024</ele>
        <time>2010-06-06T08:35:25Z</time>
      </trkpt>
      <trkpt lat="45.12607" lon="5.59008">
        <ele>1024</ele>
        <time>2010-06-06T08:35:26Z</time>
      </trkpt>
      <trkpt lat="45.12603" lon="5.59009">
        <ele>1023</ele>
        <time>2010-06-06T08:35:27Z</time>
      </trkpt>
      <trkpt lat="45.126" lon="5.5901">
        <ele>1023</ele>
        <time>2010-06-06T08:35:28Z</time>
      </trkpt>
      <trkpt lat="45.12597" lon="5.59011">
        <ele>1023</ele>
        <time>2010-06-06T08:35:29Z</time>
      </trkpt>
      <trkpt lat="45.12593" lon="5.59011">
        <ele>1022</ele>
        <time>2010-06-06T08:35:30Z</time>
      </trkpt>
      <trkpt lat="45.1259" lon="5.5901">
        <ele>1022</ele>
        <time>2010-06-06T08:35:31Z</time>
      </trkpt>
      <trkpt lat="45.12586" lon="5.5901">
        <ele>1022</ele>
        <time>2010-06-06T08:35:32Z</time>
      </trkpt>
      <trkpt lat="45.12583" lon="5.59009">
        <ele>1022</ele>
        <time>2010-06-06T08:35:33Z</time>
      </trkpt>
      <trkpt lat="45.12579" lon="5.5901">
        <ele>1022</ele>
        <time>2010-06-06T08:35:34Z</time>
      </trkpt>
      <trkpt lat="45.12576" lon="5.59011">
        <ele>1022</ele>
        <time>2010-06-06T08:35:35Z</time>
      </trkpt>
      <trkpt lat="45.12572" lon="5.59011">
        <ele>1022</ele>
        <time>2010-06-06T08:35:36Z</time>
      </trkpt>
      <trkpt lat="45.12568" lon="5.59012">
        <ele>1022</ele>
        <time>2010-06-06T08:35:37Z</time>
      </trkpt>
      <trkpt lat="45.12564" lon="5.59012">
        <ele>1022</ele>
        <time>2010-06-06T08:35:38Z</time>
      </trkpt>
      <trkpt lat="45.12561" lon="5.59014">
        <ele>1022</ele>
        <time>2010-06-06T08:35:39Z</time>
      </trkpt>
      <trkpt lat="45.12557" lon="5.59014">
        <ele>1022</ele>
        <time>2010-06-06T08:35:40Z</time>
      </trkpt>
      <trkpt lat="45.12554" lon="5.59015">
        <ele>1022</ele>
        <time>2010-06-06T08:35:41Z</time>
      </trkpt>
      <trkpt lat="45.12551" lon="5.59016">
        <ele>1022</ele>
        <time>2010-06-06T08:35:42Z</time>
      </trkpt>
      <trkpt lat="45.12547" lon="5.59017">
        <ele>1022</ele>
        <time>2010-06-06T08:35:43Z</time>
      </trkpt>
      <trkpt lat="45.12544" lon="5.59017">
        <ele>1022</ele>
        <time>2010-06-06T08:35:44Z</time>
      </trkpt>
      <trkpt lat="45.1254" lon="5.59018">
        <ele>1022</ele>
        <time>2010-06-06T08:35:45Z</time>
      </trkpt>
      <trkpt lat="45.12537" lon="5.59019">
        <ele>1022</ele>
        <time>2010-06-06T08:35:46Z</time>
      </trkpt>
      <trkpt lat="45.12533" lon="5.59019">
        <ele>1022</ele>
        <time>2010-06-06T08:35:47Z</time>
      </trkpt>
      <trkpt lat="45.1253" lon="5.5902">
        <ele>1022</ele>
        <time>2010-06-06T08:35:48Z</time>
      </trkpt>
      <trkpt lat="45.12526" lon="5.59021">
        <ele>1022</ele>
        <time>2010-06-06T08:35:49Z</time>
      </trkpt>
      <trkpt lat="45.12523" lon="5.59022">
        <ele>1022</ele>
        <time>2010-06-06T08:35:50Z</time>
      </trkpt>
      <trkpt lat="45.12519" lon="5.59023">
        <ele>1022</ele>
        <time>2010-06-06T08:35:51Z</time>
      </trkpt>
      <trkpt lat="45.12515" lon="5.59024">
        <ele>1022</ele>
        <time>2010-06-06T08:35:52Z</time>
      </trkpt>
      <trkpt lat="45.12511" lon="5.59025">
        <ele>1022</ele>
        <time>2010-06-06T08:35:53Z</time>
      </trkpt>
      <trkpt lat="45.12508" lon="5.59027">
        <ele>1022</ele>
        <time>2010-06-06T08:35:54Z</time>
      </trkpt>
      <trkpt lat="45.12505" lon="5.59028">
        <ele>1022</ele>
        <time>2010-06-06T08:35:55Z</time>
      </trkpt>
      <trkpt lat="45.12501" lon="5.59029">
        <ele>1022</ele>
        <time>2010-06-06T08:35:56Z</time>
      </trkpt>
      <trkpt lat="45.12498" lon="5.59031">
        <ele>1022</ele>
        <time>2010-06-06T08:35:57Z</time>
      </trkpt>
      <trkpt lat="45.12495" lon="5.59033">
        <ele>1022</ele>
        <time>2010-06-06T08:35:58Z</time>
      </trkpt>
      <trkpt lat="45.12492" lon="5.59035">
        <ele>1022</ele>
        <time>2010-06-06T08:35:59Z</time>
      </trkpt>
      <trkpt lat="45.12488" lon="5.59037">
        <ele>1022</ele>
        <time>2010-06-06T08:36:00Z</time>
      </trkpt>
      <trkpt lat="45.12484" lon="5.59039">
        <ele>1022</ele>
        <time>2010-06-06T08:36:01Z</time>
      </trkpt>
      <trkpt lat="45.12481" lon="5.59041">
        <ele>1022</ele>
        <time>2010-06-06T08:36:02Z</time>
      </trkpt>
      <trkpt lat="45.12477" lon="5.59043">
        <ele>1022</ele>
        <time>2010-06-06T08:36:03Z</time>
      </trkpt>
      <trkpt lat="45.12473" lon="5.59046">
        <ele>1022</ele>
        <time>2010-06-06T08:36:04Z</time>
      </trkpt>
      <trkpt lat="45.12469" lon="5.59048">
        <ele>1022</ele>
        <time>2010-06-06T08:36:05Z</time>
      </trkpt>
      <trkpt lat="45.12466" lon="5.5905">
        <ele>1022</ele>
        <time>2010-06-06T08:36:06Z</time>
      </trkpt>
      <trkpt lat="45.12463" lon="5.59052">
        <ele>1022</ele>
        <time>2010-06-06T08:36:07Z</time>
      </trkpt>
      <trkpt lat="45.12459" lon="5.59055">
        <ele>1022</ele>
        <time>2010-06-06T08:36:08Z</time>
      </trkpt>
      <trkpt lat="45.12456" lon="5.59057">
        <ele>1022</ele>
        <time>2010-06-06T08:36:09Z</time>
      </trkpt>
      <trkpt lat="45.12452" lon="5.59059">
        <ele>1021</ele>
        <time>2010-06-06T08:36:10Z</time>
      </trkpt>
      <trkpt lat="45.12449" lon="5.5906">
        <ele>1021</ele>
        <time>2010-06-06T08:36:11Z</time>
      </trkpt>
      <trkpt lat="45.12445" lon="5.59062">
        <ele>1021</ele>
        <time>2010-06-06T08:36:12Z</time>
      </trkpt>
      <trkpt lat="45.12441" lon="5.59063">
        <ele>1021</ele>
        <time>2010-06-06T08:36:13Z</time>
      </trkpt>
      <trkpt lat="45.12437" lon="5.59064">
        <ele>1021</ele>
        <time>2010-06-06T08:36:14Z</time>
      </trkpt>
      <trkpt lat="45.12433" lon="5.59065">
        <ele>1021</ele>
        <time>2010-06-06T08:36:15Z</time>
      </trkpt>
      <trkpt lat="45.12429" lon="5.59065">
        <ele>1021</ele>
        <time>2010-06-06T08:36:16Z</time>
      </trkpt>
      <trkpt lat="45.12426" lon="5.59066">
        <ele>1021</ele>
        <time>2010-06-06T08:36:17Z</time>
      </trkpt>
      <trkpt lat="45.12422" lon="5.59067">
        <ele>1020</ele>
        <time>2010-06-06T08:36:18Z</time>
      </trkpt>
      <trkpt lat="45.12418" lon="5.59068">
        <ele>1020</ele>
        <time>2010-06-06T08:36:19Z</time>
      </trkpt>
      <trkpt lat="45.12414" lon="5.59068">
        <ele>1020</ele>
        <time>2010-06-06T08:36:20Z</time>
      </trkpt>
      <trkpt lat="45.12411" lon="5.59069">
        <ele>1020</ele>
        <time>2010-06-06T08:36:21Z</time>
      </trkpt>
      <trkpt lat="45.12407" lon="5.5907">
        <ele>1020</ele>
        <time>2010-06-06T08:36:22Z</time>
      </trkpt>
      <trkpt lat="45.12403" lon="5.5907">
        <ele>1020</ele>
        <time>2010-06-06T08:36:23Z</time>
      </trkpt>
      <trkpt lat="45.12399" lon="5.59071">
        <ele>1020</ele>
        <time>2010-06-06T08:36:24Z</time>
      </trkpt>
      <trkpt lat="45.12395" lon="5.59071">
        <ele>1019</ele>
        <time>2010-06-06T08:36:25Z</time>
      </trkpt>
      <trkpt lat="45.12392" lon="5.59071">
        <ele>1019</ele>
        <time>2010-06-06T08:36:26Z</time>
      </trkpt>
      <trkpt lat="45.12388" lon="5.59071">
        <ele>1019</ele>
        <time>2010-06-06T08:36:27Z</time>
      </trkpt>
      <trkpt lat="45.12385" lon="5.5907">
        <ele>1019</ele>
        <time>2010-06-06T08:36:28Z</time>
      </trkpt>
      <trkpt lat="45.12381" lon="5.59069">
        <ele>1019</ele>
        <time>2010-06-06T08:36:29Z</time>
      </trkpt>
      <trkpt lat="45.12378" lon="5.59069">
        <ele>1019</ele>
        <time>2010-06-06T08:36:30Z</time>
      </trkpt>
      <trkpt lat="45.12374" lon="5.59067">
        <ele>1019</ele>
        <time>2010-06-06T08:36:31Z</time>
      </trkpt>
      <trkpt lat="45.1237" lon="5.59066">
        <ele>1019</ele>
        <time>2010-06-06T08:36:32Z</time>
      </trkpt>
      <trkpt lat="45.12367" lon="5.59064">
        <ele>1018</ele>
        <time>2010-06-06T08:36:33Z</time>
      </trkpt>
      <trkpt lat="45.12363" lon="5.59063">
        <ele>1018</ele>
        <time>2010-06-06T08:36:34Z</time>
      </trkpt>
      <trkpt lat="45.1236" lon="5.59061">
        <ele>1018</ele>
        <time>2010-06-06T08:36:35Z</time>
      </trkpt>
      <trkpt lat="45.12356" lon="5.59059">
        <ele>1017</ele>
        <time>2010-06-06T08:36:36Z</time>
      </trkpt>
      <trkpt lat="45.12353" lon="5.59057">
        <ele>1017</ele>
        <time>2010-06-06T08:36:37Z</time>
      </trkpt>
      <trkpt lat="45.1235" lon="5.59054">
        <ele>1017</ele>
        <time>2010-06-06T08:36:38Z</time>
      </trkpt>
      <trkpt lat="45.12347" lon="5.59051">
        <ele>1017</ele>
        <time>2010-06-06T08:36:39Z</time>
      </trkpt>
      <trkpt lat="45.12344" lon="5.59048">
        <ele>1017</ele>
        <time>2010-06-06T08:36:40Z</time>
      </trkpt>
      <trkpt lat="45.12341" lon="5.59045">
        <ele>1017</ele>
        <time>2010-06-06T08:36:41Z</time>
      </trkpt>
      <trkpt lat="45.12338" lon="5.59042">
        <ele>1017</ele>
        <time>2010-06-06T08:36:42Z</time>
      </trkpt>
      <trkpt lat="45.12335" lon="5.5904">
        <ele>1017</ele>
        <time>2010-06-06T08:36:43Z</time>
      </trkpt>
      <trkpt lat="45.12332" lon="5.59037">
        <ele>1017</ele>
        <time>2010-06-06T08:36:44Z</time>
      </trkpt>
      <trkpt lat="45.12329" lon="5.59035">
        <ele>1017</ele>
        <time>2010-06-06T08:36:45Z</time>
      </trkpt>
      <trkpt lat="45.12326" lon="5.59033">
        <ele>1017</ele>
        <time>2010-06-06T08:36:46Z</time>
      </trkpt>
      <trkpt lat="45.12323" lon="5.59031">
        <ele>1017</ele>
        <time>2010-06-06T08:36:47Z</time>
      </trkpt>
      <trkpt lat="45.1232" lon="5.59029">
        <ele>1017</ele>
        <time>2010-06-06T08:36:48Z</time>
      </trkpt>
      <trkpt lat="45.12317" lon="5.59026">
        <ele>1017</ele>
        <time>2010-06-06T08:36:49Z</time>
      </trkpt>
      <trkpt lat="45.12314" lon="5.59022">
        <ele>1017</ele>
        <time>2010-06-06T08:36:50Z</time>
      </trkpt>
      <trkpt lat="45.12312" lon="5.59018">
        <ele>1017</ele>
        <time>2010-06-06T08:36:51Z</time>
      </trkpt>
      <trkpt lat="45.12309" lon="5.59015">
        <ele>1017</ele>
        <time>2010-06-06T08:36:52Z</time>
      </trkpt>
      <trkpt lat="45.12306" lon="5.59012">
        <ele>1017</ele>
        <time>2010-06-06T08:36:53Z</time>
      </trkpt>
      <trkpt lat="45.12303" lon="5.59009">
        <ele>1017</ele>
        <time>2010-06-06T08:36:54Z</time>
      </trkpt>
      <trkpt lat="45.123" lon="5.59006">
        <ele>1017</ele>
        <time>2010-06-06T08:36:55Z</time>
      </trkpt>
      <trkpt lat="45.12297" lon="5.59004">
        <ele>1017</ele>
        <time>2010-06-06T08:36:56Z</time>
      </trkpt>
      <trkpt lat="45.12294" lon="5.59001">
        <ele>1017</ele>
        <time>2010-06-06T08:36:57Z</time>
      </trkpt>
      <trkpt lat="45.12292" lon="5.58998">
        <ele>1017</ele>
        <time>2010-06-06T08:36:58Z</time>
      </trkpt>
      <trkpt lat="45.12289" lon="5.58995">
        <ele>1017</ele>
        <time>2010-06-06T08:36:59Z</time>
      </trkpt>
      <trkpt lat="45.12287" lon="5.58991">
        <ele>1017</ele>
        <time>2010-06-06T08:37:00Z</time>
      </trkpt>
      <trkpt lat="45.12284" lon="5.58988">
        <ele>1017</ele>
        <time>2010-06-06T08:37:01Z</time>
      </trkpt>
      <trkpt lat="45.12282" lon="5.58984">
        <ele>1017</ele>
        <time>2010-06-06T08:37:02Z</time>
      </trkpt>
      <trkpt lat="45.12279" lon="5.58982">
        <ele>1017</ele>
        <time>2010-06-06T08:37:03Z</time>
      </trkpt>
      <trkpt lat="45.12277" lon="5.58978">
        <ele>1017</ele>
        <time>2010-06-06T08:37:04Z</time>
      </trkpt>
      <trkpt lat="45.12274" lon="5.58975">
        <ele>1017</ele>
        <time>2010-06-06T08:37:05Z</time>
      </trkpt>
      <trkpt lat="45.12272" lon="5.58971">
        <ele>1017</ele>
        <time>2010-06-06T08:37:06Z</time>
      </trkpt>
      <trkpt lat="45.1227" lon="5.58967">
        <ele>1017</ele>
        <time>2010-06-06T08:37:07Z</time>
      </trkpt>
      <trkpt lat="45.12268" lon="5.58963">
        <ele>1017</ele>
        <time>2010-06-06T08:37:08Z</time>
      </trkpt>
      <trkpt lat="45.12265" lon="5.5896">
        <ele>1017</ele>
        <time>2010-06-06T08:37:09Z</time>
      </trkpt>
      <trkpt lat="45.12263" lon="5.58956">
        <ele>1017</ele>
        <time>2010-06-06T08:37:10Z</time>
      </trkpt>
      <trkpt lat="45.12261" lon="5.58952">
        <ele>1017</ele>
        <time>2010-06-06T08:37:11Z</time>
      </trkpt>
      <trkpt lat="45.12259" lon="5.58949">
        <ele>1017</ele>
        <time>2010-06-06T08:37:12Z</time>
      </trkpt>
      <trkpt lat="45.12257" lon="5.58945">
        <ele>1017</ele>
        <time>2010-06-06T08:37:13Z</time>
      </trkpt>
      <trkpt lat="45.12255" lon="5.58942">
        <ele>1017</ele>
        <time>2010-06-06T08:37:14Z</time>
      </trkpt>
      <trkpt lat="45.12253" lon="5.58939">
        <ele>1017</ele>
        <time>2010-06-06T08:37:15Z</time>
      </trkpt>
      <trkpt lat="45.12251" lon="5.58935">
        <ele>1017</ele>
        <time>2010-06-06T08:37:16Z</time>
      </trkpt>
      <trkpt lat="45.12249" lon="5.58931">
        <ele>1017</ele>
        <time>2010-06-06T08:37:17Z</time>
      </trkpt>
      <trkpt lat="45.12247" lon="5.58928">
        <ele>1017</ele>
        <time>2010-06-06T08:37:18Z</time>
      </trkpt>
      <trkpt lat="45.12245" lon="5.58925">
        <ele>1017</ele>
        <time>2010-06-06T08:37:19Z</time>
      </trkpt>
      <trkpt lat="45.12243" lon="5.58922">
        <ele>1017</ele>
        <time>2010-06-06T08:37:20Z</time>
      </trkpt>
      <trkpt lat="45.12241" lon="5.58919">
        <ele>1017</ele>
        <time>2010-06-06T08:37:21Z</time>
      </trkpt>
      <trkpt lat="45.12239" lon="5.58915">
        <ele>1018</ele>
        <time>2010-06-06T08:37:22Z</time>
      </trkpt>
      <trkpt lat="45.12237" lon="5.58911">
        <ele>1018</ele>
        <time>2010-06-06T08:37:23Z</time>
      </trkpt>
      <trkpt lat="45.12235" lon="5.58908">
        <ele>1018</ele>
        <time>2010-06-06T08:37:24Z</time>
      </trkpt>
      <trkpt lat="45.12233" lon="5.58903">
        <ele>1018</ele>
        <time>2010-06-06T08:37:25Z</time>
      </trkpt>
      <trkpt lat="45.12231" lon="5.58899">
        <ele>1018</ele>
        <time>2010-06-06T08:37:26Z</time>
      </trkpt>
      <trkpt lat="45.12229" lon="5.58896">
        <ele>1018</ele>
        <time>2010-06-06T08:37:27Z</time>
      </trkpt>
      <trkpt lat="45.12227" lon="5.58892">
        <ele>1018</ele>
        <time>2010-06-06T08:37:28Z</time>
      </trkpt>
      <trkpt lat="45.12225" lon="5.58888">
        <ele>1018</ele>
        <time>2010-06-06T08:37:29Z</time>
      </trkpt>
      <trkpt lat="45.12223" lon="5.58884">
        <ele>1018</ele>
        <time>2010-06-06T08:37:30Z</time>
      </trkpt>
      <trkpt lat="45.12221" lon="5.5888">
        <ele>1018</ele>
        <time>2010-06-06T08:37:31Z</time>
      </trkpt>
      <trkpt lat="45.12219" lon="5.58875">
        <ele>1018</ele>
        <time>2010-06-06T08:37:32Z</time>
      </trkpt>
      <trkpt lat="45.12218" lon="5.58872">
        <ele>1018</ele>
        <time>2010-06-06T08:37:33Z</time>
      </trkpt>
      <trkpt lat="45.12216" lon="5.58868">
        <ele>1018</ele>
        <time>2010-06-06T08:37:34Z</time>
      </trkpt>
      <trkpt lat="45.12214" lon="5.58864">
        <ele>1018</ele>
        <time>2010-06-06T08:37:35Z</time>
      </trkpt>
      <trkpt lat="45.12212" lon="5.5886">
        <ele>1018</ele>
        <time>2010-06-06T08:37:36Z</time>
      </trkpt>
      <trkpt lat="45.12209" lon="5.58857">
        <ele>1018</ele>
        <time>2010-06-06T08:37:37Z</time>
      </trkpt>
      <trkpt lat="45.12207" lon="5.58853">
        <ele>1018</ele>
        <time>2010-06-06T08:37:38Z</time>
      </trkpt>
      <trkpt lat="45.12204" lon="5.5885">
        <ele>1018</ele>
        <time>2010-06-06T08:37:39Z</time>
      </trkpt>
      <trkpt lat="45.12202" lon="5.58846">
        <ele>1018</ele>
        <time>2010-06-06T08:37:40Z</time>
      </trkpt>
      <trkpt lat="45.122" lon="5.58842">
        <ele>1018</ele>
        <time>2010-06-06T08:37:41Z</time>
      </trkpt>
      <trkpt lat="45.12198" lon="5.58839">
        <ele>1018</ele>
        <time>2010-06-06T08:37:42Z</time>
      </trkpt>
      <trkpt lat="45.12195" lon="5.58835">
        <ele>1018</ele>
        <time>2010-06-06T08:37:43Z</time>
      </trkpt>
      <trkpt lat="45.12193" lon="5.5883">
        <ele>1018</ele>
        <time>2010-06-06T08:37:44Z</time>
      </trkpt>
      <trkpt lat="45.12191" lon="5.58826">
        <ele>1018</ele>
        <time>2010-06-06T08:37:45Z</time>
      </trkpt>
      <trkpt lat="45.12189" lon="5.58822">
        <ele>1018</ele>
        <time>2010-06-06T08:37:46Z</time>
      </trkpt>
      <trkpt lat="45.12187" lon="5.58817">
        <ele>1018</ele>
        <time>2010-06-06T08:37:47Z</time>
      </trkpt>
      <trkpt lat="45.12184" lon="5.58814">
        <ele>1018</ele>
        <time>2010-06-06T08:37:48Z</time>
      </trkpt>
      <trkpt lat="45.12182" lon="5.5881">
        <ele>1018</ele>
        <time>2010-06-06T08:37:49Z</time>
      </trkpt>
      <trkpt lat="45.12179" lon="5.58807">
        <ele>1018</ele>
        <time>2010-06-06T08:37:50Z</time>
      </trkpt>
      <trkpt lat="45.12176" lon="5.58805">
        <ele>1018</ele>
        <time>2010-06-06T08:37:51Z</time>
      </trkpt>
      <trkpt lat="45.12174" lon="5.58802">
        <ele>1018</ele>
        <time>2010-06-06T08:37:52Z</time>
      </trkpt>
      <trkpt lat="45.12171" lon="5.58799">
        <ele>1018</ele>
        <time>2010-06-06T08:37:53Z</time>
      </trkpt>
      <trkpt lat="45.12168" lon="5.58797">
        <ele>1018</ele>
        <time>2010-06-06T08:37:54Z</time>
      </trkpt>
      <trkpt lat="45.12166" lon="5.58794">
        <ele>1019</ele>
        <time>2010-06-06T08:37:55Z</time>
      </trkpt>
      <trkpt lat="45.12163" lon="5.58791">
        <ele>1019</ele>
        <time>2010-06-06T08:37:56Z</time>
      </trkpt>
      <trkpt lat="45.1216" lon="5.58789">
        <ele>1019</ele>
        <time>2010-06-06T08:37:57Z</time>
      </trkpt>
      <trkpt lat="45.12156" lon="5.58787">
        <ele>1019</ele>
        <time>2010-06-06T08:37:58Z</time>
      </trkpt>
      <trkpt lat="45.12153" lon="5.58785">
        <ele>1019</ele>
        <time>2010-06-06T08:37:59Z</time>
      </trkpt>
      <trkpt lat="45.1215" lon="5.58783">
        <ele>1019</ele>
        <time>2010-06-06T08:38:00Z</time>
      </trkpt>
      <trkpt lat="45.12147" lon="5.58782">
        <ele>1019</ele>
        <time>2010-06-06T08:38:01Z</time>
      </trkpt>
      <trkpt lat="45.12144" lon="5.5878">
        <ele>1019</ele>
        <time>2010-06-06T08:38:02Z</time>
      </trkpt>
      <trkpt lat="45.12141" lon="5.58779">
        <ele>1019</ele>
        <time>2010-06-06T08:38:03Z</time>
      </trkpt>
      <trkpt lat="45.12137" lon="5.58778">
        <ele>1019</ele>
        <time>2010-06-06T08:38:04Z</time>
      </trkpt>
      <trkpt lat="45.12134" lon="5.58776">
        <ele>1019</ele>
        <time>2010-06-06T08:38:05Z</time>
      </trkpt>
      <trkpt lat="45.12131" lon="5.58774">
        <ele>1019</ele>
        <time>2010-06-06T08:38:06Z</time>
      </trkpt>
      <trkpt lat="45.12129" lon="5.58771">
        <ele>1019</ele>
        <time>2010-06-06T08:38:07Z</time>
      </trkpt>
      <trkpt lat="45.12126" lon="5.58769">
        <ele>1019</ele>
        <time>2010-06-06T08:38:08Z</time>
      </trkpt>
      <trkpt lat="45.12123" lon="5.58767">
        <ele>1019</ele>
        <time>2010-06-06T08:38:09Z</time>
      </trkpt>
      <trkpt lat="45.1212" lon="5.58765">
        <ele>1019</ele>
        <time>2010-06-06T08:38:10Z</time>
      </trkpt>
      <trkpt lat="45.12116" lon="5.58763">
        <ele>1019</ele>
        <time>2010-06-06T08:38:11Z</time>
      </trkpt>
      <trkpt lat="45.12113" lon="5.58761">
        <ele>1019</ele>
        <time>2010-06-06T08:38:12Z</time>
      </trkpt>
      <trkpt lat="45.1211" lon="5.58759">
        <ele>1019</ele>
        <time>2010-06-06T08:38:13Z</time>
      </trkpt>
      <trkpt lat="45.12107" lon="5.58758">
        <ele>1019</ele>
        <time>2010-06-06T08:38:14Z</time>
      </trkpt>
      <trkpt lat="45.12104" lon="5.58756">
        <ele>1019</ele>
        <time>2010-06-06T08:38:15Z</time>
      </trkpt>
      <trkpt lat="45.12101" lon="5.58755">
        <ele>1019</ele>
        <time>2010-06-06T08:38:16Z</time>
      </trkpt>
      <trkpt lat="45.12098" lon="5.58752">
        <ele>1019</ele>
        <time>2010-06-06T08:38:17Z</time>
      </trkpt>
      <trkpt lat="45.12095" lon="5.5875">
        <ele>1019</ele>
        <time>2010-06-06T08:38:18Z</time>
      </trkpt>
      <trkpt lat="45.12092" lon="5.58748">
        <ele>1019</ele>
        <time>2010-06-06T08:38:19Z</time>
      </trkpt>
      <trkpt lat="45.12088" lon="5.58748">
        <ele>1019</ele>
        <time>2010-06-06T08:38:20Z</time>
      </trkpt>
      <trkpt lat="45.12084" lon="5.58747">
        <ele>1020</ele>
        <time>2010-06-06T08:38:21Z</time>
      </trkpt>
      <trkpt lat="45.1208" lon="5.58747">
        <ele>1020</ele>
        <time>2010-06-06T08:38:22Z</time>
      </trkpt>
      <trkpt lat="45.12077" lon="5.58746">
        <ele>1020</ele>
        <time>2010-06-06T08:38:23Z</time>
      </trkpt>
      <trkpt lat="45.12073" lon="5.58745">
        <ele>1020</ele>
        <time>2010-06-06T08:38:24Z</time>
      </trkpt>
      <trkpt lat="45.12069" lon="5.58744">
        <ele>1020</ele>
        <time>2010-06-06T08:38:25Z</time>
      </trkpt>
      <trkpt lat="45.12066" lon="5.58744">
        <ele>1021</ele>
        <time>2010-06-06T08:38:26Z</time>
      </trkpt>
      <trkpt lat="45.12062" lon="5.58743">
        <ele>1021</ele>
        <time>2010-06-06T08:38:27Z</time>
      </trkpt>
      <trkpt lat="45.12059" lon="5.58742">
        <ele>1021</ele>
        <time>2010-06-06T08:38:28Z</time>
      </trkpt>
      <trkpt lat="45.12056" lon="5.58742">
        <ele>1021</ele>
        <time>2010-06-06T08:38:29Z</time>
      </trkpt>
      <trkpt lat="45.12052" lon="5.58742">
        <ele>1021</ele>
        <time>2010-06-06T08:38:30Z</time>
      </trkpt>
      <trkpt lat="45.12049" lon="5.58743">
        <ele>1022</ele>
        <time>2010-06-06T08:38:31Z</time>
      </trkpt>
      <trkpt lat="45.12045" lon="5.58743">
        <ele>1022</ele>
        <time>2010-06-06T08:38:32Z</time>
      </trkpt>
      <trkpt lat="45.12042" lon="5.58743">
        <ele>1022</ele>
        <time>2010-06-06T08:38:33Z</time>
      </trkpt>
      <trkpt lat="45.12039" lon="5.58743">
        <ele>1022</ele>
        <time>2010-06-06T08:38:34Z</time>
      </trkpt>
      <trkpt lat="45.12036" lon="5.58743">
        <ele>1022</ele>
        <time>2010-06-06T08:38:35Z</time>
      </trkpt>
      <trkpt lat="45.12032" lon="5.58743">
        <ele>1022</ele>
        <time>2010-06-06T08:38:36Z</time>
      </trkpt>
      <trkpt lat="45.12029" lon="5.58743">
        <ele>1022</ele>
        <time>2010-06-06T08:38:37Z</time>
      </trkpt>
      <trkpt lat="45.12026" lon="5.58743">
        <ele>1022</ele>
        <time>2010-06-06T08:38:38Z</time>
      </trkpt>
      <trkpt lat="45.12023" lon="5.58743">
        <ele>1022</ele>
        <time>2010-06-06T08:38:39Z</time>
      </trkpt>
      <trkpt lat="45.1202" lon="5.58743">
        <ele>1022</ele>
        <time>2010-06-06T08:38:40Z</time>
      </trkpt>
      <trkpt lat="45.12016" lon="5.58744">
        <ele>1022</ele>
        <time>2010-06-06T08:38:41Z</time>
      </trkpt>
      <trkpt lat="45.12013" lon="5.58745">
        <ele>1022</ele>
        <time>2010-06-06T08:38:42Z</time>
      </trkpt>
      <trkpt lat="45.1201" lon="5.58746">
        <ele>1022</ele>
        <time>2010-06-06T08:38:43Z</time>
      </trkpt>
      <trkpt lat="45.12007" lon="5.58747">
        <ele>1022</ele>
        <time>2010-06-06T08:38:44Z</time>
      </trkpt>
      <trkpt lat="45.12003" lon="5.58747">
        <ele>1022</ele>
        <time>2010-06-06T08:38:45Z</time>
      </trkpt>
      <trkpt lat="45.12" lon="5.58748">
        <ele>1022</ele>
        <time>2010-06-06T08:38:46Z</time>
      </trkpt>
      <trkpt lat="45.11997" lon="5.58748">
        <ele>1022</ele>
        <time>2010-06-06T08:38:47Z</time>
      </trkpt>
      <trkpt lat="45.11994" lon="5.58748">
        <ele>1022</ele>
        <time>2010-06-06T08:38:48Z</time>
      </trkpt>
      <trkpt lat="45.1199" lon="5.58749">
        <ele>1022</ele>
        <time>2010-06-06T08:38:49Z</time>
      </trkpt>
      <trkpt lat="45.11987" lon="5.5875">
        <ele>1022</ele>
        <time>2010-06-06T08:38:50Z</time>
      </trkpt>
      <trkpt lat="45.11984" lon="5.58751">
        <ele>1022</ele>
        <time>2010-06-06T08:38:51Z</time>
      </trkpt>
      <trkpt lat="45.11981" lon="5.58751">
        <ele>1022</ele>
        <time>2010-06-06T08:38:52Z</time>
      </trkpt>
      <trkpt lat="45.11978" lon="5.58749">
        <ele>1022</ele>
        <time>2010-06-06T08:38:53Z</time>
      </trkpt>
      <trkpt lat="45.11975" lon="5.58748">
        <ele>1022</ele>
        <time>2010-06-06T08:38:54Z</time>
      </trkpt>
      <trkpt lat="45.11972" lon="5.58748">
        <ele>1022</ele>
        <time>2010-06-06T08:38:55Z</time>
      </trkpt>
      <trkpt lat="45.11969" lon="5.58748">
        <ele>1022</ele>
        <time>2010-06-06T08:38:56Z</time>
      </trkpt>
      <trkpt lat="45.11966" lon="5.58748">
        <ele>1022</ele>
        <time>2010-06-06T08:38:57Z</time>
      </trkpt>
      <trkpt lat="45.11964" lon="5.58748">
        <ele>1022</ele>
        <time>2010-06-06T08:38:58Z</time>
      </trkpt>
      <trkpt lat="45.11961" lon="5.58751">
        <ele>1022</ele>
        <time>2010-06-06T08:38:59Z</time>
      </trkpt>
      <trkpt lat="45.11959" lon="5.58755">
        <ele>1022</ele>
        <time>2010-06-06T08:39:00Z</time>
      </trkpt>
      <trkpt lat="45.11958" lon="5.58758">
        <ele>1022</ele>
        <time>2010-06-06T08:39:01Z</time>
      </trkpt>
      <trkpt lat="45.11958" lon="5.58761">
        <ele>1022</ele>
        <time>2010-06-06T08:39:02Z</time>
      </trkpt>
      <trkpt lat="45.11957" lon="5.58765">
        <ele>1023</ele>
        <time>2010-06-06T08:39:03Z</time>
      </trkpt>
      <trkpt lat="45.11956" lon="5.58769">
        <ele>1023</ele>
        <time>2010-06-06T08:39:04Z</time>
      </trkpt>
      <trkpt lat="45.11955" lon="5.58773">
        <ele>1023</ele>
        <time>2010-06-06T08:39:05Z</time>
      </trkpt>
      <trkpt lat="45.11955" lon="5.58777">
        <ele>1024</ele>
        <time>2010-06-06T08:39:06Z</time>
      </trkpt>
      <trkpt lat="45.11955" lon="5.58781">
        <ele>1025</ele>
        <time>2010-06-06T08:39:07Z</time>
      </trkpt>
      <trkpt lat="45.11955" lon="5.58784">
        <ele>1025</ele>
        <time>2010-06-06T08:39:08Z</time>
      </trkpt>
      <trkpt lat="45.11954" lon="5.58788">
        <ele>1026</ele>
        <time>2010-06-06T08:39:09Z</time>
      </trkpt>
      <trkpt lat="45.11954" lon="5.58791">
        <ele>1026</ele>
        <time>2010-06-06T08:39:10Z</time>
      </trkpt>
      <trkpt lat="45.11954" lon="5.58795">
        <ele>1027</ele>
        <time>2010-06-06T08:39:11Z</time>
      </trkpt>
      <trkpt lat="45.11953" lon="5.58799">
        <ele>1028</ele>
        <time>2010-06-06T08:39:12Z</time>
      </trkpt>
      <trkpt lat="45.11952" lon="5.58803">
        <ele>1028</ele>
        <time>2010-06-06T08:39:13Z</time>
      </trkpt>
      <trkpt lat="45.11952" lon="5.58807">
        <ele>1029</ele>
        <time>2010-06-06T08:39:14Z</time>
      </trkpt>
      <trkpt lat="45.11951" lon="5.58811">
        <ele>1029</ele>
        <time>2010-06-06T08:39:15Z</time>
      </trkpt>
      <trkpt lat="45.11951" lon="5.58815">
        <ele>1030</ele>
        <time>2010-06-06T08:39:16Z</time>
      </trkpt>
      <trkpt lat="45.11951" lon="5.58818">
        <ele>1030</ele>
        <time>2010-06-06T08:39:17Z</time>
      </trkpt>
      <trkpt lat="45.1195" lon="5.58822">
        <ele>1031</ele>
        <time>2010-06-06T08:39:18Z</time>
      </trkpt>
      <trkpt lat="45.11949" lon="5.58827">
        <ele>1031</ele>
        <time>2010-06-06T08:39:19Z</time>
      </trkpt>
      <trkpt lat="45.11947" lon="5.58831">
        <ele>1031</ele>
        <time>2010-06-06T08:39:20Z</time>
      </trkpt>
      <trkpt lat="45.11946" lon="5.58834">
        <ele>1032</ele>
        <time>2010-06-06T08:39:21Z</time>
      </trkpt>
      <trkpt lat="45.11945" lon="5.58839">
        <ele>1032</ele>
        <time>2010-06-06T08:39:22Z</time>
      </trkpt>
      <trkpt lat="45.11944" lon="5.58842">
        <ele>1033</ele>
        <time>2010-06-06T08:39:23Z</time>
      </trkpt>
      <trkpt lat="45.11944" lon="5.58845">
        <ele>1033</ele>
        <time>2010-06-06T08:39:24Z</time>
      </trkpt>
      <trkpt lat="45.11943" lon="5.58849">
        <ele>1033</ele>
        <time>2010-06-06T08:39:25Z</time>
      </trkpt>
      <trkpt lat="45.11943" lon="5.58851">
        <ele>1034</ele>
        <time>2010-06-06T08:39:26Z</time>
      </trkpt>
      <trkpt lat="45.11943" lon="5.58853">
        <ele>1034</ele>
        <time>2010-06-06T08:39:27Z</time>
      </trkpt>
      <trkpt lat="45.11941" lon="5.58857">
        <ele>1035</ele>
        <time>2010-06-06T08:39:28Z</time>
      </trkpt>
      <trkpt lat="45.1194" lon="5.58861">
        <ele>1035</ele>
        <time>2010-06-06T08:39:29Z</time>
      </trkpt>
      <trkpt lat="45.11939" lon="5.58864">
        <ele>1036</ele>
        <time>2010-06-06T08:39:30Z</time>
      </trkpt>
      <trkpt lat="45.11938" lon="5.58867">
        <ele>1036</ele>
        <time>2010-06-06T08:39:31Z</time>
      </trkpt>
      <trkpt lat="45.11937" lon="5.58871">
        <ele>1037</ele>
        <time>2010-06-06T08:39:32Z</time>
      </trkpt>
      <trkpt lat="45.11937" lon="5.58875">
        <ele>1037</ele>
        <time>2010-06-06T08:39:33Z</time>
      </trkpt>
      <trkpt lat="45.11936" lon="5.58879">
        <ele>1037</ele>
        <time>2010-06-06T08:39:34Z</time>
      </trkpt>
      <trkpt lat="45.11935" lon="5.58882">
        <ele>1038</ele>
        <time>2010-06-06T08:39:35Z</time>
      </trkpt>
      <trkpt lat="45.11934" lon="5.58885">
        <ele>1038</ele>
        <time>2010-06-06T08:39:36Z</time>
      </trkpt>
      <trkpt lat="45.11933" lon="5.58889">
        <ele>1038</ele>
        <time>2010-06-06T08:39:37Z</time>
      </trkpt>
      <trkpt lat="45.11931" lon="5.58892">
        <ele>1038</ele>
        <time>2010-06-06T08:39:38Z</time>
      </trkpt>
      <trkpt lat="45.1193" lon="5.58895">
        <ele>1038</ele>
        <time>2010-06-06T08:39:39Z</time>
      </trkpt>
      <trkpt lat="45.11928" lon="5.58899">
        <ele>1039</ele>
        <time>2010-06-06T08:39:40Z</time>
      </trkpt>
      <trkpt lat="45.11927" lon="5.58902">
        <ele>1039</ele>
        <time>2010-06-06T08:39:41Z</time>
      </trkpt>
      <trkpt lat="45.11925" lon="5.58905">
        <ele>1039</ele>
        <time>2010-06-06T08:39:42Z</time>
      </trkpt>
      <trkpt lat="45.11924" lon="5.58908">
        <ele>1039</ele>
        <time>2010-06-06T08:39:43Z</time>
      </trkpt>
      <trkpt lat="45.11921" lon="5.58911">
        <ele>1039</ele>
        <time>2010-06-06T08:39:44Z</time>
      </trkpt>
      <trkpt lat="45.11919" lon="5.58914">
        <ele>1039</ele>
        <time>2010-06-06T08:39:45Z</time>
      </trkpt>
      <trkpt lat="45.11917" lon="5.58917">
        <ele>1039</ele>
        <time>2010-06-06T08:39:46Z</time>
      </trkpt>
      <trkpt lat="45.11915" lon="5.5892">
        <ele>1039</ele>
        <time>2010-06-06T08:39:47Z</time>
      </trkpt>
      <trkpt lat="45.11913" lon="5.58922">
        <ele>1039</ele>
        <time>2010-06-06T08:39:48Z</time>
      </trkpt>
      <trkpt lat="45.11911" lon="5.58925">
        <ele>1039</ele>
        <time>2010-06-06T08:39:49Z</time>
      </trkpt>
      <trkpt lat="45.11909" lon="5.58927">
        <ele>1039</ele>
        <time>2010-06-06T08:39:50Z</time>
      </trkpt>
      <trkpt lat="45.11907" lon="5.58929">
        <ele>1039</ele>
        <time>2010-06-06T08:39:51Z</time>
      </trkpt>
      <trkpt lat="45.11905" lon="5.58931">
        <ele>1039</ele>
        <time>2010-06-06T08:39:52Z</time>
      </trkpt>
      <trkpt lat="45.11902" lon="5.58933">
        <ele>1039</ele>
        <time>2010-06-06T08:39:53Z</time>
      </trkpt>
      <trkpt lat="45.119" lon="5.58934">
        <ele>1039</ele>
        <time>2010-06-06T08:39:54Z</time>
      </trkpt>
      <trkpt lat="45.11898" lon="5.58936">
        <ele>1039</ele>
        <time>2010-06-06T08:39:55Z</time>
      </trkpt>
      <trkpt lat="45.11895" lon="5.58938">
        <ele>1039</ele>
        <time>2010-06-06T08:39:56Z</time>
      </trkpt>
      <trkpt lat="45.11893" lon="5.58939">
        <ele>1039</ele>
        <time>2010-06-06T08:39:57Z</time>
      </trkpt>
      <trkpt lat="45.1189" lon="5.5894">
        <ele>1039</ele>
        <time>2010-06-06T08:39:58Z</time>
      </trkpt>
      <trkpt lat="45.11888" lon="5.58941">
        <ele>1039</ele>
        <time>2010-06-06T08:39:59Z</time>
      </trkpt>
      <trkpt lat="45.11885" lon="5.58942">
        <ele>1039</ele>
        <time>2010-06-06T08:40:00Z</time>
      </trkpt>
      <trkpt lat="45.11882" lon="5.58943">
        <ele>1039</ele>
        <time>2010-06-06T08:40:01Z</time>
      </trkpt>
      <trkpt lat="45.1188" lon="5.58943">
        <ele>1039</ele>
        <time>2010-06-06T08:40:02Z</time>
      </trkpt>
      <trkpt lat="45.11878" lon="5.58944">
        <ele>1039</ele>
        <time>2010-06-06T08:40:03Z</time>
      </trkpt>
      <trkpt lat="45.11875" lon="5.58945">
        <ele>1039</ele>
        <time>2010-06-06T08:40:04Z</time>
      </trkpt>
      <trkpt lat="45.11873" lon="5.58947">
        <ele>1039</ele>
        <time>2010-06-06T08:40:05Z</time>
      </trkpt>
      <trkpt lat="45.1187" lon="5.58948">
        <ele>1039</ele>
        <time>2010-06-06T08:40:06Z</time>
      </trkpt>
      <trkpt lat="45.11867" lon="5.58949">
        <ele>1039</ele>
        <time>2010-06-06T08:40:07Z</time>
      </trkpt>
      <trkpt lat="45.11864" lon="5.5895">
        <ele>1039</ele>
        <time>2010-06-06T08:40:08Z</time>
      </trkpt>
      <trkpt lat="45.11861" lon="5.58952">
        <ele>1039</ele>
        <time>2010-06-06T08:40:09Z</time>
      </trkpt>
      <trkpt lat="45.11858" lon="5.58953">
        <ele>1039</ele>
        <time>2010-06-06T08:40:10Z</time>
      </trkpt>
      <trkpt lat="45.11856" lon="5.58953">
        <ele>1039</ele>
        <time>2010-06-06T08:40:11Z</time>
      </trkpt>
      <trkpt lat="45.11854" lon="5.58953">
        <ele>1039</ele>
        <time>2010-06-06T08:40:12Z</time>
      </trkpt>
      <trkpt lat="45.11851" lon="5.58953">
        <ele>1039</ele>
        <time>2010-06-06T08:40:13Z</time>
      </trkpt>
      <trkpt lat="45.11848" lon="5.58954">
        <ele>1039</ele>
        <time>2010-06-06T08:40:14Z</time>
      </trkpt>
      <trkpt lat="45.11846" lon="5.58954">
        <ele>1039</ele>
        <time>2010-06-06T08:40:15Z</time>
      </trkpt>
      <trkpt lat="45.11843" lon="5.58956">
        <ele>1039</ele>
        <time>2010-06-06T08:40:16Z</time>
      </trkpt>
      <trkpt lat="45.11841" lon="5.58957">
        <ele>1039</ele>
        <time>2010-06-06T08:40:17Z</time>
      </trkpt>
      <trkpt lat="45.11838" lon="5.58957">
        <ele>1039</ele>
        <time>2010-06-06T08:40:18Z</time>
      </trkpt>
      <trkpt lat="45.11836" lon="5.58957">
        <ele>1039</ele>
        <time>2010-06-06T08:40:19Z</time>
      </trkpt>
      <trkpt lat="45.11833" lon="5.58957">
        <ele>1039</ele>
        <time>2010-06-06T08:40:20Z</time>
      </trkpt>
      <trkpt lat="45.11831" lon="5.58957">
        <ele>1039</ele>
        <time>2010-06-06T08:40:21Z</time>
      </trkpt>
      <trkpt lat="45.11829" lon="5.58957">
        <ele>1039</ele>
        <time>2010-06-06T08:40:22Z</time>
      </trkpt>
      <trkpt lat="45.11827" lon="5.58957">
        <ele>1039</ele>
        <time>2010-06-06T08:40:23Z</time>
      </trkpt>
      <trkpt lat="45.11824" lon="5.58958">
        <ele>1039</ele>
        <time>2010-06-06T08:40:24Z</time>
      </trkpt>
      <trkpt lat="45.11822" lon="5.58958">
        <ele>1039</ele>
        <time>2010-06-06T08:40:25Z</time>
      </trkpt>
      <trkpt lat="45.1182" lon="5.58959">
        <ele>1039</ele>
        <time>2010-06-06T08:40:26Z</time>
      </trkpt>
      <trkpt lat="45.11817" lon="5.58959">
        <ele>1039</ele>
        <time>2010-06-06T08:40:27Z</time>
      </trkpt>
      <trkpt lat="45.11815" lon="5.58958">
        <ele>1040</ele>
        <time>2010-06-06T08:40:28Z</time>
      </trkpt>
      <trkpt lat="45.11813" lon="5.58958">
        <ele>1040</ele>
        <time>2010-06-06T08:40:29Z</time>
      </trkpt>
      <trkpt lat="45.1181" lon="5.58959">
        <ele>1040</ele>
        <time>2010-06-06T08:40:30Z</time>
      </trkpt>
      <trkpt lat="45.11808" lon="5.58959">
        <ele>1040</ele>
        <time>2010-06-06T08:40:31Z</time>
      </trkpt>
      <trkpt lat="45.11806" lon="5.5896">
        <ele>1041</ele>
        <time>2010-06-06T08:40:32Z</time>
      </trkpt>
      <trkpt lat="45.11804" lon="5.58961">
        <ele>1041</ele>
        <time>2010-06-06T08:40:33Z</time>
      </trkpt>
      <trkpt lat="45.11801" lon="5.58962">
        <ele>1041</ele>
        <time>2010-06-06T08:40:34Z</time>
      </trkpt>
      <trkpt lat="45.11799" lon="5.58962">
        <ele>1042</ele>
        <time>2010-06-06T08:40:35Z</time>
      </trkpt>
      <trkpt lat="45.11797" lon="5.58962">
        <ele>1042</ele>
        <time>2010-06-06T08:40:36Z</time>
      </trkpt>
      <trkpt lat="45.11795" lon="5.58962">
        <ele>1042</ele>
        <time>2010-06-06T08:40:37Z</time>
      </trkpt>
      <trkpt lat="45.11793" lon="5.58961">
        <ele>1043</ele>
        <time>2010-06-06T08:40:38Z</time>
      </trkpt>
      <trkpt lat="45.1179" lon="5.58961">
        <ele>1043</ele>
        <time>2010-06-06T08:40:39Z</time>
      </trkpt>
      <trkpt lat="45.11788" lon="5.58962">
        <ele>1043</ele>
        <time>2010-06-06T08:40:40Z</time>
      </trkpt>
      <trkpt lat="45.11786" lon="5.58964">
        <ele>1043</ele>
        <time>2010-06-06T08:40:41Z</time>
      </trkpt>
      <trkpt lat="45.11783" lon="5.58965">
        <ele>1044</ele>
        <time>2010-06-06T08:40:42Z</time>
      </trkpt>
      <trkpt lat="45.11781" lon="5.58965">
        <ele>1044</ele>
        <time>2010-06-06T08:40:43Z</time>
      </trkpt>
      <trkpt lat="45.11779" lon="5.58965">
        <ele>1045</ele>
        <time>2010-06-06T08:40:44Z</time>
      </trkpt>
      <trkpt lat="45.11776" lon="5.58964">
        <ele>1045</ele>
        <time>2010-06-06T08:40:45Z</time>
      </trkpt>
      <trkpt lat="45.11775" lon="5.58964">
        <ele>1045</ele>
        <time>2010-06-06T08:40:46Z</time>
      </trkpt>
      <trkpt lat="45.11773" lon="5.58964">
        <ele>1045</ele>
        <time>2010-06-06T08:40:47Z</time>
      </trkpt>
      <trkpt lat="45.11771" lon="5.58964">
        <ele>1046</ele>
        <time>2010-06-06T08:40:48Z</time>
      </trkpt>
      <trkpt lat="45.11768" lon="5.58965">
        <ele>1046</ele>
        <time>2010-06-06T08:40:49Z</time>
      </trkpt>
      <trkpt lat="45.11765" lon="5.58966">
        <ele>1046</ele>
        <time>2010-06-06T08:40:50Z</time>
      </trkpt>
      <trkpt lat="45.11762" lon="5.58967">
        <ele>1046</ele>
        <time>2010-06-06T08:40:51Z</time>
      </trkpt>
      <trkpt lat="45.1176" lon="5.58966">
        <ele>1047</ele>
        <time>2010-06-06T08:40:52Z</time>
      </trkpt>
      <trkpt lat="45.11758" lon="5.58966">
        <ele>1047</ele>
        <time>2010-06-06T08:40:53Z</time>
      </trkpt>
      <trkpt lat="45.11755" lon="5.58967">
        <ele>1047</ele>
        <time>2010-06-06T08:40:54Z</time>
      </trkpt>
      <trkpt lat="45.11753" lon="5.58967">
        <ele>1048</ele>
        <time>2010-06-06T08:40:55Z</time>
      </trkpt>
      <trkpt lat="45.11752" lon="5.58968">
        <ele>1048</ele>
        <time>2010-06-06T08:40:56Z</time>
      </trkpt>
      <trkpt lat="45.1175" lon="5.58968">
        <ele>1048</ele>
        <time>2010-06-06T08:40:57Z</time>
      </trkpt>
      <trkpt lat="45.11748" lon="5.5897">
        <ele>1048</ele>
        <time>2010-06-06T08:40:58Z</time>
      </trkpt>
      <trkpt lat="45.11747" lon="5.58972">
        <ele>1049</ele>
        <time>2010-06-06T08:40:59Z</time>
      </trkpt>
      <trkpt lat="45.11745" lon="5.58974">
        <ele>1049</ele>
        <time>2010-06-06T08:41:00Z</time>
      </trkpt>
      <trkpt lat="45.11744" lon="5.58976">
        <ele>1050</ele>
        <time>2010-06-06T08:41:01Z</time>
      </trkpt>
      <trkpt lat="45.11743" lon="5.58978">
        <ele>1051</ele>
        <time>2010-06-06T08:41:02Z</time>
      </trkpt>
      <trkpt lat="45.11742" lon="5.5898">
        <ele>1051</ele>
        <time>2010-06-06T08:41:03Z</time>
      </trkpt>
      <trkpt lat="45.11741" lon="5.58982">
        <ele>1052</ele>
        <time>2010-06-06T08:41:04Z</time>
      </trkpt>
      <trkpt lat="45.11739" lon="5.58985">
        <ele>1053</ele>
        <time>2010-06-06T08:41:05Z</time>
      </trkpt>
      <trkpt lat="45.11738" lon="5.58987">
        <ele>1054</ele>
        <time>2010-06-06T08:41:06Z</time>
      </trkpt>
      <trkpt lat="45.11737" lon="5.58989">
        <ele>1054</ele>
        <time>2010-06-06T08:41:07Z</time>
      </trkpt>
      <trkpt lat="45.11736" lon="5.58992">
        <ele>1055</ele>
        <time>2010-06-06T08:41:08Z</time>
      </trkpt>
      <trkpt lat="45.11735" lon="5.58995">
        <ele>1056</ele>
        <time>2010-06-06T08:41:09Z</time>
      </trkpt>
      <trkpt lat="45.11734" lon="5.58997">
        <ele>1056</ele>
        <time>2010-06-06T08:41:10Z</time>
      </trkpt>
      <trkpt lat="45.11733" lon="5.59">
        <ele>1056</ele>
        <time>2010-06-06T08:41:11Z</time>
      </trkpt>
      <trkpt lat="45.11732" lon="5.59002">
        <ele>1057</ele>
        <time>2010-06-06T08:41:12Z</time>
      </trkpt>
      <trkpt lat="45.11731" lon="5.59004">
        <ele>1057</ele>
        <time>2010-06-06T08:41:13Z</time>
      </trkpt>
      <trkpt lat="45.1173" lon="5.59006">
        <ele>1058</ele>
        <time>2010-06-06T08:41:14Z</time>
      </trkpt>
      <trkpt lat="45.11729" lon="5.59009">
        <ele>1058</ele>
        <time>2010-06-06T08:41:15Z</time>
      </trkpt>
      <trkpt lat="45.11727" lon="5.59011">
        <ele>1059</ele>
        <time>2010-06-06T08:41:16Z</time>
      </trkpt>
      <trkpt lat="45.11726" lon="5.59013">
        <ele>1059</ele>
        <time>2010-06-06T08:41:17Z</time>
      </trkpt>
      <trkpt lat="45.11724" lon="5.59015">
        <ele>1060</ele>
        <time>2010-06-06T08:41:18Z</time>
      </trkpt>
      <trkpt lat="45.11723" lon="5.59017">
        <ele>1060</ele>
        <time>2010-06-06T08:41:19Z</time>
      </trkpt>
      <trkpt lat="45.11721" lon="5.5902">
        <ele>1061</ele>
        <time>2010-06-06T08:41:20Z</time>
      </trkpt>
      <trkpt lat="45.1172" lon="5.59023">
        <ele>1061</ele>
        <time>2010-06-06T08:41:21Z</time>
      </trkpt>
      <trkpt lat="45.11718" lon="5.59025">
        <ele>1062</ele>
        <time>2010-06-06T08:41:22Z</time>
      </trkpt>
      <trkpt lat="45.11717" lon="5.59027">
        <ele>1063</ele>
        <time>2010-06-06T08:41:23Z</time>
      </trkpt>
      <trkpt lat="45.11716" lon="5.59029">
        <ele>1063</ele>
        <time>2010-06-06T08:41:24Z</time>
      </trkpt>
      <trkpt lat="45.11714" lon="5.59031">
        <ele>1063</ele>
        <time>2010-06-06T08:41:25Z</time>
      </trkpt>
      <trkpt lat="45.11712" lon="5.59034">
        <ele>1063</ele>
        <time>2010-06-06T08:41:26Z</time>
      </trkpt>
      <trkpt lat="45.11711" lon="5.59036">
        <ele>1063</ele>
        <time>2010-06-06T08:41:27Z</time>
      </trkpt>
      <trkpt lat="45.1171" lon="5.59039">
        <ele>1064</ele>
        <time>2010-06-06T08:41:28Z</time>
      </trkpt>
      <trkpt lat="45.11709" lon="5.59042">
        <ele>1064</ele>
        <time>2010-06-06T08:41:29Z</time>
      </trkpt>
      <trkpt lat="45.11707" lon="5.59045">
        <ele>1064</ele>
        <time>2010-06-06T08:41:30Z</time>
      </trkpt>
      <trkpt lat="45.11706" lon="5.59047">
        <ele>1065</ele>
        <time>2010-06-06T08:41:31Z</time>
      </trkpt>
      <trkpt lat="45.11704" lon="5.59049">
        <ele>1065</ele>
        <time>2010-06-06T08:41:32Z</time>
      </trkpt>
      <trkpt lat="45.11703" lon="5.59051">
        <ele>1066</ele>
        <time>2010-06-06T08:41:33Z</time>
      </trkpt>
      <trkpt lat="45.11702" lon="5.59054">
        <ele>1066</ele>
        <time>2010-06-06T08:41:34Z</time>
      </trkpt>
      <trkpt lat="45.11701" lon="5.59056">
        <ele>1067</ele>
        <time>2010-06-06T08:41:35Z</time>
      </trkpt>
      <trkpt lat="45.11699" lon="5.59059">
        <ele>1067</ele>
        <time>2010-06-06T08:41:36Z</time>
      </trkpt>
      <trkpt lat="45.11698" lon="5.5906">
        <ele>1068</ele>
        <time>2010-06-06T08:41:37Z</time>
      </trkpt>
      <trkpt lat="45.11697" lon="5.59062">
        <ele>1068</ele>
        <time>2010-06-06T08:41:38Z</time>
      </trkpt>
      <trkpt lat="45.11695" lon="5.59064">
        <ele>1068</ele>
        <time>2010-06-06T08:41:39Z</time>
      </trkpt>
      <trkpt lat="45.11693" lon="5.59066">
        <ele>1069</ele>
        <time>2010-06-06T08:41:40Z</time>
      </trkpt>
      <trkpt lat="45.11691" lon="5.59068">
        <ele>1069</ele>
        <time>2010-06-06T08:41:41Z</time>
      </trkpt>
      <trkpt lat="45.1169" lon="5.5907">
        <ele>1070</ele>
        <time>2010-06-06T08:41:42Z</time>
      </trkpt>
      <trkpt lat="45.11688" lon="5.59072">
        <ele>1070</ele>
        <time>2010-06-06T08:41:43Z</time>
      </trkpt>
      <trkpt lat="45.11687" lon="5.59074">
        <ele>1071</ele>
        <time>2010-06-06T08:41:44Z</time>
      </trkpt>
      <trkpt lat="45.11685" lon="5.59076">
        <ele>1072</ele>
        <time>2010-06-06T08:41:45Z</time>
      </trkpt>
      <trkpt lat="45.11684" lon="5.59078">
        <ele>1073</ele>
        <time>2010-06-06T08:41:46Z</time>
      </trkpt>
      <trkpt lat="45.11682" lon="5.59079">
        <ele>1074</ele>
        <time>2010-06-06T08:41:47Z</time>
      </trkpt>
      <trkpt lat="45.11681" lon="5.59081">
        <ele>1075</ele>
        <time>2010-06-06T08:41:48Z</time>
      </trkpt>
      <trkpt lat="45.11678" lon="5.59085">
        <ele>1076</ele>
        <time>2010-06-06T08:41:49Z</time>
      </trkpt>
      <trkpt lat="45.11676" lon="5.59088">
        <ele>1077</ele>
        <time>2010-06-06T08:41:50Z</time>
      </trkpt>
      <trkpt lat="45.11674" lon="5.59089">
        <ele>1078</ele>
        <time>2010-06-06T08:41:51Z</time>
      </trkpt>
      <trkpt lat="45.11671" lon="5.5909">
        <ele>1079</ele>
        <time>2010-06-06T08:41:52Z</time>
      </trkpt>
      <trkpt lat="45.11669" lon="5.5909">
        <ele>1080</ele>
        <time>2010-06-06T08:41:53Z</time>
      </trkpt>
      <trkpt lat="45.11667" lon="5.59091">
        <ele>1081</ele>
        <time>2010-06-06T08:41:54Z</time>
      </trkpt>
      <trkpt lat="45.11665" lon="5.59092">
        <ele>1082</ele>
        <time>2010-06-06T08:41:55Z</time>
      </trkpt>
      <trkpt lat="45.11662" lon="5.59093">
        <ele>1083</ele>
        <time>2010-06-06T08:41:56Z</time>
      </trkpt>
      <trkpt lat="45.11659" lon="5.59094">
        <ele>1083</ele>
        <time>2010-06-06T08:41:57Z</time>
      </trkpt>
      <trkpt lat="45.11656" lon="5.59094">
        <ele>1083</ele>
        <time>2010-06-06T08:41:58Z</time>
      </trkpt>
      <trkpt lat="45.11654" lon="5.59094">
        <ele>1083</ele>
        <time>2010-06-06T08:41:59Z</time>
      </trkpt>
      <trkpt lat="45.11651" lon="5.59093">
        <ele>1083</ele>
        <time>2010-06-06T08:42:00Z</time>
      </trkpt>
      <trkpt lat="45.1165" lon="5.59093">
        <ele>1083</ele>
        <time>2010-06-06T08:42:01Z</time>
      </trkpt>
      <trkpt lat="45.11648" lon="5.59093">
        <ele>1083</ele>
        <time>2010-06-06T08:42:02Z</time>
      </trkpt>
      <trkpt lat="45.11646" lon="5.59093">
        <ele>1083</ele>
        <time>2010-06-06T08:42:03Z</time>
      </trkpt>
      <trkpt lat="45.11644" lon="5.59094">
        <ele>1083</ele>
        <time>2010-06-06T08:42:04Z</time>
      </trkpt>
      <trkpt lat="45.11642" lon="5.59095">
        <ele>1083</ele>
        <time>2010-06-06T08:42:05Z</time>
      </trkpt>
      <trkpt lat="45.11639" lon="5.59095">
        <ele>1083</ele>
        <time>2010-06-06T08:42:06Z</time>
      </trkpt>
      <trkpt lat="45.11638" lon="5.59095">
        <ele>1083</ele>
        <time>2010-06-06T08:42:07Z</time>
      </trkpt>
      <trkpt lat="45.11636" lon="5.59095">
        <ele>1083</ele>
        <time>2010-06-06T08:42:08Z</time>
      </trkpt>
      <trkpt lat="45.11635" lon="5.59095">
        <ele>1083</ele>
        <time>2010-06-06T08:42:09Z</time>
      </trkpt>
      <trkpt lat="45.11633" lon="5.59096">
        <ele>1083</ele>
        <time>2010-06-06T08:42:10Z</time>
      </trkpt>
      <trkpt lat="45.11632" lon="5.59097">
        <ele>1084</ele>
        <time>2010-06-06T08:42:11Z</time>
      </trkpt>
      <trkpt lat="45.1163" lon="5.59097">
        <ele>1084</ele>
        <time>2010-06-06T08:42:12Z</time>
      </trkpt>
      <trkpt lat="45.11628" lon="5.59098">
        <ele>1085</ele>
        <time>2010-06-06T08:42:13Z</time>
      </trkpt>
      <trkpt lat="45.11627" lon="5.59098">
        <ele>1085</ele>
        <time>2010-06-06T08:42:14Z</time>
      </trkpt>
      <trkpt lat="45.11624" lon="5.59099">
        <ele>1087</ele>
        <time>2010-06-06T08:42:16Z</time>
      </trkpt>
      <trkpt lat="45.11623" lon="5.591">
        <ele>1088</ele>
        <time>2010-06-06T08:42:17Z</time>
      </trkpt>
      <trkpt lat="45.11621" lon="5.59101">
        <ele>1089</ele>
        <time>2010-06-06T08:42:18Z</time>
      </trkpt>
      <trkpt lat="45.11619" lon="5.59101">
        <ele>1090</ele>
        <time>2010-06-06T08:42:19Z</time>
      </trkpt>
      <trkpt lat="45.11616" lon="5.59101">
        <ele>1091</ele>
        <time>2010-06-06T08:42:20Z</time>
      </trkpt>
      <trkpt lat="45.11615" lon="5.59101">
        <ele>1092</ele>
        <time>2010-06-06T08:42:21Z</time>
      </trkpt>
      <trkpt lat="45.11612" lon="5.59101">
        <ele>1093</ele>
        <time>2010-06-06T08:42:22Z</time>
      </trkpt>
      <trkpt lat="45.1161" lon="5.59101">
        <ele>1093</ele>
        <time>2010-06-06T08:42:23Z</time>
      </trkpt>
      <trkpt lat="45.11608" lon="5.59101">
        <ele>1093</ele>
        <time>2010-06-06T08:42:24Z</time>
      </trkpt>
      <trkpt lat="45.11607" lon="5.591">
        <ele>1093</ele>
        <time>2010-06-06T08:42:25Z</time>
      </trkpt>
      <trkpt lat="45.11604" lon="5.591">
        <ele>1093</ele>
        <time>2010-06-06T08:42:26Z</time>
      </trkpt>
      <trkpt lat="45.11602" lon="5.59099">
        <ele>1093</ele>
        <time>2010-06-06T08:42:27Z</time>
      </trkpt>
      <trkpt lat="45.11601" lon="5.59098">
        <ele>1093</ele>
        <time>2010-06-06T08:42:28Z</time>
      </trkpt>
      <trkpt lat="45.11598" lon="5.59098">
        <ele>1093</ele>
        <time>2010-06-06T08:42:29Z</time>
      </trkpt>
      <trkpt lat="45.11596" lon="5.59099">
        <ele>1093</ele>
        <time>2010-06-06T08:42:30Z</time>
      </trkpt>
      <trkpt lat="45.11594" lon="5.59098">
        <ele>1093</ele>
        <time>2010-06-06T08:42:31Z</time>
      </trkpt>
      <trkpt lat="45.11592" lon="5.59098">
        <ele>1093</ele>
        <time>2010-06-06T08:42:32Z</time>
      </trkpt>
      <trkpt lat="45.1159" lon="5.59097">
        <ele>1093</ele>
        <time>2010-06-06T08:42:33Z</time>
      </trkpt>
      <trkpt lat="45.11588" lon="5.59096">
        <ele>1093</ele>
        <time>2010-06-06T08:42:34Z</time>
      </trkpt>
      <trkpt lat="45.11587" lon="5.59097">
        <ele>1093</ele>
        <time>2010-06-06T08:42:35Z</time>
      </trkpt>
      <trkpt lat="45.11586" lon="5.59098">
        <ele>1093</ele>
        <time>2010-06-06T08:42:36Z</time>
      </trkpt>
      <trkpt lat="45.11584" lon="5.59099">
        <ele>1093</ele>
        <time>2010-06-06T08:42:37Z</time>
      </trkpt>
      <trkpt lat="45.11583" lon="5.59101">
        <ele>1093</ele>
        <time>2010-06-06T08:42:38Z</time>
      </trkpt>
      <trkpt lat="45.11582" lon="5.59102">
        <ele>1093</ele>
        <time>2010-06-06T08:42:39Z</time>
      </trkpt>
      <trkpt lat="45.1158" lon="5.59104">
        <ele>1093</ele>
        <time>2010-06-06T08:42:40Z</time>
      </trkpt>
      <trkpt lat="45.11579" lon="5.59106">
        <ele>1093</ele>
        <time>2010-06-06T08:42:41Z</time>
      </trkpt>
      <trkpt lat="45.11578" lon="5.59108">
        <ele>1093</ele>
        <time>2010-06-06T08:42:42Z</time>
      </trkpt>
      <trkpt lat="45.11577" lon="5.59109">
        <ele>1093</ele>
        <time>2010-06-06T08:42:43Z</time>
      </trkpt>
      <trkpt lat="45.11575" lon="5.59112">
        <ele>1094</ele>
        <time>2010-06-06T08:42:45Z</time>
      </trkpt>
      <trkpt lat="45.11574" lon="5.59114">
        <ele>1094</ele>
        <time>2010-06-06T08:42:46Z</time>
      </trkpt>
      <trkpt lat="45.11573" lon="5.59116">
        <ele>1094</ele>
        <time>2010-06-06T08:42:47Z</time>
      </trkpt>
      <trkpt lat="45.11572" lon="5.59119">
        <ele>1094</ele>
        <time>2010-06-06T08:42:48Z</time>
      </trkpt>
      <trkpt lat="45.11572" lon="5.5912">
        <ele>1095</ele>
        <time>2010-06-06T08:42:49Z</time>
      </trkpt>
      <trkpt lat="45.11571" lon="5.59123">
        <ele>1096</ele>
        <time>2010-06-06T08:42:50Z</time>
      </trkpt>
      <trkpt lat="45.1157" lon="5.59125">
        <ele>1097</ele>
        <time>2010-06-06T08:42:51Z</time>
      </trkpt>
      <trkpt lat="45.11569" lon="5.59126">
        <ele>1098</ele>
        <time>2010-06-06T08:42:52Z</time>
      </trkpt>
      <trkpt lat="45.11567" lon="5.59127">
        <ele>1099</ele>
        <time>2010-06-06T08:42:53Z</time>
      </trkpt>
      <trkpt lat="45.11567" lon="5.59129">
        <ele>1100</ele>
        <time>2010-06-06T08:42:54Z</time>
      </trkpt>
      <trkpt lat="45.11565" lon="5.59132">
        <ele>1100</ele>
        <time>2010-06-06T08:42:55Z</time>
      </trkpt>
      <trkpt lat="45.11564" lon="5.59134">
        <ele>1100</ele>
        <time>2010-06-06T08:42:56Z</time>
      </trkpt>
      <trkpt lat="45.11563" lon="5.59137">
        <ele>1100</ele>
        <time>2010-06-06T08:42:57Z</time>
      </trkpt>
      <trkpt lat="45.11562" lon="5.59138">
        <ele>1100</ele>
        <time>2010-06-06T08:42:58Z</time>
      </trkpt>
      <trkpt lat="45.11561" lon="5.5914">
        <ele>1100</ele>
        <time>2010-06-06T08:42:59Z</time>
      </trkpt>
      <trkpt lat="45.11559" lon="5.59142">
        <ele>1100</ele>
        <time>2010-06-06T08:43:00Z</time>
      </trkpt>
      <trkpt lat="45.11557" lon="5.59145">
        <ele>1100</ele>
        <time>2010-06-06T08:43:01Z</time>
      </trkpt>
      <trkpt lat="45.11555" lon="5.59146">
        <ele>1100</ele>
        <time>2010-06-06T08:43:02Z</time>
      </trkpt>
      <trkpt lat="45.11554" lon="5.59148">
        <ele>1100</ele>
        <time>2010-06-06T08:43:03Z</time>
      </trkpt>
      <trkpt lat="45.11552" lon="5.59151">
        <ele>1100</ele>
        <time>2010-06-06T08:43:04Z</time>
      </trkpt>
      <trkpt lat="45.11551" lon="5.59153">
        <ele>1100</ele>
        <time>2010-06-06T08:43:05Z</time>
      </trkpt>
      <trkpt lat="45.1155" lon="5.59155">
        <ele>1100</ele>
        <time>2010-06-06T08:43:06Z</time>
      </trkpt>
      <trkpt lat="45.11548" lon="5.59156">
        <ele>1100</ele>
        <time>2010-06-06T08:43:07Z</time>
      </trkpt>
      <trkpt lat="45.11547" lon="5.59156">
        <ele>1100</ele>
        <time>2010-06-06T08:43:08Z</time>
      </trkpt>
      <trkpt lat="45.11544" lon="5.59157">
        <ele>1100</ele>
        <time>2010-06-06T08:43:09Z</time>
      </trkpt>
      <trkpt lat="45.11542" lon="5.59158">
        <ele>1100</ele>
        <time>2010-06-06T08:43:10Z</time>
      </trkpt>
      <trkpt lat="45.1154" lon="5.59159">
        <ele>1100</ele>
        <time>2010-06-06T08:43:11Z</time>
      </trkpt>
      <trkpt lat="45.11539" lon="5.5916">
        <ele>1100</ele>
        <time>2010-06-06T08:43:12Z</time>
      </trkpt>
      <trkpt lat="45.11537" lon="5.59161">
        <ele>1100</ele>
        <time>2010-06-06T08:43:13Z</time>
      </trkpt>
      <trkpt lat="45.11534" lon="5.59162">
        <ele>1100</ele>
        <time>2010-06-06T08:43:14Z</time>
      </trkpt>
      <trkpt lat="45.11532" lon="5.59161">
        <ele>1100</ele>
        <time>2010-06-06T08:43:15Z</time>
      </trkpt>
      <trkpt lat="45.1153" lon="5.59161">
        <ele>1100</ele>
        <time>2010-06-06T08:43:16Z</time>
      </trkpt>
      <trkpt lat="45.11528" lon="5.59161">
        <ele>1100</ele>
        <time>2010-06-06T08:43:17Z</time>
      </trkpt>
      <trkpt lat="45.11526" lon="5.5916">
        <ele>1100</ele>
        <time>2010-06-06T08:43:18Z</time>
      </trkpt>
      <trkpt lat="45.11523" lon="5.59159">
        <ele>1100</ele>
        <time>2010-06-06T08:43:19Z</time>
      </trkpt>
      <trkpt lat="45.11521" lon="5.59157">
        <ele>1100</ele>
        <time>2010-06-06T08:43:20Z</time>
      </trkpt>
      <trkpt lat="45.11519" lon="5.59156">
        <ele>1100</ele>
        <time>2010-06-06T08:43:21Z</time>
      </trkpt>
      <trkpt lat="45.11517" lon="5.59155">
        <ele>1101</ele>
        <time>2010-06-06T08:43:22Z</time>
      </trkpt>
      <trkpt lat="45.11515" lon="5.59154">
        <ele>1102</ele>
        <time>2010-06-06T08:43:23Z</time>
      </trkpt>
      <trkpt lat="45.11514" lon="5.59153">
        <ele>1102</ele>
        <time>2010-06-06T08:43:24Z</time>
      </trkpt>
      <trkpt lat="45.11512" lon="5.59152">
        <ele>1102</ele>
        <time>2010-06-06T08:43:25Z</time>
      </trkpt>
      <trkpt lat="45.1151" lon="5.59151">
        <ele>1103</ele>
        <time>2010-06-06T08:43:26Z</time>
      </trkpt>
      <trkpt lat="45.11508" lon="5.59151">
        <ele>1103</ele>
        <time>2010-06-06T08:43:27Z</time>
      </trkpt>
      <trkpt lat="45.11506" lon="5.59151">
        <ele>1104</ele>
        <time>2010-06-06T08:43:28Z</time>
      </trkpt>
      <trkpt lat="45.11504" lon="5.59151">
        <ele>1104</ele>
        <time>2010-06-06T08:43:29Z</time>
      </trkpt>
      <trkpt lat="45.11502" lon="5.5915">
        <ele>1104</ele>
        <time>2010-06-06T08:43:30Z</time>
      </trkpt>
      <trkpt lat="45.11501" lon="5.5915">
        <ele>1104</ele>
        <time>2010-06-06T08:43:31Z</time>
      </trkpt>
      <trkpt lat="45.11499" lon="5.59149">
        <ele>1105</ele>
        <time>2010-06-06T08:43:32Z</time>
      </trkpt>
      <trkpt lat="45.11498" lon="5.59147">
        <ele>1106</ele>
        <time>2010-06-06T08:43:33Z</time>
      </trkpt>
      <trkpt lat="45.11497" lon="5.59145">
        <ele>1107</ele>
        <time>2010-06-06T08:43:34Z</time>
      </trkpt>
      <trkpt lat="45.11495" lon="5.59143">
        <ele>1108</ele>
        <time>2010-06-06T08:43:35Z</time>
      </trkpt>
      <trkpt lat="45.11493" lon="5.59142">
        <ele>1108</ele>
        <time>2010-06-06T08:43:36Z</time>
      </trkpt>
      <trkpt lat="45.11491" lon="5.59142">
        <ele>1109</ele>
        <time>2010-06-06T08:43:37Z</time>
      </trkpt>
      <trkpt lat="45.11489" lon="5.59141">
        <ele>1110</ele>
        <time>2010-06-06T08:43:38Z</time>
      </trkpt>
      <trkpt lat="45.11487" lon="5.59141">
        <ele>1111</ele>
        <time>2010-06-06T08:43:39Z</time>
      </trkpt>
      <trkpt lat="45.11485" lon="5.59141">
        <ele>1112</ele>
        <time>2010-06-06T08:43:40Z</time>
      </trkpt>
      <trkpt lat="45.11483" lon="5.5914">
        <ele>1113</ele>
        <time>2010-06-06T08:43:41Z</time>
      </trkpt>
      <trkpt lat="45.11481" lon="5.59139">
        <ele>1113</ele>
        <time>2010-06-06T08:43:42Z</time>
      </trkpt>
      <trkpt lat="45.1148" lon="5.59137">
        <ele>1114</ele>
        <time>2010-06-06T08:43:43Z</time>
      </trkpt>
      <trkpt lat="45.11479" lon="5.59136">
        <ele>1115</ele>
        <time>2010-06-06T08:43:44Z</time>
      </trkpt>
      <trkpt lat="45.11477" lon="5.59135">
        <ele>1115</ele>
        <time>2010-06-06T08:43:45Z</time>
      </trkpt>
      <trkpt lat="45.11475" lon="5.59133">
        <ele>1116</ele>
        <time>2010-06-06T08:43:47Z</time>
      </trkpt>
      <trkpt lat="45.11473" lon="5.59133">
        <ele>1117</ele>
        <time>2010-06-06T08:43:48Z</time>
      </trkpt>
      <trkpt lat="45.11471" lon="5.59131">
        <ele>1118</ele>
        <time>2010-06-06T08:43:50Z</time>
      </trkpt>
      <trkpt lat="45.11469" lon="5.59129">
        <ele>1119</ele>
        <time>2010-06-06T08:43:51Z</time>
      </trkpt>
      <trkpt lat="45.11467" lon="5.59128">
        <ele>1120</ele>
        <time>2010-06-06T08:43:52Z</time>
      </trkpt>
      <trkpt lat="45.11465" lon="5.59127">
        <ele>1121</ele>
        <time>2010-06-06T08:43:53Z</time>
      </trkpt>
      <trkpt lat="45.11464" lon="5.59126">
        <ele>1122</ele>
        <time>2010-06-06T08:43:54Z</time>
      </trkpt>
      <trkpt lat="45.11463" lon="5.59125">
        <ele>1123</ele>
        <time>2010-06-06T08:43:55Z</time>
      </trkpt>
      <trkpt lat="45.11461" lon="5.59123">
        <ele>1124</ele>
        <time>2010-06-06T08:43:56Z</time>
      </trkpt>
      <trkpt lat="45.1146" lon="5.59121">
        <ele>1125</ele>
        <time>2010-06-06T08:43:57Z</time>
      </trkpt>
      <trkpt lat="45.11459" lon="5.59119">
        <ele>1126</ele>
        <time>2010-06-06T08:43:58Z</time>
      </trkpt>
      <trkpt lat="45.11457" lon="5.59117">
        <ele>1127</ele>
        <time>2010-06-06T08:43:59Z</time>
      </trkpt>
      <trkpt lat="45.11456" lon="5.59115">
        <ele>1128</ele>
        <time>2010-06-06T08:44:00Z</time>
      </trkpt>
      <trkpt lat="45.11455" lon="5.59113">
        <ele>1129</ele>
        <time>2010-06-06T08:44:01Z</time>
      </trkpt>
      <trkpt lat="45.11454" lon="5.59112">
        <ele>1131</ele>
        <time>2010-06-06T08:44:02Z</time>
      </trkpt>
      <trkpt lat="45.11452" lon="5.59111">
        <ele>1132</ele>
        <time>2010-06-06T08:44:03Z</time>
      </trkpt>
      <trkpt lat="45.11451" lon="5.59111">
        <ele>1134</ele>
        <time>2010-06-06T08:44:04Z</time>
      </trkpt>
      <trkpt lat="45.11449" lon="5.5911">
        <ele>1135</ele>
        <time>2010-06-06T08:44:05Z</time>
      </trkpt>
      <trkpt lat="45.11447" lon="5.59109">
        <ele>1136</ele>
        <time>2010-06-06T08:44:06Z</time>
      </trkpt>
      <trkpt lat="45.11445" lon="5.59107">
        <ele>1137</ele>
        <time>2010-06-06T08:44:07Z</time>
      </trkpt>
      <trkpt lat="45.11443" lon="5.59106">
        <ele>1138</ele>
        <time>2010-06-06T08:44:08Z</time>
      </trkpt>
      <trkpt lat="45.11441" lon="5.59105">
        <ele>1138</ele>
        <time>2010-06-06T08:44:09Z</time>
      </trkpt>
      <trkpt lat="45.11439" lon="5.59102">
        <ele>1138</ele>
        <time>2010-06-06T08:44:10Z</time>
      </trkpt>
      <trkpt lat="45.11437" lon="5.59102">
        <ele>1138</ele>
        <time>2010-06-06T08:44:11Z</time>
      </trkpt>
      <trkpt lat="45.11435" lon="5.59101">
        <ele>1138</ele>
        <time>2010-06-06T08:44:12Z</time>
      </trkpt>
      <trkpt lat="45.11433" lon="5.591">
        <ele>1138</ele>
        <time>2010-06-06T08:44:14Z</time>
      </trkpt>
      <trkpt lat="45.11432" lon="5.591">
        <ele>1138</ele>
        <time>2010-06-06T08:44:15Z</time>
      </trkpt>
      <trkpt lat="45.1143" lon="5.59097">
        <ele>1138</ele>
        <time>2010-06-06T08:44:17Z</time>
      </trkpt>
      <trkpt lat="45.1143" lon="5.59095">
        <ele>1137</ele>
        <time>2010-06-06T08:44:18Z</time>
      </trkpt>
      <trkpt lat="45.11428" lon="5.59092">
        <ele>1136</ele>
        <time>2010-06-06T08:44:20Z</time>
      </trkpt>
      <trkpt lat="45.11427" lon="5.59089">
        <ele>1135</ele>
        <time>2010-06-06T08:44:22Z</time>
      </trkpt>
      <trkpt lat="45.11425" lon="5.59089">
        <ele>1134</ele>
        <time>2010-06-06T08:44:24Z</time>
      </trkpt>
      <trkpt lat="45.11424" lon="5.59089">
        <ele>1134</ele>
        <time>2010-06-06T08:44:25Z</time>
      </trkpt>
      <trkpt lat="45.11422" lon="5.59088">
        <ele>1133</ele>
        <time>2010-06-06T08:44:27Z</time>
      </trkpt>
      <trkpt lat="45.1142" lon="5.59087">
        <ele>1133</ele>
        <time>2010-06-06T08:44:28Z</time>
      </trkpt>
      <trkpt lat="45.11418" lon="5.59085">
        <ele>1133</ele>
        <time>2010-06-06T08:44:30Z</time>
      </trkpt>
      <trkpt lat="45.11416" lon="5.59085">
        <ele>1133</ele>
        <time>2010-06-06T08:44:32Z</time>
      </trkpt>
      <trkpt lat="45.11415" lon="5.59085">
        <ele>1133</ele>
        <time>2010-06-06T08:44:33Z</time>
      </trkpt>
      <trkpt lat="45.11414" lon="5.59086">
        <ele>1133</ele>
        <time>2010-06-06T08:44:34Z</time>
      </trkpt>
      <trkpt lat="45.11412" lon="5.59086">
        <ele>1133</ele>
        <time>2010-06-06T08:44:35Z</time>
      </trkpt>
      <trkpt lat="45.11411" lon="5.59085">
        <ele>1133</ele>
        <time>2010-06-06T08:44:36Z</time>
      </trkpt>
      <trkpt lat="45.1141" lon="5.59086">
        <ele>1133</ele>
        <time>2010-06-06T08:44:37Z</time>
      </trkpt>
      <trkpt lat="45.11409" lon="5.59087">
        <ele>1133</ele>
        <time>2010-06-06T08:44:39Z</time>
      </trkpt>
      <trkpt lat="45.11408" lon="5.59089">
        <ele>1134</ele>
        <time>2010-06-06T08:44:41Z</time>
      </trkpt>
      <trkpt lat="45.11407" lon="5.59091">
        <ele>1136</ele>
        <time>2010-06-06T08:44:43Z</time>
      </trkpt>
      <trkpt lat="45.11407" lon="5.59093">
        <ele>1138</ele>
        <time>2010-06-06T08:44:45Z</time>
      </trkpt>
      <trkpt lat="45.11407" lon="5.59094">
        <ele>1140</ele>
        <time>2010-06-06T08:44:47Z</time>
      </trkpt>
      <trkpt lat="45.11407" lon="5.59097">
        <ele>1142</ele>
        <time>2010-06-06T08:44:49Z</time>
      </trkpt>
      <trkpt lat="45.11407" lon="5.591">
        <ele>1142</ele>
        <time>2010-06-06T08:44:50Z</time>
      </trkpt>
      <trkpt lat="45.11407" lon="5.59102">
        <ele>1142</ele>
        <time>2010-06-06T08:44:51Z</time>
      </trkpt>
      <trkpt lat="45.11408" lon="5.59104">
        <ele>1142</ele>
        <time>2010-06-06T08:44:52Z</time>
      </trkpt>
      <trkpt lat="45.11408" lon="5.59105">
        <ele>1142</ele>
        <time>2010-06-06T08:44:53Z</time>
      </trkpt>
      <trkpt lat="45.11408" lon="5.59108">
        <ele>1142</ele>
        <time>2010-06-06T08:44:55Z</time>
      </trkpt>
      <trkpt lat="45.11409" lon="5.5911">
        <ele>1142</ele>
        <time>2010-06-06T08:44:56Z</time>
      </trkpt>
      <trkpt lat="45.1141" lon="5.59111">
        <ele>1142</ele>
        <time>2010-06-06T08:44:57Z</time>
      </trkpt>
      <trkpt lat="45.1141" lon="5.59114">
        <ele>1141</ele>
        <time>2010-06-06T08:44:59Z</time>
      </trkpt>
      <trkpt lat="45.1141" lon="5.59115">
        <ele>1141</ele>
        <time>2010-06-06T08:45:00Z</time>
      </trkpt>
      <trkpt lat="45.11411" lon="5.59117">
        <ele>1139</ele>
        <time>2010-06-06T08:45:02Z</time>
      </trkpt>
      <trkpt lat="45.11412" lon="5.59121">
        <ele>1137</ele>
        <time>2010-06-06T08:45:04Z</time>
      </trkpt>
      <trkpt lat="45.11413" lon="5.59123">
        <ele>1136</ele>
        <time>2010-06-06T08:45:05Z</time>
      </trkpt>
      <trkpt lat="45.11413" lon="5.59125">
        <ele>1135</ele>
        <time>2010-06-06T08:45:06Z</time>
      </trkpt>
      <trkpt lat="45.11415" lon="5.59128">
        <ele>1135</ele>
        <time>2010-06-06T08:45:07Z</time>
      </trkpt>
      <trkpt lat="45.11416" lon="5.5913">
        <ele>1134</ele>
        <time>2010-06-06T08:45:08Z</time>
      </trkpt>
      <trkpt lat="45.11416" lon="5.59133">
        <ele>1134</ele>
        <time>2010-06-06T08:45:09Z</time>
      </trkpt>
      <trkpt lat="45.11417" lon="5.59135">
        <ele>1133</ele>
        <time>2010-06-06T08:45:10Z</time>
      </trkpt>
      <trkpt lat="45.11417" lon="5.59137">
        <ele>1133</ele>
        <time>2010-06-06T08:45:11Z</time>
      </trkpt>
      <trkpt lat="45.11418" lon="5.59139">
        <ele>1133</ele>
        <time>2010-06-06T08:45:12Z</time>
      </trkpt>
      <trkpt lat="45.11418" lon="5.59142">
        <ele>1133</ele>
        <time>2010-06-06T08:45:13Z</time>
      </trkpt>
      <trkpt lat="45.11417" lon="5.59145">
        <ele>1133</ele>
        <time>2010-06-06T08:45:14Z</time>
      </trkpt>
      <trkpt lat="45.11416" lon="5.59147">
        <ele>1133</ele>
        <time>2010-06-06T08:45:15Z</time>
      </trkpt>
      <trkpt lat="45.11416" lon="5.5915">
        <ele>1133</ele>
        <time>2010-06-06T08:45:16Z</time>
      </trkpt>
      <trkpt lat="45.11416" lon="5.59152">
        <ele>1133</ele>
        <time>2010-06-06T08:45:17Z</time>
      </trkpt>
      <trkpt lat="45.11415" lon="5.59154">
        <ele>1132</ele>
        <time>2010-06-06T08:45:18Z</time>
      </trkpt>
      <trkpt lat="45.11416" lon="5.59156">
        <ele>1132</ele>
        <time>2010-06-06T08:45:19Z</time>
      </trkpt>
      <trkpt lat="45.11417" lon="5.59158">
        <ele>1132</ele>
        <time>2010-06-06T08:45:20Z</time>
      </trkpt>
      <trkpt lat="45.11418" lon="5.5916">
        <ele>1131</ele>
        <time>2010-06-06T08:45:21Z</time>
      </trkpt>
      <trkpt lat="45.1142" lon="5.59162">
        <ele>1131</ele>
        <time>2010-06-06T08:45:22Z</time>
      </trkpt>
      <trkpt lat="45.11421" lon="5.59165">
        <ele>1131</ele>
        <time>2010-06-06T08:45:23Z</time>
      </trkpt>
      <trkpt lat="45.11424" lon="5.59167">
        <ele>1131</ele>
        <time>2010-06-06T08:45:24Z</time>
      </trkpt>
      <trkpt lat="45.11426" lon="5.59169">
        <ele>1131</ele>
        <time>2010-06-06T08:45:26Z</time>
      </trkpt>
      <trkpt lat="45.11426" lon="5.59171">
        <ele>1131</ele>
        <time>2010-06-06T08:45:27Z</time>
      </trkpt>
      <trkpt lat="45.11427" lon="5.59173">
        <ele>1131</ele>
        <time>2010-06-06T08:45:28Z</time>
      </trkpt>
      <trkpt lat="45.11429" lon="5.59175">
        <ele>1132</ele>
        <time>2010-06-06T08:45:30Z</time>
      </trkpt>
      <trkpt lat="45.1143" lon="5.59177">
        <ele>1132</ele>
        <time>2010-06-06T08:45:31Z</time>
      </trkpt>
      <trkpt lat="45.11431" lon="5.59178">
        <ele>1133</ele>
        <time>2010-06-06T08:45:32Z</time>
      </trkpt>
      <trkpt lat="45.11432" lon="5.5918">
        <ele>1134</ele>
        <time>2010-06-06T08:45:33Z</time>
      </trkpt>
      <trkpt lat="45.11433" lon="5.59181">
        <ele>1134</ele>
        <time>2010-06-06T08:45:34Z</time>
      </trkpt>
      <trkpt lat="45.11434" lon="5.59183">
        <ele>1134</ele>
        <time>2010-06-06T08:45:35Z</time>
      </trkpt>
      <trkpt lat="45.11435" lon="5.59186">
        <ele>1135</ele>
        <time>2010-06-06T08:45:37Z</time>
      </trkpt>
      <trkpt lat="45.11436" lon="5.59189">
        <ele>1136</ele>
        <time>2010-06-06T08:45:38Z</time>
      </trkpt>
      <trkpt lat="45.11437" lon="5.59191">
        <ele>1136</ele>
        <time>2010-06-06T08:45:39Z</time>
      </trkpt>
      <trkpt lat="45.11438" lon="5.59193">
        <ele>1136</ele>
        <time>2010-06-06T08:45:40Z</time>
      </trkpt>
      <trkpt lat="45.1144" lon="5.59196">
        <ele>1137</ele>
        <time>2010-06-06T08:45:41Z</time>
      </trkpt>
      <trkpt lat="45.11441" lon="5.59198">
        <ele>1137</ele>
        <time>2010-06-06T08:45:42Z</time>
      </trkpt>
      <trkpt lat="45.11442" lon="5.59201">
        <ele>1137</ele>
        <time>2010-06-06T08:45:43Z</time>
      </trkpt>
      <trkpt lat="45.11443" lon="5.59203">
        <ele>1137</ele>
        <time>2010-06-06T08:45:44Z</time>
      </trkpt>
      <trkpt lat="45.11444" lon="5.59206">
        <ele>1137</ele>
        <time>2010-06-06T08:45:45Z</time>
      </trkpt>
      <trkpt lat="45.11445" lon="5.59209">
        <ele>1137</ele>
        <time>2010-06-06T08:45:46Z</time>
      </trkpt>
      <trkpt lat="45.11445" lon="5.59211">
        <ele>1137</ele>
        <time>2010-06-06T08:45:47Z</time>
      </trkpt>
      <trkpt lat="45.11446" lon="5.59213">
        <ele>1137</ele>
        <time>2010-06-06T08:45:48Z</time>
      </trkpt>
      <trkpt lat="45.11447" lon="5.59216">
        <ele>1137</ele>
        <time>2010-06-06T08:45:49Z</time>
      </trkpt>
      <trkpt lat="45.11449" lon="5.59219">
        <ele>1138</ele>
        <time>2010-06-06T08:45:50Z</time>
      </trkpt>
      <trkpt lat="45.11451" lon="5.59221">
        <ele>1138</ele>
        <time>2010-06-06T08:45:51Z</time>
      </trkpt>
      <trkpt lat="45.11452" lon="5.59224">
        <ele>1139</ele>
        <time>2010-06-06T08:45:52Z</time>
      </trkpt>
      <trkpt lat="45.11453" lon="5.59227">
        <ele>1140</ele>
        <time>2010-06-06T08:45:53Z</time>
      </trkpt>
      <trkpt lat="45.11453" lon="5.5923">
        <ele>1141</ele>
        <time>2010-06-06T08:45:54Z</time>
      </trkpt>
      <trkpt lat="45.11453" lon="5.59231">
        <ele>1141</ele>
        <time>2010-06-06T08:45:55Z</time>
      </trkpt>
      <trkpt lat="45.11453" lon="5.59234">
        <ele>1142</ele>
        <time>2010-06-06T08:45:56Z</time>
      </trkpt>
      <trkpt lat="45.11453" lon="5.59236">
        <ele>1142</ele>
        <time>2010-06-06T08:45:57Z</time>
      </trkpt>
      <trkpt lat="45.11454" lon="5.59238">
        <ele>1142</ele>
        <time>2010-06-06T08:45:58Z</time>
      </trkpt>
      <trkpt lat="45.11455" lon="5.59242">
        <ele>1142</ele>
        <time>2010-06-06T08:45:59Z</time>
      </trkpt>
      <trkpt lat="45.11456" lon="5.59245">
        <ele>1142</ele>
        <time>2010-06-06T08:46:00Z</time>
      </trkpt>
      <trkpt lat="45.11456" lon="5.59248">
        <ele>1143</ele>
        <time>2010-06-06T08:46:01Z</time>
      </trkpt>
      <trkpt lat="45.11457" lon="5.59251">
        <ele>1143</ele>
        <time>2010-06-06T08:46:02Z</time>
      </trkpt>
      <trkpt lat="45.11457" lon="5.59254">
        <ele>1144</ele>
        <time>2010-06-06T08:46:03Z</time>
      </trkpt>
      <trkpt lat="45.11458" lon="5.59256">
        <ele>1144</ele>
        <time>2010-06-06T08:46:04Z</time>
      </trkpt>
      <trkpt lat="45.11458" lon="5.59259">
        <ele>1145</ele>
        <time>2010-06-06T08:46:05Z</time>
      </trkpt>
      <trkpt lat="45.11458" lon="5.59262">
        <ele>1145</ele>
        <time>2010-06-06T08:46:06Z</time>
      </trkpt>
      <trkpt lat="45.11457" lon="5.59264">
        <ele>1145</ele>
        <time>2010-06-06T08:46:07Z</time>
      </trkpt>
      <trkpt lat="45.11456" lon="5.59267">
        <ele>1145</ele>
        <time>2010-06-06T08:46:08Z</time>
      </trkpt>
      <trkpt lat="45.11456" lon="5.59269">
        <ele>1145</ele>
        <time>2010-06-06T08:46:09Z</time>
      </trkpt>
      <trkpt lat="45.11455" lon="5.59272">
        <ele>1145</ele>
        <time>2010-06-06T08:46:10Z</time>
      </trkpt>
      <trkpt lat="45.11456" lon="5.59274">
        <ele>1145</ele>
        <time>2010-06-06T08:46:11Z</time>
      </trkpt>
      <trkpt lat="45.11456" lon="5.59277">
        <ele>1145</ele>
        <time>2010-06-06T08:46:12Z</time>
      </trkpt>
      <trkpt lat="45.11456" lon="5.5928">
        <ele>1145</ele>
        <time>2010-06-06T08:46:13Z</time>
      </trkpt>
      <trkpt lat="45.11457" lon="5.59282">
        <ele>1145</ele>
        <time>2010-06-06T08:46:14Z</time>
      </trkpt>
      <trkpt lat="45.11458" lon="5.59284">
        <ele>1145</ele>
        <time>2010-06-06T08:46:15Z</time>
      </trkpt>
      <trkpt lat="45.11458" lon="5.59286">
        <ele>1145</ele>
        <time>2010-06-06T08:46:16Z</time>
      </trkpt>
      <trkpt lat="45.11458" lon="5.59288">
        <ele>1145</ele>
        <time>2010-06-06T08:46:17Z</time>
      </trkpt>
      <trkpt lat="45.11458" lon="5.59291">
        <ele>1145</ele>
        <time>2010-06-06T08:46:18Z</time>
      </trkpt>
      <trkpt lat="45.11459" lon="5.59294">
        <ele>1145</ele>
        <time>2010-06-06T08:46:19Z</time>
      </trkpt>
      <trkpt lat="45.1146" lon="5.59297">
        <ele>1145</ele>
        <time>2010-06-06T08:46:20Z</time>
      </trkpt>
      <trkpt lat="45.1146" lon="5.59299">
        <ele>1145</ele>
        <time>2010-06-06T08:46:21Z</time>
      </trkpt>
      <trkpt lat="45.1146" lon="5.59301">
        <ele>1146</ele>
        <time>2010-06-06T08:46:22Z</time>
      </trkpt>
      <trkpt lat="45.1146" lon="5.59302">
        <ele>1147</ele>
        <time>2010-06-06T08:46:23Z</time>
      </trkpt>
      <trkpt lat="45.11459" lon="5.59304">
        <ele>1148</ele>
        <time>2010-06-06T08:46:24Z</time>
      </trkpt>
      <trkpt lat="45.11458" lon="5.59307">
        <ele>1149</ele>
        <time>2010-06-06T08:46:25Z</time>
      </trkpt>
      <trkpt lat="45.11457" lon="5.59308">
        <ele>1150</ele>
        <time>2010-06-06T08:46:26Z</time>
      </trkpt>
      <trkpt lat="45.11457" lon="5.59311">
        <ele>1151</ele>
        <time>2010-06-06T08:46:27Z</time>
      </trkpt>
      <trkpt lat="45.11456" lon="5.59312">
        <ele>1152</ele>
        <time>2010-06-06T08:46:28Z</time>
      </trkpt>
      <trkpt lat="45.11455" lon="5.59315">
        <ele>1153</ele>
        <time>2010-06-06T08:46:29Z</time>
      </trkpt>
      <trkpt lat="45.11455" lon="5.59316">
        <ele>1154</ele>
        <time>2010-06-06T08:46:30Z</time>
      </trkpt>
      <trkpt lat="45.11455" lon="5.59318">
        <ele>1155</ele>
        <time>2010-06-06T08:46:31Z</time>
      </trkpt>
      <trkpt lat="45.11455" lon="5.5932">
        <ele>1156</ele>
        <time>2010-06-06T08:46:32Z</time>
      </trkpt>
      <trkpt lat="45.11454" lon="5.59323">
        <ele>1157</ele>
        <time>2010-06-06T08:46:33Z</time>
      </trkpt>
      <trkpt lat="45.11453" lon="5.59325">
        <ele>1158</ele>
        <time>2010-06-06T08:46:34Z</time>
      </trkpt>
      <trkpt lat="45.11453" lon="5.59327">
        <ele>1158</ele>
        <time>2010-06-06T08:46:35Z</time>
      </trkpt>
      <trkpt lat="45.11453" lon="5.59329">
        <ele>1159</ele>
        <time>2010-06-06T08:46:36Z</time>
      </trkpt>
      <trkpt lat="45.11453" lon="5.59331">
        <ele>1159</ele>
        <time>2010-06-06T08:46:38Z</time>
      </trkpt>
      <trkpt lat="45.11453" lon="5.59333">
        <ele>1160</ele>
        <time>2010-06-06T08:46:39Z</time>
      </trkpt>
      <trkpt lat="45.11452" lon="5.59335">
        <ele>1160</ele>
        <time>2010-06-06T08:46:40Z</time>
      </trkpt>
      <trkpt lat="45.11452" lon="5.59337">
        <ele>1160</ele>
        <time>2010-06-06T08:46:42Z</time>
      </trkpt>
      <trkpt lat="45.11452" lon="5.5934">
        <ele>1160</ele>
        <time>2010-06-06T08:46:43Z</time>
      </trkpt>
      <trkpt lat="45.11452" lon="5.59342">
        <ele>1160</ele>
        <time>2010-06-06T08:46:44Z</time>
      </trkpt>
      <trkpt lat="45.11452" lon="5.59343">
        <ele>1160</ele>
        <time>2010-06-06T08:46:45Z</time>
      </trkpt>
      <trkpt lat="45.11452" lon="5.59345">
        <ele>1160</ele>
        <time>2010-06-06T08:46:46Z</time>
      </trkpt>
      <trkpt lat="45.11452" lon="5.59347">
        <ele>1160</ele>
        <time>2010-06-06T08:46:47Z</time>
      </trkpt>
      <trkpt lat="45.11451" lon="5.5935">
        <ele>1160</ele>
        <time>2010-06-06T08:46:48Z</time>
      </trkpt>
      <trkpt lat="45.1145" lon="5.59352">
        <ele>1160</ele>
        <time>2010-06-06T08:46:49Z</time>
      </trkpt>
      <trkpt lat="45.11449" lon="5.59354">
        <ele>1160</ele>
        <time>2010-06-06T08:46:50Z</time>
      </trkpt>
      <trkpt lat="45.1145" lon="5.59356">
        <ele>1160</ele>
        <time>2010-06-06T08:46:51Z</time>
      </trkpt>
      <trkpt lat="45.11451" lon="5.59358">
        <ele>1160</ele>
        <time>2010-06-06T08:46:52Z</time>
      </trkpt>
      <trkpt lat="45.1145" lon="5.5936">
        <ele>1161</ele>
        <time>2010-06-06T08:46:53Z</time>
      </trkpt>
      <trkpt lat="45.11451" lon="5.59362">
        <ele>1162</ele>
        <time>2010-06-06T08:46:54Z</time>
      </trkpt>
      <trkpt lat="45.11451" lon="5.59364">
        <ele>1163</ele>
        <time>2010-06-06T08:46:55Z</time>
      </trkpt>
      <trkpt lat="45.1145" lon="5.59366">
        <ele>1163</ele>
        <time>2010-06-06T08:46:56Z</time>
      </trkpt>
      <trkpt lat="45.1145" lon="5.59368">
        <ele>1164</ele>
        <time>2010-06-06T08:46:57Z</time>
      </trkpt>
      <trkpt lat="45.11449" lon="5.5937">
        <ele>1164</ele>
        <time>2010-06-06T08:46:58Z</time>
      </trkpt>
      <trkpt lat="45.11449" lon="5.59371">
        <ele>1164</ele>
        <time>2010-06-06T08:46:59Z</time>
      </trkpt>
      <trkpt lat="45.11449" lon="5.59373">
        <ele>1164</ele>
        <time>2010-06-06T08:47:00Z</time>
      </trkpt>
      <trkpt lat="45.11448" lon="5.59375">
        <ele>1164</ele>
        <time>2010-06-06T08:47:01Z</time>
      </trkpt>
      <trkpt lat="45.11448" lon="5.59377">
        <ele>1164</ele>
        <time>2010-06-06T08:47:02Z</time>
      </trkpt>
      <trkpt lat="45.11448" lon="5.59378">
        <ele>1164</ele>
        <time>2010-06-06T08:47:03Z</time>
      </trkpt>
      <trkpt lat="45.11448" lon="5.59381">
        <ele>1165</ele>
        <time>2010-06-06T08:47:05Z</time>
      </trkpt>
      <trkpt lat="45.11449" lon="5.59383">
        <ele>1166</ele>
        <time>2010-06-06T08:47:06Z</time>
      </trkpt>
      <trkpt lat="45.11448" lon="5.59384">
        <ele>1167</ele>
        <time>2010-06-06T08:47:07Z</time>
      </trkpt>
      <trkpt lat="45.11448" lon="5.59386">
        <ele>1168</ele>
        <time>2010-06-06T08:47:08Z</time>
      </trkpt>
      <trkpt lat="45.11448" lon="5.59387">
        <ele>1168</ele>
        <time>2010-06-06T08:47:09Z</time>
      </trkpt>
      <trkpt lat="45.11448" lon="5.59389">
        <ele>1169</ele>
        <time>2010-06-06T08:47:10Z</time>
      </trkpt>
      <trkpt lat="45.11447" lon="5.59392">
        <ele>1170</ele>
        <time>2010-06-06T08:47:12Z</time>
      </trkpt>
      <trkpt lat="45.11447" lon="5.59395">
        <ele>1170</ele>
        <time>2010-06-06T08:47:14Z</time>
      </trkpt>
      <trkpt lat="45.11447" lon="5.59397">
        <ele>1171</ele>
        <time>2010-06-06T08:47:15Z</time>
      </trkpt>
      <trkpt lat="45.11447" lon="5.59398">
        <ele>1172</ele>
        <time>2010-06-06T08:47:16Z</time>
      </trkpt>
      <trkpt lat="45.11446" lon="5.594">
        <ele>1174</ele>
        <time>2010-06-06T08:47:18Z</time>
      </trkpt>
      <trkpt lat="45.11446" lon="5.59402">
        <ele>1175</ele>
        <time>2010-06-06T08:47:19Z</time>
      </trkpt>
      <trkpt lat="45.11446" lon="5.59405">
        <ele>1177</ele>
        <time>2010-06-06T08:47:21Z</time>
      </trkpt>
      <trkpt lat="45.11445" lon="5.59407">
        <ele>1178</ele>
        <time>2010-06-06T08:47:22Z</time>
      </trkpt>
      <trkpt lat="45.11445" lon="5.59409">
        <ele>1179</ele>
        <time>2010-06-06T08:47:23Z</time>
      </trkpt>
      <trkpt lat="45.11445" lon="5.5941">
        <ele>1181</ele>
        <time>2010-06-06T08:47:24Z</time>
      </trkpt>
      <trkpt lat="45.11444" lon="5.59412">
        <ele>1182</ele>
        <time>2010-06-06T08:47:25Z</time>
      </trkpt>
      <trkpt lat="45.11443" lon="5.59415">
        <ele>1185</ele>
        <time>2010-06-06T08:47:27Z</time>
      </trkpt>
      <trkpt lat="45.11443" lon="5.59417">
        <ele>1190</ele>
        <time>2010-06-06T08:47:30Z</time>
      </trkpt>
      <trkpt lat="45.11442" lon="5.5942">
        <ele>1192</ele>
        <time>2010-06-06T08:47:31Z</time>
      </trkpt>
      <trkpt lat="45.11441" lon="5.59422">
        <ele>1194</ele>
        <time>2010-06-06T08:47:32Z</time>
      </trkpt>
      <trkpt lat="45.11441" lon="5.59424">
        <ele>1195</ele>
        <time>2010-06-06T08:47:33Z</time>
      </trkpt>
      <trkpt lat="45.1144" lon="5.59426">
        <ele>1197</ele>
        <time>2010-06-06T08:47:35Z</time>
      </trkpt>
      <trkpt lat="45.11441" lon="5.59428">
        <ele>1199</ele>
        <time>2010-06-06T08:47:37Z</time>
      </trkpt>
      <trkpt lat="45.11441" lon="5.5943">
        <ele>1200</ele>
        <time>2010-06-06T08:47:38Z</time>
      </trkpt>
      <trkpt lat="45.11441" lon="5.59432">
        <ele>1201</ele>
        <time>2010-06-06T08:47:39Z</time>
      </trkpt>
      <trkpt lat="45.1144" lon="5.59433">
        <ele>1203</ele>
        <time>2010-06-06T08:47:40Z</time>
      </trkpt>
      <trkpt lat="45.11439" lon="5.59435">
        <ele>1205</ele>
        <time>2010-06-06T08:47:41Z</time>
      </trkpt>
      <trkpt lat="45.11438" lon="5.59438">
        <ele>1207</ele>
        <time>2010-06-06T08:47:43Z</time>
      </trkpt>
      <trkpt lat="45.11438" lon="5.59439">
        <ele>1208</ele>
        <time>2010-06-06T08:47:44Z</time>
      </trkpt>
      <trkpt lat="45.11439" lon="5.59441">
        <ele>1209</ele>
        <time>2010-06-06T08:47:45Z</time>
      </trkpt>
      <trkpt lat="45.11439" lon="5.59444">
        <ele>1210</ele>
        <time>2010-06-06T08:47:46Z</time>
      </trkpt>
      <trkpt lat="45.11439" lon="5.59446">
        <ele>1211</ele>
        <time>2010-06-06T08:47:47Z</time>
      </trkpt>
      <trkpt lat="45.11438" lon="5.59447">
        <ele>1212</ele>
        <time>2010-06-06T08:47:48Z</time>
      </trkpt>
      <trkpt lat="45.11438" lon="5.59449">
        <ele>1213</ele>
        <time>2010-06-06T08:47:49Z</time>
      </trkpt>
      <trkpt lat="45.11437" lon="5.59451">
        <ele>1213</ele>
        <time>2010-06-06T08:47:50Z</time>
      </trkpt>
      <trkpt lat="45.11436" lon="5.59452">
        <ele>1213</ele>
        <time>2010-06-06T08:47:51Z</time>
      </trkpt>
      <trkpt lat="45.11435" lon="5.59455">
        <ele>1213</ele>
        <time>2010-06-06T08:47:53Z</time>
      </trkpt>
      <trkpt lat="45.11434" lon="5.59457">
        <ele>1213</ele>
        <time>2010-06-06T08:47:54Z</time>
      </trkpt>
      <trkpt lat="45.11433" lon="5.59459">
        <ele>1213</ele>
        <time>2010-06-06T08:47:55Z</time>
      </trkpt>
      <trkpt lat="45.11432" lon="5.59461">
        <ele>1213</ele>
        <time>2010-06-06T08:47:56Z</time>
      </trkpt>
      <trkpt lat="45.11432" lon="5.59463">
        <ele>1213</ele>
        <time>2010-06-06T08:47:57Z</time>
      </trkpt>
      <trkpt lat="45.11431" lon="5.59464">
        <ele>1213</ele>
        <time>2010-06-06T08:47:58Z</time>
      </trkpt>
      <trkpt lat="45.11431" lon="5.59467">
        <ele>1213</ele>
        <time>2010-06-06T08:48:00Z</time>
      </trkpt>
      <trkpt lat="45.11431" lon="5.59469">
        <ele>1213</ele>
        <time>2010-06-06T08:48:01Z</time>
      </trkpt>
      <trkpt lat="45.11431" lon="5.59471">
        <ele>1215</ele>
        <time>2010-06-06T08:48:03Z</time>
      </trkpt>
      <trkpt lat="45.11431" lon="5.59475">
        <ele>1215</ele>
        <time>2010-06-06T08:48:05Z</time>
      </trkpt>
      <trkpt lat="45.1143" lon="5.59477">
        <ele>1215</ele>
        <time>2010-06-06T08:48:06Z</time>
      </trkpt>
      <trkpt lat="45.1143" lon="5.59479">
        <ele>1215</ele>
        <time>2010-06-06T08:48:07Z</time>
      </trkpt>
      <trkpt lat="45.11431" lon="5.5948">
        <ele>1215</ele>
        <time>2010-06-06T08:48:08Z</time>
      </trkpt>
      <trkpt lat="45.11431" lon="5.59482">
        <ele>1215</ele>
        <time>2010-06-06T08:48:10Z</time>
      </trkpt>
      <trkpt lat="45.11431" lon="5.59484">
        <ele>1215</ele>
        <time>2010-06-06T08:48:11Z</time>
      </trkpt>
      <trkpt lat="45.11431" lon="5.59486">
        <ele>1215</ele>
        <time>2010-06-06T08:48:12Z</time>
      </trkpt>
      <trkpt lat="45.11432" lon="5.59488">
        <ele>1215</ele>
        <time>2010-06-06T08:48:13Z</time>
      </trkpt>
      <trkpt lat="45.11432" lon="5.5949">
        <ele>1215</ele>
        <time>2010-06-06T08:48:14Z</time>
      </trkpt>
      <trkpt lat="45.11431" lon="5.59492">
        <ele>1213</ele>
        <time>2010-06-06T08:48:16Z</time>
      </trkpt>
      <trkpt lat="45.11431" lon="5.59495">
        <ele>1211</ele>
        <time>2010-06-06T08:48:18Z</time>
      </trkpt>
      <trkpt lat="45.11431" lon="5.59497">
        <ele>1211</ele>
        <time>2010-06-06T08:48:19Z</time>
      </trkpt>
      <trkpt lat="45.11431" lon="5.59499">
        <ele>1211</ele>
        <time>2010-06-06T08:48:20Z</time>
      </trkpt>
      <trkpt lat="45.11431" lon="5.595">
        <ele>1211</ele>
        <time>2010-06-06T08:48:21Z</time>
      </trkpt>
      <trkpt lat="45.11431" lon="5.59502">
        <ele>1211</ele>
        <time>2010-06-06T08:48:22Z</time>
      </trkpt>
      <trkpt lat="45.11432" lon="5.59504">
        <ele>1211</ele>
        <time>2010-06-06T08:48:24Z</time>
      </trkpt>
      <trkpt lat="45.1143" lon="5.59507">
        <ele>1211</ele>
        <time>2010-06-06T08:48:26Z</time>
      </trkpt>
      <trkpt lat="45.11429" lon="5.59509">
        <ele>1212</ele>
        <time>2010-06-06T08:48:27Z</time>
      </trkpt>
      <trkpt lat="45.11429" lon="5.59511">
        <ele>1212</ele>
        <time>2010-06-06T08:48:28Z</time>
      </trkpt>
      <trkpt lat="45.11428" lon="5.59512">
        <ele>1212</ele>
        <time>2010-06-06T08:48:29Z</time>
      </trkpt>
      <trkpt lat="45.11429" lon="5.59514">
        <ele>1212</ele>
        <time>2010-06-06T08:48:30Z</time>
      </trkpt>
      <trkpt lat="45.11428" lon="5.59515">
        <ele>1213</ele>
        <time>2010-06-06T08:48:31Z</time>
      </trkpt>
      <trkpt lat="45.11428" lon="5.59518">
        <ele>1213</ele>
        <time>2010-06-06T08:48:33Z</time>
      </trkpt>
      <trkpt lat="45.11428" lon="5.5952">
        <ele>1214</ele>
        <time>2010-06-06T08:48:34Z</time>
      </trkpt>
      <trkpt lat="45.11427" lon="5.59522">
        <ele>1214</ele>
        <time>2010-06-06T08:48:36Z</time>
      </trkpt>
      <trkpt lat="45.11428" lon="5.59524">
        <ele>1216</ele>
        <time>2010-06-06T08:48:38Z</time>
      </trkpt>
      <trkpt lat="45.11428" lon="5.59525">
        <ele>1217</ele>
        <time>2010-06-06T08:48:39Z</time>
      </trkpt>
      <trkpt lat="45.11427" lon="5.59528">
        <ele>1217</ele>
        <time>2010-06-06T08:48:40Z</time>
      </trkpt>
      <trkpt lat="45.11427" lon="5.59529">
        <ele>1217</ele>
        <time>2010-06-06T08:48:41Z</time>
      </trkpt>
      <trkpt lat="45.11426" lon="5.59532">
        <ele>1217</ele>
        <time>2010-06-06T08:48:43Z</time>
      </trkpt>
      <trkpt lat="45.11425" lon="5.59535">
        <ele>1217</ele>
        <time>2010-06-06T08:48:45Z</time>
      </trkpt>
      <trkpt lat="45.11425" lon="5.59537">
        <ele>1215</ele>
        <time>2010-06-06T08:48:47Z</time>
      </trkpt>
      <trkpt lat="45.11424" lon="5.59539">
        <ele>1214</ele>
        <time>2010-06-06T08:48:48Z</time>
      </trkpt>
      <trkpt lat="45.11423" lon="5.59541">
        <ele>1214</ele>
        <time>2010-06-06T08:48:50Z</time>
      </trkpt>
      <trkpt lat="45.11421" lon="5.59543">
        <ele>1214</ele>
        <time>2010-06-06T08:48:51Z</time>
      </trkpt>
      <trkpt lat="45.1142" lon="5.59545">
        <ele>1214</ele>
        <time>2010-06-06T08:48:53Z</time>
      </trkpt>
      <trkpt lat="45.1142" lon="5.59546">
        <ele>1215</ele>
        <time>2010-06-06T08:48:54Z</time>
      </trkpt>
      <trkpt lat="45.11419" lon="5.59548">
        <ele>1216</ele>
        <time>2010-06-06T08:48:56Z</time>
      </trkpt>
      <trkpt lat="45.1142" lon="5.5955">
        <ele>1216</ele>
        <time>2010-06-06T08:48:57Z</time>
      </trkpt>
      <trkpt lat="45.1142" lon="5.59552">
        <ele>1217</ele>
        <time>2010-06-06T08:48:58Z</time>
      </trkpt>
      <trkpt lat="45.11421" lon="5.59554">
        <ele>1217</ele>
        <time>2010-06-06T08:48:59Z</time>
      </trkpt>
      <trkpt lat="45.1142" lon="5.59557">
        <ele>1217</ele>
        <time>2010-06-06T08:49:00Z</time>
      </trkpt>
      <trkpt lat="45.1142" lon="5.59559">
        <ele>1217</ele>
        <time>2010-06-06T08:49:01Z</time>
      </trkpt>
      <trkpt lat="45.1142" lon="5.59561">
        <ele>1217</ele>
        <time>2010-06-06T08:49:02Z</time>
      </trkpt>
      <trkpt lat="45.1142" lon="5.59562">
        <ele>1217</ele>
        <time>2010-06-06T08:49:03Z</time>
      </trkpt>
      <trkpt lat="45.11419" lon="5.59564">
        <ele>1217</ele>
        <time>2010-06-06T08:49:04Z</time>
      </trkpt>
      <trkpt lat="45.1142" lon="5.59566">
        <ele>1217</ele>
        <time>2010-06-06T08:49:05Z</time>
      </trkpt>
      <trkpt lat="45.1142" lon="5.59567">
        <ele>1217</ele>
        <time>2010-06-06T08:49:06Z</time>
      </trkpt>
      <trkpt lat="45.11419" lon="5.59569">
        <ele>1216</ele>
        <time>2010-06-06T08:49:07Z</time>
      </trkpt>
      <trkpt lat="45.11419" lon="5.59571">
        <ele>1215</ele>
        <time>2010-06-06T08:49:08Z</time>
      </trkpt>
      <trkpt lat="45.11418" lon="5.59573">
        <ele>1214</ele>
        <time>2010-06-06T08:49:09Z</time>
      </trkpt>
      <trkpt lat="45.11418" lon="5.59576">
        <ele>1213</ele>
        <time>2010-06-06T08:49:10Z</time>
      </trkpt>
      <trkpt lat="45.11417" lon="5.59579">
        <ele>1212</ele>
        <time>2010-06-06T08:49:11Z</time>
      </trkpt>
      <trkpt lat="45.11417" lon="5.59581">
        <ele>1211</ele>
        <time>2010-06-06T08:49:12Z</time>
      </trkpt>
      <trkpt lat="45.11416" lon="5.59583">
        <ele>1210</ele>
        <time>2010-06-06T08:49:13Z</time>
      </trkpt>
      <trkpt lat="45.11416" lon="5.59586">
        <ele>1209</ele>
        <time>2010-06-06T08:49:14Z</time>
      </trkpt>
      <trkpt lat="45.11416" lon="5.59588">
        <ele>1208</ele>
        <time>2010-06-06T08:49:15Z</time>
      </trkpt>
      <trkpt lat="45.11415" lon="5.59591">
        <ele>1207</ele>
        <time>2010-06-06T08:49:16Z</time>
      </trkpt>
      <trkpt lat="45.11415" lon="5.59593">
        <ele>1206</ele>
        <time>2010-06-06T08:49:17Z</time>
      </trkpt>
      <trkpt lat="45.11414" lon="5.59596">
        <ele>1205</ele>
        <time>2010-06-06T08:49:18Z</time>
      </trkpt>
      <trkpt lat="45.11414" lon="5.59597">
        <ele>1205</ele>
        <time>2010-06-06T08:49:19Z</time>
      </trkpt>
      <trkpt lat="45.11413" lon="5.59599">
        <ele>1204</ele>
        <time>2010-06-06T08:49:20Z</time>
      </trkpt>
      <trkpt lat="45.11412" lon="5.59602">
        <ele>1203</ele>
        <time>2010-06-06T08:49:22Z</time>
      </trkpt>
      <trkpt lat="45.11412" lon="5.59604">
        <ele>1203</ele>
        <time>2010-06-06T08:49:23Z</time>
      </trkpt>
      <trkpt lat="45.11412" lon="5.59606">
        <ele>1203</ele>
        <time>2010-06-06T08:49:24Z</time>
      </trkpt>
      <trkpt lat="45.11412" lon="5.59607">
        <ele>1202</ele>
        <time>2010-06-06T08:49:25Z</time>
      </trkpt>
      <trkpt lat="45.11411" lon="5.59609">
        <ele>1202</ele>
        <time>2010-06-06T08:49:26Z</time>
      </trkpt>
      <trkpt lat="45.11411" lon="5.59611">
        <ele>1202</ele>
        <time>2010-06-06T08:49:27Z</time>
      </trkpt>
      <trkpt lat="45.1141" lon="5.59613">
        <ele>1201</ele>
        <time>2010-06-06T08:49:28Z</time>
      </trkpt>
      <trkpt lat="45.1141" lon="5.59615">
        <ele>1201</ele>
        <time>2010-06-06T08:49:29Z</time>
      </trkpt>
      <trkpt lat="45.11409" lon="5.59618">
        <ele>1201</ele>
        <time>2010-06-06T08:49:30Z</time>
      </trkpt>
      <trkpt lat="45.11408" lon="5.5962">
        <ele>1201</ele>
        <time>2010-06-06T08:49:31Z</time>
      </trkpt>
      <trkpt lat="45.11406" lon="5.59622">
        <ele>1201</ele>
        <time>2010-06-06T08:49:32Z</time>
      </trkpt>
      <trkpt lat="45.11405" lon="5.59624">
        <ele>1201</ele>
        <time>2010-06-06T08:49:33Z</time>
      </trkpt>
      <trkpt lat="45.11403" lon="5.59626">
        <ele>1201</ele>
        <time>2010-06-06T08:49:34Z</time>
      </trkpt>
      <trkpt lat="45.11403" lon="5.59628">
        <ele>1201</ele>
        <time>2010-06-06T08:49:35Z</time>
      </trkpt>
      <trkpt lat="45.11402" lon="5.59629">
        <ele>1201</ele>
        <time>2010-06-06T08:49:36Z</time>
      </trkpt>
      <trkpt lat="45.11401" lon="5.59632">
        <ele>1201</ele>
        <time>2010-06-06T08:49:37Z</time>
      </trkpt>
      <trkpt lat="45.114" lon="5.59635">
        <ele>1201</ele>
        <time>2010-06-06T08:49:39Z</time>
      </trkpt>
      <trkpt lat="45.11399" lon="5.59636">
        <ele>1202</ele>
        <time>2010-06-06T08:49:40Z</time>
      </trkpt>
      <trkpt lat="45.11398" lon="5.59639">
        <ele>1204</ele>
        <time>2010-06-06T08:49:42Z</time>
      </trkpt>
      <trkpt lat="45.11397" lon="5.59641">
        <ele>1205</ele>
        <time>2010-06-06T08:49:43Z</time>
      </trkpt>
      <trkpt lat="45.11396" lon="5.59643">
        <ele>1206</ele>
        <time>2010-06-06T08:49:45Z</time>
      </trkpt>
      <trkpt lat="45.11395" lon="5.59645">
        <ele>1207</ele>
        <time>2010-06-06T08:49:47Z</time>
      </trkpt>
      <trkpt lat="45.11395" lon="5.59648">
        <ele>1209</ele>
        <time>2010-06-06T08:49:49Z</time>
      </trkpt>
      <trkpt lat="45.11394" lon="5.59649">
        <ele>1209</ele>
        <time>2010-06-06T08:49:50Z</time>
      </trkpt>
      <trkpt lat="45.11394" lon="5.59651">
        <ele>1210</ele>
        <time>2010-06-06T08:49:51Z</time>
      </trkpt>
      <trkpt lat="45.11394" lon="5.59653">
        <ele>1210</ele>
        <time>2010-06-06T08:49:53Z</time>
      </trkpt>
      <trkpt lat="45.11393" lon="5.59655">
        <ele>1210</ele>
        <time>2010-06-06T08:49:54Z</time>
      </trkpt>
      <trkpt lat="45.11392" lon="5.59658">
        <ele>1210</ele>
        <time>2010-06-06T08:49:56Z</time>
      </trkpt>
      <trkpt lat="45.11392" lon="5.59661">
        <ele>1210</ele>
        <time>2010-06-06T08:49:58Z</time>
      </trkpt>
      <trkpt lat="45.11391" lon="5.59664">
        <ele>1211</ele>
        <time>2010-06-06T08:50:00Z</time>
      </trkpt>
      <trkpt lat="45.11391" lon="5.59667">
        <ele>1212</ele>
        <time>2010-06-06T08:50:02Z</time>
      </trkpt>
      <trkpt lat="45.1139" lon="5.59669">
        <ele>1213</ele>
        <time>2010-06-06T08:50:03Z</time>
      </trkpt>
      <trkpt lat="45.1139" lon="5.5967">
        <ele>1213</ele>
        <time>2010-06-06T08:50:04Z</time>
      </trkpt>
      <trkpt lat="45.11389" lon="5.59673">
        <ele>1214</ele>
        <time>2010-06-06T08:50:06Z</time>
      </trkpt>
      <trkpt lat="45.1139" lon="5.59675">
        <ele>1215</ele>
        <time>2010-06-06T08:50:07Z</time>
      </trkpt>
      <trkpt lat="45.1139" lon="5.59677">
        <ele>1216</ele>
        <time>2010-06-06T08:50:08Z</time>
      </trkpt>
      <trkpt lat="45.1139" lon="5.59679">
        <ele>1216</ele>
        <time>2010-06-06T08:50:09Z</time>
      </trkpt>
      <trkpt lat="45.11389" lon="5.59681">
        <ele>1217</ele>
        <time>2010-06-06T08:50:10Z</time>
      </trkpt>
      <trkpt lat="45.11388" lon="5.59683">
        <ele>1218</ele>
        <time>2010-06-06T08:50:11Z</time>
      </trkpt>
      <trkpt lat="45.11387" lon="5.59685">
        <ele>1220</ele>
        <time>2010-06-06T08:50:13Z</time>
      </trkpt>
      <trkpt lat="45.11386" lon="5.59687">
        <ele>1221</ele>
        <time>2010-06-06T08:50:15Z</time>
      </trkpt>
      <trkpt lat="45.11386" lon="5.5969">
        <ele>1222</ele>
        <time>2010-06-06T08:50:17Z</time>
      </trkpt>
      <trkpt lat="45.11385" lon="5.59692">
        <ele>1223</ele>
        <time>2010-06-06T08:50:18Z</time>
      </trkpt>
      <trkpt lat="45.11383" lon="5.59694">
        <ele>1223</ele>
        <time>2010-06-06T08:50:19Z</time>
      </trkpt>
      <trkpt lat="45.11382" lon="5.59697">
        <ele>1223</ele>
        <time>2010-06-06T08:50:20Z</time>
      </trkpt>
      <trkpt lat="45.1138" lon="5.59699">
        <ele>1223</ele>
        <time>2010-06-06T08:50:21Z</time>
      </trkpt>
      <trkpt lat="45.11379" lon="5.59702">
        <ele>1223</ele>
        <time>2010-06-06T08:50:22Z</time>
      </trkpt>
      <trkpt lat="45.11378" lon="5.59704">
        <ele>1223</ele>
        <time>2010-06-06T08:50:23Z</time>
      </trkpt>
      <trkpt lat="45.11377" lon="5.59706">
        <ele>1223</ele>
        <time>2010-06-06T08:50:24Z</time>
      </trkpt>
      <trkpt lat="45.11376" lon="5.59709">
        <ele>1224</ele>
        <time>2010-06-06T08:50:26Z</time>
      </trkpt>
      <trkpt lat="45.11375" lon="5.59711">
        <ele>1224</ele>
        <time>2010-06-06T08:50:27Z</time>
      </trkpt>
      <trkpt lat="45.11374" lon="5.59713">
        <ele>1224</ele>
        <time>2010-06-06T08:50:29Z</time>
      </trkpt>
      <trkpt lat="45.11374" lon="5.59714">
        <ele>1224</ele>
        <time>2010-06-06T08:50:30Z</time>
      </trkpt>
      <trkpt lat="45.11373" lon="5.59716">
        <ele>1224</ele>
        <time>2010-06-06T08:50:31Z</time>
      </trkpt>
      <trkpt lat="45.11373" lon="5.59718">
        <ele>1224</ele>
        <time>2010-06-06T08:50:32Z</time>
      </trkpt>
      <trkpt lat="45.11372" lon="5.5972">
        <ele>1225</ele>
        <time>2010-06-06T08:50:33Z</time>
      </trkpt>
      <trkpt lat="45.11371" lon="5.59722">
        <ele>1225</ele>
        <time>2010-06-06T08:50:35Z</time>
      </trkpt>
      <trkpt lat="45.1137" lon="5.59724">
        <ele>1226</ele>
        <time>2010-06-06T08:50:38Z</time>
      </trkpt>
      <trkpt lat="45.11369" lon="5.59727">
        <ele>1226</ele>
        <time>2010-06-06T08:50:39Z</time>
      </trkpt>
      <trkpt lat="45.11368" lon="5.59728">
        <ele>1226</ele>
        <time>2010-06-06T08:50:40Z</time>
      </trkpt>
      <trkpt lat="45.11367" lon="5.5973">
        <ele>1227</ele>
        <time>2010-06-06T08:50:41Z</time>
      </trkpt>
      <trkpt lat="45.11367" lon="5.59732">
        <ele>1227</ele>
        <time>2010-06-06T08:50:42Z</time>
      </trkpt>
      <trkpt lat="45.11366" lon="5.59734">
        <ele>1227</ele>
        <time>2010-06-06T08:50:43Z</time>
      </trkpt>
      <trkpt lat="45.11366" lon="5.59736">
        <ele>1227</ele>
        <time>2010-06-06T08:50:44Z</time>
      </trkpt>
      <trkpt lat="45.11365" lon="5.59738">
        <ele>1227</ele>
        <time>2010-06-06T08:50:45Z</time>
      </trkpt>
      <trkpt lat="45.11364" lon="5.59741">
        <ele>1228</ele>
        <time>2010-06-06T08:50:46Z</time>
      </trkpt>
      <trkpt lat="45.11364" lon="5.59743">
        <ele>1229</ele>
        <time>2010-06-06T08:50:47Z</time>
      </trkpt>
      <trkpt lat="45.11363" lon="5.59746">
        <ele>1230</ele>
        <time>2010-06-06T08:50:48Z</time>
      </trkpt>
      <trkpt lat="45.11362" lon="5.59748">
        <ele>1230</ele>
        <time>2010-06-06T08:50:49Z</time>
      </trkpt>
      <trkpt lat="45.11361" lon="5.59751">
        <ele>1231</ele>
        <time>2010-06-06T08:50:50Z</time>
      </trkpt>
      <trkpt lat="45.1136" lon="5.59754">
        <ele>1231</ele>
        <time>2010-06-06T08:50:51Z</time>
      </trkpt>
      <trkpt lat="45.1136" lon="5.59756">
        <ele>1232</ele>
        <time>2010-06-06T08:50:52Z</time>
      </trkpt>
      <trkpt lat="45.11359" lon="5.59758">
        <ele>1233</ele>
        <time>2010-06-06T08:50:53Z</time>
      </trkpt>
      <trkpt lat="45.11358" lon="5.59761">
        <ele>1234</ele>
        <time>2010-06-06T08:50:54Z</time>
      </trkpt>
      <trkpt lat="45.11357" lon="5.59764">
        <ele>1235</ele>
        <time>2010-06-06T08:50:55Z</time>
      </trkpt>
      <trkpt lat="45.11356" lon="5.59767">
        <ele>1236</ele>
        <time>2010-06-06T08:50:56Z</time>
      </trkpt>
      <trkpt lat="45.11355" lon="5.5977">
        <ele>1236</ele>
        <time>2010-06-06T08:50:57Z</time>
      </trkpt>
      <trkpt lat="45.11355" lon="5.59772">
        <ele>1237</ele>
        <time>2010-06-06T08:50:58Z</time>
      </trkpt>
      <trkpt lat="45.11354" lon="5.59774">
        <ele>1237</ele>
        <time>2010-06-06T08:50:59Z</time>
      </trkpt>
      <trkpt lat="45.11354" lon="5.59776">
        <ele>1237</ele>
        <time>2010-06-06T08:51:00Z</time>
      </trkpt>
      <trkpt lat="45.11353" lon="5.59778">
        <ele>1238</ele>
        <time>2010-06-06T08:51:02Z</time>
      </trkpt>
      <trkpt lat="45.11352" lon="5.5978">
        <ele>1238</ele>
        <time>2010-06-06T08:51:03Z</time>
      </trkpt>
      <trkpt lat="45.11352" lon="5.59782">
        <ele>1239</ele>
        <time>2010-06-06T08:51:04Z</time>
      </trkpt>
      <trkpt lat="45.11352" lon="5.59784">
        <ele>1241</ele>
        <time>2010-06-06T08:51:06Z</time>
      </trkpt>
      <trkpt lat="45.11352" lon="5.59786">
        <ele>1242</ele>
        <time>2010-06-06T08:51:07Z</time>
      </trkpt>
      <trkpt lat="45.11352" lon="5.59788">
        <ele>1242</ele>
        <time>2010-06-06T08:51:08Z</time>
      </trkpt>
      <trkpt lat="45.11352" lon="5.5979">
        <ele>1243</ele>
        <time>2010-06-06T08:51:09Z</time>
      </trkpt>
      <trkpt lat="45.11352" lon="5.59791">
        <ele>1244</ele>
        <time>2010-06-06T08:51:10Z</time>
      </trkpt>
      <trkpt lat="45.11352" lon="5.59793">
        <ele>1246</ele>
        <time>2010-06-06T08:51:12Z</time>
      </trkpt>
      <trkpt lat="45.11351" lon="5.59796">
        <ele>1248</ele>
        <time>2010-06-06T08:51:14Z</time>
      </trkpt>
      <trkpt lat="45.1135" lon="5.59799">
        <ele>1250</ele>
        <time>2010-06-06T08:51:16Z</time>
      </trkpt>
      <trkpt lat="45.1135" lon="5.598">
        <ele>1251</ele>
        <time>2010-06-06T08:51:17Z</time>
      </trkpt>
      <trkpt lat="45.11349" lon="5.59802">
        <ele>1252</ele>
        <time>2010-06-06T08:51:18Z</time>
      </trkpt>
      <trkpt lat="45.1135" lon="5.59804">
        <ele>1253</ele>
        <time>2010-06-06T08:51:19Z</time>
      </trkpt>
      <trkpt lat="45.11349" lon="5.59806">
        <ele>1254</ele>
        <time>2010-06-06T08:51:21Z</time>
      </trkpt>
      <trkpt lat="45.11348" lon="5.59809">
        <ele>1255</ele>
        <time>2010-06-06T08:51:23Z</time>
      </trkpt>
      <trkpt lat="45.11347" lon="5.59811">
        <ele>1256</ele>
        <time>2010-06-06T08:51:24Z</time>
      </trkpt>
      <trkpt lat="45.11346" lon="5.59813">
        <ele>1256</ele>
        <time>2010-06-06T08:51:26Z</time>
      </trkpt>
      <trkpt lat="45.11344" lon="5.59816">
        <ele>1257</ele>
        <time>2010-06-06T08:51:28Z</time>
      </trkpt>
      <trkpt lat="45.11344" lon="5.59818">
        <ele>1257</ele>
        <time>2010-06-06T08:51:30Z</time>
      </trkpt>
      <trkpt lat="45.11344" lon="5.59819">
        <ele>1258</ele>
        <time>2010-06-06T08:51:31Z</time>
      </trkpt>
      <trkpt lat="45.11343" lon="5.59821">
        <ele>1259</ele>
        <time>2010-06-06T08:51:32Z</time>
      </trkpt>
      <trkpt lat="45.11342" lon="5.59823">
        <ele>1260</ele>
        <time>2010-06-06T08:51:33Z</time>
      </trkpt>
      <trkpt lat="45.11342" lon="5.59824">
        <ele>1261</ele>
        <time>2010-06-06T08:51:34Z</time>
      </trkpt>
      <trkpt lat="45.1134" lon="5.59826">
        <ele>1262</ele>
        <time>2010-06-06T08:51:36Z</time>
      </trkpt>
      <trkpt lat="45.11339" lon="5.59828">
        <ele>1262</ele>
        <time>2010-06-06T08:51:38Z</time>
      </trkpt>
      <trkpt lat="45.11338" lon="5.59831">
        <ele>1262</ele>
        <time>2010-06-06T08:51:40Z</time>
      </trkpt>
      <trkpt lat="45.11337" lon="5.59834">
        <ele>1262</ele>
        <time>2010-06-06T08:51:42Z</time>
      </trkpt>
      <trkpt lat="45.11337" lon="5.59836">
        <ele>1262</ele>
        <time>2010-06-06T08:51:44Z</time>
      </trkpt>
      <trkpt lat="45.11335" lon="5.59838">
        <ele>1262</ele>
        <time>2010-06-06T08:51:46Z</time>
      </trkpt>
      <trkpt lat="45.11333" lon="5.59841">
        <ele>1262</ele>
        <time>2010-06-06T08:51:48Z</time>
      </trkpt>
      <trkpt lat="45.11333" lon="5.59842">
        <ele>1263</ele>
        <time>2010-06-06T08:51:50Z</time>
      </trkpt>
      <trkpt lat="45.11332" lon="5.59844">
        <ele>1264</ele>
        <time>2010-06-06T08:51:52Z</time>
      </trkpt>
      <trkpt lat="45.1133" lon="5.59846">
        <ele>1264</ele>
        <time>2010-06-06T08:51:54Z</time>
      </trkpt>
      <trkpt lat="45.11329" lon="5.59848">
        <ele>1265</ele>
        <time>2010-06-06T08:51:56Z</time>
      </trkpt>
      <trkpt lat="45.11329" lon="5.59851">
        <ele>1265</ele>
        <time>2010-06-06T08:51:58Z</time>
      </trkpt>
      <trkpt lat="45.11328" lon="5.59853">
        <ele>1265</ele>
        <time>2010-06-06T08:51:59Z</time>
      </trkpt>
      <trkpt lat="45.11328" lon="5.59854">
        <ele>1265</ele>
        <time>2010-06-06T08:52:00Z</time>
      </trkpt>
      <trkpt lat="45.11328" lon="5.59856">
        <ele>1264</ele>
        <time>2010-06-06T08:52:01Z</time>
      </trkpt>
      <trkpt lat="45.11327" lon="5.59859">
        <ele>1263</ele>
        <time>2010-06-06T08:52:02Z</time>
      </trkpt>
      <trkpt lat="45.11327" lon="5.59861">
        <ele>1262</ele>
        <time>2010-06-06T08:52:03Z</time>
      </trkpt>
      <trkpt lat="45.11326" lon="5.59863">
        <ele>1262</ele>
        <time>2010-06-06T08:52:04Z</time>
      </trkpt>
      <trkpt lat="45.11326" lon="5.59865">
        <ele>1262</ele>
        <time>2010-06-06T08:52:05Z</time>
      </trkpt>
      <trkpt lat="45.11326" lon="5.59867">
        <ele>1262</ele>
        <time>2010-06-06T08:52:07Z</time>
      </trkpt>
      <trkpt lat="45.11326" lon="5.59869">
        <ele>1261</ele>
        <time>2010-06-06T08:52:09Z</time>
      </trkpt>
      <trkpt lat="45.11324" lon="5.59872">
        <ele>1261</ele>
        <time>2010-06-06T08:52:11Z</time>
      </trkpt>
      <trkpt lat="45.11324" lon="5.59873">
        <ele>1261</ele>
        <time>2010-06-06T08:52:12Z</time>
      </trkpt>
      <trkpt lat="45.11324" lon="5.59875">
        <ele>1261</ele>
        <time>2010-06-06T08:52:13Z</time>
      </trkpt>
      <trkpt lat="45.11324" lon="5.59878">
        <ele>1260</ele>
        <time>2010-06-06T08:52:15Z</time>
      </trkpt>
      <trkpt lat="45.11324" lon="5.5988">
        <ele>1260</ele>
        <time>2010-06-06T08:52:17Z</time>
      </trkpt>
      <trkpt lat="45.11324" lon="5.59882">
        <ele>1259</ele>
        <time>2010-06-06T08:52:19Z</time>
      </trkpt>
      <trkpt lat="45.11324" lon="5.59885">
        <ele>1259</ele>
        <time>2010-06-06T08:52:21Z</time>
      </trkpt>
      <trkpt lat="45.11324" lon="5.59887">
        <ele>1259</ele>
        <time>2010-06-06T08:52:23Z</time>
      </trkpt>
      <trkpt lat="45.11324" lon="5.59889">
        <ele>1259</ele>
        <time>2010-06-06T08:52:25Z</time>
      </trkpt>
      <trkpt lat="45.11325" lon="5.59891">
        <ele>1259</ele>
        <time>2010-06-06T08:52:27Z</time>
      </trkpt>
      <trkpt lat="45.11325" lon="5.59893">
        <ele>1259</ele>
        <time>2010-06-06T08:52:28Z</time>
      </trkpt>
      <trkpt lat="45.11325" lon="5.59896">
        <ele>1259</ele>
        <time>2010-06-06T08:52:30Z</time>
      </trkpt>
      <trkpt lat="45.11326" lon="5.59898">
        <ele>1259</ele>
        <time>2010-06-06T08:52:32Z</time>
      </trkpt>
      <trkpt lat="45.11326" lon="5.59901">
        <ele>1260</ele>
        <time>2010-06-06T08:52:34Z</time>
      </trkpt>
      <trkpt lat="45.11325" lon="5.59904">
        <ele>1260</ele>
        <time>2010-06-06T08:52:36Z</time>
      </trkpt>
      <trkpt lat="45.11326" lon="5.59907">
        <ele>1260</ele>
        <time>2010-06-06T08:52:38Z</time>
      </trkpt>
      <trkpt lat="45.11325" lon="5.5991">
        <ele>1260</ele>
        <time>2010-06-06T08:52:40Z</time>
      </trkpt>
      <trkpt lat="45.11325" lon="5.59912">
        <ele>1260</ele>
        <time>2010-06-06T08:52:42Z</time>
      </trkpt>
      <trkpt lat="45.11325" lon="5.59915">
        <ele>1260</ele>
        <time>2010-06-06T08:52:44Z</time>
      </trkpt>
      <trkpt lat="45.11325" lon="5.59917">
        <ele>1260</ele>
        <time>2010-06-06T08:52:45Z</time>
      </trkpt>
      <trkpt lat="45.11325" lon="5.59919">
        <ele>1261</ele>
        <time>2010-06-06T08:52:47Z</time>
      </trkpt>
      <trkpt lat="45.11324" lon="5.59921">
        <ele>1262</ele>
        <time>2010-06-06T08:52:48Z</time>
      </trkpt>
      <trkpt lat="45.11323" lon="5.59924">
        <ele>1263</ele>
        <time>2010-06-06T08:52:50Z</time>
      </trkpt>
      <trkpt lat="45.11322" lon="5.59926">
        <ele>1263</ele>
        <time>2010-06-06T08:52:51Z</time>
      </trkpt>
      <trkpt lat="45.11321" lon="5.59928">
        <ele>1263</ele>
        <time>2010-06-06T08:52:52Z</time>
      </trkpt>
      <trkpt lat="45.1132" lon="5.5993">
        <ele>1263</ele>
        <time>2010-06-06T08:52:53Z</time>
      </trkpt>
      <trkpt lat="45.11319" lon="5.59933">
        <ele>1263</ele>
        <time>2010-06-06T08:52:54Z</time>
      </trkpt>
      <trkpt lat="45.11317" lon="5.59937">
        <ele>1263</ele>
        <time>2010-06-06T08:52:55Z</time>
      </trkpt>
      <trkpt lat="45.11316" lon="5.5994">
        <ele>1263</ele>
        <time>2010-06-06T08:52:56Z</time>
      </trkpt>
      <trkpt lat="45.11314" lon="5.59942">
        <ele>1263</ele>
        <time>2010-06-06T08:52:57Z</time>
      </trkpt>
      <trkpt lat="45.11312" lon="5.59946">
        <ele>1263</ele>
        <time>2010-06-06T08:52:58Z</time>
      </trkpt>
      <trkpt lat="45.1131" lon="5.59949">
        <ele>1263</ele>
        <time>2010-06-06T08:52:59Z</time>
      </trkpt>
      <trkpt lat="45.11308" lon="5.59952">
        <ele>1263</ele>
        <time>2010-06-06T08:53:00Z</time>
      </trkpt>
      <trkpt lat="45.11306" lon="5.59955">
        <ele>1263</ele>
        <time>2010-06-06T08:53:01Z</time>
      </trkpt>
      <trkpt lat="45.11304" lon="5.59957">
        <ele>1263</ele>
        <time>2010-06-06T08:53:02Z</time>
      </trkpt>
      <trkpt lat="45.11302" lon="5.5996">
        <ele>1263</ele>
        <time>2010-06-06T08:53:03Z</time>
      </trkpt>
      <trkpt lat="45.113" lon="5.59964">
        <ele>1263</ele>
        <time>2010-06-06T08:53:04Z</time>
      </trkpt>
      <trkpt lat="45.11297" lon="5.59966">
        <ele>1263</ele>
        <time>2010-06-06T08:53:05Z</time>
      </trkpt>
      <trkpt lat="45.11295" lon="5.59969">
        <ele>1263</ele>
        <time>2010-06-06T08:53:06Z</time>
      </trkpt>
      <trkpt lat="45.11292" lon="5.59971">
        <ele>1263</ele>
        <time>2010-06-06T08:53:07Z</time>
      </trkpt>
      <trkpt lat="45.1129" lon="5.59975">
        <ele>1263</ele>
        <time>2010-06-06T08:53:08Z</time>
      </trkpt>
      <trkpt lat="45.11287" lon="5.59978">
        <ele>1263</ele>
        <time>2010-06-06T08:53:09Z</time>
      </trkpt>
      <trkpt lat="45.11284" lon="5.5998">
        <ele>1263</ele>
        <time>2010-06-06T08:53:10Z</time>
      </trkpt>
      <trkpt lat="45.11281" lon="5.59983">
        <ele>1263</ele>
        <time>2010-06-06T08:53:11Z</time>
      </trkpt>
      <trkpt lat="45.11278" lon="5.59985">
        <ele>1263</ele>
        <time>2010-06-06T08:53:12Z</time>
      </trkpt>
      <trkpt lat="45.11276" lon="5.59987">
        <ele>1263</ele>
        <time>2010-06-06T08:53:13Z</time>
      </trkpt>
      <trkpt lat="45.11275" lon="5.59991">
        <ele>1263</ele>
        <time>2010-06-06T08:53:14Z</time>
      </trkpt>
      <trkpt lat="45.11273" lon="5.59995">
        <ele>1263</ele>
        <time>2010-06-06T08:53:15Z</time>
      </trkpt>
      <trkpt lat="45.11271" lon="5.59998">
        <ele>1263</ele>
        <time>2010-06-06T08:53:16Z</time>
      </trkpt>
      <trkpt lat="45.11269" lon="5.6">
        <ele>1263</ele>
        <time>2010-06-06T08:53:17Z</time>
      </trkpt>
      <trkpt lat="45.11267" lon="5.60003">
        <ele>1264</ele>
        <time>2010-06-06T08:53:18Z</time>
      </trkpt>
      <trkpt lat="45.11265" lon="5.60007">
        <ele>1264</ele>
        <time>2010-06-06T08:53:19Z</time>
      </trkpt>
      <trkpt lat="45.11263" lon="5.60009">
        <ele>1264</ele>
        <time>2010-06-06T08:53:20Z</time>
      </trkpt>
      <trkpt lat="45.11261" lon="5.60012">
        <ele>1264</ele>
        <time>2010-06-06T08:53:21Z</time>
      </trkpt>
      <trkpt lat="45.1126" lon="5.60014">
        <ele>1264</ele>
        <time>2010-06-06T08:53:22Z</time>
      </trkpt>
      <trkpt lat="45.11258" lon="5.60017">
        <ele>1264</ele>
        <time>2010-06-06T08:53:23Z</time>
      </trkpt>
      <trkpt lat="45.11256" lon="5.60022">
        <ele>1264</ele>
        <time>2010-06-06T08:53:24Z</time>
      </trkpt>
      <trkpt lat="45.11254" lon="5.60025">
        <ele>1264</ele>
        <time>2010-06-06T08:53:25Z</time>
      </trkpt>
      <trkpt lat="45.11251" lon="5.60028">
        <ele>1264</ele>
        <time>2010-06-06T08:53:26Z</time>
      </trkpt>
      <trkpt lat="45.11248" lon="5.6003">
        <ele>1264</ele>
        <time>2010-06-06T08:53:27Z</time>
      </trkpt>
      <trkpt lat="45.11246" lon="5.60032">
        <ele>1264</ele>
        <time>2010-06-06T08:53:28Z</time>
      </trkpt>
      <trkpt lat="45.11243" lon="5.60034">
        <ele>1264</ele>
        <time>2010-06-06T08:53:29Z</time>
      </trkpt>
      <trkpt lat="45.11241" lon="5.60037">
        <ele>1263</ele>
        <time>2010-06-06T08:53:30Z</time>
      </trkpt>
      <trkpt lat="45.11239" lon="5.60038">
        <ele>1262</ele>
        <time>2010-06-06T08:53:31Z</time>
      </trkpt>
      <trkpt lat="45.11236" lon="5.6004">
        <ele>1262</ele>
        <time>2010-06-06T08:53:32Z</time>
      </trkpt>
      <trkpt lat="45.11233" lon="5.60043">
        <ele>1261</ele>
        <time>2010-06-06T08:53:33Z</time>
      </trkpt>
      <trkpt lat="45.1123" lon="5.60046">
        <ele>1261</ele>
        <time>2010-06-06T08:53:34Z</time>
      </trkpt>
      <trkpt lat="45.11228" lon="5.6005">
        <ele>1261</ele>
        <time>2010-06-06T08:53:35Z</time>
      </trkpt>
      <trkpt lat="45.11225" lon="5.60053">
        <ele>1261</ele>
        <time>2010-06-06T08:53:36Z</time>
      </trkpt>
      <trkpt lat="45.11222" lon="5.60056">
        <ele>1261</ele>
        <time>2010-06-06T08:53:37Z</time>
      </trkpt>
      <trkpt lat="45.11219" lon="5.60059">
        <ele>1261</ele>
        <time>2010-06-06T08:53:38Z</time>
      </trkpt>
      <trkpt lat="45.11217" lon="5.60063">
        <ele>1261</ele>
        <time>2010-06-06T08:53:39Z</time>
      </trkpt>
      <trkpt lat="45.11213" lon="5.60065">
        <ele>1261</ele>
        <time>2010-06-06T08:53:40Z</time>
      </trkpt>
      <trkpt lat="45.11211" lon="5.60068">
        <ele>1261</ele>
        <time>2010-06-06T08:53:41Z</time>
      </trkpt>
      <trkpt lat="45.11207" lon="5.60071">
        <ele>1260</ele>
        <time>2010-06-06T08:53:42Z</time>
      </trkpt>
      <trkpt lat="45.11204" lon="5.60073">
        <ele>1260</ele>
        <time>2010-06-06T08:53:43Z</time>
      </trkpt>
      <trkpt lat="45.112" lon="5.60076">
        <ele>1259</ele>
        <time>2010-06-06T08:53:44Z</time>
      </trkpt>
      <trkpt lat="45.11197" lon="5.60079">
        <ele>1258</ele>
        <time>2010-06-06T08:53:45Z</time>
      </trkpt>
      <trkpt lat="45.11195" lon="5.6008">
        <ele>1258</ele>
        <time>2010-06-06T08:53:46Z</time>
      </trkpt>
      <trkpt lat="45.11193" lon="5.60082">
        <ele>1258</ele>
        <time>2010-06-06T08:53:47Z</time>
      </trkpt>
      <trkpt lat="45.11191" lon="5.60084">
        <ele>1257</ele>
        <time>2010-06-06T08:53:48Z</time>
      </trkpt>
      <trkpt lat="45.11189" lon="5.60087">
        <ele>1257</ele>
        <time>2010-06-06T08:53:49Z</time>
      </trkpt>
      <trkpt lat="45.11186" lon="5.60089">
        <ele>1257</ele>
        <time>2010-06-06T08:53:50Z</time>
      </trkpt>
      <trkpt lat="45.11183" lon="5.60091">
        <ele>1257</ele>
        <time>2010-06-06T08:53:51Z</time>
      </trkpt>
      <trkpt lat="45.11179" lon="5.60092">
        <ele>1256</ele>
        <time>2010-06-06T08:53:52Z</time>
      </trkpt>
      <trkpt lat="45.11176" lon="5.60094">
        <ele>1256</ele>
        <time>2010-06-06T08:53:53Z</time>
      </trkpt>
      <trkpt lat="45.11173" lon="5.60096">
        <ele>1256</ele>
        <time>2010-06-06T08:53:54Z</time>
      </trkpt>
      <trkpt lat="45.1117" lon="5.60098">
        <ele>1256</ele>
        <time>2010-06-06T08:53:55Z</time>
      </trkpt>
      <trkpt lat="45.11167" lon="5.601">
        <ele>1256</ele>
        <time>2010-06-06T08:53:56Z</time>
      </trkpt>
      <trkpt lat="45.11164" lon="5.60103">
        <ele>1256</ele>
        <time>2010-06-06T08:53:57Z</time>
      </trkpt>
      <trkpt lat="45.11162" lon="5.60106">
        <ele>1256</ele>
        <time>2010-06-06T08:53:58Z</time>
      </trkpt>
      <trkpt lat="45.11159" lon="5.60109">
        <ele>1256</ele>
        <time>2010-06-06T08:53:59Z</time>
      </trkpt>
      <trkpt lat="45.11156" lon="5.60111">
        <ele>1256</ele>
        <time>2010-06-06T08:54:00Z</time>
      </trkpt>
      <trkpt lat="45.11154" lon="5.60112">
        <ele>1256</ele>
        <time>2010-06-06T08:54:01Z</time>
      </trkpt>
      <trkpt lat="45.11151" lon="5.60115">
        <ele>1256</ele>
        <time>2010-06-06T08:54:02Z</time>
      </trkpt>
      <trkpt lat="45.11148" lon="5.60117">
        <ele>1256</ele>
        <time>2010-06-06T08:54:03Z</time>
      </trkpt>
      <trkpt lat="45.11145" lon="5.6012">
        <ele>1256</ele>
        <time>2010-06-06T08:54:04Z</time>
      </trkpt>
      <trkpt lat="45.11142" lon="5.60124">
        <ele>1256</ele>
        <time>2010-06-06T08:54:05Z</time>
      </trkpt>
      <trkpt lat="45.11139" lon="5.60126">
        <ele>1256</ele>
        <time>2010-06-06T08:54:06Z</time>
      </trkpt>
      <trkpt lat="45.11135" lon="5.60127">
        <ele>1256</ele>
        <time>2010-06-06T08:54:07Z</time>
      </trkpt>
      <trkpt lat="45.11132" lon="5.60129">
        <ele>1256</ele>
        <time>2010-06-06T08:54:08Z</time>
      </trkpt>
      <trkpt lat="45.1113" lon="5.6013">
        <ele>1256</ele>
        <time>2010-06-06T08:54:09Z</time>
      </trkpt>
      <trkpt lat="45.11127" lon="5.60131">
        <ele>1255</ele>
        <time>2010-06-06T08:54:10Z</time>
      </trkpt>
      <trkpt lat="45.11125" lon="5.60132">
        <ele>1254</ele>
        <time>2010-06-06T08:54:11Z</time>
      </trkpt>
      <trkpt lat="45.11122" lon="5.60133">
        <ele>1253</ele>
        <time>2010-06-06T08:54:12Z</time>
      </trkpt>
      <trkpt lat="45.11118" lon="5.60134">
        <ele>1252</ele>
        <time>2010-06-06T08:54:13Z</time>
      </trkpt>
      <trkpt lat="45.11115" lon="5.60135">
        <ele>1251</ele>
        <time>2010-06-06T08:54:14Z</time>
      </trkpt>
      <trkpt lat="45.11112" lon="5.60135">
        <ele>1250</ele>
        <time>2010-06-06T08:54:15Z</time>
      </trkpt>
      <trkpt lat="45.1111" lon="5.60137">
        <ele>1250</ele>
        <time>2010-06-06T08:54:16Z</time>
      </trkpt>
      <trkpt lat="45.11108" lon="5.60139">
        <ele>1250</ele>
        <time>2010-06-06T08:54:17Z</time>
      </trkpt>
      <trkpt lat="45.11105" lon="5.60141">
        <ele>1250</ele>
        <time>2010-06-06T08:54:18Z</time>
      </trkpt>
      <trkpt lat="45.11102" lon="5.60143">
        <ele>1250</ele>
        <time>2010-06-06T08:54:19Z</time>
      </trkpt>
      <trkpt lat="45.111" lon="5.60145">
        <ele>1250</ele>
        <time>2010-06-06T08:54:20Z</time>
      </trkpt>
      <trkpt lat="45.11097" lon="5.60147">
        <ele>1250</ele>
        <time>2010-06-06T08:54:21Z</time>
      </trkpt>
      <trkpt lat="45.11093" lon="5.60149">
        <ele>1249</ele>
        <time>2010-06-06T08:54:22Z</time>
      </trkpt>
      <trkpt lat="45.11091" lon="5.60151">
        <ele>1249</ele>
        <time>2010-06-06T08:54:23Z</time>
      </trkpt>
      <trkpt lat="45.11088" lon="5.60153">
        <ele>1249</ele>
        <time>2010-06-06T08:54:24Z</time>
      </trkpt>
      <trkpt lat="45.11086" lon="5.60156">
        <ele>1249</ele>
        <time>2010-06-06T08:54:25Z</time>
      </trkpt>
      <trkpt lat="45.11084" lon="5.60159">
        <ele>1249</ele>
        <time>2010-06-06T08:54:26Z</time>
      </trkpt>
      <trkpt lat="45.11082" lon="5.60163">
        <ele>1249</ele>
        <time>2010-06-06T08:54:27Z</time>
      </trkpt>
      <trkpt lat="45.1108" lon="5.60166">
        <ele>1249</ele>
        <time>2010-06-06T08:54:28Z</time>
      </trkpt>
      <trkpt lat="45.11078" lon="5.60168">
        <ele>1250</ele>
        <time>2010-06-06T08:54:29Z</time>
      </trkpt>
      <trkpt lat="45.11076" lon="5.60171">
        <ele>1251</ele>
        <time>2010-06-06T08:54:30Z</time>
      </trkpt>
      <trkpt lat="45.11073" lon="5.60173">
        <ele>1252</ele>
        <time>2010-06-06T08:54:31Z</time>
      </trkpt>
      <trkpt lat="45.11071" lon="5.60175">
        <ele>1253</ele>
        <time>2010-06-06T08:54:32Z</time>
      </trkpt>
      <trkpt lat="45.11069" lon="5.60177">
        <ele>1254</ele>
        <time>2010-06-06T08:54:33Z</time>
      </trkpt>
      <trkpt lat="45.11067" lon="5.60179">
        <ele>1255</ele>
        <time>2010-06-06T08:54:34Z</time>
      </trkpt>
      <trkpt lat="45.11065" lon="5.60182">
        <ele>1256</ele>
        <time>2010-06-06T08:54:35Z</time>
      </trkpt>
      <trkpt lat="45.11062" lon="5.60185">
        <ele>1257</ele>
        <time>2010-06-06T08:54:36Z</time>
      </trkpt>
      <trkpt lat="45.11059" lon="5.60188">
        <ele>1258</ele>
        <time>2010-06-06T08:54:37Z</time>
      </trkpt>
      <trkpt lat="45.11056" lon="5.60192">
        <ele>1259</ele>
        <time>2010-06-06T08:54:38Z</time>
      </trkpt>
      <trkpt lat="45.11054" lon="5.60195">
        <ele>1260</ele>
        <time>2010-06-06T08:54:39Z</time>
      </trkpt>
      <trkpt lat="45.11052" lon="5.60198">
        <ele>1261</ele>
        <time>2010-06-06T08:54:40Z</time>
      </trkpt>
      <trkpt lat="45.1105" lon="5.602">
        <ele>1262</ele>
        <time>2010-06-06T08:54:41Z</time>
      </trkpt>
      <trkpt lat="45.11048" lon="5.60202">
        <ele>1263</ele>
        <time>2010-06-06T08:54:42Z</time>
      </trkpt>
      <trkpt lat="45.11046" lon="5.60205">
        <ele>1264</ele>
        <time>2010-06-06T08:54:43Z</time>
      </trkpt>
      <trkpt lat="45.11043" lon="5.60208">
        <ele>1265</ele>
        <time>2010-06-06T08:54:44Z</time>
      </trkpt>
      <trkpt lat="45.1104" lon="5.60211">
        <ele>1266</ele>
        <time>2010-06-06T08:54:45Z</time>
      </trkpt>
      <trkpt lat="45.11037" lon="5.60214">
        <ele>1267</ele>
        <time>2010-06-06T08:54:46Z</time>
      </trkpt>
      <trkpt lat="45.11035" lon="5.60216">
        <ele>1268</ele>
        <time>2010-06-06T08:54:47Z</time>
      </trkpt>
      <trkpt lat="45.11032" lon="5.60219">
        <ele>1270</ele>
        <time>2010-06-06T08:54:48Z</time>
      </trkpt>
      <trkpt lat="45.11029" lon="5.6022">
        <ele>1271</ele>
        <time>2010-06-06T08:54:49Z</time>
      </trkpt>
      <trkpt lat="45.11027" lon="5.60221">
        <ele>1272</ele>
        <time>2010-06-06T08:54:50Z</time>
      </trkpt>
      <trkpt lat="45.11025" lon="5.60224">
        <ele>1273</ele>
        <time>2010-06-06T08:54:51Z</time>
      </trkpt>
      <trkpt lat="45.11023" lon="5.60225">
        <ele>1274</ele>
        <time>2010-06-06T08:54:52Z</time>
      </trkpt>
      <trkpt lat="45.11021" lon="5.60227">
        <ele>1275</ele>
        <time>2010-06-06T08:54:53Z</time>
      </trkpt>
      <trkpt lat="45.1102" lon="5.60228">
        <ele>1276</ele>
        <time>2010-06-06T08:54:54Z</time>
      </trkpt>
      <trkpt lat="45.11017" lon="5.60229">
        <ele>1277</ele>
        <time>2010-06-06T08:54:55Z</time>
      </trkpt>
      <trkpt lat="45.11015" lon="5.60231">
        <ele>1278</ele>
        <time>2010-06-06T08:54:56Z</time>
      </trkpt>
      <trkpt lat="45.11011" lon="5.60233">
        <ele>1278</ele>
        <time>2010-06-06T08:54:57Z</time>
      </trkpt>
      <trkpt lat="45.11009" lon="5.60235">
        <ele>1278</ele>
        <time>2010-06-06T08:54:58Z</time>
      </trkpt>
      <trkpt lat="45.11007" lon="5.60236">
        <ele>1278</ele>
        <time>2010-06-06T08:54:59Z</time>
      </trkpt>
      <trkpt lat="45.11005" lon="5.60238">
        <ele>1278</ele>
        <time>2010-06-06T08:55:00Z</time>
      </trkpt>
      <trkpt lat="45.11003" lon="5.60241">
        <ele>1278</ele>
        <time>2010-06-06T08:55:01Z</time>
      </trkpt>
      <trkpt lat="45.11001" lon="5.60242">
        <ele>1279</ele>
        <time>2010-06-06T08:55:02Z</time>
      </trkpt>
      <trkpt lat="45.10998" lon="5.60244">
        <ele>1279</ele>
        <time>2010-06-06T08:55:03Z</time>
      </trkpt>
      <trkpt lat="45.10995" lon="5.60245">
        <ele>1279</ele>
        <time>2010-06-06T08:55:04Z</time>
      </trkpt>
      <trkpt lat="45.10993" lon="5.60246">
        <ele>1279</ele>
        <time>2010-06-06T08:55:05Z</time>
      </trkpt>
      <trkpt lat="45.1099" lon="5.60248">
        <ele>1279</ele>
        <time>2010-06-06T08:55:06Z</time>
      </trkpt>
      <trkpt lat="45.10987" lon="5.60249">
        <ele>1279</ele>
        <time>2010-06-06T08:55:07Z</time>
      </trkpt>
      <trkpt lat="45.10984" lon="5.60252">
        <ele>1279</ele>
        <time>2010-06-06T08:55:08Z</time>
      </trkpt>
      <trkpt lat="45.10981" lon="5.60253">
        <ele>1279</ele>
        <time>2010-06-06T08:55:09Z</time>
      </trkpt>
      <trkpt lat="45.10979" lon="5.60256">
        <ele>1279</ele>
        <time>2010-06-06T08:55:10Z</time>
      </trkpt>
      <trkpt lat="45.10976" lon="5.60259">
        <ele>1279</ele>
        <time>2010-06-06T08:55:11Z</time>
      </trkpt>
      <trkpt lat="45.10973" lon="5.6026">
        <ele>1279</ele>
        <time>2010-06-06T08:55:12Z</time>
      </trkpt>
      <trkpt lat="45.1097" lon="5.60261">
        <ele>1279</ele>
        <time>2010-06-06T08:55:13Z</time>
      </trkpt>
      <trkpt lat="45.10967" lon="5.60262">
        <ele>1279</ele>
        <time>2010-06-06T08:55:14Z</time>
      </trkpt>
      <trkpt lat="45.10965" lon="5.60266">
        <ele>1278</ele>
        <time>2010-06-06T08:55:15Z</time>
      </trkpt>
      <trkpt lat="45.10962" lon="5.60268">
        <ele>1277</ele>
        <time>2010-06-06T08:55:16Z</time>
      </trkpt>
      <trkpt lat="45.10959" lon="5.60271">
        <ele>1277</ele>
        <time>2010-06-06T08:55:17Z</time>
      </trkpt>
      <trkpt lat="45.10956" lon="5.60274">
        <ele>1276</ele>
        <time>2010-06-06T08:55:18Z</time>
      </trkpt>
      <trkpt lat="45.10953" lon="5.60276">
        <ele>1276</ele>
        <time>2010-06-06T08:55:19Z</time>
      </trkpt>
      <trkpt lat="45.1095" lon="5.60277">
        <ele>1276</ele>
        <time>2010-06-06T08:55:20Z</time>
      </trkpt>
      <trkpt lat="45.10946" lon="5.60278">
        <ele>1275</ele>
        <time>2010-06-06T08:55:21Z</time>
      </trkpt>
      <trkpt lat="45.10943" lon="5.6028">
        <ele>1274</ele>
        <time>2010-06-06T08:55:22Z</time>
      </trkpt>
      <trkpt lat="45.10941" lon="5.60281">
        <ele>1273</ele>
        <time>2010-06-06T08:55:23Z</time>
      </trkpt>
      <trkpt lat="45.10939" lon="5.60282">
        <ele>1272</ele>
        <time>2010-06-06T08:55:24Z</time>
      </trkpt>
      <trkpt lat="45.10936" lon="5.60283">
        <ele>1271</ele>
        <time>2010-06-06T08:55:25Z</time>
      </trkpt>
      <trkpt lat="45.10934" lon="5.60283">
        <ele>1270</ele>
        <time>2010-06-06T08:55:26Z</time>
      </trkpt>
      <trkpt lat="45.1093" lon="5.60284">
        <ele>1269</ele>
        <time>2010-06-06T08:55:27Z</time>
      </trkpt>
      <trkpt lat="45.10927" lon="5.60284">
        <ele>1268</ele>
        <time>2010-06-06T08:55:28Z</time>
      </trkpt>
      <trkpt lat="45.10924" lon="5.60285">
        <ele>1267</ele>
        <time>2010-06-06T08:55:29Z</time>
      </trkpt>
      <trkpt lat="45.10921" lon="5.60286">
        <ele>1267</ele>
        <time>2010-06-06T08:55:30Z</time>
      </trkpt>
      <trkpt lat="45.10917" lon="5.60287">
        <ele>1266</ele>
        <time>2010-06-06T08:55:31Z</time>
      </trkpt>
      <trkpt lat="45.10914" lon="5.60287">
        <ele>1265</ele>
        <time>2010-06-06T08:55:32Z</time>
      </trkpt>
      <trkpt lat="45.10912" lon="5.60287">
        <ele>1265</ele>
        <time>2010-06-06T08:55:33Z</time>
      </trkpt>
      <trkpt lat="45.10909" lon="5.60287">
        <ele>1265</ele>
        <time>2010-06-06T08:55:34Z</time>
      </trkpt>
      <trkpt lat="45.10906" lon="5.60288">
        <ele>1265</ele>
        <time>2010-06-06T08:55:35Z</time>
      </trkpt>
      <trkpt lat="45.10903" lon="5.60289">
        <ele>1265</ele>
        <time>2010-06-06T08:55:36Z</time>
      </trkpt>
      <trkpt lat="45.109" lon="5.6029">
        <ele>1264</ele>
        <time>2010-06-06T08:55:37Z</time>
      </trkpt>
      <trkpt lat="45.10897" lon="5.6029">
        <ele>1264</ele>
        <time>2010-06-06T08:55:38Z</time>
      </trkpt>
      <trkpt lat="45.10894" lon="5.60291">
        <ele>1264</ele>
        <time>2010-06-06T08:55:39Z</time>
      </trkpt>
      <trkpt lat="45.10892" lon="5.60291">
        <ele>1264</ele>
        <time>2010-06-06T08:55:40Z</time>
      </trkpt>
      <trkpt lat="45.10891" lon="5.60292">
        <ele>1264</ele>
        <time>2010-06-06T08:55:41Z</time>
      </trkpt>
      <trkpt lat="45.10888" lon="5.60294">
        <ele>1264</ele>
        <time>2010-06-06T08:55:42Z</time>
      </trkpt>
      <trkpt lat="45.10885" lon="5.60296">
        <ele>1264</ele>
        <time>2010-06-06T08:55:43Z</time>
      </trkpt>
      <trkpt lat="45.10882" lon="5.603">
        <ele>1264</ele>
        <time>2010-06-06T08:55:44Z</time>
      </trkpt>
      <trkpt lat="45.1088" lon="5.60302">
        <ele>1264</ele>
        <time>2010-06-06T08:55:45Z</time>
      </trkpt>
      <trkpt lat="45.10877" lon="5.60303">
        <ele>1264</ele>
        <time>2010-06-06T08:55:46Z</time>
      </trkpt>
      <trkpt lat="45.10876" lon="5.60304">
        <ele>1265</ele>
        <time>2010-06-06T08:55:47Z</time>
      </trkpt>
      <trkpt lat="45.10875" lon="5.60306">
        <ele>1266</ele>
        <time>2010-06-06T08:55:48Z</time>
      </trkpt>
      <trkpt lat="45.10873" lon="5.60308">
        <ele>1267</ele>
        <time>2010-06-06T08:55:49Z</time>
      </trkpt>
      <trkpt lat="45.1087" lon="5.60312">
        <ele>1268</ele>
        <time>2010-06-06T08:55:50Z</time>
      </trkpt>
      <trkpt lat="45.10868" lon="5.60317">
        <ele>1269</ele>
        <time>2010-06-06T08:55:51Z</time>
      </trkpt>
      <trkpt lat="45.10867" lon="5.60321">
        <ele>1270</ele>
        <time>2010-06-06T08:55:52Z</time>
      </trkpt>
      <trkpt lat="45.10865" lon="5.60325">
        <ele>1272</ele>
        <time>2010-06-06T08:55:53Z</time>
      </trkpt>
      <trkpt lat="45.10863" lon="5.60328">
        <ele>1274</ele>
        <time>2010-06-06T08:55:54Z</time>
      </trkpt>
      <trkpt lat="45.10861" lon="5.60332">
        <ele>1276</ele>
        <time>2010-06-06T08:55:55Z</time>
      </trkpt>
      <trkpt lat="45.10859" lon="5.60337">
        <ele>1278</ele>
        <time>2010-06-06T08:55:56Z</time>
      </trkpt>
      <trkpt lat="45.10857" lon="5.6034">
        <ele>1280</ele>
        <time>2010-06-06T08:55:57Z</time>
      </trkpt>
      <trkpt lat="45.10855" lon="5.60343">
        <ele>1281</ele>
        <time>2010-06-06T08:55:58Z</time>
      </trkpt>
      <trkpt lat="45.10853" lon="5.60343">
        <ele>1282</ele>
        <time>2010-06-06T08:55:59Z</time>
      </trkpt>
      <trkpt lat="45.10851" lon="5.60343">
        <ele>1283</ele>
        <time>2010-06-06T08:56:00Z</time>
      </trkpt>
      <trkpt lat="45.10849" lon="5.60344">
        <ele>1284</ele>
        <time>2010-06-06T08:56:01Z</time>
      </trkpt>
      <trkpt lat="45.10848" lon="5.60343">
        <ele>1285</ele>
        <time>2010-06-06T08:56:02Z</time>
      </trkpt>
      <trkpt lat="45.10845" lon="5.60344">
        <ele>1285</ele>
        <time>2010-06-06T08:56:03Z</time>
      </trkpt>
      <trkpt lat="45.10843" lon="5.60344">
        <ele>1285</ele>
        <time>2010-06-06T08:56:04Z</time>
      </trkpt>
      <trkpt lat="45.1084" lon="5.60344">
        <ele>1285</ele>
        <time>2010-06-06T08:56:05Z</time>
      </trkpt>
      <trkpt lat="45.10836" lon="5.60344">
        <ele>1285</ele>
        <time>2010-06-06T08:56:06Z</time>
      </trkpt>
      <trkpt lat="45.10833" lon="5.60344">
        <ele>1285</ele>
        <time>2010-06-06T08:56:07Z</time>
      </trkpt>
      <trkpt lat="45.10831" lon="5.60344">
        <ele>1285</ele>
        <time>2010-06-06T08:56:08Z</time>
      </trkpt>
      <trkpt lat="45.10829" lon="5.60344">
        <ele>1284</ele>
        <time>2010-06-06T08:56:09Z</time>
      </trkpt>
      <trkpt lat="45.10827" lon="5.60343">
        <ele>1283</ele>
        <time>2010-06-06T08:56:10Z</time>
      </trkpt>
      <trkpt lat="45.10825" lon="5.60343">
        <ele>1282</ele>
        <time>2010-06-06T08:56:11Z</time>
      </trkpt>
      <trkpt lat="45.10823" lon="5.60344">
        <ele>1281</ele>
        <time>2010-06-06T08:56:12Z</time>
      </trkpt>
      <trkpt lat="45.1082" lon="5.60343">
        <ele>1280</ele>
        <time>2010-06-06T08:56:13Z</time>
      </trkpt>
      <trkpt lat="45.10818" lon="5.60343">
        <ele>1279</ele>
        <time>2010-06-06T08:56:14Z</time>
      </trkpt>
      <trkpt lat="45.10816" lon="5.60343">
        <ele>1278</ele>
        <time>2010-06-06T08:56:15Z</time>
      </trkpt>
      <trkpt lat="45.10814" lon="5.60344">
        <ele>1278</ele>
        <time>2010-06-06T08:56:16Z</time>
      </trkpt>
      <trkpt lat="45.10812" lon="5.60345">
        <ele>1278</ele>
        <time>2010-06-06T08:56:17Z</time>
      </trkpt>
      <trkpt lat="45.10809" lon="5.60346">
        <ele>1278</ele>
        <time>2010-06-06T08:56:18Z</time>
      </trkpt>
      <trkpt lat="45.10806" lon="5.60348">
        <ele>1278</ele>
        <time>2010-06-06T08:56:19Z</time>
      </trkpt>
      <trkpt lat="45.10804" lon="5.60349">
        <ele>1278</ele>
        <time>2010-06-06T08:56:20Z</time>
      </trkpt>
      <trkpt lat="45.10802" lon="5.60349">
        <ele>1278</ele>
        <time>2010-06-06T08:56:21Z</time>
      </trkpt>
      <trkpt lat="45.10799" lon="5.60351">
        <ele>1278</ele>
        <time>2010-06-06T08:56:22Z</time>
      </trkpt>
      <trkpt lat="45.10797" lon="5.60352">
        <ele>1278</ele>
        <time>2010-06-06T08:56:23Z</time>
      </trkpt>
      <trkpt lat="45.10796" lon="5.60352">
        <ele>1278</ele>
        <time>2010-06-06T08:56:24Z</time>
      </trkpt>
      <trkpt lat="45.10794" lon="5.60354">
        <ele>1278</ele>
        <time>2010-06-06T08:56:25Z</time>
      </trkpt>
      <trkpt lat="45.10791" lon="5.60356">
        <ele>1278</ele>
        <time>2010-06-06T08:56:26Z</time>
      </trkpt>
      <trkpt lat="45.10788" lon="5.60358">
        <ele>1278</ele>
        <time>2010-06-06T08:56:27Z</time>
      </trkpt>
      <trkpt lat="45.10786" lon="5.60358">
        <ele>1278</ele>
        <time>2010-06-06T08:56:28Z</time>
      </trkpt>
      <trkpt lat="45.10784" lon="5.60357">
        <ele>1278</ele>
        <time>2010-06-06T08:56:29Z</time>
      </trkpt>
      <trkpt lat="45.10782" lon="5.60358">
        <ele>1278</ele>
        <time>2010-06-06T08:56:30Z</time>
      </trkpt>
      <trkpt lat="45.1078" lon="5.60357">
        <ele>1278</ele>
        <time>2010-06-06T08:56:31Z</time>
      </trkpt>
      <trkpt lat="45.10777" lon="5.60359">
        <ele>1278</ele>
        <time>2010-06-06T08:56:32Z</time>
      </trkpt>
      <trkpt lat="45.10774" lon="5.6036">
        <ele>1278</ele>
        <time>2010-06-06T08:56:33Z</time>
      </trkpt>
      <trkpt lat="45.10771" lon="5.60361">
        <ele>1278</ele>
        <time>2010-06-06T08:56:34Z</time>
      </trkpt>
      <trkpt lat="45.10769" lon="5.60362">
        <ele>1278</ele>
        <time>2010-06-06T08:56:35Z</time>
      </trkpt>
      <trkpt lat="45.10766" lon="5.60363">
        <ele>1278</ele>
        <time>2010-06-06T08:56:36Z</time>
      </trkpt>
      <trkpt lat="45.10764" lon="5.60363">
        <ele>1278</ele>
        <time>2010-06-06T08:56:37Z</time>
      </trkpt>
      <trkpt lat="45.10763" lon="5.60362">
        <ele>1278</ele>
        <time>2010-06-06T08:56:38Z</time>
      </trkpt>
      <trkpt lat="45.10761" lon="5.60361">
        <ele>1279</ele>
        <time>2010-06-06T08:56:39Z</time>
      </trkpt>
      <trkpt lat="45.10759" lon="5.60362">
        <ele>1279</ele>
        <time>2010-06-06T08:56:40Z</time>
      </trkpt>
      <trkpt lat="45.10757" lon="5.60363">
        <ele>1279</ele>
        <time>2010-06-06T08:56:41Z</time>
      </trkpt>
      <trkpt lat="45.10755" lon="5.60363">
        <ele>1279</ele>
        <time>2010-06-06T08:56:42Z</time>
      </trkpt>
      <trkpt lat="45.10752" lon="5.60364">
        <ele>1279</ele>
        <time>2010-06-06T08:56:43Z</time>
      </trkpt>
      <trkpt lat="45.10749" lon="5.60366">
        <ele>1280</ele>
        <time>2010-06-06T08:56:44Z</time>
      </trkpt>
      <trkpt lat="45.10747" lon="5.60366">
        <ele>1280</ele>
        <time>2010-06-06T08:56:45Z</time>
      </trkpt>
      <trkpt lat="45.10745" lon="5.60367">
        <ele>1280</ele>
        <time>2010-06-06T08:56:46Z</time>
      </trkpt>
      <trkpt lat="45.10743" lon="5.60367">
        <ele>1281</ele>
        <time>2010-06-06T08:56:47Z</time>
      </trkpt>
      <trkpt lat="45.10741" lon="5.60367">
        <ele>1281</ele>
        <time>2010-06-06T08:56:48Z</time>
      </trkpt>
      <trkpt lat="45.10739" lon="5.60368">
        <ele>1281</ele>
        <time>2010-06-06T08:56:49Z</time>
      </trkpt>
      <trkpt lat="45.10736" lon="5.60368">
        <ele>1282</ele>
        <time>2010-06-06T08:56:50Z</time>
      </trkpt>
      <trkpt lat="45.10734" lon="5.60369">
        <ele>1282</ele>
        <time>2010-06-06T08:56:51Z</time>
      </trkpt>
      <trkpt lat="45.10732" lon="5.60369">
        <ele>1282</ele>
        <time>2010-06-06T08:56:52Z</time>
      </trkpt>
      <trkpt lat="45.1073" lon="5.6037">
        <ele>1282</ele>
        <time>2010-06-06T08:56:53Z</time>
      </trkpt>
      <trkpt lat="45.10728" lon="5.60369">
        <ele>1282</ele>
        <time>2010-06-06T08:56:54Z</time>
      </trkpt>
      <trkpt lat="45.10727" lon="5.60367">
        <ele>1282</ele>
        <time>2010-06-06T08:56:55Z</time>
      </trkpt>
      <trkpt lat="45.10725" lon="5.60366">
        <ele>1282</ele>
        <time>2010-06-06T08:56:56Z</time>
      </trkpt>
      <trkpt lat="45.10724" lon="5.60366">
        <ele>1282</ele>
        <time>2010-06-06T08:56:57Z</time>
      </trkpt>
      <trkpt lat="45.10722" lon="5.60365">
        <ele>1282</ele>
        <time>2010-06-06T08:56:58Z</time>
      </trkpt>
      <trkpt lat="45.1072" lon="5.60364">
        <ele>1282</ele>
        <time>2010-06-06T08:56:59Z</time>
      </trkpt>
      <trkpt lat="45.10719" lon="5.60363">
        <ele>1282</ele>
        <time>2010-06-06T08:57:00Z</time>
      </trkpt>
      <trkpt lat="45.10717" lon="5.60363">
        <ele>1282</ele>
        <time>2010-06-06T08:57:01Z</time>
      </trkpt>
      <trkpt lat="45.10715" lon="5.60363">
        <ele>1282</ele>
        <time>2010-06-06T08:57:02Z</time>
      </trkpt>
      <trkpt lat="45.10713" lon="5.60363">
        <ele>1282</ele>
        <time>2010-06-06T08:57:03Z</time>
      </trkpt>
      <trkpt lat="45.10711" lon="5.60362">
        <ele>1282</ele>
        <time>2010-06-06T08:57:04Z</time>
      </trkpt>
      <trkpt lat="45.10708" lon="5.60363">
        <ele>1282</ele>
        <time>2010-06-06T08:57:05Z</time>
      </trkpt>
      <trkpt lat="45.10706" lon="5.60363">
        <ele>1282</ele>
        <time>2010-06-06T08:57:06Z</time>
      </trkpt>
      <trkpt lat="45.10704" lon="5.60362">
        <ele>1282</ele>
        <time>2010-06-06T08:57:07Z</time>
      </trkpt>
      <trkpt lat="45.10702" lon="5.60362">
        <ele>1282</ele>
        <time>2010-06-06T08:57:08Z</time>
      </trkpt>
      <trkpt lat="45.107" lon="5.60363">
        <ele>1282</ele>
        <time>2010-06-06T08:57:09Z</time>
      </trkpt>
      <trkpt lat="45.10697" lon="5.60364">
        <ele>1282</ele>
        <time>2010-06-06T08:57:10Z</time>
      </trkpt>
      <trkpt lat="45.10695" lon="5.60364">
        <ele>1282</ele>
        <time>2010-06-06T08:57:11Z</time>
      </trkpt>
      <trkpt lat="45.10693" lon="5.60364">
        <ele>1282</ele>
        <time>2010-06-06T08:57:12Z</time>
      </trkpt>
      <trkpt lat="45.1069" lon="5.60365">
        <ele>1282</ele>
        <time>2010-06-06T08:57:13Z</time>
      </trkpt>
      <trkpt lat="45.10688" lon="5.60366">
        <ele>1282</ele>
        <time>2010-06-06T08:57:14Z</time>
      </trkpt>
      <trkpt lat="45.10686" lon="5.60366">
        <ele>1282</ele>
        <time>2010-06-06T08:57:15Z</time>
      </trkpt>
      <trkpt lat="45.10684" lon="5.60367">
        <ele>1282</ele>
        <time>2010-06-06T08:57:16Z</time>
      </trkpt>
      <trkpt lat="45.10682" lon="5.60368">
        <ele>1282</ele>
        <time>2010-06-06T08:57:17Z</time>
      </trkpt>
      <trkpt lat="45.10679" lon="5.60369">
        <ele>1282</ele>
        <time>2010-06-06T08:57:18Z</time>
      </trkpt>
      <trkpt lat="45.10677" lon="5.6037">
        <ele>1282</ele>
        <time>2010-06-06T08:57:19Z</time>
      </trkpt>
      <trkpt lat="45.10675" lon="5.6037">
        <ele>1282</ele>
        <time>2010-06-06T08:57:20Z</time>
      </trkpt>
      <trkpt lat="45.10673" lon="5.60372">
        <ele>1282</ele>
        <time>2010-06-06T08:57:21Z</time>
      </trkpt>
      <trkpt lat="45.10671" lon="5.60373">
        <ele>1282</ele>
        <time>2010-06-06T08:57:22Z</time>
      </trkpt>
      <trkpt lat="45.10669" lon="5.60373">
        <ele>1282</ele>
        <time>2010-06-06T08:57:23Z</time>
      </trkpt>
      <trkpt lat="45.10667" lon="5.60373">
        <ele>1282</ele>
        <time>2010-06-06T08:57:24Z</time>
      </trkpt>
      <trkpt lat="45.10665" lon="5.60372">
        <ele>1282</ele>
        <time>2010-06-06T08:57:25Z</time>
      </trkpt>
      <trkpt lat="45.10663" lon="5.60372">
        <ele>1282</ele>
        <time>2010-06-06T08:57:26Z</time>
      </trkpt>
      <trkpt lat="45.10661" lon="5.60373">
        <ele>1282</ele>
        <time>2010-06-06T08:57:27Z</time>
      </trkpt>
      <trkpt lat="45.10658" lon="5.60374">
        <ele>1282</ele>
        <time>2010-06-06T08:57:28Z</time>
      </trkpt>
      <trkpt lat="45.10656" lon="5.60374">
        <ele>1282</ele>
        <time>2010-06-06T08:57:29Z</time>
      </trkpt>
      <trkpt lat="45.10654" lon="5.60375">
        <ele>1282</ele>
        <time>2010-06-06T08:57:30Z</time>
      </trkpt>
      <trkpt lat="45.10651" lon="5.60375">
        <ele>1282</ele>
        <time>2010-06-06T08:57:31Z</time>
      </trkpt>
      <trkpt lat="45.1065" lon="5.60375">
        <ele>1282</ele>
        <time>2010-06-06T08:57:32Z</time>
      </trkpt>
      <trkpt lat="45.10648" lon="5.60375">
        <ele>1283</ele>
        <time>2010-06-06T08:57:33Z</time>
      </trkpt>
      <trkpt lat="45.10646" lon="5.60375">
        <ele>1283</ele>
        <time>2010-06-06T08:57:34Z</time>
      </trkpt>
      <trkpt lat="45.10644" lon="5.60375">
        <ele>1283</ele>
        <time>2010-06-06T08:57:35Z</time>
      </trkpt>
      <trkpt lat="45.10642" lon="5.60375">
        <ele>1284</ele>
        <time>2010-06-06T08:57:36Z</time>
      </trkpt>
      <trkpt lat="45.1064" lon="5.60374">
        <ele>1284</ele>
        <time>2010-06-06T08:57:37Z</time>
      </trkpt>
      <trkpt lat="45.10639" lon="5.60374">
        <ele>1284</ele>
        <time>2010-06-06T08:57:38Z</time>
      </trkpt>
      <trkpt lat="45.10637" lon="5.60375">
        <ele>1285</ele>
        <time>2010-06-06T08:57:39Z</time>
      </trkpt>
      <trkpt lat="45.10635" lon="5.60376">
        <ele>1285</ele>
        <time>2010-06-06T08:57:40Z</time>
      </trkpt>
      <trkpt lat="45.10632" lon="5.60377">
        <ele>1285</ele>
        <time>2010-06-06T08:57:41Z</time>
      </trkpt>
      <trkpt lat="45.1063" lon="5.60377">
        <ele>1286</ele>
        <time>2010-06-06T08:57:42Z</time>
      </trkpt>
      <trkpt lat="45.10628" lon="5.60378">
        <ele>1286</ele>
        <time>2010-06-06T08:57:43Z</time>
      </trkpt>
      <trkpt lat="45.10626" lon="5.60378">
        <ele>1286</ele>
        <time>2010-06-06T08:57:44Z</time>
      </trkpt>
      <trkpt lat="45.10624" lon="5.60378">
        <ele>1287</ele>
        <time>2010-06-06T08:57:45Z</time>
      </trkpt>
      <trkpt lat="45.10623" lon="5.60376">
        <ele>1287</ele>
        <time>2010-06-06T08:57:46Z</time>
      </trkpt>
      <trkpt lat="45.10621" lon="5.60376">
        <ele>1287</ele>
        <time>2010-06-06T08:57:47Z</time>
      </trkpt>
      <trkpt lat="45.10618" lon="5.60377">
        <ele>1287</ele>
        <time>2010-06-06T08:57:48Z</time>
      </trkpt>
      <trkpt lat="45.10616" lon="5.60377">
        <ele>1288</ele>
        <time>2010-06-06T08:57:49Z</time>
      </trkpt>
      <trkpt lat="45.10614" lon="5.60377">
        <ele>1289</ele>
        <time>2010-06-06T08:57:50Z</time>
      </trkpt>
      <trkpt lat="45.10612" lon="5.60376">
        <ele>1289</ele>
        <time>2010-06-06T08:57:51Z</time>
      </trkpt>
      <trkpt lat="45.1061" lon="5.60375">
        <ele>1290</ele>
        <time>2010-06-06T08:57:52Z</time>
      </trkpt>
      <trkpt lat="45.10609" lon="5.60373">
        <ele>1290</ele>
        <time>2010-06-06T08:57:53Z</time>
      </trkpt>
      <trkpt lat="45.10607" lon="5.60372">
        <ele>1290</ele>
        <time>2010-06-06T08:57:54Z</time>
      </trkpt>
      <trkpt lat="45.10606" lon="5.60371">
        <ele>1290</ele>
        <time>2010-06-06T08:57:55Z</time>
      </trkpt>
      <trkpt lat="45.10604" lon="5.6037">
        <ele>1290</ele>
        <time>2010-06-06T08:57:56Z</time>
      </trkpt>
      <trkpt lat="45.10602" lon="5.6037">
        <ele>1290</ele>
        <time>2010-06-06T08:57:57Z</time>
      </trkpt>
      <trkpt lat="45.10599" lon="5.6037">
        <ele>1290</ele>
        <time>2010-06-06T08:57:58Z</time>
      </trkpt>
      <trkpt lat="45.10597" lon="5.60369">
        <ele>1290</ele>
        <time>2010-06-06T08:57:59Z</time>
      </trkpt>
      <trkpt lat="45.10595" lon="5.60368">
        <ele>1290</ele>
        <time>2010-06-06T08:58:00Z</time>
      </trkpt>
      <trkpt lat="45.10594" lon="5.60367">
        <ele>1290</ele>
        <time>2010-06-06T08:58:01Z</time>
      </trkpt>
      <trkpt lat="45.10592" lon="5.60366">
        <ele>1290</ele>
        <time>2010-06-06T08:58:02Z</time>
      </trkpt>
      <trkpt lat="45.1059" lon="5.60366">
        <ele>1290</ele>
        <time>2010-06-06T08:58:03Z</time>
      </trkpt>
      <trkpt lat="45.10588" lon="5.60366">
        <ele>1290</ele>
        <time>2010-06-06T08:58:04Z</time>
      </trkpt>
      <trkpt lat="45.10586" lon="5.60366">
        <ele>1290</ele>
        <time>2010-06-06T08:58:05Z</time>
      </trkpt>
      <trkpt lat="45.10584" lon="5.60366">
        <ele>1290</ele>
        <time>2010-06-06T08:58:06Z</time>
      </trkpt>
      <trkpt lat="45.10582" lon="5.60365">
        <ele>1290</ele>
        <time>2010-06-06T08:58:07Z</time>
      </trkpt>
      <trkpt lat="45.1058" lon="5.60364">
        <ele>1290</ele>
        <time>2010-06-06T08:58:08Z</time>
      </trkpt>
      <trkpt lat="45.10578" lon="5.60363">
        <ele>1291</ele>
        <time>2010-06-06T08:58:09Z</time>
      </trkpt>
      <trkpt lat="45.10576" lon="5.60363">
        <ele>1291</ele>
        <time>2010-06-06T08:58:10Z</time>
      </trkpt>
      <trkpt lat="45.10574" lon="5.60364">
        <ele>1291</ele>
        <time>2010-06-06T08:58:11Z</time>
      </trkpt>
      <trkpt lat="45.10572" lon="5.60364">
        <ele>1291</ele>
        <time>2010-06-06T08:58:12Z</time>
      </trkpt>
      <trkpt lat="45.10569" lon="5.60364">
        <ele>1292</ele>
        <time>2010-06-06T08:58:13Z</time>
      </trkpt>
      <trkpt lat="45.10567" lon="5.60364">
        <ele>1292</ele>
        <time>2010-06-06T08:58:14Z</time>
      </trkpt>
      <trkpt lat="45.10565" lon="5.60364">
        <ele>1292</ele>
        <time>2010-06-06T08:58:15Z</time>
      </trkpt>
      <trkpt lat="45.10563" lon="5.60364">
        <ele>1292</ele>
        <time>2010-06-06T08:58:16Z</time>
      </trkpt>
      <trkpt lat="45.10561" lon="5.60363">
        <ele>1292</ele>
        <time>2010-06-06T08:58:17Z</time>
      </trkpt>
      <trkpt lat="45.10559" lon="5.60363">
        <ele>1293</ele>
        <time>2010-06-06T08:58:18Z</time>
      </trkpt>
      <trkpt lat="45.10556" lon="5.60363">
        <ele>1293</ele>
        <time>2010-06-06T08:58:19Z</time>
      </trkpt>
      <trkpt lat="45.10554" lon="5.60363">
        <ele>1293</ele>
        <time>2010-06-06T08:58:20Z</time>
      </trkpt>
      <trkpt lat="45.10552" lon="5.60364">
        <ele>1294</ele>
        <time>2010-06-06T08:58:21Z</time>
      </trkpt>
      <trkpt lat="45.1055" lon="5.60364">
        <ele>1294</ele>
        <time>2010-06-06T08:58:22Z</time>
      </trkpt>
      <trkpt lat="45.10548" lon="5.60363">
        <ele>1294</ele>
        <time>2010-06-06T08:58:23Z</time>
      </trkpt>
      <trkpt lat="45.10545" lon="5.60363">
        <ele>1295</ele>
        <time>2010-06-06T08:58:24Z</time>
      </trkpt>
      <trkpt lat="45.10543" lon="5.60362">
        <ele>1295</ele>
        <time>2010-06-06T08:58:25Z</time>
      </trkpt>
      <trkpt lat="45.10541" lon="5.60362">
        <ele>1296</ele>
        <time>2010-06-06T08:58:26Z</time>
      </trkpt>
      <trkpt lat="45.10539" lon="5.60362">
        <ele>1296</ele>
        <time>2010-06-06T08:58:27Z</time>
      </trkpt>
      <trkpt lat="45.10538" lon="5.6036">
        <ele>1296</ele>
        <time>2010-06-06T08:58:28Z</time>
      </trkpt>
      <trkpt lat="45.10536" lon="5.60359">
        <ele>1296</ele>
        <time>2010-06-06T08:58:29Z</time>
      </trkpt>
      <trkpt lat="45.10534" lon="5.60359">
        <ele>1296</ele>
        <time>2010-06-06T08:58:30Z</time>
      </trkpt>
      <trkpt lat="45.10533" lon="5.60359">
        <ele>1296</ele>
        <time>2010-06-06T08:58:31Z</time>
      </trkpt>
      <trkpt lat="45.10531" lon="5.60358">
        <ele>1296</ele>
        <time>2010-06-06T08:58:32Z</time>
      </trkpt>
      <trkpt lat="45.10528" lon="5.60357">
        <ele>1296</ele>
        <time>2010-06-06T08:58:33Z</time>
      </trkpt>
      <trkpt lat="45.10526" lon="5.60357">
        <ele>1296</ele>
        <time>2010-06-06T08:58:34Z</time>
      </trkpt>
      <trkpt lat="45.10524" lon="5.60356">
        <ele>1297</ele>
        <time>2010-06-06T08:58:35Z</time>
      </trkpt>
      <trkpt lat="45.10523" lon="5.60356">
        <ele>1297</ele>
        <time>2010-06-06T08:58:36Z</time>
      </trkpt>
      <trkpt lat="45.10521" lon="5.60356">
        <ele>1297</ele>
        <time>2010-06-06T08:58:37Z</time>
      </trkpt>
      <trkpt lat="45.10519" lon="5.60355">
        <ele>1297</ele>
        <time>2010-06-06T08:58:38Z</time>
      </trkpt>
      <trkpt lat="45.10517" lon="5.60356">
        <ele>1297</ele>
        <time>2010-06-06T08:58:39Z</time>
      </trkpt>
      <trkpt lat="45.10515" lon="5.60356">
        <ele>1297</ele>
        <time>2010-06-06T08:58:40Z</time>
      </trkpt>
      <trkpt lat="45.10512" lon="5.60356">
        <ele>1297</ele>
        <time>2010-06-06T08:58:41Z</time>
      </trkpt>
      <trkpt lat="45.1051" lon="5.60356">
        <ele>1297</ele>
        <time>2010-06-06T08:58:42Z</time>
      </trkpt>
      <trkpt lat="45.10507" lon="5.60356">
        <ele>1298</ele>
        <time>2010-06-06T08:58:43Z</time>
      </trkpt>
      <trkpt lat="45.10504" lon="5.60357">
        <ele>1298</ele>
        <time>2010-06-06T08:58:44Z</time>
      </trkpt>
      <trkpt lat="45.10503" lon="5.60356">
        <ele>1298</ele>
        <time>2010-06-06T08:58:45Z</time>
      </trkpt>
      <trkpt lat="45.10501" lon="5.60355">
        <ele>1298</ele>
        <time>2010-06-06T08:58:46Z</time>
      </trkpt>
      <trkpt lat="45.10498" lon="5.60353">
        <ele>1298</ele>
        <time>2010-06-06T08:58:47Z</time>
      </trkpt>
      <trkpt lat="45.10496" lon="5.60352">
        <ele>1299</ele>
        <time>2010-06-06T08:58:48Z</time>
      </trkpt>
      <trkpt lat="45.10494" lon="5.60352">
        <ele>1300</ele>
        <time>2010-06-06T08:58:49Z</time>
      </trkpt>
      <trkpt lat="45.10492" lon="5.60352">
        <ele>1301</ele>
        <time>2010-06-06T08:58:50Z</time>
      </trkpt>
      <trkpt lat="45.10489" lon="5.60353">
        <ele>1302</ele>
        <time>2010-06-06T08:58:51Z</time>
      </trkpt>
      <trkpt lat="45.10486" lon="5.60353">
        <ele>1303</ele>
        <time>2010-06-06T08:58:52Z</time>
      </trkpt>
      <trkpt lat="45.10483" lon="5.60354">
        <ele>1304</ele>
        <time>2010-06-06T08:58:53Z</time>
      </trkpt>
      <trkpt lat="45.10481" lon="5.60354">
        <ele>1305</ele>
        <time>2010-06-06T08:58:54Z</time>
      </trkpt>
      <trkpt lat="45.10479" lon="5.60354">
        <ele>1306</ele>
        <time>2010-06-06T08:58:55Z</time>
      </trkpt>
      <trkpt lat="45.10477" lon="5.60353">
        <ele>1307</ele>
        <time>2010-06-06T08:58:56Z</time>
      </trkpt>
      <trkpt lat="45.10474" lon="5.60353">
        <ele>1308</ele>
        <time>2010-06-06T08:58:57Z</time>
      </trkpt>
      <trkpt lat="45.10471" lon="5.60354">
        <ele>1309</ele>
        <time>2010-06-06T08:58:58Z</time>
      </trkpt>
      <trkpt lat="45.10469" lon="5.60353">
        <ele>1310</ele>
        <time>2010-06-06T08:58:59Z</time>
      </trkpt>
      <trkpt lat="45.10467" lon="5.60353">
        <ele>1310</ele>
        <time>2010-06-06T08:59:00Z</time>
      </trkpt>
      <trkpt lat="45.10466" lon="5.60353">
        <ele>1311</ele>
        <time>2010-06-06T08:59:01Z</time>
      </trkpt>
      <trkpt lat="45.10464" lon="5.60352">
        <ele>1311</ele>
        <time>2010-06-06T08:59:02Z</time>
      </trkpt>
      <trkpt lat="45.10462" lon="5.60352">
        <ele>1312</ele>
        <time>2010-06-06T08:59:03Z</time>
      </trkpt>
      <trkpt lat="45.10459" lon="5.60352">
        <ele>1312</ele>
        <time>2010-06-06T08:59:04Z</time>
      </trkpt>
      <trkpt lat="45.10457" lon="5.60353">
        <ele>1313</ele>
        <time>2010-06-06T08:59:05Z</time>
      </trkpt>
      <trkpt lat="45.10455" lon="5.60353">
        <ele>1314</ele>
        <time>2010-06-06T08:59:06Z</time>
      </trkpt>
      <trkpt lat="45.10453" lon="5.60352">
        <ele>1314</ele>
        <time>2010-06-06T08:59:07Z</time>
      </trkpt>
      <trkpt lat="45.10451" lon="5.60352">
        <ele>1315</ele>
        <time>2010-06-06T08:59:08Z</time>
      </trkpt>
      <trkpt lat="45.10448" lon="5.60351">
        <ele>1316</ele>
        <time>2010-06-06T08:59:09Z</time>
      </trkpt>
      <trkpt lat="45.10446" lon="5.6035">
        <ele>1316</ele>
        <time>2010-06-06T08:59:10Z</time>
      </trkpt>
      <trkpt lat="45.10443" lon="5.60351">
        <ele>1316</ele>
        <time>2010-06-06T08:59:11Z</time>
      </trkpt>
      <trkpt lat="45.1044" lon="5.60351">
        <ele>1317</ele>
        <time>2010-06-06T08:59:12Z</time>
      </trkpt>
      <trkpt lat="45.10437" lon="5.60351">
        <ele>1317</ele>
        <time>2010-06-06T08:59:13Z</time>
      </trkpt>
      <trkpt lat="45.10435" lon="5.6035">
        <ele>1317</ele>
        <time>2010-06-06T08:59:14Z</time>
      </trkpt>
      <trkpt lat="45.10433" lon="5.60351">
        <ele>1317</ele>
        <time>2010-06-06T08:59:15Z</time>
      </trkpt>
      <trkpt lat="45.1043" lon="5.60351">
        <ele>1317</ele>
        <time>2010-06-06T08:59:16Z</time>
      </trkpt>
      <trkpt lat="45.10428" lon="5.6035">
        <ele>1317</ele>
        <time>2010-06-06T08:59:17Z</time>
      </trkpt>
      <trkpt lat="45.10425" lon="5.6035">
        <ele>1317</ele>
        <time>2010-06-06T08:59:18Z</time>
      </trkpt>
      <trkpt lat="45.10423" lon="5.60349">
        <ele>1317</ele>
        <time>2010-06-06T08:59:19Z</time>
      </trkpt>
      <trkpt lat="45.1042" lon="5.60348">
        <ele>1317</ele>
        <time>2010-06-06T08:59:20Z</time>
      </trkpt>
      <trkpt lat="45.10418" lon="5.60348">
        <ele>1317</ele>
        <time>2010-06-06T08:59:21Z</time>
      </trkpt>
      <trkpt lat="45.10415" lon="5.60348">
        <ele>1317</ele>
        <time>2010-06-06T08:59:22Z</time>
      </trkpt>
      <trkpt lat="45.10413" lon="5.60347">
        <ele>1317</ele>
        <time>2010-06-06T08:59:23Z</time>
      </trkpt>
      <trkpt lat="45.1041" lon="5.60347">
        <ele>1317</ele>
        <time>2010-06-06T08:59:24Z</time>
      </trkpt>
      <trkpt lat="45.10408" lon="5.60347">
        <ele>1317</ele>
        <time>2010-06-06T08:59:25Z</time>
      </trkpt>
      <trkpt lat="45.10405" lon="5.60346">
        <ele>1317</ele>
        <time>2010-06-06T08:59:26Z</time>
      </trkpt>
      <trkpt lat="45.10403" lon="5.60345">
        <ele>1317</ele>
        <time>2010-06-06T08:59:27Z</time>
      </trkpt>
      <trkpt lat="45.104" lon="5.60345">
        <ele>1317</ele>
        <time>2010-06-06T08:59:28Z</time>
      </trkpt>
      <trkpt lat="45.10398" lon="5.60344">
        <ele>1317</ele>
        <time>2010-06-06T08:59:29Z</time>
      </trkpt>
      <trkpt lat="45.10395" lon="5.60344">
        <ele>1317</ele>
        <time>2010-06-06T08:59:30Z</time>
      </trkpt>
      <trkpt lat="45.10392" lon="5.60343">
        <ele>1317</ele>
        <time>2010-06-06T08:59:31Z</time>
      </trkpt>
      <trkpt lat="45.1039" lon="5.60342">
        <ele>1317</ele>
        <time>2010-06-06T08:59:32Z</time>
      </trkpt>
      <trkpt lat="45.10387" lon="5.60342">
        <ele>1317</ele>
        <time>2010-06-06T08:59:33Z</time>
      </trkpt>
      <trkpt lat="45.10385" lon="5.60341">
        <ele>1317</ele>
        <time>2010-06-06T08:59:34Z</time>
      </trkpt>
      <trkpt lat="45.10382" lon="5.6034">
        <ele>1317</ele>
        <time>2010-06-06T08:59:35Z</time>
      </trkpt>
      <trkpt lat="45.1038" lon="5.6034">
        <ele>1317</ele>
        <time>2010-06-06T08:59:36Z</time>
      </trkpt>
      <trkpt lat="45.10377" lon="5.60339">
        <ele>1317</ele>
        <time>2010-06-06T08:59:37Z</time>
      </trkpt>
      <trkpt lat="45.10375" lon="5.60339">
        <ele>1317</ele>
        <time>2010-06-06T08:59:38Z</time>
      </trkpt>
      <trkpt lat="45.10372" lon="5.60339">
        <ele>1317</ele>
        <time>2010-06-06T08:59:39Z</time>
      </trkpt>
      <trkpt lat="45.1037" lon="5.60339">
        <ele>1317</ele>
        <time>2010-06-06T08:59:40Z</time>
      </trkpt>
      <trkpt lat="45.10367" lon="5.6034">
        <ele>1317</ele>
        <time>2010-06-06T08:59:41Z</time>
      </trkpt>
      <trkpt lat="45.10365" lon="5.6034">
        <ele>1317</ele>
        <time>2010-06-06T08:59:42Z</time>
      </trkpt>
      <trkpt lat="45.10363" lon="5.60341">
        <ele>1317</ele>
        <time>2010-06-06T08:59:43Z</time>
      </trkpt>
      <trkpt lat="45.10361" lon="5.60341">
        <ele>1317</ele>
        <time>2010-06-06T08:59:44Z</time>
      </trkpt>
      <trkpt lat="45.10359" lon="5.6034">
        <ele>1317</ele>
        <time>2010-06-06T08:59:45Z</time>
      </trkpt>
      <trkpt lat="45.10356" lon="5.60339">
        <ele>1317</ele>
        <time>2010-06-06T08:59:46Z</time>
      </trkpt>
      <trkpt lat="45.10354" lon="5.60339">
        <ele>1317</ele>
        <time>2010-06-06T08:59:47Z</time>
      </trkpt>
      <trkpt lat="45.10351" lon="5.6034">
        <ele>1317</ele>
        <time>2010-06-06T08:59:48Z</time>
      </trkpt>
      <trkpt lat="45.10348" lon="5.6034">
        <ele>1317</ele>
        <time>2010-06-06T08:59:49Z</time>
      </trkpt>
      <trkpt lat="45.10345" lon="5.60339">
        <ele>1317</ele>
        <time>2010-06-06T08:59:50Z</time>
      </trkpt>
      <trkpt lat="45.10343" lon="5.60338">
        <ele>1317</ele>
        <time>2010-06-06T08:59:51Z</time>
      </trkpt>
      <trkpt lat="45.1034" lon="5.60338">
        <ele>1317</ele>
        <time>2010-06-06T08:59:52Z</time>
      </trkpt>
      <trkpt lat="45.10338" lon="5.60338">
        <ele>1317</ele>
        <time>2010-06-06T08:59:53Z</time>
      </trkpt>
      <trkpt lat="45.10335" lon="5.60337">
        <ele>1317</ele>
        <time>2010-06-06T08:59:54Z</time>
      </trkpt>
      <trkpt lat="45.10333" lon="5.60336">
        <ele>1317</ele>
        <time>2010-06-06T08:59:55Z</time>
      </trkpt>
      <trkpt lat="45.10331" lon="5.60336">
        <ele>1318</ele>
        <time>2010-06-06T08:59:56Z</time>
      </trkpt>
      <trkpt lat="45.10328" lon="5.60336">
        <ele>1318</ele>
        <time>2010-06-06T08:59:57Z</time>
      </trkpt>
      <trkpt lat="45.10326" lon="5.60335">
        <ele>1318</ele>
        <time>2010-06-06T08:59:58Z</time>
      </trkpt>
      <trkpt lat="45.10324" lon="5.60335">
        <ele>1319</ele>
        <time>2010-06-06T08:59:59Z</time>
      </trkpt>
      <trkpt lat="45.10322" lon="5.60335">
        <ele>1320</ele>
        <time>2010-06-06T09:00:00Z</time>
      </trkpt>
      <trkpt lat="45.10319" lon="5.60335">
        <ele>1320</ele>
        <time>2010-06-06T09:00:01Z</time>
      </trkpt>
      <trkpt lat="45.10317" lon="5.60335">
        <ele>1321</ele>
        <time>2010-06-06T09:00:02Z</time>
      </trkpt>
      <trkpt lat="45.10315" lon="5.60334">
        <ele>1322</ele>
        <time>2010-06-06T09:00:03Z</time>
      </trkpt>
      <trkpt lat="45.10313" lon="5.60335">
        <ele>1322</ele>
        <time>2010-06-06T09:00:04Z</time>
      </trkpt>
      <trkpt lat="45.10311" lon="5.60334">
        <ele>1323</ele>
        <time>2010-06-06T09:00:05Z</time>
      </trkpt>
      <trkpt lat="45.10308" lon="5.60334">
        <ele>1323</ele>
        <time>2010-06-06T09:00:06Z</time>
      </trkpt>
      <trkpt lat="45.10306" lon="5.60334">
        <ele>1324</ele>
        <time>2010-06-06T09:00:07Z</time>
      </trkpt>
      <trkpt lat="45.10303" lon="5.60334">
        <ele>1324</ele>
        <time>2010-06-06T09:00:08Z</time>
      </trkpt>
      <trkpt lat="45.103" lon="5.60335">
        <ele>1324</ele>
        <time>2010-06-06T09:00:09Z</time>
      </trkpt>
      <trkpt lat="45.10298" lon="5.60335">
        <ele>1324</ele>
        <time>2010-06-06T09:00:10Z</time>
      </trkpt>
      <trkpt lat="45.10295" lon="5.60335">
        <ele>1325</ele>
        <time>2010-06-06T09:00:11Z</time>
      </trkpt>
      <trkpt lat="45.10293" lon="5.60335">
        <ele>1325</ele>
        <time>2010-06-06T09:00:12Z</time>
      </trkpt>
      <trkpt lat="45.1029" lon="5.60335">
        <ele>1325</ele>
        <time>2010-06-06T09:00:13Z</time>
      </trkpt>
      <trkpt lat="45.10288" lon="5.60337">
        <ele>1325</ele>
        <time>2010-06-06T09:00:14Z</time>
      </trkpt>
      <trkpt lat="45.10285" lon="5.60337">
        <ele>1325</ele>
        <time>2010-06-06T09:00:15Z</time>
      </trkpt>
      <trkpt lat="45.10283" lon="5.60338">
        <ele>1325</ele>
        <time>2010-06-06T09:00:16Z</time>
      </trkpt>
      <trkpt lat="45.1028" lon="5.60338">
        <ele>1325</ele>
        <time>2010-06-06T09:00:17Z</time>
      </trkpt>
      <trkpt lat="45.10277" lon="5.60338">
        <ele>1325</ele>
        <time>2010-06-06T09:00:18Z</time>
      </trkpt>
      <trkpt lat="45.10275" lon="5.60338">
        <ele>1325</ele>
        <time>2010-06-06T09:00:19Z</time>
      </trkpt>
      <trkpt lat="45.10273" lon="5.60339">
        <ele>1325</ele>
        <time>2010-06-06T09:00:20Z</time>
      </trkpt>
      <trkpt lat="45.10271" lon="5.60339">
        <ele>1325</ele>
        <time>2010-06-06T09:00:21Z</time>
      </trkpt>
      <trkpt lat="45.10268" lon="5.6034">
        <ele>1325</ele>
        <time>2010-06-06T09:00:22Z</time>
      </trkpt>
      <trkpt lat="45.10265" lon="5.6034">
        <ele>1325</ele>
        <time>2010-06-06T09:00:23Z</time>
      </trkpt>
      <trkpt lat="45.10262" lon="5.60339">
        <ele>1325</ele>
        <time>2010-06-06T09:00:24Z</time>
      </trkpt>
      <trkpt lat="45.1026" lon="5.60339">
        <ele>1325</ele>
        <time>2010-06-06T09:00:25Z</time>
      </trkpt>
      <trkpt lat="45.10258" lon="5.60339">
        <ele>1325</ele>
        <time>2010-06-06T09:00:26Z</time>
      </trkpt>
      <trkpt lat="45.10256" lon="5.60337">
        <ele>1325</ele>
        <time>2010-06-06T09:00:27Z</time>
      </trkpt>
      <trkpt lat="45.10254" lon="5.60337">
        <ele>1325</ele>
        <time>2010-06-06T09:00:28Z</time>
      </trkpt>
      <trkpt lat="45.10251" lon="5.60338">
        <ele>1325</ele>
        <time>2010-06-06T09:00:29Z</time>
      </trkpt>
      <trkpt lat="45.10248" lon="5.60339">
        <ele>1325</ele>
        <time>2010-06-06T09:00:30Z</time>
      </trkpt>
      <trkpt lat="45.10246" lon="5.60339">
        <ele>1325</ele>
        <time>2010-06-06T09:00:31Z</time>
      </trkpt>
      <trkpt lat="45.10244" lon="5.60338">
        <ele>1325</ele>
        <time>2010-06-06T09:00:32Z</time>
      </trkpt>
      <trkpt lat="45.10241" lon="5.60339">
        <ele>1325</ele>
        <time>2010-06-06T09:00:33Z</time>
      </trkpt>
      <trkpt lat="45.10239" lon="5.60339">
        <ele>1325</ele>
        <time>2010-06-06T09:00:34Z</time>
      </trkpt>
      <trkpt lat="45.10236" lon="5.60341">
        <ele>1326</ele>
        <time>2010-06-06T09:00:35Z</time>
      </trkpt>
      <trkpt lat="45.10233" lon="5.60343">
        <ele>1326</ele>
        <time>2010-06-06T09:00:36Z</time>
      </trkpt>
      <trkpt lat="45.10231" lon="5.60343">
        <ele>1327</ele>
        <time>2010-06-06T09:00:37Z</time>
      </trkpt>
      <trkpt lat="45.10229" lon="5.60341">
        <ele>1328</ele>
        <time>2010-06-06T09:00:38Z</time>
      </trkpt>
      <trkpt lat="45.10227" lon="5.6034">
        <ele>1329</ele>
        <time>2010-06-06T09:00:39Z</time>
      </trkpt>
      <trkpt lat="45.10226" lon="5.60338">
        <ele>1330</ele>
        <time>2010-06-06T09:00:40Z</time>
      </trkpt>
      <trkpt lat="45.10224" lon="5.60337">
        <ele>1331</ele>
        <time>2010-06-06T09:00:41Z</time>
      </trkpt>
      <trkpt lat="45.10222" lon="5.60337">
        <ele>1332</ele>
        <time>2010-06-06T09:00:42Z</time>
      </trkpt>
      <trkpt lat="45.10221" lon="5.60335">
        <ele>1333</ele>
        <time>2010-06-06T09:00:43Z</time>
      </trkpt>
      <trkpt lat="45.10219" lon="5.60334">
        <ele>1334</ele>
        <time>2010-06-06T09:00:44Z</time>
      </trkpt>
      <trkpt lat="45.10218" lon="5.60333">
        <ele>1335</ele>
        <time>2010-06-06T09:00:45Z</time>
      </trkpt>
      <trkpt lat="45.10216" lon="5.60333">
        <ele>1336</ele>
        <time>2010-06-06T09:00:46Z</time>
      </trkpt>
      <trkpt lat="45.10214" lon="5.60333">
        <ele>1336</ele>
        <time>2010-06-06T09:00:48Z</time>
      </trkpt>
      <trkpt lat="45.10212" lon="5.60333">
        <ele>1336</ele>
        <time>2010-06-06T09:00:49Z</time>
      </trkpt>
      <trkpt lat="45.1021" lon="5.60334">
        <ele>1336</ele>
        <time>2010-06-06T09:00:50Z</time>
      </trkpt>
      <trkpt lat="45.10207" lon="5.60336">
        <ele>1336</ele>
        <time>2010-06-06T09:00:51Z</time>
      </trkpt>
      <trkpt lat="45.10205" lon="5.60335">
        <ele>1336</ele>
        <time>2010-06-06T09:00:52Z</time>
      </trkpt>
      <trkpt lat="45.10204" lon="5.60333">
        <ele>1336</ele>
        <time>2010-06-06T09:00:53Z</time>
      </trkpt>
      <trkpt lat="45.10203" lon="5.60332">
        <ele>1336</ele>
        <time>2010-06-06T09:00:54Z</time>
      </trkpt>
      <trkpt lat="45.10201" lon="5.60332">
        <ele>1336</ele>
        <time>2010-06-06T09:00:55Z</time>
      </trkpt>
      <trkpt lat="45.102" lon="5.6033">
        <ele>1336</ele>
        <time>2010-06-06T09:00:56Z</time>
      </trkpt>
      <trkpt lat="45.10199" lon="5.6033">
        <ele>1336</ele>
        <time>2010-06-06T09:00:57Z</time>
      </trkpt>
      <trkpt lat="45.10196" lon="5.60328">
        <ele>1336</ele>
        <time>2010-06-06T09:00:59Z</time>
      </trkpt>
      <trkpt lat="45.10195" lon="5.60328">
        <ele>1336</ele>
        <time>2010-06-06T09:01:00Z</time>
      </trkpt>
      <trkpt lat="45.10194" lon="5.60328">
        <ele>1336</ele>
        <time>2010-06-06T09:01:01Z</time>
      </trkpt>
      <trkpt lat="45.10193" lon="5.60325">
        <ele>1336</ele>
        <time>2010-06-06T09:01:03Z</time>
      </trkpt>
      <trkpt lat="45.10192" lon="5.60323">
        <ele>1336</ele>
        <time>2010-06-06T09:01:04Z</time>
      </trkpt>
      <trkpt lat="45.10192" lon="5.60321">
        <ele>1336</ele>
        <time>2010-06-06T09:01:05Z</time>
      </trkpt>
      <trkpt lat="45.1019" lon="5.6032">
        <ele>1336</ele>
        <time>2010-06-06T09:01:07Z</time>
      </trkpt>
      <trkpt lat="45.10188" lon="5.60319">
        <ele>1336</ele>
        <time>2010-06-06T09:01:09Z</time>
      </trkpt>
      <trkpt lat="45.10186" lon="5.60319">
        <ele>1336</ele>
        <time>2010-06-06T09:01:10Z</time>
      </trkpt>
      <trkpt lat="45.10185" lon="5.60318">
        <ele>1336</ele>
        <time>2010-06-06T09:01:12Z</time>
      </trkpt>
      <trkpt lat="45.10184" lon="5.60316">
        <ele>1336</ele>
        <time>2010-06-06T09:01:14Z</time>
      </trkpt>
      <trkpt lat="45.10183" lon="5.60316">
        <ele>1336</ele>
        <time>2010-06-06T09:01:15Z</time>
      </trkpt>
      <trkpt lat="45.10181" lon="5.60316">
        <ele>1336</ele>
        <time>2010-06-06T09:01:16Z</time>
      </trkpt>
      <trkpt lat="45.1018" lon="5.60316">
        <ele>1336</ele>
        <time>2010-06-06T09:01:17Z</time>
      </trkpt>
      <trkpt lat="45.10179" lon="5.60316">
        <ele>1336</ele>
        <time>2010-06-06T09:01:18Z</time>
      </trkpt>
      <trkpt lat="45.10178" lon="5.60315">
        <ele>1336</ele>
        <time>2010-06-06T09:01:19Z</time>
      </trkpt>
      <trkpt lat="45.10176" lon="5.60315">
        <ele>1336</ele>
        <time>2010-06-06T09:01:21Z</time>
      </trkpt>
      <trkpt lat="45.10174" lon="5.60315">
        <ele>1336</ele>
        <time>2010-06-06T09:01:22Z</time>
      </trkpt>
      <trkpt lat="45.10173" lon="5.60316">
        <ele>1336</ele>
        <time>2010-06-06T09:01:23Z</time>
      </trkpt>
      <trkpt lat="45.10171" lon="5.60317">
        <ele>1336</ele>
        <time>2010-06-06T09:01:24Z</time>
      </trkpt>
      <trkpt lat="45.10169" lon="5.60316">
        <ele>1336</ele>
        <time>2010-06-06T09:01:26Z</time>
      </trkpt>
      <trkpt lat="45.10168" lon="5.60316">
        <ele>1336</ele>
        <time>2010-06-06T09:01:27Z</time>
      </trkpt>
      <trkpt lat="45.10166" lon="5.60316">
        <ele>1336</ele>
        <time>2010-06-06T09:01:29Z</time>
      </trkpt>
      <trkpt lat="45.10164" lon="5.60317">
        <ele>1336</ele>
        <time>2010-06-06T09:01:31Z</time>
      </trkpt>
      <trkpt lat="45.10163" lon="5.60317">
        <ele>1336</ele>
        <time>2010-06-06T09:01:32Z</time>
      </trkpt>
      <trkpt lat="45.10162" lon="5.60317">
        <ele>1337</ele>
        <time>2010-06-06T09:01:33Z</time>
      </trkpt>
      <trkpt lat="45.1016" lon="5.60317">
        <ele>1337</ele>
        <time>2010-06-06T09:01:34Z</time>
      </trkpt>
      <trkpt lat="45.10158" lon="5.60317">
        <ele>1338</ele>
        <time>2010-06-06T09:01:36Z</time>
      </trkpt>
      <trkpt lat="45.10157" lon="5.60316">
        <ele>1338</ele>
        <time>2010-06-06T09:01:37Z</time>
      </trkpt>
      <trkpt lat="45.10156" lon="5.60316">
        <ele>1339</ele>
        <time>2010-06-06T09:01:38Z</time>
      </trkpt>
      <trkpt lat="45.10154" lon="5.60316">
        <ele>1339</ele>
        <time>2010-06-06T09:01:39Z</time>
      </trkpt>
      <trkpt lat="45.10152" lon="5.60316">
        <ele>1340</ele>
        <time>2010-06-06T09:01:41Z</time>
      </trkpt>
      <trkpt lat="45.10151" lon="5.60316">
        <ele>1341</ele>
        <time>2010-06-06T09:01:42Z</time>
      </trkpt>
      <trkpt lat="45.10149" lon="5.60316">
        <ele>1341</ele>
        <time>2010-06-06T09:01:43Z</time>
      </trkpt>
      <trkpt lat="45.10147" lon="5.60317">
        <ele>1341</ele>
        <time>2010-06-06T09:01:44Z</time>
      </trkpt>
      <trkpt lat="45.10145" lon="5.60318">
        <ele>1342</ele>
        <time>2010-06-06T09:01:45Z</time>
      </trkpt>
      <trkpt lat="45.10143" lon="5.60319">
        <ele>1342</ele>
        <time>2010-06-06T09:01:46Z</time>
      </trkpt>
      <trkpt lat="45.10142" lon="5.60319">
        <ele>1342</ele>
        <time>2010-06-06T09:01:47Z</time>
      </trkpt>
      <trkpt lat="45.10141" lon="5.60318">
        <ele>1343</ele>
        <time>2010-06-06T09:01:48Z</time>
      </trkpt>
      <trkpt lat="45.10139" lon="5.60319">
        <ele>1343</ele>
        <time>2010-06-06T09:01:49Z</time>
      </trkpt>
      <trkpt lat="45.10137" lon="5.60321">
        <ele>1343</ele>
        <time>2010-06-06T09:01:50Z</time>
      </trkpt>
      <trkpt lat="45.10136" lon="5.60321">
        <ele>1344</ele>
        <time>2010-06-06T09:01:51Z</time>
      </trkpt>
      <trkpt lat="45.10134" lon="5.6032">
        <ele>1345</ele>
        <time>2010-06-06T09:01:52Z</time>
      </trkpt>
      <trkpt lat="45.10133" lon="5.60321">
        <ele>1345</ele>
        <time>2010-06-06T09:01:53Z</time>
      </trkpt>
      <trkpt lat="45.10131" lon="5.60322">
        <ele>1345</ele>
        <time>2010-06-06T09:01:54Z</time>
      </trkpt>
      <trkpt lat="45.1013" lon="5.60321">
        <ele>1345</ele>
        <time>2010-06-06T09:01:55Z</time>
      </trkpt>
      <trkpt lat="45.10128" lon="5.60321">
        <ele>1345</ele>
        <time>2010-06-06T09:01:56Z</time>
      </trkpt>
      <trkpt lat="45.10126" lon="5.60322">
        <ele>1346</ele>
        <time>2010-06-06T09:01:57Z</time>
      </trkpt>
      <trkpt lat="45.10124" lon="5.60322">
        <ele>1346</ele>
        <time>2010-06-06T09:01:58Z</time>
      </trkpt>
      <trkpt lat="45.10123" lon="5.60322">
        <ele>1347</ele>
        <time>2010-06-06T09:01:59Z</time>
      </trkpt>
      <trkpt lat="45.1012" lon="5.60322">
        <ele>1348</ele>
        <time>2010-06-06T09:02:00Z</time>
      </trkpt>
      <trkpt lat="45.10118" lon="5.60322">
        <ele>1349</ele>
        <time>2010-06-06T09:02:01Z</time>
      </trkpt>
      <trkpt lat="45.10117" lon="5.60322">
        <ele>1350</ele>
        <time>2010-06-06T09:02:02Z</time>
      </trkpt>
      <trkpt lat="45.10115" lon="5.60321">
        <ele>1350</ele>
        <time>2010-06-06T09:02:03Z</time>
      </trkpt>
      <trkpt lat="45.10114" lon="5.60321">
        <ele>1350</ele>
        <time>2010-06-06T09:02:04Z</time>
      </trkpt>
      <trkpt lat="45.10112" lon="5.60321">
        <ele>1351</ele>
        <time>2010-06-06T09:02:05Z</time>
      </trkpt>
      <trkpt lat="45.1011" lon="5.6032">
        <ele>1351</ele>
        <time>2010-06-06T09:02:06Z</time>
      </trkpt>
      <trkpt lat="45.10108" lon="5.60319">
        <ele>1351</ele>
        <time>2010-06-06T09:02:07Z</time>
      </trkpt>
      <trkpt lat="45.10106" lon="5.60318">
        <ele>1352</ele>
        <time>2010-06-06T09:02:08Z</time>
      </trkpt>
      <trkpt lat="45.10105" lon="5.60317">
        <ele>1353</ele>
        <time>2010-06-06T09:02:09Z</time>
      </trkpt>
      <trkpt lat="45.10103" lon="5.60315">
        <ele>1353</ele>
        <time>2010-06-06T09:02:10Z</time>
      </trkpt>
      <trkpt lat="45.10101" lon="5.60315">
        <ele>1354</ele>
        <time>2010-06-06T09:02:11Z</time>
      </trkpt>
      <trkpt lat="45.10099" lon="5.60315">
        <ele>1355</ele>
        <time>2010-06-06T09:02:12Z</time>
      </trkpt>
      <trkpt lat="45.10097" lon="5.60314">
        <ele>1355</ele>
        <time>2010-06-06T09:02:13Z</time>
      </trkpt>
      <trkpt lat="45.10094" lon="5.60314">
        <ele>1356</ele>
        <time>2010-06-06T09:02:14Z</time>
      </trkpt>
      <trkpt lat="45.10092" lon="5.60314">
        <ele>1356</ele>
        <time>2010-06-06T09:02:15Z</time>
      </trkpt>
      <trkpt lat="45.1009" lon="5.60313">
        <ele>1356</ele>
        <time>2010-06-06T09:02:16Z</time>
      </trkpt>
      <trkpt lat="45.10089" lon="5.60313">
        <ele>1356</ele>
        <time>2010-06-06T09:02:17Z</time>
      </trkpt>
      <trkpt lat="45.10086" lon="5.60312">
        <ele>1356</ele>
        <time>2010-06-06T09:02:18Z</time>
      </trkpt>
      <trkpt lat="45.10084" lon="5.60313">
        <ele>1356</ele>
        <time>2010-06-06T09:02:19Z</time>
      </trkpt>
      <trkpt lat="45.10082" lon="5.60312">
        <ele>1356</ele>
        <time>2010-06-06T09:02:20Z</time>
      </trkpt>
      <trkpt lat="45.1008" lon="5.60312">
        <ele>1356</ele>
        <time>2010-06-06T09:02:21Z</time>
      </trkpt>
      <trkpt lat="45.10078" lon="5.60312">
        <ele>1357</ele>
        <time>2010-06-06T09:02:22Z</time>
      </trkpt>
      <trkpt lat="45.10076" lon="5.60312">
        <ele>1357</ele>
        <time>2010-06-06T09:02:23Z</time>
      </trkpt>
      <trkpt lat="45.10073" lon="5.60312">
        <ele>1358</ele>
        <time>2010-06-06T09:02:24Z</time>
      </trkpt>
      <trkpt lat="45.10071" lon="5.60312">
        <ele>1358</ele>
        <time>2010-06-06T09:02:25Z</time>
      </trkpt>
      <trkpt lat="45.10069" lon="5.60312">
        <ele>1359</ele>
        <time>2010-06-06T09:02:26Z</time>
      </trkpt>
      <trkpt lat="45.10067" lon="5.60311">
        <ele>1359</ele>
        <time>2010-06-06T09:02:27Z</time>
      </trkpt>
      <trkpt lat="45.10064" lon="5.60311">
        <ele>1359</ele>
        <time>2010-06-06T09:02:28Z</time>
      </trkpt>
      <trkpt lat="45.10061" lon="5.60312">
        <ele>1360</ele>
        <time>2010-06-06T09:02:29Z</time>
      </trkpt>
      <trkpt lat="45.10059" lon="5.60311">
        <ele>1360</ele>
        <time>2010-06-06T09:02:30Z</time>
      </trkpt>
      <trkpt lat="45.10057" lon="5.60311">
        <ele>1360</ele>
        <time>2010-06-06T09:02:31Z</time>
      </trkpt>
      <trkpt lat="45.10054" lon="5.60311">
        <ele>1360</ele>
        <time>2010-06-06T09:02:32Z</time>
      </trkpt>
      <trkpt lat="45.10052" lon="5.60311">
        <ele>1360</ele>
        <time>2010-06-06T09:02:33Z</time>
      </trkpt>
      <trkpt lat="45.1005" lon="5.6031">
        <ele>1360</ele>
        <time>2010-06-06T09:02:34Z</time>
      </trkpt>
      <trkpt lat="45.10048" lon="5.60309">
        <ele>1360</ele>
        <time>2010-06-06T09:02:35Z</time>
      </trkpt>
      <trkpt lat="45.10045" lon="5.6031">
        <ele>1360</ele>
        <time>2010-06-06T09:02:36Z</time>
      </trkpt>
      <trkpt lat="45.10043" lon="5.6031">
        <ele>1360</ele>
        <time>2010-06-06T09:02:37Z</time>
      </trkpt>
      <trkpt lat="45.10041" lon="5.60309">
        <ele>1360</ele>
        <time>2010-06-06T09:02:38Z</time>
      </trkpt>
      <trkpt lat="45.1004" lon="5.60308">
        <ele>1360</ele>
        <time>2010-06-06T09:02:39Z</time>
      </trkpt>
      <trkpt lat="45.10038" lon="5.60308">
        <ele>1361</ele>
        <time>2010-06-06T09:02:40Z</time>
      </trkpt>
      <trkpt lat="45.10035" lon="5.60309">
        <ele>1361</ele>
        <time>2010-06-06T09:02:41Z</time>
      </trkpt>
      <trkpt lat="45.10032" lon="5.6031">
        <ele>1361</ele>
        <time>2010-06-06T09:02:42Z</time>
      </trkpt>
      <trkpt lat="45.1003" lon="5.6031">
        <ele>1362</ele>
        <time>2010-06-06T09:02:43Z</time>
      </trkpt>
      <trkpt lat="45.10028" lon="5.6031">
        <ele>1362</ele>
        <time>2010-06-06T09:02:44Z</time>
      </trkpt>
      <trkpt lat="45.10026" lon="5.6031">
        <ele>1363</ele>
        <time>2010-06-06T09:02:45Z</time>
      </trkpt>
      <trkpt lat="45.10024" lon="5.6031">
        <ele>1363</ele>
        <time>2010-06-06T09:02:46Z</time>
      </trkpt>
      <trkpt lat="45.10022" lon="5.60309">
        <ele>1364</ele>
        <time>2010-06-06T09:02:47Z</time>
      </trkpt>
      <trkpt lat="45.1002" lon="5.60309">
        <ele>1364</ele>
        <time>2010-06-06T09:02:48Z</time>
      </trkpt>
      <trkpt lat="45.10018" lon="5.60309">
        <ele>1364</ele>
        <time>2010-06-06T09:02:49Z</time>
      </trkpt>
      <trkpt lat="45.10015" lon="5.6031">
        <ele>1365</ele>
        <time>2010-06-06T09:02:50Z</time>
      </trkpt>
      <trkpt lat="45.10013" lon="5.6031">
        <ele>1365</ele>
        <time>2010-06-06T09:02:51Z</time>
      </trkpt>
      <trkpt lat="45.10011" lon="5.60309">
        <ele>1365</ele>
        <time>2010-06-06T09:02:52Z</time>
      </trkpt>
      <trkpt lat="45.10009" lon="5.60308">
        <ele>1366</ele>
        <time>2010-06-06T09:02:53Z</time>
      </trkpt>
      <trkpt lat="45.10008" lon="5.60308">
        <ele>1366</ele>
        <time>2010-06-06T09:02:54Z</time>
      </trkpt>
      <trkpt lat="45.10005" lon="5.60308">
        <ele>1366</ele>
        <time>2010-06-06T09:02:55Z</time>
      </trkpt>
      <trkpt lat="45.10003" lon="5.60308">
        <ele>1366</ele>
        <time>2010-06-06T09:02:56Z</time>
      </trkpt>
      <trkpt lat="45.10001" lon="5.60308">
        <ele>1366</ele>
        <time>2010-06-06T09:02:57Z</time>
      </trkpt>
      <trkpt lat="45.1" lon="5.60307">
        <ele>1367</ele>
        <time>2010-06-06T09:02:58Z</time>
      </trkpt>
      <trkpt lat="45.09999" lon="5.60306">
        <ele>1367</ele>
        <time>2010-06-06T09:02:59Z</time>
      </trkpt>
      <trkpt lat="45.09997" lon="5.60305">
        <ele>1367</ele>
        <time>2010-06-06T09:03:00Z</time>
      </trkpt>
      <trkpt lat="45.09995" lon="5.60305">
        <ele>1367</ele>
        <time>2010-06-06T09:03:01Z</time>
      </trkpt>
      <trkpt lat="45.09993" lon="5.60305">
        <ele>1367</ele>
        <time>2010-06-06T09:03:02Z</time>
      </trkpt>
      <trkpt lat="45.09991" lon="5.60304">
        <ele>1367</ele>
        <time>2010-06-06T09:03:03Z</time>
      </trkpt>
      <trkpt lat="45.09989" lon="5.60304">
        <ele>1368</ele>
        <time>2010-06-06T09:03:04Z</time>
      </trkpt>
      <trkpt lat="45.09987" lon="5.60303">
        <ele>1368</ele>
        <time>2010-06-06T09:03:05Z</time>
      </trkpt>
      <trkpt lat="45.09985" lon="5.60304">
        <ele>1368</ele>
        <time>2010-06-06T09:03:06Z</time>
      </trkpt>
      <trkpt lat="45.09983" lon="5.60304">
        <ele>1369</ele>
        <time>2010-06-06T09:03:07Z</time>
      </trkpt>
      <trkpt lat="45.0998" lon="5.60304">
        <ele>1369</ele>
        <time>2010-06-06T09:03:08Z</time>
      </trkpt>
      <trkpt lat="45.09978" lon="5.60304">
        <ele>1370</ele>
        <time>2010-06-06T09:03:09Z</time>
      </trkpt>
      <trkpt lat="45.09976" lon="5.60304">
        <ele>1370</ele>
        <time>2010-06-06T09:03:10Z</time>
      </trkpt>
      <trkpt lat="45.09974" lon="5.60304">
        <ele>1370</ele>
        <time>2010-06-06T09:03:11Z</time>
      </trkpt>
      <trkpt lat="45.09972" lon="5.60303">
        <ele>1371</ele>
        <time>2010-06-06T09:03:12Z</time>
      </trkpt>
      <trkpt lat="45.0997" lon="5.60303">
        <ele>1371</ele>
        <time>2010-06-06T09:03:13Z</time>
      </trkpt>
      <trkpt lat="45.09968" lon="5.60304">
        <ele>1372</ele>
        <time>2010-06-06T09:03:14Z</time>
      </trkpt>
      <trkpt lat="45.09966" lon="5.60302">
        <ele>1373</ele>
        <time>2010-06-06T09:03:15Z</time>
      </trkpt>
      <trkpt lat="45.09965" lon="5.60301">
        <ele>1374</ele>
        <time>2010-06-06T09:03:16Z</time>
      </trkpt>
      <trkpt lat="45.09963" lon="5.60301">
        <ele>1375</ele>
        <time>2010-06-06T09:03:17Z</time>
      </trkpt>
      <trkpt lat="45.0996" lon="5.603">
        <ele>1375</ele>
        <time>2010-06-06T09:03:18Z</time>
      </trkpt>
      <trkpt lat="45.09958" lon="5.603">
        <ele>1376</ele>
        <time>2010-06-06T09:03:19Z</time>
      </trkpt>
      <trkpt lat="45.09956" lon="5.60299">
        <ele>1376</ele>
        <time>2010-06-06T09:03:20Z</time>
      </trkpt>
      <trkpt lat="45.09954" lon="5.60299">
        <ele>1376</ele>
        <time>2010-06-06T09:03:21Z</time>
      </trkpt>
      <trkpt lat="45.09952" lon="5.60299">
        <ele>1377</ele>
        <time>2010-06-06T09:03:22Z</time>
      </trkpt>
      <trkpt lat="45.0995" lon="5.60298">
        <ele>1377</ele>
        <time>2010-06-06T09:03:23Z</time>
      </trkpt>
      <trkpt lat="45.09948" lon="5.60296">
        <ele>1377</ele>
        <time>2010-06-06T09:03:24Z</time>
      </trkpt>
      <trkpt lat="45.09946" lon="5.60296">
        <ele>1378</ele>
        <time>2010-06-06T09:03:25Z</time>
      </trkpt>
      <trkpt lat="45.09944" lon="5.60296">
        <ele>1378</ele>
        <time>2010-06-06T09:03:26Z</time>
      </trkpt>
      <trkpt lat="45.09943" lon="5.60295">
        <ele>1378</ele>
        <time>2010-06-06T09:03:27Z</time>
      </trkpt>
      <trkpt lat="45.0994" lon="5.60295">
        <ele>1378</ele>
        <time>2010-06-06T09:03:28Z</time>
      </trkpt>
      <trkpt lat="45.09938" lon="5.60295">
        <ele>1378</ele>
        <time>2010-06-06T09:03:29Z</time>
      </trkpt>
      <trkpt lat="45.09936" lon="5.60294">
        <ele>1378</ele>
        <time>2010-06-06T09:03:30Z</time>
      </trkpt>
      <trkpt lat="45.09934" lon="5.60294">
        <ele>1378</ele>
        <time>2010-06-06T09:03:31Z</time>
      </trkpt>
      <trkpt lat="45.09932" lon="5.60294">
        <ele>1378</ele>
        <time>2010-06-06T09:03:32Z</time>
      </trkpt>
      <trkpt lat="45.0993" lon="5.60293">
        <ele>1378</ele>
        <time>2010-06-06T09:03:33Z</time>
      </trkpt>
      <trkpt lat="45.09928" lon="5.60293">
        <ele>1378</ele>
        <time>2010-06-06T09:03:34Z</time>
      </trkpt>
      <trkpt lat="45.09926" lon="5.60293">
        <ele>1378</ele>
        <time>2010-06-06T09:03:35Z</time>
      </trkpt>
      <trkpt lat="45.09923" lon="5.60294">
        <ele>1378</ele>
        <time>2010-06-06T09:03:36Z</time>
      </trkpt>
      <trkpt lat="45.0992" lon="5.60295">
        <ele>1379</ele>
        <time>2010-06-06T09:03:37Z</time>
      </trkpt>
      <trkpt lat="45.09918" lon="5.60295">
        <ele>1379</ele>
        <time>2010-06-06T09:03:38Z</time>
      </trkpt>
      <trkpt lat="45.09917" lon="5.60295">
        <ele>1380</ele>
        <time>2010-06-06T09:03:39Z</time>
      </trkpt>
      <trkpt lat="45.09915" lon="5.60295">
        <ele>1380</ele>
        <time>2010-06-06T09:03:40Z</time>
      </trkpt>
      <trkpt lat="45.09912" lon="5.60296">
        <ele>1381</ele>
        <time>2010-06-06T09:03:41Z</time>
      </trkpt>
      <trkpt lat="45.0991" lon="5.60296">
        <ele>1381</ele>
        <time>2010-06-06T09:03:42Z</time>
      </trkpt>
      <trkpt lat="45.09908" lon="5.60296">
        <ele>1382</ele>
        <time>2010-06-06T09:03:43Z</time>
      </trkpt>
      <trkpt lat="45.09907" lon="5.60296">
        <ele>1382</ele>
        <time>2010-06-06T09:03:44Z</time>
      </trkpt>
      <trkpt lat="45.09905" lon="5.60296">
        <ele>1383</ele>
        <time>2010-06-06T09:03:45Z</time>
      </trkpt>
      <trkpt lat="45.09903" lon="5.60296">
        <ele>1384</ele>
        <time>2010-06-06T09:03:46Z</time>
      </trkpt>
      <trkpt lat="45.09901" lon="5.60297">
        <ele>1384</ele>
        <time>2010-06-06T09:03:48Z</time>
      </trkpt>
      <trkpt lat="45.09899" lon="5.60297">
        <ele>1385</ele>
        <time>2010-06-06T09:03:49Z</time>
      </trkpt>
      <trkpt lat="45.09897" lon="5.60297">
        <ele>1385</ele>
        <time>2010-06-06T09:03:50Z</time>
      </trkpt>
      <trkpt lat="45.09895" lon="5.60297">
        <ele>1385</ele>
        <time>2010-06-06T09:03:51Z</time>
      </trkpt>
      <trkpt lat="45.09893" lon="5.60297">
        <ele>1385</ele>
        <time>2010-06-06T09:03:52Z</time>
      </trkpt>
      <trkpt lat="45.09891" lon="5.60297">
        <ele>1385</ele>
        <time>2010-06-06T09:03:53Z</time>
      </trkpt>
      <trkpt lat="45.09889" lon="5.60297">
        <ele>1385</ele>
        <time>2010-06-06T09:03:54Z</time>
      </trkpt>
      <trkpt lat="45.09887" lon="5.60296">
        <ele>1385</ele>
        <time>2010-06-06T09:03:55Z</time>
      </trkpt>
      <trkpt lat="45.09885" lon="5.60295">
        <ele>1385</ele>
        <time>2010-06-06T09:03:56Z</time>
      </trkpt>
      <trkpt lat="45.09883" lon="5.60293">
        <ele>1385</ele>
        <time>2010-06-06T09:03:57Z</time>
      </trkpt>
      <trkpt lat="45.09881" lon="5.60293">
        <ele>1385</ele>
        <time>2010-06-06T09:03:58Z</time>
      </trkpt>
      <trkpt lat="45.09879" lon="5.60292">
        <ele>1386</ele>
        <time>2010-06-06T09:03:59Z</time>
      </trkpt>
      <trkpt lat="45.09878" lon="5.60292">
        <ele>1386</ele>
        <time>2010-06-06T09:04:00Z</time>
      </trkpt>
      <trkpt lat="45.09875" lon="5.60292">
        <ele>1386</ele>
        <time>2010-06-06T09:04:01Z</time>
      </trkpt>
      <trkpt lat="45.09873" lon="5.60293">
        <ele>1386</ele>
        <time>2010-06-06T09:04:01Z</time>
      </trkpt>
      <trkpt lat="45.09871" lon="5.60293">
        <ele>1386</ele>
        <time>2010-06-06T09:04:03Z</time>
      </trkpt>
      <trkpt lat="45.09869" lon="5.60292">
        <ele>1386</ele>
        <time>2010-06-06T09:04:04Z</time>
      </trkpt>
      <trkpt lat="45.09868" lon="5.60292">
        <ele>1387</ele>
        <time>2010-06-06T09:04:05Z</time>
      </trkpt>
      <trkpt lat="45.09866" lon="5.60291">
        <ele>1387</ele>
        <time>2010-06-06T09:04:06Z</time>
      </trkpt>
      <trkpt lat="45.09864" lon="5.60291">
        <ele>1387</ele>
        <time>2010-06-06T09:04:07Z</time>
      </trkpt>
      <trkpt lat="45.09862" lon="5.60292">
        <ele>1387</ele>
        <time>2010-06-06T09:04:08Z</time>
      </trkpt>
      <trkpt lat="45.0986" lon="5.60292">
        <ele>1387</ele>
        <time>2010-06-06T09:04:08Z</time>
      </trkpt>
      <trkpt lat="45.09859" lon="5.60293">
        <ele>1387</ele>
        <time>2010-06-06T09:04:10Z</time>
      </trkpt>
      <trkpt lat="45.09857" lon="5.60294">
        <ele>1387</ele>
        <time>2010-06-06T09:04:11Z</time>
      </trkpt>
      <trkpt lat="45.09856" lon="5.60294">
        <ele>1387</ele>
        <time>2010-06-06T09:04:12Z</time>
      </trkpt>
      <trkpt lat="45.09855" lon="5.60295">
        <ele>1387</ele>
        <time>2010-06-06T09:04:13Z</time>
      </trkpt>
      <trkpt lat="45.09853" lon="5.60295">
        <ele>1387</ele>
        <time>2010-06-06T09:04:14Z</time>
      </trkpt>
      <trkpt lat="45.09851" lon="5.60297">
        <ele>1387</ele>
        <time>2010-06-06T09:04:16Z</time>
      </trkpt>
      <trkpt lat="45.09849" lon="5.60297">
        <ele>1387</ele>
        <time>2010-06-06T09:04:17Z</time>
      </trkpt>
      <trkpt lat="45.09848" lon="5.60298">
        <ele>1387</ele>
        <time>2010-06-06T09:04:18Z</time>
      </trkpt>
      <trkpt lat="45.09846" lon="5.60299">
        <ele>1387</ele>
        <time>2010-06-06T09:04:20Z</time>
      </trkpt>
      <trkpt lat="45.09845" lon="5.60299">
        <ele>1387</ele>
        <time>2010-06-06T09:04:21Z</time>
      </trkpt>
      <trkpt lat="45.09844" lon="5.60299">
        <ele>1387</ele>
        <time>2010-06-06T09:04:22Z</time>
      </trkpt>
      <trkpt lat="45.09843" lon="5.603">
        <ele>1387</ele>
        <time>2010-06-06T09:04:23Z</time>
      </trkpt>
      <trkpt lat="45.09841" lon="5.603">
        <ele>1387</ele>
        <time>2010-06-06T09:04:25Z</time>
      </trkpt>
      <trkpt lat="45.09839" lon="5.60301">
        <ele>1388</ele>
        <time>2010-06-06T09:04:26Z</time>
      </trkpt>
      <trkpt lat="45.09838" lon="5.60301">
        <ele>1388</ele>
        <time>2010-06-06T09:04:27Z</time>
      </trkpt>
      <trkpt lat="45.09836" lon="5.60301">
        <ele>1388</ele>
        <time>2010-06-06T09:04:28Z</time>
      </trkpt>
      <trkpt lat="45.09835" lon="5.60301">
        <ele>1389</ele>
        <time>2010-06-06T09:04:29Z</time>
      </trkpt>
      <trkpt lat="45.09834" lon="5.60301">
        <ele>1389</ele>
        <time>2010-06-06T09:04:30Z</time>
      </trkpt>
      <trkpt lat="45.09832" lon="5.60302">
        <ele>1389</ele>
        <time>2010-06-06T09:04:31Z</time>
      </trkpt>
      <trkpt lat="45.09831" lon="5.60302">
        <ele>1389</ele>
        <time>2010-06-06T09:04:32Z</time>
      </trkpt>
      <trkpt lat="45.09829" lon="5.60302">
        <ele>1389</ele>
        <time>2010-06-06T09:04:33Z</time>
      </trkpt>
      <trkpt lat="45.09828" lon="5.60302">
        <ele>1389</ele>
        <time>2010-06-06T09:04:34Z</time>
      </trkpt>
      <trkpt lat="45.09826" lon="5.60301">
        <ele>1389</ele>
        <time>2010-06-06T09:04:36Z</time>
      </trkpt>
      <trkpt lat="45.09825" lon="5.603">
        <ele>1389</ele>
        <time>2010-06-06T09:04:38Z</time>
      </trkpt>
      <trkpt lat="45.09823" lon="5.603">
        <ele>1389</ele>
        <time>2010-06-06T09:04:39Z</time>
      </trkpt>
      <trkpt lat="45.09822" lon="5.603">
        <ele>1389</ele>
        <time>2010-06-06T09:04:40Z</time>
      </trkpt>
      <trkpt lat="45.09821" lon="5.603">
        <ele>1389</ele>
        <time>2010-06-06T09:04:41Z</time>
      </trkpt>
      <trkpt lat="45.09819" lon="5.603">
        <ele>1389</ele>
        <time>2010-06-06T09:04:41Z</time>
      </trkpt>
      <trkpt lat="45.09818" lon="5.603">
        <ele>1389</ele>
        <time>2010-06-06T09:04:43Z</time>
      </trkpt>
      <trkpt lat="45.09816" lon="5.603">
        <ele>1390</ele>
        <time>2010-06-06T09:04:45Z</time>
      </trkpt>
      <trkpt lat="45.09814" lon="5.60301">
        <ele>1390</ele>
        <time>2010-06-06T09:04:46Z</time>
      </trkpt>
      <trkpt lat="45.09813" lon="5.60301">
        <ele>1390</ele>
        <time>2010-06-06T09:04:46Z</time>
      </trkpt>
      <trkpt lat="45.09811" lon="5.60301">
        <ele>1391</ele>
        <time>2010-06-06T09:04:48Z</time>
      </trkpt>
      <trkpt lat="45.0981" lon="5.60301">
        <ele>1391</ele>
        <time>2010-06-06T09:04:48Z</time>
      </trkpt>
      <trkpt lat="45.09808" lon="5.60302">
        <ele>1391</ele>
        <time>2010-06-06T09:04:50Z</time>
      </trkpt>
      <trkpt lat="45.09807" lon="5.60302">
        <ele>1391</ele>
        <time>2010-06-06T09:04:51Z</time>
      </trkpt>
      <trkpt lat="45.09805" lon="5.60302">
        <ele>1391</ele>
        <time>2010-06-06T09:04:52Z</time>
      </trkpt>
      <trkpt lat="45.09804" lon="5.60302">
        <ele>1392</ele>
        <time>2010-06-06T09:04:53Z</time>
      </trkpt>
      <trkpt lat="45.09803" lon="5.60302">
        <ele>1392</ele>
        <time>2010-06-06T09:04:54Z</time>
      </trkpt>
      <trkpt lat="45.09802" lon="5.60302">
        <ele>1392</ele>
        <time>2010-06-06T09:04:54Z</time>
      </trkpt>
      <trkpt lat="45.098" lon="5.60301">
        <ele>1392</ele>
        <time>2010-06-06T09:04:56Z</time>
      </trkpt>
      <trkpt lat="45.09799" lon="5.60301">
        <ele>1393</ele>
        <time>2010-06-06T09:04:56Z</time>
      </trkpt>
      <trkpt lat="45.09798" lon="5.60301">
        <ele>1393</ele>
        <time>2010-06-06T09:04:58Z</time>
      </trkpt>
      <trkpt lat="45.09796" lon="5.60301">
        <ele>1393</ele>
        <time>2010-06-06T09:04:58Z</time>
      </trkpt>
      <trkpt lat="45.09795" lon="5.60301">
        <ele>1393</ele>
        <time>2010-06-06T09:05:00Z</time>
      </trkpt>
      <trkpt lat="45.09794" lon="5.60302">
        <ele>1394</ele>
        <time>2010-06-06T09:05:00Z</time>
      </trkpt>
      <trkpt lat="45.09792" lon="5.60302">
        <ele>1394</ele>
        <time>2010-06-06T09:05:02Z</time>
      </trkpt>
      <trkpt lat="45.09791" lon="5.60302">
        <ele>1394</ele>
        <time>2010-06-06T09:05:03Z</time>
      </trkpt>
      <trkpt lat="45.09789" lon="5.60302">
        <ele>1394</ele>
        <time>2010-06-06T09:05:04Z</time>
      </trkpt>
      <trkpt lat="45.09787" lon="5.60302">
        <ele>1394</ele>
        <time>2010-06-06T09:05:06Z</time>
      </trkpt>
      <trkpt lat="45.09786" lon="5.60301">
        <ele>1394</ele>
        <time>2010-06-06T09:05:07Z</time>
      </trkpt>
      <trkpt lat="45.09784" lon="5.603">
        <ele>1395</ele>
        <time>2010-06-06T09:05:09Z</time>
      </trkpt>
      <trkpt lat="45.09782" lon="5.603">
        <ele>1395</ele>
        <time>2010-06-06T09:05:10Z</time>
      </trkpt>
      <trkpt lat="45.09781" lon="5.60301">
        <ele>1395</ele>
        <time>2010-06-06T09:05:11Z</time>
      </trkpt>
      <trkpt lat="45.09779" lon="5.60301">
        <ele>1395</ele>
        <time>2010-06-06T09:05:12Z</time>
      </trkpt>
      <trkpt lat="45.09777" lon="5.60302">
        <ele>1395</ele>
        <time>2010-06-06T09:05:13Z</time>
      </trkpt>
      <trkpt lat="45.09775" lon="5.60303">
        <ele>1395</ele>
        <time>2010-06-06T09:05:13Z</time>
      </trkpt>
      <trkpt lat="45.09773" lon="5.60304">
        <ele>1395</ele>
        <time>2010-06-06T09:05:14Z</time>
      </trkpt>
      <trkpt lat="45.09772" lon="5.60304">
        <ele>1395</ele>
        <time>2010-06-06T09:05:15Z</time>
      </trkpt>
      <trkpt lat="45.0977" lon="5.60304">
        <ele>1395</ele>
        <time>2010-06-06T09:05:18Z</time>
      </trkpt>
      <trkpt lat="45.09769" lon="5.60304">
        <ele>1395</ele>
        <time>2010-06-06T09:05:18Z</time>
      </trkpt>
      <trkpt lat="45.09767" lon="5.60305">
        <ele>1395</ele>
        <time>2010-06-06T09:05:20Z</time>
      </trkpt>
      <trkpt lat="45.09766" lon="5.60305">
        <ele>1396</ele>
        <time>2010-06-06T09:05:21Z</time>
      </trkpt>
      <trkpt lat="45.09765" lon="5.60306">
        <ele>1396</ele>
        <time>2010-06-06T09:05:22Z</time>
      </trkpt>
      <trkpt lat="45.09763" lon="5.60306">
        <ele>1396</ele>
        <time>2010-06-06T09:05:23Z</time>
      </trkpt>
      <trkpt lat="45.09762" lon="5.60306">
        <ele>1396</ele>
        <time>2010-06-06T09:05:24Z</time>
      </trkpt>
      <trkpt lat="45.0976" lon="5.60306">
        <ele>1396</ele>
        <time>2010-06-06T09:05:24Z</time>
      </trkpt>
      <trkpt lat="45.09759" lon="5.60306">
        <ele>1396</ele>
        <time>2010-06-06T09:05:25Z</time>
      </trkpt>
      <trkpt lat="45.09758" lon="5.60306">
        <ele>1396</ele>
        <time>2010-06-06T09:05:27Z</time>
      </trkpt>
      <trkpt lat="45.09756" lon="5.60307">
        <ele>1396</ele>
        <time>2010-06-06T09:05:28Z</time>
      </trkpt>
      <trkpt lat="45.09755" lon="5.60308">
        <ele>1396</ele>
        <time>2010-06-06T09:05:29Z</time>
      </trkpt>
      <trkpt lat="45.09753" lon="5.60309">
        <ele>1397</ele>
        <time>2010-06-06T09:05:29Z</time>
      </trkpt>
      <trkpt lat="45.09752" lon="5.6031">
        <ele>1397</ele>
        <time>2010-06-06T09:05:31Z</time>
      </trkpt>
      <trkpt lat="45.09751" lon="5.60309">
        <ele>1398</ele>
        <time>2010-06-06T09:05:33Z</time>
      </trkpt>
      <trkpt lat="45.0975" lon="5.60308">
        <ele>1398</ele>
        <time>2010-06-06T09:05:34Z</time>
      </trkpt>
      <trkpt lat="45.09749" lon="5.60308">
        <ele>1399</ele>
        <time>2010-06-06T09:05:35Z</time>
      </trkpt>
      <trkpt lat="45.09748" lon="5.60309">
        <ele>1399</ele>
        <time>2010-06-06T09:05:36Z</time>
      </trkpt>
      <trkpt lat="45.09747" lon="5.6031">
        <ele>1399</ele>
        <time>2010-06-06T09:05:36Z</time>
      </trkpt>
      <trkpt lat="45.09744" lon="5.60311">
        <ele>1400</ele>
        <time>2010-06-06T09:05:39Z</time>
      </trkpt>
      <trkpt lat="45.09742" lon="5.60312">
        <ele>1400</ele>
        <time>2010-06-06T09:05:40Z</time>
      </trkpt>
      <trkpt lat="45.09741" lon="5.60313">
        <ele>1401</ele>
        <time>2010-06-06T09:05:41Z</time>
      </trkpt>
      <trkpt lat="45.0974" lon="5.60313">
        <ele>1401</ele>
        <time>2010-06-06T09:05:43Z</time>
      </trkpt>
      <trkpt lat="45.09738" lon="5.60313">
        <ele>1402</ele>
        <time>2010-06-06T09:05:44Z</time>
      </trkpt>
      <trkpt lat="45.09737" lon="5.60314">
        <ele>1402</ele>
        <time>2010-06-06T09:05:44Z</time>
      </trkpt>
      <trkpt lat="45.09736" lon="5.60314">
        <ele>1402</ele>
        <time>2010-06-06T09:05:45Z</time>
      </trkpt>
      <trkpt lat="45.09735" lon="5.60314">
        <ele>1403</ele>
        <time>2010-06-06T09:05:47Z</time>
      </trkpt>
      <trkpt lat="45.09733" lon="5.60313">
        <ele>1403</ele>
        <time>2010-06-06T09:05:47Z</time>
      </trkpt>
      <trkpt lat="45.09732" lon="5.60313">
        <ele>1404</ele>
        <time>2010-06-06T09:05:49Z</time>
      </trkpt>
      <trkpt lat="45.09731" lon="5.60313">
        <ele>1404</ele>
        <time>2010-06-06T09:05:49Z</time>
      </trkpt>
      <trkpt lat="45.0973" lon="5.60313">
        <ele>1404</ele>
        <time>2010-06-06T09:05:50Z</time>
      </trkpt>
      <trkpt lat="45.09729" lon="5.60313">
        <ele>1404</ele>
        <time>2010-06-06T09:05:52Z</time>
      </trkpt>
      <trkpt lat="45.09727" lon="5.60312">
        <ele>1405</ele>
        <time>2010-06-06T09:05:52Z</time>
      </trkpt>
      <trkpt lat="45.09726" lon="5.60312">
        <ele>1405</ele>
        <time>2010-06-06T09:05:53Z</time>
      </trkpt>
      <trkpt lat="45.09725" lon="5.60312">
        <ele>1405</ele>
        <time>2010-06-06T09:05:55Z</time>
      </trkpt>
      <trkpt lat="45.09723" lon="5.60312">
        <ele>1405</ele>
        <time>2010-06-06T09:05:56Z</time>
      </trkpt>
      <trkpt lat="45.09721" lon="5.60312">
        <ele>1406</ele>
        <time>2010-06-06T09:05:57Z</time>
      </trkpt>
      <trkpt lat="45.09719" lon="5.60312">
        <ele>1406</ele>
        <time>2010-06-06T09:05:57Z</time>
      </trkpt>
      <trkpt lat="45.09717" lon="5.60311">
        <ele>1406</ele>
        <time>2010-06-06T09:05:59Z</time>
      </trkpt>
      <trkpt lat="45.09715" lon="5.60311">
        <ele>1406</ele>
        <time>2010-06-06T09:06:00Z</time>
      </trkpt>
      <trkpt lat="45.09713" lon="5.60312">
        <ele>1407</ele>
        <time>2010-06-06T09:06:00Z</time>
      </trkpt>
      <trkpt lat="45.0971" lon="5.60313">
        <ele>1407</ele>
        <time>2010-06-06T09:06:02Z</time>
      </trkpt>
      <trkpt lat="45.09708" lon="5.60313">
        <ele>1408</ele>
        <time>2010-06-06T09:06:03Z</time>
      </trkpt>
      <trkpt lat="45.09706" lon="5.60312">
        <ele>1408</ele>
        <time>2010-06-06T09:06:04Z</time>
      </trkpt>
      <trkpt lat="45.09705" lon="5.60312">
        <ele>1409</ele>
        <time>2010-06-06T09:06:05Z</time>
      </trkpt>
      <trkpt lat="45.09703" lon="5.60311">
        <ele>1409</ele>
        <time>2010-06-06T09:06:06Z</time>
      </trkpt>
      <trkpt lat="45.09702" lon="5.6031">
        <ele>1409</ele>
        <time>2010-06-06T09:06:07Z</time>
      </trkpt>
      <trkpt lat="45.097" lon="5.60311">
        <ele>1410</ele>
        <time>2010-06-06T09:06:08Z</time>
      </trkpt>
      <trkpt lat="45.09698" lon="5.60311">
        <ele>1410</ele>
        <time>2010-06-06T09:06:09Z</time>
      </trkpt>
      <trkpt lat="45.09696" lon="5.60311">
        <ele>1410</ele>
        <time>2010-06-06T09:06:10Z</time>
      </trkpt>
      <trkpt lat="45.09694" lon="5.60311">
        <ele>1411</ele>
        <time>2010-06-06T09:06:11Z</time>
      </trkpt>
      <trkpt lat="45.09692" lon="5.6031">
        <ele>1411</ele>
        <time>2010-06-06T09:06:12Z</time>
      </trkpt>
      <trkpt lat="45.0969" lon="5.60309">
        <ele>1411</ele>
        <time>2010-06-06T09:06:13Z</time>
      </trkpt>
      <trkpt lat="45.09688" lon="5.60309">
        <ele>1411</ele>
        <time>2010-06-06T09:06:14Z</time>
      </trkpt>
      <trkpt lat="45.09686" lon="5.6031">
        <ele>1411</ele>
        <time>2010-06-06T09:06:15Z</time>
      </trkpt>
      <trkpt lat="45.09683" lon="5.6031">
        <ele>1411</ele>
        <time>2010-06-06T09:06:16Z</time>
      </trkpt>
      <trkpt lat="45.09681" lon="5.6031">
        <ele>1412</ele>
        <time>2010-06-06T09:06:16Z</time>
      </trkpt>
      <trkpt lat="45.09679" lon="5.6031">
        <ele>1412</ele>
        <time>2010-06-06T09:06:18Z</time>
      </trkpt>
      <trkpt lat="45.09676" lon="5.60311">
        <ele>1412</ele>
        <time>2010-06-06T09:06:19Z</time>
      </trkpt>
      <trkpt lat="45.09674" lon="5.6031">
        <ele>1413</ele>
        <time>2010-06-06T09:06:20Z</time>
      </trkpt>
      <trkpt lat="45.09672" lon="5.60311">
        <ele>1413</ele>
        <time>2010-06-06T09:06:21Z</time>
      </trkpt>
      <trkpt lat="45.09669" lon="5.60311">
        <ele>1414</ele>
        <time>2010-06-06T09:06:22Z</time>
      </trkpt>
      <trkpt lat="45.09667" lon="5.60311">
        <ele>1414</ele>
        <time>2010-06-06T09:06:23Z</time>
      </trkpt>
      <trkpt lat="45.09666" lon="5.6031">
        <ele>1414</ele>
        <time>2010-06-06T09:06:24Z</time>
      </trkpt>
      <trkpt lat="45.09664" lon="5.6031">
        <ele>1415</ele>
        <time>2010-06-06T09:06:25Z</time>
      </trkpt>
      <trkpt lat="45.09661" lon="5.6031">
        <ele>1415</ele>
        <time>2010-06-06T09:06:26Z</time>
      </trkpt>
      <trkpt lat="45.09659" lon="5.6031">
        <ele>1415</ele>
        <time>2010-06-06T09:06:27Z</time>
      </trkpt>
      <trkpt lat="45.09656" lon="5.60312">
        <ele>1416</ele>
        <time>2010-06-06T09:06:28Z</time>
      </trkpt>
      <trkpt lat="45.09654" lon="5.60312">
        <ele>1416</ele>
        <time>2010-06-06T09:06:29Z</time>
      </trkpt>
      <trkpt lat="45.09652" lon="5.60312">
        <ele>1416</ele>
        <time>2010-06-06T09:06:30Z</time>
      </trkpt>
      <trkpt lat="45.0965" lon="5.60311">
        <ele>1417</ele>
        <time>2010-06-06T09:06:31Z</time>
      </trkpt>
      <trkpt lat="45.09649" lon="5.6031">
        <ele>1417</ele>
        <time>2010-06-06T09:06:32Z</time>
      </trkpt>
      <trkpt lat="45.09647" lon="5.6031">
        <ele>1417</ele>
        <time>2010-06-06T09:06:33Z</time>
      </trkpt>
      <trkpt lat="45.09645" lon="5.60308">
        <ele>1417</ele>
        <time>2010-06-06T09:06:34Z</time>
      </trkpt>
      <trkpt lat="45.09643" lon="5.60307">
        <ele>1418</ele>
        <time>2010-06-06T09:06:35Z</time>
      </trkpt>
      <trkpt lat="45.09642" lon="5.60307">
        <ele>1418</ele>
        <time>2010-06-06T09:06:36Z</time>
      </trkpt>
      <trkpt lat="45.0964" lon="5.60307">
        <ele>1418</ele>
        <time>2010-06-06T09:06:37Z</time>
      </trkpt>
      <trkpt lat="45.09638" lon="5.60308">
        <ele>1418</ele>
        <time>2010-06-06T09:06:38Z</time>
      </trkpt>
      <trkpt lat="45.09635" lon="5.60308">
        <ele>1418</ele>
        <time>2010-06-06T09:06:39Z</time>
      </trkpt>
      <trkpt lat="45.09634" lon="5.60307">
        <ele>1418</ele>
        <time>2010-06-06T09:06:39Z</time>
      </trkpt>
      <trkpt lat="45.09631" lon="5.60307">
        <ele>1418</ele>
        <time>2010-06-06T09:06:41Z</time>
      </trkpt>
      <trkpt lat="45.09629" lon="5.60307">
        <ele>1418</ele>
        <time>2010-06-06T09:06:41Z</time>
      </trkpt>
      <trkpt lat="45.09627" lon="5.60306">
        <ele>1419</ele>
        <time>2010-06-06T09:06:43Z</time>
      </trkpt>
      <trkpt lat="45.09625" lon="5.60306">
        <ele>1419</ele>
        <time>2010-06-06T09:06:44Z</time>
      </trkpt>
      <trkpt lat="45.09623" lon="5.60307">
        <ele>1420</ele>
        <time>2010-06-06T09:06:44Z</time>
      </trkpt>
      <trkpt lat="45.0962" lon="5.60306">
        <ele>1420</ele>
        <time>2010-06-06T09:06:46Z</time>
      </trkpt>
      <trkpt lat="45.09618" lon="5.60306">
        <ele>1421</ele>
        <time>2010-06-06T09:06:47Z</time>
      </trkpt>
      <trkpt lat="45.09616" lon="5.60306">
        <ele>1421</ele>
        <time>2010-06-06T09:06:48Z</time>
      </trkpt>
      <trkpt lat="45.09614" lon="5.60305">
        <ele>1422</ele>
        <time>2010-06-06T09:06:48Z</time>
      </trkpt>
      <trkpt lat="45.09612" lon="5.60305">
        <ele>1422</ele>
        <time>2010-06-06T09:06:49Z</time>
      </trkpt>
      <trkpt lat="45.0961" lon="5.60304">
        <ele>1422</ele>
        <time>2010-06-06T09:06:51Z</time>
      </trkpt>
      <trkpt lat="45.09608" lon="5.60303">
        <ele>1423</ele>
        <time>2010-06-06T09:06:51Z</time>
      </trkpt>
      <trkpt lat="45.09606" lon="5.60302">
        <ele>1423</ele>
        <time>2010-06-06T09:06:52Z</time>
      </trkpt>
      <trkpt lat="45.09604" lon="5.60302">
        <ele>1423</ele>
        <time>2010-06-06T09:06:53Z</time>
      </trkpt>
      <trkpt lat="45.09602" lon="5.60301">
        <ele>1424</ele>
        <time>2010-06-06T09:06:54Z</time>
      </trkpt>
      <trkpt lat="45.096" lon="5.60301">
        <ele>1424</ele>
        <time>2010-06-06T09:06:56Z</time>
      </trkpt>
      <trkpt lat="45.09598" lon="5.603">
        <ele>1425</ele>
        <time>2010-06-06T09:06:56Z</time>
      </trkpt>
      <trkpt lat="45.09597" lon="5.60299">
        <ele>1425</ele>
        <time>2010-06-06T09:06:58Z</time>
      </trkpt>
      <trkpt lat="45.09595" lon="5.60298">
        <ele>1425</ele>
        <time>2010-06-06T09:06:58Z</time>
      </trkpt>
      <trkpt lat="45.09594" lon="5.60296">
        <ele>1426</ele>
        <time>2010-06-06T09:06:59Z</time>
      </trkpt>
      <trkpt lat="45.09593" lon="5.60294">
        <ele>1426</ele>
        <time>2010-06-06T09:07:01Z</time>
      </trkpt>
      <trkpt lat="45.09591" lon="5.60294">
        <ele>1426</ele>
        <time>2010-06-06T09:07:01Z</time>
      </trkpt>
      <trkpt lat="45.09589" lon="5.60294">
        <ele>1426</ele>
        <time>2010-06-06T09:07:02Z</time>
      </trkpt>
      <trkpt lat="45.09587" lon="5.60294">
        <ele>1427</ele>
        <time>2010-06-06T09:07:03Z</time>
      </trkpt>
      <trkpt lat="45.09585" lon="5.60294">
        <ele>1427</ele>
        <time>2010-06-06T09:07:04Z</time>
      </trkpt>
      <trkpt lat="45.09583" lon="5.60293">
        <ele>1427</ele>
        <time>2010-06-06T09:07:06Z</time>
      </trkpt>
      <trkpt lat="45.09581" lon="5.60293">
        <ele>1427</ele>
        <time>2010-06-06T09:07:06Z</time>
      </trkpt>
      <trkpt lat="45.09579" lon="5.60293">
        <ele>1428</ele>
        <time>2010-06-06T09:07:07Z</time>
      </trkpt>
      <trkpt lat="45.09577" lon="5.60293">
        <ele>1428</ele>
        <time>2010-06-06T09:07:08Z</time>
      </trkpt>
      <trkpt lat="45.09575" lon="5.60293">
        <ele>1428</ele>
        <time>2010-06-06T09:07:09Z</time>
      </trkpt>
      <trkpt lat="45.09573" lon="5.60293">
        <ele>1429</ele>
        <time>2010-06-06T09:07:11Z</time>
      </trkpt>
      <trkpt lat="45.0957" lon="5.60293">
        <ele>1429</ele>
        <time>2010-06-06T09:07:11Z</time>
      </trkpt>
      <trkpt lat="45.09568" lon="5.60294">
        <ele>1429</ele>
        <time>2010-06-06T09:07:12Z</time>
      </trkpt>
      <trkpt lat="45.09565" lon="5.60294">
        <ele>1430</ele>
        <time>2010-06-06T09:07:13Z</time>
      </trkpt>
      <trkpt lat="45.09564" lon="5.60293">
        <ele>1430</ele>
        <time>2010-06-06T09:07:14Z</time>
      </trkpt>
      <trkpt lat="45.09563" lon="5.60292">
        <ele>1430</ele>
        <time>2010-06-06T09:07:15Z</time>
      </trkpt>
      <trkpt lat="45.0956" lon="5.60292">
        <ele>1430</ele>
        <time>2010-06-06T09:07:17Z</time>
      </trkpt>
      <trkpt lat="45.09558" lon="5.60292">
        <ele>1430</ele>
        <time>2010-06-06T09:07:17Z</time>
      </trkpt>
      <trkpt lat="45.09557" lon="5.60291">
        <ele>1431</ele>
        <time>2010-06-06T09:07:18Z</time>
      </trkpt>
      <trkpt lat="45.09555" lon="5.60289">
        <ele>1431</ele>
        <time>2010-06-06T09:07:20Z</time>
      </trkpt>
      <trkpt lat="45.09554" lon="5.60289">
        <ele>1431</ele>
        <time>2010-06-06T09:07:22Z</time>
      </trkpt>
      <trkpt lat="45.09552" lon="5.6029">
        <ele>1432</ele>
        <time>2010-06-06T09:07:22Z</time>
      </trkpt>
      <trkpt lat="45.09549" lon="5.60291">
        <ele>1432</ele>
        <time>2010-06-06T09:07:23Z</time>
      </trkpt>
      <trkpt lat="45.09547" lon="5.60292">
        <ele>1432</ele>
        <time>2010-06-06T09:07:24Z</time>
      </trkpt>
      <trkpt lat="45.09545" lon="5.60292">
        <ele>1432</ele>
        <time>2010-06-06T09:07:25Z</time>
      </trkpt>
      <trkpt lat="45.09544" lon="5.60292">
        <ele>1432</ele>
        <time>2010-06-06T09:07:27Z</time>
      </trkpt>
      <trkpt lat="45.09542" lon="5.60292">
        <ele>1432</ele>
        <time>2010-06-06T09:07:27Z</time>
      </trkpt>
      <trkpt lat="45.0954" lon="5.60292">
        <ele>1432</ele>
        <time>2010-06-06T09:07:29Z</time>
      </trkpt>
      <trkpt lat="45.09538" lon="5.60292">
        <ele>1432</ele>
        <time>2010-06-06T09:07:30Z</time>
      </trkpt>
      <trkpt lat="45.09536" lon="5.60291">
        <ele>1432</ele>
        <time>2010-06-06T09:07:32Z</time>
      </trkpt>
      <trkpt lat="45.09535" lon="5.6029">
        <ele>1432</ele>
        <time>2010-06-06T09:07:33Z</time>
      </trkpt>
      <trkpt lat="45.09534" lon="5.6029">
        <ele>1432</ele>
        <time>2010-06-06T09:07:34Z</time>
      </trkpt>
      <trkpt lat="45.09532" lon="5.60289">
        <ele>1432</ele>
        <time>2010-06-06T09:07:35Z</time>
      </trkpt>
      <trkpt lat="45.09531" lon="5.60289">
        <ele>1432</ele>
        <time>2010-06-06T09:07:37Z</time>
      </trkpt>
      <trkpt lat="45.09529" lon="5.60288">
        <ele>1432</ele>
        <time>2010-06-06T09:07:38Z</time>
      </trkpt>
      <trkpt lat="45.09526" lon="5.60287">
        <ele>1432</ele>
        <time>2010-06-06T09:07:40Z</time>
      </trkpt>
      <trkpt lat="45.09524" lon="5.60287">
        <ele>1432</ele>
        <time>2010-06-06T09:07:42Z</time>
      </trkpt>
      <trkpt lat="45.09523" lon="5.60287">
        <ele>1432</ele>
        <time>2010-06-06T09:07:42Z</time>
      </trkpt>
      <trkpt lat="45.09521" lon="5.60286">
        <ele>1432</ele>
        <time>2010-06-06T09:07:44Z</time>
      </trkpt>
      <trkpt lat="45.09519" lon="5.60287">
        <ele>1432</ele>
        <time>2010-06-06T09:07:45Z</time>
      </trkpt>
      <trkpt lat="45.09517" lon="5.60287">
        <ele>1432</ele>
        <time>2010-06-06T09:07:47Z</time>
      </trkpt>
      <trkpt lat="45.09515" lon="5.60288">
        <ele>1432</ele>
        <time>2010-06-06T09:07:47Z</time>
      </trkpt>
      <trkpt lat="45.09513" lon="5.60289">
        <ele>1432</ele>
        <time>2010-06-06T09:07:48Z</time>
      </trkpt>
      <trkpt lat="45.09512" lon="5.60289">
        <ele>1432</ele>
        <time>2010-06-06T09:07:49Z</time>
      </trkpt>
      <trkpt lat="45.0951" lon="5.6029">
        <ele>1432</ele>
        <time>2010-06-06T09:07:50Z</time>
      </trkpt>
      <trkpt lat="45.09508" lon="5.6029">
        <ele>1432</ele>
        <time>2010-06-06T09:07:52Z</time>
      </trkpt>
      <trkpt lat="45.09507" lon="5.60289">
        <ele>1432</ele>
        <time>2010-06-06T09:07:52Z</time>
      </trkpt>
      <trkpt lat="45.09506" lon="5.60289">
        <ele>1432</ele>
        <time>2010-06-06T09:07:53Z</time>
      </trkpt>
      <trkpt lat="45.09505" lon="5.60289">
        <ele>1432</ele>
        <time>2010-06-06T09:07:54Z</time>
      </trkpt>
      <trkpt lat="45.09503" lon="5.60287">
        <ele>1432</ele>
        <time>2010-06-06T09:07:57Z</time>
      </trkpt>
      <trkpt lat="45.09502" lon="5.60287">
        <ele>1433</ele>
        <time>2010-06-06T09:07:57Z</time>
      </trkpt>
      <trkpt lat="45.09501" lon="5.60287">
        <ele>1433</ele>
        <time>2010-06-06T09:07:58Z</time>
      </trkpt>
      <trkpt lat="45.09498" lon="5.60287">
        <ele>1434</ele>
        <time>2010-06-06T09:08:00Z</time>
      </trkpt>
      <trkpt lat="45.09496" lon="5.60288">
        <ele>1434</ele>
        <time>2010-06-06T09:08:02Z</time>
      </trkpt>
      <trkpt lat="45.09495" lon="5.60288">
        <ele>1434</ele>
        <time>2010-06-06T09:08:02Z</time>
      </trkpt>
      <trkpt lat="45.09493" lon="5.60288">
        <ele>1435</ele>
        <time>2010-06-06T09:08:05Z</time>
      </trkpt>
      <trkpt lat="45.09492" lon="5.60287">
        <ele>1436</ele>
        <time>2010-06-06T09:08:07Z</time>
      </trkpt>
      <trkpt lat="45.0949" lon="5.60286">
        <ele>1436</ele>
        <time>2010-06-06T09:08:07Z</time>
      </trkpt>
      <trkpt lat="45.09488" lon="5.60286">
        <ele>1437</ele>
        <time>2010-06-06T09:08:09Z</time>
      </trkpt>
      <trkpt lat="45.09487" lon="5.60285">
        <ele>1437</ele>
        <time>2010-06-06T09:08:10Z</time>
      </trkpt>
      <trkpt lat="45.09485" lon="5.60285">
        <ele>1437</ele>
        <time>2010-06-06T09:08:12Z</time>
      </trkpt>
      <trkpt lat="45.09483" lon="5.60286">
        <ele>1437</ele>
        <time>2010-06-06T09:08:12Z</time>
      </trkpt>
      <trkpt lat="45.09481" lon="5.60285">
        <ele>1437</ele>
        <time>2010-06-06T09:08:14Z</time>
      </trkpt>
      <trkpt lat="45.09479" lon="5.60285">
        <ele>1437</ele>
        <time>2010-06-06T09:08:15Z</time>
      </trkpt>
      <trkpt lat="45.09477" lon="5.60282">
        <ele>1438</ele>
        <time>2010-06-06T09:08:18Z</time>
      </trkpt>
      <trkpt lat="45.09475" lon="5.60281">
        <ele>1438</ele>
        <time>2010-06-06T09:08:19Z</time>
      </trkpt>
      <trkpt lat="45.09474" lon="5.60281">
        <ele>1438</ele>
        <time>2010-06-06T09:08:20Z</time>
      </trkpt>
      <trkpt lat="45.09472" lon="5.60279">
        <ele>1438</ele>
        <time>2010-06-06T09:08:23Z</time>
      </trkpt>
      <trkpt lat="45.09472" lon="5.60277">
        <ele>1438</ele>
        <time>2010-06-06T09:08:23Z</time>
      </trkpt>
      <trkpt lat="45.09471" lon="5.60274">
        <ele>1439</ele>
        <time>2010-06-06T09:08:24Z</time>
      </trkpt>
      <trkpt lat="45.09471" lon="5.60271">
        <ele>1439</ele>
        <time>2010-06-06T09:08:25Z</time>
      </trkpt>
      <trkpt lat="45.0947" lon="5.60269">
        <ele>1439</ele>
        <time>2010-06-06T09:08:28Z</time>
      </trkpt>
      <trkpt lat="45.09469" lon="5.60268">
        <ele>1440</ele>
        <time>2010-06-06T09:08:28Z</time>
      </trkpt>
      <trkpt lat="45.09469" lon="5.60266">
        <ele>1440</ele>
        <time>2010-06-06T09:08:29Z</time>
      </trkpt>
      <trkpt lat="45.09467" lon="5.60263">
        <ele>1440</ele>
        <time>2010-06-06T09:08:32Z</time>
      </trkpt>
      <trkpt lat="45.09465" lon="5.6026">
        <ele>1441</ele>
        <time>2010-06-06T09:08:34Z</time>
      </trkpt>
      <trkpt lat="45.09465" lon="5.60259">
        <ele>1441</ele>
        <time>2010-06-06T09:08:34Z</time>
      </trkpt>
      <trkpt lat="45.09464" lon="5.60257">
        <ele>1441</ele>
        <time>2010-06-06T09:08:35Z</time>
      </trkpt>
      <trkpt lat="45.09463" lon="5.60255">
        <ele>1441</ele>
        <time>2010-06-06T09:08:36Z</time>
      </trkpt>
      <trkpt lat="45.09462" lon="5.60253">
        <ele>1441</ele>
        <time>2010-06-06T09:08:37Z</time>
      </trkpt>
      <trkpt lat="45.09461" lon="5.60251">
        <ele>1441</ele>
        <time>2010-06-06T09:08:39Z</time>
      </trkpt>
      <trkpt lat="45.0946" lon="5.60248">
        <ele>1441</ele>
        <time>2010-06-06T09:08:39Z</time>
      </trkpt>
      <trkpt lat="45.09459" lon="5.60245">
        <ele>1441</ele>
        <time>2010-06-06T09:08:40Z</time>
      </trkpt>
      <trkpt lat="45.09458" lon="5.60243">
        <ele>1441</ele>
        <time>2010-06-06T09:08:41Z</time>
      </trkpt>
      <trkpt lat="45.09457" lon="5.6024">
        <ele>1441</ele>
        <time>2010-06-06T09:08:42Z</time>
      </trkpt>
      <trkpt lat="45.09457" lon="5.60237">
        <ele>1442</ele>
        <time>2010-06-06T09:08:44Z</time>
      </trkpt>
      <trkpt lat="45.09456" lon="5.60233">
        <ele>1442</ele>
        <time>2010-06-06T09:08:44Z</time>
      </trkpt>
      <trkpt lat="45.09456" lon="5.6023">
        <ele>1442</ele>
        <time>2010-06-06T09:08:45Z</time>
      </trkpt>
      <trkpt lat="45.09456" lon="5.60227">
        <ele>1443</ele>
        <time>2010-06-06T09:08:46Z</time>
      </trkpt>
      <trkpt lat="45.09455" lon="5.60223">
        <ele>1443</ele>
        <time>2010-06-06T09:08:47Z</time>
      </trkpt>
      <trkpt lat="45.09455" lon="5.6022">
        <ele>1444</ele>
        <time>2010-06-06T09:08:49Z</time>
      </trkpt>
      <trkpt lat="45.09455" lon="5.60217">
        <ele>1444</ele>
        <time>2010-06-06T09:08:49Z</time>
      </trkpt>
      <trkpt lat="45.09455" lon="5.60214">
        <ele>1444</ele>
        <time>2010-06-06T09:08:50Z</time>
      </trkpt>
      <trkpt lat="45.09454" lon="5.6021">
        <ele>1445</ele>
        <time>2010-06-06T09:08:51Z</time>
      </trkpt>
      <trkpt lat="45.09454" lon="5.60207">
        <ele>1445</ele>
        <time>2010-06-06T09:08:52Z</time>
      </trkpt>
      <trkpt lat="45.09453" lon="5.60204">
        <ele>1446</ele>
        <time>2010-06-06T09:08:54Z</time>
      </trkpt>
      <trkpt lat="45.09453" lon="5.602">
        <ele>1446</ele>
        <time>2010-06-06T09:08:54Z</time>
      </trkpt>
      <trkpt lat="45.09453" lon="5.60196">
        <ele>1446</ele>
        <time>2010-06-06T09:08:56Z</time>
      </trkpt>
      <trkpt lat="45.09453" lon="5.60193">
        <ele>1446</ele>
        <time>2010-06-06T09:08:56Z</time>
      </trkpt>
      <trkpt lat="45.09452" lon="5.60189">
        <ele>1447</ele>
        <time>2010-06-06T09:08:57Z</time>
      </trkpt>
      <trkpt lat="45.09452" lon="5.60186">
        <ele>1447</ele>
        <time>2010-06-06T09:08:59Z</time>
      </trkpt>
      <trkpt lat="45.09451" lon="5.60182">
        <ele>1448</ele>
        <time>2010-06-06T09:08:59Z</time>
      </trkpt>
      <trkpt lat="45.0945" lon="5.60179">
        <ele>1448</ele>
        <time>2010-06-06T09:09:00Z</time>
      </trkpt>
      <trkpt lat="45.09449" lon="5.60175">
        <ele>1448</ele>
        <time>2010-06-06T09:09:01Z</time>
      </trkpt>
      <trkpt lat="45.09448" lon="5.60172">
        <ele>1449</ele>
        <time>2010-06-06T09:09:02Z</time>
      </trkpt>
      <trkpt lat="45.09447" lon="5.60169">
        <ele>1449</ele>
        <time>2010-06-06T09:09:04Z</time>
      </trkpt>
      <trkpt lat="45.09445" lon="5.60166">
        <ele>1449</ele>
        <time>2010-06-06T09:09:04Z</time>
      </trkpt>
      <trkpt lat="45.09444" lon="5.60164">
        <ele>1450</ele>
        <time>2010-06-06T09:09:05Z</time>
      </trkpt>
      <trkpt lat="45.09442" lon="5.60163">
        <ele>1450</ele>
        <time>2010-06-06T09:09:06Z</time>
      </trkpt>
      <trkpt lat="45.0944" lon="5.60161">
        <ele>1450</ele>
        <time>2010-06-06T09:09:07Z</time>
      </trkpt>
      <trkpt lat="45.09438" lon="5.60161">
        <ele>1451</ele>
        <time>2010-06-06T09:09:09Z</time>
      </trkpt>
      <trkpt lat="45.09435" lon="5.6016">
        <ele>1451</ele>
        <time>2010-06-06T09:09:09Z</time>
      </trkpt>
      <trkpt lat="45.09433" lon="5.6016">
        <ele>1451</ele>
        <time>2010-06-06T09:09:10Z</time>
      </trkpt>
      <trkpt lat="45.0943" lon="5.6016">
        <ele>1451</ele>
        <time>2010-06-06T09:09:11Z</time>
      </trkpt>
      <trkpt lat="45.09428" lon="5.6016">
        <ele>1452</ele>
        <time>2010-06-06T09:09:12Z</time>
      </trkpt>
      <trkpt lat="45.09425" lon="5.6016">
        <ele>1452</ele>
        <time>2010-06-06T09:09:14Z</time>
      </trkpt>
      <trkpt lat="45.09422" lon="5.6016">
        <ele>1452</ele>
        <time>2010-06-06T09:09:14Z</time>
      </trkpt>
      <trkpt lat="45.0942" lon="5.6016">
        <ele>1452</ele>
        <time>2010-06-06T09:09:15Z</time>
      </trkpt>
      <trkpt lat="45.09417" lon="5.6016">
        <ele>1452</ele>
        <time>2010-06-06T09:09:16Z</time>
      </trkpt>
      <trkpt lat="45.09414" lon="5.60159">
        <ele>1452</ele>
        <time>2010-06-06T09:09:17Z</time>
      </trkpt>
      <trkpt lat="45.09412" lon="5.60157">
        <ele>1452</ele>
        <time>2010-06-06T09:09:19Z</time>
      </trkpt>
      <trkpt lat="45.09409" lon="5.60155">
        <ele>1452</ele>
        <time>2010-06-06T09:09:19Z</time>
      </trkpt>
      <trkpt lat="45.09407" lon="5.60153">
        <ele>1452</ele>
        <time>2010-06-06T09:09:20Z</time>
      </trkpt>
      <trkpt lat="45.09404" lon="5.60152">
        <ele>1452</ele>
        <time>2010-06-06T09:09:21Z</time>
      </trkpt>
      <trkpt lat="45.09401" lon="5.60151">
        <ele>1452</ele>
        <time>2010-06-06T09:09:22Z</time>
      </trkpt>
      <trkpt lat="45.09397" lon="5.60151">
        <ele>1452</ele>
        <time>2010-06-06T09:09:24Z</time>
      </trkpt>
      <trkpt lat="45.09394" lon="5.60151">
        <ele>1452</ele>
        <time>2010-06-06T09:09:24Z</time>
      </trkpt>
      <trkpt lat="45.09391" lon="5.6015">
        <ele>1452</ele>
        <time>2010-06-06T09:09:25Z</time>
      </trkpt>
      <trkpt lat="45.09389" lon="5.60148">
        <ele>1452</ele>
        <time>2010-06-06T09:09:26Z</time>
      </trkpt>
      <trkpt lat="45.09386" lon="5.60146">
        <ele>1452</ele>
        <time>2010-06-06T09:09:27Z</time>
      </trkpt>
      <trkpt lat="45.09384" lon="5.60145">
        <ele>1452</ele>
        <time>2010-06-06T09:09:28Z</time>
      </trkpt>
      <trkpt lat="45.0938" lon="5.60145">
        <ele>1452</ele>
        <time>2010-06-06T09:09:29Z</time>
      </trkpt>
      <trkpt lat="45.09377" lon="5.60144">
        <ele>1452</ele>
        <time>2010-06-06T09:09:30Z</time>
      </trkpt>
      <trkpt lat="45.09374" lon="5.60144">
        <ele>1452</ele>
        <time>2010-06-06T09:09:31Z</time>
      </trkpt>
      <trkpt lat="45.09371" lon="5.60143">
        <ele>1452</ele>
        <time>2010-06-06T09:09:32Z</time>
      </trkpt>
      <trkpt lat="45.09368" lon="5.60143">
        <ele>1452</ele>
        <time>2010-06-06T09:09:34Z</time>
      </trkpt>
      <trkpt lat="45.09365" lon="5.60142">
        <ele>1452</ele>
        <time>2010-06-06T09:09:34Z</time>
      </trkpt>
      <trkpt lat="45.09363" lon="5.6014">
        <ele>1452</ele>
        <time>2010-06-06T09:09:35Z</time>
      </trkpt>
      <trkpt lat="45.09359" lon="5.60136">
        <ele>1452</ele>
        <time>2010-06-06T09:09:36Z</time>
      </trkpt>
      <trkpt lat="45.09356" lon="5.60134">
        <ele>1452</ele>
        <time>2010-06-06T09:09:37Z</time>
      </trkpt>
      <trkpt lat="45.09352" lon="5.60134">
        <ele>1452</ele>
        <time>2010-06-06T09:09:39Z</time>
      </trkpt>
      <trkpt lat="45.09349" lon="5.60133">
        <ele>1452</ele>
        <time>2010-06-06T09:09:39Z</time>
      </trkpt>
      <trkpt lat="45.09346" lon="5.60131">
        <ele>1452</ele>
        <time>2010-06-06T09:09:40Z</time>
      </trkpt>
      <trkpt lat="45.09343" lon="5.6013">
        <ele>1452</ele>
        <time>2010-06-06T09:09:41Z</time>
      </trkpt>
      <trkpt lat="45.0934" lon="5.60128">
        <ele>1452</ele>
        <time>2010-06-06T09:09:42Z</time>
      </trkpt>
      <trkpt lat="45.09337" lon="5.60127">
        <ele>1452</ele>
        <time>2010-06-06T09:09:44Z</time>
      </trkpt>
      <trkpt lat="45.09334" lon="5.60126">
        <ele>1452</ele>
        <time>2010-06-06T09:09:44Z</time>
      </trkpt>
      <trkpt lat="45.09331" lon="5.60124">
        <ele>1451</ele>
        <time>2010-06-06T09:09:45Z</time>
      </trkpt>
      <trkpt lat="45.09327" lon="5.60123">
        <ele>1451</ele>
        <time>2010-06-06T09:09:46Z</time>
      </trkpt>
      <trkpt lat="45.09325" lon="5.60121">
        <ele>1451</ele>
        <time>2010-06-06T09:09:47Z</time>
      </trkpt>
      <trkpt lat="45.09322" lon="5.6012">
        <ele>1451</ele>
        <time>2010-06-06T09:09:48Z</time>
      </trkpt>
      <trkpt lat="45.09319" lon="5.60118">
        <ele>1451</ele>
        <time>2010-06-06T09:09:49Z</time>
      </trkpt>
      <trkpt lat="45.09315" lon="5.60117">
        <ele>1451</ele>
        <time>2010-06-06T09:09:51Z</time>
      </trkpt>
      <trkpt lat="45.09313" lon="5.60114">
        <ele>1451</ele>
        <time>2010-06-06T09:09:51Z</time>
      </trkpt>
      <trkpt lat="45.09311" lon="5.60113">
        <ele>1451</ele>
        <time>2010-06-06T09:09:52Z</time>
      </trkpt>
      <trkpt lat="45.09308" lon="5.60111">
        <ele>1451</ele>
        <time>2010-06-06T09:09:54Z</time>
      </trkpt>
      <trkpt lat="45.09306" lon="5.60109">
        <ele>1451</ele>
        <time>2010-06-06T09:09:54Z</time>
      </trkpt>
      <trkpt lat="45.09303" lon="5.60108">
        <ele>1451</ele>
        <time>2010-06-06T09:09:55Z</time>
      </trkpt>
      <trkpt lat="45.09301" lon="5.60106">
        <ele>1451</ele>
        <time>2010-06-06T09:09:57Z</time>
      </trkpt>
      <trkpt lat="45.09299" lon="5.60104">
        <ele>1451</ele>
        <time>2010-06-06T09:09:57Z</time>
      </trkpt>
      <trkpt lat="45.09296" lon="5.60102">
        <ele>1451</ele>
        <time>2010-06-06T09:09:59Z</time>
      </trkpt>
      <trkpt lat="45.09294" lon="5.601">
        <ele>1451</ele>
        <time>2010-06-06T09:09:59Z</time>
      </trkpt>
      <trkpt lat="45.09291" lon="5.60099">
        <ele>1451</ele>
        <time>2010-06-06T09:10:00Z</time>
      </trkpt>
      <trkpt lat="45.09289" lon="5.60098">
        <ele>1451</ele>
        <time>2010-06-06T09:10:01Z</time>
      </trkpt>
      <trkpt lat="45.09285" lon="5.60098">
        <ele>1451</ele>
        <time>2010-06-06T09:10:02Z</time>
      </trkpt>
      <trkpt lat="45.09282" lon="5.60099">
        <ele>1451</ele>
        <time>2010-06-06T09:10:04Z</time>
      </trkpt>
      <trkpt lat="45.09279" lon="5.60099">
        <ele>1451</ele>
        <time>2010-06-06T09:10:04Z</time>
      </trkpt>
      <trkpt lat="45.09276" lon="5.60099">
        <ele>1451</ele>
        <time>2010-06-06T09:10:05Z</time>
      </trkpt>
      <trkpt lat="45.09272" lon="5.60098">
        <ele>1451</ele>
        <time>2010-06-06T09:10:06Z</time>
      </trkpt>
      <trkpt lat="45.09269" lon="5.60097">
        <ele>1451</ele>
        <time>2010-06-06T09:10:07Z</time>
      </trkpt>
      <trkpt lat="45.09266" lon="5.60097">
        <ele>1451</ele>
        <time>2010-06-06T09:10:09Z</time>
      </trkpt>
      <trkpt lat="45.09263" lon="5.60096">
        <ele>1451</ele>
        <time>2010-06-06T09:10:09Z</time>
      </trkpt>
      <trkpt lat="45.09261" lon="5.60095">
        <ele>1451</ele>
        <time>2010-06-06T09:10:10Z</time>
      </trkpt>
      <trkpt lat="45.09258" lon="5.60094">
        <ele>1451</ele>
        <time>2010-06-06T09:10:11Z</time>
      </trkpt>
      <trkpt lat="45.09255" lon="5.60094">
        <ele>1451</ele>
        <time>2010-06-06T09:10:12Z</time>
      </trkpt>
      <trkpt lat="45.09252" lon="5.60093">
        <ele>1451</ele>
        <time>2010-06-06T09:10:13Z</time>
      </trkpt>
      <trkpt lat="45.09248" lon="5.60093">
        <ele>1451</ele>
        <time>2010-06-06T09:10:14Z</time>
      </trkpt>
      <trkpt lat="45.09245" lon="5.60094">
        <ele>1451</ele>
        <time>2010-06-06T09:10:15Z</time>
      </trkpt>
      <trkpt lat="45.09242" lon="5.60094">
        <ele>1451</ele>
        <time>2010-06-06T09:10:16Z</time>
      </trkpt>
      <trkpt lat="45.09239" lon="5.60094">
        <ele>1451</ele>
        <time>2010-06-06T09:10:17Z</time>
      </trkpt>
      <trkpt lat="45.09237" lon="5.60093">
        <ele>1451</ele>
        <time>2010-06-06T09:10:19Z</time>
      </trkpt>
      <trkpt lat="45.09235" lon="5.60092">
        <ele>1451</ele>
        <time>2010-06-06T09:10:19Z</time>
      </trkpt>
      <trkpt lat="45.09232" lon="5.60092">
        <ele>1451</ele>
        <time>2010-06-06T09:10:20Z</time>
      </trkpt>
      <trkpt lat="45.0923" lon="5.60092">
        <ele>1451</ele>
        <time>2010-06-06T09:10:21Z</time>
      </trkpt>
      <trkpt lat="45.09227" lon="5.60092">
        <ele>1451</ele>
        <time>2010-06-06T09:10:22Z</time>
      </trkpt>
      <trkpt lat="45.09224" lon="5.60092">
        <ele>1451</ele>
        <time>2010-06-06T09:10:23Z</time>
      </trkpt>
      <trkpt lat="45.09222" lon="5.60091">
        <ele>1451</ele>
        <time>2010-06-06T09:10:24Z</time>
      </trkpt>
      <trkpt lat="45.09219" lon="5.60091">
        <ele>1451</ele>
        <time>2010-06-06T09:10:25Z</time>
      </trkpt>
      <trkpt lat="45.09216" lon="5.60091">
        <ele>1450</ele>
        <time>2010-06-06T09:10:26Z</time>
      </trkpt>
      <trkpt lat="45.09213" lon="5.60092">
        <ele>1450</ele>
        <time>2010-06-06T09:10:27Z</time>
      </trkpt>
      <trkpt lat="45.09211" lon="5.60092">
        <ele>1450</ele>
        <time>2010-06-06T09:10:28Z</time>
      </trkpt>
      <trkpt lat="45.09208" lon="5.60092">
        <ele>1450</ele>
        <time>2010-06-06T09:10:29Z</time>
      </trkpt>
      <trkpt lat="45.09205" lon="5.60092">
        <ele>1450</ele>
        <time>2010-06-06T09:10:30Z</time>
      </trkpt>
      <trkpt lat="45.09203" lon="5.60092">
        <ele>1450</ele>
        <time>2010-06-06T09:10:31Z</time>
      </trkpt>
      <trkpt lat="45.092" lon="5.60092">
        <ele>1450</ele>
        <time>2010-06-06T09:10:32Z</time>
      </trkpt>
      <trkpt lat="45.09198" lon="5.60092">
        <ele>1450</ele>
        <time>2010-06-06T09:10:34Z</time>
      </trkpt>
      <trkpt lat="45.09195" lon="5.60092">
        <ele>1450</ele>
        <time>2010-06-06T09:10:34Z</time>
      </trkpt>
      <trkpt lat="45.09192" lon="5.60092">
        <ele>1450</ele>
        <time>2010-06-06T09:10:35Z</time>
      </trkpt>
      <trkpt lat="45.0919" lon="5.60092">
        <ele>1450</ele>
        <time>2010-06-06T09:10:36Z</time>
      </trkpt>
      <trkpt lat="45.09189" lon="5.60093">
        <ele>1450</ele>
        <time>2010-06-06T09:10:37Z</time>
      </trkpt>
      <trkpt lat="45.09186" lon="5.60095">
        <ele>1450</ele>
        <time>2010-06-06T09:10:39Z</time>
      </trkpt>
      <trkpt lat="45.09183" lon="5.60096">
        <ele>1450</ele>
        <time>2010-06-06T09:10:39Z</time>
      </trkpt>
      <trkpt lat="45.09181" lon="5.60098">
        <ele>1450</ele>
        <time>2010-06-06T09:10:40Z</time>
      </trkpt>
      <trkpt lat="45.09179" lon="5.60101">
        <ele>1450</ele>
        <time>2010-06-06T09:10:41Z</time>
      </trkpt>
      <trkpt lat="45.09177" lon="5.60103">
        <ele>1450</ele>
        <time>2010-06-06T09:10:42Z</time>
      </trkpt>
      <trkpt lat="45.09175" lon="5.60105">
        <ele>1450</ele>
        <time>2010-06-06T09:10:44Z</time>
      </trkpt>
      <trkpt lat="45.09173" lon="5.60106">
        <ele>1450</ele>
        <time>2010-06-06T09:10:44Z</time>
      </trkpt>
      <trkpt lat="45.0917" lon="5.60108">
        <ele>1450</ele>
        <time>2010-06-06T09:10:45Z</time>
      </trkpt>
      <trkpt lat="45.09167" lon="5.60109">
        <ele>1450</ele>
        <time>2010-06-06T09:10:46Z</time>
      </trkpt>
      <trkpt lat="45.09164" lon="5.60111">
        <ele>1450</ele>
        <time>2010-06-06T09:10:47Z</time>
      </trkpt>
      <trkpt lat="45.09161" lon="5.60112">
        <ele>1450</ele>
        <time>2010-06-06T09:10:49Z</time>
      </trkpt>
      <trkpt lat="45.09159" lon="5.60115">
        <ele>1450</ele>
        <time>2010-06-06T09:10:49Z</time>
      </trkpt>
      <trkpt lat="45.09156" lon="5.60117">
        <ele>1450</ele>
        <time>2010-06-06T09:10:50Z</time>
      </trkpt>
      <trkpt lat="45.09154" lon="5.60119">
        <ele>1450</ele>
        <time>2010-06-06T09:10:51Z</time>
      </trkpt>
      <trkpt lat="45.09153" lon="5.60122">
        <ele>1450</ele>
        <time>2010-06-06T09:10:52Z</time>
      </trkpt>
      <trkpt lat="45.09151" lon="5.60125">
        <ele>1450</ele>
        <time>2010-06-06T09:10:54Z</time>
      </trkpt>
      <trkpt lat="45.09149" lon="5.60128">
        <ele>1450</ele>
        <time>2010-06-06T09:10:54Z</time>
      </trkpt>
      <trkpt lat="45.09148" lon="5.6013">
        <ele>1450</ele>
        <time>2010-06-06T09:10:55Z</time>
      </trkpt>
      <trkpt lat="45.09146" lon="5.60134">
        <ele>1450</ele>
        <time>2010-06-06T09:10:56Z</time>
      </trkpt>
      <trkpt lat="45.09144" lon="5.60136">
        <ele>1450</ele>
        <time>2010-06-06T09:10:57Z</time>
      </trkpt>
      <trkpt lat="45.09142" lon="5.60138">
        <ele>1450</ele>
        <time>2010-06-06T09:10:58Z</time>
      </trkpt>
      <trkpt lat="45.0914" lon="5.60139">
        <ele>1450</ele>
        <time>2010-06-06T09:10:59Z</time>
      </trkpt>
      <trkpt lat="45.09137" lon="5.6014">
        <ele>1450</ele>
        <time>2010-06-06T09:11:00Z</time>
      </trkpt>
      <trkpt lat="45.09134" lon="5.6014">
        <ele>1450</ele>
        <time>2010-06-06T09:11:01Z</time>
      </trkpt>
      <trkpt lat="45.09131" lon="5.6014">
        <ele>1450</ele>
        <time>2010-06-06T09:11:02Z</time>
      </trkpt>
      <trkpt lat="45.09128" lon="5.60139">
        <ele>1450</ele>
        <time>2010-06-06T09:11:03Z</time>
      </trkpt>
      <trkpt lat="45.09125" lon="5.6014">
        <ele>1450</ele>
        <time>2010-06-06T09:11:04Z</time>
      </trkpt>
      <trkpt lat="45.09122" lon="5.6014">
        <ele>1450</ele>
        <time>2010-06-06T09:11:05Z</time>
      </trkpt>
      <trkpt lat="45.0912" lon="5.60139">
        <ele>1450</ele>
        <time>2010-06-06T09:11:06Z</time>
      </trkpt>
      <trkpt lat="45.09117" lon="5.60139">
        <ele>1450</ele>
        <time>2010-06-06T09:11:07Z</time>
      </trkpt>
      <trkpt lat="45.09114" lon="5.60139">
        <ele>1450</ele>
        <time>2010-06-06T09:11:08Z</time>
      </trkpt>
      <trkpt lat="45.09111" lon="5.60139">
        <ele>1450</ele>
        <time>2010-06-06T09:11:09Z</time>
      </trkpt>
      <trkpt lat="45.09109" lon="5.60141">
        <ele>1450</ele>
        <time>2010-06-06T09:11:10Z</time>
      </trkpt>
      <trkpt lat="45.09106" lon="5.60142">
        <ele>1450</ele>
        <time>2010-06-06T09:11:11Z</time>
      </trkpt>
      <trkpt lat="45.09104" lon="5.60144">
        <ele>1450</ele>
        <time>2010-06-06T09:11:12Z</time>
      </trkpt>
      <trkpt lat="45.09103" lon="5.60146">
        <ele>1450</ele>
        <time>2010-06-06T09:11:14Z</time>
      </trkpt>
      <trkpt lat="45.09101" lon="5.60149">
        <ele>1450</ele>
        <time>2010-06-06T09:11:14Z</time>
      </trkpt>
      <trkpt lat="45.09099" lon="5.6015">
        <ele>1450</ele>
        <time>2010-06-06T09:11:15Z</time>
      </trkpt>
      <trkpt lat="45.09098" lon="5.60153">
        <ele>1450</ele>
        <time>2010-06-06T09:11:16Z</time>
      </trkpt>
      <trkpt lat="45.09097" lon="5.60156">
        <ele>1450</ele>
        <time>2010-06-06T09:11:17Z</time>
      </trkpt>
      <trkpt lat="45.09096" lon="5.60158">
        <ele>1451</ele>
        <time>2010-06-06T09:11:18Z</time>
      </trkpt>
      <trkpt lat="45.09094" lon="5.60161">
        <ele>1451</ele>
        <time>2010-06-06T09:11:19Z</time>
      </trkpt>
      <trkpt lat="45.09092" lon="5.60165">
        <ele>1452</ele>
        <time>2010-06-06T09:11:20Z</time>
      </trkpt>
      <trkpt lat="45.0909" lon="5.60167">
        <ele>1453</ele>
        <time>2010-06-06T09:11:21Z</time>
      </trkpt>
      <trkpt lat="45.09089" lon="5.60171">
        <ele>1454</ele>
        <time>2010-06-06T09:11:22Z</time>
      </trkpt>
      <trkpt lat="45.09088" lon="5.60175">
        <ele>1455</ele>
        <time>2010-06-06T09:11:23Z</time>
      </trkpt>
      <trkpt lat="45.09087" lon="5.60178">
        <ele>1456</ele>
        <time>2010-06-06T09:11:24Z</time>
      </trkpt>
      <trkpt lat="45.09085" lon="5.60181">
        <ele>1457</ele>
        <time>2010-06-06T09:11:25Z</time>
      </trkpt>
      <trkpt lat="45.09084" lon="5.60184">
        <ele>1458</ele>
        <time>2010-06-06T09:11:26Z</time>
      </trkpt>
      <trkpt lat="45.09083" lon="5.60186">
        <ele>1459</ele>
        <time>2010-06-06T09:11:27Z</time>
      </trkpt>
      <trkpt lat="45.09082" lon="5.60188">
        <ele>1460</ele>
        <time>2010-06-06T09:11:28Z</time>
      </trkpt>
      <trkpt lat="45.09081" lon="5.60191">
        <ele>1461</ele>
        <time>2010-06-06T09:11:29Z</time>
      </trkpt>
      <trkpt lat="45.09079" lon="5.60193">
        <ele>1461</ele>
        <time>2010-06-06T09:11:30Z</time>
      </trkpt>
      <trkpt lat="45.09077" lon="5.60197">
        <ele>1461</ele>
        <time>2010-06-06T09:11:31Z</time>
      </trkpt>
      <trkpt lat="45.09074" lon="5.60201">
        <ele>1461</ele>
        <time>2010-06-06T09:11:32Z</time>
      </trkpt>
      <trkpt lat="45.09071" lon="5.60205">
        <ele>1461</ele>
        <time>2010-06-06T09:11:33Z</time>
      </trkpt>
      <trkpt lat="45.09067" lon="5.6021">
        <ele>1461</ele>
        <time>2010-06-06T09:11:34Z</time>
      </trkpt>
      <trkpt lat="45.09064" lon="5.60213">
        <ele>1462</ele>
        <time>2010-06-06T09:11:35Z</time>
      </trkpt>
      <trkpt lat="45.09062" lon="5.60216">
        <ele>1462</ele>
        <time>2010-06-06T09:11:36Z</time>
      </trkpt>
      <trkpt lat="45.09058" lon="5.60219">
        <ele>1463</ele>
        <time>2010-06-06T09:11:38Z</time>
      </trkpt>
      <trkpt lat="45.09056" lon="5.60221">
        <ele>1463</ele>
        <time>2010-06-06T09:11:39Z</time>
      </trkpt>
      <trkpt lat="45.09054" lon="5.60222">
        <ele>1463</ele>
        <time>2010-06-06T09:11:40Z</time>
      </trkpt>
      <trkpt lat="45.09053" lon="5.60224">
        <ele>1463</ele>
        <time>2010-06-06T09:11:41Z</time>
      </trkpt>
      <trkpt lat="45.09051" lon="5.60227">
        <ele>1463</ele>
        <time>2010-06-06T09:11:42Z</time>
      </trkpt>
      <trkpt lat="45.09049" lon="5.6023">
        <ele>1463</ele>
        <time>2010-06-06T09:11:43Z</time>
      </trkpt>
      <trkpt lat="45.09047" lon="5.60231">
        <ele>1463</ele>
        <time>2010-06-06T09:11:44Z</time>
      </trkpt>
      <trkpt lat="45.09045" lon="5.60232">
        <ele>1463</ele>
        <time>2010-06-06T09:11:45Z</time>
      </trkpt>
      <trkpt lat="45.09043" lon="5.60233">
        <ele>1463</ele>
        <time>2010-06-06T09:11:46Z</time>
      </trkpt>
      <trkpt lat="45.0904" lon="5.60234">
        <ele>1463</ele>
        <time>2010-06-06T09:11:47Z</time>
      </trkpt>
      <trkpt lat="45.09039" lon="5.60235">
        <ele>1463</ele>
        <time>2010-06-06T09:11:48Z</time>
      </trkpt>
      <trkpt lat="45.09036" lon="5.60236">
        <ele>1463</ele>
        <time>2010-06-06T09:11:49Z</time>
      </trkpt>
      <trkpt lat="45.09034" lon="5.60236">
        <ele>1463</ele>
        <time>2010-06-06T09:11:50Z</time>
      </trkpt>
      <trkpt lat="45.09032" lon="5.60236">
        <ele>1464</ele>
        <time>2010-06-06T09:11:51Z</time>
      </trkpt>
      <trkpt lat="45.0903" lon="5.60236">
        <ele>1464</ele>
        <time>2010-06-06T09:11:52Z</time>
      </trkpt>
      <trkpt lat="45.09027" lon="5.60238">
        <ele>1465</ele>
        <time>2010-06-06T09:11:53Z</time>
      </trkpt>
      <trkpt lat="45.09024" lon="5.60239">
        <ele>1465</ele>
        <time>2010-06-06T09:11:54Z</time>
      </trkpt>
      <trkpt lat="45.09022" lon="5.6024">
        <ele>1466</ele>
        <time>2010-06-06T09:11:55Z</time>
      </trkpt>
      <trkpt lat="45.09019" lon="5.60241">
        <ele>1467</ele>
        <time>2010-06-06T09:11:56Z</time>
      </trkpt>
      <trkpt lat="45.09016" lon="5.60242">
        <ele>1468</ele>
        <time>2010-06-06T09:11:57Z</time>
      </trkpt>
      <trkpt lat="45.09014" lon="5.60242">
        <ele>1468</ele>
        <time>2010-06-06T09:11:58Z</time>
      </trkpt>
      <trkpt lat="45.09012" lon="5.60243">
        <ele>1468</ele>
        <time>2010-06-06T09:11:59Z</time>
      </trkpt>
      <trkpt lat="45.09009" lon="5.60243">
        <ele>1469</ele>
        <time>2010-06-06T09:12:00Z</time>
      </trkpt>
      <trkpt lat="45.09007" lon="5.60242">
        <ele>1469</ele>
        <time>2010-06-06T09:12:01Z</time>
      </trkpt>
      <trkpt lat="45.09005" lon="5.60242">
        <ele>1469</ele>
        <time>2010-06-06T09:12:02Z</time>
      </trkpt>
      <trkpt lat="45.09002" lon="5.60242">
        <ele>1470</ele>
        <time>2010-06-06T09:12:03Z</time>
      </trkpt>
      <trkpt lat="45.08999" lon="5.60243">
        <ele>1470</ele>
        <time>2010-06-06T09:12:04Z</time>
      </trkpt>
      <trkpt lat="45.08997" lon="5.60243">
        <ele>1470</ele>
        <time>2010-06-06T09:12:05Z</time>
      </trkpt>
      <trkpt lat="45.08995" lon="5.60243">
        <ele>1470</ele>
        <time>2010-06-06T09:12:06Z</time>
      </trkpt>
      <trkpt lat="45.08993" lon="5.60242">
        <ele>1470</ele>
        <time>2010-06-06T09:12:07Z</time>
      </trkpt>
      <trkpt lat="45.08991" lon="5.6024">
        <ele>1470</ele>
        <time>2010-06-06T09:12:08Z</time>
      </trkpt>
      <trkpt lat="45.08989" lon="5.60239">
        <ele>1471</ele>
        <time>2010-06-06T09:12:09Z</time>
      </trkpt>
      <trkpt lat="45.08987" lon="5.60238">
        <ele>1471</ele>
        <time>2010-06-06T09:12:10Z</time>
      </trkpt>
      <trkpt lat="45.08984" lon="5.60239">
        <ele>1472</ele>
        <time>2010-06-06T09:12:11Z</time>
      </trkpt>
      <trkpt lat="45.08982" lon="5.60239">
        <ele>1473</ele>
        <time>2010-06-06T09:12:12Z</time>
      </trkpt>
      <trkpt lat="45.0898" lon="5.6024">
        <ele>1473</ele>
        <time>2010-06-06T09:12:13Z</time>
      </trkpt>
      <trkpt lat="45.08978" lon="5.6024">
        <ele>1473</ele>
        <time>2010-06-06T09:12:14Z</time>
      </trkpt>
      <trkpt lat="45.08975" lon="5.6024">
        <ele>1473</ele>
        <time>2010-06-06T09:12:15Z</time>
      </trkpt>
      <trkpt lat="45.08974" lon="5.60241">
        <ele>1473</ele>
        <time>2010-06-06T09:12:16Z</time>
      </trkpt>
      <trkpt lat="45.08972" lon="5.60242">
        <ele>1473</ele>
        <time>2010-06-06T09:12:17Z</time>
      </trkpt>
      <trkpt lat="45.08971" lon="5.60243">
        <ele>1473</ele>
        <time>2010-06-06T09:12:18Z</time>
      </trkpt>
      <trkpt lat="45.08968" lon="5.60244">
        <ele>1473</ele>
        <time>2010-06-06T09:12:19Z</time>
      </trkpt>
      <trkpt lat="45.08966" lon="5.60244">
        <ele>1473</ele>
        <time>2010-06-06T09:12:20Z</time>
      </trkpt>
      <trkpt lat="45.08964" lon="5.60244">
        <ele>1473</ele>
        <time>2010-06-06T09:12:21Z</time>
      </trkpt>
      <trkpt lat="45.08962" lon="5.60244">
        <ele>1473</ele>
        <time>2010-06-06T09:12:22Z</time>
      </trkpt>
      <trkpt lat="45.08961" lon="5.60244">
        <ele>1473</ele>
        <time>2010-06-06T09:12:23Z</time>
      </trkpt>
      <trkpt lat="45.0896" lon="5.60245">
        <ele>1473</ele>
        <time>2010-06-06T09:12:24Z</time>
      </trkpt>
      <trkpt lat="45.08958" lon="5.60247">
        <ele>1473</ele>
        <time>2010-06-06T09:12:25Z</time>
      </trkpt>
      <trkpt lat="45.08957" lon="5.6025">
        <ele>1473</ele>
        <time>2010-06-06T09:12:26Z</time>
      </trkpt>
      <trkpt lat="45.08955" lon="5.60251">
        <ele>1473</ele>
        <time>2010-06-06T09:12:27Z</time>
      </trkpt>
      <trkpt lat="45.08954" lon="5.60251">
        <ele>1473</ele>
        <time>2010-06-06T09:12:28Z</time>
      </trkpt>
      <trkpt lat="45.08952" lon="5.60253">
        <ele>1473</ele>
        <time>2010-06-06T09:12:29Z</time>
      </trkpt>
      <trkpt lat="45.0895" lon="5.60254">
        <ele>1473</ele>
        <time>2010-06-06T09:12:30Z</time>
      </trkpt>
      <trkpt lat="45.08949" lon="5.60255">
        <ele>1473</ele>
        <time>2010-06-06T09:12:31Z</time>
      </trkpt>
      <trkpt lat="45.08947" lon="5.60257">
        <ele>1473</ele>
        <time>2010-06-06T09:12:32Z</time>
      </trkpt>
      <trkpt lat="45.08945" lon="5.60258">
        <ele>1473</ele>
        <time>2010-06-06T09:12:33Z</time>
      </trkpt>
      <trkpt lat="45.08942" lon="5.60258">
        <ele>1473</ele>
        <time>2010-06-06T09:12:34Z</time>
      </trkpt>
      <trkpt lat="45.08939" lon="5.60259">
        <ele>1473</ele>
        <time>2010-06-06T09:12:35Z</time>
      </trkpt>
      <trkpt lat="45.08936" lon="5.60259">
        <ele>1473</ele>
        <time>2010-06-06T09:12:36Z</time>
      </trkpt>
      <trkpt lat="45.08934" lon="5.60259">
        <ele>1473</ele>
        <time>2010-06-06T09:12:37Z</time>
      </trkpt>
      <trkpt lat="45.08932" lon="5.60257">
        <ele>1473</ele>
        <time>2010-06-06T09:12:38Z</time>
      </trkpt>
      <trkpt lat="45.08929" lon="5.60256">
        <ele>1473</ele>
        <time>2010-06-06T09:12:39Z</time>
      </trkpt>
      <trkpt lat="45.08927" lon="5.60254">
        <ele>1473</ele>
        <time>2010-06-06T09:12:40Z</time>
      </trkpt>
      <trkpt lat="45.08925" lon="5.60252">
        <ele>1473</ele>
        <time>2010-06-06T09:12:41Z</time>
      </trkpt>
      <trkpt lat="45.08924" lon="5.60251">
        <ele>1473</ele>
        <time>2010-06-06T09:12:42Z</time>
      </trkpt>
      <trkpt lat="45.08922" lon="5.60249">
        <ele>1473</ele>
        <time>2010-06-06T09:12:44Z</time>
      </trkpt>
      <trkpt lat="45.0892" lon="5.60247">
        <ele>1473</ele>
        <time>2010-06-06T09:12:45Z</time>
      </trkpt>
      <trkpt lat="45.08919" lon="5.60244">
        <ele>1473</ele>
        <time>2010-06-06T09:12:46Z</time>
      </trkpt>
      <trkpt lat="45.08917" lon="5.60242">
        <ele>1473</ele>
        <time>2010-06-06T09:12:47Z</time>
      </trkpt>
      <trkpt lat="45.08915" lon="5.60242">
        <ele>1473</ele>
        <time>2010-06-06T09:12:48Z</time>
      </trkpt>
      <trkpt lat="45.08913" lon="5.60242">
        <ele>1473</ele>
        <time>2010-06-06T09:12:49Z</time>
      </trkpt>
      <trkpt lat="45.08911" lon="5.60242">
        <ele>1473</ele>
        <time>2010-06-06T09:12:50Z</time>
      </trkpt>
      <trkpt lat="45.08909" lon="5.60243">
        <ele>1473</ele>
        <time>2010-06-06T09:12:51Z</time>
      </trkpt>
      <trkpt lat="45.08908" lon="5.60243">
        <ele>1473</ele>
        <time>2010-06-06T09:12:52Z</time>
      </trkpt>
      <trkpt lat="45.08906" lon="5.60244">
        <ele>1474</ele>
        <time>2010-06-06T09:12:53Z</time>
      </trkpt>
      <trkpt lat="45.08905" lon="5.60246">
        <ele>1475</ele>
        <time>2010-06-06T09:12:54Z</time>
      </trkpt>
      <trkpt lat="45.08904" lon="5.60248">
        <ele>1476</ele>
        <time>2010-06-06T09:12:55Z</time>
      </trkpt>
      <trkpt lat="45.08902" lon="5.6025">
        <ele>1476</ele>
        <time>2010-06-06T09:12:56Z</time>
      </trkpt>
      <trkpt lat="45.089" lon="5.60252">
        <ele>1476</ele>
        <time>2010-06-06T09:12:57Z</time>
      </trkpt>
      <trkpt lat="45.08898" lon="5.60252">
        <ele>1476</ele>
        <time>2010-06-06T09:12:58Z</time>
      </trkpt>
      <trkpt lat="45.08896" lon="5.60253">
        <ele>1476</ele>
        <time>2010-06-06T09:12:59Z</time>
      </trkpt>
      <trkpt lat="45.08894" lon="5.60254">
        <ele>1476</ele>
        <time>2010-06-06T09:13:00Z</time>
      </trkpt>
      <trkpt lat="45.08892" lon="5.60254">
        <ele>1476</ele>
        <time>2010-06-06T09:13:01Z</time>
      </trkpt>
      <trkpt lat="45.08891" lon="5.60255">
        <ele>1476</ele>
        <time>2010-06-06T09:13:02Z</time>
      </trkpt>
      <trkpt lat="45.08889" lon="5.60255">
        <ele>1477</ele>
        <time>2010-06-06T09:13:03Z</time>
      </trkpt>
      <trkpt lat="45.08888" lon="5.60256">
        <ele>1477</ele>
        <time>2010-06-06T09:13:04Z</time>
      </trkpt>
      <trkpt lat="45.08887" lon="5.60258">
        <ele>1478</ele>
        <time>2010-06-06T09:13:05Z</time>
      </trkpt>
      <trkpt lat="45.08885" lon="5.60259">
        <ele>1479</ele>
        <time>2010-06-06T09:13:06Z</time>
      </trkpt>
      <trkpt lat="45.08883" lon="5.60259">
        <ele>1479</ele>
        <time>2010-06-06T09:13:07Z</time>
      </trkpt>
      <trkpt lat="45.08882" lon="5.6026">
        <ele>1479</ele>
        <time>2010-06-06T09:13:08Z</time>
      </trkpt>
      <trkpt lat="45.08881" lon="5.6026">
        <ele>1479</ele>
        <time>2010-06-06T09:13:09Z</time>
      </trkpt>
      <trkpt lat="45.0888" lon="5.60261">
        <ele>1479</ele>
        <time>2010-06-06T09:13:10Z</time>
      </trkpt>
      <trkpt lat="45.08878" lon="5.60262">
        <ele>1479</ele>
        <time>2010-06-06T09:13:11Z</time>
      </trkpt>
      <trkpt lat="45.08876" lon="5.60263">
        <ele>1479</ele>
        <time>2010-06-06T09:13:12Z</time>
      </trkpt>
      <trkpt lat="45.08874" lon="5.60265">
        <ele>1479</ele>
        <time>2010-06-06T09:13:13Z</time>
      </trkpt>
      <trkpt lat="45.08872" lon="5.60266">
        <ele>1479</ele>
        <time>2010-06-06T09:13:14Z</time>
      </trkpt>
      <trkpt lat="45.0887" lon="5.60268">
        <ele>1479</ele>
        <time>2010-06-06T09:13:15Z</time>
      </trkpt>
      <trkpt lat="45.08868" lon="5.60271">
        <ele>1479</ele>
        <time>2010-06-06T09:13:16Z</time>
      </trkpt>
      <trkpt lat="45.08866" lon="5.60272">
        <ele>1479</ele>
        <time>2010-06-06T09:13:17Z</time>
      </trkpt>
      <trkpt lat="45.08865" lon="5.60274">
        <ele>1479</ele>
        <time>2010-06-06T09:13:18Z</time>
      </trkpt>
      <trkpt lat="45.08862" lon="5.60275">
        <ele>1479</ele>
        <time>2010-06-06T09:13:19Z</time>
      </trkpt>
      <trkpt lat="45.0886" lon="5.60275">
        <ele>1479</ele>
        <time>2010-06-06T09:13:20Z</time>
      </trkpt>
      <trkpt lat="45.08858" lon="5.60275">
        <ele>1480</ele>
        <time>2010-06-06T09:13:21Z</time>
      </trkpt>
      <trkpt lat="45.08856" lon="5.60275">
        <ele>1480</ele>
        <time>2010-06-06T09:13:22Z</time>
      </trkpt>
      <trkpt lat="45.08854" lon="5.60275">
        <ele>1480</ele>
        <time>2010-06-06T09:13:23Z</time>
      </trkpt>
      <trkpt lat="45.08852" lon="5.60275">
        <ele>1481</ele>
        <time>2010-06-06T09:13:24Z</time>
      </trkpt>
      <trkpt lat="45.0885" lon="5.60275">
        <ele>1481</ele>
        <time>2010-06-06T09:13:25Z</time>
      </trkpt>
      <trkpt lat="45.08849" lon="5.60276">
        <ele>1481</ele>
        <time>2010-06-06T09:13:26Z</time>
      </trkpt>
      <trkpt lat="45.08847" lon="5.60279">
        <ele>1482</ele>
        <time>2010-06-06T09:13:28Z</time>
      </trkpt>
      <trkpt lat="45.08846" lon="5.60282">
        <ele>1483</ele>
        <time>2010-06-06T09:13:30Z</time>
      </trkpt>
      <trkpt lat="45.08845" lon="5.60284">
        <ele>1483</ele>
        <time>2010-06-06T09:13:31Z</time>
      </trkpt>
      <trkpt lat="45.08844" lon="5.60287">
        <ele>1483</ele>
        <time>2010-06-06T09:13:32Z</time>
      </trkpt>
      <trkpt lat="45.08843" lon="5.6029">
        <ele>1483</ele>
        <time>2010-06-06T09:13:33Z</time>
      </trkpt>
      <trkpt lat="45.08843" lon="5.60293">
        <ele>1483</ele>
        <time>2010-06-06T09:13:34Z</time>
      </trkpt>
      <trkpt lat="45.08843" lon="5.60294">
        <ele>1483</ele>
        <time>2010-06-06T09:13:35Z</time>
      </trkpt>
      <trkpt lat="45.08842" lon="5.60296">
        <ele>1483</ele>
        <time>2010-06-06T09:13:36Z</time>
      </trkpt>
      <trkpt lat="45.08842" lon="5.60298">
        <ele>1483</ele>
        <time>2010-06-06T09:13:37Z</time>
      </trkpt>
      <trkpt lat="45.08843" lon="5.60301">
        <ele>1484</ele>
        <time>2010-06-06T09:13:38Z</time>
      </trkpt>
      <trkpt lat="45.08843" lon="5.60303">
        <ele>1484</ele>
        <time>2010-06-06T09:13:39Z</time>
      </trkpt>
      <trkpt lat="45.08843" lon="5.60306">
        <ele>1484</ele>
        <time>2010-06-06T09:13:40Z</time>
      </trkpt>
      <trkpt lat="45.08843" lon="5.60308">
        <ele>1484</ele>
        <time>2010-06-06T09:13:41Z</time>
      </trkpt>
      <trkpt lat="45.08842" lon="5.60311">
        <ele>1484</ele>
        <time>2010-06-06T09:13:42Z</time>
      </trkpt>
      <trkpt lat="45.08842" lon="5.60313">
        <ele>1485</ele>
        <time>2010-06-06T09:13:43Z</time>
      </trkpt>
      <trkpt lat="45.08841" lon="5.60316">
        <ele>1485</ele>
        <time>2010-06-06T09:13:44Z</time>
      </trkpt>
      <trkpt lat="45.08841" lon="5.60319">
        <ele>1486</ele>
        <time>2010-06-06T09:13:45Z</time>
      </trkpt>
      <trkpt lat="45.08841" lon="5.60322">
        <ele>1486</ele>
        <time>2010-06-06T09:13:46Z</time>
      </trkpt>
      <trkpt lat="45.08841" lon="5.60325">
        <ele>1487</ele>
        <time>2010-06-06T09:13:47Z</time>
      </trkpt>
      <trkpt lat="45.08841" lon="5.60329">
        <ele>1488</ele>
        <time>2010-06-06T09:13:48Z</time>
      </trkpt>
      <trkpt lat="45.08841" lon="5.60332">
        <ele>1489</ele>
        <time>2010-06-06T09:13:49Z</time>
      </trkpt>
      <trkpt lat="45.08841" lon="5.60334">
        <ele>1489</ele>
        <time>2010-06-06T09:13:50Z</time>
      </trkpt>
      <trkpt lat="45.0884" lon="5.60337">
        <ele>1490</ele>
        <time>2010-06-06T09:13:51Z</time>
      </trkpt>
      <trkpt lat="45.08839" lon="5.60339">
        <ele>1490</ele>
        <time>2010-06-06T09:13:52Z</time>
      </trkpt>
      <trkpt lat="45.08838" lon="5.60341">
        <ele>1490</ele>
        <time>2010-06-06T09:13:53Z</time>
      </trkpt>
      <trkpt lat="45.08838" lon="5.60344">
        <ele>1491</ele>
        <time>2010-06-06T09:13:54Z</time>
      </trkpt>
      <trkpt lat="45.08837" lon="5.60347">
        <ele>1491</ele>
        <time>2010-06-06T09:13:55Z</time>
      </trkpt>
      <trkpt lat="45.08836" lon="5.6035">
        <ele>1491</ele>
        <time>2010-06-06T09:13:56Z</time>
      </trkpt>
      <trkpt lat="45.08836" lon="5.60353">
        <ele>1492</ele>
        <time>2010-06-06T09:13:57Z</time>
      </trkpt>
      <trkpt lat="45.08835" lon="5.60355">
        <ele>1492</ele>
        <time>2010-06-06T09:13:58Z</time>
      </trkpt>
      <trkpt lat="45.08835" lon="5.60357">
        <ele>1492</ele>
        <time>2010-06-06T09:13:59Z</time>
      </trkpt>
      <trkpt lat="45.08834" lon="5.60359">
        <ele>1492</ele>
        <time>2010-06-06T09:14:00Z</time>
      </trkpt>
      <trkpt lat="45.08833" lon="5.60362">
        <ele>1493</ele>
        <time>2010-06-06T09:14:01Z</time>
      </trkpt>
      <trkpt lat="45.08833" lon="5.60365">
        <ele>1493</ele>
        <time>2010-06-06T09:14:02Z</time>
      </trkpt>
      <trkpt lat="45.08832" lon="5.60369">
        <ele>1493</ele>
        <time>2010-06-06T09:14:03Z</time>
      </trkpt>
      <trkpt lat="45.08831" lon="5.60371">
        <ele>1493</ele>
        <time>2010-06-06T09:14:04Z</time>
      </trkpt>
      <trkpt lat="45.08829" lon="5.60374">
        <ele>1493</ele>
        <time>2010-06-06T09:14:05Z</time>
      </trkpt>
      <trkpt lat="45.08828" lon="5.60377">
        <ele>1493</ele>
        <time>2010-06-06T09:14:06Z</time>
      </trkpt>
      <trkpt lat="45.08828" lon="5.60379">
        <ele>1493</ele>
        <time>2010-06-06T09:14:07Z</time>
      </trkpt>
      <trkpt lat="45.08827" lon="5.60381">
        <ele>1493</ele>
        <time>2010-06-06T09:14:08Z</time>
      </trkpt>
      <trkpt lat="45.08826" lon="5.60383">
        <ele>1493</ele>
        <time>2010-06-06T09:14:09Z</time>
      </trkpt>
      <trkpt lat="45.08825" lon="5.60385">
        <ele>1493</ele>
        <time>2010-06-06T09:14:10Z</time>
      </trkpt>
      <trkpt lat="45.08824" lon="5.60388">
        <ele>1493</ele>
        <time>2010-06-06T09:14:11Z</time>
      </trkpt>
      <trkpt lat="45.08823" lon="5.6039">
        <ele>1493</ele>
        <time>2010-06-06T09:14:12Z</time>
      </trkpt>
      <trkpt lat="45.08822" lon="5.60392">
        <ele>1493</ele>
        <time>2010-06-06T09:14:13Z</time>
      </trkpt>
      <trkpt lat="45.08821" lon="5.60394">
        <ele>1493</ele>
        <time>2010-06-06T09:14:14Z</time>
      </trkpt>
      <trkpt lat="45.0882" lon="5.60396">
        <ele>1493</ele>
        <time>2010-06-06T09:14:15Z</time>
      </trkpt>
      <trkpt lat="45.08819" lon="5.60397">
        <ele>1494</ele>
        <time>2010-06-06T09:14:16Z</time>
      </trkpt>
      <trkpt lat="45.08818" lon="5.60399">
        <ele>1494</ele>
        <time>2010-06-06T09:14:17Z</time>
      </trkpt>
      <trkpt lat="45.08817" lon="5.60402">
        <ele>1494</ele>
        <time>2010-06-06T09:14:18Z</time>
      </trkpt>
      <trkpt lat="45.08817" lon="5.60404">
        <ele>1494</ele>
        <time>2010-06-06T09:14:19Z</time>
      </trkpt>
      <trkpt lat="45.08816" lon="5.60406">
        <ele>1494</ele>
        <time>2010-06-06T09:14:20Z</time>
      </trkpt>
      <trkpt lat="45.08816" lon="5.6041">
        <ele>1494</ele>
        <time>2010-06-06T09:14:21Z</time>
      </trkpt>
      <trkpt lat="45.08815" lon="5.60412">
        <ele>1494</ele>
        <time>2010-06-06T09:14:22Z</time>
      </trkpt>
      <trkpt lat="45.08815" lon="5.60415">
        <ele>1494</ele>
        <time>2010-06-06T09:14:23Z</time>
      </trkpt>
      <trkpt lat="45.08815" lon="5.60417">
        <ele>1494</ele>
        <time>2010-06-06T09:14:24Z</time>
      </trkpt>
      <trkpt lat="45.08814" lon="5.6042">
        <ele>1494</ele>
        <time>2010-06-06T09:14:25Z</time>
      </trkpt>
      <trkpt lat="45.08813" lon="5.60422">
        <ele>1494</ele>
        <time>2010-06-06T09:14:26Z</time>
      </trkpt>
      <trkpt lat="45.08812" lon="5.60424">
        <ele>1494</ele>
        <time>2010-06-06T09:14:27Z</time>
      </trkpt>
      <trkpt lat="45.0881" lon="5.60425">
        <ele>1494</ele>
        <time>2010-06-06T09:14:28Z</time>
      </trkpt>
      <trkpt lat="45.08808" lon="5.60428">
        <ele>1494</ele>
        <time>2010-06-06T09:14:29Z</time>
      </trkpt>
      <trkpt lat="45.08807" lon="5.60429">
        <ele>1494</ele>
        <time>2010-06-06T09:14:30Z</time>
      </trkpt>
      <trkpt lat="45.08805" lon="5.60431">
        <ele>1494</ele>
        <time>2010-06-06T09:14:31Z</time>
      </trkpt>
      <trkpt lat="45.08803" lon="5.60434">
        <ele>1494</ele>
        <time>2010-06-06T09:14:32Z</time>
      </trkpt>
      <trkpt lat="45.08802" lon="5.60434">
        <ele>1494</ele>
        <time>2010-06-06T09:14:33Z</time>
      </trkpt>
      <trkpt lat="45.088" lon="5.60435">
        <ele>1494</ele>
        <time>2010-06-06T09:14:34Z</time>
      </trkpt>
      <trkpt lat="45.08798" lon="5.60436">
        <ele>1494</ele>
        <time>2010-06-06T09:14:35Z</time>
      </trkpt>
      <trkpt lat="45.08798" lon="5.60439">
        <ele>1494</ele>
        <time>2010-06-06T09:14:36Z</time>
      </trkpt>
      <trkpt lat="45.08796" lon="5.6044">
        <ele>1494</ele>
        <time>2010-06-06T09:14:37Z</time>
      </trkpt>
      <trkpt lat="45.08795" lon="5.60442">
        <ele>1495</ele>
        <time>2010-06-06T09:14:38Z</time>
      </trkpt>
      <trkpt lat="45.08793" lon="5.60445">
        <ele>1496</ele>
        <time>2010-06-06T09:14:40Z</time>
      </trkpt>
      <trkpt lat="45.08792" lon="5.6045">
        <ele>1496</ele>
        <time>2010-06-06T09:14:42Z</time>
      </trkpt>
      <trkpt lat="45.08791" lon="5.60453">
        <ele>1496</ele>
        <time>2010-06-06T09:14:43Z</time>
      </trkpt>
      <trkpt lat="45.08791" lon="5.60455">
        <ele>1496</ele>
        <time>2010-06-06T09:14:44Z</time>
      </trkpt>
      <trkpt lat="45.08789" lon="5.60457">
        <ele>1496</ele>
        <time>2010-06-06T09:14:45Z</time>
      </trkpt>
      <trkpt lat="45.08788" lon="5.60459">
        <ele>1496</ele>
        <time>2010-06-06T09:14:46Z</time>
      </trkpt>
      <trkpt lat="45.08786" lon="5.60459">
        <ele>1496</ele>
        <time>2010-06-06T09:14:47Z</time>
      </trkpt>
      <trkpt lat="45.08785" lon="5.60461">
        <ele>1496</ele>
        <time>2010-06-06T09:14:48Z</time>
      </trkpt>
      <trkpt lat="45.08785" lon="5.60463">
        <ele>1496</ele>
        <time>2010-06-06T09:14:49Z</time>
      </trkpt>
      <trkpt lat="45.08784" lon="5.60465">
        <ele>1496</ele>
        <time>2010-06-06T09:14:50Z</time>
      </trkpt>
      <trkpt lat="45.08784" lon="5.60467">
        <ele>1496</ele>
        <time>2010-06-06T09:14:51Z</time>
      </trkpt>
      <trkpt lat="45.08782" lon="5.60471">
        <ele>1496</ele>
        <time>2010-06-06T09:14:53Z</time>
      </trkpt>
      <trkpt lat="45.08781" lon="5.60472">
        <ele>1496</ele>
        <time>2010-06-06T09:14:54Z</time>
      </trkpt>
      <trkpt lat="45.0878" lon="5.60474">
        <ele>1496</ele>
        <time>2010-06-06T09:14:55Z</time>
      </trkpt>
      <trkpt lat="45.08778" lon="5.60476">
        <ele>1495</ele>
        <time>2010-06-06T09:14:56Z</time>
      </trkpt>
      <trkpt lat="45.08776" lon="5.60478">
        <ele>1494</ele>
        <time>2010-06-06T09:14:58Z</time>
      </trkpt>
      <trkpt lat="45.08775" lon="5.60479">
        <ele>1494</ele>
        <time>2010-06-06T09:14:59Z</time>
      </trkpt>
      <trkpt lat="45.08772" lon="5.60481">
        <ele>1493</ele>
        <time>2010-06-06T09:15:01Z</time>
      </trkpt>
      <trkpt lat="45.08771" lon="5.60483">
        <ele>1493</ele>
        <time>2010-06-06T09:15:02Z</time>
      </trkpt>
      <trkpt lat="45.08769" lon="5.60484">
        <ele>1493</ele>
        <time>2010-06-06T09:15:03Z</time>
      </trkpt>
      <trkpt lat="45.08768" lon="5.60486">
        <ele>1493</ele>
        <time>2010-06-06T09:15:04Z</time>
      </trkpt>
      <trkpt lat="45.08767" lon="5.60488">
        <ele>1493</ele>
        <time>2010-06-06T09:15:05Z</time>
      </trkpt>
      <trkpt lat="45.08765" lon="5.60491">
        <ele>1493</ele>
        <time>2010-06-06T09:15:06Z</time>
      </trkpt>
      <trkpt lat="45.08764" lon="5.60492">
        <ele>1493</ele>
        <time>2010-06-06T09:15:07Z</time>
      </trkpt>
      <trkpt lat="45.08762" lon="5.60494">
        <ele>1493</ele>
        <time>2010-06-06T09:15:08Z</time>
      </trkpt>
      <trkpt lat="45.08762" lon="5.60496">
        <ele>1493</ele>
        <time>2010-06-06T09:15:09Z</time>
      </trkpt>
      <trkpt lat="45.08761" lon="5.60497">
        <ele>1493</ele>
        <time>2010-06-06T09:15:10Z</time>
      </trkpt>
      <trkpt lat="45.08761" lon="5.60499">
        <ele>1493</ele>
        <time>2010-06-06T09:15:11Z</time>
      </trkpt>
      <trkpt lat="45.08761" lon="5.60501">
        <ele>1493</ele>
        <time>2010-06-06T09:15:12Z</time>
      </trkpt>
      <trkpt lat="45.0876" lon="5.60504">
        <ele>1493</ele>
        <time>2010-06-06T09:15:13Z</time>
      </trkpt>
      <trkpt lat="45.08758" lon="5.60506">
        <ele>1493</ele>
        <time>2010-06-06T09:15:14Z</time>
      </trkpt>
      <trkpt lat="45.08756" lon="5.60508">
        <ele>1493</ele>
        <time>2010-06-06T09:15:15Z</time>
      </trkpt>
      <trkpt lat="45.08754" lon="5.6051">
        <ele>1493</ele>
        <time>2010-06-06T09:15:16Z</time>
      </trkpt>
      <trkpt lat="45.08752" lon="5.60511">
        <ele>1493</ele>
        <time>2010-06-06T09:15:17Z</time>
      </trkpt>
      <trkpt lat="45.08751" lon="5.60512">
        <ele>1493</ele>
        <time>2010-06-06T09:15:18Z</time>
      </trkpt>
      <trkpt lat="45.08749" lon="5.60514">
        <ele>1494</ele>
        <time>2010-06-06T09:15:20Z</time>
      </trkpt>
      <trkpt lat="45.08748" lon="5.60516">
        <ele>1494</ele>
        <time>2010-06-06T09:15:21Z</time>
      </trkpt>
      <trkpt lat="45.08746" lon="5.60517">
        <ele>1495</ele>
        <time>2010-06-06T09:15:22Z</time>
      </trkpt>
      <trkpt lat="45.08744" lon="5.60518">
        <ele>1496</ele>
        <time>2010-06-06T09:15:23Z</time>
      </trkpt>
      <trkpt lat="45.08742" lon="5.6052">
        <ele>1497</ele>
        <time>2010-06-06T09:15:24Z</time>
      </trkpt>
      <trkpt lat="45.0874" lon="5.60521">
        <ele>1497</ele>
        <time>2010-06-06T09:15:25Z</time>
      </trkpt>
      <trkpt lat="45.08738" lon="5.60522">
        <ele>1498</ele>
        <time>2010-06-06T09:15:26Z</time>
      </trkpt>
      <trkpt lat="45.08736" lon="5.60522">
        <ele>1499</ele>
        <time>2010-06-06T09:15:27Z</time>
      </trkpt>
      <trkpt lat="45.08734" lon="5.60522">
        <ele>1500</ele>
        <time>2010-06-06T09:15:28Z</time>
      </trkpt>
      <trkpt lat="45.08732" lon="5.60521">
        <ele>1501</ele>
        <time>2010-06-06T09:15:29Z</time>
      </trkpt>
      <trkpt lat="45.08729" lon="5.60521">
        <ele>1502</ele>
        <time>2010-06-06T09:15:30Z</time>
      </trkpt>
      <trkpt lat="45.08727" lon="5.6052">
        <ele>1503</ele>
        <time>2010-06-06T09:15:31Z</time>
      </trkpt>
      <trkpt lat="45.08725" lon="5.6052">
        <ele>1504</ele>
        <time>2010-06-06T09:15:32Z</time>
      </trkpt>
      <trkpt lat="45.08723" lon="5.6052">
        <ele>1505</ele>
        <time>2010-06-06T09:15:33Z</time>
      </trkpt>
      <trkpt lat="45.08721" lon="5.60519">
        <ele>1506</ele>
        <time>2010-06-06T09:15:34Z</time>
      </trkpt>
      <trkpt lat="45.08719" lon="5.60518">
        <ele>1508</ele>
        <time>2010-06-06T09:15:35Z</time>
      </trkpt>
      <trkpt lat="45.08718" lon="5.60517">
        <ele>1509</ele>
        <time>2010-06-06T09:15:36Z</time>
      </trkpt>
      <trkpt lat="45.08716" lon="5.60516">
        <ele>1510</ele>
        <time>2010-06-06T09:15:37Z</time>
      </trkpt>
      <trkpt lat="45.08715" lon="5.60516">
        <ele>1511</ele>
        <time>2010-06-06T09:15:38Z</time>
      </trkpt>
      <trkpt lat="45.08712" lon="5.60516">
        <ele>1513</ele>
        <time>2010-06-06T09:15:40Z</time>
      </trkpt>
      <trkpt lat="45.08711" lon="5.60517">
        <ele>1513</ele>
        <time>2010-06-06T09:15:41Z</time>
      </trkpt>
      <trkpt lat="45.08709" lon="5.60518">
        <ele>1513</ele>
        <time>2010-06-06T09:15:42Z</time>
      </trkpt>
      <trkpt lat="45.08707" lon="5.60519">
        <ele>1513</ele>
        <time>2010-06-06T09:15:43Z</time>
      </trkpt>
      <trkpt lat="45.08705" lon="5.6052">
        <ele>1513</ele>
        <time>2010-06-06T09:15:44Z</time>
      </trkpt>
      <trkpt lat="45.08703" lon="5.6052">
        <ele>1513</ele>
        <time>2010-06-06T09:15:45Z</time>
      </trkpt>
      <trkpt lat="45.08702" lon="5.6052">
        <ele>1513</ele>
        <time>2010-06-06T09:15:46Z</time>
      </trkpt>
      <trkpt lat="45.087" lon="5.6052">
        <ele>1513</ele>
        <time>2010-06-06T09:15:47Z</time>
      </trkpt>
      <trkpt lat="45.08698" lon="5.60523">
        <ele>1513</ele>
        <time>2010-06-06T09:15:49Z</time>
      </trkpt>
      <trkpt lat="45.08696" lon="5.60525">
        <ele>1513</ele>
        <time>2010-06-06T09:15:50Z</time>
      </trkpt>
      <trkpt lat="45.08694" lon="5.60525">
        <ele>1513</ele>
        <time>2010-06-06T09:15:51Z</time>
      </trkpt>
      <trkpt lat="45.08692" lon="5.60525">
        <ele>1513</ele>
        <time>2010-06-06T09:15:52Z</time>
      </trkpt>
      <trkpt lat="45.08689" lon="5.60525">
        <ele>1513</ele>
        <time>2010-06-06T09:15:53Z</time>
      </trkpt>
      <trkpt lat="45.08688" lon="5.60525">
        <ele>1513</ele>
        <time>2010-06-06T09:15:54Z</time>
      </trkpt>
      <trkpt lat="45.08686" lon="5.60525">
        <ele>1513</ele>
        <time>2010-06-06T09:15:55Z</time>
      </trkpt>
      <trkpt lat="45.08685" lon="5.60527">
        <ele>1513</ele>
        <time>2010-06-06T09:15:56Z</time>
      </trkpt>
      <trkpt lat="45.08684" lon="5.60529">
        <ele>1513</ele>
        <time>2010-06-06T09:15:57Z</time>
      </trkpt>
      <trkpt lat="45.08681" lon="5.6053">
        <ele>1513</ele>
        <time>2010-06-06T09:15:59Z</time>
      </trkpt>
      <trkpt lat="45.08679" lon="5.6053">
        <ele>1513</ele>
        <time>2010-06-06T09:16:00Z</time>
      </trkpt>
      <trkpt lat="45.08677" lon="5.60529">
        <ele>1513</ele>
        <time>2010-06-06T09:16:01Z</time>
      </trkpt>
      <trkpt lat="45.08675" lon="5.60527">
        <ele>1513</ele>
        <time>2010-06-06T09:16:02Z</time>
      </trkpt>
      <trkpt lat="45.08673" lon="5.60524">
        <ele>1513</ele>
        <time>2010-06-06T09:16:03Z</time>
      </trkpt>
      <trkpt lat="45.0867" lon="5.60523">
        <ele>1514</ele>
        <time>2010-06-06T09:16:04Z</time>
      </trkpt>
      <trkpt lat="45.08668" lon="5.60522">
        <ele>1514</ele>
        <time>2010-06-06T09:16:05Z</time>
      </trkpt>
      <trkpt lat="45.08667" lon="5.6052">
        <ele>1514</ele>
        <time>2010-06-06T09:16:06Z</time>
      </trkpt>
      <trkpt lat="45.08666" lon="5.60518">
        <ele>1514</ele>
        <time>2010-06-06T09:16:07Z</time>
      </trkpt>
      <trkpt lat="45.08664" lon="5.60517">
        <ele>1514</ele>
        <time>2010-06-06T09:16:08Z</time>
      </trkpt>
      <trkpt lat="45.08662" lon="5.60517">
        <ele>1514</ele>
        <time>2010-06-06T09:16:09Z</time>
      </trkpt>
      <trkpt lat="45.0866" lon="5.60517">
        <ele>1514</ele>
        <time>2010-06-06T09:16:10Z</time>
      </trkpt>
      <trkpt lat="45.08657" lon="5.60517">
        <ele>1514</ele>
        <time>2010-06-06T09:16:11Z</time>
      </trkpt>
      <trkpt lat="45.08655" lon="5.60518">
        <ele>1514</ele>
        <time>2010-06-06T09:16:12Z</time>
      </trkpt>
      <trkpt lat="45.08653" lon="5.6052">
        <ele>1514</ele>
        <time>2010-06-06T09:16:13Z</time>
      </trkpt>
      <trkpt lat="45.08652" lon="5.60521">
        <ele>1514</ele>
        <time>2010-06-06T09:16:14Z</time>
      </trkpt>
      <trkpt lat="45.0865" lon="5.60522">
        <ele>1514</ele>
        <time>2010-06-06T09:16:15Z</time>
      </trkpt>
      <trkpt lat="45.08648" lon="5.60523">
        <ele>1514</ele>
        <time>2010-06-06T09:16:16Z</time>
      </trkpt>
      <trkpt lat="45.08645" lon="5.60525">
        <ele>1514</ele>
        <time>2010-06-06T09:16:17Z</time>
      </trkpt>
      <trkpt lat="45.08643" lon="5.60527">
        <ele>1514</ele>
        <time>2010-06-06T09:16:18Z</time>
      </trkpt>
      <trkpt lat="45.08642" lon="5.60528">
        <ele>1514</ele>
        <time>2010-06-06T09:16:19Z</time>
      </trkpt>
      <trkpt lat="45.08641" lon="5.6053">
        <ele>1514</ele>
        <time>2010-06-06T09:16:20Z</time>
      </trkpt>
      <trkpt lat="45.0864" lon="5.60531">
        <ele>1514</ele>
        <time>2010-06-06T09:16:21Z</time>
      </trkpt>
      <trkpt lat="45.08638" lon="5.60534">
        <ele>1514</ele>
        <time>2010-06-06T09:16:22Z</time>
      </trkpt>
      <trkpt lat="45.08638" lon="5.60536">
        <ele>1514</ele>
        <time>2010-06-06T09:16:23Z</time>
      </trkpt>
      <trkpt lat="45.08636" lon="5.60538">
        <ele>1514</ele>
        <time>2010-06-06T09:16:24Z</time>
      </trkpt>
      <trkpt lat="45.08634" lon="5.6054">
        <ele>1514</ele>
        <time>2010-06-06T09:16:26Z</time>
      </trkpt>
      <trkpt lat="45.08632" lon="5.60543">
        <ele>1515</ele>
        <time>2010-06-06T09:16:28Z</time>
      </trkpt>
      <trkpt lat="45.08631" lon="5.60546">
        <ele>1516</ele>
        <time>2010-06-06T09:16:30Z</time>
      </trkpt>
      <trkpt lat="45.0863" lon="5.60548">
        <ele>1518</ele>
        <time>2010-06-06T09:16:32Z</time>
      </trkpt>
      <trkpt lat="45.08628" lon="5.60549">
        <ele>1519</ele>
        <time>2010-06-06T09:16:33Z</time>
      </trkpt>
      <trkpt lat="45.08626" lon="5.6055">
        <ele>1520</ele>
        <time>2010-06-06T09:16:34Z</time>
      </trkpt>
      <trkpt lat="45.08624" lon="5.60551">
        <ele>1521</ele>
        <time>2010-06-06T09:16:35Z</time>
      </trkpt>
      <trkpt lat="45.08623" lon="5.60552">
        <ele>1522</ele>
        <time>2010-06-06T09:16:36Z</time>
      </trkpt>
      <trkpt lat="45.08622" lon="5.60555">
        <ele>1524</ele>
        <time>2010-06-06T09:16:38Z</time>
      </trkpt>
      <trkpt lat="45.08622" lon="5.60556">
        <ele>1525</ele>
        <time>2010-06-06T09:16:39Z</time>
      </trkpt>
      <trkpt lat="45.08621" lon="5.60558">
        <ele>1527</ele>
        <time>2010-06-06T09:16:41Z</time>
      </trkpt>
      <trkpt lat="45.0862" lon="5.60559">
        <ele>1528</ele>
        <time>2010-06-06T09:16:42Z</time>
      </trkpt>
      <trkpt lat="45.08618" lon="5.60559">
        <ele>1529</ele>
        <time>2010-06-06T09:16:43Z</time>
      </trkpt>
      <trkpt lat="45.08617" lon="5.60559">
        <ele>1530</ele>
        <time>2010-06-06T09:16:44Z</time>
      </trkpt>
      <trkpt lat="45.08615" lon="5.6056">
        <ele>1532</ele>
        <time>2010-06-06T09:16:45Z</time>
      </trkpt>
      <trkpt lat="45.08613" lon="5.60562">
        <ele>1533</ele>
        <time>2010-06-06T09:16:46Z</time>
      </trkpt>
      <trkpt lat="45.08611" lon="5.60563">
        <ele>1536</ele>
        <time>2010-06-06T09:16:48Z</time>
      </trkpt>
      <trkpt lat="45.0861" lon="5.60564">
        <ele>1537</ele>
        <time>2010-06-06T09:16:49Z</time>
      </trkpt>
      <trkpt lat="45.08608" lon="5.60566">
        <ele>1538</ele>
        <time>2010-06-06T09:16:50Z</time>
      </trkpt>
      <trkpt lat="45.08609" lon="5.60569">
        <ele>1540</ele>
        <time>2010-06-06T09:16:52Z</time>
      </trkpt>
      <trkpt lat="45.08609" lon="5.60572">
        <ele>1541</ele>
        <time>2010-06-06T09:16:53Z</time>
      </trkpt>
      <trkpt lat="45.08609" lon="5.60574">
        <ele>1542</ele>
        <time>2010-06-06T09:16:54Z</time>
      </trkpt>
      <trkpt lat="45.08609" lon="5.60576">
        <ele>1543</ele>
        <time>2010-06-06T09:16:56Z</time>
      </trkpt>
      <trkpt lat="45.0861" lon="5.60576">
        <ele>1544</ele>
        <time>2010-06-06T09:16:59Z</time>
      </trkpt>
      <trkpt lat="45.08609" lon="5.60577">
        <ele>1544</ele>
        <time>2010-06-06T09:17:02Z</time>
      </trkpt>
      <trkpt lat="45.08608" lon="5.60577">
        <ele>1545</ele>
        <time>2010-06-06T09:17:03Z</time>
      </trkpt>
      <trkpt lat="45.08606" lon="5.60578">
        <ele>1546</ele>
        <time>2010-06-06T09:17:04Z</time>
      </trkpt>
      <trkpt lat="45.08604" lon="5.60578">
        <ele>1548</ele>
        <time>2010-06-06T09:17:06Z</time>
      </trkpt>
      <trkpt lat="45.08603" lon="5.60577">
        <ele>1549</ele>
        <time>2010-06-06T09:17:07Z</time>
      </trkpt>
      <trkpt lat="45.08602" lon="5.60577">
        <ele>1550</ele>
        <time>2010-06-06T09:17:08Z</time>
      </trkpt>
      <trkpt lat="45.086" lon="5.60578">
        <ele>1551</ele>
        <time>2010-06-06T09:17:11Z</time>
      </trkpt>
      <trkpt lat="45.08599" lon="5.6058">
        <ele>1551</ele>
        <time>2010-06-06T09:17:13Z</time>
      </trkpt>
      <trkpt lat="45.08598" lon="5.60582">
        <ele>1551</ele>
        <time>2010-06-06T09:17:15Z</time>
      </trkpt>
      <trkpt lat="45.08598" lon="5.60584">
        <ele>1550</ele>
        <time>2010-06-06T09:17:16Z</time>
      </trkpt>
      <trkpt lat="45.08597" lon="5.60586">
        <ele>1548</ele>
        <time>2010-06-06T09:17:18Z</time>
      </trkpt>
      <trkpt lat="45.08596" lon="5.60585">
        <ele>1545</ele>
        <time>2010-06-06T09:17:21Z</time>
      </trkpt>
      <trkpt lat="45.08595" lon="5.60584">
        <ele>1543</ele>
        <time>2010-06-06T09:17:24Z</time>
      </trkpt>
      <trkpt lat="45.08593" lon="5.60583">
        <ele>1543</ele>
        <time>2010-06-06T09:17:26Z</time>
      </trkpt>
      <trkpt lat="45.08591" lon="5.60582">
        <ele>1543</ele>
        <time>2010-06-06T09:17:28Z</time>
      </trkpt>
      <trkpt lat="45.0859" lon="5.60581">
        <ele>1541</ele>
        <time>2010-06-06T09:17:30Z</time>
      </trkpt>
      <trkpt lat="45.08588" lon="5.60581">
        <ele>1539</ele>
        <time>2010-06-06T09:17:32Z</time>
      </trkpt>
      <trkpt lat="45.08586" lon="5.60582">
        <ele>1538</ele>
        <time>2010-06-06T09:17:34Z</time>
      </trkpt>
      <trkpt lat="45.08585" lon="5.60582">
        <ele>1537</ele>
        <time>2010-06-06T09:17:36Z</time>
      </trkpt>
      <trkpt lat="45.08583" lon="5.60584">
        <ele>1537</ele>
        <time>2010-06-06T09:17:38Z</time>
      </trkpt>
      <trkpt lat="45.08581" lon="5.60585">
        <ele>1537</ele>
        <time>2010-06-06T09:17:39Z</time>
      </trkpt>
      <trkpt lat="45.08579" lon="5.60587">
        <ele>1537</ele>
        <time>2010-06-06T09:17:41Z</time>
      </trkpt>
      <trkpt lat="45.08578" lon="5.60588">
        <ele>1537</ele>
        <time>2010-06-06T09:17:43Z</time>
      </trkpt>
      <trkpt lat="45.08576" lon="5.60589">
        <ele>1537</ele>
        <time>2010-06-06T09:17:44Z</time>
      </trkpt>
      <trkpt lat="45.08574" lon="5.60591">
        <ele>1537</ele>
        <time>2010-06-06T09:17:46Z</time>
      </trkpt>
      <trkpt lat="45.08573" lon="5.60592">
        <ele>1537</ele>
        <time>2010-06-06T09:17:48Z</time>
      </trkpt>
      <trkpt lat="45.08572" lon="5.60594">
        <ele>1537</ele>
        <time>2010-06-06T09:17:50Z</time>
      </trkpt>
      <trkpt lat="45.0857" lon="5.60596">
        <ele>1537</ele>
        <time>2010-06-06T09:17:52Z</time>
      </trkpt>
      <trkpt lat="45.0857" lon="5.60599">
        <ele>1537</ele>
        <time>2010-06-06T09:17:54Z</time>
      </trkpt>
      <trkpt lat="45.08569" lon="5.60599">
        <ele>1538</ele>
        <time>2010-06-06T09:17:56Z</time>
      </trkpt>
      <trkpt lat="45.08566" lon="5.606">
        <ele>1539</ele>
        <time>2010-06-06T09:17:58Z</time>
      </trkpt>
      <trkpt lat="45.08565" lon="5.60601">
        <ele>1540</ele>
        <time>2010-06-06T09:17:59Z</time>
      </trkpt>
      <trkpt lat="45.08564" lon="5.60601">
        <ele>1541</ele>
        <time>2010-06-06T09:18:00Z</time>
      </trkpt>
      <trkpt lat="45.08562" lon="5.60601">
        <ele>1543</ele>
        <time>2010-06-06T09:18:02Z</time>
      </trkpt>
      <trkpt lat="45.0856" lon="5.60605">
        <ele>1545</ele>
        <time>2010-06-06T09:18:04Z</time>
      </trkpt>
      <trkpt lat="45.08559" lon="5.60606">
        <ele>1546</ele>
        <time>2010-06-06T09:18:05Z</time>
      </trkpt>
      <trkpt lat="45.08558" lon="5.60607">
        <ele>1547</ele>
        <time>2010-06-06T09:18:06Z</time>
      </trkpt>
      <trkpt lat="45.08556" lon="5.60608">
        <ele>1549</ele>
        <time>2010-06-06T09:18:08Z</time>
      </trkpt>
      <trkpt lat="45.08555" lon="5.60611">
        <ele>1551</ele>
        <time>2010-06-06T09:18:10Z</time>
      </trkpt>
      <trkpt lat="45.08554" lon="5.60614">
        <ele>1551</ele>
        <time>2010-06-06T09:18:12Z</time>
      </trkpt>
      <trkpt lat="45.08553" lon="5.60617">
        <ele>1551</ele>
        <time>2010-06-06T09:18:14Z</time>
      </trkpt>
      <trkpt lat="45.08553" lon="5.60619">
        <ele>1551</ele>
        <time>2010-06-06T09:18:15Z</time>
      </trkpt>
      <trkpt lat="45.08553" lon="5.60621">
        <ele>1551</ele>
        <time>2010-06-06T09:18:16Z</time>
      </trkpt>
      <trkpt lat="45.08554" lon="5.60623">
        <ele>1551</ele>
        <time>2010-06-06T09:18:17Z</time>
      </trkpt>
      <trkpt lat="45.08552" lon="5.60624">
        <ele>1551</ele>
        <time>2010-06-06T09:18:19Z</time>
      </trkpt>
      <trkpt lat="45.0855" lon="5.60624">
        <ele>1552</ele>
        <time>2010-06-06T09:18:20Z</time>
      </trkpt>
      <trkpt lat="45.08548" lon="5.60624">
        <ele>1553</ele>
        <time>2010-06-06T09:18:21Z</time>
      </trkpt>
      <trkpt lat="45.08547" lon="5.60625">
        <ele>1554</ele>
        <time>2010-06-06T09:18:22Z</time>
      </trkpt>
      <trkpt lat="45.08546" lon="5.60627">
        <ele>1556</ele>
        <time>2010-06-06T09:18:24Z</time>
      </trkpt>
      <trkpt lat="45.08545" lon="5.60629">
        <ele>1557</ele>
        <time>2010-06-06T09:18:25Z</time>
      </trkpt>
      <trkpt lat="45.08545" lon="5.6063">
        <ele>1559</ele>
        <time>2010-06-06T09:18:27Z</time>
      </trkpt>
      <trkpt lat="45.08544" lon="5.60632">
        <ele>1560</ele>
        <time>2010-06-06T09:18:28Z</time>
      </trkpt>
      <trkpt lat="45.08544" lon="5.60633">
        <ele>1561</ele>
        <time>2010-06-06T09:18:29Z</time>
      </trkpt>
      <trkpt lat="45.08542" lon="5.60635">
        <ele>1563</ele>
        <time>2010-06-06T09:18:31Z</time>
      </trkpt>
      <trkpt lat="45.08541" lon="5.60637">
        <ele>1565</ele>
        <time>2010-06-06T09:18:33Z</time>
      </trkpt>
      <trkpt lat="45.08539" lon="5.60638">
        <ele>1566</ele>
        <time>2010-06-06T09:18:34Z</time>
      </trkpt>
      <trkpt lat="45.08539" lon="5.6064">
        <ele>1567</ele>
        <time>2010-06-06T09:18:35Z</time>
      </trkpt>
      <trkpt lat="45.08537" lon="5.60641">
        <ele>1568</ele>
        <time>2010-06-06T09:18:36Z</time>
      </trkpt>
      <trkpt lat="45.08535" lon="5.60643">
        <ele>1569</ele>
        <time>2010-06-06T09:18:37Z</time>
      </trkpt>
      <trkpt lat="45.08533" lon="5.60644">
        <ele>1570</ele>
        <time>2010-06-06T09:18:38Z</time>
      </trkpt>
      <trkpt lat="45.08532" lon="5.60645">
        <ele>1571</ele>
        <time>2010-06-06T09:18:39Z</time>
      </trkpt>
      <trkpt lat="45.08531" lon="5.60647">
        <ele>1572</ele>
        <time>2010-06-06T09:18:40Z</time>
      </trkpt>
      <trkpt lat="45.0853" lon="5.60649">
        <ele>1573</ele>
        <time>2010-06-06T09:18:41Z</time>
      </trkpt>
      <trkpt lat="45.08528" lon="5.60652">
        <ele>1573</ele>
        <time>2010-06-06T09:18:43Z</time>
      </trkpt>
      <trkpt lat="45.08526" lon="5.60653">
        <ele>1573</ele>
        <time>2010-06-06T09:18:44Z</time>
      </trkpt>
      <trkpt lat="45.08523" lon="5.60652">
        <ele>1573</ele>
        <time>2010-06-06T09:18:45Z</time>
      </trkpt>
      <trkpt lat="45.08521" lon="5.60653">
        <ele>1573</ele>
        <time>2010-06-06T09:18:46Z</time>
      </trkpt>
      <trkpt lat="45.08519" lon="5.60654">
        <ele>1573</ele>
        <time>2010-06-06T09:18:47Z</time>
      </trkpt>
      <trkpt lat="45.08517" lon="5.60654">
        <ele>1573</ele>
        <time>2010-06-06T09:18:48Z</time>
      </trkpt>
      <trkpt lat="45.08515" lon="5.60655">
        <ele>1573</ele>
        <time>2010-06-06T09:18:49Z</time>
      </trkpt>
      <trkpt lat="45.08512" lon="5.60656">
        <ele>1573</ele>
        <time>2010-06-06T09:18:50Z</time>
      </trkpt>
      <trkpt lat="45.0851" lon="5.60656">
        <ele>1572</ele>
        <time>2010-06-06T09:18:51Z</time>
      </trkpt>
      <trkpt lat="45.08508" lon="5.60655">
        <ele>1572</ele>
        <time>2010-06-06T09:18:52Z</time>
      </trkpt>
      <trkpt lat="45.08506" lon="5.60655">
        <ele>1571</ele>
        <time>2010-06-06T09:18:53Z</time>
      </trkpt>
      <trkpt lat="45.08504" lon="5.60655">
        <ele>1571</ele>
        <time>2010-06-06T09:18:54Z</time>
      </trkpt>
      <trkpt lat="45.08502" lon="5.60655">
        <ele>1570</ele>
        <time>2010-06-06T09:18:55Z</time>
      </trkpt>
      <trkpt lat="45.085" lon="5.60655">
        <ele>1569</ele>
        <time>2010-06-06T09:18:56Z</time>
      </trkpt>
      <trkpt lat="45.08497" lon="5.60655">
        <ele>1568</ele>
        <time>2010-06-06T09:18:57Z</time>
      </trkpt>
      <trkpt lat="45.08495" lon="5.60655">
        <ele>1567</ele>
        <time>2010-06-06T09:18:58Z</time>
      </trkpt>
      <trkpt lat="45.08492" lon="5.60655">
        <ele>1566</ele>
        <time>2010-06-06T09:18:59Z</time>
      </trkpt>
      <trkpt lat="45.08489" lon="5.60656">
        <ele>1565</ele>
        <time>2010-06-06T09:19:00Z</time>
      </trkpt>
      <trkpt lat="45.08486" lon="5.60658">
        <ele>1564</ele>
        <time>2010-06-06T09:19:01Z</time>
      </trkpt>
      <trkpt lat="45.08485" lon="5.60658">
        <ele>1564</ele>
        <time>2010-06-06T09:19:02Z</time>
      </trkpt>
      <trkpt lat="45.08483" lon="5.60659">
        <ele>1564</ele>
        <time>2010-06-06T09:19:03Z</time>
      </trkpt>
      <trkpt lat="45.08482" lon="5.60659">
        <ele>1564</ele>
        <time>2010-06-06T09:19:04Z</time>
      </trkpt>
      <trkpt lat="45.08481" lon="5.60659">
        <ele>1564</ele>
        <time>2010-06-06T09:19:05Z</time>
      </trkpt>
      <trkpt lat="45.08479" lon="5.6066">
        <ele>1564</ele>
        <time>2010-06-06T09:19:06Z</time>
      </trkpt>
      <trkpt lat="45.08478" lon="5.60662">
        <ele>1564</ele>
        <time>2010-06-06T09:19:07Z</time>
      </trkpt>
      <trkpt lat="45.08476" lon="5.60663">
        <ele>1564</ele>
        <time>2010-06-06T09:19:08Z</time>
      </trkpt>
      <trkpt lat="45.08475" lon="5.60663">
        <ele>1563</ele>
        <time>2010-06-06T09:19:09Z</time>
      </trkpt>
      <trkpt lat="45.08473" lon="5.60662">
        <ele>1562</ele>
        <time>2010-06-06T09:19:11Z</time>
      </trkpt>
      <trkpt lat="45.08472" lon="5.60662">
        <ele>1562</ele>
        <time>2010-06-06T09:19:13Z</time>
      </trkpt>
      <trkpt lat="45.08469" lon="5.60662">
        <ele>1561</ele>
        <time>2010-06-06T09:19:15Z</time>
      </trkpt>
      <trkpt lat="45.08468" lon="5.60661">
        <ele>1561</ele>
        <time>2010-06-06T09:19:16Z</time>
      </trkpt>
      <trkpt lat="45.08467" lon="5.60661">
        <ele>1561</ele>
        <time>2010-06-06T09:19:17Z</time>
      </trkpt>
      <trkpt lat="45.08466" lon="5.60661">
        <ele>1561</ele>
        <time>2010-06-06T09:19:18Z</time>
      </trkpt>
      <trkpt lat="45.08464" lon="5.60662">
        <ele>1561</ele>
        <time>2010-06-06T09:19:19Z</time>
      </trkpt>
      <trkpt lat="45.08463" lon="5.60661">
        <ele>1561</ele>
        <time>2010-06-06T09:19:20Z</time>
      </trkpt>
      <trkpt lat="45.08461" lon="5.60664">
        <ele>1561</ele>
        <time>2010-06-06T09:19:22Z</time>
      </trkpt>
      <trkpt lat="45.0846" lon="5.60666">
        <ele>1561</ele>
        <time>2010-06-06T09:19:23Z</time>
      </trkpt>
      <trkpt lat="45.0846" lon="5.60667">
        <ele>1562</ele>
        <time>2010-06-06T09:19:24Z</time>
      </trkpt>
      <trkpt lat="45.08459" lon="5.60669">
        <ele>1562</ele>
        <time>2010-06-06T09:19:25Z</time>
      </trkpt>
      <trkpt lat="45.08457" lon="5.60671">
        <ele>1562</ele>
        <time>2010-06-06T09:19:26Z</time>
      </trkpt>
      <trkpt lat="45.08456" lon="5.60672">
        <ele>1562</ele>
        <time>2010-06-06T09:19:27Z</time>
      </trkpt>
      <trkpt lat="45.08455" lon="5.60674">
        <ele>1562</ele>
        <time>2010-06-06T09:19:28Z</time>
      </trkpt>
      <trkpt lat="45.08454" lon="5.60676">
        <ele>1562</ele>
        <time>2010-06-06T09:19:30Z</time>
      </trkpt>
      <trkpt lat="45.08451" lon="5.60678">
        <ele>1562</ele>
        <time>2010-06-06T09:19:32Z</time>
      </trkpt>
      <trkpt lat="45.0845" lon="5.60678">
        <ele>1562</ele>
        <time>2010-06-06T09:19:33Z</time>
      </trkpt>
      <trkpt lat="45.08448" lon="5.60679">
        <ele>1563</ele>
        <time>2010-06-06T09:19:35Z</time>
      </trkpt>
      <trkpt lat="45.08447" lon="5.60681">
        <ele>1564</ele>
        <time>2010-06-06T09:19:37Z</time>
      </trkpt>
      <trkpt lat="45.08446" lon="5.60684">
        <ele>1565</ele>
        <time>2010-06-06T09:19:39Z</time>
      </trkpt>
      <trkpt lat="45.08445" lon="5.60686">
        <ele>1566</ele>
        <time>2010-06-06T09:19:40Z</time>
      </trkpt>
      <trkpt lat="45.08444" lon="5.60688">
        <ele>1566</ele>
        <time>2010-06-06T09:19:42Z</time>
      </trkpt>
      <trkpt lat="45.08443" lon="5.6069">
        <ele>1566</ele>
        <time>2010-06-06T09:19:43Z</time>
      </trkpt>
      <trkpt lat="45.08442" lon="5.60691">
        <ele>1567</ele>
        <time>2010-06-06T09:19:44Z</time>
      </trkpt>
      <trkpt lat="45.08441" lon="5.60694">
        <ele>1568</ele>
        <time>2010-06-06T09:19:46Z</time>
      </trkpt>
      <trkpt lat="45.0844" lon="5.60696">
        <ele>1568</ele>
        <time>2010-06-06T09:19:48Z</time>
      </trkpt>
      <trkpt lat="45.08438" lon="5.60698">
        <ele>1568</ele>
        <time>2010-06-06T09:19:50Z</time>
      </trkpt>
      <trkpt lat="45.08436" lon="5.60699">
        <ele>1570</ele>
        <time>2010-06-06T09:19:52Z</time>
      </trkpt>
      <trkpt lat="45.08436" lon="5.60701">
        <ele>1571</ele>
        <time>2010-06-06T09:19:54Z</time>
      </trkpt>
      <trkpt lat="45.08436" lon="5.60704">
        <ele>1572</ele>
        <time>2010-06-06T09:19:56Z</time>
      </trkpt>
      <trkpt lat="45.08434" lon="5.60706">
        <ele>1572</ele>
        <time>2010-06-06T09:19:58Z</time>
      </trkpt>
      <trkpt lat="45.08433" lon="5.60708">
        <ele>1574</ele>
        <time>2010-06-06T09:20:01Z</time>
      </trkpt>
      <trkpt lat="45.08432" lon="5.6071">
        <ele>1575</ele>
        <time>2010-06-06T09:20:04Z</time>
      </trkpt>
      <trkpt lat="45.08429" lon="5.60711">
        <ele>1575</ele>
        <time>2010-06-06T09:20:06Z</time>
      </trkpt>
      <trkpt lat="45.08427" lon="5.60711">
        <ele>1577</ele>
        <time>2010-06-06T09:20:08Z</time>
      </trkpt>
      <trkpt lat="45.08425" lon="5.60712">
        <ele>1578</ele>
        <time>2010-06-06T09:20:10Z</time>
      </trkpt>
      <trkpt lat="45.08425" lon="5.60714">
        <ele>1578</ele>
        <time>2010-06-06T09:20:11Z</time>
      </trkpt>
      <trkpt lat="45.08424" lon="5.60716">
        <ele>1578</ele>
        <time>2010-06-06T09:20:12Z</time>
      </trkpt>
      <trkpt lat="45.08424" lon="5.60718">
        <ele>1578</ele>
        <time>2010-06-06T09:20:14Z</time>
      </trkpt>
      <trkpt lat="45.08424" lon="5.6072">
        <ele>1578</ele>
        <time>2010-06-06T09:20:15Z</time>
      </trkpt>
      <trkpt lat="45.08424" lon="5.60721">
        <ele>1578</ele>
        <time>2010-06-06T09:20:16Z</time>
      </trkpt>
      <trkpt lat="45.08424" lon="5.60724">
        <ele>1578</ele>
        <time>2010-06-06T09:20:18Z</time>
      </trkpt>
      <trkpt lat="45.08424" lon="5.60725">
        <ele>1578</ele>
        <time>2010-06-06T09:20:20Z</time>
      </trkpt>
      <trkpt lat="45.08423" lon="5.60727">
        <ele>1578</ele>
        <time>2010-06-06T09:20:23Z</time>
      </trkpt>
      <trkpt lat="45.08422" lon="5.60727">
        <ele>1578</ele>
        <time>2010-06-06T09:20:25Z</time>
      </trkpt>
      <trkpt lat="45.08421" lon="5.60728">
        <ele>1578</ele>
        <time>2010-06-06T09:20:27Z</time>
      </trkpt>
      <trkpt lat="45.0842" lon="5.6073">
        <ele>1578</ele>
        <time>2010-06-06T09:20:29Z</time>
      </trkpt>
      <trkpt lat="45.08419" lon="5.6073">
        <ele>1578</ele>
        <time>2010-06-06T09:20:31Z</time>
      </trkpt>
      <trkpt lat="45.08418" lon="5.60732">
        <ele>1578</ele>
        <time>2010-06-06T09:20:33Z</time>
      </trkpt>
      <trkpt lat="45.08418" lon="5.60734">
        <ele>1578</ele>
        <time>2010-06-06T09:20:35Z</time>
      </trkpt>
      <trkpt lat="45.08417" lon="5.60735">
        <ele>1579</ele>
        <time>2010-06-06T09:20:38Z</time>
      </trkpt>
      <trkpt lat="45.08416" lon="5.60737">
        <ele>1579</ele>
        <time>2010-06-06T09:20:39Z</time>
      </trkpt>
      <trkpt lat="45.08414" lon="5.60739">
        <ele>1579</ele>
        <time>2010-06-06T09:20:42Z</time>
      </trkpt>
      <trkpt lat="45.08413" lon="5.60742">
        <ele>1579</ele>
        <time>2010-06-06T09:20:44Z</time>
      </trkpt>
      <trkpt lat="45.08412" lon="5.60743">
        <ele>1579</ele>
        <time>2010-06-06T09:20:46Z</time>
      </trkpt>
      <trkpt lat="45.08412" lon="5.60745">
        <ele>1579</ele>
        <time>2010-06-06T09:20:48Z</time>
      </trkpt>
      <trkpt lat="45.08412" lon="5.60747">
        <ele>1579</ele>
        <time>2010-06-06T09:20:50Z</time>
      </trkpt>
      <trkpt lat="45.08411" lon="5.60749">
        <ele>1579</ele>
        <time>2010-06-06T09:20:51Z</time>
      </trkpt>
      <trkpt lat="45.0841" lon="5.60751">
        <ele>1580</ele>
        <time>2010-06-06T09:20:53Z</time>
      </trkpt>
      <trkpt lat="45.08409" lon="5.60753">
        <ele>1580</ele>
        <time>2010-06-06T09:20:55Z</time>
      </trkpt>
      <trkpt lat="45.08409" lon="5.60756">
        <ele>1581</ele>
        <time>2010-06-06T09:20:57Z</time>
      </trkpt>
      <trkpt lat="45.08409" lon="5.60758">
        <ele>1581</ele>
        <time>2010-06-06T09:20:58Z</time>
      </trkpt>
      <trkpt lat="45.08408" lon="5.6076">
        <ele>1582</ele>
        <time>2010-06-06T09:21:00Z</time>
      </trkpt>
      <trkpt lat="45.08406" lon="5.60763">
        <ele>1582</ele>
        <time>2010-06-06T09:21:02Z</time>
      </trkpt>
      <trkpt lat="45.08407" lon="5.60765">
        <ele>1582</ele>
        <time>2010-06-06T09:21:04Z</time>
      </trkpt>
      <trkpt lat="45.08407" lon="5.60768">
        <ele>1582</ele>
        <time>2010-06-06T09:21:06Z</time>
      </trkpt>
      <trkpt lat="45.08406" lon="5.60769">
        <ele>1582</ele>
        <time>2010-06-06T09:21:07Z</time>
      </trkpt>
      <trkpt lat="45.08406" lon="5.60772">
        <ele>1582</ele>
        <time>2010-06-06T09:21:09Z</time>
      </trkpt>
      <trkpt lat="45.08406" lon="5.60774">
        <ele>1583</ele>
        <time>2010-06-06T09:21:11Z</time>
      </trkpt>
      <trkpt lat="45.08406" lon="5.60777">
        <ele>1583</ele>
        <time>2010-06-06T09:21:13Z</time>
      </trkpt>
      <trkpt lat="45.08405" lon="5.60779">
        <ele>1584</ele>
        <time>2010-06-06T09:21:14Z</time>
      </trkpt>
      <trkpt lat="45.08405" lon="5.6078">
        <ele>1585</ele>
        <time>2010-06-06T09:21:15Z</time>
      </trkpt>
      <trkpt lat="45.08406" lon="5.60782">
        <ele>1586</ele>
        <time>2010-06-06T09:21:17Z</time>
      </trkpt>
      <trkpt lat="45.08405" lon="5.60784">
        <ele>1587</ele>
        <time>2010-06-06T09:21:18Z</time>
      </trkpt>
      <trkpt lat="45.08404" lon="5.60786">
        <ele>1588</ele>
        <time>2010-06-06T09:21:20Z</time>
      </trkpt>
      <trkpt lat="45.08402" lon="5.60788">
        <ele>1588</ele>
        <time>2010-06-06T09:21:22Z</time>
      </trkpt>
      <trkpt lat="45.08401" lon="5.60791">
        <ele>1589</ele>
        <time>2010-06-06T09:21:24Z</time>
      </trkpt>
      <trkpt lat="45.084" lon="5.60792">
        <ele>1589</ele>
        <time>2010-06-06T09:21:25Z</time>
      </trkpt>
      <trkpt lat="45.08399" lon="5.60794">
        <ele>1589</ele>
        <time>2010-06-06T09:21:26Z</time>
      </trkpt>
      <trkpt lat="45.08399" lon="5.60795">
        <ele>1589</ele>
        <time>2010-06-06T09:21:27Z</time>
      </trkpt>
      <trkpt lat="45.08398" lon="5.60797">
        <ele>1589</ele>
        <time>2010-06-06T09:21:28Z</time>
      </trkpt>
      <trkpt lat="45.08396" lon="5.608">
        <ele>1589</ele>
        <time>2010-06-06T09:21:30Z</time>
      </trkpt>
      <trkpt lat="45.08395" lon="5.60801">
        <ele>1589</ele>
        <time>2010-06-06T09:21:31Z</time>
      </trkpt>
      <trkpt lat="45.08394" lon="5.60803">
        <ele>1591</ele>
        <time>2010-06-06T09:21:33Z</time>
      </trkpt>
      <trkpt lat="45.08392" lon="5.60804">
        <ele>1593</ele>
        <time>2010-06-06T09:21:35Z</time>
      </trkpt>
      <trkpt lat="45.0839" lon="5.60804">
        <ele>1594</ele>
        <time>2010-06-06T09:21:36Z</time>
      </trkpt>
      <trkpt lat="45.08388" lon="5.60805">
        <ele>1595</ele>
        <time>2010-06-06T09:21:37Z</time>
      </trkpt>
      <trkpt lat="45.08387" lon="5.60806">
        <ele>1595</ele>
        <time>2010-06-06T09:21:38Z</time>
      </trkpt>
      <trkpt lat="45.08385" lon="5.60806">
        <ele>1595</ele>
        <time>2010-06-06T09:21:39Z</time>
      </trkpt>
      <trkpt lat="45.08384" lon="5.60807">
        <ele>1595</ele>
        <time>2010-06-06T09:21:40Z</time>
      </trkpt>
      <trkpt lat="45.08383" lon="5.60809">
        <ele>1595</ele>
        <time>2010-06-06T09:21:42Z</time>
      </trkpt>
      <trkpt lat="45.08382" lon="5.6081">
        <ele>1595</ele>
        <time>2010-06-06T09:21:43Z</time>
      </trkpt>
      <trkpt lat="45.0838" lon="5.60811">
        <ele>1595</ele>
        <time>2010-06-06T09:21:44Z</time>
      </trkpt>
      <trkpt lat="45.08378" lon="5.60812">
        <ele>1595</ele>
        <time>2010-06-06T09:21:45Z</time>
      </trkpt>
      <trkpt lat="45.08377" lon="5.60813">
        <ele>1595</ele>
        <time>2010-06-06T09:21:46Z</time>
      </trkpt>
      <trkpt lat="45.08375" lon="5.60814">
        <ele>1595</ele>
        <time>2010-06-06T09:21:47Z</time>
      </trkpt>
      <trkpt lat="45.08374" lon="5.60814">
        <ele>1595</ele>
        <time>2010-06-06T09:21:48Z</time>
      </trkpt>
      <trkpt lat="45.08372" lon="5.60817">
        <ele>1596</ele>
        <time>2010-06-06T09:21:50Z</time>
      </trkpt>
      <trkpt lat="45.08372" lon="5.60818">
        <ele>1596</ele>
        <time>2010-06-06T09:21:51Z</time>
      </trkpt>
      <trkpt lat="45.0837" lon="5.6082">
        <ele>1596</ele>
        <time>2010-06-06T09:21:52Z</time>
      </trkpt>
      <trkpt lat="45.08369" lon="5.60821">
        <ele>1597</ele>
        <time>2010-06-06T09:21:53Z</time>
      </trkpt>
      <trkpt lat="45.08368" lon="5.60822">
        <ele>1597</ele>
        <time>2010-06-06T09:21:54Z</time>
      </trkpt>
      <trkpt lat="45.08367" lon="5.60824">
        <ele>1597</ele>
        <time>2010-06-06T09:21:55Z</time>
      </trkpt>
      <trkpt lat="45.08366" lon="5.60826">
        <ele>1598</ele>
        <time>2010-06-06T09:21:56Z</time>
      </trkpt>
      <trkpt lat="45.08364" lon="5.60828">
        <ele>1598</ele>
        <time>2010-06-06T09:21:57Z</time>
      </trkpt>
      <trkpt lat="45.08363" lon="5.60831">
        <ele>1598</ele>
        <time>2010-06-06T09:21:58Z</time>
      </trkpt>
      <trkpt lat="45.08363" lon="5.60833">
        <ele>1599</ele>
        <time>2010-06-06T09:21:59Z</time>
      </trkpt>
      <trkpt lat="45.08361" lon="5.60834">
        <ele>1600</ele>
        <time>2010-06-06T09:22:00Z</time>
      </trkpt>
      <trkpt lat="45.0836" lon="5.60835">
        <ele>1600</ele>
        <time>2010-06-06T09:22:01Z</time>
      </trkpt>
      <trkpt lat="45.08358" lon="5.60837">
        <ele>1601</ele>
        <time>2010-06-06T09:22:03Z</time>
      </trkpt>
      <trkpt lat="45.08357" lon="5.60838">
        <ele>1601</ele>
        <time>2010-06-06T09:22:04Z</time>
      </trkpt>
      <trkpt lat="45.08356" lon="5.60839">
        <ele>1601</ele>
        <time>2010-06-06T09:22:05Z</time>
      </trkpt>
      <trkpt lat="45.08355" lon="5.60841">
        <ele>1601</ele>
        <time>2010-06-06T09:22:06Z</time>
      </trkpt>
      <trkpt lat="45.08355" lon="5.60843">
        <ele>1601</ele>
        <time>2010-06-06T09:22:07Z</time>
      </trkpt>
      <trkpt lat="45.08355" lon="5.60845">
        <ele>1601</ele>
        <time>2010-06-06T09:22:08Z</time>
      </trkpt>
      <trkpt lat="45.08354" lon="5.60847">
        <ele>1601</ele>
        <time>2010-06-06T09:22:09Z</time>
      </trkpt>
      <trkpt lat="45.08353" lon="5.60848">
        <ele>1601</ele>
        <time>2010-06-06T09:22:10Z</time>
      </trkpt>
      <trkpt lat="45.08352" lon="5.60849">
        <ele>1601</ele>
        <time>2010-06-06T09:22:11Z</time>
      </trkpt>
      <trkpt lat="45.0835" lon="5.60851">
        <ele>1601</ele>
        <time>2010-06-06T09:22:12Z</time>
      </trkpt>
      <trkpt lat="45.08348" lon="5.60853">
        <ele>1601</ele>
        <time>2010-06-06T09:22:14Z</time>
      </trkpt>
      <trkpt lat="45.08347" lon="5.60856">
        <ele>1601</ele>
        <time>2010-06-06T09:22:16Z</time>
      </trkpt>
      <trkpt lat="45.08346" lon="5.60857">
        <ele>1601</ele>
        <time>2010-06-06T09:22:17Z</time>
      </trkpt>
      <trkpt lat="45.08345" lon="5.6086">
        <ele>1601</ele>
        <time>2010-06-06T09:22:19Z</time>
      </trkpt>
      <trkpt lat="45.08344" lon="5.60862">
        <ele>1601</ele>
        <time>2010-06-06T09:22:20Z</time>
      </trkpt>
      <trkpt lat="45.08343" lon="5.60864">
        <ele>1601</ele>
        <time>2010-06-06T09:22:22Z</time>
      </trkpt>
      <trkpt lat="45.08342" lon="5.60865">
        <ele>1602</ele>
        <time>2010-06-06T09:22:24Z</time>
      </trkpt>
      <trkpt lat="45.08341" lon="5.60866">
        <ele>1602</ele>
        <time>2010-06-06T09:22:25Z</time>
      </trkpt>
      <trkpt lat="45.08339" lon="5.60868">
        <ele>1602</ele>
        <time>2010-06-06T09:22:27Z</time>
      </trkpt>
      <trkpt lat="45.08338" lon="5.6087">
        <ele>1602</ele>
        <time>2010-06-06T09:22:28Z</time>
      </trkpt>
      <trkpt lat="45.08337" lon="5.60873">
        <ele>1603</ele>
        <time>2010-06-06T09:22:30Z</time>
      </trkpt>
      <trkpt lat="45.08336" lon="5.60875">
        <ele>1604</ele>
        <time>2010-06-06T09:22:32Z</time>
      </trkpt>
      <trkpt lat="45.08336" lon="5.60877">
        <ele>1605</ele>
        <time>2010-06-06T09:22:33Z</time>
      </trkpt>
      <trkpt lat="45.08334" lon="5.6088">
        <ele>1606</ele>
        <time>2010-06-06T09:22:35Z</time>
      </trkpt>
      <trkpt lat="45.08333" lon="5.60883">
        <ele>1606</ele>
        <time>2010-06-06T09:22:37Z</time>
      </trkpt>
      <trkpt lat="45.08332" lon="5.60885">
        <ele>1607</ele>
        <time>2010-06-06T09:22:39Z</time>
      </trkpt>
      <trkpt lat="45.08331" lon="5.60887">
        <ele>1607</ele>
        <time>2010-06-06T09:22:40Z</time>
      </trkpt>
      <trkpt lat="45.08331" lon="5.60889">
        <ele>1607</ele>
        <time>2010-06-06T09:22:41Z</time>
      </trkpt>
      <trkpt lat="45.08331" lon="5.6089">
        <ele>1607</ele>
        <time>2010-06-06T09:22:42Z</time>
      </trkpt>
      <trkpt lat="45.0833" lon="5.60893">
        <ele>1608</ele>
        <time>2010-06-06T09:22:44Z</time>
      </trkpt>
      <trkpt lat="45.0833" lon="5.60895">
        <ele>1608</ele>
        <time>2010-06-06T09:22:46Z</time>
      </trkpt>
      <trkpt lat="45.0833" lon="5.60897">
        <ele>1609</ele>
        <time>2010-06-06T09:22:48Z</time>
      </trkpt>
      <trkpt lat="45.0833" lon="5.60899">
        <ele>1609</ele>
        <time>2010-06-06T09:22:49Z</time>
      </trkpt>
      <trkpt lat="45.08329" lon="5.60901">
        <ele>1609</ele>
        <time>2010-06-06T09:22:50Z</time>
      </trkpt>
      <trkpt lat="45.08328" lon="5.60902">
        <ele>1610</ele>
        <time>2010-06-06T09:22:51Z</time>
      </trkpt>
      <trkpt lat="45.08328" lon="5.60904">
        <ele>1610</ele>
        <time>2010-06-06T09:22:52Z</time>
      </trkpt>
      <trkpt lat="45.08327" lon="5.60906">
        <ele>1610</ele>
        <time>2010-06-06T09:22:53Z</time>
      </trkpt>
      <trkpt lat="45.08327" lon="5.60907">
        <ele>1611</ele>
        <time>2010-06-06T09:22:54Z</time>
      </trkpt>
      <trkpt lat="45.08327" lon="5.60909">
        <ele>1611</ele>
        <time>2010-06-06T09:22:55Z</time>
      </trkpt>
      <trkpt lat="45.08327" lon="5.60911">
        <ele>1612</ele>
        <time>2010-06-06T09:22:56Z</time>
      </trkpt>
      <trkpt lat="45.08327" lon="5.60912">
        <ele>1612</ele>
        <time>2010-06-06T09:22:57Z</time>
      </trkpt>
      <trkpt lat="45.08328" lon="5.60915">
        <ele>1612</ele>
        <time>2010-06-06T09:22:58Z</time>
      </trkpt>
      <trkpt lat="45.08329" lon="5.60916">
        <ele>1612</ele>
        <time>2010-06-06T09:22:59Z</time>
      </trkpt>
      <trkpt lat="45.0833" lon="5.60919">
        <ele>1612</ele>
        <time>2010-06-06T09:23:01Z</time>
      </trkpt>
      <trkpt lat="45.0833" lon="5.60922">
        <ele>1613</ele>
        <time>2010-06-06T09:23:03Z</time>
      </trkpt>
      <trkpt lat="45.08329" lon="5.60924">
        <ele>1613</ele>
        <time>2010-06-06T09:23:04Z</time>
      </trkpt>
      <trkpt lat="45.08327" lon="5.60925">
        <ele>1614</ele>
        <time>2010-06-06T09:23:05Z</time>
      </trkpt>
      <trkpt lat="45.08326" lon="5.60927">
        <ele>1616</ele>
        <time>2010-06-06T09:23:07Z</time>
      </trkpt>
      <trkpt lat="45.08324" lon="5.6093">
        <ele>1618</ele>
        <time>2010-06-06T09:23:09Z</time>
      </trkpt>
      <trkpt lat="45.08323" lon="5.60931">
        <ele>1619</ele>
        <time>2010-06-06T09:23:10Z</time>
      </trkpt>
      <trkpt lat="45.08322" lon="5.60933">
        <ele>1620</ele>
        <time>2010-06-06T09:23:11Z</time>
      </trkpt>
      <trkpt lat="45.08321" lon="5.60934">
        <ele>1621</ele>
        <time>2010-06-06T09:23:12Z</time>
      </trkpt>
      <trkpt lat="45.0832" lon="5.60936">
        <ele>1622</ele>
        <time>2010-06-06T09:23:13Z</time>
      </trkpt>
      <trkpt lat="45.08318" lon="5.60937">
        <ele>1623</ele>
        <time>2010-06-06T09:23:14Z</time>
      </trkpt>
      <trkpt lat="45.08317" lon="5.60938">
        <ele>1624</ele>
        <time>2010-06-06T09:23:15Z</time>
      </trkpt>
      <trkpt lat="45.08315" lon="5.6094">
        <ele>1625</ele>
        <time>2010-06-06T09:23:16Z</time>
      </trkpt>
      <trkpt lat="45.08314" lon="5.60941">
        <ele>1626</ele>
        <time>2010-06-06T09:23:17Z</time>
      </trkpt>
      <trkpt lat="45.08312" lon="5.60944">
        <ele>1628</ele>
        <time>2010-06-06T09:23:19Z</time>
      </trkpt>
      <trkpt lat="45.08311" lon="5.60946">
        <ele>1630</ele>
        <time>2010-06-06T09:23:21Z</time>
      </trkpt>
      <trkpt lat="45.0831" lon="5.60947">
        <ele>1631</ele>
        <time>2010-06-06T09:23:22Z</time>
      </trkpt>
      <trkpt lat="45.08309" lon="5.60948">
        <ele>1632</ele>
        <time>2010-06-06T09:23:23Z</time>
      </trkpt>
      <trkpt lat="45.08307" lon="5.60951">
        <ele>1634</ele>
        <time>2010-06-06T09:23:25Z</time>
      </trkpt>
      <trkpt lat="45.08307" lon="5.60952">
        <ele>1635</ele>
        <time>2010-06-06T09:23:26Z</time>
      </trkpt>
      <trkpt lat="45.08305" lon="5.60954">
        <ele>1635</ele>
        <time>2010-06-06T09:23:28Z</time>
      </trkpt>
      <trkpt lat="45.08304" lon="5.60956">
        <ele>1635</ele>
        <time>2010-06-06T09:23:30Z</time>
      </trkpt>
      <trkpt lat="45.08302" lon="5.60957">
        <ele>1635</ele>
        <time>2010-06-06T09:23:32Z</time>
      </trkpt>
      <trkpt lat="45.083" lon="5.60961">
        <ele>1635</ele>
        <time>2010-06-06T09:23:34Z</time>
      </trkpt>
      <trkpt lat="45.08299" lon="5.60963">
        <ele>1635</ele>
        <time>2010-06-06T09:23:35Z</time>
      </trkpt>
      <trkpt lat="45.08299" lon="5.60965">
        <ele>1635</ele>
        <time>2010-06-06T09:23:36Z</time>
      </trkpt>
      <trkpt lat="45.08298" lon="5.60966">
        <ele>1635</ele>
        <time>2010-06-06T09:23:37Z</time>
      </trkpt>
      <trkpt lat="45.08297" lon="5.60968">
        <ele>1635</ele>
        <time>2010-06-06T09:23:39Z</time>
      </trkpt>
      <trkpt lat="45.08297" lon="5.6097">
        <ele>1635</ele>
        <time>2010-06-06T09:23:41Z</time>
      </trkpt>
      <trkpt lat="45.08294" lon="5.6097">
        <ele>1635</ele>
        <time>2010-06-06T09:23:43Z</time>
      </trkpt>
      <trkpt lat="45.08292" lon="5.60969">
        <ele>1635</ele>
        <time>2010-06-06T09:23:44Z</time>
      </trkpt>
      <trkpt lat="45.08291" lon="5.6097">
        <ele>1636</ele>
        <time>2010-06-06T09:23:46Z</time>
      </trkpt>
      <trkpt lat="45.08292" lon="5.60972">
        <ele>1641</ele>
        <time>2010-06-06T09:23:50Z</time>
      </trkpt>
      <trkpt lat="45.0829" lon="5.60974">
        <ele>1643</ele>
        <time>2010-06-06T09:23:52Z</time>
      </trkpt>
      <trkpt lat="45.08288" lon="5.60976">
        <ele>1645</ele>
        <time>2010-06-06T09:23:54Z</time>
      </trkpt>
      <trkpt lat="45.08287" lon="5.60978">
        <ele>1647</ele>
        <time>2010-06-06T09:23:56Z</time>
      </trkpt>
      <trkpt lat="45.08287" lon="5.6098">
        <ele>1650</ele>
        <time>2010-06-06T09:23:59Z</time>
      </trkpt>
      <trkpt lat="45.08287" lon="5.60981">
        <ele>1651</ele>
        <time>2010-06-06T09:24:00Z</time>
      </trkpt>
      <trkpt lat="45.08287" lon="5.60983">
        <ele>1652</ele>
        <time>2010-06-06T09:24:01Z</time>
      </trkpt>
      <trkpt lat="45.08288" lon="5.60985">
        <ele>1654</ele>
        <time>2010-06-06T09:24:03Z</time>
      </trkpt>
      <trkpt lat="45.08289" lon="5.60987">
        <ele>1655</ele>
        <time>2010-06-06T09:24:04Z</time>
      </trkpt>
      <trkpt lat="45.08288" lon="5.60988">
        <ele>1656</ele>
        <time>2010-06-06T09:24:05Z</time>
      </trkpt>
      <trkpt lat="45.08288" lon="5.6099">
        <ele>1657</ele>
        <time>2010-06-06T09:24:06Z</time>
      </trkpt>
      <trkpt lat="45.08288" lon="5.60992">
        <ele>1658</ele>
        <time>2010-06-06T09:24:07Z</time>
      </trkpt>
      <trkpt lat="45.08289" lon="5.60994">
        <ele>1658</ele>
        <time>2010-06-06T09:24:09Z</time>
      </trkpt>
      <trkpt lat="45.08287" lon="5.60994">
        <ele>1658</ele>
        <time>2010-06-06T09:24:10Z</time>
      </trkpt>
      <trkpt lat="45.08286" lon="5.60994">
        <ele>1658</ele>
        <time>2010-06-06T09:24:11Z</time>
      </trkpt>
      <trkpt lat="45.08284" lon="5.60994">
        <ele>1658</ele>
        <time>2010-06-06T09:24:13Z</time>
      </trkpt>
      <trkpt lat="45.08283" lon="5.60996">
        <ele>1658</ele>
        <time>2010-06-06T09:24:15Z</time>
      </trkpt>
      <trkpt lat="45.08281" lon="5.60997">
        <ele>1658</ele>
        <time>2010-06-06T09:24:17Z</time>
      </trkpt>
      <trkpt lat="45.08279" lon="5.60997">
        <ele>1658</ele>
        <time>2010-06-06T09:24:19Z</time>
      </trkpt>
      <trkpt lat="45.08278" lon="5.60997">
        <ele>1658</ele>
        <time>2010-06-06T09:24:21Z</time>
      </trkpt>
      <trkpt lat="45.08276" lon="5.60997">
        <ele>1658</ele>
        <time>2010-06-06T09:24:23Z</time>
      </trkpt>
      <trkpt lat="45.08274" lon="5.60999">
        <ele>1657</ele>
        <time>2010-06-06T09:24:25Z</time>
      </trkpt>
      <trkpt lat="45.08273" lon="5.61001">
        <ele>1657</ele>
        <time>2010-06-06T09:24:27Z</time>
      </trkpt>
      <trkpt lat="45.08272" lon="5.61003">
        <ele>1656</ele>
        <time>2010-06-06T09:24:28Z</time>
      </trkpt>
      <trkpt lat="45.08272" lon="5.61005">
        <ele>1656</ele>
        <time>2010-06-06T09:24:29Z</time>
      </trkpt>
      <trkpt lat="45.08273" lon="5.61004">
        <ele>1656</ele>
        <time>2010-06-06T09:24:32Z</time>
      </trkpt>
      <trkpt lat="45.08275" lon="5.61005">
        <ele>1656</ele>
        <time>2010-06-06T09:24:33Z</time>
      </trkpt>
      <trkpt lat="45.08276" lon="5.61006">
        <ele>1656</ele>
        <time>2010-06-06T09:24:34Z</time>
      </trkpt>
      <trkpt lat="45.08277" lon="5.61008">
        <ele>1656</ele>
        <time>2010-06-06T09:24:35Z</time>
      </trkpt>
      <trkpt lat="45.08279" lon="5.6101">
        <ele>1656</ele>
        <time>2010-06-06T09:24:37Z</time>
      </trkpt>
      <trkpt lat="45.08281" lon="5.61012">
        <ele>1656</ele>
        <time>2010-06-06T09:24:39Z</time>
      </trkpt>
      <trkpt lat="45.08282" lon="5.61015">
        <ele>1656</ele>
        <time>2010-06-06T09:24:41Z</time>
      </trkpt>
      <trkpt lat="45.08284" lon="5.61017">
        <ele>1656</ele>
        <time>2010-06-06T09:24:43Z</time>
      </trkpt>
      <trkpt lat="45.08284" lon="5.61019">
        <ele>1656</ele>
        <time>2010-06-06T09:24:45Z</time>
      </trkpt>
      <trkpt lat="45.08286" lon="5.6102">
        <ele>1656</ele>
        <time>2010-06-06T09:24:47Z</time>
      </trkpt>
      <trkpt lat="45.08286" lon="5.61022">
        <ele>1656</ele>
        <time>2010-06-06T09:24:51Z</time>
      </trkpt>
      <trkpt lat="45.08286" lon="5.61023">
        <ele>1658</ele>
        <time>2010-06-06T09:24:53Z</time>
      </trkpt>
      <trkpt lat="45.08285" lon="5.61026">
        <ele>1659</ele>
        <time>2010-06-06T09:24:55Z</time>
      </trkpt>
      <trkpt lat="45.08284" lon="5.61028">
        <ele>1660</ele>
        <time>2010-06-06T09:24:57Z</time>
      </trkpt>
      <trkpt lat="45.08282" lon="5.61028">
        <ele>1661</ele>
        <time>2010-06-06T09:24:59Z</time>
      </trkpt>
      <trkpt lat="45.08281" lon="5.6103">
        <ele>1661</ele>
        <time>2010-06-06T09:25:01Z</time>
      </trkpt>
      <trkpt lat="45.08279" lon="5.6103">
        <ele>1661</ele>
        <time>2010-06-06T09:25:03Z</time>
      </trkpt>
      <trkpt lat="45.08278" lon="5.61031">
        <ele>1661</ele>
        <time>2010-06-06T09:25:04Z</time>
      </trkpt>
      <trkpt lat="45.08275" lon="5.61032">
        <ele>1661</ele>
        <time>2010-06-06T09:25:06Z</time>
      </trkpt>
      <trkpt lat="45.08274" lon="5.61033">
        <ele>1661</ele>
        <time>2010-06-06T09:25:07Z</time>
      </trkpt>
      <trkpt lat="45.08272" lon="5.61034">
        <ele>1661</ele>
        <time>2010-06-06T09:25:09Z</time>
      </trkpt>
      <trkpt lat="45.08271" lon="5.61034">
        <ele>1661</ele>
        <time>2010-06-06T09:25:11Z</time>
      </trkpt>
      <trkpt lat="45.08269" lon="5.61035">
        <ele>1661</ele>
        <time>2010-06-06T09:25:15Z</time>
      </trkpt>
      <trkpt lat="45.08267" lon="5.61036">
        <ele>1661</ele>
        <time>2010-06-06T09:25:18Z</time>
      </trkpt>
      <trkpt lat="45.08266" lon="5.61036">
        <ele>1661</ele>
        <time>2010-06-06T09:25:20Z</time>
      </trkpt>
      <trkpt lat="45.08265" lon="5.61038">
        <ele>1661</ele>
        <time>2010-06-06T09:25:22Z</time>
      </trkpt>
      <trkpt lat="45.08264" lon="5.61038">
        <ele>1661</ele>
        <time>2010-06-06T09:25:24Z</time>
      </trkpt>
      <trkpt lat="45.08262" lon="5.61038">
        <ele>1661</ele>
        <time>2010-06-06T09:25:27Z</time>
      </trkpt>
      <trkpt lat="45.08263" lon="5.61041">
        <ele>1661</ele>
        <time>2010-06-06T09:25:29Z</time>
      </trkpt>
      <trkpt lat="45.08263" lon="5.61042">
        <ele>1661</ele>
        <time>2010-06-06T09:25:31Z</time>
      </trkpt>
      <trkpt lat="45.08261" lon="5.61043">
        <ele>1661</ele>
        <time>2010-06-06T09:25:33Z</time>
      </trkpt>
      <trkpt lat="45.0826" lon="5.61044">
        <ele>1661</ele>
        <time>2010-06-06T09:25:35Z</time>
      </trkpt>
      <trkpt lat="45.08259" lon="5.61044">
        <ele>1660</ele>
        <time>2010-06-06T09:25:37Z</time>
      </trkpt>
      <trkpt lat="45.08257" lon="5.61042">
        <ele>1659</ele>
        <time>2010-06-06T09:25:39Z</time>
      </trkpt>
      <trkpt lat="45.08256" lon="5.6104">
        <ele>1659</ele>
        <time>2010-06-06T09:25:41Z</time>
      </trkpt>
      <trkpt lat="45.08253" lon="5.61038">
        <ele>1659</ele>
        <time>2010-06-06T09:25:42Z</time>
      </trkpt>
      <trkpt lat="45.08251" lon="5.61037">
        <ele>1660</ele>
        <time>2010-06-06T09:25:43Z</time>
      </trkpt>
      <trkpt lat="45.0825" lon="5.61036">
        <ele>1661</ele>
        <time>2010-06-06T09:25:44Z</time>
      </trkpt>
      <trkpt lat="45.08248" lon="5.61037">
        <ele>1664</ele>
        <time>2010-06-06T09:25:47Z</time>
      </trkpt>
      <trkpt lat="45.08247" lon="5.61038">
        <ele>1667</ele>
        <time>2010-06-06T09:25:50Z</time>
      </trkpt>
      <trkpt lat="45.08246" lon="5.61039">
        <ele>1669</ele>
        <time>2010-06-06T09:25:52Z</time>
      </trkpt>
      <trkpt lat="45.08245" lon="5.61038">
        <ele>1669</ele>
        <time>2010-06-06T09:25:54Z</time>
      </trkpt>
      <trkpt lat="45.08243" lon="5.61038">
        <ele>1669</ele>
        <time>2010-06-06T09:25:56Z</time>
      </trkpt>
      <trkpt lat="45.08242" lon="5.6104">
        <ele>1669</ele>
        <time>2010-06-06T09:25:59Z</time>
      </trkpt>
      <trkpt lat="45.08241" lon="5.6104">
        <ele>1669</ele>
        <time>2010-06-06T09:26:02Z</time>
      </trkpt>
      <trkpt lat="45.0824" lon="5.61042">
        <ele>1669</ele>
        <time>2010-06-06T09:26:05Z</time>
      </trkpt>
      <trkpt lat="45.08238" lon="5.61044">
        <ele>1669</ele>
        <time>2010-06-06T09:26:07Z</time>
      </trkpt>
      <trkpt lat="45.08237" lon="5.61044">
        <ele>1669</ele>
        <time>2010-06-06T09:26:08Z</time>
      </trkpt>
      <trkpt lat="45.08236" lon="5.61044">
        <ele>1669</ele>
        <time>2010-06-06T09:26:10Z</time>
      </trkpt>
      <trkpt lat="45.08234" lon="5.61043">
        <ele>1669</ele>
        <time>2010-06-06T09:26:12Z</time>
      </trkpt>
      <trkpt lat="45.08232" lon="5.61045">
        <ele>1669</ele>
        <time>2010-06-06T09:26:14Z</time>
      </trkpt>
      <trkpt lat="45.0823" lon="5.61045">
        <ele>1669</ele>
        <time>2010-06-06T09:26:16Z</time>
      </trkpt>
      <trkpt lat="45.08229" lon="5.61046">
        <ele>1669</ele>
        <time>2010-06-06T09:26:18Z</time>
      </trkpt>
      <trkpt lat="45.08228" lon="5.61047">
        <ele>1669</ele>
        <time>2010-06-06T09:26:20Z</time>
      </trkpt>
      <trkpt lat="45.08226" lon="5.61047">
        <ele>1669</ele>
        <time>2010-06-06T09:26:22Z</time>
      </trkpt>
      <trkpt lat="45.08225" lon="5.61048">
        <ele>1670</ele>
        <time>2010-06-06T09:26:25Z</time>
      </trkpt>
      <trkpt lat="45.08225" lon="5.61051">
        <ele>1671</ele>
        <time>2010-06-06T09:26:27Z</time>
      </trkpt>
      <trkpt lat="45.08226" lon="5.61052">
        <ele>1671</ele>
        <time>2010-06-06T09:26:29Z</time>
      </trkpt>
      <trkpt lat="45.08225" lon="5.61055">
        <ele>1672</ele>
        <time>2010-06-06T09:26:31Z</time>
      </trkpt>
      <trkpt lat="45.08224" lon="5.61057">
        <ele>1673</ele>
        <time>2010-06-06T09:26:33Z</time>
      </trkpt>
      <trkpt lat="45.08224" lon="5.61059">
        <ele>1674</ele>
        <time>2010-06-06T09:26:35Z</time>
      </trkpt>
      <trkpt lat="45.08226" lon="5.6106">
        <ele>1675</ele>
        <time>2010-06-06T09:26:38Z</time>
      </trkpt>
      <trkpt lat="45.08226" lon="5.61063">
        <ele>1675</ele>
        <time>2010-06-06T09:26:40Z</time>
      </trkpt>
      <trkpt lat="45.08227" lon="5.61064">
        <ele>1677</ele>
        <time>2010-06-06T09:26:43Z</time>
      </trkpt>
      <trkpt lat="45.08229" lon="5.61066">
        <ele>1677</ele>
        <time>2010-06-06T09:26:45Z</time>
      </trkpt>
      <trkpt lat="45.08231" lon="5.61068">
        <ele>1678</ele>
        <time>2010-06-06T09:26:47Z</time>
      </trkpt>
      <trkpt lat="45.08232" lon="5.61069">
        <ele>1679</ele>
        <time>2010-06-06T09:26:49Z</time>
      </trkpt>
      <trkpt lat="45.08233" lon="5.61071">
        <ele>1680</ele>
        <time>2010-06-06T09:26:52Z</time>
      </trkpt>
      <trkpt lat="45.08235" lon="5.61071">
        <ele>1682</ele>
        <time>2010-06-06T09:26:56Z</time>
      </trkpt>
      <trkpt lat="45.08235" lon="5.61073">
        <ele>1683</ele>
        <time>2010-06-06T09:26:58Z</time>
      </trkpt>
      <trkpt lat="45.08235" lon="5.61075">
        <ele>1685</ele>
        <time>2010-06-06T09:27:00Z</time>
      </trkpt>
      <trkpt lat="45.08235" lon="5.61077">
        <ele>1686</ele>
        <time>2010-06-06T09:27:02Z</time>
      </trkpt>
      <trkpt lat="45.08234" lon="5.61079">
        <ele>1687</ele>
        <time>2010-06-06T09:27:04Z</time>
      </trkpt>
      <trkpt lat="45.08236" lon="5.6108">
        <ele>1689</ele>
        <time>2010-06-06T09:27:06Z</time>
      </trkpt>
      <trkpt lat="45.08236" lon="5.61077">
        <ele>1691</ele>
        <time>2010-06-06T09:27:08Z</time>
      </trkpt>
      <trkpt lat="45.08237" lon="5.61075">
        <ele>1693</ele>
        <time>2010-06-06T09:27:10Z</time>
      </trkpt>
      <trkpt lat="45.08238" lon="5.61073">
        <ele>1695</ele>
        <time>2010-06-06T09:27:12Z</time>
      </trkpt>
      <trkpt lat="45.08238" lon="5.61071">
        <ele>1697</ele>
        <time>2010-06-06T09:27:13Z</time>
      </trkpt>
      <trkpt lat="45.0824" lon="5.61071">
        <ele>1699</ele>
        <time>2010-06-06T09:27:14Z</time>
      </trkpt>
      <trkpt lat="45.08241" lon="5.6107">
        <ele>1701</ele>
        <time>2010-06-06T09:27:15Z</time>
      </trkpt>
      <trkpt lat="45.08242" lon="5.61069">
        <ele>1703</ele>
        <time>2010-06-06T09:27:16Z</time>
      </trkpt>
      <trkpt lat="45.08243" lon="5.61068">
        <ele>1706</ele>
        <time>2010-06-06T09:27:18Z</time>
      </trkpt>
      <trkpt lat="45.08245" lon="5.61067">
        <ele>1709</ele>
        <time>2010-06-06T09:27:20Z</time>
      </trkpt>
      <trkpt lat="45.08248" lon="5.61068">
        <ele>1711</ele>
        <time>2010-06-06T09:27:22Z</time>
      </trkpt>
      <trkpt lat="45.08251" lon="5.61069">
        <ele>1712</ele>
        <time>2010-06-06T09:27:23Z</time>
      </trkpt>
      <trkpt lat="45.08253" lon="5.61069">
        <ele>1713</ele>
        <time>2010-06-06T09:27:24Z</time>
      </trkpt>
      <trkpt lat="45.08256" lon="5.61071">
        <ele>1714</ele>
        <time>2010-06-06T09:27:25Z</time>
      </trkpt>
      <trkpt lat="45.08258" lon="5.61071">
        <ele>1714</ele>
        <time>2010-06-06T09:27:26Z</time>
      </trkpt>
      <trkpt lat="45.0826" lon="5.6107">
        <ele>1714</ele>
        <time>2010-06-06T09:27:27Z</time>
      </trkpt>
      <trkpt lat="45.0826" lon="5.61068">
        <ele>1714</ele>
        <time>2010-06-06T09:27:28Z</time>
      </trkpt>
      <trkpt lat="45.08263" lon="5.61066">
        <ele>1714</ele>
        <time>2010-06-06T09:27:30Z</time>
      </trkpt>
      <trkpt lat="45.08265" lon="5.61065">
        <ele>1714</ele>
        <time>2010-06-06T09:27:31Z</time>
      </trkpt>
      <trkpt lat="45.08267" lon="5.61065">
        <ele>1714</ele>
        <time>2010-06-06T09:27:32Z</time>
      </trkpt>
      <trkpt lat="45.08269" lon="5.61063">
        <ele>1714</ele>
        <time>2010-06-06T09:27:33Z</time>
      </trkpt>
      <trkpt lat="45.08272" lon="5.61063">
        <ele>1714</ele>
        <time>2010-06-06T09:27:34Z</time>
      </trkpt>
      <trkpt lat="45.08274" lon="5.61063">
        <ele>1714</ele>
        <time>2010-06-06T09:27:35Z</time>
      </trkpt>
      <trkpt lat="45.08277" lon="5.61063">
        <ele>1714</ele>
        <time>2010-06-06T09:27:36Z</time>
      </trkpt>
      <trkpt lat="45.08279" lon="5.61063">
        <ele>1714</ele>
        <time>2010-06-06T09:27:37Z</time>
      </trkpt>
      <trkpt lat="45.08282" lon="5.61062">
        <ele>1714</ele>
        <time>2010-06-06T09:27:38Z</time>
      </trkpt>
      <trkpt lat="45.08286" lon="5.61062">
        <ele>1714</ele>
        <time>2010-06-06T09:27:39Z</time>
      </trkpt>
      <trkpt lat="45.08289" lon="5.61064">
        <ele>1713</ele>
        <time>2010-06-06T09:27:40Z</time>
      </trkpt>
      <trkpt lat="45.08292" lon="5.61065">
        <ele>1712</ele>
        <time>2010-06-06T09:27:41Z</time>
      </trkpt>
      <trkpt lat="45.08295" lon="5.61065">
        <ele>1711</ele>
        <time>2010-06-06T09:27:42Z</time>
      </trkpt>
      <trkpt lat="45.08297" lon="5.61064">
        <ele>1710</ele>
        <time>2010-06-06T09:27:43Z</time>
      </trkpt>
      <trkpt lat="45.08299" lon="5.61065">
        <ele>1709</ele>
        <time>2010-06-06T09:27:44Z</time>
      </trkpt>
      <trkpt lat="45.08302" lon="5.61066">
        <ele>1708</ele>
        <time>2010-06-06T09:27:45Z</time>
      </trkpt>
      <trkpt lat="45.08304" lon="5.61067">
        <ele>1707</ele>
        <time>2010-06-06T09:27:46Z</time>
      </trkpt>
      <trkpt lat="45.08306" lon="5.61069">
        <ele>1706</ele>
        <time>2010-06-06T09:27:47Z</time>
      </trkpt>
      <trkpt lat="45.08309" lon="5.6107">
        <ele>1705</ele>
        <time>2010-06-06T09:27:48Z</time>
      </trkpt>
      <trkpt lat="45.0831" lon="5.61071">
        <ele>1704</ele>
        <time>2010-06-06T09:27:49Z</time>
      </trkpt>
      <trkpt lat="45.08312" lon="5.61072">
        <ele>1703</ele>
        <time>2010-06-06T09:27:50Z</time>
      </trkpt>
      <trkpt lat="45.08313" lon="5.61072">
        <ele>1701</ele>
        <time>2010-06-06T09:27:52Z</time>
      </trkpt>
      <trkpt lat="45.08314" lon="5.61074">
        <ele>1699</ele>
        <time>2010-06-06T09:27:54Z</time>
      </trkpt>
      <trkpt lat="45.08315" lon="5.61077">
        <ele>1697</ele>
        <time>2010-06-06T09:27:56Z</time>
      </trkpt>
      <trkpt lat="45.08315" lon="5.61079">
        <ele>1697</ele>
        <time>2010-06-06T09:27:57Z</time>
      </trkpt>
      <trkpt lat="45.08317" lon="5.61081">
        <ele>1697</ele>
        <time>2010-06-06T09:27:59Z</time>
      </trkpt>
      <trkpt lat="45.08318" lon="5.61082">
        <ele>1697</ele>
        <time>2010-06-06T09:28:01Z</time>
      </trkpt>
      <trkpt lat="45.0832" lon="5.61083">
        <ele>1697</ele>
        <time>2010-06-06T09:28:03Z</time>
      </trkpt>
      <trkpt lat="45.08321" lon="5.61083">
        <ele>1697</ele>
        <time>2010-06-06T09:28:04Z</time>
      </trkpt>
      <trkpt lat="45.08323" lon="5.61084">
        <ele>1697</ele>
        <time>2010-06-06T09:28:06Z</time>
      </trkpt>
      <trkpt lat="45.08325" lon="5.61086">
        <ele>1697</ele>
        <time>2010-06-06T09:28:08Z</time>
      </trkpt>
      <trkpt lat="45.08327" lon="5.61088">
        <ele>1697</ele>
        <time>2010-06-06T09:28:10Z</time>
      </trkpt>
      <trkpt lat="45.08328" lon="5.6109">
        <ele>1697</ele>
        <time>2010-06-06T09:28:12Z</time>
      </trkpt>
      <trkpt lat="45.08329" lon="5.61092">
        <ele>1697</ele>
        <time>2010-06-06T09:28:13Z</time>
      </trkpt>
      <trkpt lat="45.08329" lon="5.61094">
        <ele>1697</ele>
        <time>2010-06-06T09:28:14Z</time>
      </trkpt>
      <trkpt lat="45.0833" lon="5.61097">
        <ele>1697</ele>
        <time>2010-06-06T09:28:15Z</time>
      </trkpt>
      <trkpt lat="45.0833" lon="5.611">
        <ele>1697</ele>
        <time>2010-06-06T09:28:16Z</time>
      </trkpt>
      <trkpt lat="45.08331" lon="5.61103">
        <ele>1697</ele>
        <time>2010-06-06T09:28:17Z</time>
      </trkpt>
      <trkpt lat="45.08331" lon="5.61106">
        <ele>1697</ele>
        <time>2010-06-06T09:28:18Z</time>
      </trkpt>
      <trkpt lat="45.08332" lon="5.61109">
        <ele>1697</ele>
        <time>2010-06-06T09:28:19Z</time>
      </trkpt>
      <trkpt lat="45.08332" lon="5.61112">
        <ele>1697</ele>
        <time>2010-06-06T09:28:20Z</time>
      </trkpt>
      <trkpt lat="45.08333" lon="5.61115">
        <ele>1697</ele>
        <time>2010-06-06T09:28:21Z</time>
      </trkpt>
      <trkpt lat="45.08333" lon="5.61118">
        <ele>1697</ele>
        <time>2010-06-06T09:28:22Z</time>
      </trkpt>
      <trkpt lat="45.08333" lon="5.61121">
        <ele>1697</ele>
        <time>2010-06-06T09:28:23Z</time>
      </trkpt>
      <trkpt lat="45.08333" lon="5.61124">
        <ele>1697</ele>
        <time>2010-06-06T09:28:24Z</time>
      </trkpt>
      <trkpt lat="45.08333" lon="5.61127">
        <ele>1697</ele>
        <time>2010-06-06T09:28:25Z</time>
      </trkpt>
      <trkpt lat="45.08334" lon="5.6113">
        <ele>1697</ele>
        <time>2010-06-06T09:28:26Z</time>
      </trkpt>
      <trkpt lat="45.08334" lon="5.61133">
        <ele>1697</ele>
        <time>2010-06-06T09:28:27Z</time>
      </trkpt>
      <trkpt lat="45.08334" lon="5.61136">
        <ele>1697</ele>
        <time>2010-06-06T09:28:28Z</time>
      </trkpt>
      <trkpt lat="45.08334" lon="5.61139">
        <ele>1697</ele>
        <time>2010-06-06T09:28:29Z</time>
      </trkpt>
      <trkpt lat="45.08335" lon="5.61142">
        <ele>1697</ele>
        <time>2010-06-06T09:28:30Z</time>
      </trkpt>
      <trkpt lat="45.08335" lon="5.61144">
        <ele>1697</ele>
        <time>2010-06-06T09:28:31Z</time>
      </trkpt>
      <trkpt lat="45.08336" lon="5.61146">
        <ele>1698</ele>
        <time>2010-06-06T09:28:32Z</time>
      </trkpt>
      <trkpt lat="45.08337" lon="5.61148">
        <ele>1698</ele>
        <time>2010-06-06T09:28:33Z</time>
      </trkpt>
      <trkpt lat="45.08337" lon="5.61151">
        <ele>1698</ele>
        <time>2010-06-06T09:28:34Z</time>
      </trkpt>
      <trkpt lat="45.08338" lon="5.61153">
        <ele>1699</ele>
        <time>2010-06-06T09:28:35Z</time>
      </trkpt>
      <trkpt lat="45.08338" lon="5.61156">
        <ele>1699</ele>
        <time>2010-06-06T09:28:36Z</time>
      </trkpt>
      <trkpt lat="45.08339" lon="5.61159">
        <ele>1700</ele>
        <time>2010-06-06T09:28:37Z</time>
      </trkpt>
      <trkpt lat="45.08339" lon="5.61162">
        <ele>1700</ele>
        <time>2010-06-06T09:28:38Z</time>
      </trkpt>
      <trkpt lat="45.08339" lon="5.61166">
        <ele>1700</ele>
        <time>2010-06-06T09:28:39Z</time>
      </trkpt>
      <trkpt lat="45.08339" lon="5.61169">
        <ele>1701</ele>
        <time>2010-06-06T09:28:40Z</time>
      </trkpt>
      <trkpt lat="45.08339" lon="5.61172">
        <ele>1701</ele>
        <time>2010-06-06T09:28:41Z</time>
      </trkpt>
      <trkpt lat="45.0834" lon="5.61174">
        <ele>1702</ele>
        <time>2010-06-06T09:28:42Z</time>
      </trkpt>
      <trkpt lat="45.0834" lon="5.61177">
        <ele>1702</ele>
        <time>2010-06-06T09:28:43Z</time>
      </trkpt>
      <trkpt lat="45.0834" lon="5.61181">
        <ele>1703</ele>
        <time>2010-06-06T09:28:44Z</time>
      </trkpt>
      <trkpt lat="45.08341" lon="5.61184">
        <ele>1703</ele>
        <time>2010-06-06T09:28:45Z</time>
      </trkpt>
      <trkpt lat="45.08341" lon="5.61187">
        <ele>1704</ele>
        <time>2010-06-06T09:28:46Z</time>
      </trkpt>
      <trkpt lat="45.08341" lon="5.61189">
        <ele>1704</ele>
        <time>2010-06-06T09:28:47Z</time>
      </trkpt>
      <trkpt lat="45.08341" lon="5.61191">
        <ele>1705</ele>
        <time>2010-06-06T09:28:48Z</time>
      </trkpt>
      <trkpt lat="45.08342" lon="5.61193">
        <ele>1706</ele>
        <time>2010-06-06T09:28:50Z</time>
      </trkpt>
      <trkpt lat="45.08343" lon="5.61196">
        <ele>1706</ele>
        <time>2010-06-06T09:28:52Z</time>
      </trkpt>
      <trkpt lat="45.08344" lon="5.61198">
        <ele>1706</ele>
        <time>2010-06-06T09:28:53Z</time>
      </trkpt>
      <trkpt lat="45.08345" lon="5.612">
        <ele>1707</ele>
        <time>2010-06-06T09:28:55Z</time>
      </trkpt>
      <trkpt lat="45.08345" lon="5.61202">
        <ele>1707</ele>
        <time>2010-06-06T09:28:56Z</time>
      </trkpt>
      <trkpt lat="45.08345" lon="5.61204">
        <ele>1707</ele>
        <time>2010-06-06T09:28:57Z</time>
      </trkpt>
      <trkpt lat="45.08345" lon="5.61206">
        <ele>1707</ele>
        <time>2010-06-06T09:28:58Z</time>
      </trkpt>
      <trkpt lat="45.08344" lon="5.61207">
        <ele>1708</ele>
        <time>2010-06-06T09:28:59Z</time>
      </trkpt>
      <trkpt lat="45.08344" lon="5.61209">
        <ele>1708</ele>
        <time>2010-06-06T09:29:01Z</time>
      </trkpt>
      <trkpt lat="45.08344" lon="5.6121">
        <ele>1708</ele>
        <time>2010-06-06T09:29:01Z</time>
      </trkpt>
      <trkpt lat="45.08343" lon="5.61212">
        <ele>1708</ele>
        <time>2010-06-06T09:29:03Z</time>
      </trkpt>
      <trkpt lat="45.08343" lon="5.61214">
        <ele>1708</ele>
        <time>2010-06-06T09:29:03Z</time>
      </trkpt>
      <trkpt lat="45.08343" lon="5.61215">
        <ele>1708</ele>
        <time>2010-06-06T09:29:04Z</time>
      </trkpt>
      <trkpt lat="45.08342" lon="5.61217">
        <ele>1708</ele>
        <time>2010-06-06T09:29:05Z</time>
      </trkpt>
      <trkpt lat="45.08342" lon="5.61219">
        <ele>1708</ele>
        <time>2010-06-06T09:29:06Z</time>
      </trkpt>
      <trkpt lat="45.08341" lon="5.61221">
        <ele>1709</ele>
        <time>2010-06-06T09:29:08Z</time>
      </trkpt>
      <trkpt lat="45.08341" lon="5.61223">
        <ele>1709</ele>
        <time>2010-06-06T09:29:09Z</time>
      </trkpt>
      <trkpt lat="45.08341" lon="5.61225">
        <ele>1709</ele>
        <time>2010-06-06T09:29:11Z</time>
      </trkpt>
      <trkpt lat="45.08341" lon="5.61227">
        <ele>1710</ele>
        <time>2010-06-06T09:29:12Z</time>
      </trkpt>
      <trkpt lat="45.0834" lon="5.6123">
        <ele>1710</ele>
        <time>2010-06-06T09:29:14Z</time>
      </trkpt>
      <trkpt lat="45.08339" lon="5.61232">
        <ele>1711</ele>
        <time>2010-06-06T09:29:16Z</time>
      </trkpt>
      <trkpt lat="45.08338" lon="5.61234">
        <ele>1711</ele>
        <time>2010-06-06T09:29:18Z</time>
      </trkpt>
      <trkpt lat="45.08338" lon="5.61236">
        <ele>1711</ele>
        <time>2010-06-06T09:29:20Z</time>
      </trkpt>
      <trkpt lat="45.08338" lon="5.61238">
        <ele>1711</ele>
        <time>2010-06-06T09:29:22Z</time>
      </trkpt>
      <trkpt lat="45.08339" lon="5.61241">
        <ele>1712</ele>
        <time>2010-06-06T09:29:24Z</time>
      </trkpt>
      <trkpt lat="45.08338" lon="5.61243">
        <ele>1712</ele>
        <time>2010-06-06T09:29:26Z</time>
      </trkpt>
      <trkpt lat="45.08337" lon="5.61246">
        <ele>1712</ele>
        <time>2010-06-06T09:29:28Z</time>
      </trkpt>
      <trkpt lat="45.08337" lon="5.61247">
        <ele>1712</ele>
        <time>2010-06-06T09:29:29Z</time>
      </trkpt>
      <trkpt lat="45.08336" lon="5.6125">
        <ele>1713</ele>
        <time>2010-06-06T09:29:31Z</time>
      </trkpt>
      <trkpt lat="45.08336" lon="5.61252">
        <ele>1713</ele>
        <time>2010-06-06T09:29:33Z</time>
      </trkpt>
      <trkpt lat="45.08336" lon="5.61254">
        <ele>1714</ele>
        <time>2010-06-06T09:29:34Z</time>
      </trkpt>
      <trkpt lat="45.08335" lon="5.61256">
        <ele>1714</ele>
        <time>2010-06-06T09:29:35Z</time>
      </trkpt>
      <trkpt lat="45.08335" lon="5.61257">
        <ele>1714</ele>
        <time>2010-06-06T09:29:36Z</time>
      </trkpt>
      <trkpt lat="45.08335" lon="5.61259">
        <ele>1714</ele>
        <time>2010-06-06T09:29:37Z</time>
      </trkpt>
      <trkpt lat="45.08335" lon="5.61262">
        <ele>1715</ele>
        <time>2010-06-06T09:29:39Z</time>
      </trkpt>
      <trkpt lat="45.08335" lon="5.61264">
        <ele>1715</ele>
        <time>2010-06-06T09:29:41Z</time>
      </trkpt>
      <trkpt lat="45.08334" lon="5.61267">
        <ele>1716</ele>
        <time>2010-06-06T09:29:43Z</time>
      </trkpt>
      <trkpt lat="45.08333" lon="5.6127">
        <ele>1716</ele>
        <time>2010-06-06T09:29:45Z</time>
      </trkpt>
      <trkpt lat="45.08333" lon="5.61271">
        <ele>1716</ele>
        <time>2010-06-06T09:29:46Z</time>
      </trkpt>
      <trkpt lat="45.08331" lon="5.61274">
        <ele>1717</ele>
        <time>2010-06-06T09:29:48Z</time>
      </trkpt>
      <trkpt lat="45.08331" lon="5.61275">
        <ele>1717</ele>
        <time>2010-06-06T09:29:49Z</time>
      </trkpt>
      <trkpt lat="45.0833" lon="5.61278">
        <ele>1717</ele>
        <time>2010-06-06T09:29:51Z</time>
      </trkpt>
      <trkpt lat="45.0833" lon="5.6128">
        <ele>1718</ele>
        <time>2010-06-06T09:29:53Z</time>
      </trkpt>
      <trkpt lat="45.0833" lon="5.61283">
        <ele>1718</ele>
        <time>2010-06-06T09:29:55Z</time>
      </trkpt>
      <trkpt lat="45.08329" lon="5.61285">
        <ele>1719</ele>
        <time>2010-06-06T09:29:56Z</time>
      </trkpt>
      <trkpt lat="45.08329" lon="5.61286">
        <ele>1719</ele>
        <time>2010-06-06T09:29:57Z</time>
      </trkpt>
      <trkpt lat="45.08329" lon="5.61289">
        <ele>1720</ele>
        <time>2010-06-06T09:29:59Z</time>
      </trkpt>
      <trkpt lat="45.08329" lon="5.61291">
        <ele>1720</ele>
        <time>2010-06-06T09:30:01Z</time>
      </trkpt>
      <trkpt lat="45.08329" lon="5.61293">
        <ele>1721</ele>
        <time>2010-06-06T09:30:02Z</time>
      </trkpt>
      <trkpt lat="45.08328" lon="5.61294">
        <ele>1721</ele>
        <time>2010-06-06T09:30:03Z</time>
      </trkpt>
      <trkpt lat="45.08328" lon="5.61297">
        <ele>1722</ele>
        <time>2010-06-06T09:30:05Z</time>
      </trkpt>
      <trkpt lat="45.08327" lon="5.613">
        <ele>1722</ele>
        <time>2010-06-06T09:30:07Z</time>
      </trkpt>
      <trkpt lat="45.08327" lon="5.61302">
        <ele>1723</ele>
        <time>2010-06-06T09:30:09Z</time>
      </trkpt>
      <trkpt lat="45.08328" lon="5.61305">
        <ele>1723</ele>
        <time>2010-06-06T09:30:11Z</time>
      </trkpt>
      <trkpt lat="45.08328" lon="5.61307">
        <ele>1724</ele>
        <time>2010-06-06T09:30:13Z</time>
      </trkpt>
      <trkpt lat="45.08327" lon="5.61309">
        <ele>1725</ele>
        <time>2010-06-06T09:30:15Z</time>
      </trkpt>
      <trkpt lat="45.08326" lon="5.61312">
        <ele>1725</ele>
        <time>2010-06-06T09:30:17Z</time>
      </trkpt>
      <trkpt lat="45.08326" lon="5.61313">
        <ele>1726</ele>
        <time>2010-06-06T09:30:19Z</time>
      </trkpt>
      <trkpt lat="45.08326" lon="5.61316">
        <ele>1726</ele>
        <time>2010-06-06T09:30:21Z</time>
      </trkpt>
      <trkpt lat="45.08325" lon="5.61319">
        <ele>1726</ele>
        <time>2010-06-06T09:30:23Z</time>
      </trkpt>
      <trkpt lat="45.08325" lon="5.6132">
        <ele>1727</ele>
        <time>2010-06-06T09:30:24Z</time>
      </trkpt>
      <trkpt lat="45.08325" lon="5.61323">
        <ele>1727</ele>
        <time>2010-06-06T09:30:26Z</time>
      </trkpt>
      <trkpt lat="45.08324" lon="5.61324">
        <ele>1728</ele>
        <time>2010-06-06T09:30:27Z</time>
      </trkpt>
      <trkpt lat="45.08325" lon="5.61327">
        <ele>1728</ele>
        <time>2010-06-06T09:30:29Z</time>
      </trkpt>
      <trkpt lat="45.08327" lon="5.61329">
        <ele>1729</ele>
        <time>2010-06-06T09:30:31Z</time>
      </trkpt>
      <trkpt lat="45.08329" lon="5.61332">
        <ele>1729</ele>
        <time>2010-06-06T09:30:33Z</time>
      </trkpt>
      <trkpt lat="45.08329" lon="5.61334">
        <ele>1729</ele>
        <time>2010-06-06T09:30:34Z</time>
      </trkpt>
      <trkpt lat="45.0833" lon="5.61335">
        <ele>1729</ele>
        <time>2010-06-06T09:30:35Z</time>
      </trkpt>
      <trkpt lat="45.08331" lon="5.61337">
        <ele>1730</ele>
        <time>2010-06-06T09:30:36Z</time>
      </trkpt>
      <trkpt lat="45.08332" lon="5.6134">
        <ele>1730</ele>
        <time>2010-06-06T09:30:38Z</time>
      </trkpt>
      <trkpt lat="45.08333" lon="5.61342">
        <ele>1731</ele>
        <time>2010-06-06T09:30:40Z</time>
      </trkpt>
      <trkpt lat="45.08335" lon="5.61345">
        <ele>1731</ele>
        <time>2010-06-06T09:30:42Z</time>
      </trkpt>
      <trkpt lat="45.08337" lon="5.61347">
        <ele>1731</ele>
        <time>2010-06-06T09:30:44Z</time>
      </trkpt>
      <trkpt lat="45.08338" lon="5.6135">
        <ele>1731</ele>
        <time>2010-06-06T09:30:46Z</time>
      </trkpt>
      <trkpt lat="45.08339" lon="5.61351">
        <ele>1732</ele>
        <time>2010-06-06T09:30:47Z</time>
      </trkpt>
      <trkpt lat="45.0834" lon="5.61352">
        <ele>1732</ele>
        <time>2010-06-06T09:30:48Z</time>
      </trkpt>
      <trkpt lat="45.08342" lon="5.61353">
        <ele>1732</ele>
        <time>2010-06-06T09:30:49Z</time>
      </trkpt>
      <trkpt lat="45.08344" lon="5.61354">
        <ele>1733</ele>
        <time>2010-06-06T09:30:51Z</time>
      </trkpt>
      <trkpt lat="45.08345" lon="5.61354">
        <ele>1733</ele>
        <time>2010-06-06T09:30:52Z</time>
      </trkpt>
      <trkpt lat="45.08346" lon="5.61354">
        <ele>1733</ele>
        <time>2010-06-06T09:30:53Z</time>
      </trkpt>
      <trkpt lat="45.08348" lon="5.61354">
        <ele>1734</ele>
        <time>2010-06-06T09:30:54Z</time>
      </trkpt>
      <trkpt lat="45.08349" lon="5.61354">
        <ele>1734</ele>
        <time>2010-06-06T09:30:55Z</time>
      </trkpt>
      <trkpt lat="45.0835" lon="5.61355">
        <ele>1734</ele>
        <time>2010-06-06T09:30:56Z</time>
      </trkpt>
      <trkpt lat="45.08352" lon="5.61355">
        <ele>1734</ele>
        <time>2010-06-06T09:30:57Z</time>
      </trkpt>
      <trkpt lat="45.08353" lon="5.61356">
        <ele>1735</ele>
        <time>2010-06-06T09:30:58Z</time>
      </trkpt>
      <trkpt lat="45.08355" lon="5.61356">
        <ele>1735</ele>
        <time>2010-06-06T09:30:59Z</time>
      </trkpt>
      <trkpt lat="45.08356" lon="5.61357">
        <ele>1735</ele>
        <time>2010-06-06T09:31:00Z</time>
      </trkpt>
      <trkpt lat="45.08358" lon="5.61358">
        <ele>1735</ele>
        <time>2010-06-06T09:31:02Z</time>
      </trkpt>
      <trkpt lat="45.0836" lon="5.61359">
        <ele>1736</ele>
        <time>2010-06-06T09:31:05Z</time>
      </trkpt>
      <trkpt lat="45.08361" lon="5.61359">
        <ele>1737</ele>
        <time>2010-06-06T09:31:07Z</time>
      </trkpt>
      <trkpt lat="45.08363" lon="5.6136">
        <ele>1738</ele>
        <time>2010-06-06T09:31:09Z</time>
      </trkpt>
      <trkpt lat="45.08365" lon="5.6136">
        <ele>1738</ele>
        <time>2010-06-06T09:31:10Z</time>
      </trkpt>
      <trkpt lat="45.08366" lon="5.6136">
        <ele>1739</ele>
        <time>2010-06-06T09:31:11Z</time>
      </trkpt>
      <trkpt lat="45.08367" lon="5.6136">
        <ele>1739</ele>
        <time>2010-06-06T09:31:12Z</time>
      </trkpt>
      <trkpt lat="45.08368" lon="5.6136">
        <ele>1739</ele>
        <time>2010-06-06T09:31:13Z</time>
      </trkpt>
      <trkpt lat="45.0837" lon="5.61359">
        <ele>1740</ele>
        <time>2010-06-06T09:31:15Z</time>
      </trkpt>
      <trkpt lat="45.08372" lon="5.61358">
        <ele>1741</ele>
        <time>2010-06-06T09:31:17Z</time>
      </trkpt>
      <trkpt lat="45.08374" lon="5.61358">
        <ele>1741</ele>
        <time>2010-06-06T09:31:18Z</time>
      </trkpt>
      <trkpt lat="45.08375" lon="5.61357">
        <ele>1741</ele>
        <time>2010-06-06T09:31:19Z</time>
      </trkpt>
      <trkpt lat="45.08377" lon="5.61356">
        <ele>1742</ele>
        <time>2010-06-06T09:31:21Z</time>
      </trkpt>
      <trkpt lat="45.08379" lon="5.61356">
        <ele>1742</ele>
        <time>2010-06-06T09:31:22Z</time>
      </trkpt>
      <trkpt lat="45.08381" lon="5.61358">
        <ele>1742</ele>
        <time>2010-06-06T09:31:24Z</time>
      </trkpt>
      <trkpt lat="45.08382" lon="5.6136">
        <ele>1743</ele>
        <time>2010-06-06T09:31:26Z</time>
      </trkpt>
      <trkpt lat="45.08383" lon="5.61362">
        <ele>1743</ele>
        <time>2010-06-06T09:31:28Z</time>
      </trkpt>
      <trkpt lat="45.08383" lon="5.61364">
        <ele>1743</ele>
        <time>2010-06-06T09:31:29Z</time>
      </trkpt>
      <trkpt lat="45.08385" lon="5.61366">
        <ele>1744</ele>
        <time>2010-06-06T09:31:32Z</time>
      </trkpt>
      <trkpt lat="45.08386" lon="5.61367">
        <ele>1744</ele>
        <time>2010-06-06T09:31:33Z</time>
      </trkpt>
      <trkpt lat="45.08387" lon="5.6137">
        <ele>1744</ele>
        <time>2010-06-06T09:31:35Z</time>
      </trkpt>
      <trkpt lat="45.08389" lon="5.61372">
        <ele>1744</ele>
        <time>2010-06-06T09:31:37Z</time>
      </trkpt>
      <trkpt lat="45.08391" lon="5.61375">
        <ele>1745</ele>
        <time>2010-06-06T09:31:39Z</time>
      </trkpt>
      <trkpt lat="45.08392" lon="5.61377">
        <ele>1745</ele>
        <time>2010-06-06T09:31:41Z</time>
      </trkpt>
      <trkpt lat="45.08394" lon="5.6138">
        <ele>1745</ele>
        <time>2010-06-06T09:31:43Z</time>
      </trkpt>
      <trkpt lat="45.08394" lon="5.61381">
        <ele>1745</ele>
        <time>2010-06-06T09:31:44Z</time>
      </trkpt>
      <trkpt lat="45.08395" lon="5.61383">
        <ele>1746</ele>
        <time>2010-06-06T09:31:45Z</time>
      </trkpt>
      <trkpt lat="45.08395" lon="5.61385">
        <ele>1746</ele>
        <time>2010-06-06T09:31:46Z</time>
      </trkpt>
      <trkpt lat="45.08397" lon="5.61387">
        <ele>1746</ele>
        <time>2010-06-06T09:31:48Z</time>
      </trkpt>
      <trkpt lat="45.08397" lon="5.61389">
        <ele>1747</ele>
        <time>2010-06-06T09:31:49Z</time>
      </trkpt>
      <trkpt lat="45.08397" lon="5.61392">
        <ele>1747</ele>
        <time>2010-06-06T09:31:51Z</time>
      </trkpt>
      <trkpt lat="45.08399" lon="5.61394">
        <ele>1747</ele>
        <time>2010-06-06T09:31:53Z</time>
      </trkpt>
      <trkpt lat="45.084" lon="5.61395">
        <ele>1748</ele>
        <time>2010-06-06T09:31:55Z</time>
      </trkpt>
      <trkpt lat="45.08401" lon="5.61395">
        <ele>1748</ele>
        <time>2010-06-06T09:31:58Z</time>
      </trkpt>
      <trkpt lat="45.08403" lon="5.61394">
        <ele>1749</ele>
        <time>2010-06-06T09:32:00Z</time>
      </trkpt>
      <trkpt lat="45.08405" lon="5.61394">
        <ele>1749</ele>
        <time>2010-06-06T09:32:01Z</time>
      </trkpt>
      <trkpt lat="45.08407" lon="5.61395">
        <ele>1749</ele>
        <time>2010-06-06T09:32:03Z</time>
      </trkpt>
      <trkpt lat="45.08408" lon="5.61396">
        <ele>1750</ele>
        <time>2010-06-06T09:32:05Z</time>
      </trkpt>
      <trkpt lat="45.0841" lon="5.61397">
        <ele>1750</ele>
        <time>2010-06-06T09:32:07Z</time>
      </trkpt>
      <trkpt lat="45.08412" lon="5.61397">
        <ele>1751</ele>
        <time>2010-06-06T09:32:09Z</time>
      </trkpt>
      <trkpt lat="45.08413" lon="5.61397">
        <ele>1751</ele>
        <time>2010-06-06T09:32:10Z</time>
      </trkpt>
      <trkpt lat="45.08414" lon="5.61397">
        <ele>1752</ele>
        <time>2010-06-06T09:32:11Z</time>
      </trkpt>
      <trkpt lat="45.08416" lon="5.61397">
        <ele>1752</ele>
        <time>2010-06-06T09:32:12Z</time>
      </trkpt>
      <trkpt lat="45.08417" lon="5.61397">
        <ele>1752</ele>
        <time>2010-06-06T09:32:13Z</time>
      </trkpt>
      <trkpt lat="45.08419" lon="5.61398">
        <ele>1753</ele>
        <time>2010-06-06T09:32:15Z</time>
      </trkpt>
      <trkpt lat="45.08421" lon="5.61398">
        <ele>1754</ele>
        <time>2010-06-06T09:32:17Z</time>
      </trkpt>
      <trkpt lat="45.08422" lon="5.61398">
        <ele>1754</ele>
        <time>2010-06-06T09:32:18Z</time>
      </trkpt>
      <trkpt lat="45.08423" lon="5.61399">
        <ele>1754</ele>
        <time>2010-06-06T09:32:19Z</time>
      </trkpt>
      <trkpt lat="45.08425" lon="5.614">
        <ele>1755</ele>
        <time>2010-06-06T09:32:21Z</time>
      </trkpt>
      <trkpt lat="45.08426" lon="5.614">
        <ele>1755</ele>
        <time>2010-06-06T09:32:22Z</time>
      </trkpt>
      <trkpt lat="45.08428" lon="5.61401">
        <ele>1755</ele>
        <time>2010-06-06T09:32:23Z</time>
      </trkpt>
      <trkpt lat="45.0843" lon="5.61402">
        <ele>1756</ele>
        <time>2010-06-06T09:32:25Z</time>
      </trkpt>
      <trkpt lat="45.08431" lon="5.61402">
        <ele>1757</ele>
        <time>2010-06-06T09:32:27Z</time>
      </trkpt>
      <trkpt lat="45.08433" lon="5.61402">
        <ele>1757</ele>
        <time>2010-06-06T09:32:29Z</time>
      </trkpt>
      <trkpt lat="45.08434" lon="5.61402">
        <ele>1758</ele>
        <time>2010-06-06T09:32:30Z</time>
      </trkpt>
      <trkpt lat="45.08437" lon="5.61403">
        <ele>1758</ele>
        <time>2010-06-06T09:32:32Z</time>
      </trkpt>
      <trkpt lat="45.08438" lon="5.61404">
        <ele>1759</ele>
        <time>2010-06-06T09:32:33Z</time>
      </trkpt>
      <trkpt lat="45.0844" lon="5.61405">
        <ele>1759</ele>
        <time>2010-06-06T09:32:35Z</time>
      </trkpt>
      <trkpt lat="45.08441" lon="5.61405">
        <ele>1759</ele>
        <time>2010-06-06T09:32:36Z</time>
      </trkpt>
      <trkpt lat="45.08442" lon="5.61405">
        <ele>1760</ele>
        <time>2010-06-06T09:32:37Z</time>
      </trkpt>
      <trkpt lat="45.08444" lon="5.61405">
        <ele>1760</ele>
        <time>2010-06-06T09:32:38Z</time>
      </trkpt>
      <trkpt lat="45.08446" lon="5.61406">
        <ele>1760</ele>
        <time>2010-06-06T09:32:40Z</time>
      </trkpt>
      <trkpt lat="45.08447" lon="5.61406">
        <ele>1761</ele>
        <time>2010-06-06T09:32:41Z</time>
      </trkpt>
      <trkpt lat="45.08448" lon="5.61406">
        <ele>1761</ele>
        <time>2010-06-06T09:32:42Z</time>
      </trkpt>
      <trkpt lat="45.0845" lon="5.61407">
        <ele>1761</ele>
        <time>2010-06-06T09:32:43Z</time>
      </trkpt>
      <trkpt lat="45.08451" lon="5.61407">
        <ele>1762</ele>
        <time>2010-06-06T09:32:44Z</time>
      </trkpt>
      <trkpt lat="45.08453" lon="5.61407">
        <ele>1762</ele>
        <time>2010-06-06T09:32:46Z</time>
      </trkpt>
      <trkpt lat="45.08454" lon="5.61407">
        <ele>1763</ele>
        <time>2010-06-06T09:32:48Z</time>
      </trkpt>
      <trkpt lat="45.08455" lon="5.61407">
        <ele>1763</ele>
        <time>2010-06-06T09:32:49Z</time>
      </trkpt>
      <trkpt lat="45.08457" lon="5.61407">
        <ele>1764</ele>
        <time>2010-06-06T09:32:51Z</time>
      </trkpt>
      <trkpt lat="45.08459" lon="5.61407">
        <ele>1764</ele>
        <time>2010-06-06T09:32:53Z</time>
      </trkpt>
      <trkpt lat="45.0846" lon="5.61409">
        <ele>1765</ele>
        <time>2010-06-06T09:32:56Z</time>
      </trkpt>
      <trkpt lat="45.08461" lon="5.6141">
        <ele>1765</ele>
        <time>2010-06-06T09:32:58Z</time>
      </trkpt>
      <trkpt lat="45.08462" lon="5.61412">
        <ele>1766</ele>
        <time>2010-06-06T09:33:00Z</time>
      </trkpt>
      <trkpt lat="45.08463" lon="5.61413">
        <ele>1767</ele>
        <time>2010-06-06T09:33:02Z</time>
      </trkpt>
      <trkpt lat="45.08465" lon="5.61414">
        <ele>1767</ele>
        <time>2010-06-06T09:33:04Z</time>
      </trkpt>
      <trkpt lat="45.08466" lon="5.61416">
        <ele>1767</ele>
        <time>2010-06-06T09:33:06Z</time>
      </trkpt>
      <trkpt lat="45.08468" lon="5.61417">
        <ele>1768</ele>
        <time>2010-06-06T09:33:08Z</time>
      </trkpt>
      <trkpt lat="45.08469" lon="5.61418">
        <ele>1768</ele>
        <time>2010-06-06T09:33:10Z</time>
      </trkpt>
      <trkpt lat="45.08471" lon="5.61419">
        <ele>1769</ele>
        <time>2010-06-06T09:33:12Z</time>
      </trkpt>
      <trkpt lat="45.08472" lon="5.61419">
        <ele>1769</ele>
        <time>2010-06-06T09:33:13Z</time>
      </trkpt>
      <trkpt lat="45.08474" lon="5.61418">
        <ele>1770</ele>
        <time>2010-06-06T09:33:15Z</time>
      </trkpt>
      <trkpt lat="45.08476" lon="5.61418">
        <ele>1770</ele>
        <time>2010-06-06T09:33:17Z</time>
      </trkpt>
      <trkpt lat="45.08478" lon="5.61418">
        <ele>1770</ele>
        <time>2010-06-06T09:33:19Z</time>
      </trkpt>
      <trkpt lat="45.0848" lon="5.61417">
        <ele>1771</ele>
        <time>2010-06-06T09:33:21Z</time>
      </trkpt>
      <trkpt lat="45.08481" lon="5.61416">
        <ele>1771</ele>
        <time>2010-06-06T09:33:23Z</time>
      </trkpt>
      <trkpt lat="45.08483" lon="5.61415">
        <ele>1772</ele>
        <time>2010-06-06T09:33:25Z</time>
      </trkpt>
      <trkpt lat="45.08485" lon="5.61415">
        <ele>1772</ele>
        <time>2010-06-06T09:33:27Z</time>
      </trkpt>
      <trkpt lat="45.08487" lon="5.61414">
        <ele>1773</ele>
        <time>2010-06-06T09:33:29Z</time>
      </trkpt>
      <trkpt lat="45.08489" lon="5.61413">
        <ele>1773</ele>
        <time>2010-06-06T09:33:31Z</time>
      </trkpt>
      <trkpt lat="45.08491" lon="5.61413">
        <ele>1773</ele>
        <time>2010-06-06T09:33:33Z</time>
      </trkpt>
      <trkpt lat="45.08491" lon="5.61415">
        <ele>1773</ele>
        <time>2010-06-06T09:33:35Z</time>
      </trkpt>
      <trkpt lat="45.08491" lon="5.61417">
        <ele>1774</ele>
        <time>2010-06-06T09:33:36Z</time>
      </trkpt>
      <trkpt lat="45.08491" lon="5.61418">
        <ele>1774</ele>
        <time>2010-06-06T09:33:37Z</time>
      </trkpt>
      <trkpt lat="45.08492" lon="5.61421">
        <ele>1774</ele>
        <time>2010-06-06T09:33:39Z</time>
      </trkpt>
      <trkpt lat="45.08493" lon="5.61423">
        <ele>1775</ele>
        <time>2010-06-06T09:33:41Z</time>
      </trkpt>
      <trkpt lat="45.08494" lon="5.61425">
        <ele>1775</ele>
        <time>2010-06-06T09:33:43Z</time>
      </trkpt>
      <trkpt lat="45.08495" lon="5.61426">
        <ele>1776</ele>
        <time>2010-06-06T09:33:45Z</time>
      </trkpt>
      <trkpt lat="45.08497" lon="5.61427">
        <ele>1776</ele>
        <time>2010-06-06T09:33:47Z</time>
      </trkpt>
      <trkpt lat="45.08498" lon="5.61428">
        <ele>1776</ele>
        <time>2010-06-06T09:33:49Z</time>
      </trkpt>
      <trkpt lat="45.085" lon="5.61428">
        <ele>1777</ele>
        <time>2010-06-06T09:33:51Z</time>
      </trkpt>
      <trkpt lat="45.08501" lon="5.61429">
        <ele>1778</ele>
        <time>2010-06-06T09:33:53Z</time>
      </trkpt>
      <trkpt lat="45.08503" lon="5.6143">
        <ele>1779</ele>
        <time>2010-06-06T09:33:55Z</time>
      </trkpt>
      <trkpt lat="45.08504" lon="5.61432">
        <ele>1780</ele>
        <time>2010-06-06T09:33:58Z</time>
      </trkpt>
      <trkpt lat="45.08505" lon="5.61434">
        <ele>1781</ele>
        <time>2010-06-06T09:34:00Z</time>
      </trkpt>
      <trkpt lat="45.08506" lon="5.61435">
        <ele>1781</ele>
        <time>2010-06-06T09:34:02Z</time>
      </trkpt>
      <trkpt lat="45.08508" lon="5.61436">
        <ele>1782</ele>
        <time>2010-06-06T09:34:04Z</time>
      </trkpt>
      <trkpt lat="45.08509" lon="5.61437">
        <ele>1783</ele>
        <time>2010-06-06T09:34:06Z</time>
      </trkpt>
      <trkpt lat="45.0851" lon="5.61437">
        <ele>1784</ele>
        <time>2010-06-06T09:34:08Z</time>
      </trkpt>
      <trkpt lat="45.08512" lon="5.61436">
        <ele>1784</ele>
        <time>2010-06-06T09:34:10Z</time>
      </trkpt>
      <trkpt lat="45.08513" lon="5.61435">
        <ele>1785</ele>
        <time>2010-06-06T09:34:12Z</time>
      </trkpt>
      <trkpt lat="45.08516" lon="5.61435">
        <ele>1786</ele>
        <time>2010-06-06T09:34:14Z</time>
      </trkpt>
      <trkpt lat="45.08517" lon="5.61435">
        <ele>1786</ele>
        <time>2010-06-06T09:34:15Z</time>
      </trkpt>
      <trkpt lat="45.08518" lon="5.61435">
        <ele>1786</ele>
        <time>2010-06-06T09:34:16Z</time>
      </trkpt>
      <trkpt lat="45.08519" lon="5.61435">
        <ele>1787</ele>
        <time>2010-06-06T09:34:17Z</time>
      </trkpt>
      <trkpt lat="45.08521" lon="5.61435">
        <ele>1787</ele>
        <time>2010-06-06T09:34:19Z</time>
      </trkpt>
      <trkpt lat="45.08522" lon="5.61435">
        <ele>1787</ele>
        <time>2010-06-06T09:34:21Z</time>
      </trkpt>
      <trkpt lat="45.08524" lon="5.61435">
        <ele>1787</ele>
        <time>2010-06-06T09:34:23Z</time>
      </trkpt>
      <trkpt lat="45.08525" lon="5.61435">
        <ele>1788</ele>
        <time>2010-06-06T09:34:25Z</time>
      </trkpt>
      <trkpt lat="45.08527" lon="5.61436">
        <ele>1788</ele>
        <time>2010-06-06T09:34:27Z</time>
      </trkpt>
      <trkpt lat="45.08528" lon="5.61436">
        <ele>1788</ele>
        <time>2010-06-06T09:34:29Z</time>
      </trkpt>
      <trkpt lat="45.0853" lon="5.61436">
        <ele>1789</ele>
        <time>2010-06-06T09:34:31Z</time>
      </trkpt>
      <trkpt lat="45.08532" lon="5.61435">
        <ele>1790</ele>
        <time>2010-06-06T09:34:33Z</time>
      </trkpt>
      <trkpt lat="45.08534" lon="5.61435">
        <ele>1791</ele>
        <time>2010-06-06T09:34:35Z</time>
      </trkpt>
      <trkpt lat="45.08535" lon="5.61436">
        <ele>1792</ele>
        <time>2010-06-06T09:34:37Z</time>
      </trkpt>
      <trkpt lat="45.08536" lon="5.61436">
        <ele>1793</ele>
        <time>2010-06-06T09:34:39Z</time>
      </trkpt>
      <trkpt lat="45.08537" lon="5.61437">
        <ele>1793</ele>
        <time>2010-06-06T09:34:41Z</time>
      </trkpt>
      <trkpt lat="45.08539" lon="5.61437">
        <ele>1794</ele>
        <time>2010-06-06T09:34:43Z</time>
      </trkpt>
      <trkpt lat="45.08541" lon="5.61438">
        <ele>1794</ele>
        <time>2010-06-06T09:34:45Z</time>
      </trkpt>
      <trkpt lat="45.08542" lon="5.61438">
        <ele>1795</ele>
        <time>2010-06-06T09:34:47Z</time>
      </trkpt>
      <trkpt lat="45.08543" lon="5.61439">
        <ele>1795</ele>
        <time>2010-06-06T09:34:49Z</time>
      </trkpt>
      <trkpt lat="45.08545" lon="5.6144">
        <ele>1796</ele>
        <time>2010-06-06T09:34:52Z</time>
      </trkpt>
      <trkpt lat="45.08546" lon="5.6144">
        <ele>1797</ele>
        <time>2010-06-06T09:34:55Z</time>
      </trkpt>
      <trkpt lat="45.08548" lon="5.6144">
        <ele>1798</ele>
        <time>2010-06-06T09:34:57Z</time>
      </trkpt>
      <trkpt lat="45.0855" lon="5.6144">
        <ele>1798</ele>
        <time>2010-06-06T09:34:59Z</time>
      </trkpt>
      <trkpt lat="45.08551" lon="5.6144">
        <ele>1799</ele>
        <time>2010-06-06T09:35:01Z</time>
      </trkpt>
      <trkpt lat="45.08553" lon="5.61441">
        <ele>1799</ele>
        <time>2010-06-06T09:35:03Z</time>
      </trkpt>
      <trkpt lat="45.08554" lon="5.61442">
        <ele>1800</ele>
        <time>2010-06-06T09:35:06Z</time>
      </trkpt>
      <trkpt lat="45.08555" lon="5.61443">
        <ele>1800</ele>
        <time>2010-06-06T09:35:08Z</time>
      </trkpt>
      <trkpt lat="45.08556" lon="5.61445">
        <ele>1800</ele>
        <time>2010-06-06T09:35:10Z</time>
      </trkpt>
      <trkpt lat="45.08557" lon="5.61445">
        <ele>1801</ele>
        <time>2010-06-06T09:35:13Z</time>
      </trkpt>
      <trkpt lat="45.08559" lon="5.61445">
        <ele>1801</ele>
        <time>2010-06-06T09:35:14Z</time>
      </trkpt>
      <trkpt lat="45.0856" lon="5.61444">
        <ele>1802</ele>
        <time>2010-06-06T09:35:16Z</time>
      </trkpt>
      <trkpt lat="45.08562" lon="5.61443">
        <ele>1803</ele>
        <time>2010-06-06T09:35:18Z</time>
      </trkpt>
      <trkpt lat="45.08564" lon="5.61443">
        <ele>1804</ele>
        <time>2010-06-06T09:35:20Z</time>
      </trkpt>
      <trkpt lat="45.08565" lon="5.61442">
        <ele>1805</ele>
        <time>2010-06-06T09:35:22Z</time>
      </trkpt>
      <trkpt lat="45.08567" lon="5.61441">
        <ele>1806</ele>
        <time>2010-06-06T09:35:25Z</time>
      </trkpt>
      <trkpt lat="45.08569" lon="5.61439">
        <ele>1806</ele>
        <time>2010-06-06T09:35:27Z</time>
      </trkpt>
      <trkpt lat="45.0857" lon="5.61438">
        <ele>1806</ele>
        <time>2010-06-06T09:35:29Z</time>
      </trkpt>
      <trkpt lat="45.08572" lon="5.61437">
        <ele>1807</ele>
        <time>2010-06-06T09:35:31Z</time>
      </trkpt>
      <trkpt lat="45.08573" lon="5.61436">
        <ele>1807</ele>
        <time>2010-06-06T09:35:33Z</time>
      </trkpt>
      <trkpt lat="45.08575" lon="5.61435">
        <ele>1807</ele>
        <time>2010-06-06T09:35:35Z</time>
      </trkpt>
      <trkpt lat="45.08576" lon="5.61434">
        <ele>1808</ele>
        <time>2010-06-06T09:35:37Z</time>
      </trkpt>
      <trkpt lat="45.08578" lon="5.61433">
        <ele>1809</ele>
        <time>2010-06-06T09:35:40Z</time>
      </trkpt>
      <trkpt lat="45.0858" lon="5.61432">
        <ele>1809</ele>
        <time>2010-06-06T09:35:42Z</time>
      </trkpt>
      <trkpt lat="45.08581" lon="5.61433">
        <ele>1810</ele>
        <time>2010-06-06T09:35:44Z</time>
      </trkpt>
      <trkpt lat="45.08583" lon="5.61434">
        <ele>1810</ele>
        <time>2010-06-06T09:35:46Z</time>
      </trkpt>
      <trkpt lat="45.08584" lon="5.61436">
        <ele>1811</ele>
        <time>2010-06-06T09:35:48Z</time>
      </trkpt>
      <trkpt lat="45.08585" lon="5.61438">
        <ele>1811</ele>
        <time>2010-06-06T09:35:50Z</time>
      </trkpt>
      <trkpt lat="45.08586" lon="5.61438">
        <ele>1812</ele>
        <time>2010-06-06T09:35:52Z</time>
      </trkpt>
      <trkpt lat="45.08589" lon="5.61437">
        <ele>1813</ele>
        <time>2010-06-06T09:35:54Z</time>
      </trkpt>
      <trkpt lat="45.0859" lon="5.61439">
        <ele>1813</ele>
        <time>2010-06-06T09:35:56Z</time>
      </trkpt>
      <trkpt lat="45.0859" lon="5.6144">
        <ele>1814</ele>
        <time>2010-06-06T09:35:57Z</time>
      </trkpt>
      <trkpt lat="45.0859" lon="5.61442">
        <ele>1814</ele>
        <time>2010-06-06T09:35:59Z</time>
      </trkpt>
      <trkpt lat="45.08589" lon="5.61445">
        <ele>1814</ele>
        <time>2010-06-06T09:36:01Z</time>
      </trkpt>
      <trkpt lat="45.0859" lon="5.61447">
        <ele>1815</ele>
        <time>2010-06-06T09:36:03Z</time>
      </trkpt>
      <trkpt lat="45.0859" lon="5.61448">
        <ele>1815</ele>
        <time>2010-06-06T09:36:04Z</time>
      </trkpt>
      <trkpt lat="45.0859" lon="5.6145">
        <ele>1816</ele>
        <time>2010-06-06T09:36:06Z</time>
      </trkpt>
      <trkpt lat="45.08591" lon="5.61452">
        <ele>1816</ele>
        <time>2010-06-06T09:36:08Z</time>
      </trkpt>
      <trkpt lat="45.08592" lon="5.61453">
        <ele>1817</ele>
        <time>2010-06-06T09:36:10Z</time>
      </trkpt>
      <trkpt lat="45.08594" lon="5.61454">
        <ele>1818</ele>
        <time>2010-06-06T09:36:12Z</time>
      </trkpt>
      <trkpt lat="45.08596" lon="5.61456">
        <ele>1819</ele>
        <time>2010-06-06T09:36:15Z</time>
      </trkpt>
      <trkpt lat="45.08597" lon="5.61456">
        <ele>1819</ele>
        <time>2010-06-06T09:36:17Z</time>
      </trkpt>
      <trkpt lat="45.08599" lon="5.61456">
        <ele>1819</ele>
        <time>2010-06-06T09:36:19Z</time>
      </trkpt>
      <trkpt lat="45.086" lon="5.61456">
        <ele>1820</ele>
        <time>2010-06-06T09:36:21Z</time>
      </trkpt>
      <trkpt lat="45.08602" lon="5.61457">
        <ele>1821</ele>
        <time>2010-06-06T09:36:23Z</time>
      </trkpt>
      <trkpt lat="45.08603" lon="5.61458">
        <ele>1822</ele>
        <time>2010-06-06T09:36:25Z</time>
      </trkpt>
      <trkpt lat="45.08604" lon="5.61458">
        <ele>1823</ele>
        <time>2010-06-06T09:36:27Z</time>
      </trkpt>
      <trkpt lat="45.08606" lon="5.61458">
        <ele>1823</ele>
        <time>2010-06-06T09:36:29Z</time>
      </trkpt>
      <trkpt lat="45.08608" lon="5.61458">
        <ele>1824</ele>
        <time>2010-06-06T09:36:31Z</time>
      </trkpt>
      <trkpt lat="45.08609" lon="5.61458">
        <ele>1825</ele>
        <time>2010-06-06T09:36:33Z</time>
      </trkpt>
      <trkpt lat="45.08611" lon="5.61458">
        <ele>1825</ele>
        <time>2010-06-06T09:36:35Z</time>
      </trkpt>
      <trkpt lat="45.08613" lon="5.61458">
        <ele>1826</ele>
        <time>2010-06-06T09:36:37Z</time>
      </trkpt>
      <trkpt lat="45.08615" lon="5.61458">
        <ele>1826</ele>
        <time>2010-06-06T09:36:39Z</time>
      </trkpt>
      <trkpt lat="45.08617" lon="5.6146">
        <ele>1827</ele>
        <time>2010-06-06T09:36:41Z</time>
      </trkpt>
      <trkpt lat="45.08618" lon="5.61462">
        <ele>1828</ele>
        <time>2010-06-06T09:36:43Z</time>
      </trkpt>
      <trkpt lat="45.08619" lon="5.61464">
        <ele>1828</ele>
        <time>2010-06-06T09:36:45Z</time>
      </trkpt>
      <trkpt lat="45.0862" lon="5.61465">
        <ele>1829</ele>
        <time>2010-06-06T09:36:47Z</time>
      </trkpt>
      <trkpt lat="45.08622" lon="5.61467">
        <ele>1829</ele>
        <time>2010-06-06T09:36:49Z</time>
      </trkpt>
      <trkpt lat="45.08622" lon="5.61469">
        <ele>1829</ele>
        <time>2010-06-06T09:36:51Z</time>
      </trkpt>
      <trkpt lat="45.08621" lon="5.61471">
        <ele>1830</ele>
        <time>2010-06-06T09:36:53Z</time>
      </trkpt>
      <trkpt lat="45.0862" lon="5.61472">
        <ele>1830</ele>
        <time>2010-06-06T09:36:55Z</time>
      </trkpt>
      <trkpt lat="45.08619" lon="5.61474">
        <ele>1830</ele>
        <time>2010-06-06T09:36:58Z</time>
      </trkpt>
      <trkpt lat="45.08618" lon="5.61476">
        <ele>1831</ele>
        <time>2010-06-06T09:37:00Z</time>
      </trkpt>
      <trkpt lat="45.08617" lon="5.61477">
        <ele>1831</ele>
        <time>2010-06-06T09:37:02Z</time>
      </trkpt>
      <trkpt lat="45.08616" lon="5.61477">
        <ele>1832</ele>
        <time>2010-06-06T09:37:04Z</time>
      </trkpt>
      <trkpt lat="45.08614" lon="5.61479">
        <ele>1832</ele>
        <time>2010-06-06T09:37:07Z</time>
      </trkpt>
      <trkpt lat="45.08613" lon="5.6148">
        <ele>1833</ele>
        <time>2010-06-06T09:37:10Z</time>
      </trkpt>
      <trkpt lat="45.08611" lon="5.61479">
        <ele>1834</ele>
        <time>2010-06-06T09:37:12Z</time>
      </trkpt>
      <trkpt lat="45.08609" lon="5.6148">
        <ele>1834</ele>
        <time>2010-06-06T09:37:14Z</time>
      </trkpt>
      <trkpt lat="45.08607" lon="5.61481">
        <ele>1834</ele>
        <time>2010-06-06T09:37:16Z</time>
      </trkpt>
      <trkpt lat="45.08606" lon="5.61482">
        <ele>1835</ele>
        <time>2010-06-06T09:37:18Z</time>
      </trkpt>
      <trkpt lat="45.08604" lon="5.61483">
        <ele>1835</ele>
        <time>2010-06-06T09:37:20Z</time>
      </trkpt>
      <trkpt lat="45.08603" lon="5.61483">
        <ele>1836</ele>
        <time>2010-06-06T09:37:22Z</time>
      </trkpt>
      <trkpt lat="45.08601" lon="5.61484">
        <ele>1837</ele>
        <time>2010-06-06T09:37:24Z</time>
      </trkpt>
      <trkpt lat="45.08602" lon="5.61486">
        <ele>1838</ele>
        <time>2010-06-06T09:37:27Z</time>
      </trkpt>
      <trkpt lat="45.08603" lon="5.61488">
        <ele>1839</ele>
        <time>2010-06-06T09:37:29Z</time>
      </trkpt>
      <trkpt lat="45.08604" lon="5.6149">
        <ele>1839</ele>
        <time>2010-06-06T09:37:31Z</time>
      </trkpt>
      <trkpt lat="45.08603" lon="5.61492">
        <ele>1840</ele>
        <time>2010-06-06T09:37:33Z</time>
      </trkpt>
      <trkpt lat="45.08603" lon="5.61495">
        <ele>1840</ele>
        <time>2010-06-06T09:37:36Z</time>
      </trkpt>
      <trkpt lat="45.08603" lon="5.61496">
        <ele>1841</ele>
        <time>2010-06-06T09:37:38Z</time>
      </trkpt>
      <trkpt lat="45.08605" lon="5.61496">
        <ele>1841</ele>
        <time>2010-06-06T09:37:40Z</time>
      </trkpt>
      <trkpt lat="45.08607" lon="5.61497">
        <ele>1841</ele>
        <time>2010-06-06T09:37:43Z</time>
      </trkpt>
      <trkpt lat="45.08607" lon="5.61499">
        <ele>1841</ele>
        <time>2010-06-06T09:37:45Z</time>
      </trkpt>
      <trkpt lat="45.08606" lon="5.61501">
        <ele>1842</ele>
        <time>2010-06-06T09:37:48Z</time>
      </trkpt>
      <trkpt lat="45.08606" lon="5.61503">
        <ele>1843</ele>
        <time>2010-06-06T09:37:51Z</time>
      </trkpt>
      <trkpt lat="45.08606" lon="5.61505">
        <ele>1843</ele>
        <time>2010-06-06T09:37:53Z</time>
      </trkpt>
      <trkpt lat="45.08606" lon="5.61507">
        <ele>1844</ele>
        <time>2010-06-06T09:37:57Z</time>
      </trkpt>
      <trkpt lat="45.08604" lon="5.61506">
        <ele>1844</ele>
        <time>2010-06-06T09:38:00Z</time>
      </trkpt>
      <trkpt lat="45.08603" lon="5.61506">
        <ele>1844</ele>
        <time>2010-06-06T09:38:02Z</time>
      </trkpt>
      <trkpt lat="45.08602" lon="5.61507">
        <ele>1844</ele>
        <time>2010-06-06T09:38:04Z</time>
      </trkpt>
      <trkpt lat="45.08601" lon="5.61509">
        <ele>1845</ele>
        <time>2010-06-06T09:38:06Z</time>
      </trkpt>
      <trkpt lat="45.086" lon="5.61511">
        <ele>1845</ele>
        <time>2010-06-06T09:38:07Z</time>
      </trkpt>
      <trkpt lat="45.086" lon="5.61514">
        <ele>1846</ele>
        <time>2010-06-06T09:38:09Z</time>
      </trkpt>
      <trkpt lat="45.086" lon="5.61516">
        <ele>1847</ele>
        <time>2010-06-06T09:38:11Z</time>
      </trkpt>
      <trkpt lat="45.086" lon="5.61518">
        <ele>1847</ele>
        <time>2010-06-06T09:38:13Z</time>
      </trkpt>
      <trkpt lat="45.08601" lon="5.6152">
        <ele>1848</ele>
        <time>2010-06-06T09:38:15Z</time>
      </trkpt>
      <trkpt lat="45.08601" lon="5.61522">
        <ele>1848</ele>
        <time>2010-06-06T09:38:17Z</time>
      </trkpt>
      <trkpt lat="45.08603" lon="5.61523">
        <ele>1849</ele>
        <time>2010-06-06T09:38:20Z</time>
      </trkpt>
      <trkpt lat="45.08604" lon="5.61524">
        <ele>1849</ele>
        <time>2010-06-06T09:38:22Z</time>
      </trkpt>
      <trkpt lat="45.08605" lon="5.61524">
        <ele>1850</ele>
        <time>2010-06-06T09:38:24Z</time>
      </trkpt>
      <trkpt lat="45.08607" lon="5.61525">
        <ele>1851</ele>
        <time>2010-06-06T09:38:27Z</time>
      </trkpt>
      <trkpt lat="45.08608" lon="5.61525">
        <ele>1852</ele>
        <time>2010-06-06T09:38:30Z</time>
      </trkpt>
      <trkpt lat="45.08609" lon="5.61526">
        <ele>1852</ele>
        <time>2010-06-06T09:38:32Z</time>
      </trkpt>
      <trkpt lat="45.0861" lon="5.61528">
        <ele>1853</ele>
        <time>2010-06-06T09:38:34Z</time>
      </trkpt>
      <trkpt lat="45.08611" lon="5.61529">
        <ele>1854</ele>
        <time>2010-06-06T09:38:36Z</time>
      </trkpt>
      <trkpt lat="45.08612" lon="5.61532">
        <ele>1855</ele>
        <time>2010-06-06T09:38:38Z</time>
      </trkpt>
      <trkpt lat="45.08612" lon="5.61533">
        <ele>1855</ele>
        <time>2010-06-06T09:38:39Z</time>
      </trkpt>
      <trkpt lat="45.08613" lon="5.61535">
        <ele>1856</ele>
        <time>2010-06-06T09:38:41Z</time>
      </trkpt>
      <trkpt lat="45.08613" lon="5.61537">
        <ele>1857</ele>
        <time>2010-06-06T09:38:42Z</time>
      </trkpt>
      <trkpt lat="45.08614" lon="5.6154">
        <ele>1858</ele>
        <time>2010-06-06T09:38:44Z</time>
      </trkpt>
      <trkpt lat="45.08615" lon="5.61542">
        <ele>1859</ele>
        <time>2010-06-06T09:38:46Z</time>
      </trkpt>
      <trkpt lat="45.08617" lon="5.61542">
        <ele>1860</ele>
        <time>2010-06-06T09:38:48Z</time>
      </trkpt>
      <trkpt lat="45.08618" lon="5.61542">
        <ele>1860</ele>
        <time>2010-06-06T09:38:49Z</time>
      </trkpt>
      <trkpt lat="45.08619" lon="5.61542">
        <ele>1860</ele>
        <time>2010-06-06T09:38:50Z</time>
      </trkpt>
      <trkpt lat="45.08621" lon="5.61543">
        <ele>1861</ele>
        <time>2010-06-06T09:38:52Z</time>
      </trkpt>
      <trkpt lat="45.08623" lon="5.61545">
        <ele>1861</ele>
        <time>2010-06-06T09:38:54Z</time>
      </trkpt>
      <trkpt lat="45.08624" lon="5.61546">
        <ele>1862</ele>
        <time>2010-06-06T09:38:56Z</time>
      </trkpt>
      <trkpt lat="45.08626" lon="5.61547">
        <ele>1862</ele>
        <time>2010-06-06T09:38:58Z</time>
      </trkpt>
      <trkpt lat="45.08627" lon="5.6155">
        <ele>1863</ele>
        <time>2010-06-06T09:39:00Z</time>
      </trkpt>
      <trkpt lat="45.08628" lon="5.61553">
        <ele>1863</ele>
        <time>2010-06-06T09:39:02Z</time>
      </trkpt>
      <trkpt lat="45.08629" lon="5.61555">
        <ele>1863</ele>
        <time>2010-06-06T09:39:04Z</time>
      </trkpt>
      <trkpt lat="45.0863" lon="5.61557">
        <ele>1864</ele>
        <time>2010-06-06T09:39:06Z</time>
      </trkpt>
      <trkpt lat="45.08631" lon="5.61559">
        <ele>1864</ele>
        <time>2010-06-06T09:39:08Z</time>
      </trkpt>
      <trkpt lat="45.08632" lon="5.61561">
        <ele>1865</ele>
        <time>2010-06-06T09:39:10Z</time>
      </trkpt>
      <trkpt lat="45.08634" lon="5.61563">
        <ele>1865</ele>
        <time>2010-06-06T09:39:12Z</time>
      </trkpt>
      <trkpt lat="45.08635" lon="5.61565">
        <ele>1865</ele>
        <time>2010-06-06T09:39:14Z</time>
      </trkpt>
      <trkpt lat="45.08637" lon="5.61566">
        <ele>1866</ele>
        <time>2010-06-06T09:39:17Z</time>
      </trkpt>
      <trkpt lat="45.08639" lon="5.61568">
        <ele>1867</ele>
        <time>2010-06-06T09:39:19Z</time>
      </trkpt>
      <trkpt lat="45.0864" lon="5.61569">
        <ele>1867</ele>
        <time>2010-06-06T09:39:21Z</time>
      </trkpt>
      <trkpt lat="45.08642" lon="5.6157">
        <ele>1868</ele>
        <time>2010-06-06T09:39:23Z</time>
      </trkpt>
      <trkpt lat="45.08644" lon="5.6157">
        <ele>1869</ele>
        <time>2010-06-06T09:39:25Z</time>
      </trkpt>
      <trkpt lat="45.08645" lon="5.61571">
        <ele>1870</ele>
        <time>2010-06-06T09:39:26Z</time>
      </trkpt>
      <trkpt lat="45.08647" lon="5.61571">
        <ele>1870</ele>
        <time>2010-06-06T09:39:28Z</time>
      </trkpt>
      <trkpt lat="45.08649" lon="5.61573">
        <ele>1872</ele>
        <time>2010-06-06T09:39:30Z</time>
      </trkpt>
      <trkpt lat="45.0865" lon="5.61575">
        <ele>1873</ele>
        <time>2010-06-06T09:39:32Z</time>
      </trkpt>
      <trkpt lat="45.08652" lon="5.61576">
        <ele>1874</ele>
        <time>2010-06-06T09:39:34Z</time>
      </trkpt>
      <trkpt lat="45.08653" lon="5.61577">
        <ele>1874</ele>
        <time>2010-06-06T09:39:35Z</time>
      </trkpt>
      <trkpt lat="45.08654" lon="5.61577">
        <ele>1875</ele>
        <time>2010-06-06T09:39:36Z</time>
      </trkpt>
      <trkpt lat="45.08655" lon="5.61577">
        <ele>1875</ele>
        <time>2010-06-06T09:39:37Z</time>
      </trkpt>
      <trkpt lat="45.08657" lon="5.61577">
        <ele>1875</ele>
        <time>2010-06-06T09:39:38Z</time>
      </trkpt>
      <trkpt lat="45.08658" lon="5.61577">
        <ele>1875</ele>
        <time>2010-06-06T09:39:39Z</time>
      </trkpt>
      <trkpt lat="45.0866" lon="5.61579">
        <ele>1876</ele>
        <time>2010-06-06T09:39:41Z</time>
      </trkpt>
      <trkpt lat="45.08662" lon="5.61581">
        <ele>1877</ele>
        <time>2010-06-06T09:39:43Z</time>
      </trkpt>
      <trkpt lat="45.08663" lon="5.61582">
        <ele>1877</ele>
        <time>2010-06-06T09:39:44Z</time>
      </trkpt>
      <trkpt lat="45.08665" lon="5.61583">
        <ele>1877</ele>
        <time>2010-06-06T09:39:46Z</time>
      </trkpt>
      <trkpt lat="45.08667" lon="5.61585">
        <ele>1878</ele>
        <time>2010-06-06T09:39:48Z</time>
      </trkpt>
      <trkpt lat="45.08668" lon="5.61587">
        <ele>1878</ele>
        <time>2010-06-06T09:39:50Z</time>
      </trkpt>
      <trkpt lat="45.0867" lon="5.61588">
        <ele>1879</ele>
        <time>2010-06-06T09:39:52Z</time>
      </trkpt>
      <trkpt lat="45.08672" lon="5.61589">
        <ele>1879</ele>
        <time>2010-06-06T09:39:54Z</time>
      </trkpt>
      <trkpt lat="45.08673" lon="5.61589">
        <ele>1879</ele>
        <time>2010-06-06T09:39:55Z</time>
      </trkpt>
      <trkpt lat="45.08675" lon="5.6159">
        <ele>1880</ele>
        <time>2010-06-06T09:39:57Z</time>
      </trkpt>
      <trkpt lat="45.08677" lon="5.61591">
        <ele>1881</ele>
        <time>2010-06-06T09:39:59Z</time>
      </trkpt>
      <trkpt lat="45.08679" lon="5.61591">
        <ele>1881</ele>
        <time>2010-06-06T09:40:01Z</time>
      </trkpt>
      <trkpt lat="45.0868" lon="5.61591">
        <ele>1882</ele>
        <time>2010-06-06T09:40:02Z</time>
      </trkpt>
      <trkpt lat="45.08682" lon="5.61592">
        <ele>1882</ele>
        <time>2010-06-06T09:40:04Z</time>
      </trkpt>
      <trkpt lat="45.08684" lon="5.61591">
        <ele>1883</ele>
        <time>2010-06-06T09:40:06Z</time>
      </trkpt>
      <trkpt lat="45.08686" lon="5.61591">
        <ele>1884</ele>
        <time>2010-06-06T09:40:08Z</time>
      </trkpt>
      <trkpt lat="45.08688" lon="5.61592">
        <ele>1884</ele>
        <time>2010-06-06T09:40:10Z</time>
      </trkpt>
      <trkpt lat="45.08689" lon="5.61592">
        <ele>1885</ele>
        <time>2010-06-06T09:40:12Z</time>
      </trkpt>
      <trkpt lat="45.0869" lon="5.61593">
        <ele>1885</ele>
        <time>2010-06-06T09:40:14Z</time>
      </trkpt>
      <trkpt lat="45.08692" lon="5.61593">
        <ele>1885</ele>
        <time>2010-06-06T09:40:15Z</time>
      </trkpt>
      <trkpt lat="45.08694" lon="5.61593">
        <ele>1885</ele>
        <time>2010-06-06T09:40:17Z</time>
      </trkpt>
      <trkpt lat="45.08695" lon="5.61594">
        <ele>1885</ele>
        <time>2010-06-06T09:40:19Z</time>
      </trkpt>
      <trkpt lat="45.08696" lon="5.61595">
        <ele>1885</ele>
        <time>2010-06-06T09:40:21Z</time>
      </trkpt>
      <trkpt lat="45.08698" lon="5.61597">
        <ele>1885</ele>
        <time>2010-06-06T09:40:23Z</time>
      </trkpt>
      <trkpt lat="45.08699" lon="5.61598">
        <ele>1886</ele>
        <time>2010-06-06T09:40:25Z</time>
      </trkpt>
      <trkpt lat="45.087" lon="5.616">
        <ele>1886</ele>
        <time>2010-06-06T09:40:27Z</time>
      </trkpt>
      <trkpt lat="45.08702" lon="5.616">
        <ele>1887</ele>
        <time>2010-06-06T09:40:29Z</time>
      </trkpt>
      <trkpt lat="45.08704" lon="5.61602">
        <ele>1887</ele>
        <time>2010-06-06T09:40:31Z</time>
      </trkpt>
      <trkpt lat="45.08705" lon="5.61603">
        <ele>1888</ele>
        <time>2010-06-06T09:40:33Z</time>
      </trkpt>
      <trkpt lat="45.08706" lon="5.61605">
        <ele>1888</ele>
        <time>2010-06-06T09:40:35Z</time>
      </trkpt>
      <trkpt lat="45.08708" lon="5.61606">
        <ele>1889</ele>
        <time>2010-06-06T09:40:37Z</time>
      </trkpt>
      <trkpt lat="45.0871" lon="5.61606">
        <ele>1889</ele>
        <time>2010-06-06T09:40:39Z</time>
      </trkpt>
      <trkpt lat="45.08711" lon="5.61606">
        <ele>1889</ele>
        <time>2010-06-06T09:40:40Z</time>
      </trkpt>
      <trkpt lat="45.08713" lon="5.61606">
        <ele>1889</ele>
        <time>2010-06-06T09:40:41Z</time>
      </trkpt>
      <trkpt lat="45.08714" lon="5.61606">
        <ele>1889</ele>
        <time>2010-06-06T09:40:42Z</time>
      </trkpt>
      <trkpt lat="45.08715" lon="5.61606">
        <ele>1890</ele>
        <time>2010-06-06T09:40:43Z</time>
      </trkpt>
      <trkpt lat="45.08717" lon="5.61606">
        <ele>1890</ele>
        <time>2010-06-06T09:40:44Z</time>
      </trkpt>
      <trkpt lat="45.08718" lon="5.61606">
        <ele>1890</ele>
        <time>2010-06-06T09:40:46Z</time>
      </trkpt>
      <trkpt lat="45.0872" lon="5.61606">
        <ele>1890</ele>
        <time>2010-06-06T09:40:47Z</time>
      </trkpt>
      <trkpt lat="45.08721" lon="5.61606">
        <ele>1890</ele>
        <time>2010-06-06T09:40:48Z</time>
      </trkpt>
      <trkpt lat="45.08723" lon="5.61607">
        <ele>1890</ele>
        <time>2010-06-06T09:40:49Z</time>
      </trkpt>
      <trkpt lat="45.08724" lon="5.61608">
        <ele>1890</ele>
        <time>2010-06-06T09:40:50Z</time>
      </trkpt>
      <trkpt lat="45.08726" lon="5.61608">
        <ele>1891</ele>
        <time>2010-06-06T09:40:52Z</time>
      </trkpt>
      <trkpt lat="45.08727" lon="5.61608">
        <ele>1891</ele>
        <time>2010-06-06T09:40:53Z</time>
      </trkpt>
      <trkpt lat="45.08728" lon="5.61608">
        <ele>1891</ele>
        <time>2010-06-06T09:40:54Z</time>
      </trkpt>
      <trkpt lat="45.0873" lon="5.61608">
        <ele>1891</ele>
        <time>2010-06-06T09:40:55Z</time>
      </trkpt>
      <trkpt lat="45.08731" lon="5.61609">
        <ele>1891</ele>
        <time>2010-06-06T09:40:57Z</time>
      </trkpt>
      <trkpt lat="45.08733" lon="5.61611">
        <ele>1891</ele>
        <time>2010-06-06T09:40:59Z</time>
      </trkpt>
      <trkpt lat="45.08734" lon="5.61611">
        <ele>1891</ele>
        <time>2010-06-06T09:41:01Z</time>
      </trkpt>
      <trkpt lat="45.08736" lon="5.61613">
        <ele>1891</ele>
        <time>2010-06-06T09:41:03Z</time>
      </trkpt>
      <trkpt lat="45.08738" lon="5.61615">
        <ele>1892</ele>
        <time>2010-06-06T09:41:05Z</time>
      </trkpt>
      <trkpt lat="45.0874" lon="5.61616">
        <ele>1892</ele>
        <time>2010-06-06T09:41:07Z</time>
      </trkpt>
      <trkpt lat="45.08741" lon="5.61617">
        <ele>1892</ele>
        <time>2010-06-06T09:41:09Z</time>
      </trkpt>
      <trkpt lat="45.08742" lon="5.61619">
        <ele>1892</ele>
        <time>2010-06-06T09:41:12Z</time>
      </trkpt>
      <trkpt lat="45.08744" lon="5.61621">
        <ele>1893</ele>
        <time>2010-06-06T09:41:15Z</time>
      </trkpt>
      <trkpt lat="45.08745" lon="5.61622">
        <ele>1894</ele>
        <time>2010-06-06T09:41:17Z</time>
      </trkpt>
      <trkpt lat="45.08746" lon="5.61624">
        <ele>1894</ele>
        <time>2010-06-06T09:41:19Z</time>
      </trkpt>
      <trkpt lat="45.08747" lon="5.61626">
        <ele>1895</ele>
        <time>2010-06-06T09:41:20Z</time>
      </trkpt>
      <trkpt lat="45.08748" lon="5.61628">
        <ele>1895</ele>
        <time>2010-06-06T09:41:22Z</time>
      </trkpt>
      <trkpt lat="45.0875" lon="5.61629">
        <ele>1896</ele>
        <time>2010-06-06T09:41:23Z</time>
      </trkpt>
      <trkpt lat="45.08751" lon="5.61631">
        <ele>1896</ele>
        <time>2010-06-06T09:41:24Z</time>
      </trkpt>
      <trkpt lat="45.08753" lon="5.61632">
        <ele>1896</ele>
        <time>2010-06-06T09:41:25Z</time>
      </trkpt>
      <trkpt lat="45.08754" lon="5.61633">
        <ele>1897</ele>
        <time>2010-06-06T09:41:26Z</time>
      </trkpt>
      <trkpt lat="45.08756" lon="5.61635">
        <ele>1898</ele>
        <time>2010-06-06T09:41:28Z</time>
      </trkpt>
      <trkpt lat="45.08757" lon="5.61637">
        <ele>1898</ele>
        <time>2010-06-06T09:41:29Z</time>
      </trkpt>
      <trkpt lat="45.08758" lon="5.6164">
        <ele>1898</ele>
        <time>2010-06-06T09:41:30Z</time>
      </trkpt>
      <trkpt lat="45.08759" lon="5.61642">
        <ele>1899</ele>
        <time>2010-06-06T09:41:31Z</time>
      </trkpt>
      <trkpt lat="45.08759" lon="5.61643">
        <ele>1899</ele>
        <time>2010-06-06T09:41:32Z</time>
      </trkpt>
      <trkpt lat="45.08759" lon="5.61645">
        <ele>1900</ele>
        <time>2010-06-06T09:41:33Z</time>
      </trkpt>
      <trkpt lat="45.08759" lon="5.61646">
        <ele>1900</ele>
        <time>2010-06-06T09:41:34Z</time>
      </trkpt>
      <trkpt lat="45.0876" lon="5.6165">
        <ele>1901</ele>
        <time>2010-06-06T09:41:36Z</time>
      </trkpt>
      <trkpt lat="45.08761" lon="5.61651">
        <ele>1901</ele>
        <time>2010-06-06T09:41:37Z</time>
      </trkpt>
      <trkpt lat="45.08763" lon="5.61655">
        <ele>1902</ele>
        <time>2010-06-06T09:41:39Z</time>
      </trkpt>
      <trkpt lat="45.08764" lon="5.61657">
        <ele>1902</ele>
        <time>2010-06-06T09:41:40Z</time>
      </trkpt>
      <trkpt lat="45.08765" lon="5.61659">
        <ele>1903</ele>
        <time>2010-06-06T09:41:41Z</time>
      </trkpt>
      <trkpt lat="45.08766" lon="5.61662">
        <ele>1903</ele>
        <time>2010-06-06T09:41:42Z</time>
      </trkpt>
      <trkpt lat="45.08767" lon="5.61664">
        <ele>1903</ele>
        <time>2010-06-06T09:41:43Z</time>
      </trkpt>
      <trkpt lat="45.08768" lon="5.61667">
        <ele>1903</ele>
        <time>2010-06-06T09:41:44Z</time>
      </trkpt>
      <trkpt lat="45.08768" lon="5.61669">
        <ele>1904</ele>
        <time>2010-06-06T09:41:45Z</time>
      </trkpt>
      <trkpt lat="45.08768" lon="5.61671">
        <ele>1904</ele>
        <time>2010-06-06T09:41:46Z</time>
      </trkpt>
      <trkpt lat="45.08769" lon="5.61674">
        <ele>1905</ele>
        <time>2010-06-06T09:41:48Z</time>
      </trkpt>
      <trkpt lat="45.0877" lon="5.61676">
        <ele>1905</ele>
        <time>2010-06-06T09:41:50Z</time>
      </trkpt>
      <trkpt lat="45.08771" lon="5.61678">
        <ele>1905</ele>
        <time>2010-06-06T09:41:51Z</time>
      </trkpt>
      <trkpt lat="45.08771" lon="5.6168">
        <ele>1905</ele>
        <time>2010-06-06T09:41:53Z</time>
      </trkpt>
      <trkpt lat="45.08771" lon="5.61682">
        <ele>1905</ele>
        <time>2010-06-06T09:41:55Z</time>
      </trkpt>
      <trkpt lat="45.08771" lon="5.61683">
        <ele>1906</ele>
        <time>2010-06-06T09:41:57Z</time>
      </trkpt>
      <trkpt lat="45.08772" lon="5.61685">
        <ele>1906</ele>
        <time>2010-06-06T09:41:58Z</time>
      </trkpt>
      <trkpt lat="45.08773" lon="5.61686">
        <ele>1907</ele>
        <time>2010-06-06T09:42:00Z</time>
      </trkpt>
      <trkpt lat="45.08775" lon="5.61688">
        <ele>1907</ele>
        <time>2010-06-06T09:42:02Z</time>
      </trkpt>
      <trkpt lat="45.08776" lon="5.61691">
        <ele>1908</ele>
        <time>2010-06-06T09:42:04Z</time>
      </trkpt>
      <trkpt lat="45.08778" lon="5.61694">
        <ele>1909</ele>
        <time>2010-06-06T09:42:07Z</time>
      </trkpt>
      <trkpt lat="45.08779" lon="5.61695">
        <ele>1909</ele>
        <time>2010-06-06T09:42:08Z</time>
      </trkpt>
      <trkpt lat="45.08779" lon="5.61698">
        <ele>1909</ele>
        <time>2010-06-06T09:42:10Z</time>
      </trkpt>
      <trkpt lat="45.0878" lon="5.617">
        <ele>1909</ele>
        <time>2010-06-06T09:42:12Z</time>
      </trkpt>
      <trkpt lat="45.0878" lon="5.61701">
        <ele>1910</ele>
        <time>2010-06-06T09:42:14Z</time>
      </trkpt>
      <trkpt lat="45.08781" lon="5.61703">
        <ele>1910</ele>
        <time>2010-06-06T09:42:16Z</time>
      </trkpt>
      <trkpt lat="45.08782" lon="5.61705">
        <ele>1911</ele>
        <time>2010-06-06T09:42:18Z</time>
      </trkpt>
      <trkpt lat="45.08782" lon="5.61707">
        <ele>1911</ele>
        <time>2010-06-06T09:42:21Z</time>
      </trkpt>
      <trkpt lat="45.08783" lon="5.61709">
        <ele>1912</ele>
        <time>2010-06-06T09:42:23Z</time>
      </trkpt>
      <trkpt lat="45.08783" lon="5.61711">
        <ele>1913</ele>
        <time>2010-06-06T09:42:25Z</time>
      </trkpt>
      <trkpt lat="45.08783" lon="5.61713">
        <ele>1913</ele>
        <time>2010-06-06T09:42:29Z</time>
      </trkpt>
      <trkpt lat="45.08784" lon="5.61715">
        <ele>1913</ele>
        <time>2010-06-06T09:42:31Z</time>
      </trkpt>
      <trkpt lat="45.08784" lon="5.61716">
        <ele>1914</ele>
        <time>2010-06-06T09:42:33Z</time>
      </trkpt>
      <trkpt lat="45.08784" lon="5.61718">
        <ele>1914</ele>
        <time>2010-06-06T09:42:35Z</time>
      </trkpt>
      <trkpt lat="45.08784" lon="5.6172">
        <ele>1914</ele>
        <time>2010-06-06T09:42:37Z</time>
      </trkpt>
      <trkpt lat="45.08785" lon="5.61722">
        <ele>1914</ele>
        <time>2010-06-06T09:42:39Z</time>
      </trkpt>
      <trkpt lat="45.08785" lon="5.61725">
        <ele>1914</ele>
        <time>2010-06-06T09:42:41Z</time>
      </trkpt>
      <trkpt lat="45.08786" lon="5.61726">
        <ele>1914</ele>
        <time>2010-06-06T09:42:42Z</time>
      </trkpt>
      <trkpt lat="45.08786" lon="5.61729">
        <ele>1915</ele>
        <time>2010-06-06T09:42:44Z</time>
      </trkpt>
      <trkpt lat="45.08787" lon="5.6173">
        <ele>1915</ele>
        <time>2010-06-06T09:42:46Z</time>
      </trkpt>
      <trkpt lat="45.08788" lon="5.61733">
        <ele>1915</ele>
        <time>2010-06-06T09:42:48Z</time>
      </trkpt>
      <trkpt lat="45.08788" lon="5.61734">
        <ele>1915</ele>
        <time>2010-06-06T09:42:49Z</time>
      </trkpt>
      <trkpt lat="45.08789" lon="5.61736">
        <ele>1915</ele>
        <time>2010-06-06T09:42:52Z</time>
      </trkpt>
      <trkpt lat="45.08791" lon="5.61738">
        <ele>1915</ele>
        <time>2010-06-06T09:42:55Z</time>
      </trkpt>
      <trkpt lat="45.08793" lon="5.6174">
        <ele>1915</ele>
        <time>2010-06-06T09:42:57Z</time>
      </trkpt>
      <trkpt lat="45.08794" lon="5.61743">
        <ele>1915</ele>
        <time>2010-06-06T09:42:58Z</time>
      </trkpt>
      <trkpt lat="45.08795" lon="5.61744">
        <ele>1915</ele>
        <time>2010-06-06T09:42:59Z</time>
      </trkpt>
      <trkpt lat="45.08796" lon="5.61746">
        <ele>1915</ele>
        <time>2010-06-06T09:43:00Z</time>
      </trkpt>
      <trkpt lat="45.08797" lon="5.61748">
        <ele>1915</ele>
        <time>2010-06-06T09:43:01Z</time>
      </trkpt>
      <trkpt lat="45.08798" lon="5.61752">
        <ele>1915</ele>
        <time>2010-06-06T09:43:02Z</time>
      </trkpt>
      <trkpt lat="45.08799" lon="5.61755">
        <ele>1915</ele>
        <time>2010-06-06T09:43:03Z</time>
      </trkpt>
      <trkpt lat="45.088" lon="5.61758">
        <ele>1915</ele>
        <time>2010-06-06T09:43:04Z</time>
      </trkpt>
      <trkpt lat="45.08802" lon="5.6176">
        <ele>1915</ele>
        <time>2010-06-06T09:43:05Z</time>
      </trkpt>
      <trkpt lat="45.08803" lon="5.61763">
        <ele>1916</ele>
        <time>2010-06-06T09:43:06Z</time>
      </trkpt>
      <trkpt lat="45.08804" lon="5.61766">
        <ele>1916</ele>
        <time>2010-06-06T09:43:07Z</time>
      </trkpt>
      <trkpt lat="45.08806" lon="5.61768">
        <ele>1916</ele>
        <time>2010-06-06T09:43:08Z</time>
      </trkpt>
      <trkpt lat="45.08808" lon="5.61771">
        <ele>1917</ele>
        <time>2010-06-06T09:43:09Z</time>
      </trkpt>
      <trkpt lat="45.08809" lon="5.61774">
        <ele>1918</ele>
        <time>2010-06-06T09:43:10Z</time>
      </trkpt>
      <trkpt lat="45.0881" lon="5.61776">
        <ele>1918</ele>
        <time>2010-06-06T09:43:11Z</time>
      </trkpt>
      <trkpt lat="45.08811" lon="5.61779">
        <ele>1919</ele>
        <time>2010-06-06T09:43:12Z</time>
      </trkpt>
      <trkpt lat="45.08812" lon="5.61781">
        <ele>1919</ele>
        <time>2010-06-06T09:43:13Z</time>
      </trkpt>
      <trkpt lat="45.08814" lon="5.61783">
        <ele>1920</ele>
        <time>2010-06-06T09:43:14Z</time>
      </trkpt>
      <trkpt lat="45.08815" lon="5.61784">
        <ele>1920</ele>
        <time>2010-06-06T09:43:16Z</time>
      </trkpt>
      <trkpt lat="45.08817" lon="5.61786">
        <ele>1920</ele>
        <time>2010-06-06T09:43:17Z</time>
      </trkpt>
      <trkpt lat="45.08818" lon="5.61788">
        <ele>1921</ele>
        <time>2010-06-06T09:43:18Z</time>
      </trkpt>
      <trkpt lat="45.08819" lon="5.61791">
        <ele>1921</ele>
        <time>2010-06-06T09:43:19Z</time>
      </trkpt>
      <trkpt lat="45.0882" lon="5.61794">
        <ele>1921</ele>
        <time>2010-06-06T09:43:20Z</time>
      </trkpt>
      <trkpt lat="45.0882" lon="5.61796">
        <ele>1921</ele>
        <time>2010-06-06T09:43:21Z</time>
      </trkpt>
      <trkpt lat="45.08821" lon="5.61798">
        <ele>1921</ele>
        <time>2010-06-06T09:43:23Z</time>
      </trkpt>
      <trkpt lat="45.08821" lon="5.618">
        <ele>1921</ele>
        <time>2010-06-06T09:43:24Z</time>
      </trkpt>
      <trkpt lat="45.08821" lon="5.61802">
        <ele>1921</ele>
        <time>2010-06-06T09:43:25Z</time>
      </trkpt>
      <trkpt lat="45.08822" lon="5.61804">
        <ele>1921</ele>
        <time>2010-06-06T09:43:26Z</time>
      </trkpt>
      <trkpt lat="45.08822" lon="5.61807">
        <ele>1921</ele>
        <time>2010-06-06T09:43:28Z</time>
      </trkpt>
      <trkpt lat="45.08822" lon="5.6181">
        <ele>1921</ele>
        <time>2010-06-06T09:43:29Z</time>
      </trkpt>
      <trkpt lat="45.08823" lon="5.61812">
        <ele>1922</ele>
        <time>2010-06-06T09:43:30Z</time>
      </trkpt>
      <trkpt lat="45.08825" lon="5.61814">
        <ele>1922</ele>
        <time>2010-06-06T09:43:31Z</time>
      </trkpt>
      <trkpt lat="45.08827" lon="5.61815">
        <ele>1922</ele>
        <time>2010-06-06T09:43:32Z</time>
      </trkpt>
      <trkpt lat="45.0883" lon="5.61817">
        <ele>1922</ele>
        <time>2010-06-06T09:43:33Z</time>
      </trkpt>
      <trkpt lat="45.08832" lon="5.61818">
        <ele>1923</ele>
        <time>2010-06-06T09:43:34Z</time>
      </trkpt>
      <trkpt lat="45.08834" lon="5.61818">
        <ele>1923</ele>
        <time>2010-06-06T09:43:35Z</time>
      </trkpt>
      <trkpt lat="45.08837" lon="5.61819">
        <ele>1923</ele>
        <time>2010-06-06T09:43:36Z</time>
      </trkpt>
      <trkpt lat="45.08839" lon="5.61821">
        <ele>1923</ele>
        <time>2010-06-06T09:43:37Z</time>
      </trkpt>
      <trkpt lat="45.08841" lon="5.61822">
        <ele>1923</ele>
        <time>2010-06-06T09:43:38Z</time>
      </trkpt>
      <trkpt lat="45.08842" lon="5.61823">
        <ele>1923</ele>
        <time>2010-06-06T09:43:39Z</time>
      </trkpt>
      <trkpt lat="45.08844" lon="5.61825">
        <ele>1923</ele>
        <time>2010-06-06T09:43:40Z</time>
      </trkpt>
      <trkpt lat="45.08846" lon="5.61827">
        <ele>1924</ele>
        <time>2010-06-06T09:43:41Z</time>
      </trkpt>
      <trkpt lat="45.08847" lon="5.61828">
        <ele>1924</ele>
        <time>2010-06-06T09:43:42Z</time>
      </trkpt>
      <trkpt lat="45.08848" lon="5.6183">
        <ele>1924</ele>
        <time>2010-06-06T09:43:43Z</time>
      </trkpt>
      <trkpt lat="45.0885" lon="5.61832">
        <ele>1924</ele>
        <time>2010-06-06T09:43:44Z</time>
      </trkpt>
      <trkpt lat="45.08851" lon="5.61833">
        <ele>1924</ele>
        <time>2010-06-06T09:43:45Z</time>
      </trkpt>
      <trkpt lat="45.08853" lon="5.61834">
        <ele>1924</ele>
        <time>2010-06-06T09:43:46Z</time>
      </trkpt>
      <trkpt lat="45.08854" lon="5.61834">
        <ele>1924</ele>
        <time>2010-06-06T09:43:47Z</time>
      </trkpt>
      <trkpt lat="45.08856" lon="5.61834">
        <ele>1924</ele>
        <time>2010-06-06T09:43:48Z</time>
      </trkpt>
      <trkpt lat="45.08858" lon="5.61834">
        <ele>1924</ele>
        <time>2010-06-06T09:43:49Z</time>
      </trkpt>
      <trkpt lat="45.0886" lon="5.61835">
        <ele>1924</ele>
        <time>2010-06-06T09:43:50Z</time>
      </trkpt>
      <trkpt lat="45.08861" lon="5.61836">
        <ele>1924</ele>
        <time>2010-06-06T09:43:51Z</time>
      </trkpt>
      <trkpt lat="45.08863" lon="5.61837">
        <ele>1924</ele>
        <time>2010-06-06T09:43:52Z</time>
      </trkpt>
      <trkpt lat="45.08864" lon="5.61839">
        <ele>1924</ele>
        <time>2010-06-06T09:43:53Z</time>
      </trkpt>
      <trkpt lat="45.08866" lon="5.61841">
        <ele>1924</ele>
        <time>2010-06-06T09:43:54Z</time>
      </trkpt>
      <trkpt lat="45.08867" lon="5.61842">
        <ele>1924</ele>
        <time>2010-06-06T09:43:55Z</time>
      </trkpt>
      <trkpt lat="45.08869" lon="5.61843">
        <ele>1924</ele>
        <time>2010-06-06T09:43:56Z</time>
      </trkpt>
      <trkpt lat="45.08871" lon="5.61844">
        <ele>1924</ele>
        <time>2010-06-06T09:43:57Z</time>
      </trkpt>
      <trkpt lat="45.08873" lon="5.61845">
        <ele>1924</ele>
        <time>2010-06-06T09:43:58Z</time>
      </trkpt>
      <trkpt lat="45.08875" lon="5.61847">
        <ele>1924</ele>
        <time>2010-06-06T09:43:59Z</time>
      </trkpt>
      <trkpt lat="45.08876" lon="5.61849">
        <ele>1924</ele>
        <time>2010-06-06T09:44:00Z</time>
      </trkpt>
      <trkpt lat="45.08877" lon="5.61851">
        <ele>1924</ele>
        <time>2010-06-06T09:44:01Z</time>
      </trkpt>
      <trkpt lat="45.08879" lon="5.61853">
        <ele>1924</ele>
        <time>2010-06-06T09:44:02Z</time>
      </trkpt>
      <trkpt lat="45.08879" lon="5.61856">
        <ele>1924</ele>
        <time>2010-06-06T09:44:03Z</time>
      </trkpt>
      <trkpt lat="45.0888" lon="5.61859">
        <ele>1924</ele>
        <time>2010-06-06T09:44:04Z</time>
      </trkpt>
      <trkpt lat="45.08882" lon="5.61862">
        <ele>1924</ele>
        <time>2010-06-06T09:44:05Z</time>
      </trkpt>
      <trkpt lat="45.08883" lon="5.61864">
        <ele>1924</ele>
        <time>2010-06-06T09:44:06Z</time>
      </trkpt>
      <trkpt lat="45.08885" lon="5.61866">
        <ele>1924</ele>
        <time>2010-06-06T09:44:07Z</time>
      </trkpt>
      <trkpt lat="45.08886" lon="5.61869">
        <ele>1924</ele>
        <time>2010-06-06T09:44:08Z</time>
      </trkpt>
      <trkpt lat="45.08886" lon="5.61872">
        <ele>1924</ele>
        <time>2010-06-06T09:44:09Z</time>
      </trkpt>
      <trkpt lat="45.08887" lon="5.61874">
        <ele>1924</ele>
        <time>2010-06-06T09:44:10Z</time>
      </trkpt>
      <trkpt lat="45.08887" lon="5.61877">
        <ele>1924</ele>
        <time>2010-06-06T09:44:11Z</time>
      </trkpt>
      <trkpt lat="45.08888" lon="5.6188">
        <ele>1924</ele>
        <time>2010-06-06T09:44:12Z</time>
      </trkpt>
      <trkpt lat="45.08888" lon="5.61883">
        <ele>1924</ele>
        <time>2010-06-06T09:44:13Z</time>
      </trkpt>
      <trkpt lat="45.08889" lon="5.61886">
        <ele>1924</ele>
        <time>2010-06-06T09:44:14Z</time>
      </trkpt>
      <trkpt lat="45.0889" lon="5.61889">
        <ele>1924</ele>
        <time>2010-06-06T09:44:15Z</time>
      </trkpt>
      <trkpt lat="45.0889" lon="5.61892">
        <ele>1924</ele>
        <time>2010-06-06T09:44:16Z</time>
      </trkpt>
      <trkpt lat="45.08891" lon="5.61896">
        <ele>1924</ele>
        <time>2010-06-06T09:44:17Z</time>
      </trkpt>
      <trkpt lat="45.08892" lon="5.61899">
        <ele>1924</ele>
        <time>2010-06-06T09:44:18Z</time>
      </trkpt>
      <trkpt lat="45.08893" lon="5.61902">
        <ele>1924</ele>
        <time>2010-06-06T09:44:19Z</time>
      </trkpt>
      <trkpt lat="45.08895" lon="5.61905">
        <ele>1924</ele>
        <time>2010-06-06T09:44:20Z</time>
      </trkpt>
      <trkpt lat="45.08895" lon="5.61907">
        <ele>1924</ele>
        <time>2010-06-06T09:44:21Z</time>
      </trkpt>
      <trkpt lat="45.08896" lon="5.6191">
        <ele>1924</ele>
        <time>2010-06-06T09:44:22Z</time>
      </trkpt>
      <trkpt lat="45.08897" lon="5.61912">
        <ele>1924</ele>
        <time>2010-06-06T09:44:23Z</time>
      </trkpt>
      <trkpt lat="45.08898" lon="5.61915">
        <ele>1924</ele>
        <time>2010-06-06T09:44:24Z</time>
      </trkpt>
      <trkpt lat="45.08898" lon="5.61918">
        <ele>1924</ele>
        <time>2010-06-06T09:44:25Z</time>
      </trkpt>
      <trkpt lat="45.08898" lon="5.61922">
        <ele>1924</ele>
        <time>2010-06-06T09:44:26Z</time>
      </trkpt>
      <trkpt lat="45.08898" lon="5.61924">
        <ele>1924</ele>
        <time>2010-06-06T09:44:27Z</time>
      </trkpt>
      <trkpt lat="45.08898" lon="5.61927">
        <ele>1925</ele>
        <time>2010-06-06T09:44:28Z</time>
      </trkpt>
      <trkpt lat="45.08899" lon="5.6193">
        <ele>1925</ele>
        <time>2010-06-06T09:44:29Z</time>
      </trkpt>
      <trkpt lat="45.089" lon="5.61933">
        <ele>1925</ele>
        <time>2010-06-06T09:44:30Z</time>
      </trkpt>
      <trkpt lat="45.08901" lon="5.61935">
        <ele>1926</ele>
        <time>2010-06-06T09:44:31Z</time>
      </trkpt>
      <trkpt lat="45.08902" lon="5.61938">
        <ele>1926</ele>
        <time>2010-06-06T09:44:32Z</time>
      </trkpt>
      <trkpt lat="45.08902" lon="5.61941">
        <ele>1927</ele>
        <time>2010-06-06T09:44:33Z</time>
      </trkpt>
      <trkpt lat="45.08904" lon="5.61944">
        <ele>1927</ele>
        <time>2010-06-06T09:44:34Z</time>
      </trkpt>
      <trkpt lat="45.08906" lon="5.61946">
        <ele>1927</ele>
        <time>2010-06-06T09:44:35Z</time>
      </trkpt>
      <trkpt lat="45.08907" lon="5.61949">
        <ele>1928</ele>
        <time>2010-06-06T09:44:36Z</time>
      </trkpt>
      <trkpt lat="45.08909" lon="5.61951">
        <ele>1928</ele>
        <time>2010-06-06T09:44:37Z</time>
      </trkpt>
      <trkpt lat="45.08911" lon="5.61952">
        <ele>1929</ele>
        <time>2010-06-06T09:44:38Z</time>
      </trkpt>
      <trkpt lat="45.08913" lon="5.61954">
        <ele>1929</ele>
        <time>2010-06-06T09:44:39Z</time>
      </trkpt>
      <trkpt lat="45.08914" lon="5.61956">
        <ele>1929</ele>
        <time>2010-06-06T09:44:40Z</time>
      </trkpt>
      <trkpt lat="45.08915" lon="5.61957">
        <ele>1930</ele>
        <time>2010-06-06T09:44:41Z</time>
      </trkpt>
      <trkpt lat="45.08916" lon="5.6196">
        <ele>1930</ele>
        <time>2010-06-06T09:44:43Z</time>
      </trkpt>
      <trkpt lat="45.08918" lon="5.6196">
        <ele>1931</ele>
        <time>2010-06-06T09:44:44Z</time>
      </trkpt>
      <trkpt lat="45.08919" lon="5.61961">
        <ele>1931</ele>
        <time>2010-06-06T09:44:46Z</time>
      </trkpt>
      <trkpt lat="45.08921" lon="5.61962">
        <ele>1932</ele>
        <time>2010-06-06T09:44:48Z</time>
      </trkpt>
      <trkpt lat="45.08923" lon="5.61962">
        <ele>1932</ele>
        <time>2010-06-06T09:44:50Z</time>
      </trkpt>
      <trkpt lat="45.08925" lon="5.61963">
        <ele>1933</ele>
        <time>2010-06-06T09:44:51Z</time>
      </trkpt>
      <trkpt lat="45.08926" lon="5.61964">
        <ele>1933</ele>
        <time>2010-06-06T09:44:52Z</time>
      </trkpt>
      <trkpt lat="45.08927" lon="5.61965">
        <ele>1933</ele>
        <time>2010-06-06T09:44:53Z</time>
      </trkpt>
      <trkpt lat="45.08929" lon="5.61966">
        <ele>1934</ele>
        <time>2010-06-06T09:44:55Z</time>
      </trkpt>
      <trkpt lat="45.0893" lon="5.61966">
        <ele>1935</ele>
        <time>2010-06-06T09:44:57Z</time>
      </trkpt>
      <trkpt lat="45.08932" lon="5.61967">
        <ele>1935</ele>
        <time>2010-06-06T09:44:59Z</time>
      </trkpt>
      <trkpt lat="45.08933" lon="5.61966">
        <ele>1936</ele>
        <time>2010-06-06T09:45:01Z</time>
      </trkpt>
      <trkpt lat="45.08935" lon="5.61965">
        <ele>1936</ele>
        <time>2010-06-06T09:45:03Z</time>
      </trkpt>
      <trkpt lat="45.08937" lon="5.61964">
        <ele>1937</ele>
        <time>2010-06-06T09:45:05Z</time>
      </trkpt>
      <trkpt lat="45.08939" lon="5.61964">
        <ele>1937</ele>
        <time>2010-06-06T09:45:07Z</time>
      </trkpt>
      <trkpt lat="45.08941" lon="5.61965">
        <ele>1937</ele>
        <time>2010-06-06T09:45:09Z</time>
      </trkpt>
      <trkpt lat="45.08943" lon="5.61966">
        <ele>1937</ele>
        <time>2010-06-06T09:45:11Z</time>
      </trkpt>
      <trkpt lat="45.08944" lon="5.61965">
        <ele>1937</ele>
        <time>2010-06-06T09:45:14Z</time>
      </trkpt>
      <trkpt lat="45.08946" lon="5.61966">
        <ele>1938</ele>
        <time>2010-06-06T09:45:16Z</time>
      </trkpt>
      <trkpt lat="45.08948" lon="5.61966">
        <ele>1938</ele>
        <time>2010-06-06T09:45:18Z</time>
      </trkpt>
      <trkpt lat="45.08949" lon="5.61966">
        <ele>1939</ele>
        <time>2010-06-06T09:45:20Z</time>
      </trkpt>
      <trkpt lat="45.08951" lon="5.61966">
        <ele>1939</ele>
        <time>2010-06-06T09:45:22Z</time>
      </trkpt>
      <trkpt lat="45.08953" lon="5.61966">
        <ele>1939</ele>
        <time>2010-06-06T09:45:24Z</time>
      </trkpt>
      <trkpt lat="45.08954" lon="5.61967">
        <ele>1940</ele>
        <time>2010-06-06T09:45:25Z</time>
      </trkpt>
      <trkpt lat="45.08956" lon="5.61969">
        <ele>1940</ele>
        <time>2010-06-06T09:45:27Z</time>
      </trkpt>
      <trkpt lat="45.08958" lon="5.6197">
        <ele>1940</ele>
        <time>2010-06-06T09:45:29Z</time>
      </trkpt>
      <trkpt lat="45.0896" lon="5.61972">
        <ele>1940</ele>
        <time>2010-06-06T09:45:31Z</time>
      </trkpt>
      <trkpt lat="45.08962" lon="5.61973">
        <ele>1940</ele>
        <time>2010-06-06T09:45:32Z</time>
      </trkpt>
      <trkpt lat="45.08963" lon="5.61974">
        <ele>1940</ele>
        <time>2010-06-06T09:45:33Z</time>
      </trkpt>
      <trkpt lat="45.08964" lon="5.61976">
        <ele>1940</ele>
        <time>2010-06-06T09:45:34Z</time>
      </trkpt>
      <trkpt lat="45.08965" lon="5.61977">
        <ele>1940</ele>
        <time>2010-06-06T09:45:35Z</time>
      </trkpt>
      <trkpt lat="45.08966" lon="5.61977">
        <ele>1940</ele>
        <time>2010-06-06T09:45:37Z</time>
      </trkpt>
      <trkpt lat="45.08968" lon="5.61978">
        <ele>1940</ele>
        <time>2010-06-06T09:45:40Z</time>
      </trkpt>
      <trkpt lat="45.0897" lon="5.61978">
        <ele>1940</ele>
        <time>2010-06-06T09:45:42Z</time>
      </trkpt>
      <trkpt lat="45.08972" lon="5.61978">
        <ele>1941</ele>
        <time>2010-06-06T09:45:44Z</time>
      </trkpt>
      <trkpt lat="45.08973" lon="5.61978">
        <ele>1942</ele>
        <time>2010-06-06T09:45:46Z</time>
      </trkpt>
      <trkpt lat="45.08975" lon="5.61978">
        <ele>1942</ele>
        <time>2010-06-06T09:45:48Z</time>
      </trkpt>
      <trkpt lat="45.08977" lon="5.61976">
        <ele>1944</ele>
        <time>2010-06-06T09:45:50Z</time>
      </trkpt>
      <trkpt lat="45.08978" lon="5.61976">
        <ele>1945</ele>
        <time>2010-06-06T09:45:52Z</time>
      </trkpt>
      <trkpt lat="45.08979" lon="5.61976">
        <ele>1945</ele>
        <time>2010-06-06T09:45:53Z</time>
      </trkpt>
      <trkpt lat="45.08981" lon="5.61977">
        <ele>1946</ele>
        <time>2010-06-06T09:45:55Z</time>
      </trkpt>
      <trkpt lat="45.08982" lon="5.61978">
        <ele>1946</ele>
        <time>2010-06-06T09:45:57Z</time>
      </trkpt>
      <trkpt lat="45.08985" lon="5.61978">
        <ele>1947</ele>
        <time>2010-06-06T09:45:59Z</time>
      </trkpt>
      <trkpt lat="45.08986" lon="5.61978">
        <ele>1948</ele>
        <time>2010-06-06T09:46:00Z</time>
      </trkpt>
      <trkpt lat="45.08987" lon="5.61978">
        <ele>1948</ele>
        <time>2010-06-06T09:46:01Z</time>
      </trkpt>
      <trkpt lat="45.08988" lon="5.61978">
        <ele>1948</ele>
        <time>2010-06-06T09:46:02Z</time>
      </trkpt>
      <trkpt lat="45.08989" lon="5.61978">
        <ele>1949</ele>
        <time>2010-06-06T09:46:03Z</time>
      </trkpt>
      <trkpt lat="45.08991" lon="5.61978">
        <ele>1949</ele>
        <time>2010-06-06T09:46:05Z</time>
      </trkpt>
      <trkpt lat="45.08992" lon="5.61979">
        <ele>1950</ele>
        <time>2010-06-06T09:46:07Z</time>
      </trkpt>
      <trkpt lat="45.08993" lon="5.6198">
        <ele>1950</ele>
        <time>2010-06-06T09:46:08Z</time>
      </trkpt>
      <trkpt lat="45.08995" lon="5.6198">
        <ele>1950</ele>
        <time>2010-06-06T09:46:10Z</time>
      </trkpt>
      <trkpt lat="45.08997" lon="5.61981">
        <ele>1951</ele>
        <time>2010-06-06T09:46:12Z</time>
      </trkpt>
      <trkpt lat="45.08999" lon="5.61982">
        <ele>1951</ele>
        <time>2010-06-06T09:46:14Z</time>
      </trkpt>
      <trkpt lat="45.09" lon="5.61982">
        <ele>1952</ele>
        <time>2010-06-06T09:46:16Z</time>
      </trkpt>
      <trkpt lat="45.09002" lon="5.61984">
        <ele>1953</ele>
        <time>2010-06-06T09:46:18Z</time>
      </trkpt>
      <trkpt lat="45.09004" lon="5.61986">
        <ele>1954</ele>
        <time>2010-06-06T09:46:20Z</time>
      </trkpt>
      <trkpt lat="45.09006" lon="5.61988">
        <ele>1954</ele>
        <time>2010-06-06T09:46:22Z</time>
      </trkpt>
      <trkpt lat="45.09008" lon="5.6199">
        <ele>1955</ele>
        <time>2010-06-06T09:46:24Z</time>
      </trkpt>
      <trkpt lat="45.0901" lon="5.61992">
        <ele>1956</ele>
        <time>2010-06-06T09:46:26Z</time>
      </trkpt>
      <trkpt lat="45.09011" lon="5.61993">
        <ele>1956</ele>
        <time>2010-06-06T09:46:28Z</time>
      </trkpt>
      <trkpt lat="45.09013" lon="5.61995">
        <ele>1957</ele>
        <time>2010-06-06T09:46:30Z</time>
      </trkpt>
      <trkpt lat="45.09015" lon="5.61996">
        <ele>1957</ele>
        <time>2010-06-06T09:46:32Z</time>
      </trkpt>
      <trkpt lat="45.09017" lon="5.61997">
        <ele>1957</ele>
        <time>2010-06-06T09:46:34Z</time>
      </trkpt>
      <trkpt lat="45.09018" lon="5.61999">
        <ele>1958</ele>
        <time>2010-06-06T09:46:36Z</time>
      </trkpt>
      <trkpt lat="45.09019" lon="5.62">
        <ele>1958</ele>
        <time>2010-06-06T09:46:45Z</time>
      </trkpt>
      <trkpt lat="45.0902" lon="5.61999">
        <ele>1958</ele>
        <time>2010-06-06T09:47:00Z</time>
      </trkpt>
      <trkpt lat="45.09022" lon="5.61999">
        <ele>1958</ele>
        <time>2010-06-06T09:47:02Z</time>
      </trkpt>
      <trkpt lat="45.09024" lon="5.61999">
        <ele>1958</ele>
        <time>2010-06-06T09:47:04Z</time>
      </trkpt>
      <trkpt lat="45.09026" lon="5.62">
        <ele>1958</ele>
        <time>2010-06-06T09:47:06Z</time>
      </trkpt>
      <trkpt lat="45.09027" lon="5.62">
        <ele>1958</ele>
        <time>2010-06-06T09:47:07Z</time>
      </trkpt>
      <trkpt lat="45.09028" lon="5.62">
        <ele>1959</ele>
        <time>2010-06-06T09:47:08Z</time>
      </trkpt>
      <trkpt lat="45.09029" lon="5.62">
        <ele>1959</ele>
        <time>2010-06-06T09:47:09Z</time>
      </trkpt>
      <trkpt lat="45.09032" lon="5.62">
        <ele>1959</ele>
        <time>2010-06-06T09:47:11Z</time>
      </trkpt>
      <trkpt lat="45.09033" lon="5.62">
        <ele>1959</ele>
        <time>2010-06-06T09:47:12Z</time>
      </trkpt>
      <trkpt lat="45.09035" lon="5.62001">
        <ele>1959</ele>
        <time>2010-06-06T09:47:14Z</time>
      </trkpt>
      <trkpt lat="45.09037" lon="5.62001">
        <ele>1959</ele>
        <time>2010-06-06T09:47:16Z</time>
      </trkpt>
      <trkpt lat="45.09039" lon="5.62001">
        <ele>1959</ele>
        <time>2010-06-06T09:47:17Z</time>
      </trkpt>
      <trkpt lat="45.09041" lon="5.62">
        <ele>1959</ele>
        <time>2010-06-06T09:47:18Z</time>
      </trkpt>
      <trkpt lat="45.09042" lon="5.62">
        <ele>1959</ele>
        <time>2010-06-06T09:47:19Z</time>
      </trkpt>
      <trkpt lat="45.09044" lon="5.62">
        <ele>1959</ele>
        <time>2010-06-06T09:47:21Z</time>
      </trkpt>
      <trkpt lat="45.09046" lon="5.62">
        <ele>1959</ele>
        <time>2010-06-06T09:47:23Z</time>
      </trkpt>
      <trkpt lat="45.09048" lon="5.62">
        <ele>1959</ele>
        <time>2010-06-06T09:47:24Z</time>
      </trkpt>
      <trkpt lat="45.0905" lon="5.62">
        <ele>1959</ele>
        <time>2010-06-06T09:47:26Z</time>
      </trkpt>
      <trkpt lat="45.09052" lon="5.62">
        <ele>1958</ele>
        <time>2010-06-06T09:47:28Z</time>
      </trkpt>
      <trkpt lat="45.09053" lon="5.62">
        <ele>1957</ele>
        <time>2010-06-06T09:47:29Z</time>
      </trkpt>
      <trkpt lat="45.09055" lon="5.61998">
        <ele>1955</ele>
        <time>2010-06-06T09:47:33Z</time>
      </trkpt>
      <trkpt lat="45.09057" lon="5.61997">
        <ele>1954</ele>
        <time>2010-06-06T09:47:34Z</time>
      </trkpt>
      <trkpt lat="45.09057" lon="5.61996">
        <ele>1952</ele>
        <time>2010-06-06T09:47:37Z</time>
      </trkpt>
      <trkpt lat="45.09057" lon="5.61994">
        <ele>1952</ele>
        <time>2010-06-06T09:47:38Z</time>
      </trkpt>
      <trkpt lat="45.09057" lon="5.61992">
        <ele>1951</ele>
        <time>2010-06-06T09:47:39Z</time>
      </trkpt>
      <trkpt lat="45.09059" lon="5.61992">
        <ele>1950</ele>
        <time>2010-06-06T09:47:40Z</time>
      </trkpt>
      <trkpt lat="45.0906" lon="5.61993">
        <ele>1950</ele>
        <time>2010-06-06T09:47:41Z</time>
      </trkpt>
      <trkpt lat="45.09061" lon="5.61994">
        <ele>1949</ele>
        <time>2010-06-06T09:47:42Z</time>
      </trkpt>
      <trkpt lat="45.09062" lon="5.61994">
        <ele>1948</ele>
        <time>2010-06-06T09:47:43Z</time>
      </trkpt>
      <trkpt lat="45.09064" lon="5.61995">
        <ele>1947</ele>
        <time>2010-06-06T09:47:44Z</time>
      </trkpt>
      <trkpt lat="45.09066" lon="5.61996">
        <ele>1946</ele>
        <time>2010-06-06T09:47:45Z</time>
      </trkpt>
      <trkpt lat="45.09067" lon="5.61998">
        <ele>1945</ele>
        <time>2010-06-06T09:47:46Z</time>
      </trkpt>
      <trkpt lat="45.09069" lon="5.61999">
        <ele>1943</ele>
        <time>2010-06-06T09:47:48Z</time>
      </trkpt>
      <trkpt lat="45.0907" lon="5.62">
        <ele>1942</ele>
        <time>2010-06-06T09:47:50Z</time>
      </trkpt>
      <trkpt lat="45.09071" lon="5.62001">
        <ele>1941</ele>
        <time>2010-06-06T09:47:53Z</time>
      </trkpt>
      <trkpt lat="45.09071" lon="5.61998">
        <ele>1940</ele>
        <time>2010-06-06T09:47:55Z</time>
      </trkpt>
      <trkpt lat="45.09071" lon="5.61996">
        <ele>1940</ele>
        <time>2010-06-06T09:47:56Z</time>
      </trkpt>
      <trkpt lat="45.09073" lon="5.61995">
        <ele>1939</ele>
        <time>2010-06-06T09:47:58Z</time>
      </trkpt>
      <trkpt lat="45.09075" lon="5.61995">
        <ele>1938</ele>
        <time>2010-06-06T09:48:00Z</time>
      </trkpt>
      <trkpt lat="45.09077" lon="5.61995">
        <ele>1938</ele>
        <time>2010-06-06T09:48:01Z</time>
      </trkpt>
      <trkpt lat="45.09078" lon="5.61995">
        <ele>1937</ele>
        <time>2010-06-06T09:48:02Z</time>
      </trkpt>
      <trkpt lat="45.0908" lon="5.61995">
        <ele>1936</ele>
        <time>2010-06-06T09:48:04Z</time>
      </trkpt>
      <trkpt lat="45.09081" lon="5.61992">
        <ele>1935</ele>
        <time>2010-06-06T09:48:07Z</time>
      </trkpt>
      <trkpt lat="45.09081" lon="5.6199">
        <ele>1934</ele>
        <time>2010-06-06T09:48:08Z</time>
      </trkpt>
      <trkpt lat="45.09083" lon="5.61989">
        <ele>1934</ele>
        <time>2010-06-06T09:48:10Z</time>
      </trkpt>
      <trkpt lat="45.09085" lon="5.61987">
        <ele>1933</ele>
        <time>2010-06-06T09:48:12Z</time>
      </trkpt>
      <trkpt lat="45.09087" lon="5.61986">
        <ele>1931</ele>
        <time>2010-06-06T09:48:14Z</time>
      </trkpt>
      <trkpt lat="45.09088" lon="5.61985">
        <ele>1931</ele>
        <time>2010-06-06T09:48:15Z</time>
      </trkpt>
      <trkpt lat="45.0909" lon="5.61985">
        <ele>1930</ele>
        <time>2010-06-06T09:48:17Z</time>
      </trkpt>
      <trkpt lat="45.09091" lon="5.61985">
        <ele>1929</ele>
        <time>2010-06-06T09:48:18Z</time>
      </trkpt>
      <trkpt lat="45.09093" lon="5.61984">
        <ele>1927</ele>
        <time>2010-06-06T09:48:20Z</time>
      </trkpt>
      <trkpt lat="45.09094" lon="5.61982">
        <ele>1926</ele>
        <time>2010-06-06T09:48:22Z</time>
      </trkpt>
      <trkpt lat="45.09095" lon="5.6198">
        <ele>1925</ele>
        <time>2010-06-06T09:48:23Z</time>
      </trkpt>
      <trkpt lat="45.09096" lon="5.61978">
        <ele>1923</ele>
        <time>2010-06-06T09:48:25Z</time>
      </trkpt>
      <trkpt lat="45.09096" lon="5.61976">
        <ele>1923</ele>
        <time>2010-06-06T09:48:26Z</time>
      </trkpt>
      <trkpt lat="45.09095" lon="5.61975">
        <ele>1922</ele>
        <time>2010-06-06T09:48:27Z</time>
      </trkpt>
      <trkpt lat="45.09095" lon="5.61973">
        <ele>1921</ele>
        <time>2010-06-06T09:48:28Z</time>
      </trkpt>
      <trkpt lat="45.09095" lon="5.61971">
        <ele>1921</ele>
        <time>2010-06-06T09:48:29Z</time>
      </trkpt>
      <trkpt lat="45.09097" lon="5.61968">
        <ele>1920</ele>
        <time>2010-06-06T09:48:31Z</time>
      </trkpt>
      <trkpt lat="45.09096" lon="5.61966">
        <ele>1919</ele>
        <time>2010-06-06T09:48:32Z</time>
      </trkpt>
      <trkpt lat="45.09095" lon="5.61963">
        <ele>1918</ele>
        <time>2010-06-06T09:48:34Z</time>
      </trkpt>
      <trkpt lat="45.09095" lon="5.61961">
        <ele>1917</ele>
        <time>2010-06-06T09:48:35Z</time>
      </trkpt>
      <trkpt lat="45.09096" lon="5.61959">
        <ele>1916</ele>
        <time>2010-06-06T09:48:36Z</time>
      </trkpt>
      <trkpt lat="45.09097" lon="5.61956">
        <ele>1914</ele>
        <time>2010-06-06T09:48:38Z</time>
      </trkpt>
      <trkpt lat="45.09098" lon="5.61954">
        <ele>1913</ele>
        <time>2010-06-06T09:48:39Z</time>
      </trkpt>
      <trkpt lat="45.09098" lon="5.61951">
        <ele>1913</ele>
        <time>2010-06-06T09:48:40Z</time>
      </trkpt>
      <trkpt lat="45.09098" lon="5.61949">
        <ele>1912</ele>
        <time>2010-06-06T09:48:41Z</time>
      </trkpt>
      <trkpt lat="45.091" lon="5.61949">
        <ele>1910</ele>
        <time>2010-06-06T09:48:43Z</time>
      </trkpt>
      <trkpt lat="45.09102" lon="5.61949">
        <ele>1910</ele>
        <time>2010-06-06T09:48:44Z</time>
      </trkpt>
      <trkpt lat="45.09104" lon="5.61949">
        <ele>1909</ele>
        <time>2010-06-06T09:48:45Z</time>
      </trkpt>
      <trkpt lat="45.09106" lon="5.61949">
        <ele>1908</ele>
        <time>2010-06-06T09:48:46Z</time>
      </trkpt>
      <trkpt lat="45.09108" lon="5.61949">
        <ele>1908</ele>
        <time>2010-06-06T09:48:47Z</time>
      </trkpt>
      <trkpt lat="45.0911" lon="5.61949">
        <ele>1907</ele>
        <time>2010-06-06T09:48:48Z</time>
      </trkpt>
      <trkpt lat="45.09112" lon="5.61949">
        <ele>1906</ele>
        <time>2010-06-06T09:48:49Z</time>
      </trkpt>
      <trkpt lat="45.09114" lon="5.61949">
        <ele>1905</ele>
        <time>2010-06-06T09:48:50Z</time>
      </trkpt>
      <trkpt lat="45.09116" lon="5.61949">
        <ele>1905</ele>
        <time>2010-06-06T09:48:51Z</time>
      </trkpt>
      <trkpt lat="45.09118" lon="5.61949">
        <ele>1904</ele>
        <time>2010-06-06T09:48:52Z</time>
      </trkpt>
      <trkpt lat="45.0912" lon="5.61948">
        <ele>1903</ele>
        <time>2010-06-06T09:48:53Z</time>
      </trkpt>
      <trkpt lat="45.09121" lon="5.61946">
        <ele>1902</ele>
        <time>2010-06-06T09:48:55Z</time>
      </trkpt>
      <trkpt lat="45.09123" lon="5.61944">
        <ele>1901</ele>
        <time>2010-06-06T09:48:56Z</time>
      </trkpt>
      <trkpt lat="45.09125" lon="5.61942">
        <ele>1900</ele>
        <time>2010-06-06T09:48:57Z</time>
      </trkpt>
      <trkpt lat="45.09127" lon="5.61942">
        <ele>1899</ele>
        <time>2010-06-06T09:48:58Z</time>
      </trkpt>
      <trkpt lat="45.0913" lon="5.6194">
        <ele>1898</ele>
        <time>2010-06-06T09:48:59Z</time>
      </trkpt>
      <trkpt lat="45.09132" lon="5.61939">
        <ele>1897</ele>
        <time>2010-06-06T09:49:00Z</time>
      </trkpt>
      <trkpt lat="45.09134" lon="5.61937">
        <ele>1896</ele>
        <time>2010-06-06T09:49:01Z</time>
      </trkpt>
      <trkpt lat="45.09136" lon="5.61935">
        <ele>1895</ele>
        <time>2010-06-06T09:49:02Z</time>
      </trkpt>
      <trkpt lat="45.09139" lon="5.61934">
        <ele>1894</ele>
        <time>2010-06-06T09:49:03Z</time>
      </trkpt>
      <trkpt lat="45.09141" lon="5.61934">
        <ele>1893</ele>
        <time>2010-06-06T09:49:04Z</time>
      </trkpt>
      <trkpt lat="45.09144" lon="5.61933">
        <ele>1892</ele>
        <time>2010-06-06T09:49:05Z</time>
      </trkpt>
      <trkpt lat="45.09146" lon="5.61931">
        <ele>1891</ele>
        <time>2010-06-06T09:49:06Z</time>
      </trkpt>
      <trkpt lat="45.09148" lon="5.61931">
        <ele>1890</ele>
        <time>2010-06-06T09:49:07Z</time>
      </trkpt>
      <trkpt lat="45.0915" lon="5.61929">
        <ele>1889</ele>
        <time>2010-06-06T09:49:08Z</time>
      </trkpt>
      <trkpt lat="45.09152" lon="5.61928">
        <ele>1889</ele>
        <time>2010-06-06T09:49:09Z</time>
      </trkpt>
      <trkpt lat="45.09155" lon="5.61926">
        <ele>1888</ele>
        <time>2010-06-06T09:49:10Z</time>
      </trkpt>
      <trkpt lat="45.09157" lon="5.61924">
        <ele>1887</ele>
        <time>2010-06-06T09:49:11Z</time>
      </trkpt>
      <trkpt lat="45.09158" lon="5.61922">
        <ele>1886</ele>
        <time>2010-06-06T09:49:12Z</time>
      </trkpt>
      <trkpt lat="45.0916" lon="5.61921">
        <ele>1886</ele>
        <time>2010-06-06T09:49:13Z</time>
      </trkpt>
      <trkpt lat="45.09162" lon="5.61919">
        <ele>1885</ele>
        <time>2010-06-06T09:49:14Z</time>
      </trkpt>
      <trkpt lat="45.09162" lon="5.61918">
        <ele>1885</ele>
        <time>2010-06-06T09:49:15Z</time>
      </trkpt>
      <trkpt lat="45.09162" lon="5.61915">
        <ele>1884</ele>
        <time>2010-06-06T09:49:16Z</time>
      </trkpt>
      <trkpt lat="45.0916" lon="5.61914">
        <ele>1884</ele>
        <time>2010-06-06T09:49:17Z</time>
      </trkpt>
      <trkpt lat="45.09159" lon="5.61912">
        <ele>1883</ele>
        <time>2010-06-06T09:49:18Z</time>
      </trkpt>
      <trkpt lat="45.09158" lon="5.61911">
        <ele>1883</ele>
        <time>2010-06-06T09:49:19Z</time>
      </trkpt>
      <trkpt lat="45.09159" lon="5.61909">
        <ele>1882</ele>
        <time>2010-06-06T09:49:20Z</time>
      </trkpt>
      <trkpt lat="45.0916" lon="5.61908">
        <ele>1881</ele>
        <time>2010-06-06T09:49:21Z</time>
      </trkpt>
      <trkpt lat="45.09161" lon="5.61907">
        <ele>1881</ele>
        <time>2010-06-06T09:49:22Z</time>
      </trkpt>
      <trkpt lat="45.09162" lon="5.61904">
        <ele>1880</ele>
        <time>2010-06-06T09:49:23Z</time>
      </trkpt>
      <trkpt lat="45.09161" lon="5.61902">
        <ele>1879</ele>
        <time>2010-06-06T09:49:24Z</time>
      </trkpt>
      <trkpt lat="45.09162" lon="5.61899">
        <ele>1878</ele>
        <time>2010-06-06T09:49:25Z</time>
      </trkpt>
      <trkpt lat="45.09163" lon="5.61896">
        <ele>1878</ele>
        <time>2010-06-06T09:49:26Z</time>
      </trkpt>
      <trkpt lat="45.09163" lon="5.61894">
        <ele>1877</ele>
        <time>2010-06-06T09:49:27Z</time>
      </trkpt>
      <trkpt lat="45.09164" lon="5.6189">
        <ele>1876</ele>
        <time>2010-06-06T09:49:28Z</time>
      </trkpt>
      <trkpt lat="45.09165" lon="5.61886">
        <ele>1876</ele>
        <time>2010-06-06T09:49:29Z</time>
      </trkpt>
      <trkpt lat="45.09166" lon="5.61882">
        <ele>1875</ele>
        <time>2010-06-06T09:49:30Z</time>
      </trkpt>
      <trkpt lat="45.09167" lon="5.61879">
        <ele>1874</ele>
        <time>2010-06-06T09:49:31Z</time>
      </trkpt>
      <trkpt lat="45.09168" lon="5.61876">
        <ele>1873</ele>
        <time>2010-06-06T09:49:32Z</time>
      </trkpt>
      <trkpt lat="45.09168" lon="5.61873">
        <ele>1873</ele>
        <time>2010-06-06T09:49:33Z</time>
      </trkpt>
      <trkpt lat="45.09169" lon="5.6187">
        <ele>1872</ele>
        <time>2010-06-06T09:49:34Z</time>
      </trkpt>
      <trkpt lat="45.09169" lon="5.61868">
        <ele>1871</ele>
        <time>2010-06-06T09:49:35Z</time>
      </trkpt>
      <trkpt lat="45.09168" lon="5.61865">
        <ele>1869</ele>
        <time>2010-06-06T09:49:37Z</time>
      </trkpt>
      <trkpt lat="45.09169" lon="5.61862">
        <ele>1869</ele>
        <time>2010-06-06T09:49:38Z</time>
      </trkpt>
      <trkpt lat="45.09169" lon="5.6186">
        <ele>1868</ele>
        <time>2010-06-06T09:49:39Z</time>
      </trkpt>
      <trkpt lat="45.09169" lon="5.61858">
        <ele>1868</ele>
        <time>2010-06-06T09:49:40Z</time>
      </trkpt>
      <trkpt lat="45.09169" lon="5.61854">
        <ele>1867</ele>
        <time>2010-06-06T09:49:42Z</time>
      </trkpt>
      <trkpt lat="45.0917" lon="5.61852">
        <ele>1866</ele>
        <time>2010-06-06T09:49:43Z</time>
      </trkpt>
      <trkpt lat="45.09171" lon="5.61848">
        <ele>1866</ele>
        <time>2010-06-06T09:49:45Z</time>
      </trkpt>
      <trkpt lat="45.09173" lon="5.61844">
        <ele>1865</ele>
        <time>2010-06-06T09:49:46Z</time>
      </trkpt>
      <trkpt lat="45.09175" lon="5.61842">
        <ele>1864</ele>
        <time>2010-06-06T09:49:47Z</time>
      </trkpt>
      <trkpt lat="45.09176" lon="5.61841">
        <ele>1864</ele>
        <time>2010-06-06T09:49:48Z</time>
      </trkpt>
      <trkpt lat="45.09176" lon="5.61839">
        <ele>1863</ele>
        <time>2010-06-06T09:49:49Z</time>
      </trkpt>
      <trkpt lat="45.09177" lon="5.61836">
        <ele>1863</ele>
        <time>2010-06-06T09:49:50Z</time>
      </trkpt>
      <trkpt lat="45.09178" lon="5.61833">
        <ele>1862</ele>
        <time>2010-06-06T09:49:51Z</time>
      </trkpt>
      <trkpt lat="45.09179" lon="5.6183">
        <ele>1861</ele>
        <time>2010-06-06T09:49:52Z</time>
      </trkpt>
      <trkpt lat="45.0918" lon="5.61827">
        <ele>1861</ele>
        <time>2010-06-06T09:49:53Z</time>
      </trkpt>
      <trkpt lat="45.09182" lon="5.61824">
        <ele>1860</ele>
        <time>2010-06-06T09:49:54Z</time>
      </trkpt>
      <trkpt lat="45.09183" lon="5.6182">
        <ele>1859</ele>
        <time>2010-06-06T09:49:55Z</time>
      </trkpt>
      <trkpt lat="45.09185" lon="5.61816">
        <ele>1858</ele>
        <time>2010-06-06T09:49:56Z</time>
      </trkpt>
      <trkpt lat="45.09187" lon="5.61812">
        <ele>1858</ele>
        <time>2010-06-06T09:49:57Z</time>
      </trkpt>
      <trkpt lat="45.09188" lon="5.61808">
        <ele>1857</ele>
        <time>2010-06-06T09:49:58Z</time>
      </trkpt>
      <trkpt lat="45.09189" lon="5.61803">
        <ele>1856</ele>
        <time>2010-06-06T09:49:59Z</time>
      </trkpt>
      <trkpt lat="45.0919" lon="5.618">
        <ele>1856</ele>
        <time>2010-06-06T09:50:00Z</time>
      </trkpt>
      <trkpt lat="45.09192" lon="5.61796">
        <ele>1855</ele>
        <time>2010-06-06T09:50:01Z</time>
      </trkpt>
      <trkpt lat="45.09193" lon="5.61793">
        <ele>1854</ele>
        <time>2010-06-06T09:50:02Z</time>
      </trkpt>
      <trkpt lat="45.09195" lon="5.6179">
        <ele>1854</ele>
        <time>2010-06-06T09:50:03Z</time>
      </trkpt>
      <trkpt lat="45.09196" lon="5.61785">
        <ele>1853</ele>
        <time>2010-06-06T09:50:04Z</time>
      </trkpt>
      <trkpt lat="45.09197" lon="5.61783">
        <ele>1852</ele>
        <time>2010-06-06T09:50:05Z</time>
      </trkpt>
      <trkpt lat="45.09198" lon="5.61781">
        <ele>1851</ele>
        <time>2010-06-06T09:50:06Z</time>
      </trkpt>
      <trkpt lat="45.09199" lon="5.61778">
        <ele>1851</ele>
        <time>2010-06-06T09:50:07Z</time>
      </trkpt>
      <trkpt lat="45.092" lon="5.61775">
        <ele>1850</ele>
        <time>2010-06-06T09:50:08Z</time>
      </trkpt>
      <trkpt lat="45.09201" lon="5.61773">
        <ele>1849</ele>
        <time>2010-06-06T09:50:09Z</time>
      </trkpt>
      <trkpt lat="45.09202" lon="5.61769">
        <ele>1849</ele>
        <time>2010-06-06T09:50:10Z</time>
      </trkpt>
      <trkpt lat="45.09203" lon="5.61765">
        <ele>1848</ele>
        <time>2010-06-06T09:50:12Z</time>
      </trkpt>
      <trkpt lat="45.09204" lon="5.61761">
        <ele>1847</ele>
        <time>2010-06-06T09:50:12Z</time>
      </trkpt>
      <trkpt lat="45.09205" lon="5.61759">
        <ele>1846</ele>
        <time>2010-06-06T09:50:13Z</time>
      </trkpt>
      <trkpt lat="45.09205" lon="5.61756">
        <ele>1845</ele>
        <time>2010-06-06T09:50:14Z</time>
      </trkpt>
      <trkpt lat="45.09206" lon="5.61754">
        <ele>1844</ele>
        <time>2010-06-06T09:50:15Z</time>
      </trkpt>
      <trkpt lat="45.09207" lon="5.61751">
        <ele>1843</ele>
        <time>2010-06-06T09:50:16Z</time>
      </trkpt>
      <trkpt lat="45.09207" lon="5.61749">
        <ele>1843</ele>
        <time>2010-06-06T09:50:17Z</time>
      </trkpt>
      <trkpt lat="45.09208" lon="5.61746">
        <ele>1842</ele>
        <time>2010-06-06T09:50:18Z</time>
      </trkpt>
      <trkpt lat="45.09209" lon="5.61744">
        <ele>1842</ele>
        <time>2010-06-06T09:50:19Z</time>
      </trkpt>
      <trkpt lat="45.0921" lon="5.61743">
        <ele>1841</ele>
        <time>2010-06-06T09:50:20Z</time>
      </trkpt>
      <trkpt lat="45.09212" lon="5.61742">
        <ele>1840</ele>
        <time>2010-06-06T09:50:21Z</time>
      </trkpt>
      <trkpt lat="45.09214" lon="5.6174">
        <ele>1840</ele>
        <time>2010-06-06T09:50:22Z</time>
      </trkpt>
      <trkpt lat="45.09216" lon="5.61739">
        <ele>1839</ele>
        <time>2010-06-06T09:50:23Z</time>
      </trkpt>
      <trkpt lat="45.09219" lon="5.61737">
        <ele>1838</ele>
        <time>2010-06-06T09:50:24Z</time>
      </trkpt>
      <trkpt lat="45.09222" lon="5.61735">
        <ele>1838</ele>
        <time>2010-06-06T09:50:25Z</time>
      </trkpt>
      <trkpt lat="45.09225" lon="5.61734">
        <ele>1837</ele>
        <time>2010-06-06T09:50:26Z</time>
      </trkpt>
      <trkpt lat="45.09228" lon="5.61733">
        <ele>1837</ele>
        <time>2010-06-06T09:50:27Z</time>
      </trkpt>
      <trkpt lat="45.0923" lon="5.61731">
        <ele>1836</ele>
        <time>2010-06-06T09:50:28Z</time>
      </trkpt>
      <trkpt lat="45.09231" lon="5.61729">
        <ele>1835</ele>
        <time>2010-06-06T09:50:29Z</time>
      </trkpt>
      <trkpt lat="45.09233" lon="5.61727">
        <ele>1835</ele>
        <time>2010-06-06T09:50:30Z</time>
      </trkpt>
      <trkpt lat="45.09234" lon="5.61725">
        <ele>1834</ele>
        <time>2010-06-06T09:50:31Z</time>
      </trkpt>
      <trkpt lat="45.09236" lon="5.61723">
        <ele>1833</ele>
        <time>2010-06-06T09:50:32Z</time>
      </trkpt>
      <trkpt lat="45.09238" lon="5.61723">
        <ele>1832</ele>
        <time>2010-06-06T09:50:33Z</time>
      </trkpt>
      <trkpt lat="45.0924" lon="5.61722">
        <ele>1831</ele>
        <time>2010-06-06T09:50:35Z</time>
      </trkpt>
      <trkpt lat="45.09242" lon="5.61721">
        <ele>1830</ele>
        <time>2010-06-06T09:50:37Z</time>
      </trkpt>
      <trkpt lat="45.09243" lon="5.61718">
        <ele>1829</ele>
        <time>2010-06-06T09:50:39Z</time>
      </trkpt>
      <trkpt lat="45.09245" lon="5.61716">
        <ele>1829</ele>
        <time>2010-06-06T09:50:40Z</time>
      </trkpt>
      <trkpt lat="45.09246" lon="5.61714">
        <ele>1829</ele>
        <time>2010-06-06T09:50:41Z</time>
      </trkpt>
      <trkpt lat="45.09247" lon="5.61713">
        <ele>1829</ele>
        <time>2010-06-06T09:50:42Z</time>
      </trkpt>
      <trkpt lat="45.09249" lon="5.61711">
        <ele>1829</ele>
        <time>2010-06-06T09:50:43Z</time>
      </trkpt>
      <trkpt lat="45.0925" lon="5.61709">
        <ele>1828</ele>
        <time>2010-06-06T09:50:44Z</time>
      </trkpt>
      <trkpt lat="45.09251" lon="5.61707">
        <ele>1828</ele>
        <time>2010-06-06T09:50:45Z</time>
      </trkpt>
      <trkpt lat="45.09252" lon="5.61704">
        <ele>1827</ele>
        <time>2010-06-06T09:50:46Z</time>
      </trkpt>
      <trkpt lat="45.09254" lon="5.61702">
        <ele>1826</ele>
        <time>2010-06-06T09:50:47Z</time>
      </trkpt>
      <trkpt lat="45.09256" lon="5.617">
        <ele>1826</ele>
        <time>2010-06-06T09:50:48Z</time>
      </trkpt>
      <trkpt lat="45.09258" lon="5.61699">
        <ele>1825</ele>
        <time>2010-06-06T09:50:49Z</time>
      </trkpt>
      <trkpt lat="45.0926" lon="5.61698">
        <ele>1825</ele>
        <time>2010-06-06T09:50:50Z</time>
      </trkpt>
      <trkpt lat="45.09262" lon="5.61697">
        <ele>1824</ele>
        <time>2010-06-06T09:50:51Z</time>
      </trkpt>
      <trkpt lat="45.09264" lon="5.61696">
        <ele>1823</ele>
        <time>2010-06-06T09:50:52Z</time>
      </trkpt>
      <trkpt lat="45.09267" lon="5.61694">
        <ele>1823</ele>
        <time>2010-06-06T09:50:53Z</time>
      </trkpt>
      <trkpt lat="45.09269" lon="5.61693">
        <ele>1823</ele>
        <time>2010-06-06T09:50:54Z</time>
      </trkpt>
      <trkpt lat="45.09272" lon="5.61693">
        <ele>1822</ele>
        <time>2010-06-06T09:50:55Z</time>
      </trkpt>
      <trkpt lat="45.09274" lon="5.61692">
        <ele>1822</ele>
        <time>2010-06-06T09:50:56Z</time>
      </trkpt>
      <trkpt lat="45.09277" lon="5.61692">
        <ele>1822</ele>
        <time>2010-06-06T09:50:57Z</time>
      </trkpt>
      <trkpt lat="45.09279" lon="5.61692">
        <ele>1821</ele>
        <time>2010-06-06T09:50:58Z</time>
      </trkpt>
      <trkpt lat="45.09281" lon="5.61691">
        <ele>1821</ele>
        <time>2010-06-06T09:50:59Z</time>
      </trkpt>
      <trkpt lat="45.09283" lon="5.61691">
        <ele>1820</ele>
        <time>2010-06-06T09:51:00Z</time>
      </trkpt>
      <trkpt lat="45.09286" lon="5.61691">
        <ele>1820</ele>
        <time>2010-06-06T09:51:01Z</time>
      </trkpt>
      <trkpt lat="45.09288" lon="5.61692">
        <ele>1820</ele>
        <time>2010-06-06T09:51:02Z</time>
      </trkpt>
      <trkpt lat="45.09291" lon="5.61692">
        <ele>1819</ele>
        <time>2010-06-06T09:51:03Z</time>
      </trkpt>
      <trkpt lat="45.09292" lon="5.61692">
        <ele>1819</ele>
        <time>2010-06-06T09:51:04Z</time>
      </trkpt>
      <trkpt lat="45.09294" lon="5.61693">
        <ele>1818</ele>
        <time>2010-06-06T09:51:06Z</time>
      </trkpt>
      <trkpt lat="45.09296" lon="5.61692">
        <ele>1817</ele>
        <time>2010-06-06T09:51:07Z</time>
      </trkpt>
      <trkpt lat="45.09297" lon="5.61692">
        <ele>1817</ele>
        <time>2010-06-06T09:51:08Z</time>
      </trkpt>
      <trkpt lat="45.09299" lon="5.61692">
        <ele>1817</ele>
        <time>2010-06-06T09:51:09Z</time>
      </trkpt>
      <trkpt lat="45.093" lon="5.61692">
        <ele>1817</ele>
        <time>2010-06-06T09:51:10Z</time>
      </trkpt>
      <trkpt lat="45.09302" lon="5.61692">
        <ele>1817</ele>
        <time>2010-06-06T09:51:11Z</time>
      </trkpt>
      <trkpt lat="45.09303" lon="5.61691">
        <ele>1817</ele>
        <time>2010-06-06T09:51:12Z</time>
      </trkpt>
      <trkpt lat="45.09305" lon="5.6169">
        <ele>1817</ele>
        <time>2010-06-06T09:51:13Z</time>
      </trkpt>
      <trkpt lat="45.09306" lon="5.61689">
        <ele>1817</ele>
        <time>2010-06-06T09:51:14Z</time>
      </trkpt>
      <trkpt lat="45.09308" lon="5.61687">
        <ele>1817</ele>
        <time>2010-06-06T09:51:15Z</time>
      </trkpt>
      <trkpt lat="45.09309" lon="5.61686">
        <ele>1817</ele>
        <time>2010-06-06T09:51:16Z</time>
      </trkpt>
      <trkpt lat="45.09311" lon="5.61683">
        <ele>1816</ele>
        <time>2010-06-06T09:51:18Z</time>
      </trkpt>
      <trkpt lat="45.09313" lon="5.61682">
        <ele>1816</ele>
        <time>2010-06-06T09:51:19Z</time>
      </trkpt>
      <trkpt lat="45.09314" lon="5.61681">
        <ele>1815</ele>
        <time>2010-06-06T09:51:20Z</time>
      </trkpt>
      <trkpt lat="45.09316" lon="5.6168">
        <ele>1815</ele>
        <time>2010-06-06T09:51:21Z</time>
      </trkpt>
      <trkpt lat="45.09319" lon="5.6168">
        <ele>1814</ele>
        <time>2010-06-06T09:51:22Z</time>
      </trkpt>
      <trkpt lat="45.09322" lon="5.6168">
        <ele>1814</ele>
        <time>2010-06-06T09:51:23Z</time>
      </trkpt>
      <trkpt lat="45.09324" lon="5.6168">
        <ele>1813</ele>
        <time>2010-06-06T09:51:24Z</time>
      </trkpt>
      <trkpt lat="45.09326" lon="5.6168">
        <ele>1813</ele>
        <time>2010-06-06T09:51:25Z</time>
      </trkpt>
      <trkpt lat="45.09329" lon="5.61679">
        <ele>1812</ele>
        <time>2010-06-06T09:51:26Z</time>
      </trkpt>
      <trkpt lat="45.09331" lon="5.61679">
        <ele>1812</ele>
        <time>2010-06-06T09:51:27Z</time>
      </trkpt>
      <trkpt lat="45.09333" lon="5.61678">
        <ele>1811</ele>
        <time>2010-06-06T09:51:28Z</time>
      </trkpt>
      <trkpt lat="45.09335" lon="5.61678">
        <ele>1811</ele>
        <time>2010-06-06T09:51:29Z</time>
      </trkpt>
      <trkpt lat="45.09338" lon="5.61677">
        <ele>1811</ele>
        <time>2010-06-06T09:51:30Z</time>
      </trkpt>
      <trkpt lat="45.0934" lon="5.61675">
        <ele>1811</ele>
        <time>2010-06-06T09:51:31Z</time>
      </trkpt>
      <trkpt lat="45.09342" lon="5.61674">
        <ele>1811</ele>
        <time>2010-06-06T09:51:32Z</time>
      </trkpt>
      <trkpt lat="45.09344" lon="5.61673">
        <ele>1810</ele>
        <time>2010-06-06T09:51:33Z</time>
      </trkpt>
      <trkpt lat="45.09346" lon="5.61671">
        <ele>1810</ele>
        <time>2010-06-06T09:51:34Z</time>
      </trkpt>
      <trkpt lat="45.09348" lon="5.6167">
        <ele>1810</ele>
        <time>2010-06-06T09:51:35Z</time>
      </trkpt>
      <trkpt lat="45.0935" lon="5.61669">
        <ele>1810</ele>
        <time>2010-06-06T09:51:36Z</time>
      </trkpt>
      <trkpt lat="45.09352" lon="5.61667">
        <ele>1809</ele>
        <time>2010-06-06T09:51:37Z</time>
      </trkpt>
      <trkpt lat="45.09355" lon="5.61666">
        <ele>1809</ele>
        <time>2010-06-06T09:51:38Z</time>
      </trkpt>
      <trkpt lat="45.09357" lon="5.61665">
        <ele>1809</ele>
        <time>2010-06-06T09:51:39Z</time>
      </trkpt>
      <trkpt lat="45.09359" lon="5.61665">
        <ele>1808</ele>
        <time>2010-06-06T09:51:40Z</time>
      </trkpt>
      <trkpt lat="45.09362" lon="5.61664">
        <ele>1807</ele>
        <time>2010-06-06T09:51:41Z</time>
      </trkpt>
      <trkpt lat="45.09365" lon="5.61664">
        <ele>1807</ele>
        <time>2010-06-06T09:51:42Z</time>
      </trkpt>
      <trkpt lat="45.09367" lon="5.61664">
        <ele>1806</ele>
        <time>2010-06-06T09:51:43Z</time>
      </trkpt>
      <trkpt lat="45.09369" lon="5.61664">
        <ele>1805</ele>
        <time>2010-06-06T09:51:44Z</time>
      </trkpt>
      <trkpt lat="45.09372" lon="5.61663">
        <ele>1804</ele>
        <time>2010-06-06T09:51:45Z</time>
      </trkpt>
      <trkpt lat="45.09374" lon="5.61662">
        <ele>1803</ele>
        <time>2010-06-06T09:51:46Z</time>
      </trkpt>
      <trkpt lat="45.09377" lon="5.6166">
        <ele>1803</ele>
        <time>2010-06-06T09:51:47Z</time>
      </trkpt>
      <trkpt lat="45.09379" lon="5.61658">
        <ele>1802</ele>
        <time>2010-06-06T09:51:48Z</time>
      </trkpt>
      <trkpt lat="45.09382" lon="5.61656">
        <ele>1802</ele>
        <time>2010-06-06T09:51:49Z</time>
      </trkpt>
      <trkpt lat="45.09383" lon="5.61654">
        <ele>1802</ele>
        <time>2010-06-06T09:51:50Z</time>
      </trkpt>
      <trkpt lat="45.09384" lon="5.61651">
        <ele>1801</ele>
        <time>2010-06-06T09:51:51Z</time>
      </trkpt>
      <trkpt lat="45.09385" lon="5.61649">
        <ele>1801</ele>
        <time>2010-06-06T09:51:52Z</time>
      </trkpt>
      <trkpt lat="45.09386" lon="5.61646">
        <ele>1800</ele>
        <time>2010-06-06T09:51:53Z</time>
      </trkpt>
      <trkpt lat="45.09388" lon="5.61642">
        <ele>1800</ele>
        <time>2010-06-06T09:51:54Z</time>
      </trkpt>
      <trkpt lat="45.09391" lon="5.61638">
        <ele>1799</ele>
        <time>2010-06-06T09:51:55Z</time>
      </trkpt>
      <trkpt lat="45.09393" lon="5.61635">
        <ele>1798</ele>
        <time>2010-06-06T09:51:56Z</time>
      </trkpt>
      <trkpt lat="45.09396" lon="5.61632">
        <ele>1798</ele>
        <time>2010-06-06T09:51:57Z</time>
      </trkpt>
      <trkpt lat="45.09398" lon="5.61629">
        <ele>1797</ele>
        <time>2010-06-06T09:51:58Z</time>
      </trkpt>
      <trkpt lat="45.09401" lon="5.61626">
        <ele>1796</ele>
        <time>2010-06-06T09:51:59Z</time>
      </trkpt>
      <trkpt lat="45.09403" lon="5.61622">
        <ele>1796</ele>
        <time>2010-06-06T09:52:00Z</time>
      </trkpt>
      <trkpt lat="45.09405" lon="5.61619">
        <ele>1795</ele>
        <time>2010-06-06T09:52:01Z</time>
      </trkpt>
      <trkpt lat="45.09406" lon="5.61615">
        <ele>1794</ele>
        <time>2010-06-06T09:52:02Z</time>
      </trkpt>
      <trkpt lat="45.09409" lon="5.61613">
        <ele>1794</ele>
        <time>2010-06-06T09:52:03Z</time>
      </trkpt>
      <trkpt lat="45.09411" lon="5.61611">
        <ele>1794</ele>
        <time>2010-06-06T09:52:04Z</time>
      </trkpt>
      <trkpt lat="45.09413" lon="5.61609">
        <ele>1793</ele>
        <time>2010-06-06T09:52:05Z</time>
      </trkpt>
      <trkpt lat="45.09416" lon="5.61607">
        <ele>1793</ele>
        <time>2010-06-06T09:52:06Z</time>
      </trkpt>
      <trkpt lat="45.09418" lon="5.61607">
        <ele>1792</ele>
        <time>2010-06-06T09:52:07Z</time>
      </trkpt>
      <trkpt lat="45.0942" lon="5.61605">
        <ele>1792</ele>
        <time>2010-06-06T09:52:08Z</time>
      </trkpt>
      <trkpt lat="45.09422" lon="5.61604">
        <ele>1791</ele>
        <time>2010-06-06T09:52:09Z</time>
      </trkpt>
      <trkpt lat="45.09424" lon="5.61602">
        <ele>1791</ele>
        <time>2010-06-06T09:52:10Z</time>
      </trkpt>
      <trkpt lat="45.09426" lon="5.616">
        <ele>1790</ele>
        <time>2010-06-06T09:52:11Z</time>
      </trkpt>
      <trkpt lat="45.09429" lon="5.61599">
        <ele>1790</ele>
        <time>2010-06-06T09:52:12Z</time>
      </trkpt>
      <trkpt lat="45.09432" lon="5.61598">
        <ele>1789</ele>
        <time>2010-06-06T09:52:13Z</time>
      </trkpt>
      <trkpt lat="45.09434" lon="5.61596">
        <ele>1789</ele>
        <time>2010-06-06T09:52:14Z</time>
      </trkpt>
      <trkpt lat="45.09436" lon="5.61593">
        <ele>1789</ele>
        <time>2010-06-06T09:52:15Z</time>
      </trkpt>
      <trkpt lat="45.09438" lon="5.6159">
        <ele>1788</ele>
        <time>2010-06-06T09:52:16Z</time>
      </trkpt>
      <trkpt lat="45.0944" lon="5.61588">
        <ele>1787</ele>
        <time>2010-06-06T09:52:17Z</time>
      </trkpt>
      <trkpt lat="45.09443" lon="5.61586">
        <ele>1787</ele>
        <time>2010-06-06T09:52:18Z</time>
      </trkpt>
      <trkpt lat="45.09447" lon="5.61586">
        <ele>1786</ele>
        <time>2010-06-06T09:52:19Z</time>
      </trkpt>
      <trkpt lat="45.09451" lon="5.61588">
        <ele>1785</ele>
        <time>2010-06-06T09:52:20Z</time>
      </trkpt>
      <trkpt lat="45.09454" lon="5.61588">
        <ele>1785</ele>
        <time>2010-06-06T09:52:21Z</time>
      </trkpt>
      <trkpt lat="45.09457" lon="5.61588">
        <ele>1785</ele>
        <time>2010-06-06T09:52:22Z</time>
      </trkpt>
      <trkpt lat="45.09459" lon="5.61587">
        <ele>1785</ele>
        <time>2010-06-06T09:52:23Z</time>
      </trkpt>
      <trkpt lat="45.0946" lon="5.61586">
        <ele>1785</ele>
        <time>2010-06-06T09:52:24Z</time>
      </trkpt>
      <trkpt lat="45.09461" lon="5.61584">
        <ele>1784</ele>
        <time>2010-06-06T09:52:25Z</time>
      </trkpt>
      <trkpt lat="45.09462" lon="5.61582">
        <ele>1784</ele>
        <time>2010-06-06T09:52:26Z</time>
      </trkpt>
      <trkpt lat="45.09464" lon="5.61581">
        <ele>1784</ele>
        <time>2010-06-06T09:52:27Z</time>
      </trkpt>
      <trkpt lat="45.09466" lon="5.6158">
        <ele>1783</ele>
        <time>2010-06-06T09:52:28Z</time>
      </trkpt>
      <trkpt lat="45.09468" lon="5.61578">
        <ele>1783</ele>
        <time>2010-06-06T09:52:29Z</time>
      </trkpt>
      <trkpt lat="45.0947" lon="5.61577">
        <ele>1782</ele>
        <time>2010-06-06T09:52:30Z</time>
      </trkpt>
      <trkpt lat="45.09472" lon="5.61576">
        <ele>1782</ele>
        <time>2010-06-06T09:52:31Z</time>
      </trkpt>
      <trkpt lat="45.09474" lon="5.61575">
        <ele>1781</ele>
        <time>2010-06-06T09:52:32Z</time>
      </trkpt>
      <trkpt lat="45.09475" lon="5.61574">
        <ele>1781</ele>
        <time>2010-06-06T09:52:33Z</time>
      </trkpt>
      <trkpt lat="45.09476" lon="5.61572">
        <ele>1781</ele>
        <time>2010-06-06T09:52:34Z</time>
      </trkpt>
      <trkpt lat="45.09477" lon="5.61569">
        <ele>1781</ele>
        <time>2010-06-06T09:52:35Z</time>
      </trkpt>
      <trkpt lat="45.09478" lon="5.61567">
        <ele>1781</ele>
        <time>2010-06-06T09:52:36Z</time>
      </trkpt>
      <trkpt lat="45.0948" lon="5.61564">
        <ele>1781</ele>
        <time>2010-06-06T09:52:37Z</time>
      </trkpt>
      <trkpt lat="45.09482" lon="5.61562">
        <ele>1780</ele>
        <time>2010-06-06T09:52:38Z</time>
      </trkpt>
      <trkpt lat="45.09483" lon="5.61559">
        <ele>1779</ele>
        <time>2010-06-06T09:52:39Z</time>
      </trkpt>
      <trkpt lat="45.09484" lon="5.61558">
        <ele>1779</ele>
        <time>2010-06-06T09:52:40Z</time>
      </trkpt>
      <trkpt lat="45.09486" lon="5.61557">
        <ele>1778</ele>
        <time>2010-06-06T09:52:41Z</time>
      </trkpt>
      <trkpt lat="45.09488" lon="5.61556">
        <ele>1778</ele>
        <time>2010-06-06T09:52:42Z</time>
      </trkpt>
      <trkpt lat="45.09489" lon="5.61555">
        <ele>1778</ele>
        <time>2010-06-06T09:52:43Z</time>
      </trkpt>
      <trkpt lat="45.09491" lon="5.61552">
        <ele>1777</ele>
        <time>2010-06-06T09:52:45Z</time>
      </trkpt>
      <trkpt lat="45.09492" lon="5.61551">
        <ele>1777</ele>
        <time>2010-06-06T09:52:46Z</time>
      </trkpt>
      <trkpt lat="45.09493" lon="5.61549">
        <ele>1777</ele>
        <time>2010-06-06T09:52:47Z</time>
      </trkpt>
      <trkpt lat="45.09495" lon="5.61549">
        <ele>1776</ele>
        <time>2010-06-06T09:52:49Z</time>
      </trkpt>
      <trkpt lat="45.09496" lon="5.61549">
        <ele>1776</ele>
        <time>2010-06-06T09:52:50Z</time>
      </trkpt>
      <trkpt lat="45.09497" lon="5.61548">
        <ele>1776</ele>
        <time>2010-06-06T09:52:51Z</time>
      </trkpt>
      <trkpt lat="45.09499" lon="5.61548">
        <ele>1775</ele>
        <time>2010-06-06T09:52:52Z</time>
      </trkpt>
      <trkpt lat="45.095" lon="5.61547">
        <ele>1775</ele>
        <time>2010-06-06T09:52:53Z</time>
      </trkpt>
      <trkpt lat="45.09502" lon="5.61546">
        <ele>1774</ele>
        <time>2010-06-06T09:52:54Z</time>
      </trkpt>
      <trkpt lat="45.09504" lon="5.61545">
        <ele>1774</ele>
        <time>2010-06-06T09:52:55Z</time>
      </trkpt>
      <trkpt lat="45.09506" lon="5.61545">
        <ele>1774</ele>
        <time>2010-06-06T09:52:56Z</time>
      </trkpt>
      <trkpt lat="45.09507" lon="5.61544">
        <ele>1773</ele>
        <time>2010-06-06T09:52:57Z</time>
      </trkpt>
      <trkpt lat="45.0951" lon="5.61543">
        <ele>1773</ele>
        <time>2010-06-06T09:52:58Z</time>
      </trkpt>
      <trkpt lat="45.09512" lon="5.61541">
        <ele>1773</ele>
        <time>2010-06-06T09:52:59Z</time>
      </trkpt>
      <trkpt lat="45.09515" lon="5.61539">
        <ele>1773</ele>
        <time>2010-06-06T09:53:00Z</time>
      </trkpt>
      <trkpt lat="45.09516" lon="5.61537">
        <ele>1773</ele>
        <time>2010-06-06T09:53:01Z</time>
      </trkpt>
      <trkpt lat="45.09518" lon="5.61535">
        <ele>1773</ele>
        <time>2010-06-06T09:53:02Z</time>
      </trkpt>
      <trkpt lat="45.0952" lon="5.61534">
        <ele>1773</ele>
        <time>2010-06-06T09:53:03Z</time>
      </trkpt>
      <trkpt lat="45.09522" lon="5.61532">
        <ele>1773</ele>
        <time>2010-06-06T09:53:04Z</time>
      </trkpt>
      <trkpt lat="45.09523" lon="5.6153">
        <ele>1773</ele>
        <time>2010-06-06T09:53:05Z</time>
      </trkpt>
      <trkpt lat="45.09524" lon="5.61527">
        <ele>1773</ele>
        <time>2010-06-06T09:53:06Z</time>
      </trkpt>
      <trkpt lat="45.09525" lon="5.61525">
        <ele>1773</ele>
        <time>2010-06-06T09:53:07Z</time>
      </trkpt>
      <trkpt lat="45.09526" lon="5.61523">
        <ele>1772</ele>
        <time>2010-06-06T09:53:08Z</time>
      </trkpt>
      <trkpt lat="45.09528" lon="5.61522">
        <ele>1772</ele>
        <time>2010-06-06T09:53:09Z</time>
      </trkpt>
      <trkpt lat="45.09529" lon="5.61521">
        <ele>1772</ele>
        <time>2010-06-06T09:53:10Z</time>
      </trkpt>
      <trkpt lat="45.0953" lon="5.61519">
        <ele>1772</ele>
        <time>2010-06-06T09:53:11Z</time>
      </trkpt>
      <trkpt lat="45.09532" lon="5.61518">
        <ele>1771</ele>
        <time>2010-06-06T09:53:12Z</time>
      </trkpt>
      <trkpt lat="45.09533" lon="5.61516">
        <ele>1771</ele>
        <time>2010-06-06T09:53:13Z</time>
      </trkpt>
      <trkpt lat="45.09534" lon="5.61514">
        <ele>1771</ele>
        <time>2010-06-06T09:53:14Z</time>
      </trkpt>
      <trkpt lat="45.09535" lon="5.61513">
        <ele>1770</ele>
        <time>2010-06-06T09:53:15Z</time>
      </trkpt>
      <trkpt lat="45.09536" lon="5.61511">
        <ele>1770</ele>
        <time>2010-06-06T09:53:16Z</time>
      </trkpt>
      <trkpt lat="45.09537" lon="5.61509">
        <ele>1769</ele>
        <time>2010-06-06T09:53:17Z</time>
      </trkpt>
      <trkpt lat="45.09538" lon="5.61507">
        <ele>1769</ele>
        <time>2010-06-06T09:53:18Z</time>
      </trkpt>
      <trkpt lat="45.09539" lon="5.61505">
        <ele>1768</ele>
        <time>2010-06-06T09:53:19Z</time>
      </trkpt>
      <trkpt lat="45.09541" lon="5.61503">
        <ele>1768</ele>
        <time>2010-06-06T09:53:20Z</time>
      </trkpt>
      <trkpt lat="45.09542" lon="5.61502">
        <ele>1767</ele>
        <time>2010-06-06T09:53:21Z</time>
      </trkpt>
      <trkpt lat="45.09544" lon="5.61502">
        <ele>1766</ele>
        <time>2010-06-06T09:53:22Z</time>
      </trkpt>
      <trkpt lat="45.09546" lon="5.61501">
        <ele>1766</ele>
        <time>2010-06-06T09:53:23Z</time>
      </trkpt>
      <trkpt lat="45.09548" lon="5.615">
        <ele>1765</ele>
        <time>2010-06-06T09:53:24Z</time>
      </trkpt>
      <trkpt lat="45.0955" lon="5.61498">
        <ele>1764</ele>
        <time>2010-06-06T09:53:25Z</time>
      </trkpt>
      <trkpt lat="45.09551" lon="5.61497">
        <ele>1764</ele>
        <time>2010-06-06T09:53:26Z</time>
      </trkpt>
      <trkpt lat="45.0955" lon="5.61494">
        <ele>1763</ele>
        <time>2010-06-06T09:53:27Z</time>
      </trkpt>
      <trkpt lat="45.0955" lon="5.61492">
        <ele>1762</ele>
        <time>2010-06-06T09:53:28Z</time>
      </trkpt>
      <trkpt lat="45.09551" lon="5.6149">
        <ele>1762</ele>
        <time>2010-06-06T09:53:29Z</time>
      </trkpt>
      <trkpt lat="45.09553" lon="5.61488">
        <ele>1761</ele>
        <time>2010-06-06T09:53:30Z</time>
      </trkpt>
      <trkpt lat="45.09554" lon="5.61487">
        <ele>1760</ele>
        <time>2010-06-06T09:53:31Z</time>
      </trkpt>
      <trkpt lat="45.09555" lon="5.61485">
        <ele>1759</ele>
        <time>2010-06-06T09:53:32Z</time>
      </trkpt>
      <trkpt lat="45.09556" lon="5.61482">
        <ele>1757</ele>
        <time>2010-06-06T09:53:34Z</time>
      </trkpt>
      <trkpt lat="45.09556" lon="5.6148">
        <ele>1756</ele>
        <time>2010-06-06T09:53:35Z</time>
      </trkpt>
      <trkpt lat="45.09557" lon="5.61477">
        <ele>1755</ele>
        <time>2010-06-06T09:53:36Z</time>
      </trkpt>
      <trkpt lat="45.09557" lon="5.61474">
        <ele>1755</ele>
        <time>2010-06-06T09:53:37Z</time>
      </trkpt>
      <trkpt lat="45.09557" lon="5.61471">
        <ele>1754</ele>
        <time>2010-06-06T09:53:38Z</time>
      </trkpt>
      <trkpt lat="45.09557" lon="5.61468">
        <ele>1754</ele>
        <time>2010-06-06T09:53:39Z</time>
      </trkpt>
      <trkpt lat="45.09558" lon="5.61465">
        <ele>1753</ele>
        <time>2010-06-06T09:53:40Z</time>
      </trkpt>
      <trkpt lat="45.09558" lon="5.61462">
        <ele>1753</ele>
        <time>2010-06-06T09:53:41Z</time>
      </trkpt>
      <trkpt lat="45.09559" lon="5.61459">
        <ele>1752</ele>
        <time>2010-06-06T09:53:42Z</time>
      </trkpt>
      <trkpt lat="45.09559" lon="5.61456">
        <ele>1751</ele>
        <time>2010-06-06T09:53:43Z</time>
      </trkpt>
      <trkpt lat="45.09559" lon="5.61454">
        <ele>1751</ele>
        <time>2010-06-06T09:53:44Z</time>
      </trkpt>
      <trkpt lat="45.09561" lon="5.61452">
        <ele>1750</ele>
        <time>2010-06-06T09:53:46Z</time>
      </trkpt>
      <trkpt lat="45.09563" lon="5.6145">
        <ele>1750</ele>
        <time>2010-06-06T09:53:47Z</time>
      </trkpt>
      <trkpt lat="45.09565" lon="5.61449">
        <ele>1750</ele>
        <time>2010-06-06T09:53:48Z</time>
      </trkpt>
      <trkpt lat="45.09567" lon="5.61448">
        <ele>1749</ele>
        <time>2010-06-06T09:53:49Z</time>
      </trkpt>
      <trkpt lat="45.09569" lon="5.61448">
        <ele>1749</ele>
        <time>2010-06-06T09:53:50Z</time>
      </trkpt>
      <trkpt lat="45.09571" lon="5.61449">
        <ele>1749</ele>
        <time>2010-06-06T09:53:51Z</time>
      </trkpt>
      <trkpt lat="45.09573" lon="5.61448">
        <ele>1749</ele>
        <time>2010-06-06T09:53:52Z</time>
      </trkpt>
      <trkpt lat="45.09574" lon="5.61447">
        <ele>1748</ele>
        <time>2010-06-06T09:53:53Z</time>
      </trkpt>
      <trkpt lat="45.09577" lon="5.61445">
        <ele>1747</ele>
        <time>2010-06-06T09:53:55Z</time>
      </trkpt>
      <trkpt lat="45.09579" lon="5.61443">
        <ele>1747</ele>
        <time>2010-06-06T09:53:56Z</time>
      </trkpt>
      <trkpt lat="45.09581" lon="5.61441">
        <ele>1746</ele>
        <time>2010-06-06T09:53:57Z</time>
      </trkpt>
      <trkpt lat="45.09582" lon="5.61439">
        <ele>1746</ele>
        <time>2010-06-06T09:53:58Z</time>
      </trkpt>
      <trkpt lat="45.09585" lon="5.61437">
        <ele>1745</ele>
        <time>2010-06-06T09:53:59Z</time>
      </trkpt>
      <trkpt lat="45.09587" lon="5.61437">
        <ele>1745</ele>
        <time>2010-06-06T09:54:00Z</time>
      </trkpt>
      <trkpt lat="45.0959" lon="5.61437">
        <ele>1744</ele>
        <time>2010-06-06T09:54:01Z</time>
      </trkpt>
      <trkpt lat="45.09592" lon="5.61435">
        <ele>1744</ele>
        <time>2010-06-06T09:54:02Z</time>
      </trkpt>
      <trkpt lat="45.09594" lon="5.61433">
        <ele>1744</ele>
        <time>2010-06-06T09:54:03Z</time>
      </trkpt>
      <trkpt lat="45.09596" lon="5.61432">
        <ele>1744</ele>
        <time>2010-06-06T09:54:04Z</time>
      </trkpt>
      <trkpt lat="45.09597" lon="5.6143">
        <ele>1743</ele>
        <time>2010-06-06T09:54:05Z</time>
      </trkpt>
      <trkpt lat="45.09599" lon="5.61427">
        <ele>1743</ele>
        <time>2010-06-06T09:54:07Z</time>
      </trkpt>
      <trkpt lat="45.09601" lon="5.61426">
        <ele>1742</ele>
        <time>2010-06-06T09:54:08Z</time>
      </trkpt>
      <trkpt lat="45.09603" lon="5.61425">
        <ele>1742</ele>
        <time>2010-06-06T09:54:09Z</time>
      </trkpt>
      <trkpt lat="45.09605" lon="5.61424">
        <ele>1741</ele>
        <time>2010-06-06T09:54:10Z</time>
      </trkpt>
      <trkpt lat="45.09607" lon="5.61424">
        <ele>1740</ele>
        <time>2010-06-06T09:54:11Z</time>
      </trkpt>
      <trkpt lat="45.09608" lon="5.61424">
        <ele>1740</ele>
        <time>2010-06-06T09:54:12Z</time>
      </trkpt>
      <trkpt lat="45.0961" lon="5.61423">
        <ele>1739</ele>
        <time>2010-06-06T09:54:13Z</time>
      </trkpt>
      <trkpt lat="45.09611" lon="5.61421">
        <ele>1738</ele>
        <time>2010-06-06T09:54:14Z</time>
      </trkpt>
      <trkpt lat="45.09613" lon="5.6142">
        <ele>1738</ele>
        <time>2010-06-06T09:54:15Z</time>
      </trkpt>
      <trkpt lat="45.09614" lon="5.6142">
        <ele>1738</ele>
        <time>2010-06-06T09:54:16Z</time>
      </trkpt>
      <trkpt lat="45.09617" lon="5.6142">
        <ele>1737</ele>
        <time>2010-06-06T09:54:17Z</time>
      </trkpt>
      <trkpt lat="45.09618" lon="5.61421">
        <ele>1736</ele>
        <time>2010-06-06T09:54:18Z</time>
      </trkpt>
      <trkpt lat="45.0962" lon="5.61422">
        <ele>1736</ele>
        <time>2010-06-06T09:54:19Z</time>
      </trkpt>
      <trkpt lat="45.09621" lon="5.61422">
        <ele>1735</ele>
        <time>2010-06-06T09:54:20Z</time>
      </trkpt>
      <trkpt lat="45.09623" lon="5.61423">
        <ele>1734</ele>
        <time>2010-06-06T09:54:21Z</time>
      </trkpt>
      <trkpt lat="45.09624" lon="5.61423">
        <ele>1734</ele>
        <time>2010-06-06T09:54:22Z</time>
      </trkpt>
      <trkpt lat="45.09625" lon="5.61425">
        <ele>1733</ele>
        <time>2010-06-06T09:54:23Z</time>
      </trkpt>
      <trkpt lat="45.09626" lon="5.61426">
        <ele>1733</ele>
        <time>2010-06-06T09:54:24Z</time>
      </trkpt>
      <trkpt lat="45.09627" lon="5.61428">
        <ele>1733</ele>
        <time>2010-06-06T09:54:26Z</time>
      </trkpt>
      <trkpt lat="45.09628" lon="5.61429">
        <ele>1733</ele>
        <time>2010-06-06T09:54:27Z</time>
      </trkpt>
      <trkpt lat="45.09629" lon="5.61431">
        <ele>1733</ele>
        <time>2010-06-06T09:54:28Z</time>
      </trkpt>
      <trkpt lat="45.09631" lon="5.61433">
        <ele>1733</ele>
        <time>2010-06-06T09:54:30Z</time>
      </trkpt>
      <trkpt lat="45.09633" lon="5.61435">
        <ele>1733</ele>
        <time>2010-06-06T09:54:32Z</time>
      </trkpt>
      <trkpt lat="45.09634" lon="5.61436">
        <ele>1733</ele>
        <time>2010-06-06T09:54:33Z</time>
      </trkpt>
      <trkpt lat="45.09636" lon="5.61437">
        <ele>1733</ele>
        <time>2010-06-06T09:54:34Z</time>
      </trkpt>
      <trkpt lat="45.09637" lon="5.61439">
        <ele>1733</ele>
        <time>2010-06-06T09:54:36Z</time>
      </trkpt>
      <trkpt lat="45.09639" lon="5.61441">
        <ele>1733</ele>
        <time>2010-06-06T09:54:37Z</time>
      </trkpt>
      <trkpt lat="45.09641" lon="5.61443">
        <ele>1733</ele>
        <time>2010-06-06T09:54:39Z</time>
      </trkpt>
      <trkpt lat="45.09642" lon="5.61445">
        <ele>1734</ele>
        <time>2010-06-06T09:54:40Z</time>
      </trkpt>
      <trkpt lat="45.09644" lon="5.61447">
        <ele>1734</ele>
        <time>2010-06-06T09:54:41Z</time>
      </trkpt>
      <trkpt lat="45.09645" lon="5.61448">
        <ele>1735</ele>
        <time>2010-06-06T09:54:42Z</time>
      </trkpt>
      <trkpt lat="45.09646" lon="5.6145">
        <ele>1735</ele>
        <time>2010-06-06T09:54:43Z</time>
      </trkpt>
      <trkpt lat="45.09648" lon="5.61452">
        <ele>1736</ele>
        <time>2010-06-06T09:54:45Z</time>
      </trkpt>
      <trkpt lat="45.0965" lon="5.61454">
        <ele>1737</ele>
        <time>2010-06-06T09:54:47Z</time>
      </trkpt>
      <trkpt lat="45.09652" lon="5.61457">
        <ele>1737</ele>
        <time>2010-06-06T09:54:49Z</time>
      </trkpt>
      <trkpt lat="45.09653" lon="5.61458">
        <ele>1738</ele>
        <time>2010-06-06T09:54:51Z</time>
      </trkpt>
      <trkpt lat="45.09655" lon="5.61461">
        <ele>1739</ele>
        <time>2010-06-06T09:54:53Z</time>
      </trkpt>
      <trkpt lat="45.09656" lon="5.61463">
        <ele>1740</ele>
        <time>2010-06-06T09:54:54Z</time>
      </trkpt>
      <trkpt lat="45.09658" lon="5.61465">
        <ele>1741</ele>
        <time>2010-06-06T09:54:56Z</time>
      </trkpt>
      <trkpt lat="45.09659" lon="5.61467">
        <ele>1741</ele>
        <time>2010-06-06T09:54:58Z</time>
      </trkpt>
      <trkpt lat="45.0966" lon="5.61468">
        <ele>1741</ele>
        <time>2010-06-06T09:54:59Z</time>
      </trkpt>
      <trkpt lat="45.09661" lon="5.61471">
        <ele>1742</ele>
        <time>2010-06-06T09:55:01Z</time>
      </trkpt>
      <trkpt lat="45.09662" lon="5.61472">
        <ele>1743</ele>
        <time>2010-06-06T09:55:03Z</time>
      </trkpt>
      <trkpt lat="45.09663" lon="5.61474">
        <ele>1743</ele>
        <time>2010-06-06T09:55:05Z</time>
      </trkpt>
      <trkpt lat="45.09665" lon="5.61476">
        <ele>1743</ele>
        <time>2010-06-06T09:55:07Z</time>
      </trkpt>
      <trkpt lat="45.09666" lon="5.61477">
        <ele>1743</ele>
        <time>2010-06-06T09:55:09Z</time>
      </trkpt>
      <trkpt lat="45.09667" lon="5.61479">
        <ele>1744</ele>
        <time>2010-06-06T09:55:11Z</time>
      </trkpt>
      <trkpt lat="45.0967" lon="5.61481">
        <ele>1745</ele>
        <time>2010-06-06T09:55:13Z</time>
      </trkpt>
      <trkpt lat="45.09671" lon="5.61482">
        <ele>1746</ele>
        <time>2010-06-06T09:55:14Z</time>
      </trkpt>
      <trkpt lat="45.09673" lon="5.61484">
        <ele>1747</ele>
        <time>2010-06-06T09:55:16Z</time>
      </trkpt>
      <trkpt lat="45.09675" lon="5.61484">
        <ele>1747</ele>
        <time>2010-06-06T09:55:17Z</time>
      </trkpt>
      <trkpt lat="45.09677" lon="5.61486">
        <ele>1748</ele>
        <time>2010-06-06T09:55:19Z</time>
      </trkpt>
      <trkpt lat="45.09678" lon="5.61487">
        <ele>1749</ele>
        <time>2010-06-06T09:55:20Z</time>
      </trkpt>
      <trkpt lat="45.0968" lon="5.61488">
        <ele>1749</ele>
        <time>2010-06-06T09:55:21Z</time>
      </trkpt>
      <trkpt lat="45.09681" lon="5.6149">
        <ele>1749</ele>
        <time>2010-06-06T09:55:22Z</time>
      </trkpt>
      <trkpt lat="45.09682" lon="5.61491">
        <ele>1750</ele>
        <time>2010-06-06T09:55:23Z</time>
      </trkpt>
      <trkpt lat="45.09684" lon="5.61491">
        <ele>1750</ele>
        <time>2010-06-06T09:55:24Z</time>
      </trkpt>
      <trkpt lat="45.09685" lon="5.61492">
        <ele>1751</ele>
        <time>2010-06-06T09:55:26Z</time>
      </trkpt>
      <trkpt lat="45.09686" lon="5.61493">
        <ele>1752</ele>
        <time>2010-06-06T09:55:27Z</time>
      </trkpt>
      <trkpt lat="45.09688" lon="5.61494">
        <ele>1753</ele>
        <time>2010-06-06T09:55:29Z</time>
      </trkpt>
      <trkpt lat="45.0969" lon="5.61496">
        <ele>1754</ele>
        <time>2010-06-06T09:55:31Z</time>
      </trkpt>
      <trkpt lat="45.09692" lon="5.61497">
        <ele>1754</ele>
        <time>2010-06-06T09:55:32Z</time>
      </trkpt>
      <trkpt lat="45.09693" lon="5.61498">
        <ele>1755</ele>
        <time>2010-06-06T09:55:33Z</time>
      </trkpt>
      <trkpt lat="45.09695" lon="5.61499">
        <ele>1755</ele>
        <time>2010-06-06T09:55:35Z</time>
      </trkpt>
      <trkpt lat="45.09696" lon="5.615">
        <ele>1755</ele>
        <time>2010-06-06T09:55:36Z</time>
      </trkpt>
      <trkpt lat="45.09697" lon="5.61501">
        <ele>1756</ele>
        <time>2010-06-06T09:55:37Z</time>
      </trkpt>
      <trkpt lat="45.09698" lon="5.61502">
        <ele>1756</ele>
        <time>2010-06-06T09:55:38Z</time>
      </trkpt>
      <trkpt lat="45.09701" lon="5.61504">
        <ele>1756</ele>
        <time>2010-06-06T09:55:39Z</time>
      </trkpt>
      <trkpt lat="45.09703" lon="5.61505">
        <ele>1756</ele>
        <time>2010-06-06T09:55:40Z</time>
      </trkpt>
      <trkpt lat="45.09706" lon="5.61507">
        <ele>1756</ele>
        <time>2010-06-06T09:55:41Z</time>
      </trkpt>
      <trkpt lat="45.09709" lon="5.61509">
        <ele>1757</ele>
        <time>2010-06-06T09:55:42Z</time>
      </trkpt>
      <trkpt lat="45.09711" lon="5.6151">
        <ele>1757</ele>
        <time>2010-06-06T09:55:43Z</time>
      </trkpt>
      <trkpt lat="45.09714" lon="5.61512">
        <ele>1757</ele>
        <time>2010-06-06T09:55:44Z</time>
      </trkpt>
      <trkpt lat="45.09716" lon="5.61513">
        <ele>1757</ele>
        <time>2010-06-06T09:55:45Z</time>
      </trkpt>
      <trkpt lat="45.09719" lon="5.61515">
        <ele>1757</ele>
        <time>2010-06-06T09:55:46Z</time>
      </trkpt>
      <trkpt lat="45.09722" lon="5.61517">
        <ele>1757</ele>
        <time>2010-06-06T09:55:47Z</time>
      </trkpt>
      <trkpt lat="45.09725" lon="5.61518">
        <ele>1757</ele>
        <time>2010-06-06T09:55:48Z</time>
      </trkpt>
      <trkpt lat="45.09727" lon="5.6152">
        <ele>1757</ele>
        <time>2010-06-06T09:55:49Z</time>
      </trkpt>
      <trkpt lat="45.0973" lon="5.61522">
        <ele>1757</ele>
        <time>2010-06-06T09:55:50Z</time>
      </trkpt>
      <trkpt lat="45.09733" lon="5.61523">
        <ele>1757</ele>
        <time>2010-06-06T09:55:51Z</time>
      </trkpt>
      <trkpt lat="45.09735" lon="5.61525">
        <ele>1757</ele>
        <time>2010-06-06T09:55:52Z</time>
      </trkpt>
      <trkpt lat="45.09737" lon="5.61527">
        <ele>1757</ele>
        <time>2010-06-06T09:55:53Z</time>
      </trkpt>
      <trkpt lat="45.09739" lon="5.61528">
        <ele>1757</ele>
        <time>2010-06-06T09:55:54Z</time>
      </trkpt>
      <trkpt lat="45.09741" lon="5.6153">
        <ele>1757</ele>
        <time>2010-06-06T09:55:55Z</time>
      </trkpt>
      <trkpt lat="45.09743" lon="5.61532">
        <ele>1757</ele>
        <time>2010-06-06T09:55:56Z</time>
      </trkpt>
      <trkpt lat="45.09745" lon="5.61533">
        <ele>1757</ele>
        <time>2010-06-06T09:55:57Z</time>
      </trkpt>
      <trkpt lat="45.09747" lon="5.61535">
        <ele>1757</ele>
        <time>2010-06-06T09:55:58Z</time>
      </trkpt>
      <trkpt lat="45.09749" lon="5.61536">
        <ele>1757</ele>
        <time>2010-06-06T09:55:59Z</time>
      </trkpt>
      <trkpt lat="45.09751" lon="5.61538">
        <ele>1757</ele>
        <time>2010-06-06T09:56:00Z</time>
      </trkpt>
      <trkpt lat="45.09753" lon="5.6154">
        <ele>1757</ele>
        <time>2010-06-06T09:56:01Z</time>
      </trkpt>
      <trkpt lat="45.09755" lon="5.61542">
        <ele>1757</ele>
        <time>2010-06-06T09:56:02Z</time>
      </trkpt>
      <trkpt lat="45.09757" lon="5.61543">
        <ele>1757</ele>
        <time>2010-06-06T09:56:03Z</time>
      </trkpt>
      <trkpt lat="45.09759" lon="5.61545">
        <ele>1757</ele>
        <time>2010-06-06T09:56:04Z</time>
      </trkpt>
      <trkpt lat="45.0976" lon="5.61546">
        <ele>1757</ele>
        <time>2010-06-06T09:56:05Z</time>
      </trkpt>
      <trkpt lat="45.09762" lon="5.61548">
        <ele>1757</ele>
        <time>2010-06-06T09:56:06Z</time>
      </trkpt>
      <trkpt lat="45.09764" lon="5.6155">
        <ele>1757</ele>
        <time>2010-06-06T09:56:07Z</time>
      </trkpt>
      <trkpt lat="45.09766" lon="5.61552">
        <ele>1758</ele>
        <time>2010-06-06T09:56:08Z</time>
      </trkpt>
      <trkpt lat="45.09768" lon="5.61553">
        <ele>1758</ele>
        <time>2010-06-06T09:56:09Z</time>
      </trkpt>
      <trkpt lat="45.0977" lon="5.61555">
        <ele>1758</ele>
        <time>2010-06-06T09:56:10Z</time>
      </trkpt>
      <trkpt lat="45.09771" lon="5.61557">
        <ele>1758</ele>
        <time>2010-06-06T09:56:11Z</time>
      </trkpt>
      <trkpt lat="45.09773" lon="5.61559">
        <ele>1759</ele>
        <time>2010-06-06T09:56:12Z</time>
      </trkpt>
      <trkpt lat="45.09775" lon="5.61561">
        <ele>1759</ele>
        <time>2010-06-06T09:56:13Z</time>
      </trkpt>
      <trkpt lat="45.09777" lon="5.61562">
        <ele>1759</ele>
        <time>2010-06-06T09:56:14Z</time>
      </trkpt>
      <trkpt lat="45.09779" lon="5.61564">
        <ele>1760</ele>
        <time>2010-06-06T09:56:15Z</time>
      </trkpt>
      <trkpt lat="45.0978" lon="5.61566">
        <ele>1760</ele>
        <time>2010-06-06T09:56:16Z</time>
      </trkpt>
      <trkpt lat="45.09782" lon="5.61567">
        <ele>1760</ele>
        <time>2010-06-06T09:56:17Z</time>
      </trkpt>
      <trkpt lat="45.09784" lon="5.61568">
        <ele>1761</ele>
        <time>2010-06-06T09:56:18Z</time>
      </trkpt>
      <trkpt lat="45.09787" lon="5.61569">
        <ele>1761</ele>
        <time>2010-06-06T09:56:19Z</time>
      </trkpt>
      <trkpt lat="45.09789" lon="5.6157">
        <ele>1761</ele>
        <time>2010-06-06T09:56:20Z</time>
      </trkpt>
      <trkpt lat="45.09791" lon="5.61571">
        <ele>1761</ele>
        <time>2010-06-06T09:56:21Z</time>
      </trkpt>
      <trkpt lat="45.09794" lon="5.61571">
        <ele>1762</ele>
        <time>2010-06-06T09:56:22Z</time>
      </trkpt>
      <trkpt lat="45.09796" lon="5.61572">
        <ele>1762</ele>
        <time>2010-06-06T09:56:23Z</time>
      </trkpt>
      <trkpt lat="45.09798" lon="5.61572">
        <ele>1762</ele>
        <time>2010-06-06T09:56:24Z</time>
      </trkpt>
      <trkpt lat="45.09801" lon="5.61572">
        <ele>1762</ele>
        <time>2010-06-06T09:56:25Z</time>
      </trkpt>
      <trkpt lat="45.09803" lon="5.61572">
        <ele>1763</ele>
        <time>2010-06-06T09:56:26Z</time>
      </trkpt>
      <trkpt lat="45.09806" lon="5.61572">
        <ele>1763</ele>
        <time>2010-06-06T09:56:27Z</time>
      </trkpt>
      <trkpt lat="45.09809" lon="5.61572">
        <ele>1763</ele>
        <time>2010-06-06T09:56:28Z</time>
      </trkpt>
      <trkpt lat="45.09811" lon="5.61572">
        <ele>1763</ele>
        <time>2010-06-06T09:56:29Z</time>
      </trkpt>
      <trkpt lat="45.09813" lon="5.61572">
        <ele>1763</ele>
        <time>2010-06-06T09:56:30Z</time>
      </trkpt>
      <trkpt lat="45.09815" lon="5.61572">
        <ele>1763</ele>
        <time>2010-06-06T09:56:31Z</time>
      </trkpt>
      <trkpt lat="45.09818" lon="5.61572">
        <ele>1763</ele>
        <time>2010-06-06T09:56:32Z</time>
      </trkpt>
      <trkpt lat="45.0982" lon="5.61572">
        <ele>1763</ele>
        <time>2010-06-06T09:56:33Z</time>
      </trkpt>
      <trkpt lat="45.09823" lon="5.61573">
        <ele>1763</ele>
        <time>2010-06-06T09:56:34Z</time>
      </trkpt>
      <trkpt lat="45.09826" lon="5.61573">
        <ele>1763</ele>
        <time>2010-06-06T09:56:35Z</time>
      </trkpt>
      <trkpt lat="45.09828" lon="5.61574">
        <ele>1763</ele>
        <time>2010-06-06T09:56:36Z</time>
      </trkpt>
      <trkpt lat="45.09831" lon="5.61576">
        <ele>1763</ele>
        <time>2010-06-06T09:56:37Z</time>
      </trkpt>
      <trkpt lat="45.09833" lon="5.61578">
        <ele>1763</ele>
        <time>2010-06-06T09:56:38Z</time>
      </trkpt>
      <trkpt lat="45.09835" lon="5.61581">
        <ele>1763</ele>
        <time>2010-06-06T09:56:39Z</time>
      </trkpt>
      <trkpt lat="45.09836" lon="5.61583">
        <ele>1763</ele>
        <time>2010-06-06T09:56:40Z</time>
      </trkpt>
      <trkpt lat="45.09838" lon="5.61586">
        <ele>1763</ele>
        <time>2010-06-06T09:56:41Z</time>
      </trkpt>
      <trkpt lat="45.09839" lon="5.61589">
        <ele>1763</ele>
        <time>2010-06-06T09:56:42Z</time>
      </trkpt>
      <trkpt lat="45.09841" lon="5.61591">
        <ele>1763</ele>
        <time>2010-06-06T09:56:43Z</time>
      </trkpt>
      <trkpt lat="45.09842" lon="5.61593">
        <ele>1763</ele>
        <time>2010-06-06T09:56:44Z</time>
      </trkpt>
      <trkpt lat="45.09843" lon="5.61594">
        <ele>1763</ele>
        <time>2010-06-06T09:56:45Z</time>
      </trkpt>
      <trkpt lat="45.09845" lon="5.61595">
        <ele>1763</ele>
        <time>2010-06-06T09:56:46Z</time>
      </trkpt>
      <trkpt lat="45.09846" lon="5.61596">
        <ele>1763</ele>
        <time>2010-06-06T09:56:47Z</time>
      </trkpt>
      <trkpt lat="45.09848" lon="5.61597">
        <ele>1763</ele>
        <time>2010-06-06T09:56:48Z</time>
      </trkpt>
      <trkpt lat="45.0985" lon="5.61598">
        <ele>1763</ele>
        <time>2010-06-06T09:56:50Z</time>
      </trkpt>
      <trkpt lat="45.09852" lon="5.61601">
        <ele>1763</ele>
        <time>2010-06-06T09:56:52Z</time>
      </trkpt>
      <trkpt lat="45.09853" lon="5.61601">
        <ele>1764</ele>
        <time>2010-06-06T09:56:53Z</time>
      </trkpt>
      <trkpt lat="45.09855" lon="5.61603">
        <ele>1764</ele>
        <time>2010-06-06T09:56:55Z</time>
      </trkpt>
      <trkpt lat="45.09856" lon="5.61604">
        <ele>1765</ele>
        <time>2010-06-06T09:56:56Z</time>
      </trkpt>
      <trkpt lat="45.09858" lon="5.61604">
        <ele>1765</ele>
        <time>2010-06-06T09:56:58Z</time>
      </trkpt>
      <trkpt lat="45.09861" lon="5.61605">
        <ele>1766</ele>
        <time>2010-06-06T09:57:00Z</time>
      </trkpt>
      <trkpt lat="45.09863" lon="5.61605">
        <ele>1766</ele>
        <time>2010-06-06T09:57:01Z</time>
      </trkpt>
      <trkpt lat="45.09865" lon="5.61604">
        <ele>1766</ele>
        <time>2010-06-06T09:57:02Z</time>
      </trkpt>
      <trkpt lat="45.09867" lon="5.61604">
        <ele>1767</ele>
        <time>2010-06-06T09:57:03Z</time>
      </trkpt>
      <trkpt lat="45.09869" lon="5.61603">
        <ele>1768</ele>
        <time>2010-06-06T09:57:04Z</time>
      </trkpt>
      <trkpt lat="45.09871" lon="5.61602">
        <ele>1768</ele>
        <time>2010-06-06T09:57:05Z</time>
      </trkpt>
      <trkpt lat="45.09873" lon="5.61601">
        <ele>1769</ele>
        <time>2010-06-06T09:57:06Z</time>
      </trkpt>
      <trkpt lat="45.09876" lon="5.61599">
        <ele>1769</ele>
        <time>2010-06-06T09:57:07Z</time>
      </trkpt>
      <trkpt lat="45.09879" lon="5.61597">
        <ele>1769</ele>
        <time>2010-06-06T09:57:08Z</time>
      </trkpt>
      <trkpt lat="45.09881" lon="5.61596">
        <ele>1769</ele>
        <time>2010-06-06T09:57:09Z</time>
      </trkpt>
      <trkpt lat="45.09884" lon="5.61595">
        <ele>1770</ele>
        <time>2010-06-06T09:57:10Z</time>
      </trkpt>
      <trkpt lat="45.09887" lon="5.61595">
        <ele>1770</ele>
        <time>2010-06-06T09:57:11Z</time>
      </trkpt>
      <trkpt lat="45.0989" lon="5.61595">
        <ele>1770</ele>
        <time>2010-06-06T09:57:12Z</time>
      </trkpt>
      <trkpt lat="45.09892" lon="5.61595">
        <ele>1770</ele>
        <time>2010-06-06T09:57:13Z</time>
      </trkpt>
      <trkpt lat="45.09895" lon="5.61594">
        <ele>1770</ele>
        <time>2010-06-06T09:57:14Z</time>
      </trkpt>
      <trkpt lat="45.09897" lon="5.61594">
        <ele>1770</ele>
        <time>2010-06-06T09:57:15Z</time>
      </trkpt>
      <trkpt lat="45.099" lon="5.61594">
        <ele>1770</ele>
        <time>2010-06-06T09:57:16Z</time>
      </trkpt>
      <trkpt lat="45.09902" lon="5.61593">
        <ele>1770</ele>
        <time>2010-06-06T09:57:17Z</time>
      </trkpt>
      <trkpt lat="45.09905" lon="5.61592">
        <ele>1770</ele>
        <time>2010-06-06T09:57:18Z</time>
      </trkpt>
      <trkpt lat="45.09908" lon="5.61592">
        <ele>1770</ele>
        <time>2010-06-06T09:57:19Z</time>
      </trkpt>
      <trkpt lat="45.0991" lon="5.61592">
        <ele>1770</ele>
        <time>2010-06-06T09:57:20Z</time>
      </trkpt>
      <trkpt lat="45.09912" lon="5.61592">
        <ele>1770</ele>
        <time>2010-06-06T09:57:21Z</time>
      </trkpt>
      <trkpt lat="45.09915" lon="5.61594">
        <ele>1770</ele>
        <time>2010-06-06T09:57:22Z</time>
      </trkpt>
      <trkpt lat="45.09918" lon="5.61595">
        <ele>1770</ele>
        <time>2010-06-06T09:57:23Z</time>
      </trkpt>
      <trkpt lat="45.0992" lon="5.61595">
        <ele>1770</ele>
        <time>2010-06-06T09:57:24Z</time>
      </trkpt>
      <trkpt lat="45.09921" lon="5.61597">
        <ele>1770</ele>
        <time>2010-06-06T09:57:25Z</time>
      </trkpt>
      <trkpt lat="45.09923" lon="5.61599">
        <ele>1770</ele>
        <time>2010-06-06T09:57:26Z</time>
      </trkpt>
      <trkpt lat="45.09924" lon="5.616">
        <ele>1770</ele>
        <time>2010-06-06T09:57:27Z</time>
      </trkpt>
      <trkpt lat="45.09926" lon="5.61602">
        <ele>1770</ele>
        <time>2010-06-06T09:57:28Z</time>
      </trkpt>
      <trkpt lat="45.09928" lon="5.61603">
        <ele>1770</ele>
        <time>2010-06-06T09:57:29Z</time>
      </trkpt>
      <trkpt lat="45.0993" lon="5.61604">
        <ele>1770</ele>
        <time>2010-06-06T09:57:30Z</time>
      </trkpt>
      <trkpt lat="45.09933" lon="5.61604">
        <ele>1770</ele>
        <time>2010-06-06T09:57:31Z</time>
      </trkpt>
      <trkpt lat="45.09935" lon="5.61605">
        <ele>1770</ele>
        <time>2010-06-06T09:57:32Z</time>
      </trkpt>
      <trkpt lat="45.09938" lon="5.61604">
        <ele>1770</ele>
        <time>2010-06-06T09:57:33Z</time>
      </trkpt>
      <trkpt lat="45.0994" lon="5.61603">
        <ele>1770</ele>
        <time>2010-06-06T09:57:34Z</time>
      </trkpt>
      <trkpt lat="45.09943" lon="5.61601">
        <ele>1770</ele>
        <time>2010-06-06T09:57:35Z</time>
      </trkpt>
      <trkpt lat="45.09945" lon="5.61599">
        <ele>1770</ele>
        <time>2010-06-06T09:57:36Z</time>
      </trkpt>
      <trkpt lat="45.09947" lon="5.61597">
        <ele>1770</ele>
        <time>2010-06-06T09:57:37Z</time>
      </trkpt>
      <trkpt lat="45.09949" lon="5.61594">
        <ele>1770</ele>
        <time>2010-06-06T09:57:38Z</time>
      </trkpt>
      <trkpt lat="45.09951" lon="5.61591">
        <ele>1770</ele>
        <time>2010-06-06T09:57:39Z</time>
      </trkpt>
      <trkpt lat="45.09953" lon="5.6159">
        <ele>1770</ele>
        <time>2010-06-06T09:57:40Z</time>
      </trkpt>
      <trkpt lat="45.09955" lon="5.61588">
        <ele>1770</ele>
        <time>2010-06-06T09:57:41Z</time>
      </trkpt>
      <trkpt lat="45.09957" lon="5.61586">
        <ele>1769</ele>
        <time>2010-06-06T09:57:42Z</time>
      </trkpt>
      <trkpt lat="45.09959" lon="5.61584">
        <ele>1769</ele>
        <time>2010-06-06T09:57:43Z</time>
      </trkpt>
      <trkpt lat="45.09962" lon="5.61582">
        <ele>1768</ele>
        <time>2010-06-06T09:57:44Z</time>
      </trkpt>
      <trkpt lat="45.09965" lon="5.61581">
        <ele>1768</ele>
        <time>2010-06-06T09:57:45Z</time>
      </trkpt>
      <trkpt lat="45.09968" lon="5.6158">
        <ele>1767</ele>
        <time>2010-06-06T09:57:46Z</time>
      </trkpt>
      <trkpt lat="45.0997" lon="5.61579">
        <ele>1767</ele>
        <time>2010-06-06T09:57:47Z</time>
      </trkpt>
      <trkpt lat="45.09974" lon="5.61578">
        <ele>1766</ele>
        <time>2010-06-06T09:57:48Z</time>
      </trkpt>
      <trkpt lat="45.09977" lon="5.61577">
        <ele>1766</ele>
        <time>2010-06-06T09:57:49Z</time>
      </trkpt>
      <trkpt lat="45.0998" lon="5.61577">
        <ele>1765</ele>
        <time>2010-06-06T09:57:50Z</time>
      </trkpt>
      <trkpt lat="45.09984" lon="5.61576">
        <ele>1765</ele>
        <time>2010-06-06T09:57:51Z</time>
      </trkpt>
      <trkpt lat="45.09987" lon="5.61576">
        <ele>1764</ele>
        <time>2010-06-06T09:57:52Z</time>
      </trkpt>
      <trkpt lat="45.0999" lon="5.61576">
        <ele>1763</ele>
        <time>2010-06-06T09:57:53Z</time>
      </trkpt>
      <trkpt lat="45.09993" lon="5.61575">
        <ele>1763</ele>
        <time>2010-06-06T09:57:54Z</time>
      </trkpt>
      <trkpt lat="45.09997" lon="5.61575">
        <ele>1762</ele>
        <time>2010-06-06T09:57:55Z</time>
      </trkpt>
      <trkpt lat="45.1" lon="5.61574">
        <ele>1761</ele>
        <time>2010-06-06T09:57:56Z</time>
      </trkpt>
      <trkpt lat="45.10003" lon="5.61574">
        <ele>1760</ele>
        <time>2010-06-06T09:57:57Z</time>
      </trkpt>
      <trkpt lat="45.10006" lon="5.61573">
        <ele>1759</ele>
        <time>2010-06-06T09:57:58Z</time>
      </trkpt>
      <trkpt lat="45.10009" lon="5.61571">
        <ele>1759</ele>
        <time>2010-06-06T09:57:59Z</time>
      </trkpt>
      <trkpt lat="45.10012" lon="5.6157">
        <ele>1758</ele>
        <time>2010-06-06T09:58:00Z</time>
      </trkpt>
      <trkpt lat="45.10015" lon="5.61569">
        <ele>1757</ele>
        <time>2010-06-06T09:58:01Z</time>
      </trkpt>
      <trkpt lat="45.10019" lon="5.61569">
        <ele>1756</ele>
        <time>2010-06-06T09:58:02Z</time>
      </trkpt>
      <trkpt lat="45.10022" lon="5.61569">
        <ele>1756</ele>
        <time>2010-06-06T09:58:03Z</time>
      </trkpt>
      <trkpt lat="45.10025" lon="5.61569">
        <ele>1755</ele>
        <time>2010-06-06T09:58:04Z</time>
      </trkpt>
      <trkpt lat="45.10028" lon="5.61568">
        <ele>1754</ele>
        <time>2010-06-06T09:58:05Z</time>
      </trkpt>
      <trkpt lat="45.10031" lon="5.61569">
        <ele>1754</ele>
        <time>2010-06-06T09:58:06Z</time>
      </trkpt>
      <trkpt lat="45.10035" lon="5.61569">
        <ele>1753</ele>
        <time>2010-06-06T09:58:07Z</time>
      </trkpt>
      <trkpt lat="45.10038" lon="5.61571">
        <ele>1752</ele>
        <time>2010-06-06T09:58:08Z</time>
      </trkpt>
      <trkpt lat="45.10041" lon="5.61572">
        <ele>1752</ele>
        <time>2010-06-06T09:58:09Z</time>
      </trkpt>
      <trkpt lat="45.10044" lon="5.61574">
        <ele>1751</ele>
        <time>2010-06-06T09:58:10Z</time>
      </trkpt>
      <trkpt lat="45.10047" lon="5.61576">
        <ele>1750</ele>
        <time>2010-06-06T09:58:11Z</time>
      </trkpt>
      <trkpt lat="45.10051" lon="5.61578">
        <ele>1750</ele>
        <time>2010-06-06T09:58:12Z</time>
      </trkpt>
      <trkpt lat="45.10054" lon="5.6158">
        <ele>1749</ele>
        <time>2010-06-06T09:58:13Z</time>
      </trkpt>
      <trkpt lat="45.10057" lon="5.61581">
        <ele>1749</ele>
        <time>2010-06-06T09:58:14Z</time>
      </trkpt>
      <trkpt lat="45.1006" lon="5.61582">
        <ele>1749</ele>
        <time>2010-06-06T09:58:15Z</time>
      </trkpt>
      <trkpt lat="45.10062" lon="5.61584">
        <ele>1749</ele>
        <time>2010-06-06T09:58:16Z</time>
      </trkpt>
      <trkpt lat="45.10064" lon="5.61585">
        <ele>1749</ele>
        <time>2010-06-06T09:58:17Z</time>
      </trkpt>
      <trkpt lat="45.10067" lon="5.61586">
        <ele>1748</ele>
        <time>2010-06-06T09:58:18Z</time>
      </trkpt>
      <trkpt lat="45.10069" lon="5.61587">
        <ele>1748</ele>
        <time>2010-06-06T09:58:19Z</time>
      </trkpt>
      <trkpt lat="45.10073" lon="5.6159">
        <ele>1748</ele>
        <time>2010-06-06T09:58:20Z</time>
      </trkpt>
      <trkpt lat="45.10075" lon="5.61592">
        <ele>1748</ele>
        <time>2010-06-06T09:58:21Z</time>
      </trkpt>
      <trkpt lat="45.10078" lon="5.61594">
        <ele>1748</ele>
        <time>2010-06-06T09:58:22Z</time>
      </trkpt>
      <trkpt lat="45.1008" lon="5.61596">
        <ele>1748</ele>
        <time>2010-06-06T09:58:23Z</time>
      </trkpt>
      <trkpt lat="45.10082" lon="5.61598">
        <ele>1748</ele>
        <time>2010-06-06T09:58:24Z</time>
      </trkpt>
      <trkpt lat="45.10084" lon="5.616">
        <ele>1748</ele>
        <time>2010-06-06T09:58:25Z</time>
      </trkpt>
      <trkpt lat="45.10086" lon="5.61603">
        <ele>1748</ele>
        <time>2010-06-06T09:58:26Z</time>
      </trkpt>
      <trkpt lat="45.10089" lon="5.61605">
        <ele>1748</ele>
        <time>2010-06-06T09:58:27Z</time>
      </trkpt>
      <trkpt lat="45.10092" lon="5.61607">
        <ele>1748</ele>
        <time>2010-06-06T09:58:28Z</time>
      </trkpt>
      <trkpt lat="45.10094" lon="5.61608">
        <ele>1748</ele>
        <time>2010-06-06T09:58:29Z</time>
      </trkpt>
      <trkpt lat="45.10096" lon="5.6161">
        <ele>1748</ele>
        <time>2010-06-06T09:58:30Z</time>
      </trkpt>
      <trkpt lat="45.10099" lon="5.61613">
        <ele>1748</ele>
        <time>2010-06-06T09:58:31Z</time>
      </trkpt>
      <trkpt lat="45.10101" lon="5.61615">
        <ele>1748</ele>
        <time>2010-06-06T09:58:32Z</time>
      </trkpt>
      <trkpt lat="45.10103" lon="5.61617">
        <ele>1748</ele>
        <time>2010-06-06T09:58:33Z</time>
      </trkpt>
      <trkpt lat="45.10105" lon="5.61619">
        <ele>1748</ele>
        <time>2010-06-06T09:58:34Z</time>
      </trkpt>
      <trkpt lat="45.10108" lon="5.61621">
        <ele>1748</ele>
        <time>2010-06-06T09:58:35Z</time>
      </trkpt>
      <trkpt lat="45.1011" lon="5.61622">
        <ele>1748</ele>
        <time>2010-06-06T09:58:36Z</time>
      </trkpt>
      <trkpt lat="45.10112" lon="5.61625">
        <ele>1748</ele>
        <time>2010-06-06T09:58:37Z</time>
      </trkpt>
      <trkpt lat="45.10114" lon="5.61627">
        <ele>1748</ele>
        <time>2010-06-06T09:58:38Z</time>
      </trkpt>
      <trkpt lat="45.10116" lon="5.61629">
        <ele>1748</ele>
        <time>2010-06-06T09:58:39Z</time>
      </trkpt>
      <trkpt lat="45.10119" lon="5.61631">
        <ele>1748</ele>
        <time>2010-06-06T09:58:40Z</time>
      </trkpt>
      <trkpt lat="45.10122" lon="5.61634">
        <ele>1748</ele>
        <time>2010-06-06T09:58:41Z</time>
      </trkpt>
      <trkpt lat="45.10125" lon="5.61637">
        <ele>1749</ele>
        <time>2010-06-06T09:58:42Z</time>
      </trkpt>
      <trkpt lat="45.10128" lon="5.61639">
        <ele>1749</ele>
        <time>2010-06-06T09:58:43Z</time>
      </trkpt>
      <trkpt lat="45.1013" lon="5.61642">
        <ele>1749</ele>
        <time>2010-06-06T09:58:44Z</time>
      </trkpt>
      <trkpt lat="45.10133" lon="5.61645">
        <ele>1749</ele>
        <time>2010-06-06T09:58:45Z</time>
      </trkpt>
      <trkpt lat="45.10136" lon="5.61647">
        <ele>1749</ele>
        <time>2010-06-06T09:58:46Z</time>
      </trkpt>
      <trkpt lat="45.10139" lon="5.61648">
        <ele>1750</ele>
        <time>2010-06-06T09:58:47Z</time>
      </trkpt>
      <trkpt lat="45.10142" lon="5.61649">
        <ele>1750</ele>
        <time>2010-06-06T09:58:48Z</time>
      </trkpt>
      <trkpt lat="45.10146" lon="5.6165">
        <ele>1750</ele>
        <time>2010-06-06T09:58:49Z</time>
      </trkpt>
      <trkpt lat="45.10149" lon="5.6165">
        <ele>1750</ele>
        <time>2010-06-06T09:58:50Z</time>
      </trkpt>
      <trkpt lat="45.10152" lon="5.61651">
        <ele>1751</ele>
        <time>2010-06-06T09:58:51Z</time>
      </trkpt>
      <trkpt lat="45.10155" lon="5.61651">
        <ele>1751</ele>
        <time>2010-06-06T09:58:52Z</time>
      </trkpt>
      <trkpt lat="45.10159" lon="5.61651">
        <ele>1751</ele>
        <time>2010-06-06T09:58:53Z</time>
      </trkpt>
      <trkpt lat="45.10162" lon="5.61652">
        <ele>1751</ele>
        <time>2010-06-06T09:58:54Z</time>
      </trkpt>
      <trkpt lat="45.10165" lon="5.61652">
        <ele>1752</ele>
        <time>2010-06-06T09:58:55Z</time>
      </trkpt>
      <trkpt lat="45.10169" lon="5.61653">
        <ele>1752</ele>
        <time>2010-06-06T09:58:56Z</time>
      </trkpt>
      <trkpt lat="45.10172" lon="5.61654">
        <ele>1752</ele>
        <time>2010-06-06T09:58:57Z</time>
      </trkpt>
      <trkpt lat="45.10175" lon="5.61656">
        <ele>1752</ele>
        <time>2010-06-06T09:58:58Z</time>
      </trkpt>
      <trkpt lat="45.10178" lon="5.61658">
        <ele>1752</ele>
        <time>2010-06-06T09:58:59Z</time>
      </trkpt>
      <trkpt lat="45.1018" lon="5.6166">
        <ele>1752</ele>
        <time>2010-06-06T09:59:00Z</time>
      </trkpt>
      <trkpt lat="45.10183" lon="5.61661">
        <ele>1752</ele>
        <time>2010-06-06T09:59:01Z</time>
      </trkpt>
      <trkpt lat="45.10186" lon="5.61662">
        <ele>1752</ele>
        <time>2010-06-06T09:59:02Z</time>
      </trkpt>
      <trkpt lat="45.10189" lon="5.61662">
        <ele>1752</ele>
        <time>2010-06-06T09:59:03Z</time>
      </trkpt>
      <trkpt lat="45.10193" lon="5.61662">
        <ele>1752</ele>
        <time>2010-06-06T09:59:04Z</time>
      </trkpt>
      <trkpt lat="45.10196" lon="5.61662">
        <ele>1752</ele>
        <time>2010-06-06T09:59:05Z</time>
      </trkpt>
      <trkpt lat="45.10199" lon="5.61661">
        <ele>1752</ele>
        <time>2010-06-06T09:59:06Z</time>
      </trkpt>
      <trkpt lat="45.10203" lon="5.6166">
        <ele>1752</ele>
        <time>2010-06-06T09:59:07Z</time>
      </trkpt>
      <trkpt lat="45.10206" lon="5.6166">
        <ele>1752</ele>
        <time>2010-06-06T09:59:08Z</time>
      </trkpt>
      <trkpt lat="45.10209" lon="5.61659">
        <ele>1752</ele>
        <time>2010-06-06T09:59:09Z</time>
      </trkpt>
      <trkpt lat="45.10213" lon="5.61658">
        <ele>1752</ele>
        <time>2010-06-06T09:59:10Z</time>
      </trkpt>
      <trkpt lat="45.10216" lon="5.61657">
        <ele>1752</ele>
        <time>2010-06-06T09:59:11Z</time>
      </trkpt>
      <trkpt lat="45.1022" lon="5.61657">
        <ele>1752</ele>
        <time>2010-06-06T09:59:12Z</time>
      </trkpt>
      <trkpt lat="45.10223" lon="5.61656">
        <ele>1752</ele>
        <time>2010-06-06T09:59:13Z</time>
      </trkpt>
      <trkpt lat="45.10227" lon="5.61656">
        <ele>1752</ele>
        <time>2010-06-06T09:59:14Z</time>
      </trkpt>
      <trkpt lat="45.1023" lon="5.61656">
        <ele>1752</ele>
        <time>2010-06-06T09:59:15Z</time>
      </trkpt>
      <trkpt lat="45.10234" lon="5.61656">
        <ele>1752</ele>
        <time>2010-06-06T09:59:16Z</time>
      </trkpt>
      <trkpt lat="45.10237" lon="5.61656">
        <ele>1752</ele>
        <time>2010-06-06T09:59:17Z</time>
      </trkpt>
      <trkpt lat="45.10241" lon="5.61657">
        <ele>1752</ele>
        <time>2010-06-06T09:59:18Z</time>
      </trkpt>
      <trkpt lat="45.10245" lon="5.61658">
        <ele>1752</ele>
        <time>2010-06-06T09:59:19Z</time>
      </trkpt>
      <trkpt lat="45.10248" lon="5.61658">
        <ele>1752</ele>
        <time>2010-06-06T09:59:20Z</time>
      </trkpt>
      <trkpt lat="45.10252" lon="5.61658">
        <ele>1752</ele>
        <time>2010-06-06T09:59:21Z</time>
      </trkpt>
      <trkpt lat="45.10255" lon="5.61659">
        <ele>1752</ele>
        <time>2010-06-06T09:59:22Z</time>
      </trkpt>
      <trkpt lat="45.10259" lon="5.61659">
        <ele>1752</ele>
        <time>2010-06-06T09:59:23Z</time>
      </trkpt>
      <trkpt lat="45.10262" lon="5.6166">
        <ele>1751</ele>
        <time>2010-06-06T09:59:24Z</time>
      </trkpt>
      <trkpt lat="45.10265" lon="5.6166">
        <ele>1751</ele>
        <time>2010-06-06T09:59:25Z</time>
      </trkpt>
      <trkpt lat="45.10269" lon="5.61661">
        <ele>1751</ele>
        <time>2010-06-06T09:59:26Z</time>
      </trkpt>
      <trkpt lat="45.10273" lon="5.61662">
        <ele>1751</ele>
        <time>2010-06-06T09:59:27Z</time>
      </trkpt>
      <trkpt lat="45.10276" lon="5.61663">
        <ele>1751</ele>
        <time>2010-06-06T09:59:28Z</time>
      </trkpt>
      <trkpt lat="45.10279" lon="5.61664">
        <ele>1751</ele>
        <time>2010-06-06T09:59:29Z</time>
      </trkpt>
      <trkpt lat="45.10283" lon="5.61665">
        <ele>1751</ele>
        <time>2010-06-06T09:59:30Z</time>
      </trkpt>
      <trkpt lat="45.10286" lon="5.61666">
        <ele>1750</ele>
        <time>2010-06-06T09:59:31Z</time>
      </trkpt>
      <trkpt lat="45.1029" lon="5.61668">
        <ele>1750</ele>
        <time>2010-06-06T09:59:32Z</time>
      </trkpt>
      <trkpt lat="45.10293" lon="5.6167">
        <ele>1749</ele>
        <time>2010-06-06T09:59:33Z</time>
      </trkpt>
      <trkpt lat="45.10297" lon="5.61671">
        <ele>1748</ele>
        <time>2010-06-06T09:59:34Z</time>
      </trkpt>
      <trkpt lat="45.10301" lon="5.61672">
        <ele>1748</ele>
        <time>2010-06-06T09:59:35Z</time>
      </trkpt>
      <trkpt lat="45.10304" lon="5.61673">
        <ele>1747</ele>
        <time>2010-06-06T09:59:36Z</time>
      </trkpt>
      <trkpt lat="45.10308" lon="5.61674">
        <ele>1746</ele>
        <time>2010-06-06T09:59:37Z</time>
      </trkpt>
      <trkpt lat="45.10311" lon="5.61675">
        <ele>1746</ele>
        <time>2010-06-06T09:59:38Z</time>
      </trkpt>
      <trkpt lat="45.10314" lon="5.61677">
        <ele>1746</ele>
        <time>2010-06-06T09:59:39Z</time>
      </trkpt>
      <trkpt lat="45.10317" lon="5.61679">
        <ele>1746</ele>
        <time>2010-06-06T09:59:40Z</time>
      </trkpt>
      <trkpt lat="45.10321" lon="5.6168">
        <ele>1746</ele>
        <time>2010-06-06T09:59:41Z</time>
      </trkpt>
      <trkpt lat="45.10323" lon="5.61682">
        <ele>1746</ele>
        <time>2010-06-06T09:59:42Z</time>
      </trkpt>
      <trkpt lat="45.10326" lon="5.61683">
        <ele>1746</ele>
        <time>2010-06-06T09:59:43Z</time>
      </trkpt>
      <trkpt lat="45.10329" lon="5.61684">
        <ele>1746</ele>
        <time>2010-06-06T09:59:44Z</time>
      </trkpt>
      <trkpt lat="45.10333" lon="5.61684">
        <ele>1746</ele>
        <time>2010-06-06T09:59:45Z</time>
      </trkpt>
      <trkpt lat="45.10336" lon="5.61685">
        <ele>1746</ele>
        <time>2010-06-06T09:59:46Z</time>
      </trkpt>
      <trkpt lat="45.10339" lon="5.61684">
        <ele>1746</ele>
        <time>2010-06-06T09:59:47Z</time>
      </trkpt>
      <trkpt lat="45.10342" lon="5.61684">
        <ele>1746</ele>
        <time>2010-06-06T09:59:48Z</time>
      </trkpt>
      <trkpt lat="45.10345" lon="5.61684">
        <ele>1746</ele>
        <time>2010-06-06T09:59:49Z</time>
      </trkpt>
      <trkpt lat="45.10349" lon="5.61684">
        <ele>1746</ele>
        <time>2010-06-06T09:59:50Z</time>
      </trkpt>
      <trkpt lat="45.10352" lon="5.61684">
        <ele>1746</ele>
        <time>2010-06-06T09:59:51Z</time>
      </trkpt>
      <trkpt lat="45.10355" lon="5.61684">
        <ele>1746</ele>
        <time>2010-06-06T09:59:52Z</time>
      </trkpt>
      <trkpt lat="45.10359" lon="5.61684">
        <ele>1746</ele>
        <time>2010-06-06T09:59:53Z</time>
      </trkpt>
      <trkpt lat="45.10361" lon="5.61684">
        <ele>1746</ele>
        <time>2010-06-06T09:59:54Z</time>
      </trkpt>
      <trkpt lat="45.10364" lon="5.61684">
        <ele>1746</ele>
        <time>2010-06-06T09:59:55Z</time>
      </trkpt>
      <trkpt lat="45.10368" lon="5.61684">
        <ele>1746</ele>
        <time>2010-06-06T09:59:56Z</time>
      </trkpt>
      <trkpt lat="45.10371" lon="5.61684">
        <ele>1746</ele>
        <time>2010-06-06T09:59:57Z</time>
      </trkpt>
      <trkpt lat="45.10374" lon="5.61684">
        <ele>1746</ele>
        <time>2010-06-06T09:59:58Z</time>
      </trkpt>
      <trkpt lat="45.10377" lon="5.61684">
        <ele>1746</ele>
        <time>2010-06-06T09:59:59Z</time>
      </trkpt>
      <trkpt lat="45.10381" lon="5.61683">
        <ele>1746</ele>
        <time>2010-06-06T10:00:00Z</time>
      </trkpt>
      <trkpt lat="45.10384" lon="5.61683">
        <ele>1746</ele>
        <time>2010-06-06T10:00:01Z</time>
      </trkpt>
      <trkpt lat="45.10387" lon="5.61683">
        <ele>1746</ele>
        <time>2010-06-06T10:00:02Z</time>
      </trkpt>
      <trkpt lat="45.10391" lon="5.61684">
        <ele>1746</ele>
        <time>2010-06-06T10:00:03Z</time>
      </trkpt>
      <trkpt lat="45.10394" lon="5.61685">
        <ele>1746</ele>
        <time>2010-06-06T10:00:04Z</time>
      </trkpt>
      <trkpt lat="45.10398" lon="5.61685">
        <ele>1746</ele>
        <time>2010-06-06T10:00:05Z</time>
      </trkpt>
      <trkpt lat="45.10401" lon="5.61686">
        <ele>1746</ele>
        <time>2010-06-06T10:00:06Z</time>
      </trkpt>
      <trkpt lat="45.10404" lon="5.61687">
        <ele>1746</ele>
        <time>2010-06-06T10:00:07Z</time>
      </trkpt>
      <trkpt lat="45.10407" lon="5.61688">
        <ele>1746</ele>
        <time>2010-06-06T10:00:08Z</time>
      </trkpt>
      <trkpt lat="45.1041" lon="5.61689">
        <ele>1746</ele>
        <time>2010-06-06T10:00:09Z</time>
      </trkpt>
      <trkpt lat="45.10413" lon="5.6169">
        <ele>1747</ele>
        <time>2010-06-06T10:00:10Z</time>
      </trkpt>
      <trkpt lat="45.10417" lon="5.61693">
        <ele>1747</ele>
        <time>2010-06-06T10:00:11Z</time>
      </trkpt>
      <trkpt lat="45.1042" lon="5.61695">
        <ele>1747</ele>
        <time>2010-06-06T10:00:12Z</time>
      </trkpt>
      <trkpt lat="45.10422" lon="5.61698">
        <ele>1747</ele>
        <time>2010-06-06T10:00:13Z</time>
      </trkpt>
      <trkpt lat="45.10425" lon="5.617">
        <ele>1747</ele>
        <time>2010-06-06T10:00:14Z</time>
      </trkpt>
      <trkpt lat="45.10428" lon="5.61703">
        <ele>1747</ele>
        <time>2010-06-06T10:00:15Z</time>
      </trkpt>
      <trkpt lat="45.1043" lon="5.61706">
        <ele>1747</ele>
        <time>2010-06-06T10:00:16Z</time>
      </trkpt>
      <trkpt lat="45.10433" lon="5.6171">
        <ele>1747</ele>
        <time>2010-06-06T10:00:17Z</time>
      </trkpt>
      <trkpt lat="45.10435" lon="5.61713">
        <ele>1747</ele>
        <time>2010-06-06T10:00:18Z</time>
      </trkpt>
      <trkpt lat="45.10437" lon="5.61717">
        <ele>1747</ele>
        <time>2010-06-06T10:00:19Z</time>
      </trkpt>
      <trkpt lat="45.10439" lon="5.6172">
        <ele>1747</ele>
        <time>2010-06-06T10:00:20Z</time>
      </trkpt>
      <trkpt lat="45.1044" lon="5.61724">
        <ele>1747</ele>
        <time>2010-06-06T10:00:21Z</time>
      </trkpt>
      <trkpt lat="45.10442" lon="5.61728">
        <ele>1747</ele>
        <time>2010-06-06T10:00:22Z</time>
      </trkpt>
      <trkpt lat="45.10442" lon="5.61731">
        <ele>1747</ele>
        <time>2010-06-06T10:00:23Z</time>
      </trkpt>
      <trkpt lat="45.10443" lon="5.61735">
        <ele>1746</ele>
        <time>2010-06-06T10:00:24Z</time>
      </trkpt>
      <trkpt lat="45.10443" lon="5.61738">
        <ele>1746</ele>
        <time>2010-06-06T10:00:25Z</time>
      </trkpt>
      <trkpt lat="45.10443" lon="5.61741">
        <ele>1746</ele>
        <time>2010-06-06T10:00:26Z</time>
      </trkpt>
      <trkpt lat="45.10443" lon="5.61745">
        <ele>1745</ele>
        <time>2010-06-06T10:00:27Z</time>
      </trkpt>
      <trkpt lat="45.10442" lon="5.61748">
        <ele>1745</ele>
        <time>2010-06-06T10:00:28Z</time>
      </trkpt>
      <trkpt lat="45.10442" lon="5.61752">
        <ele>1745</ele>
        <time>2010-06-06T10:00:29Z</time>
      </trkpt>
      <trkpt lat="45.10441" lon="5.61755">
        <ele>1745</ele>
        <time>2010-06-06T10:00:30Z</time>
      </trkpt>
      <trkpt lat="45.10441" lon="5.61759">
        <ele>1745</ele>
        <time>2010-06-06T10:00:31Z</time>
      </trkpt>
      <trkpt lat="45.1044" lon="5.61761">
        <ele>1745</ele>
        <time>2010-06-06T10:00:32Z</time>
      </trkpt>
      <trkpt lat="45.10439" lon="5.61764">
        <ele>1745</ele>
        <time>2010-06-06T10:00:33Z</time>
      </trkpt>
      <trkpt lat="45.10439" lon="5.61767">
        <ele>1745</ele>
        <time>2010-06-06T10:00:34Z</time>
      </trkpt>
      <trkpt lat="45.1044" lon="5.6177">
        <ele>1745</ele>
        <time>2010-06-06T10:00:35Z</time>
      </trkpt>
      <trkpt lat="45.10442" lon="5.61773">
        <ele>1745</ele>
        <time>2010-06-06T10:00:36Z</time>
      </trkpt>
      <trkpt lat="45.10444" lon="5.61775">
        <ele>1745</ele>
        <time>2010-06-06T10:00:37Z</time>
      </trkpt>
      <trkpt lat="45.10445" lon="5.61778">
        <ele>1745</ele>
        <time>2010-06-06T10:00:38Z</time>
      </trkpt>
      <trkpt lat="45.10446" lon="5.61781">
        <ele>1745</ele>
        <time>2010-06-06T10:00:39Z</time>
      </trkpt>
      <trkpt lat="45.10448" lon="5.61784">
        <ele>1745</ele>
        <time>2010-06-06T10:00:40Z</time>
      </trkpt>
      <trkpt lat="45.1045" lon="5.61787">
        <ele>1745</ele>
        <time>2010-06-06T10:00:41Z</time>
      </trkpt>
      <trkpt lat="45.10452" lon="5.6179">
        <ele>1745</ele>
        <time>2010-06-06T10:00:42Z</time>
      </trkpt>
      <trkpt lat="45.10454" lon="5.61793">
        <ele>1745</ele>
        <time>2010-06-06T10:00:43Z</time>
      </trkpt>
      <trkpt lat="45.10456" lon="5.61796">
        <ele>1745</ele>
        <time>2010-06-06T10:00:44Z</time>
      </trkpt>
      <trkpt lat="45.10458" lon="5.61798">
        <ele>1745</ele>
        <time>2010-06-06T10:00:45Z</time>
      </trkpt>
      <trkpt lat="45.1046" lon="5.61801">
        <ele>1746</ele>
        <time>2010-06-06T10:00:46Z</time>
      </trkpt>
      <trkpt lat="45.10462" lon="5.61803">
        <ele>1746</ele>
        <time>2010-06-06T10:00:47Z</time>
      </trkpt>
      <trkpt lat="45.10465" lon="5.61805">
        <ele>1746</ele>
        <time>2010-06-06T10:00:48Z</time>
      </trkpt>
      <trkpt lat="45.10468" lon="5.61807">
        <ele>1747</ele>
        <time>2010-06-06T10:00:49Z</time>
      </trkpt>
      <trkpt lat="45.10471" lon="5.61808">
        <ele>1747</ele>
        <time>2010-06-06T10:00:50Z</time>
      </trkpt>
      <trkpt lat="45.10473" lon="5.6181">
        <ele>1748</ele>
        <time>2010-06-06T10:00:51Z</time>
      </trkpt>
      <trkpt lat="45.10476" lon="5.61811">
        <ele>1748</ele>
        <time>2010-06-06T10:00:52Z</time>
      </trkpt>
      <trkpt lat="45.10479" lon="5.61812">
        <ele>1748</ele>
        <time>2010-06-06T10:00:53Z</time>
      </trkpt>
      <trkpt lat="45.10482" lon="5.61813">
        <ele>1748</ele>
        <time>2010-06-06T10:00:54Z</time>
      </trkpt>
      <trkpt lat="45.10485" lon="5.61814">
        <ele>1749</ele>
        <time>2010-06-06T10:00:55Z</time>
      </trkpt>
      <trkpt lat="45.10488" lon="5.61815">
        <ele>1749</ele>
        <time>2010-06-06T10:00:56Z</time>
      </trkpt>
      <trkpt lat="45.10491" lon="5.61816">
        <ele>1749</ele>
        <time>2010-06-06T10:00:57Z</time>
      </trkpt>
      <trkpt lat="45.10493" lon="5.61817">
        <ele>1749</ele>
        <time>2010-06-06T10:00:58Z</time>
      </trkpt>
      <trkpt lat="45.10496" lon="5.61818">
        <ele>1749</ele>
        <time>2010-06-06T10:00:59Z</time>
      </trkpt>
      <trkpt lat="45.10499" lon="5.6182">
        <ele>1749</ele>
        <time>2010-06-06T10:01:00Z</time>
      </trkpt>
      <trkpt lat="45.10501" lon="5.61822">
        <ele>1749</ele>
        <time>2010-06-06T10:01:01Z</time>
      </trkpt>
      <trkpt lat="45.10503" lon="5.61825">
        <ele>1749</ele>
        <time>2010-06-06T10:01:02Z</time>
      </trkpt>
      <trkpt lat="45.10504" lon="5.61827">
        <ele>1749</ele>
        <time>2010-06-06T10:01:03Z</time>
      </trkpt>
      <trkpt lat="45.10505" lon="5.6183">
        <ele>1749</ele>
        <time>2010-06-06T10:01:04Z</time>
      </trkpt>
      <trkpt lat="45.10506" lon="5.61832">
        <ele>1749</ele>
        <time>2010-06-06T10:01:05Z</time>
      </trkpt>
      <trkpt lat="45.10507" lon="5.61833">
        <ele>1749</ele>
        <time>2010-06-06T10:01:06Z</time>
      </trkpt>
      <trkpt lat="45.10508" lon="5.61835">
        <ele>1749</ele>
        <time>2010-06-06T10:01:07Z</time>
      </trkpt>
      <trkpt lat="45.10509" lon="5.61836">
        <ele>1749</ele>
        <time>2010-06-06T10:01:08Z</time>
      </trkpt>
      <trkpt lat="45.10509" lon="5.61838">
        <ele>1749</ele>
        <time>2010-06-06T10:01:09Z</time>
      </trkpt>
      <trkpt lat="45.1051" lon="5.6184">
        <ele>1749</ele>
        <time>2010-06-06T10:01:10Z</time>
      </trkpt>
      <trkpt lat="45.10512" lon="5.61842">
        <ele>1749</ele>
        <time>2010-06-06T10:01:12Z</time>
      </trkpt>
      <trkpt lat="45.10512" lon="5.61844">
        <ele>1749</ele>
        <time>2010-06-06T10:01:13Z</time>
      </trkpt>
      <trkpt lat="45.10513" lon="5.61846">
        <ele>1749</ele>
        <time>2010-06-06T10:01:14Z</time>
      </trkpt>
      <trkpt lat="45.10514" lon="5.61847">
        <ele>1749</ele>
        <time>2010-06-06T10:01:15Z</time>
      </trkpt>
      <trkpt lat="45.10515" lon="5.61849">
        <ele>1749</ele>
        <time>2010-06-06T10:01:16Z</time>
      </trkpt>
      <trkpt lat="45.10516" lon="5.61851">
        <ele>1749</ele>
        <time>2010-06-06T10:01:18Z</time>
      </trkpt>
      <trkpt lat="45.10516" lon="5.61853">
        <ele>1749</ele>
        <time>2010-06-06T10:01:19Z</time>
      </trkpt>
      <trkpt lat="45.10516" lon="5.61855">
        <ele>1749</ele>
        <time>2010-06-06T10:01:20Z</time>
      </trkpt>
      <trkpt lat="45.10516" lon="5.61856">
        <ele>1749</ele>
        <time>2010-06-06T10:01:21Z</time>
      </trkpt>
      <trkpt lat="45.10516" lon="5.61858">
        <ele>1749</ele>
        <time>2010-06-06T10:01:22Z</time>
      </trkpt>
      <trkpt lat="45.10517" lon="5.6186">
        <ele>1750</ele>
        <time>2010-06-06T10:01:23Z</time>
      </trkpt>
      <trkpt lat="45.10518" lon="5.61862">
        <ele>1750</ele>
        <time>2010-06-06T10:01:25Z</time>
      </trkpt>
      <trkpt lat="45.10518" lon="5.61865">
        <ele>1751</ele>
        <time>2010-06-06T10:01:27Z</time>
      </trkpt>
      <trkpt lat="45.10519" lon="5.61866">
        <ele>1751</ele>
        <time>2010-06-06T10:01:28Z</time>
      </trkpt>
      <trkpt lat="45.10519" lon="5.61868">
        <ele>1751</ele>
        <time>2010-06-06T10:01:29Z</time>
      </trkpt>
      <trkpt lat="45.10519" lon="5.6187">
        <ele>1751</ele>
        <time>2010-06-06T10:01:31Z</time>
      </trkpt>
      <trkpt lat="45.10519" lon="5.61872">
        <ele>1751</ele>
        <time>2010-06-06T10:01:32Z</time>
      </trkpt>
      <trkpt lat="45.10519" lon="5.61873">
        <ele>1751</ele>
        <time>2010-06-06T10:01:33Z</time>
      </trkpt>
      <trkpt lat="45.10519" lon="5.61875">
        <ele>1751</ele>
        <time>2010-06-06T10:01:34Z</time>
      </trkpt>
      <trkpt lat="45.10519" lon="5.61877">
        <ele>1751</ele>
        <time>2010-06-06T10:01:35Z</time>
      </trkpt>
      <trkpt lat="45.10519" lon="5.61878">
        <ele>1751</ele>
        <time>2010-06-06T10:01:36Z</time>
      </trkpt>
      <trkpt lat="45.10519" lon="5.61881">
        <ele>1751</ele>
        <time>2010-06-06T10:01:38Z</time>
      </trkpt>
      <trkpt lat="45.10519" lon="5.61883">
        <ele>1752</ele>
        <time>2010-06-06T10:01:40Z</time>
      </trkpt>
      <trkpt lat="45.10519" lon="5.61884">
        <ele>1752</ele>
        <time>2010-06-06T10:01:41Z</time>
      </trkpt>
      <trkpt lat="45.10519" lon="5.61886">
        <ele>1752</ele>
        <time>2010-06-06T10:01:42Z</time>
      </trkpt>
      <trkpt lat="45.1052" lon="5.61889">
        <ele>1753</ele>
        <time>2010-06-06T10:01:44Z</time>
      </trkpt>
      <trkpt lat="45.1052" lon="5.61891">
        <ele>1754</ele>
        <time>2010-06-06T10:01:46Z</time>
      </trkpt>
      <trkpt lat="45.1052" lon="5.61892">
        <ele>1754</ele>
        <time>2010-06-06T10:01:47Z</time>
      </trkpt>
      <trkpt lat="45.1052" lon="5.61894">
        <ele>1754</ele>
        <time>2010-06-06T10:01:48Z</time>
      </trkpt>
      <trkpt lat="45.10521" lon="5.61897">
        <ele>1755</ele>
        <time>2010-06-06T10:01:50Z</time>
      </trkpt>
      <trkpt lat="45.10522" lon="5.61899">
        <ele>1755</ele>
        <time>2010-06-06T10:01:52Z</time>
      </trkpt>
      <trkpt lat="45.10523" lon="5.61901">
        <ele>1755</ele>
        <time>2010-06-06T10:01:54Z</time>
      </trkpt>
      <trkpt lat="45.10524" lon="5.61903">
        <ele>1755</ele>
        <time>2010-06-06T10:01:56Z</time>
      </trkpt>
      <trkpt lat="45.10524" lon="5.61904">
        <ele>1755</ele>
        <time>2010-06-06T10:01:57Z</time>
      </trkpt>
      <trkpt lat="45.10525" lon="5.61906">
        <ele>1756</ele>
        <time>2010-06-06T10:01:59Z</time>
      </trkpt>
      <trkpt lat="45.10526" lon="5.61908">
        <ele>1756</ele>
        <time>2010-06-06T10:02:01Z</time>
      </trkpt>
      <trkpt lat="45.10527" lon="5.6191">
        <ele>1757</ele>
        <time>2010-06-06T10:02:03Z</time>
      </trkpt>
      <trkpt lat="45.10528" lon="5.61912">
        <ele>1757</ele>
        <time>2010-06-06T10:02:05Z</time>
      </trkpt>
      <trkpt lat="45.10529" lon="5.61914">
        <ele>1758</ele>
        <time>2010-06-06T10:02:07Z</time>
      </trkpt>
      <trkpt lat="45.1053" lon="5.61916">
        <ele>1759</ele>
        <time>2010-06-06T10:02:09Z</time>
      </trkpt>
      <trkpt lat="45.10531" lon="5.61917">
        <ele>1760</ele>
        <time>2010-06-06T10:02:11Z</time>
      </trkpt>
      <trkpt lat="45.10532" lon="5.61919">
        <ele>1761</ele>
        <time>2010-06-06T10:02:13Z</time>
      </trkpt>
      <trkpt lat="45.10534" lon="5.61922">
        <ele>1763</ele>
        <time>2010-06-06T10:02:16Z</time>
      </trkpt>
      <trkpt lat="45.10534" lon="5.61924">
        <ele>1764</ele>
        <time>2010-06-06T10:02:17Z</time>
      </trkpt>
      <trkpt lat="45.10535" lon="5.61925">
        <ele>1764</ele>
        <time>2010-06-06T10:02:18Z</time>
      </trkpt>
      <trkpt lat="45.10535" lon="5.61927">
        <ele>1765</ele>
        <time>2010-06-06T10:02:20Z</time>
      </trkpt>
      <trkpt lat="45.10537" lon="5.61929">
        <ele>1765</ele>
        <time>2010-06-06T10:02:22Z</time>
      </trkpt>
      <trkpt lat="45.10538" lon="5.61931">
        <ele>1767</ele>
        <time>2010-06-06T10:02:25Z</time>
      </trkpt>
      <trkpt lat="45.10538" lon="5.61932">
        <ele>1767</ele>
        <time>2010-06-06T10:02:26Z</time>
      </trkpt>
      <trkpt lat="45.10539" lon="5.61935">
        <ele>1768</ele>
        <time>2010-06-06T10:02:28Z</time>
      </trkpt>
      <trkpt lat="45.10541" lon="5.61937">
        <ele>1769</ele>
        <time>2010-06-06T10:02:30Z</time>
      </trkpt>
      <trkpt lat="45.10541" lon="5.61939">
        <ele>1769</ele>
        <time>2010-06-06T10:02:31Z</time>
      </trkpt>
      <trkpt lat="45.10541" lon="5.61941">
        <ele>1769</ele>
        <time>2010-06-06T10:02:32Z</time>
      </trkpt>
      <trkpt lat="45.10541" lon="5.61943">
        <ele>1770</ele>
        <time>2010-06-06T10:02:33Z</time>
      </trkpt>
      <trkpt lat="45.10542" lon="5.61945">
        <ele>1770</ele>
        <time>2010-06-06T10:02:35Z</time>
      </trkpt>
      <trkpt lat="45.10542" lon="5.61947">
        <ele>1771</ele>
        <time>2010-06-06T10:02:37Z</time>
      </trkpt>
      <trkpt lat="45.10543" lon="5.61949">
        <ele>1771</ele>
        <time>2010-06-06T10:02:38Z</time>
      </trkpt>
      <trkpt lat="45.10543" lon="5.61951">
        <ele>1772</ele>
        <time>2010-06-06T10:02:40Z</time>
      </trkpt>
      <trkpt lat="45.10543" lon="5.61953">
        <ele>1772</ele>
        <time>2010-06-06T10:02:41Z</time>
      </trkpt>
      <trkpt lat="45.10543" lon="5.61954">
        <ele>1773</ele>
        <time>2010-06-06T10:02:42Z</time>
      </trkpt>
      <trkpt lat="45.10543" lon="5.61957">
        <ele>1773</ele>
        <time>2010-06-06T10:02:44Z</time>
      </trkpt>
      <trkpt lat="45.10543" lon="5.61959">
        <ele>1774</ele>
        <time>2010-06-06T10:02:45Z</time>
      </trkpt>
      <trkpt lat="45.10543" lon="5.61961">
        <ele>1774</ele>
        <time>2010-06-06T10:02:47Z</time>
      </trkpt>
      <trkpt lat="45.10544" lon="5.61963">
        <ele>1775</ele>
        <time>2010-06-06T10:02:48Z</time>
      </trkpt>
      <trkpt lat="45.10544" lon="5.61965">
        <ele>1775</ele>
        <time>2010-06-06T10:02:49Z</time>
      </trkpt>
      <trkpt lat="45.10544" lon="5.61967">
        <ele>1775</ele>
        <time>2010-06-06T10:02:50Z</time>
      </trkpt>
      <trkpt lat="45.10546" lon="5.61969">
        <ele>1776</ele>
        <time>2010-06-06T10:02:52Z</time>
      </trkpt>
      <trkpt lat="45.10547" lon="5.61973">
        <ele>1776</ele>
        <time>2010-06-06T10:02:54Z</time>
      </trkpt>
      <trkpt lat="45.10548" lon="5.61975">
        <ele>1776</ele>
        <time>2010-06-06T10:02:55Z</time>
      </trkpt>
      <trkpt lat="45.10549" lon="5.61976">
        <ele>1776</ele>
        <time>2010-06-06T10:02:56Z</time>
      </trkpt>
      <trkpt lat="45.10552" lon="5.61977">
        <ele>1776</ele>
        <time>2010-06-06T10:02:57Z</time>
      </trkpt>
      <trkpt lat="45.10554" lon="5.61979">
        <ele>1776</ele>
        <time>2010-06-06T10:02:58Z</time>
      </trkpt>
      <trkpt lat="45.10556" lon="5.6198">
        <ele>1776</ele>
        <time>2010-06-06T10:02:59Z</time>
      </trkpt>
      <trkpt lat="45.10559" lon="5.6198">
        <ele>1776</ele>
        <time>2010-06-06T10:03:00Z</time>
      </trkpt>
      <trkpt lat="45.10561" lon="5.61981">
        <ele>1776</ele>
        <time>2010-06-06T10:03:01Z</time>
      </trkpt>
      <trkpt lat="45.10564" lon="5.61982">
        <ele>1776</ele>
        <time>2010-06-06T10:03:02Z</time>
      </trkpt>
      <trkpt lat="45.10566" lon="5.61983">
        <ele>1776</ele>
        <time>2010-06-06T10:03:03Z</time>
      </trkpt>
      <trkpt lat="45.10569" lon="5.61983">
        <ele>1776</ele>
        <time>2010-06-06T10:03:04Z</time>
      </trkpt>
      <trkpt lat="45.10572" lon="5.61983">
        <ele>1776</ele>
        <time>2010-06-06T10:03:05Z</time>
      </trkpt>
      <trkpt lat="45.10575" lon="5.61983">
        <ele>1776</ele>
        <time>2010-06-06T10:03:06Z</time>
      </trkpt>
      <trkpt lat="45.10578" lon="5.61984">
        <ele>1776</ele>
        <time>2010-06-06T10:03:07Z</time>
      </trkpt>
      <trkpt lat="45.10581" lon="5.61985">
        <ele>1776</ele>
        <time>2010-06-06T10:03:08Z</time>
      </trkpt>
      <trkpt lat="45.10584" lon="5.61987">
        <ele>1776</ele>
        <time>2010-06-06T10:03:09Z</time>
      </trkpt>
      <trkpt lat="45.10587" lon="5.61988">
        <ele>1776</ele>
        <time>2010-06-06T10:03:10Z</time>
      </trkpt>
      <trkpt lat="45.10589" lon="5.61991">
        <ele>1776</ele>
        <time>2010-06-06T10:03:11Z</time>
      </trkpt>
      <trkpt lat="45.10592" lon="5.61994">
        <ele>1776</ele>
        <time>2010-06-06T10:03:12Z</time>
      </trkpt>
      <trkpt lat="45.10594" lon="5.61997">
        <ele>1776</ele>
        <time>2010-06-06T10:03:13Z</time>
      </trkpt>
      <trkpt lat="45.10596" lon="5.62001">
        <ele>1776</ele>
        <time>2010-06-06T10:03:14Z</time>
      </trkpt>
      <trkpt lat="45.10598" lon="5.62004">
        <ele>1776</ele>
        <time>2010-06-06T10:03:15Z</time>
      </trkpt>
      <trkpt lat="45.10599" lon="5.62008">
        <ele>1775</ele>
        <time>2010-06-06T10:03:16Z</time>
      </trkpt>
      <trkpt lat="45.106" lon="5.62012">
        <ele>1775</ele>
        <time>2010-06-06T10:03:17Z</time>
      </trkpt>
      <trkpt lat="45.10601" lon="5.62015">
        <ele>1775</ele>
        <time>2010-06-06T10:03:18Z</time>
      </trkpt>
      <trkpt lat="45.10603" lon="5.6202">
        <ele>1775</ele>
        <time>2010-06-06T10:03:19Z</time>
      </trkpt>
      <trkpt lat="45.10603" lon="5.62024">
        <ele>1775</ele>
        <time>2010-06-06T10:03:20Z</time>
      </trkpt>
      <trkpt lat="45.10604" lon="5.62028">
        <ele>1775</ele>
        <time>2010-06-06T10:03:21Z</time>
      </trkpt>
      <trkpt lat="45.10604" lon="5.62033">
        <ele>1775</ele>
        <time>2010-06-06T10:03:22Z</time>
      </trkpt>
      <trkpt lat="45.10605" lon="5.62037">
        <ele>1775</ele>
        <time>2010-06-06T10:03:23Z</time>
      </trkpt>
      <trkpt lat="45.10607" lon="5.6204">
        <ele>1775</ele>
        <time>2010-06-06T10:03:24Z</time>
      </trkpt>
      <trkpt lat="45.10609" lon="5.62043">
        <ele>1775</ele>
        <time>2010-06-06T10:03:25Z</time>
      </trkpt>
      <trkpt lat="45.10612" lon="5.62047">
        <ele>1775</ele>
        <time>2010-06-06T10:03:26Z</time>
      </trkpt>
      <trkpt lat="45.10614" lon="5.6205">
        <ele>1775</ele>
        <time>2010-06-06T10:03:27Z</time>
      </trkpt>
      <trkpt lat="45.10617" lon="5.62053">
        <ele>1775</ele>
        <time>2010-06-06T10:03:28Z</time>
      </trkpt>
      <trkpt lat="45.1062" lon="5.62054">
        <ele>1775</ele>
        <time>2010-06-06T10:03:29Z</time>
      </trkpt>
      <trkpt lat="45.10623" lon="5.62056">
        <ele>1774</ele>
        <time>2010-06-06T10:03:30Z</time>
      </trkpt>
      <trkpt lat="45.10625" lon="5.62057">
        <ele>1773</ele>
        <time>2010-06-06T10:03:31Z</time>
      </trkpt>
      <trkpt lat="45.10627" lon="5.62057">
        <ele>1773</ele>
        <time>2010-06-06T10:03:32Z</time>
      </trkpt>
      <trkpt lat="45.10629" lon="5.62057">
        <ele>1772</ele>
        <time>2010-06-06T10:03:33Z</time>
      </trkpt>
      <trkpt lat="45.1063" lon="5.62057">
        <ele>1771</ele>
        <time>2010-06-06T10:03:34Z</time>
      </trkpt>
      <trkpt lat="45.10632" lon="5.62057">
        <ele>1770</ele>
        <time>2010-06-06T10:03:35Z</time>
      </trkpt>
      <trkpt lat="45.10634" lon="5.62057">
        <ele>1770</ele>
        <time>2010-06-06T10:03:36Z</time>
      </trkpt>
      <trkpt lat="45.10635" lon="5.62057">
        <ele>1769</ele>
        <time>2010-06-06T10:03:37Z</time>
      </trkpt>
      <trkpt lat="45.10637" lon="5.62057">
        <ele>1767</ele>
        <time>2010-06-06T10:03:39Z</time>
      </trkpt>
      <trkpt lat="45.10639" lon="5.62057">
        <ele>1765</ele>
        <time>2010-06-06T10:03:41Z</time>
      </trkpt>
      <trkpt lat="45.1064" lon="5.62056">
        <ele>1764</ele>
        <time>2010-06-06T10:03:42Z</time>
      </trkpt>
      <trkpt lat="45.10642" lon="5.62056">
        <ele>1764</ele>
        <time>2010-06-06T10:03:43Z</time>
      </trkpt>
      <trkpt lat="45.10644" lon="5.62056">
        <ele>1763</ele>
        <time>2010-06-06T10:03:44Z</time>
      </trkpt>
      <trkpt lat="45.10646" lon="5.62056">
        <ele>1761</ele>
        <time>2010-06-06T10:03:46Z</time>
      </trkpt>
      <trkpt lat="45.10648" lon="5.62058">
        <ele>1761</ele>
        <time>2010-06-06T10:03:47Z</time>
      </trkpt>
      <trkpt lat="45.1065" lon="5.62061">
        <ele>1759</ele>
        <time>2010-06-06T10:03:49Z</time>
      </trkpt>
      <trkpt lat="45.1065" lon="5.62062">
        <ele>1758</ele>
        <time>2010-06-06T10:03:50Z</time>
      </trkpt>
      <trkpt lat="45.10652" lon="5.62064">
        <ele>1758</ele>
        <time>2010-06-06T10:03:52Z</time>
      </trkpt>
      <trkpt lat="45.10653" lon="5.62067">
        <ele>1757</ele>
        <time>2010-06-06T10:03:54Z</time>
      </trkpt>
      <trkpt lat="45.10655" lon="5.62069">
        <ele>1757</ele>
        <time>2010-06-06T10:03:56Z</time>
      </trkpt>
      <trkpt lat="45.10657" lon="5.6207">
        <ele>1757</ele>
        <time>2010-06-06T10:03:58Z</time>
      </trkpt>
      <trkpt lat="45.10658" lon="5.62072">
        <ele>1757</ele>
        <time>2010-06-06T10:04:00Z</time>
      </trkpt>
      <trkpt lat="45.10659" lon="5.62074">
        <ele>1757</ele>
        <time>2010-06-06T10:04:01Z</time>
      </trkpt>
      <trkpt lat="45.1066" lon="5.62076">
        <ele>1757</ele>
        <time>2010-06-06T10:04:02Z</time>
      </trkpt>
      <trkpt lat="45.10662" lon="5.62078">
        <ele>1758</ele>
        <time>2010-06-06T10:04:03Z</time>
      </trkpt>
      <trkpt lat="45.10663" lon="5.62079">
        <ele>1758</ele>
        <time>2010-06-06T10:04:04Z</time>
      </trkpt>
      <trkpt lat="45.10664" lon="5.6208">
        <ele>1759</ele>
        <time>2010-06-06T10:04:05Z</time>
      </trkpt>
      <trkpt lat="45.10666" lon="5.62082">
        <ele>1759</ele>
        <time>2010-06-06T10:04:07Z</time>
      </trkpt>
      <trkpt lat="45.10668" lon="5.62083">
        <ele>1760</ele>
        <time>2010-06-06T10:04:08Z</time>
      </trkpt>
      <trkpt lat="45.10669" lon="5.62084">
        <ele>1760</ele>
        <time>2010-06-06T10:04:09Z</time>
      </trkpt>
      <trkpt lat="45.1067" lon="5.62085">
        <ele>1761</ele>
        <time>2010-06-06T10:04:10Z</time>
      </trkpt>
      <trkpt lat="45.10671" lon="5.62086">
        <ele>1762</ele>
        <time>2010-06-06T10:04:11Z</time>
      </trkpt>
      <trkpt lat="45.10673" lon="5.62087">
        <ele>1763</ele>
        <time>2010-06-06T10:04:13Z</time>
      </trkpt>
      <trkpt lat="45.10675" lon="5.62089">
        <ele>1763</ele>
        <time>2010-06-06T10:04:15Z</time>
      </trkpt>
      <trkpt lat="45.10677" lon="5.6209">
        <ele>1764</ele>
        <time>2010-06-06T10:04:16Z</time>
      </trkpt>
      <trkpt lat="45.10679" lon="5.62091">
        <ele>1764</ele>
        <time>2010-06-06T10:04:17Z</time>
      </trkpt>
      <trkpt lat="45.10681" lon="5.62092">
        <ele>1764</ele>
        <time>2010-06-06T10:04:18Z</time>
      </trkpt>
      <trkpt lat="45.10683" lon="5.62094">
        <ele>1765</ele>
        <time>2010-06-06T10:04:19Z</time>
      </trkpt>
      <trkpt lat="45.10685" lon="5.62095">
        <ele>1765</ele>
        <time>2010-06-06T10:04:20Z</time>
      </trkpt>
      <trkpt lat="45.10686" lon="5.62097">
        <ele>1766</ele>
        <time>2010-06-06T10:04:21Z</time>
      </trkpt>
      <trkpt lat="45.10687" lon="5.62099">
        <ele>1766</ele>
        <time>2010-06-06T10:04:22Z</time>
      </trkpt>
      <trkpt lat="45.10688" lon="5.62101">
        <ele>1766</ele>
        <time>2010-06-06T10:04:23Z</time>
      </trkpt>
      <trkpt lat="45.10689" lon="5.62102">
        <ele>1766</ele>
        <time>2010-06-06T10:04:24Z</time>
      </trkpt>
      <trkpt lat="45.10691" lon="5.62104">
        <ele>1767</ele>
        <time>2010-06-06T10:04:26Z</time>
      </trkpt>
      <trkpt lat="45.10693" lon="5.62106">
        <ele>1767</ele>
        <time>2010-06-06T10:04:28Z</time>
      </trkpt>
      <trkpt lat="45.10694" lon="5.62109">
        <ele>1768</ele>
        <time>2010-06-06T10:04:30Z</time>
      </trkpt>
      <trkpt lat="45.10696" lon="5.62112">
        <ele>1768</ele>
        <time>2010-06-06T10:04:32Z</time>
      </trkpt>
      <trkpt lat="45.10698" lon="5.62114">
        <ele>1769</ele>
        <time>2010-06-06T10:04:34Z</time>
      </trkpt>
      <trkpt lat="45.10699" lon="5.62116">
        <ele>1769</ele>
        <time>2010-06-06T10:04:36Z</time>
      </trkpt>
      <trkpt lat="45.107" lon="5.62118">
        <ele>1770</ele>
        <time>2010-06-06T10:04:38Z</time>
      </trkpt>
      <trkpt lat="45.10701" lon="5.6212">
        <ele>1770</ele>
        <time>2010-06-06T10:04:39Z</time>
      </trkpt>
      <trkpt lat="45.10702" lon="5.62123">
        <ele>1771</ele>
        <time>2010-06-06T10:04:41Z</time>
      </trkpt>
      <trkpt lat="45.10703" lon="5.62125">
        <ele>1771</ele>
        <time>2010-06-06T10:04:43Z</time>
      </trkpt>
      <trkpt lat="45.10704" lon="5.62126">
        <ele>1771</ele>
        <time>2010-06-06T10:04:44Z</time>
      </trkpt>
      <trkpt lat="45.10706" lon="5.62127">
        <ele>1771</ele>
        <time>2010-06-06T10:04:45Z</time>
      </trkpt>
      <trkpt lat="45.10707" lon="5.62127">
        <ele>1771</ele>
        <time>2010-06-06T10:04:46Z</time>
      </trkpt>
      <trkpt lat="45.10708" lon="5.62127">
        <ele>1771</ele>
        <time>2010-06-06T10:04:47Z</time>
      </trkpt>
      <trkpt lat="45.1071" lon="5.62128">
        <ele>1771</ele>
        <time>2010-06-06T10:04:49Z</time>
      </trkpt>
      <trkpt lat="45.10712" lon="5.6213">
        <ele>1771</ele>
        <time>2010-06-06T10:04:51Z</time>
      </trkpt>
      <trkpt lat="45.10715" lon="5.62132">
        <ele>1771</ele>
        <time>2010-06-06T10:04:53Z</time>
      </trkpt>
      <trkpt lat="45.10717" lon="5.62133">
        <ele>1771</ele>
        <time>2010-06-06T10:04:54Z</time>
      </trkpt>
      <trkpt lat="45.10719" lon="5.62133">
        <ele>1771</ele>
        <time>2010-06-06T10:04:55Z</time>
      </trkpt>
      <trkpt lat="45.10721" lon="5.62133">
        <ele>1772</ele>
        <time>2010-06-06T10:04:56Z</time>
      </trkpt>
      <trkpt lat="45.10723" lon="5.62133">
        <ele>1772</ele>
        <time>2010-06-06T10:04:57Z</time>
      </trkpt>
      <trkpt lat="45.10726" lon="5.62133">
        <ele>1772</ele>
        <time>2010-06-06T10:04:58Z</time>
      </trkpt>
      <trkpt lat="45.10728" lon="5.62132">
        <ele>1772</ele>
        <time>2010-06-06T10:04:59Z</time>
      </trkpt>
      <trkpt lat="45.10731" lon="5.62132">
        <ele>1772</ele>
        <time>2010-06-06T10:05:00Z</time>
      </trkpt>
      <trkpt lat="45.10733" lon="5.62132">
        <ele>1772</ele>
        <time>2010-06-06T10:05:01Z</time>
      </trkpt>
      <trkpt lat="45.10736" lon="5.62132">
        <ele>1772</ele>
        <time>2010-06-06T10:05:02Z</time>
      </trkpt>
      <trkpt lat="45.10739" lon="5.62131">
        <ele>1772</ele>
        <time>2010-06-06T10:05:03Z</time>
      </trkpt>
      <trkpt lat="45.10742" lon="5.62131">
        <ele>1772</ele>
        <time>2010-06-06T10:05:04Z</time>
      </trkpt>
      <trkpt lat="45.10744" lon="5.62131">
        <ele>1772</ele>
        <time>2010-06-06T10:05:05Z</time>
      </trkpt>
      <trkpt lat="45.10748" lon="5.62131">
        <ele>1772</ele>
        <time>2010-06-06T10:05:06Z</time>
      </trkpt>
      <trkpt lat="45.1075" lon="5.62131">
        <ele>1772</ele>
        <time>2010-06-06T10:05:07Z</time>
      </trkpt>
      <trkpt lat="45.10753" lon="5.62132">
        <ele>1772</ele>
        <time>2010-06-06T10:05:08Z</time>
      </trkpt>
      <trkpt lat="45.10756" lon="5.62133">
        <ele>1772</ele>
        <time>2010-06-06T10:05:09Z</time>
      </trkpt>
      <trkpt lat="45.10759" lon="5.62134">
        <ele>1772</ele>
        <time>2010-06-06T10:05:10Z</time>
      </trkpt>
      <trkpt lat="45.10762" lon="5.62135">
        <ele>1772</ele>
        <time>2010-06-06T10:05:11Z</time>
      </trkpt>
      <trkpt lat="45.10764" lon="5.62136">
        <ele>1772</ele>
        <time>2010-06-06T10:05:12Z</time>
      </trkpt>
      <trkpt lat="45.10767" lon="5.62137">
        <ele>1772</ele>
        <time>2010-06-06T10:05:13Z</time>
      </trkpt>
      <trkpt lat="45.10769" lon="5.62138">
        <ele>1772</ele>
        <time>2010-06-06T10:05:14Z</time>
      </trkpt>
      <trkpt lat="45.10772" lon="5.6214">
        <ele>1772</ele>
        <time>2010-06-06T10:05:15Z</time>
      </trkpt>
      <trkpt lat="45.10774" lon="5.62142">
        <ele>1772</ele>
        <time>2010-06-06T10:05:16Z</time>
      </trkpt>
      <trkpt lat="45.10776" lon="5.62144">
        <ele>1772</ele>
        <time>2010-06-06T10:05:17Z</time>
      </trkpt>
      <trkpt lat="45.10779" lon="5.62145">
        <ele>1772</ele>
        <time>2010-06-06T10:05:18Z</time>
      </trkpt>
      <trkpt lat="45.10781" lon="5.62147">
        <ele>1772</ele>
        <time>2010-06-06T10:05:19Z</time>
      </trkpt>
      <trkpt lat="45.10783" lon="5.62148">
        <ele>1772</ele>
        <time>2010-06-06T10:05:20Z</time>
      </trkpt>
      <trkpt lat="45.10786" lon="5.6215">
        <ele>1772</ele>
        <time>2010-06-06T10:05:21Z</time>
      </trkpt>
      <trkpt lat="45.10788" lon="5.62152">
        <ele>1772</ele>
        <time>2010-06-06T10:05:22Z</time>
      </trkpt>
      <trkpt lat="45.1079" lon="5.62153">
        <ele>1773</ele>
        <time>2010-06-06T10:05:23Z</time>
      </trkpt>
      <trkpt lat="45.10792" lon="5.62154">
        <ele>1773</ele>
        <time>2010-06-06T10:05:24Z</time>
      </trkpt>
      <trkpt lat="45.10794" lon="5.62155">
        <ele>1774</ele>
        <time>2010-06-06T10:05:25Z</time>
      </trkpt>
      <trkpt lat="45.10797" lon="5.62156">
        <ele>1774</ele>
        <time>2010-06-06T10:05:26Z</time>
      </trkpt>
      <trkpt lat="45.10799" lon="5.62156">
        <ele>1775</ele>
        <time>2010-06-06T10:05:27Z</time>
      </trkpt>
      <trkpt lat="45.10801" lon="5.62157">
        <ele>1776</ele>
        <time>2010-06-06T10:05:28Z</time>
      </trkpt>
      <trkpt lat="45.10803" lon="5.62158">
        <ele>1776</ele>
        <time>2010-06-06T10:05:29Z</time>
      </trkpt>
      <trkpt lat="45.10806" lon="5.6216">
        <ele>1777</ele>
        <time>2010-06-06T10:05:30Z</time>
      </trkpt>
      <trkpt lat="45.10808" lon="5.62161">
        <ele>1777</ele>
        <time>2010-06-06T10:05:31Z</time>
      </trkpt>
      <trkpt lat="45.1081" lon="5.62161">
        <ele>1778</ele>
        <time>2010-06-06T10:05:32Z</time>
      </trkpt>
      <trkpt lat="45.10813" lon="5.62162">
        <ele>1779</ele>
        <time>2010-06-06T10:05:33Z</time>
      </trkpt>
      <trkpt lat="45.10815" lon="5.62163">
        <ele>1779</ele>
        <time>2010-06-06T10:05:34Z</time>
      </trkpt>
      <trkpt lat="45.10818" lon="5.62164">
        <ele>1779</ele>
        <time>2010-06-06T10:05:35Z</time>
      </trkpt>
      <trkpt lat="45.10821" lon="5.62165">
        <ele>1780</ele>
        <time>2010-06-06T10:05:36Z</time>
      </trkpt>
      <trkpt lat="45.10823" lon="5.62167">
        <ele>1780</ele>
        <time>2010-06-06T10:05:37Z</time>
      </trkpt>
      <trkpt lat="45.10826" lon="5.62168">
        <ele>1780</ele>
        <time>2010-06-06T10:05:38Z</time>
      </trkpt>
      <trkpt lat="45.10829" lon="5.62169">
        <ele>1780</ele>
        <time>2010-06-06T10:05:39Z</time>
      </trkpt>
      <trkpt lat="45.10831" lon="5.6217">
        <ele>1781</ele>
        <time>2010-06-06T10:05:40Z</time>
      </trkpt>
      <trkpt lat="45.10834" lon="5.62171">
        <ele>1781</ele>
        <time>2010-06-06T10:05:41Z</time>
      </trkpt>
      <trkpt lat="45.10837" lon="5.62171">
        <ele>1781</ele>
        <time>2010-06-06T10:05:42Z</time>
      </trkpt>
      <trkpt lat="45.1084" lon="5.62172">
        <ele>1781</ele>
        <time>2010-06-06T10:05:43Z</time>
      </trkpt>
      <trkpt lat="45.10843" lon="5.62172">
        <ele>1781</ele>
        <time>2010-06-06T10:05:44Z</time>
      </trkpt>
      <trkpt lat="45.10846" lon="5.62173">
        <ele>1781</ele>
        <time>2010-06-06T10:05:45Z</time>
      </trkpt>
      <trkpt lat="45.10848" lon="5.62173">
        <ele>1781</ele>
        <time>2010-06-06T10:05:46Z</time>
      </trkpt>
      <trkpt lat="45.10851" lon="5.62174">
        <ele>1781</ele>
        <time>2010-06-06T10:05:47Z</time>
      </trkpt>
      <trkpt lat="45.10854" lon="5.62175">
        <ele>1781</ele>
        <time>2010-06-06T10:05:48Z</time>
      </trkpt>
      <trkpt lat="45.10857" lon="5.62175">
        <ele>1781</ele>
        <time>2010-06-06T10:05:49Z</time>
      </trkpt>
      <trkpt lat="45.10861" lon="5.62176">
        <ele>1781</ele>
        <time>2010-06-06T10:05:50Z</time>
      </trkpt>
      <trkpt lat="45.10864" lon="5.62177">
        <ele>1781</ele>
        <time>2010-06-06T10:05:51Z</time>
      </trkpt>
      <trkpt lat="45.10867" lon="5.62178">
        <ele>1781</ele>
        <time>2010-06-06T10:05:52Z</time>
      </trkpt>
      <trkpt lat="45.1087" lon="5.62178">
        <ele>1781</ele>
        <time>2010-06-06T10:05:53Z</time>
      </trkpt>
      <trkpt lat="45.10873" lon="5.62179">
        <ele>1781</ele>
        <time>2010-06-06T10:05:54Z</time>
      </trkpt>
      <trkpt lat="45.10876" lon="5.6218">
        <ele>1781</ele>
        <time>2010-06-06T10:05:55Z</time>
      </trkpt>
      <trkpt lat="45.10879" lon="5.62181">
        <ele>1781</ele>
        <time>2010-06-06T10:05:56Z</time>
      </trkpt>
      <trkpt lat="45.10882" lon="5.62182">
        <ele>1781</ele>
        <time>2010-06-06T10:05:57Z</time>
      </trkpt>
      <trkpt lat="45.10884" lon="5.62183">
        <ele>1781</ele>
        <time>2010-06-06T10:05:58Z</time>
      </trkpt>
      <trkpt lat="45.10887" lon="5.62185">
        <ele>1781</ele>
        <time>2010-06-06T10:05:59Z</time>
      </trkpt>
      <trkpt lat="45.10891" lon="5.62186">
        <ele>1780</ele>
        <time>2010-06-06T10:06:00Z</time>
      </trkpt>
      <trkpt lat="45.10894" lon="5.62188">
        <ele>1779</ele>
        <time>2010-06-06T10:06:01Z</time>
      </trkpt>
      <trkpt lat="45.10897" lon="5.62189">
        <ele>1779</ele>
        <time>2010-06-06T10:06:02Z</time>
      </trkpt>
      <trkpt lat="45.10901" lon="5.6219">
        <ele>1778</ele>
        <time>2010-06-06T10:06:03Z</time>
      </trkpt>
      <trkpt lat="45.10905" lon="5.62192">
        <ele>1778</ele>
        <time>2010-06-06T10:06:04Z</time>
      </trkpt>
      <trkpt lat="45.10908" lon="5.62193">
        <ele>1777</ele>
        <time>2010-06-06T10:06:05Z</time>
      </trkpt>
      <trkpt lat="45.10911" lon="5.62195">
        <ele>1777</ele>
        <time>2010-06-06T10:06:06Z</time>
      </trkpt>
      <trkpt lat="45.10915" lon="5.62197">
        <ele>1776</ele>
        <time>2010-06-06T10:06:07Z</time>
      </trkpt>
      <trkpt lat="45.10918" lon="5.62199">
        <ele>1775</ele>
        <time>2010-06-06T10:06:08Z</time>
      </trkpt>
      <trkpt lat="45.10922" lon="5.62201">
        <ele>1775</ele>
        <time>2010-06-06T10:06:09Z</time>
      </trkpt>
      <trkpt lat="45.10925" lon="5.62203">
        <ele>1775</ele>
        <time>2010-06-06T10:06:10Z</time>
      </trkpt>
      <trkpt lat="45.10928" lon="5.62205">
        <ele>1774</ele>
        <time>2010-06-06T10:06:11Z</time>
      </trkpt>
      <trkpt lat="45.10932" lon="5.62207">
        <ele>1774</ele>
        <time>2010-06-06T10:06:12Z</time>
      </trkpt>
      <trkpt lat="45.10935" lon="5.62209">
        <ele>1774</ele>
        <time>2010-06-06T10:06:13Z</time>
      </trkpt>
      <trkpt lat="45.10938" lon="5.62211">
        <ele>1773</ele>
        <time>2010-06-06T10:06:14Z</time>
      </trkpt>
      <trkpt lat="45.10941" lon="5.62212">
        <ele>1773</ele>
        <time>2010-06-06T10:06:15Z</time>
      </trkpt>
      <trkpt lat="45.10945" lon="5.62214">
        <ele>1773</ele>
        <time>2010-06-06T10:06:16Z</time>
      </trkpt>
      <trkpt lat="45.10948" lon="5.62216">
        <ele>1772</ele>
        <time>2010-06-06T10:06:17Z</time>
      </trkpt>
      <trkpt lat="45.10951" lon="5.62217">
        <ele>1772</ele>
        <time>2010-06-06T10:06:18Z</time>
      </trkpt>
      <trkpt lat="45.10955" lon="5.62219">
        <ele>1772</ele>
        <time>2010-06-06T10:06:19Z</time>
      </trkpt>
      <trkpt lat="45.10958" lon="5.6222">
        <ele>1772</ele>
        <time>2010-06-06T10:06:20Z</time>
      </trkpt>
      <trkpt lat="45.10961" lon="5.62222">
        <ele>1771</ele>
        <time>2010-06-06T10:06:21Z</time>
      </trkpt>
      <trkpt lat="45.10965" lon="5.62223">
        <ele>1771</ele>
        <time>2010-06-06T10:06:22Z</time>
      </trkpt>
      <trkpt lat="45.10968" lon="5.62225">
        <ele>1771</ele>
        <time>2010-06-06T10:06:23Z</time>
      </trkpt>
      <trkpt lat="45.10971" lon="5.62226">
        <ele>1771</ele>
        <time>2010-06-06T10:06:24Z</time>
      </trkpt>
      <trkpt lat="45.10974" lon="5.62227">
        <ele>1770</ele>
        <time>2010-06-06T10:06:25Z</time>
      </trkpt>
      <trkpt lat="45.10977" lon="5.62228">
        <ele>1770</ele>
        <time>2010-06-06T10:06:26Z</time>
      </trkpt>
      <trkpt lat="45.1098" lon="5.6223">
        <ele>1770</ele>
        <time>2010-06-06T10:06:27Z</time>
      </trkpt>
      <trkpt lat="45.10983" lon="5.62231">
        <ele>1769</ele>
        <time>2010-06-06T10:06:28Z</time>
      </trkpt>
      <trkpt lat="45.10986" lon="5.62233">
        <ele>1769</ele>
        <time>2010-06-06T10:06:29Z</time>
      </trkpt>
      <trkpt lat="45.1099" lon="5.62235">
        <ele>1769</ele>
        <time>2010-06-06T10:06:30Z</time>
      </trkpt>
      <trkpt lat="45.10993" lon="5.62237">
        <ele>1769</ele>
        <time>2010-06-06T10:06:31Z</time>
      </trkpt>
      <trkpt lat="45.10996" lon="5.62238">
        <ele>1768</ele>
        <time>2010-06-06T10:06:32Z</time>
      </trkpt>
      <trkpt lat="45.10999" lon="5.62241">
        <ele>1768</ele>
        <time>2010-06-06T10:06:33Z</time>
      </trkpt>
      <trkpt lat="45.11002" lon="5.62244">
        <ele>1768</ele>
        <time>2010-06-06T10:06:34Z</time>
      </trkpt>
      <trkpt lat="45.11005" lon="5.62246">
        <ele>1767</ele>
        <time>2010-06-06T10:06:35Z</time>
      </trkpt>
      <trkpt lat="45.11008" lon="5.62249">
        <ele>1767</ele>
        <time>2010-06-06T10:06:36Z</time>
      </trkpt>
      <trkpt lat="45.11011" lon="5.62252">
        <ele>1767</ele>
        <time>2010-06-06T10:06:37Z</time>
      </trkpt>
      <trkpt lat="45.11014" lon="5.62255">
        <ele>1767</ele>
        <time>2010-06-06T10:06:38Z</time>
      </trkpt>
      <trkpt lat="45.11017" lon="5.62257">
        <ele>1766</ele>
        <time>2010-06-06T10:06:39Z</time>
      </trkpt>
      <trkpt lat="45.11019" lon="5.6226">
        <ele>1766</ele>
        <time>2010-06-06T10:06:40Z</time>
      </trkpt>
      <trkpt lat="45.11022" lon="5.62263">
        <ele>1765</ele>
        <time>2010-06-06T10:06:41Z</time>
      </trkpt>
      <trkpt lat="45.11025" lon="5.62266">
        <ele>1765</ele>
        <time>2010-06-06T10:06:42Z</time>
      </trkpt>
      <trkpt lat="45.11027" lon="5.62269">
        <ele>1764</ele>
        <time>2010-06-06T10:06:43Z</time>
      </trkpt>
      <trkpt lat="45.1103" lon="5.62272">
        <ele>1764</ele>
        <time>2010-06-06T10:06:44Z</time>
      </trkpt>
      <trkpt lat="45.11032" lon="5.62275">
        <ele>1764</ele>
        <time>2010-06-06T10:06:45Z</time>
      </trkpt>
      <trkpt lat="45.11035" lon="5.62279">
        <ele>1763</ele>
        <time>2010-06-06T10:06:46Z</time>
      </trkpt>
      <trkpt lat="45.11038" lon="5.62282">
        <ele>1763</ele>
        <time>2010-06-06T10:06:47Z</time>
      </trkpt>
      <trkpt lat="45.1104" lon="5.62285">
        <ele>1762</ele>
        <time>2010-06-06T10:06:48Z</time>
      </trkpt>
      <trkpt lat="45.11042" lon="5.62289">
        <ele>1762</ele>
        <time>2010-06-06T10:06:49Z</time>
      </trkpt>
      <trkpt lat="45.11045" lon="5.62292">
        <ele>1761</ele>
        <time>2010-06-06T10:06:50Z</time>
      </trkpt>
      <trkpt lat="45.11048" lon="5.62295">
        <ele>1761</ele>
        <time>2010-06-06T10:06:51Z</time>
      </trkpt>
      <trkpt lat="45.1105" lon="5.62298">
        <ele>1761</ele>
        <time>2010-06-06T10:06:52Z</time>
      </trkpt>
      <trkpt lat="45.11053" lon="5.62301">
        <ele>1761</ele>
        <time>2010-06-06T10:06:53Z</time>
      </trkpt>
      <trkpt lat="45.11055" lon="5.62304">
        <ele>1761</ele>
        <time>2010-06-06T10:06:54Z</time>
      </trkpt>
      <trkpt lat="45.11058" lon="5.62306">
        <ele>1761</ele>
        <time>2010-06-06T10:06:55Z</time>
      </trkpt>
      <trkpt lat="45.11061" lon="5.62308">
        <ele>1761</ele>
        <time>2010-06-06T10:06:56Z</time>
      </trkpt>
      <trkpt lat="45.11064" lon="5.6231">
        <ele>1761</ele>
        <time>2010-06-06T10:06:57Z</time>
      </trkpt>
      <trkpt lat="45.11067" lon="5.62312">
        <ele>1761</ele>
        <time>2010-06-06T10:06:58Z</time>
      </trkpt>
      <trkpt lat="45.1107" lon="5.62313">
        <ele>1761</ele>
        <time>2010-06-06T10:06:59Z</time>
      </trkpt>
      <trkpt lat="45.11073" lon="5.62315">
        <ele>1761</ele>
        <time>2010-06-06T10:07:00Z</time>
      </trkpt>
      <trkpt lat="45.11076" lon="5.62316">
        <ele>1760</ele>
        <time>2010-06-06T10:07:01Z</time>
      </trkpt>
      <trkpt lat="45.1108" lon="5.62316">
        <ele>1760</ele>
        <time>2010-06-06T10:07:02Z</time>
      </trkpt>
      <trkpt lat="45.11083" lon="5.62315">
        <ele>1760</ele>
        <time>2010-06-06T10:07:03Z</time>
      </trkpt>
      <trkpt lat="45.11087" lon="5.62315">
        <ele>1760</ele>
        <time>2010-06-06T10:07:04Z</time>
      </trkpt>
      <trkpt lat="45.1109" lon="5.62315">
        <ele>1759</ele>
        <time>2010-06-06T10:07:05Z</time>
      </trkpt>
      <trkpt lat="45.11093" lon="5.62314">
        <ele>1759</ele>
        <time>2010-06-06T10:07:06Z</time>
      </trkpt>
      <trkpt lat="45.11096" lon="5.62313">
        <ele>1759</ele>
        <time>2010-06-06T10:07:07Z</time>
      </trkpt>
      <trkpt lat="45.11099" lon="5.62311">
        <ele>1758</ele>
        <time>2010-06-06T10:07:08Z</time>
      </trkpt>
      <trkpt lat="45.11101" lon="5.62309">
        <ele>1758</ele>
        <time>2010-06-06T10:07:09Z</time>
      </trkpt>
      <trkpt lat="45.11104" lon="5.62306">
        <ele>1757</ele>
        <time>2010-06-06T10:07:10Z</time>
      </trkpt>
      <trkpt lat="45.11107" lon="5.62304">
        <ele>1757</ele>
        <time>2010-06-06T10:07:11Z</time>
      </trkpt>
      <trkpt lat="45.11109" lon="5.62301">
        <ele>1756</ele>
        <time>2010-06-06T10:07:12Z</time>
      </trkpt>
      <trkpt lat="45.11112" lon="5.62298">
        <ele>1756</ele>
        <time>2010-06-06T10:07:13Z</time>
      </trkpt>
      <trkpt lat="45.11114" lon="5.62296">
        <ele>1756</ele>
        <time>2010-06-06T10:07:14Z</time>
      </trkpt>
      <trkpt lat="45.11117" lon="5.62293">
        <ele>1756</ele>
        <time>2010-06-06T10:07:15Z</time>
      </trkpt>
      <trkpt lat="45.11119" lon="5.6229">
        <ele>1756</ele>
        <time>2010-06-06T10:07:16Z</time>
      </trkpt>
      <trkpt lat="45.11122" lon="5.62288">
        <ele>1756</ele>
        <time>2010-06-06T10:07:17Z</time>
      </trkpt>
      <trkpt lat="45.11124" lon="5.62285">
        <ele>1756</ele>
        <time>2010-06-06T10:07:18Z</time>
      </trkpt>
      <trkpt lat="45.11126" lon="5.62282">
        <ele>1756</ele>
        <time>2010-06-06T10:07:19Z</time>
      </trkpt>
      <trkpt lat="45.11128" lon="5.62279">
        <ele>1756</ele>
        <time>2010-06-06T10:07:20Z</time>
      </trkpt>
      <trkpt lat="45.11131" lon="5.62276">
        <ele>1756</ele>
        <time>2010-06-06T10:07:21Z</time>
      </trkpt>
      <trkpt lat="45.11134" lon="5.62274">
        <ele>1756</ele>
        <time>2010-06-06T10:07:22Z</time>
      </trkpt>
      <trkpt lat="45.11138" lon="5.62272">
        <ele>1755</ele>
        <time>2010-06-06T10:07:23Z</time>
      </trkpt>
      <trkpt lat="45.11141" lon="5.6227">
        <ele>1755</ele>
        <time>2010-06-06T10:07:24Z</time>
      </trkpt>
      <trkpt lat="45.11144" lon="5.62269">
        <ele>1755</ele>
        <time>2010-06-06T10:07:25Z</time>
      </trkpt>
      <trkpt lat="45.11147" lon="5.62268">
        <ele>1755</ele>
        <time>2010-06-06T10:07:26Z</time>
      </trkpt>
      <trkpt lat="45.11151" lon="5.62267">
        <ele>1755</ele>
        <time>2010-06-06T10:07:27Z</time>
      </trkpt>
      <trkpt lat="45.11154" lon="5.62267">
        <ele>1755</ele>
        <time>2010-06-06T10:07:28Z</time>
      </trkpt>
      <trkpt lat="45.11157" lon="5.62266">
        <ele>1755</ele>
        <time>2010-06-06T10:07:29Z</time>
      </trkpt>
      <trkpt lat="45.11161" lon="5.62266">
        <ele>1755</ele>
        <time>2010-06-06T10:07:30Z</time>
      </trkpt>
      <trkpt lat="45.11164" lon="5.62266">
        <ele>1755</ele>
        <time>2010-06-06T10:07:31Z</time>
      </trkpt>
      <trkpt lat="45.11167" lon="5.62266">
        <ele>1755</ele>
        <time>2010-06-06T10:07:32Z</time>
      </trkpt>
      <trkpt lat="45.1117" lon="5.62267">
        <ele>1755</ele>
        <time>2010-06-06T10:07:33Z</time>
      </trkpt>
      <trkpt lat="45.11173" lon="5.62268">
        <ele>1755</ele>
        <time>2010-06-06T10:07:34Z</time>
      </trkpt>
      <trkpt lat="45.11175" lon="5.62269">
        <ele>1755</ele>
        <time>2010-06-06T10:07:35Z</time>
      </trkpt>
      <trkpt lat="45.11178" lon="5.62272">
        <ele>1755</ele>
        <time>2010-06-06T10:07:36Z</time>
      </trkpt>
      <trkpt lat="45.11181" lon="5.62275">
        <ele>1755</ele>
        <time>2010-06-06T10:07:37Z</time>
      </trkpt>
      <trkpt lat="45.11183" lon="5.62279">
        <ele>1754</ele>
        <time>2010-06-06T10:07:38Z</time>
      </trkpt>
      <trkpt lat="45.11184" lon="5.62283">
        <ele>1754</ele>
        <time>2010-06-06T10:07:39Z</time>
      </trkpt>
      <trkpt lat="45.11186" lon="5.62287">
        <ele>1754</ele>
        <time>2010-06-06T10:07:40Z</time>
      </trkpt>
      <trkpt lat="45.11188" lon="5.62292">
        <ele>1753</ele>
        <time>2010-06-06T10:07:41Z</time>
      </trkpt>
      <trkpt lat="45.1119" lon="5.62295">
        <ele>1753</ele>
        <time>2010-06-06T10:07:42Z</time>
      </trkpt>
      <trkpt lat="45.11193" lon="5.62299">
        <ele>1752</ele>
        <time>2010-06-06T10:07:43Z</time>
      </trkpt>
      <trkpt lat="45.11195" lon="5.62302">
        <ele>1752</ele>
        <time>2010-06-06T10:07:44Z</time>
      </trkpt>
      <trkpt lat="45.11199" lon="5.62304">
        <ele>1752</ele>
        <time>2010-06-06T10:07:45Z</time>
      </trkpt>
      <trkpt lat="45.11202" lon="5.62306">
        <ele>1751</ele>
        <time>2010-06-06T10:07:46Z</time>
      </trkpt>
      <trkpt lat="45.11206" lon="5.62309">
        <ele>1751</ele>
        <time>2010-06-06T10:07:47Z</time>
      </trkpt>
      <trkpt lat="45.11209" lon="5.62311">
        <ele>1751</ele>
        <time>2010-06-06T10:07:48Z</time>
      </trkpt>
      <trkpt lat="45.11212" lon="5.62313">
        <ele>1750</ele>
        <time>2010-06-06T10:07:49Z</time>
      </trkpt>
      <trkpt lat="45.11215" lon="5.62315">
        <ele>1750</ele>
        <time>2010-06-06T10:07:50Z</time>
      </trkpt>
      <trkpt lat="45.11217" lon="5.62318">
        <ele>1750</ele>
        <time>2010-06-06T10:07:51Z</time>
      </trkpt>
      <trkpt lat="45.1122" lon="5.62321">
        <ele>1750</ele>
        <time>2010-06-06T10:07:52Z</time>
      </trkpt>
      <trkpt lat="45.11222" lon="5.62323">
        <ele>1750</ele>
        <time>2010-06-06T10:07:53Z</time>
      </trkpt>
      <trkpt lat="45.11225" lon="5.62326">
        <ele>1750</ele>
        <time>2010-06-06T10:07:54Z</time>
      </trkpt>
      <trkpt lat="45.11227" lon="5.62329">
        <ele>1750</ele>
        <time>2010-06-06T10:07:55Z</time>
      </trkpt>
      <trkpt lat="45.11229" lon="5.62331">
        <ele>1749</ele>
        <time>2010-06-06T10:07:56Z</time>
      </trkpt>
      <trkpt lat="45.11231" lon="5.62334">
        <ele>1749</ele>
        <time>2010-06-06T10:07:57Z</time>
      </trkpt>
      <trkpt lat="45.11232" lon="5.62337">
        <ele>1748</ele>
        <time>2010-06-06T10:07:58Z</time>
      </trkpt>
      <trkpt lat="45.11234" lon="5.6234">
        <ele>1748</ele>
        <time>2010-06-06T10:07:59Z</time>
      </trkpt>
      <trkpt lat="45.11236" lon="5.62341">
        <ele>1747</ele>
        <time>2010-06-06T10:08:00Z</time>
      </trkpt>
      <trkpt lat="45.11238" lon="5.62342">
        <ele>1746</ele>
        <time>2010-06-06T10:08:01Z</time>
      </trkpt>
      <trkpt lat="45.11241" lon="5.62344">
        <ele>1746</ele>
        <time>2010-06-06T10:08:02Z</time>
      </trkpt>
      <trkpt lat="45.11242" lon="5.62347">
        <ele>1745</ele>
        <time>2010-06-06T10:08:03Z</time>
      </trkpt>
      <trkpt lat="45.11244" lon="5.62349">
        <ele>1744</ele>
        <time>2010-06-06T10:08:04Z</time>
      </trkpt>
      <trkpt lat="45.11246" lon="5.6235">
        <ele>1744</ele>
        <time>2010-06-06T10:08:05Z</time>
      </trkpt>
      <trkpt lat="45.11248" lon="5.6235">
        <ele>1743</ele>
        <time>2010-06-06T10:08:06Z</time>
      </trkpt>
      <trkpt lat="45.1125" lon="5.62349">
        <ele>1742</ele>
        <time>2010-06-06T10:08:07Z</time>
      </trkpt>
      <trkpt lat="45.11253" lon="5.6235">
        <ele>1741</ele>
        <time>2010-06-06T10:08:08Z</time>
      </trkpt>
      <trkpt lat="45.11254" lon="5.62352">
        <ele>1740</ele>
        <time>2010-06-06T10:08:09Z</time>
      </trkpt>
      <trkpt lat="45.11256" lon="5.62355">
        <ele>1739</ele>
        <time>2010-06-06T10:08:10Z</time>
      </trkpt>
      <trkpt lat="45.11259" lon="5.62358">
        <ele>1738</ele>
        <time>2010-06-06T10:08:11Z</time>
      </trkpt>
      <trkpt lat="45.11261" lon="5.6236">
        <ele>1738</ele>
        <time>2010-06-06T10:08:12Z</time>
      </trkpt>
      <trkpt lat="45.11263" lon="5.62361">
        <ele>1737</ele>
        <time>2010-06-06T10:08:13Z</time>
      </trkpt>
      <trkpt lat="45.11266" lon="5.62363">
        <ele>1736</ele>
        <time>2010-06-06T10:08:14Z</time>
      </trkpt>
      <trkpt lat="45.11269" lon="5.62364">
        <ele>1735</ele>
        <time>2010-06-06T10:08:15Z</time>
      </trkpt>
      <trkpt lat="45.11272" lon="5.62366">
        <ele>1734</ele>
        <time>2010-06-06T10:08:16Z</time>
      </trkpt>
      <trkpt lat="45.11275" lon="5.62368">
        <ele>1733</ele>
        <time>2010-06-06T10:08:17Z</time>
      </trkpt>
      <trkpt lat="45.11278" lon="5.62369">
        <ele>1732</ele>
        <time>2010-06-06T10:08:18Z</time>
      </trkpt>
      <trkpt lat="45.11282" lon="5.6237">
        <ele>1731</ele>
        <time>2010-06-06T10:08:19Z</time>
      </trkpt>
      <trkpt lat="45.11285" lon="5.62371">
        <ele>1730</ele>
        <time>2010-06-06T10:08:20Z</time>
      </trkpt>
      <trkpt lat="45.11289" lon="5.62371">
        <ele>1729</ele>
        <time>2010-06-06T10:08:21Z</time>
      </trkpt>
      <trkpt lat="45.11292" lon="5.62371">
        <ele>1728</ele>
        <time>2010-06-06T10:08:22Z</time>
      </trkpt>
      <trkpt lat="45.11296" lon="5.62372">
        <ele>1727</ele>
        <time>2010-06-06T10:08:23Z</time>
      </trkpt>
      <trkpt lat="45.113" lon="5.62372">
        <ele>1726</ele>
        <time>2010-06-06T10:08:24Z</time>
      </trkpt>
      <trkpt lat="45.11304" lon="5.62373">
        <ele>1725</ele>
        <time>2010-06-06T10:08:25Z</time>
      </trkpt>
      <trkpt lat="45.11307" lon="5.62373">
        <ele>1724</ele>
        <time>2010-06-06T10:08:26Z</time>
      </trkpt>
      <trkpt lat="45.11311" lon="5.62372">
        <ele>1723</ele>
        <time>2010-06-06T10:08:27Z</time>
      </trkpt>
      <trkpt lat="45.11315" lon="5.62371">
        <ele>1722</ele>
        <time>2010-06-06T10:08:28Z</time>
      </trkpt>
      <trkpt lat="45.11318" lon="5.62371">
        <ele>1721</ele>
        <time>2010-06-06T10:08:29Z</time>
      </trkpt>
      <trkpt lat="45.11322" lon="5.6237">
        <ele>1719</ele>
        <time>2010-06-06T10:08:30Z</time>
      </trkpt>
      <trkpt lat="45.11325" lon="5.62369">
        <ele>1718</ele>
        <time>2010-06-06T10:08:31Z</time>
      </trkpt>
      <trkpt lat="45.11328" lon="5.62368">
        <ele>1717</ele>
        <time>2010-06-06T10:08:32Z</time>
      </trkpt>
      <trkpt lat="45.11332" lon="5.62367">
        <ele>1715</ele>
        <time>2010-06-06T10:08:33Z</time>
      </trkpt>
      <trkpt lat="45.11335" lon="5.62367">
        <ele>1714</ele>
        <time>2010-06-06T10:08:34Z</time>
      </trkpt>
      <trkpt lat="45.11339" lon="5.62366">
        <ele>1713</ele>
        <time>2010-06-06T10:08:35Z</time>
      </trkpt>
      <trkpt lat="45.11342" lon="5.62365">
        <ele>1711</ele>
        <time>2010-06-06T10:08:36Z</time>
      </trkpt>
      <trkpt lat="45.11345" lon="5.62364">
        <ele>1710</ele>
        <time>2010-06-06T10:08:37Z</time>
      </trkpt>
      <trkpt lat="45.11349" lon="5.62362">
        <ele>1709</ele>
        <time>2010-06-06T10:08:38Z</time>
      </trkpt>
      <trkpt lat="45.11352" lon="5.6236">
        <ele>1708</ele>
        <time>2010-06-06T10:08:39Z</time>
      </trkpt>
      <trkpt lat="45.11355" lon="5.62358">
        <ele>1707</ele>
        <time>2010-06-06T10:08:40Z</time>
      </trkpt>
      <trkpt lat="45.11358" lon="5.62356">
        <ele>1706</ele>
        <time>2010-06-06T10:08:41Z</time>
      </trkpt>
      <trkpt lat="45.11361" lon="5.62354">
        <ele>1705</ele>
        <time>2010-06-06T10:08:42Z</time>
      </trkpt>
      <trkpt lat="45.11364" lon="5.62353">
        <ele>1704</ele>
        <time>2010-06-06T10:08:43Z</time>
      </trkpt>
      <trkpt lat="45.11367" lon="5.62351">
        <ele>1703</ele>
        <time>2010-06-06T10:08:44Z</time>
      </trkpt>
      <trkpt lat="45.1137" lon="5.6235">
        <ele>1702</ele>
        <time>2010-06-06T10:08:45Z</time>
      </trkpt>
      <trkpt lat="45.11374" lon="5.62349">
        <ele>1701</ele>
        <time>2010-06-06T10:08:46Z</time>
      </trkpt>
      <trkpt lat="45.11377" lon="5.62348">
        <ele>1700</ele>
        <time>2010-06-06T10:08:47Z</time>
      </trkpt>
      <trkpt lat="45.1138" lon="5.62347">
        <ele>1699</ele>
        <time>2010-06-06T10:08:48Z</time>
      </trkpt>
      <trkpt lat="45.11384" lon="5.62346">
        <ele>1698</ele>
        <time>2010-06-06T10:08:49Z</time>
      </trkpt>
      <trkpt lat="45.11388" lon="5.62344">
        <ele>1697</ele>
        <time>2010-06-06T10:08:50Z</time>
      </trkpt>
      <trkpt lat="45.11392" lon="5.62342">
        <ele>1696</ele>
        <time>2010-06-06T10:08:51Z</time>
      </trkpt>
      <trkpt lat="45.11395" lon="5.62341">
        <ele>1695</ele>
        <time>2010-06-06T10:08:52Z</time>
      </trkpt>
      <trkpt lat="45.11399" lon="5.6234">
        <ele>1694</ele>
        <time>2010-06-06T10:08:53Z</time>
      </trkpt>
      <trkpt lat="45.11403" lon="5.62339">
        <ele>1693</ele>
        <time>2010-06-06T10:08:54Z</time>
      </trkpt>
      <trkpt lat="45.11407" lon="5.62338">
        <ele>1692</ele>
        <time>2010-06-06T10:08:55Z</time>
      </trkpt>
      <trkpt lat="45.11411" lon="5.62337">
        <ele>1691</ele>
        <time>2010-06-06T10:08:56Z</time>
      </trkpt>
      <trkpt lat="45.11414" lon="5.62335">
        <ele>1690</ele>
        <time>2010-06-06T10:08:57Z</time>
      </trkpt>
      <trkpt lat="45.11418" lon="5.62334">
        <ele>1689</ele>
        <time>2010-06-06T10:08:58Z</time>
      </trkpt>
      <trkpt lat="45.11421" lon="5.62332">
        <ele>1688</ele>
        <time>2010-06-06T10:08:59Z</time>
      </trkpt>
      <trkpt lat="45.11424" lon="5.6233">
        <ele>1687</ele>
        <time>2010-06-06T10:09:00Z</time>
      </trkpt>
      <trkpt lat="45.11426" lon="5.62328">
        <ele>1686</ele>
        <time>2010-06-06T10:09:01Z</time>
      </trkpt>
      <trkpt lat="45.11429" lon="5.62326">
        <ele>1686</ele>
        <time>2010-06-06T10:09:02Z</time>
      </trkpt>
      <trkpt lat="45.11432" lon="5.62323">
        <ele>1686</ele>
        <time>2010-06-06T10:09:03Z</time>
      </trkpt>
      <trkpt lat="45.11435" lon="5.6232">
        <ele>1686</ele>
        <time>2010-06-06T10:09:04Z</time>
      </trkpt>
      <trkpt lat="45.11438" lon="5.62317">
        <ele>1686</ele>
        <time>2010-06-06T10:09:05Z</time>
      </trkpt>
      <trkpt lat="45.11441" lon="5.62314">
        <ele>1686</ele>
        <time>2010-06-06T10:09:06Z</time>
      </trkpt>
      <trkpt lat="45.11444" lon="5.62311">
        <ele>1686</ele>
        <time>2010-06-06T10:09:07Z</time>
      </trkpt>
      <trkpt lat="45.11446" lon="5.62308">
        <ele>1686</ele>
        <time>2010-06-06T10:09:08Z</time>
      </trkpt>
      <trkpt lat="45.11449" lon="5.62306">
        <ele>1686</ele>
        <time>2010-06-06T10:09:09Z</time>
      </trkpt>
      <trkpt lat="45.11452" lon="5.62304">
        <ele>1686</ele>
        <time>2010-06-06T10:09:10Z</time>
      </trkpt>
      <trkpt lat="45.11454" lon="5.62301">
        <ele>1686</ele>
        <time>2010-06-06T10:09:11Z</time>
      </trkpt>
      <trkpt lat="45.11456" lon="5.62299">
        <ele>1686</ele>
        <time>2010-06-06T10:09:12Z</time>
      </trkpt>
      <trkpt lat="45.11459" lon="5.62297">
        <ele>1686</ele>
        <time>2010-06-06T10:09:13Z</time>
      </trkpt>
      <trkpt lat="45.11462" lon="5.62295">
        <ele>1686</ele>
        <time>2010-06-06T10:09:14Z</time>
      </trkpt>
      <trkpt lat="45.11465" lon="5.62293">
        <ele>1686</ele>
        <time>2010-06-06T10:09:15Z</time>
      </trkpt>
      <trkpt lat="45.11468" lon="5.62293">
        <ele>1686</ele>
        <time>2010-06-06T10:09:16Z</time>
      </trkpt>
      <trkpt lat="45.11471" lon="5.62292">
        <ele>1686</ele>
        <time>2010-06-06T10:09:17Z</time>
      </trkpt>
      <trkpt lat="45.11474" lon="5.62292">
        <ele>1686</ele>
        <time>2010-06-06T10:09:18Z</time>
      </trkpt>
      <trkpt lat="45.11476" lon="5.62292">
        <ele>1686</ele>
        <time>2010-06-06T10:09:19Z</time>
      </trkpt>
      <trkpt lat="45.11478" lon="5.62293">
        <ele>1686</ele>
        <time>2010-06-06T10:09:20Z</time>
      </trkpt>
      <trkpt lat="45.11481" lon="5.62293">
        <ele>1686</ele>
        <time>2010-06-06T10:09:21Z</time>
      </trkpt>
      <trkpt lat="45.11484" lon="5.62294">
        <ele>1686</ele>
        <time>2010-06-06T10:09:22Z</time>
      </trkpt>
      <trkpt lat="45.11487" lon="5.62295">
        <ele>1686</ele>
        <time>2010-06-06T10:09:23Z</time>
      </trkpt>
      <trkpt lat="45.1149" lon="5.62295">
        <ele>1686</ele>
        <time>2010-06-06T10:09:24Z</time>
      </trkpt>
      <trkpt lat="45.11493" lon="5.62296">
        <ele>1686</ele>
        <time>2010-06-06T10:09:25Z</time>
      </trkpt>
      <trkpt lat="45.11496" lon="5.62297">
        <ele>1686</ele>
        <time>2010-06-06T10:09:26Z</time>
      </trkpt>
      <trkpt lat="45.11499" lon="5.62297">
        <ele>1686</ele>
        <time>2010-06-06T10:09:27Z</time>
      </trkpt>
      <trkpt lat="45.11502" lon="5.62297">
        <ele>1686</ele>
        <time>2010-06-06T10:09:28Z</time>
      </trkpt>
      <trkpt lat="45.11505" lon="5.62297">
        <ele>1686</ele>
        <time>2010-06-06T10:09:29Z</time>
      </trkpt>
      <trkpt lat="45.11508" lon="5.62297">
        <ele>1686</ele>
        <time>2010-06-06T10:09:30Z</time>
      </trkpt>
      <trkpt lat="45.11511" lon="5.62296">
        <ele>1686</ele>
        <time>2010-06-06T10:09:31Z</time>
      </trkpt>
      <trkpt lat="45.11514" lon="5.62295">
        <ele>1685</ele>
        <time>2010-06-06T10:09:32Z</time>
      </trkpt>
      <trkpt lat="45.11517" lon="5.62294">
        <ele>1685</ele>
        <time>2010-06-06T10:09:33Z</time>
      </trkpt>
      <trkpt lat="45.1152" lon="5.62295">
        <ele>1684</ele>
        <time>2010-06-06T10:09:34Z</time>
      </trkpt>
      <trkpt lat="45.11524" lon="5.62294">
        <ele>1683</ele>
        <time>2010-06-06T10:09:35Z</time>
      </trkpt>
      <trkpt lat="45.11526" lon="5.62293">
        <ele>1682</ele>
        <time>2010-06-06T10:09:36Z</time>
      </trkpt>
      <trkpt lat="45.1153" lon="5.62292">
        <ele>1681</ele>
        <time>2010-06-06T10:09:37Z</time>
      </trkpt>
      <trkpt lat="45.11533" lon="5.62291">
        <ele>1680</ele>
        <time>2010-06-06T10:09:38Z</time>
      </trkpt>
      <trkpt lat="45.11536" lon="5.6229">
        <ele>1679</ele>
        <time>2010-06-06T10:09:39Z</time>
      </trkpt>
      <trkpt lat="45.11539" lon="5.62289">
        <ele>1679</ele>
        <time>2010-06-06T10:09:40Z</time>
      </trkpt>
      <trkpt lat="45.11542" lon="5.62289">
        <ele>1678</ele>
        <time>2010-06-06T10:09:41Z</time>
      </trkpt>
      <trkpt lat="45.11546" lon="5.62289">
        <ele>1677</ele>
        <time>2010-06-06T10:09:42Z</time>
      </trkpt>
      <trkpt lat="45.11549" lon="5.62288">
        <ele>1677</ele>
        <time>2010-06-06T10:09:43Z</time>
      </trkpt>
      <trkpt lat="45.11552" lon="5.62288">
        <ele>1676</ele>
        <time>2010-06-06T10:09:44Z</time>
      </trkpt>
      <trkpt lat="45.11555" lon="5.62288">
        <ele>1675</ele>
        <time>2010-06-06T10:09:45Z</time>
      </trkpt>
      <trkpt lat="45.11558" lon="5.62287">
        <ele>1674</ele>
        <time>2010-06-06T10:09:46Z</time>
      </trkpt>
      <trkpt lat="45.11561" lon="5.62286">
        <ele>1673</ele>
        <time>2010-06-06T10:09:47Z</time>
      </trkpt>
      <trkpt lat="45.11565" lon="5.62285">
        <ele>1673</ele>
        <time>2010-06-06T10:09:48Z</time>
      </trkpt>
      <trkpt lat="45.11568" lon="5.62284">
        <ele>1672</ele>
        <time>2010-06-06T10:09:49Z</time>
      </trkpt>
      <trkpt lat="45.11571" lon="5.62282">
        <ele>1671</ele>
        <time>2010-06-06T10:09:50Z</time>
      </trkpt>
      <trkpt lat="45.11575" lon="5.62281">
        <ele>1670</ele>
        <time>2010-06-06T10:09:51Z</time>
      </trkpt>
      <trkpt lat="45.11578" lon="5.62279">
        <ele>1669</ele>
        <time>2010-06-06T10:09:52Z</time>
      </trkpt>
      <trkpt lat="45.11582" lon="5.62277">
        <ele>1668</ele>
        <time>2010-06-06T10:09:53Z</time>
      </trkpt>
      <trkpt lat="45.11586" lon="5.62275">
        <ele>1667</ele>
        <time>2010-06-06T10:09:54Z</time>
      </trkpt>
      <trkpt lat="45.11589" lon="5.62274">
        <ele>1666</ele>
        <time>2010-06-06T10:09:55Z</time>
      </trkpt>
      <trkpt lat="45.11593" lon="5.62273">
        <ele>1666</ele>
        <time>2010-06-06T10:09:56Z</time>
      </trkpt>
      <trkpt lat="45.11596" lon="5.62272">
        <ele>1665</ele>
        <time>2010-06-06T10:09:57Z</time>
      </trkpt>
      <trkpt lat="45.11599" lon="5.62272">
        <ele>1664</ele>
        <time>2010-06-06T10:09:58Z</time>
      </trkpt>
      <trkpt lat="45.11602" lon="5.62272">
        <ele>1664</ele>
        <time>2010-06-06T10:09:59Z</time>
      </trkpt>
      <trkpt lat="45.11606" lon="5.62271">
        <ele>1663</ele>
        <time>2010-06-06T10:10:00Z</time>
      </trkpt>
      <trkpt lat="45.11609" lon="5.62271">
        <ele>1662</ele>
        <time>2010-06-06T10:10:01Z</time>
      </trkpt>
      <trkpt lat="45.11613" lon="5.6227">
        <ele>1661</ele>
        <time>2010-06-06T10:10:02Z</time>
      </trkpt>
      <trkpt lat="45.11617" lon="5.62269">
        <ele>1661</ele>
        <time>2010-06-06T10:10:03Z</time>
      </trkpt>
      <trkpt lat="45.1162" lon="5.62269">
        <ele>1660</ele>
        <time>2010-06-06T10:10:04Z</time>
      </trkpt>
      <trkpt lat="45.11624" lon="5.62268">
        <ele>1659</ele>
        <time>2010-06-06T10:10:05Z</time>
      </trkpt>
      <trkpt lat="45.11628" lon="5.62268">
        <ele>1658</ele>
        <time>2010-06-06T10:10:06Z</time>
      </trkpt>
      <trkpt lat="45.11632" lon="5.62268">
        <ele>1657</ele>
        <time>2010-06-06T10:10:07Z</time>
      </trkpt>
      <trkpt lat="45.11635" lon="5.62267">
        <ele>1657</ele>
        <time>2010-06-06T10:10:08Z</time>
      </trkpt>
      <trkpt lat="45.11638" lon="5.62267">
        <ele>1656</ele>
        <time>2010-06-06T10:10:09Z</time>
      </trkpt>
      <trkpt lat="45.11642" lon="5.62267">
        <ele>1655</ele>
        <time>2010-06-06T10:10:10Z</time>
      </trkpt>
      <trkpt lat="45.11646" lon="5.62267">
        <ele>1655</ele>
        <time>2010-06-06T10:10:11Z</time>
      </trkpt>
      <trkpt lat="45.11649" lon="5.62266">
        <ele>1654</ele>
        <time>2010-06-06T10:10:12Z</time>
      </trkpt>
      <trkpt lat="45.11653" lon="5.62265">
        <ele>1654</ele>
        <time>2010-06-06T10:10:13Z</time>
      </trkpt>
      <trkpt lat="45.11656" lon="5.62265">
        <ele>1653</ele>
        <time>2010-06-06T10:10:14Z</time>
      </trkpt>
      <trkpt lat="45.1166" lon="5.62265">
        <ele>1652</ele>
        <time>2010-06-06T10:10:15Z</time>
      </trkpt>
      <trkpt lat="45.11663" lon="5.62264">
        <ele>1651</ele>
        <time>2010-06-06T10:10:16Z</time>
      </trkpt>
      <trkpt lat="45.11666" lon="5.62264">
        <ele>1651</ele>
        <time>2010-06-06T10:10:17Z</time>
      </trkpt>
      <trkpt lat="45.11669" lon="5.62263">
        <ele>1650</ele>
        <time>2010-06-06T10:10:18Z</time>
      </trkpt>
      <trkpt lat="45.11672" lon="5.62263">
        <ele>1649</ele>
        <time>2010-06-06T10:10:19Z</time>
      </trkpt>
      <trkpt lat="45.11675" lon="5.62262">
        <ele>1649</ele>
        <time>2010-06-06T10:10:20Z</time>
      </trkpt>
      <trkpt lat="45.11679" lon="5.62261">
        <ele>1648</ele>
        <time>2010-06-06T10:10:21Z</time>
      </trkpt>
      <trkpt lat="45.11682" lon="5.6226">
        <ele>1647</ele>
        <time>2010-06-06T10:10:22Z</time>
      </trkpt>
      <trkpt lat="45.11685" lon="5.62258">
        <ele>1646</ele>
        <time>2010-06-06T10:10:23Z</time>
      </trkpt>
      <trkpt lat="45.11688" lon="5.62257">
        <ele>1646</ele>
        <time>2010-06-06T10:10:24Z</time>
      </trkpt>
      <trkpt lat="45.11692" lon="5.62256">
        <ele>1645</ele>
        <time>2010-06-06T10:10:25Z</time>
      </trkpt>
      <trkpt lat="45.11696" lon="5.62255">
        <ele>1644</ele>
        <time>2010-06-06T10:10:26Z</time>
      </trkpt>
      <trkpt lat="45.11699" lon="5.62256">
        <ele>1643</ele>
        <time>2010-06-06T10:10:27Z</time>
      </trkpt>
      <trkpt lat="45.11702" lon="5.62256">
        <ele>1642</ele>
        <time>2010-06-06T10:10:28Z</time>
      </trkpt>
      <trkpt lat="45.11705" lon="5.62257">
        <ele>1641</ele>
        <time>2010-06-06T10:10:29Z</time>
      </trkpt>
      <trkpt lat="45.11708" lon="5.62259">
        <ele>1641</ele>
        <time>2010-06-06T10:10:30Z</time>
      </trkpt>
      <trkpt lat="45.11711" lon="5.62261">
        <ele>1640</ele>
        <time>2010-06-06T10:10:31Z</time>
      </trkpt>
      <trkpt lat="45.11714" lon="5.62264">
        <ele>1640</ele>
        <time>2010-06-06T10:10:32Z</time>
      </trkpt>
      <trkpt lat="45.11717" lon="5.62266">
        <ele>1640</ele>
        <time>2010-06-06T10:10:33Z</time>
      </trkpt>
      <trkpt lat="45.11719" lon="5.62269">
        <ele>1639</ele>
        <time>2010-06-06T10:10:34Z</time>
      </trkpt>
      <trkpt lat="45.11722" lon="5.62273">
        <ele>1639</ele>
        <time>2010-06-06T10:10:35Z</time>
      </trkpt>
      <trkpt lat="45.11724" lon="5.62277">
        <ele>1638</ele>
        <time>2010-06-06T10:10:36Z</time>
      </trkpt>
      <trkpt lat="45.11725" lon="5.62282">
        <ele>1637</ele>
        <time>2010-06-06T10:10:37Z</time>
      </trkpt>
      <trkpt lat="45.11726" lon="5.62287">
        <ele>1637</ele>
        <time>2010-06-06T10:10:38Z</time>
      </trkpt>
      <trkpt lat="45.11727" lon="5.62292">
        <ele>1636</ele>
        <time>2010-06-06T10:10:39Z</time>
      </trkpt>
      <trkpt lat="45.11727" lon="5.62296">
        <ele>1636</ele>
        <time>2010-06-06T10:10:40Z</time>
      </trkpt>
      <trkpt lat="45.11727" lon="5.62301">
        <ele>1636</ele>
        <time>2010-06-06T10:10:41Z</time>
      </trkpt>
      <trkpt lat="45.11727" lon="5.62305">
        <ele>1636</ele>
        <time>2010-06-06T10:10:42Z</time>
      </trkpt>
      <trkpt lat="45.11726" lon="5.6231">
        <ele>1636</ele>
        <time>2010-06-06T10:10:43Z</time>
      </trkpt>
      <trkpt lat="45.11725" lon="5.62315">
        <ele>1636</ele>
        <time>2010-06-06T10:10:44Z</time>
      </trkpt>
      <trkpt lat="45.11725" lon="5.62319">
        <ele>1636</ele>
        <time>2010-06-06T10:10:45Z</time>
      </trkpt>
      <trkpt lat="45.11725" lon="5.62324">
        <ele>1636</ele>
        <time>2010-06-06T10:10:46Z</time>
      </trkpt>
      <trkpt lat="45.11727" lon="5.62329">
        <ele>1636</ele>
        <time>2010-06-06T10:10:47Z</time>
      </trkpt>
      <trkpt lat="45.11728" lon="5.62333">
        <ele>1636</ele>
        <time>2010-06-06T10:10:48Z</time>
      </trkpt>
      <trkpt lat="45.1173" lon="5.62337">
        <ele>1636</ele>
        <time>2010-06-06T10:10:49Z</time>
      </trkpt>
      <trkpt lat="45.11732" lon="5.6234">
        <ele>1636</ele>
        <time>2010-06-06T10:10:50Z</time>
      </trkpt>
      <trkpt lat="45.11735" lon="5.62343">
        <ele>1636</ele>
        <time>2010-06-06T10:10:51Z</time>
      </trkpt>
      <trkpt lat="45.11738" lon="5.62344">
        <ele>1636</ele>
        <time>2010-06-06T10:10:52Z</time>
      </trkpt>
      <trkpt lat="45.11741" lon="5.62346">
        <ele>1636</ele>
        <time>2010-06-06T10:10:53Z</time>
      </trkpt>
      <trkpt lat="45.11744" lon="5.62346">
        <ele>1636</ele>
        <time>2010-06-06T10:10:54Z</time>
      </trkpt>
      <trkpt lat="45.11748" lon="5.62346">
        <ele>1636</ele>
        <time>2010-06-06T10:10:55Z</time>
      </trkpt>
      <trkpt lat="45.11751" lon="5.62346">
        <ele>1636</ele>
        <time>2010-06-06T10:10:56Z</time>
      </trkpt>
      <trkpt lat="45.11755" lon="5.62345">
        <ele>1636</ele>
        <time>2010-06-06T10:10:57Z</time>
      </trkpt>
      <trkpt lat="45.11759" lon="5.62344">
        <ele>1636</ele>
        <time>2010-06-06T10:10:58Z</time>
      </trkpt>
      <trkpt lat="45.11762" lon="5.62344">
        <ele>1636</ele>
        <time>2010-06-06T10:10:59Z</time>
      </trkpt>
      <trkpt lat="45.11766" lon="5.62343">
        <ele>1636</ele>
        <time>2010-06-06T10:11:00Z</time>
      </trkpt>
      <trkpt lat="45.11769" lon="5.62343">
        <ele>1636</ele>
        <time>2010-06-06T10:11:01Z</time>
      </trkpt>
      <trkpt lat="45.11773" lon="5.62343">
        <ele>1636</ele>
        <time>2010-06-06T10:11:02Z</time>
      </trkpt>
      <trkpt lat="45.11776" lon="5.62343">
        <ele>1636</ele>
        <time>2010-06-06T10:11:03Z</time>
      </trkpt>
      <trkpt lat="45.11779" lon="5.62343">
        <ele>1636</ele>
        <time>2010-06-06T10:11:04Z</time>
      </trkpt>
      <trkpt lat="45.11782" lon="5.62343">
        <ele>1636</ele>
        <time>2010-06-06T10:11:05Z</time>
      </trkpt>
      <trkpt lat="45.11785" lon="5.62344">
        <ele>1636</ele>
        <time>2010-06-06T10:11:06Z</time>
      </trkpt>
      <trkpt lat="45.11788" lon="5.62344">
        <ele>1636</ele>
        <time>2010-06-06T10:11:07Z</time>
      </trkpt>
      <trkpt lat="45.11791" lon="5.62344">
        <ele>1636</ele>
        <time>2010-06-06T10:11:08Z</time>
      </trkpt>
      <trkpt lat="45.11795" lon="5.62345">
        <ele>1636</ele>
        <time>2010-06-06T10:11:09Z</time>
      </trkpt>
      <trkpt lat="45.11798" lon="5.62345">
        <ele>1636</ele>
        <time>2010-06-06T10:11:10Z</time>
      </trkpt>
      <trkpt lat="45.11801" lon="5.62346">
        <ele>1636</ele>
        <time>2010-06-06T10:11:11Z</time>
      </trkpt>
      <trkpt lat="45.11804" lon="5.62346">
        <ele>1636</ele>
        <time>2010-06-06T10:11:12Z</time>
      </trkpt>
      <trkpt lat="45.11807" lon="5.62346">
        <ele>1636</ele>
        <time>2010-06-06T10:11:13Z</time>
      </trkpt>
      <trkpt lat="45.11809" lon="5.62346">
        <ele>1636</ele>
        <time>2010-06-06T10:11:14Z</time>
      </trkpt>
      <trkpt lat="45.11812" lon="5.62347">
        <ele>1636</ele>
        <time>2010-06-06T10:11:15Z</time>
      </trkpt>
      <trkpt lat="45.11814" lon="5.62347">
        <ele>1636</ele>
        <time>2010-06-06T10:11:16Z</time>
      </trkpt>
      <trkpt lat="45.11817" lon="5.62347">
        <ele>1636</ele>
        <time>2010-06-06T10:11:17Z</time>
      </trkpt>
      <trkpt lat="45.1182" lon="5.62347">
        <ele>1636</ele>
        <time>2010-06-06T10:11:18Z</time>
      </trkpt>
      <trkpt lat="45.11823" lon="5.62347">
        <ele>1636</ele>
        <time>2010-06-06T10:11:19Z</time>
      </trkpt>
      <trkpt lat="45.11826" lon="5.62348">
        <ele>1636</ele>
        <time>2010-06-06T10:11:20Z</time>
      </trkpt>
      <trkpt lat="45.11828" lon="5.62348">
        <ele>1636</ele>
        <time>2010-06-06T10:11:21Z</time>
      </trkpt>
      <trkpt lat="45.1183" lon="5.62349">
        <ele>1636</ele>
        <time>2010-06-06T10:11:22Z</time>
      </trkpt>
      <trkpt lat="45.11833" lon="5.6235">
        <ele>1636</ele>
        <time>2010-06-06T10:11:23Z</time>
      </trkpt>
      <trkpt lat="45.11835" lon="5.62351">
        <ele>1636</ele>
        <time>2010-06-06T10:11:24Z</time>
      </trkpt>
      <trkpt lat="45.11837" lon="5.62352">
        <ele>1637</ele>
        <time>2010-06-06T10:11:25Z</time>
      </trkpt>
      <trkpt lat="45.1184" lon="5.62352">
        <ele>1637</ele>
        <time>2010-06-06T10:11:26Z</time>
      </trkpt>
      <trkpt lat="45.11842" lon="5.62352">
        <ele>1638</ele>
        <time>2010-06-06T10:11:27Z</time>
      </trkpt>
      <trkpt lat="45.11845" lon="5.62352">
        <ele>1638</ele>
        <time>2010-06-06T10:11:28Z</time>
      </trkpt>
      <trkpt lat="45.11848" lon="5.62352">
        <ele>1639</ele>
        <time>2010-06-06T10:11:29Z</time>
      </trkpt>
      <trkpt lat="45.11851" lon="5.62353">
        <ele>1639</ele>
        <time>2010-06-06T10:11:30Z</time>
      </trkpt>
      <trkpt lat="45.11853" lon="5.62352">
        <ele>1640</ele>
        <time>2010-06-06T10:11:31Z</time>
      </trkpt>
      <trkpt lat="45.11856" lon="5.62352">
        <ele>1640</ele>
        <time>2010-06-06T10:11:32Z</time>
      </trkpt>
      <trkpt lat="45.11859" lon="5.62352">
        <ele>1640</ele>
        <time>2010-06-06T10:11:33Z</time>
      </trkpt>
      <trkpt lat="45.11862" lon="5.62352">
        <ele>1640</ele>
        <time>2010-06-06T10:11:34Z</time>
      </trkpt>
      <trkpt lat="45.11865" lon="5.62352">
        <ele>1641</ele>
        <time>2010-06-06T10:11:35Z</time>
      </trkpt>
      <trkpt lat="45.11868" lon="5.62351">
        <ele>1641</ele>
        <time>2010-06-06T10:11:36Z</time>
      </trkpt>
      <trkpt lat="45.11871" lon="5.62351">
        <ele>1641</ele>
        <time>2010-06-06T10:11:37Z</time>
      </trkpt>
      <trkpt lat="45.11875" lon="5.62352">
        <ele>1641</ele>
        <time>2010-06-06T10:11:38Z</time>
      </trkpt>
      <trkpt lat="45.11877" lon="5.62353">
        <ele>1641</ele>
        <time>2010-06-06T10:11:39Z</time>
      </trkpt>
      <trkpt lat="45.1188" lon="5.62353">
        <ele>1641</ele>
        <time>2010-06-06T10:11:40Z</time>
      </trkpt>
      <trkpt lat="45.11882" lon="5.62353">
        <ele>1641</ele>
        <time>2010-06-06T10:11:41Z</time>
      </trkpt>
      <trkpt lat="45.11886" lon="5.62353">
        <ele>1641</ele>
        <time>2010-06-06T10:11:42Z</time>
      </trkpt>
      <trkpt lat="45.1189" lon="5.62353">
        <ele>1641</ele>
        <time>2010-06-06T10:11:43Z</time>
      </trkpt>
      <trkpt lat="45.11893" lon="5.62353">
        <ele>1641</ele>
        <time>2010-06-06T10:11:44Z</time>
      </trkpt>
      <trkpt lat="45.11897" lon="5.62352">
        <ele>1641</ele>
        <time>2010-06-06T10:11:45Z</time>
      </trkpt>
      <trkpt lat="45.119" lon="5.62351">
        <ele>1641</ele>
        <time>2010-06-06T10:11:46Z</time>
      </trkpt>
      <trkpt lat="45.11904" lon="5.6235">
        <ele>1641</ele>
        <time>2010-06-06T10:11:47Z</time>
      </trkpt>
      <trkpt lat="45.11908" lon="5.6235">
        <ele>1641</ele>
        <time>2010-06-06T10:11:48Z</time>
      </trkpt>
      <trkpt lat="45.11912" lon="5.6235">
        <ele>1641</ele>
        <time>2010-06-06T10:11:49Z</time>
      </trkpt>
      <trkpt lat="45.11915" lon="5.6235">
        <ele>1641</ele>
        <time>2010-06-06T10:11:50Z</time>
      </trkpt>
      <trkpt lat="45.11918" lon="5.62349">
        <ele>1641</ele>
        <time>2010-06-06T10:11:51Z</time>
      </trkpt>
      <trkpt lat="45.11921" lon="5.62349">
        <ele>1640</ele>
        <time>2010-06-06T10:11:52Z</time>
      </trkpt>
      <trkpt lat="45.11924" lon="5.62349">
        <ele>1640</ele>
        <time>2010-06-06T10:11:53Z</time>
      </trkpt>
      <trkpt lat="45.11928" lon="5.62349">
        <ele>1640</ele>
        <time>2010-06-06T10:11:54Z</time>
      </trkpt>
      <trkpt lat="45.11931" lon="5.62348">
        <ele>1640</ele>
        <time>2010-06-06T10:11:55Z</time>
      </trkpt>
      <trkpt lat="45.11935" lon="5.62348">
        <ele>1639</ele>
        <time>2010-06-06T10:11:56Z</time>
      </trkpt>
      <trkpt lat="45.11939" lon="5.62348">
        <ele>1639</ele>
        <time>2010-06-06T10:11:57Z</time>
      </trkpt>
      <trkpt lat="45.11942" lon="5.62348">
        <ele>1639</ele>
        <time>2010-06-06T10:11:58Z</time>
      </trkpt>
      <trkpt lat="45.11946" lon="5.62347">
        <ele>1638</ele>
        <time>2010-06-06T10:11:59Z</time>
      </trkpt>
      <trkpt lat="45.11949" lon="5.62347">
        <ele>1638</ele>
        <time>2010-06-06T10:12:00Z</time>
      </trkpt>
      <trkpt lat="45.11953" lon="5.62348">
        <ele>1637</ele>
        <time>2010-06-06T10:12:01Z</time>
      </trkpt>
      <trkpt lat="45.11957" lon="5.62348">
        <ele>1636</ele>
        <time>2010-06-06T10:12:02Z</time>
      </trkpt>
      <trkpt lat="45.1196" lon="5.62348">
        <ele>1635</ele>
        <time>2010-06-06T10:12:03Z</time>
      </trkpt>
      <trkpt lat="45.11964" lon="5.62348">
        <ele>1635</ele>
        <time>2010-06-06T10:12:04Z</time>
      </trkpt>
      <trkpt lat="45.11967" lon="5.62348">
        <ele>1634</ele>
        <time>2010-06-06T10:12:05Z</time>
      </trkpt>
      <trkpt lat="45.11971" lon="5.62347">
        <ele>1633</ele>
        <time>2010-06-06T10:12:06Z</time>
      </trkpt>
      <trkpt lat="45.11974" lon="5.62347">
        <ele>1632</ele>
        <time>2010-06-06T10:12:07Z</time>
      </trkpt>
      <trkpt lat="45.11977" lon="5.62346">
        <ele>1632</ele>
        <time>2010-06-06T10:12:08Z</time>
      </trkpt>
      <trkpt lat="45.11981" lon="5.62346">
        <ele>1631</ele>
        <time>2010-06-06T10:12:09Z</time>
      </trkpt>
      <trkpt lat="45.11985" lon="5.62345">
        <ele>1630</ele>
        <time>2010-06-06T10:12:10Z</time>
      </trkpt>
      <trkpt lat="45.11988" lon="5.62344">
        <ele>1630</ele>
        <time>2010-06-06T10:12:11Z</time>
      </trkpt>
      <trkpt lat="45.11992" lon="5.62344">
        <ele>1630</ele>
        <time>2010-06-06T10:12:12Z</time>
      </trkpt>
      <trkpt lat="45.11996" lon="5.62343">
        <ele>1629</ele>
        <time>2010-06-06T10:12:13Z</time>
      </trkpt>
      <trkpt lat="45.12" lon="5.62342">
        <ele>1629</ele>
        <time>2010-06-06T10:12:14Z</time>
      </trkpt>
      <trkpt lat="45.12003" lon="5.62342">
        <ele>1629</ele>
        <time>2010-06-06T10:12:15Z</time>
      </trkpt>
      <trkpt lat="45.12007" lon="5.62341">
        <ele>1629</ele>
        <time>2010-06-06T10:12:16Z</time>
      </trkpt>
      <trkpt lat="45.1201" lon="5.6234">
        <ele>1628</ele>
        <time>2010-06-06T10:12:17Z</time>
      </trkpt>
      <trkpt lat="45.12014" lon="5.62339">
        <ele>1628</ele>
        <time>2010-06-06T10:12:18Z</time>
      </trkpt>
      <trkpt lat="45.12017" lon="5.62339">
        <ele>1627</ele>
        <time>2010-06-06T10:12:19Z</time>
      </trkpt>
      <trkpt lat="45.1202" lon="5.62339">
        <ele>1627</ele>
        <time>2010-06-06T10:12:20Z</time>
      </trkpt>
      <trkpt lat="45.12024" lon="5.62338">
        <ele>1626</ele>
        <time>2010-06-06T10:12:21Z</time>
      </trkpt>
      <trkpt lat="45.12028" lon="5.62339">
        <ele>1626</ele>
        <time>2010-06-06T10:12:22Z</time>
      </trkpt>
      <trkpt lat="45.12032" lon="5.62339">
        <ele>1626</ele>
        <time>2010-06-06T10:12:23Z</time>
      </trkpt>
      <trkpt lat="45.12035" lon="5.62339">
        <ele>1626</ele>
        <time>2010-06-06T10:12:24Z</time>
      </trkpt>
      <trkpt lat="45.12039" lon="5.6234">
        <ele>1626</ele>
        <time>2010-06-06T10:12:25Z</time>
      </trkpt>
      <trkpt lat="45.12042" lon="5.6234">
        <ele>1626</ele>
        <time>2010-06-06T10:12:26Z</time>
      </trkpt>
      <trkpt lat="45.12045" lon="5.62341">
        <ele>1625</ele>
        <time>2010-06-06T10:12:27Z</time>
      </trkpt>
      <trkpt lat="45.12048" lon="5.62342">
        <ele>1625</ele>
        <time>2010-06-06T10:12:28Z</time>
      </trkpt>
      <trkpt lat="45.12051" lon="5.62341">
        <ele>1625</ele>
        <time>2010-06-06T10:12:29Z</time>
      </trkpt>
      <trkpt lat="45.12055" lon="5.6234">
        <ele>1624</ele>
        <time>2010-06-06T10:12:30Z</time>
      </trkpt>
      <trkpt lat="45.12059" lon="5.6234">
        <ele>1623</ele>
        <time>2010-06-06T10:12:31Z</time>
      </trkpt>
      <trkpt lat="45.12062" lon="5.62339">
        <ele>1623</ele>
        <time>2010-06-06T10:12:32Z</time>
      </trkpt>
      <trkpt lat="45.12066" lon="5.62338">
        <ele>1622</ele>
        <time>2010-06-06T10:12:33Z</time>
      </trkpt>
      <trkpt lat="45.1207" lon="5.62337">
        <ele>1622</ele>
        <time>2010-06-06T10:12:34Z</time>
      </trkpt>
      <trkpt lat="45.12074" lon="5.62337">
        <ele>1621</ele>
        <time>2010-06-06T10:12:35Z</time>
      </trkpt>
      <trkpt lat="45.12078" lon="5.62337">
        <ele>1621</ele>
        <time>2010-06-06T10:12:36Z</time>
      </trkpt>
      <trkpt lat="45.12082" lon="5.62338">
        <ele>1620</ele>
        <time>2010-06-06T10:12:37Z</time>
      </trkpt>
      <trkpt lat="45.12085" lon="5.62338">
        <ele>1620</ele>
        <time>2010-06-06T10:12:38Z</time>
      </trkpt>
      <trkpt lat="45.12089" lon="5.62339">
        <ele>1619</ele>
        <time>2010-06-06T10:12:39Z</time>
      </trkpt>
      <trkpt lat="45.12092" lon="5.6234">
        <ele>1618</ele>
        <time>2010-06-06T10:12:40Z</time>
      </trkpt>
      <trkpt lat="45.12095" lon="5.6234">
        <ele>1618</ele>
        <time>2010-06-06T10:12:41Z</time>
      </trkpt>
      <trkpt lat="45.12099" lon="5.62342">
        <ele>1617</ele>
        <time>2010-06-06T10:12:42Z</time>
      </trkpt>
      <trkpt lat="45.12103" lon="5.62343">
        <ele>1616</ele>
        <time>2010-06-06T10:12:43Z</time>
      </trkpt>
      <trkpt lat="45.12107" lon="5.62345">
        <ele>1616</ele>
        <time>2010-06-06T10:12:44Z</time>
      </trkpt>
      <trkpt lat="45.1211" lon="5.62347">
        <ele>1615</ele>
        <time>2010-06-06T10:12:45Z</time>
      </trkpt>
      <trkpt lat="45.12114" lon="5.62347">
        <ele>1615</ele>
        <time>2010-06-06T10:12:46Z</time>
      </trkpt>
      <trkpt lat="45.12118" lon="5.62347">
        <ele>1614</ele>
        <time>2010-06-06T10:12:47Z</time>
      </trkpt>
      <trkpt lat="45.12121" lon="5.62346">
        <ele>1614</ele>
        <time>2010-06-06T10:12:48Z</time>
      </trkpt>
      <trkpt lat="45.12125" lon="5.62345">
        <ele>1614</ele>
        <time>2010-06-06T10:12:49Z</time>
      </trkpt>
      <trkpt lat="45.12128" lon="5.62344">
        <ele>1614</ele>
        <time>2010-06-06T10:12:50Z</time>
      </trkpt>
      <trkpt lat="45.12132" lon="5.62343">
        <ele>1614</ele>
        <time>2010-06-06T10:12:51Z</time>
      </trkpt>
      <trkpt lat="45.12136" lon="5.62343">
        <ele>1614</ele>
        <time>2010-06-06T10:12:52Z</time>
      </trkpt>
      <trkpt lat="45.12139" lon="5.62344">
        <ele>1614</ele>
        <time>2010-06-06T10:12:53Z</time>
      </trkpt>
      <trkpt lat="45.12143" lon="5.62345">
        <ele>1614</ele>
        <time>2010-06-06T10:12:54Z</time>
      </trkpt>
      <trkpt lat="45.12146" lon="5.62347">
        <ele>1614</ele>
        <time>2010-06-06T10:12:55Z</time>
      </trkpt>
      <trkpt lat="45.1215" lon="5.62348">
        <ele>1614</ele>
        <time>2010-06-06T10:12:56Z</time>
      </trkpt>
      <trkpt lat="45.12153" lon="5.6235">
        <ele>1614</ele>
        <time>2010-06-06T10:12:57Z</time>
      </trkpt>
      <trkpt lat="45.12157" lon="5.62351">
        <ele>1613</ele>
        <time>2010-06-06T10:12:58Z</time>
      </trkpt>
      <trkpt lat="45.12161" lon="5.62352">
        <ele>1613</ele>
        <time>2010-06-06T10:12:59Z</time>
      </trkpt>
      <trkpt lat="45.12165" lon="5.62352">
        <ele>1612</ele>
        <time>2010-06-06T10:13:00Z</time>
      </trkpt>
      <trkpt lat="45.12169" lon="5.62352">
        <ele>1611</ele>
        <time>2010-06-06T10:13:01Z</time>
      </trkpt>
      <trkpt lat="45.12172" lon="5.62352">
        <ele>1610</ele>
        <time>2010-06-06T10:13:02Z</time>
      </trkpt>
      <trkpt lat="45.12176" lon="5.62352">
        <ele>1610</ele>
        <time>2010-06-06T10:13:03Z</time>
      </trkpt>
      <trkpt lat="45.1218" lon="5.62351">
        <ele>1609</ele>
        <time>2010-06-06T10:13:04Z</time>
      </trkpt>
      <trkpt lat="45.12184" lon="5.6235">
        <ele>1608</ele>
        <time>2010-06-06T10:13:05Z</time>
      </trkpt>
      <trkpt lat="45.12187" lon="5.62348">
        <ele>1607</ele>
        <time>2010-06-06T10:13:06Z</time>
      </trkpt>
      <trkpt lat="45.12191" lon="5.62346">
        <ele>1606</ele>
        <time>2010-06-06T10:13:07Z</time>
      </trkpt>
      <trkpt lat="45.12195" lon="5.62345">
        <ele>1605</ele>
        <time>2010-06-06T10:13:08Z</time>
      </trkpt>
      <trkpt lat="45.12199" lon="5.62344">
        <ele>1605</ele>
        <time>2010-06-06T10:13:09Z</time>
      </trkpt>
      <trkpt lat="45.12203" lon="5.62343">
        <ele>1604</ele>
        <time>2010-06-06T10:13:10Z</time>
      </trkpt>
      <trkpt lat="45.12207" lon="5.62343">
        <ele>1603</ele>
        <time>2010-06-06T10:13:11Z</time>
      </trkpt>
      <trkpt lat="45.1221" lon="5.62343">
        <ele>1602</ele>
        <time>2010-06-06T10:13:12Z</time>
      </trkpt>
      <trkpt lat="45.12214" lon="5.62343">
        <ele>1601</ele>
        <time>2010-06-06T10:13:13Z</time>
      </trkpt>
      <trkpt lat="45.12217" lon="5.62342">
        <ele>1601</ele>
        <time>2010-06-06T10:13:14Z</time>
      </trkpt>
      <trkpt lat="45.12221" lon="5.62343">
        <ele>1600</ele>
        <time>2010-06-06T10:13:15Z</time>
      </trkpt>
      <trkpt lat="45.12224" lon="5.62342">
        <ele>1599</ele>
        <time>2010-06-06T10:13:16Z</time>
      </trkpt>
      <trkpt lat="45.12227" lon="5.62342">
        <ele>1599</ele>
        <time>2010-06-06T10:13:17Z</time>
      </trkpt>
      <trkpt lat="45.12231" lon="5.62341">
        <ele>1599</ele>
        <time>2010-06-06T10:13:18Z</time>
      </trkpt>
      <trkpt lat="45.12234" lon="5.6234">
        <ele>1599</ele>
        <time>2010-06-06T10:13:19Z</time>
      </trkpt>
      <trkpt lat="45.12238" lon="5.62339">
        <ele>1598</ele>
        <time>2010-06-06T10:13:20Z</time>
      </trkpt>
      <trkpt lat="45.12241" lon="5.62338">
        <ele>1598</ele>
        <time>2010-06-06T10:13:21Z</time>
      </trkpt>
      <trkpt lat="45.12245" lon="5.62337">
        <ele>1597</ele>
        <time>2010-06-06T10:13:22Z</time>
      </trkpt>
      <trkpt lat="45.1225" lon="5.62336">
        <ele>1597</ele>
        <time>2010-06-06T10:13:23Z</time>
      </trkpt>
      <trkpt lat="45.12253" lon="5.62335">
        <ele>1597</ele>
        <time>2010-06-06T10:13:24Z</time>
      </trkpt>
      <trkpt lat="45.12257" lon="5.62334">
        <ele>1597</ele>
        <time>2010-06-06T10:13:25Z</time>
      </trkpt>
      <trkpt lat="45.12261" lon="5.62332">
        <ele>1596</ele>
        <time>2010-06-06T10:13:26Z</time>
      </trkpt>
      <trkpt lat="45.12264" lon="5.6233">
        <ele>1596</ele>
        <time>2010-06-06T10:13:27Z</time>
      </trkpt>
      <trkpt lat="45.12268" lon="5.62328">
        <ele>1596</ele>
        <time>2010-06-06T10:13:28Z</time>
      </trkpt>
      <trkpt lat="45.1227" lon="5.62325">
        <ele>1595</ele>
        <time>2010-06-06T10:13:29Z</time>
      </trkpt>
      <trkpt lat="45.12273" lon="5.62323">
        <ele>1595</ele>
        <time>2010-06-06T10:13:30Z</time>
      </trkpt>
      <trkpt lat="45.12275" lon="5.6232">
        <ele>1594</ele>
        <time>2010-06-06T10:13:31Z</time>
      </trkpt>
      <trkpt lat="45.12277" lon="5.62317">
        <ele>1594</ele>
        <time>2010-06-06T10:13:32Z</time>
      </trkpt>
      <trkpt lat="45.1228" lon="5.62314">
        <ele>1593</ele>
        <time>2010-06-06T10:13:33Z</time>
      </trkpt>
      <trkpt lat="45.12283" lon="5.62311">
        <ele>1592</ele>
        <time>2010-06-06T10:13:34Z</time>
      </trkpt>
      <trkpt lat="45.12286" lon="5.62309">
        <ele>1591</ele>
        <time>2010-06-06T10:13:35Z</time>
      </trkpt>
      <trkpt lat="45.12288" lon="5.62308">
        <ele>1591</ele>
        <time>2010-06-06T10:13:36Z</time>
      </trkpt>
      <trkpt lat="45.12291" lon="5.62306">
        <ele>1590</ele>
        <time>2010-06-06T10:13:37Z</time>
      </trkpt>
      <trkpt lat="45.12294" lon="5.62304">
        <ele>1589</ele>
        <time>2010-06-06T10:13:38Z</time>
      </trkpt>
      <trkpt lat="45.12297" lon="5.62303">
        <ele>1588</ele>
        <time>2010-06-06T10:13:39Z</time>
      </trkpt>
      <trkpt lat="45.123" lon="5.62301">
        <ele>1587</ele>
        <time>2010-06-06T10:13:40Z</time>
      </trkpt>
      <trkpt lat="45.12303" lon="5.62299">
        <ele>1586</ele>
        <time>2010-06-06T10:13:41Z</time>
      </trkpt>
      <trkpt lat="45.12307" lon="5.62299">
        <ele>1585</ele>
        <time>2010-06-06T10:13:42Z</time>
      </trkpt>
      <trkpt lat="45.1231" lon="5.62297">
        <ele>1584</ele>
        <time>2010-06-06T10:13:43Z</time>
      </trkpt>
      <trkpt lat="45.12314" lon="5.62297">
        <ele>1583</ele>
        <time>2010-06-06T10:13:44Z</time>
      </trkpt>
      <trkpt lat="45.12317" lon="5.62298">
        <ele>1582</ele>
        <time>2010-06-06T10:13:45Z</time>
      </trkpt>
      <trkpt lat="45.1232" lon="5.62299">
        <ele>1582</ele>
        <time>2010-06-06T10:13:46Z</time>
      </trkpt>
      <trkpt lat="45.12323" lon="5.623">
        <ele>1581</ele>
        <time>2010-06-06T10:13:47Z</time>
      </trkpt>
      <trkpt lat="45.12326" lon="5.62301">
        <ele>1581</ele>
        <time>2010-06-06T10:13:48Z</time>
      </trkpt>
      <trkpt lat="45.12329" lon="5.62303">
        <ele>1581</ele>
        <time>2010-06-06T10:13:49Z</time>
      </trkpt>
      <trkpt lat="45.12332" lon="5.62304">
        <ele>1580</ele>
        <time>2010-06-06T10:13:50Z</time>
      </trkpt>
      <trkpt lat="45.12335" lon="5.62304">
        <ele>1580</ele>
        <time>2010-06-06T10:13:51Z</time>
      </trkpt>
      <trkpt lat="45.12339" lon="5.62303">
        <ele>1580</ele>
        <time>2010-06-06T10:13:52Z</time>
      </trkpt>
      <trkpt lat="45.12342" lon="5.62302">
        <ele>1580</ele>
        <time>2010-06-06T10:13:53Z</time>
      </trkpt>
      <trkpt lat="45.12344" lon="5.62301">
        <ele>1580</ele>
        <time>2010-06-06T10:13:54Z</time>
      </trkpt>
      <trkpt lat="45.12347" lon="5.62299">
        <ele>1580</ele>
        <time>2010-06-06T10:13:55Z</time>
      </trkpt>
      <trkpt lat="45.12349" lon="5.62298">
        <ele>1580</ele>
        <time>2010-06-06T10:13:56Z</time>
      </trkpt>
      <trkpt lat="45.12352" lon="5.62297">
        <ele>1580</ele>
        <time>2010-06-06T10:13:57Z</time>
      </trkpt>
      <trkpt lat="45.12355" lon="5.62296">
        <ele>1580</ele>
        <time>2010-06-06T10:13:58Z</time>
      </trkpt>
      <trkpt lat="45.12357" lon="5.62296">
        <ele>1580</ele>
        <time>2010-06-06T10:13:59Z</time>
      </trkpt>
      <trkpt lat="45.12359" lon="5.62295">
        <ele>1580</ele>
        <time>2010-06-06T10:14:00Z</time>
      </trkpt>
      <trkpt lat="45.12362" lon="5.62294">
        <ele>1580</ele>
        <time>2010-06-06T10:14:01Z</time>
      </trkpt>
      <trkpt lat="45.12364" lon="5.62293">
        <ele>1580</ele>
        <time>2010-06-06T10:14:02Z</time>
      </trkpt>
      <trkpt lat="45.12367" lon="5.62292">
        <ele>1580</ele>
        <time>2010-06-06T10:14:03Z</time>
      </trkpt>
      <trkpt lat="45.1237" lon="5.62292">
        <ele>1580</ele>
        <time>2010-06-06T10:14:04Z</time>
      </trkpt>
      <trkpt lat="45.12373" lon="5.62291">
        <ele>1580</ele>
        <time>2010-06-06T10:14:05Z</time>
      </trkpt>
      <trkpt lat="45.12376" lon="5.6229">
        <ele>1580</ele>
        <time>2010-06-06T10:14:06Z</time>
      </trkpt>
      <trkpt lat="45.12378" lon="5.62289">
        <ele>1581</ele>
        <time>2010-06-06T10:14:07Z</time>
      </trkpt>
      <trkpt lat="45.12381" lon="5.62287">
        <ele>1581</ele>
        <time>2010-06-06T10:14:08Z</time>
      </trkpt>
      <trkpt lat="45.12384" lon="5.62286">
        <ele>1581</ele>
        <time>2010-06-06T10:14:09Z</time>
      </trkpt>
      <trkpt lat="45.12387" lon="5.62285">
        <ele>1581</ele>
        <time>2010-06-06T10:14:10Z</time>
      </trkpt>
      <trkpt lat="45.1239" lon="5.62283">
        <ele>1581</ele>
        <time>2010-06-06T10:14:11Z</time>
      </trkpt>
      <trkpt lat="45.12393" lon="5.62281">
        <ele>1582</ele>
        <time>2010-06-06T10:14:12Z</time>
      </trkpt>
      <trkpt lat="45.12396" lon="5.6228">
        <ele>1582</ele>
        <time>2010-06-06T10:14:13Z</time>
      </trkpt>
      <trkpt lat="45.12399" lon="5.62279">
        <ele>1582</ele>
        <time>2010-06-06T10:14:14Z</time>
      </trkpt>
      <trkpt lat="45.12402" lon="5.62279">
        <ele>1582</ele>
        <time>2010-06-06T10:14:15Z</time>
      </trkpt>
      <trkpt lat="45.12405" lon="5.62279">
        <ele>1582</ele>
        <time>2010-06-06T10:14:16Z</time>
      </trkpt>
      <trkpt lat="45.12408" lon="5.62279">
        <ele>1582</ele>
        <time>2010-06-06T10:14:17Z</time>
      </trkpt>
      <trkpt lat="45.12411" lon="5.6228">
        <ele>1582</ele>
        <time>2010-06-06T10:14:18Z</time>
      </trkpt>
      <trkpt lat="45.12414" lon="5.62282">
        <ele>1582</ele>
        <time>2010-06-06T10:14:19Z</time>
      </trkpt>
      <trkpt lat="45.12417" lon="5.62283">
        <ele>1582</ele>
        <time>2010-06-06T10:14:20Z</time>
      </trkpt>
      <trkpt lat="45.12419" lon="5.62284">
        <ele>1583</ele>
        <time>2010-06-06T10:14:21Z</time>
      </trkpt>
      <trkpt lat="45.12422" lon="5.62285">
        <ele>1583</ele>
        <time>2010-06-06T10:14:22Z</time>
      </trkpt>
      <trkpt lat="45.12425" lon="5.62286">
        <ele>1584</ele>
        <time>2010-06-06T10:14:23Z</time>
      </trkpt>
      <trkpt lat="45.12427" lon="5.62287">
        <ele>1584</ele>
        <time>2010-06-06T10:14:24Z</time>
      </trkpt>
      <trkpt lat="45.12429" lon="5.62288">
        <ele>1585</ele>
        <time>2010-06-06T10:14:25Z</time>
      </trkpt>
      <trkpt lat="45.12432" lon="5.62289">
        <ele>1585</ele>
        <time>2010-06-06T10:14:26Z</time>
      </trkpt>
      <trkpt lat="45.12434" lon="5.6229">
        <ele>1586</ele>
        <time>2010-06-06T10:14:27Z</time>
      </trkpt>
      <trkpt lat="45.12437" lon="5.62292">
        <ele>1587</ele>
        <time>2010-06-06T10:14:28Z</time>
      </trkpt>
      <trkpt lat="45.12439" lon="5.62293">
        <ele>1587</ele>
        <time>2010-06-06T10:14:29Z</time>
      </trkpt>
      <trkpt lat="45.12441" lon="5.62294">
        <ele>1588</ele>
        <time>2010-06-06T10:14:30Z</time>
      </trkpt>
      <trkpt lat="45.12443" lon="5.62296">
        <ele>1589</ele>
        <time>2010-06-06T10:14:31Z</time>
      </trkpt>
      <trkpt lat="45.12445" lon="5.62297">
        <ele>1589</ele>
        <time>2010-06-06T10:14:32Z</time>
      </trkpt>
      <trkpt lat="45.12446" lon="5.62298">
        <ele>1590</ele>
        <time>2010-06-06T10:14:33Z</time>
      </trkpt>
      <trkpt lat="45.12448" lon="5.62299">
        <ele>1591</ele>
        <time>2010-06-06T10:14:34Z</time>
      </trkpt>
      <trkpt lat="45.1245" lon="5.623">
        <ele>1591</ele>
        <time>2010-06-06T10:14:35Z</time>
      </trkpt>
      <trkpt lat="45.12452" lon="5.62302">
        <ele>1591</ele>
        <time>2010-06-06T10:14:36Z</time>
      </trkpt>
      <trkpt lat="45.12455" lon="5.62304">
        <ele>1592</ele>
        <time>2010-06-06T10:14:37Z</time>
      </trkpt>
      <trkpt lat="45.12456" lon="5.62305">
        <ele>1592</ele>
        <time>2010-06-06T10:14:38Z</time>
      </trkpt>
      <trkpt lat="45.12458" lon="5.62306">
        <ele>1592</ele>
        <time>2010-06-06T10:14:39Z</time>
      </trkpt>
      <trkpt lat="45.1246" lon="5.62308">
        <ele>1593</ele>
        <time>2010-06-06T10:14:40Z</time>
      </trkpt>
      <trkpt lat="45.12462" lon="5.6231">
        <ele>1593</ele>
        <time>2010-06-06T10:14:41Z</time>
      </trkpt>
      <trkpt lat="45.12464" lon="5.62311">
        <ele>1594</ele>
        <time>2010-06-06T10:14:42Z</time>
      </trkpt>
      <trkpt lat="45.12467" lon="5.62313">
        <ele>1594</ele>
        <time>2010-06-06T10:14:43Z</time>
      </trkpt>
      <trkpt lat="45.12469" lon="5.62314">
        <ele>1595</ele>
        <time>2010-06-06T10:14:44Z</time>
      </trkpt>
      <trkpt lat="45.12472" lon="5.62315">
        <ele>1596</ele>
        <time>2010-06-06T10:14:45Z</time>
      </trkpt>
      <trkpt lat="45.12475" lon="5.62316">
        <ele>1596</ele>
        <time>2010-06-06T10:14:46Z</time>
      </trkpt>
      <trkpt lat="45.12478" lon="5.62318">
        <ele>1597</ele>
        <time>2010-06-06T10:14:47Z</time>
      </trkpt>
      <trkpt lat="45.1248" lon="5.62318">
        <ele>1597</ele>
        <time>2010-06-06T10:14:48Z</time>
      </trkpt>
      <trkpt lat="45.12483" lon="5.62319">
        <ele>1598</ele>
        <time>2010-06-06T10:14:49Z</time>
      </trkpt>
      <trkpt lat="45.12486" lon="5.6232">
        <ele>1598</ele>
        <time>2010-06-06T10:14:50Z</time>
      </trkpt>
      <trkpt lat="45.12489" lon="5.62321">
        <ele>1599</ele>
        <time>2010-06-06T10:14:51Z</time>
      </trkpt>
      <trkpt lat="45.12492" lon="5.62321">
        <ele>1599</ele>
        <time>2010-06-06T10:14:52Z</time>
      </trkpt>
      <trkpt lat="45.12494" lon="5.62322">
        <ele>1599</ele>
        <time>2010-06-06T10:14:53Z</time>
      </trkpt>
      <trkpt lat="45.12497" lon="5.62322">
        <ele>1600</ele>
        <time>2010-06-06T10:14:54Z</time>
      </trkpt>
      <trkpt lat="45.125" lon="5.62322">
        <ele>1601</ele>
        <time>2010-06-06T10:14:55Z</time>
      </trkpt>
      <trkpt lat="45.12502" lon="5.62323">
        <ele>1601</ele>
        <time>2010-06-06T10:14:56Z</time>
      </trkpt>
      <trkpt lat="45.12504" lon="5.62324">
        <ele>1602</ele>
        <time>2010-06-06T10:14:57Z</time>
      </trkpt>
      <trkpt lat="45.12506" lon="5.62325">
        <ele>1602</ele>
        <time>2010-06-06T10:14:58Z</time>
      </trkpt>
      <trkpt lat="45.12507" lon="5.62326">
        <ele>1602</ele>
        <time>2010-06-06T10:14:59Z</time>
      </trkpt>
      <trkpt lat="45.12509" lon="5.62327">
        <ele>1602</ele>
        <time>2010-06-06T10:15:00Z</time>
      </trkpt>
      <trkpt lat="45.12511" lon="5.62329">
        <ele>1602</ele>
        <time>2010-06-06T10:15:02Z</time>
      </trkpt>
      <trkpt lat="45.12512" lon="5.62329">
        <ele>1602</ele>
        <time>2010-06-06T10:15:03Z</time>
      </trkpt>
      <trkpt lat="45.12514" lon="5.62329">
        <ele>1603</ele>
        <time>2010-06-06T10:15:04Z</time>
      </trkpt>
      <trkpt lat="45.12515" lon="5.62329">
        <ele>1603</ele>
        <time>2010-06-06T10:15:05Z</time>
      </trkpt>
      <trkpt lat="45.12517" lon="5.62329">
        <ele>1603</ele>
        <time>2010-06-06T10:15:07Z</time>
      </trkpt>
      <trkpt lat="45.12519" lon="5.62329">
        <ele>1603</ele>
        <time>2010-06-06T10:15:08Z</time>
      </trkpt>
      <trkpt lat="45.1252" lon="5.6233">
        <ele>1603</ele>
        <time>2010-06-06T10:15:09Z</time>
      </trkpt>
      <trkpt lat="45.12522" lon="5.6233">
        <ele>1603</ele>
        <time>2010-06-06T10:15:10Z</time>
      </trkpt>
      <trkpt lat="45.12524" lon="5.62331">
        <ele>1603</ele>
        <time>2010-06-06T10:15:11Z</time>
      </trkpt>
      <trkpt lat="45.12527" lon="5.62332">
        <ele>1603</ele>
        <time>2010-06-06T10:15:12Z</time>
      </trkpt>
      <trkpt lat="45.12529" lon="5.62333">
        <ele>1603</ele>
        <time>2010-06-06T10:15:13Z</time>
      </trkpt>
      <trkpt lat="45.12531" lon="5.62335">
        <ele>1603</ele>
        <time>2010-06-06T10:15:14Z</time>
      </trkpt>
      <trkpt lat="45.12533" lon="5.62336">
        <ele>1603</ele>
        <time>2010-06-06T10:15:15Z</time>
      </trkpt>
      <trkpt lat="45.12534" lon="5.62338">
        <ele>1603</ele>
        <time>2010-06-06T10:15:16Z</time>
      </trkpt>
      <trkpt lat="45.12536" lon="5.62339">
        <ele>1604</ele>
        <time>2010-06-06T10:15:17Z</time>
      </trkpt>
      <trkpt lat="45.12538" lon="5.6234">
        <ele>1604</ele>
        <time>2010-06-06T10:15:18Z</time>
      </trkpt>
      <trkpt lat="45.1254" lon="5.62341">
        <ele>1604</ele>
        <time>2010-06-06T10:15:19Z</time>
      </trkpt>
      <trkpt lat="45.12543" lon="5.62341">
        <ele>1604</ele>
        <time>2010-06-06T10:15:20Z</time>
      </trkpt>
      <trkpt lat="45.12544" lon="5.62341">
        <ele>1605</ele>
        <time>2010-06-06T10:15:21Z</time>
      </trkpt>
      <trkpt lat="45.12547" lon="5.62341">
        <ele>1605</ele>
        <time>2010-06-06T10:15:22Z</time>
      </trkpt>
      <trkpt lat="45.12549" lon="5.62341">
        <ele>1605</ele>
        <time>2010-06-06T10:15:23Z</time>
      </trkpt>
      <trkpt lat="45.12551" lon="5.62341">
        <ele>1606</ele>
        <time>2010-06-06T10:15:24Z</time>
      </trkpt>
      <trkpt lat="45.12553" lon="5.6234">
        <ele>1606</ele>
        <time>2010-06-06T10:15:25Z</time>
      </trkpt>
      <trkpt lat="45.12555" lon="5.62339">
        <ele>1606</ele>
        <time>2010-06-06T10:15:26Z</time>
      </trkpt>
      <trkpt lat="45.12557" lon="5.62337">
        <ele>1606</ele>
        <time>2010-06-06T10:15:27Z</time>
      </trkpt>
      <trkpt lat="45.12559" lon="5.62336">
        <ele>1606</ele>
        <time>2010-06-06T10:15:28Z</time>
      </trkpt>
      <trkpt lat="45.12562" lon="5.62335">
        <ele>1606</ele>
        <time>2010-06-06T10:15:29Z</time>
      </trkpt>
      <trkpt lat="45.12564" lon="5.62334">
        <ele>1607</ele>
        <time>2010-06-06T10:15:30Z</time>
      </trkpt>
      <trkpt lat="45.12566" lon="5.62333">
        <ele>1607</ele>
        <time>2010-06-06T10:15:31Z</time>
      </trkpt>
      <trkpt lat="45.12568" lon="5.62332">
        <ele>1607</ele>
        <time>2010-06-06T10:15:32Z</time>
      </trkpt>
      <trkpt lat="45.12571" lon="5.62332">
        <ele>1607</ele>
        <time>2010-06-06T10:15:33Z</time>
      </trkpt>
      <trkpt lat="45.12573" lon="5.62331">
        <ele>1607</ele>
        <time>2010-06-06T10:15:34Z</time>
      </trkpt>
      <trkpt lat="45.12574" lon="5.62331">
        <ele>1607</ele>
        <time>2010-06-06T10:15:35Z</time>
      </trkpt>
      <trkpt lat="45.12576" lon="5.62331">
        <ele>1607</ele>
        <time>2010-06-06T10:15:36Z</time>
      </trkpt>
      <trkpt lat="45.12577" lon="5.62331">
        <ele>1607</ele>
        <time>2010-06-06T10:15:37Z</time>
      </trkpt>
      <trkpt lat="45.12578" lon="5.6233">
        <ele>1607</ele>
        <time>2010-06-06T10:15:38Z</time>
      </trkpt>
      <trkpt lat="45.12579" lon="5.6233">
        <ele>1607</ele>
        <time>2010-06-06T10:15:39Z</time>
      </trkpt>
      <trkpt lat="45.12581" lon="5.6233">
        <ele>1607</ele>
        <time>2010-06-06T10:15:40Z</time>
      </trkpt>
      <trkpt lat="45.12582" lon="5.62329">
        <ele>1607</ele>
        <time>2010-06-06T10:15:41Z</time>
      </trkpt>
      <trkpt lat="45.12583" lon="5.62329">
        <ele>1607</ele>
        <time>2010-06-06T10:15:42Z</time>
      </trkpt>
      <trkpt lat="45.12585" lon="5.6233">
        <ele>1607</ele>
        <time>2010-06-06T10:15:43Z</time>
      </trkpt>
      <trkpt lat="45.12586" lon="5.6233">
        <ele>1607</ele>
        <time>2010-06-06T10:15:44Z</time>
      </trkpt>
      <trkpt lat="45.12588" lon="5.62331">
        <ele>1607</ele>
        <time>2010-06-06T10:15:45Z</time>
      </trkpt>
      <trkpt lat="45.12589" lon="5.62331">
        <ele>1607</ele>
        <time>2010-06-06T10:15:46Z</time>
      </trkpt>
      <trkpt lat="45.12591" lon="5.62332">
        <ele>1607</ele>
        <time>2010-06-06T10:15:47Z</time>
      </trkpt>
      <trkpt lat="45.12593" lon="5.62333">
        <ele>1607</ele>
        <time>2010-06-06T10:15:48Z</time>
      </trkpt>
      <trkpt lat="45.12594" lon="5.62333">
        <ele>1607</ele>
        <time>2010-06-06T10:15:49Z</time>
      </trkpt>
      <trkpt lat="45.12595" lon="5.62334">
        <ele>1608</ele>
        <time>2010-06-06T10:15:50Z</time>
      </trkpt>
      <trkpt lat="45.12597" lon="5.62333">
        <ele>1608</ele>
        <time>2010-06-06T10:15:51Z</time>
      </trkpt>
      <trkpt lat="45.12598" lon="5.62333">
        <ele>1608</ele>
        <time>2010-06-06T10:15:52Z</time>
      </trkpt>
      <trkpt lat="45.12599" lon="5.62333">
        <ele>1609</ele>
        <time>2010-06-06T10:15:53Z</time>
      </trkpt>
      <trkpt lat="45.126" lon="5.62333">
        <ele>1609</ele>
        <time>2010-06-06T10:15:54Z</time>
      </trkpt>
      <trkpt lat="45.12602" lon="5.62333">
        <ele>1609</ele>
        <time>2010-06-06T10:15:55Z</time>
      </trkpt>
      <trkpt lat="45.12603" lon="5.62333">
        <ele>1609</ele>
        <time>2010-06-06T10:15:56Z</time>
      </trkpt>
      <trkpt lat="45.12605" lon="5.62333">
        <ele>1609</ele>
        <time>2010-06-06T10:15:57Z</time>
      </trkpt>
      <trkpt lat="45.12607" lon="5.62333">
        <ele>1609</ele>
        <time>2010-06-06T10:15:58Z</time>
      </trkpt>
      <trkpt lat="45.12609" lon="5.62332">
        <ele>1609</ele>
        <time>2010-06-06T10:15:59Z</time>
      </trkpt>
      <trkpt lat="45.12612" lon="5.62332">
        <ele>1609</ele>
        <time>2010-06-06T10:16:00Z</time>
      </trkpt>
      <trkpt lat="45.12614" lon="5.62331">
        <ele>1610</ele>
        <time>2010-06-06T10:16:01Z</time>
      </trkpt>
      <trkpt lat="45.12617" lon="5.6233">
        <ele>1610</ele>
        <time>2010-06-06T10:16:02Z</time>
      </trkpt>
      <trkpt lat="45.1262" lon="5.62328">
        <ele>1610</ele>
        <time>2010-06-06T10:16:03Z</time>
      </trkpt>
      <trkpt lat="45.12623" lon="5.62327">
        <ele>1610</ele>
        <time>2010-06-06T10:16:04Z</time>
      </trkpt>
      <trkpt lat="45.12625" lon="5.62325">
        <ele>1611</ele>
        <time>2010-06-06T10:16:05Z</time>
      </trkpt>
      <trkpt lat="45.12627" lon="5.62324">
        <ele>1611</ele>
        <time>2010-06-06T10:16:06Z</time>
      </trkpt>
      <trkpt lat="45.1263" lon="5.62324">
        <ele>1611</ele>
        <time>2010-06-06T10:16:07Z</time>
      </trkpt>
      <trkpt lat="45.12632" lon="5.62323">
        <ele>1611</ele>
        <time>2010-06-06T10:16:08Z</time>
      </trkpt>
      <trkpt lat="45.12635" lon="5.62321">
        <ele>1612</ele>
        <time>2010-06-06T10:16:09Z</time>
      </trkpt>
      <trkpt lat="45.12637" lon="5.6232">
        <ele>1612</ele>
        <time>2010-06-06T10:16:10Z</time>
      </trkpt>
      <trkpt lat="45.12639" lon="5.6232">
        <ele>1612</ele>
        <time>2010-06-06T10:16:11Z</time>
      </trkpt>
      <trkpt lat="45.12641" lon="5.62319">
        <ele>1612</ele>
        <time>2010-06-06T10:16:12Z</time>
      </trkpt>
      <trkpt lat="45.12644" lon="5.62318">
        <ele>1612</ele>
        <time>2010-06-06T10:16:13Z</time>
      </trkpt>
      <trkpt lat="45.12646" lon="5.62316">
        <ele>1612</ele>
        <time>2010-06-06T10:16:14Z</time>
      </trkpt>
      <trkpt lat="45.12648" lon="5.62315">
        <ele>1612</ele>
        <time>2010-06-06T10:16:15Z</time>
      </trkpt>
      <trkpt lat="45.12651" lon="5.62313">
        <ele>1612</ele>
        <time>2010-06-06T10:16:16Z</time>
      </trkpt>
      <trkpt lat="45.12654" lon="5.62312">
        <ele>1612</ele>
        <time>2010-06-06T10:16:17Z</time>
      </trkpt>
      <trkpt lat="45.12656" lon="5.62311">
        <ele>1613</ele>
        <time>2010-06-06T10:16:18Z</time>
      </trkpt>
      <trkpt lat="45.12659" lon="5.6231">
        <ele>1613</ele>
        <time>2010-06-06T10:16:19Z</time>
      </trkpt>
      <trkpt lat="45.12662" lon="5.6231">
        <ele>1613</ele>
        <time>2010-06-06T10:16:20Z</time>
      </trkpt>
      <trkpt lat="45.12664" lon="5.62311">
        <ele>1614</ele>
        <time>2010-06-06T10:16:21Z</time>
      </trkpt>
      <trkpt lat="45.12667" lon="5.62311">
        <ele>1614</ele>
        <time>2010-06-06T10:16:22Z</time>
      </trkpt>
      <trkpt lat="45.1267" lon="5.62313">
        <ele>1614</ele>
        <time>2010-06-06T10:16:23Z</time>
      </trkpt>
      <trkpt lat="45.12672" lon="5.62315">
        <ele>1615</ele>
        <time>2010-06-06T10:16:24Z</time>
      </trkpt>
      <trkpt lat="45.12673" lon="5.62318">
        <ele>1615</ele>
        <time>2010-06-06T10:16:25Z</time>
      </trkpt>
      <trkpt lat="45.12675" lon="5.6232">
        <ele>1615</ele>
        <time>2010-06-06T10:16:26Z</time>
      </trkpt>
      <trkpt lat="45.12678" lon="5.62323">
        <ele>1615</ele>
        <time>2010-06-06T10:16:27Z</time>
      </trkpt>
      <trkpt lat="45.1268" lon="5.62325">
        <ele>1615</ele>
        <time>2010-06-06T10:16:28Z</time>
      </trkpt>
      <trkpt lat="45.12683" lon="5.62327">
        <ele>1615</ele>
        <time>2010-06-06T10:16:29Z</time>
      </trkpt>
      <trkpt lat="45.12685" lon="5.6233">
        <ele>1615</ele>
        <time>2010-06-06T10:16:30Z</time>
      </trkpt>
      <trkpt lat="45.12687" lon="5.62332">
        <ele>1616</ele>
        <time>2010-06-06T10:16:31Z</time>
      </trkpt>
      <trkpt lat="45.1269" lon="5.62335">
        <ele>1616</ele>
        <time>2010-06-06T10:16:32Z</time>
      </trkpt>
      <trkpt lat="45.12692" lon="5.62338">
        <ele>1616</ele>
        <time>2010-06-06T10:16:33Z</time>
      </trkpt>
      <trkpt lat="45.12694" lon="5.6234">
        <ele>1616</ele>
        <time>2010-06-06T10:16:34Z</time>
      </trkpt>
      <trkpt lat="45.12696" lon="5.62343">
        <ele>1617</ele>
        <time>2010-06-06T10:16:35Z</time>
      </trkpt>
      <trkpt lat="45.12698" lon="5.62346">
        <ele>1617</ele>
        <time>2010-06-06T10:16:36Z</time>
      </trkpt>
      <trkpt lat="45.127" lon="5.62349">
        <ele>1617</ele>
        <time>2010-06-06T10:16:37Z</time>
      </trkpt>
      <trkpt lat="45.12701" lon="5.62352">
        <ele>1617</ele>
        <time>2010-06-06T10:16:38Z</time>
      </trkpt>
      <trkpt lat="45.12703" lon="5.62355">
        <ele>1617</ele>
        <time>2010-06-06T10:16:39Z</time>
      </trkpt>
      <trkpt lat="45.12705" lon="5.62357">
        <ele>1617</ele>
        <time>2010-06-06T10:16:40Z</time>
      </trkpt>
      <trkpt lat="45.12707" lon="5.62359">
        <ele>1617</ele>
        <time>2010-06-06T10:16:41Z</time>
      </trkpt>
      <trkpt lat="45.12709" lon="5.62361">
        <ele>1618</ele>
        <time>2010-06-06T10:16:42Z</time>
      </trkpt>
      <trkpt lat="45.12711" lon="5.62363">
        <ele>1618</ele>
        <time>2010-06-06T10:16:43Z</time>
      </trkpt>
      <trkpt lat="45.12713" lon="5.62364">
        <ele>1619</ele>
        <time>2010-06-06T10:16:44Z</time>
      </trkpt>
      <trkpt lat="45.12716" lon="5.62365">
        <ele>1619</ele>
        <time>2010-06-06T10:16:45Z</time>
      </trkpt>
      <trkpt lat="45.12718" lon="5.62365">
        <ele>1619</ele>
        <time>2010-06-06T10:16:46Z</time>
      </trkpt>
      <trkpt lat="45.12721" lon="5.62365">
        <ele>1620</ele>
        <time>2010-06-06T10:16:47Z</time>
      </trkpt>
      <trkpt lat="45.12724" lon="5.62365">
        <ele>1621</ele>
        <time>2010-06-06T10:16:48Z</time>
      </trkpt>
      <trkpt lat="45.12726" lon="5.62364">
        <ele>1621</ele>
        <time>2010-06-06T10:16:49Z</time>
      </trkpt>
      <trkpt lat="45.12728" lon="5.62364">
        <ele>1622</ele>
        <time>2010-06-06T10:16:50Z</time>
      </trkpt>
      <trkpt lat="45.1273" lon="5.62364">
        <ele>1622</ele>
        <time>2010-06-06T10:16:51Z</time>
      </trkpt>
      <trkpt lat="45.12732" lon="5.62363">
        <ele>1622</ele>
        <time>2010-06-06T10:16:52Z</time>
      </trkpt>
      <trkpt lat="45.12733" lon="5.62363">
        <ele>1622</ele>
        <time>2010-06-06T10:16:53Z</time>
      </trkpt>
      <trkpt lat="45.12736" lon="5.62361">
        <ele>1622</ele>
        <time>2010-06-06T10:16:55Z</time>
      </trkpt>
      <trkpt lat="45.12737" lon="5.62361">
        <ele>1622</ele>
        <time>2010-06-06T10:16:56Z</time>
      </trkpt>
      <trkpt lat="45.12738" lon="5.6236">
        <ele>1622</ele>
        <time>2010-06-06T10:16:57Z</time>
      </trkpt>
      <trkpt lat="45.1274" lon="5.62359">
        <ele>1622</ele>
        <time>2010-06-06T10:16:59Z</time>
      </trkpt>
      <trkpt lat="45.12742" lon="5.62358">
        <ele>1622</ele>
        <time>2010-06-06T10:17:01Z</time>
      </trkpt>
      <trkpt lat="45.12744" lon="5.62356">
        <ele>1622</ele>
        <time>2010-06-06T10:17:03Z</time>
      </trkpt>
      <trkpt lat="45.12745" lon="5.62355">
        <ele>1622</ele>
        <time>2010-06-06T10:17:04Z</time>
      </trkpt>
      <trkpt lat="45.12747" lon="5.62355">
        <ele>1622</ele>
        <time>2010-06-06T10:17:05Z</time>
      </trkpt>
      <trkpt lat="45.12748" lon="5.62354">
        <ele>1622</ele>
        <time>2010-06-06T10:17:07Z</time>
      </trkpt>
      <trkpt lat="45.1275" lon="5.62354">
        <ele>1622</ele>
        <time>2010-06-06T10:17:14Z</time>
      </trkpt>
      <trkpt lat="45.12751" lon="5.62355">
        <ele>1622</ele>
        <time>2010-06-06T10:17:21Z</time>
      </trkpt>
      <trkpt lat="45.12753" lon="5.62356">
        <ele>1622</ele>
        <time>2010-06-06T10:17:22Z</time>
      </trkpt>
      <trkpt lat="45.12754" lon="5.62356">
        <ele>1622</ele>
        <time>2010-06-06T10:17:23Z</time>
      </trkpt>
      <trkpt lat="45.12755" lon="5.62357">
        <ele>1622</ele>
        <time>2010-06-06T10:17:24Z</time>
      </trkpt>
      <trkpt lat="45.12757" lon="5.62357">
        <ele>1622</ele>
        <time>2010-06-06T10:17:25Z</time>
      </trkpt>
      <trkpt lat="45.12758" lon="5.62357">
        <ele>1622</ele>
        <time>2010-06-06T10:17:26Z</time>
      </trkpt>
      <trkpt lat="45.12759" lon="5.62357">
        <ele>1622</ele>
        <time>2010-06-06T10:17:27Z</time>
      </trkpt>
      <trkpt lat="45.1276" lon="5.62356">
        <ele>1622</ele>
        <time>2010-06-06T10:17:28Z</time>
      </trkpt>
      <trkpt lat="45.12762" lon="5.62356">
        <ele>1622</ele>
        <time>2010-06-06T10:17:29Z</time>
      </trkpt>
      <trkpt lat="45.12763" lon="5.62356">
        <ele>1622</ele>
        <time>2010-06-06T10:17:30Z</time>
      </trkpt>
      <trkpt lat="45.12765" lon="5.62355">
        <ele>1622</ele>
        <time>2010-06-06T10:17:31Z</time>
      </trkpt>
      <trkpt lat="45.12766" lon="5.62355">
        <ele>1622</ele>
        <time>2010-06-06T10:17:32Z</time>
      </trkpt>
      <trkpt lat="45.12767" lon="5.62354">
        <ele>1622</ele>
        <time>2010-06-06T10:17:33Z</time>
      </trkpt>
      <trkpt lat="45.12768" lon="5.62354">
        <ele>1622</ele>
        <time>2010-06-06T10:17:34Z</time>
      </trkpt>
      <trkpt lat="45.1277" lon="5.62353">
        <ele>1622</ele>
        <time>2010-06-06T10:17:35Z</time>
      </trkpt>
      <trkpt lat="45.12771" lon="5.62353">
        <ele>1622</ele>
        <time>2010-06-06T10:17:36Z</time>
      </trkpt>
      <trkpt lat="45.12772" lon="5.62352">
        <ele>1622</ele>
        <time>2010-06-06T10:17:37Z</time>
      </trkpt>
      <trkpt lat="45.12774" lon="5.62352">
        <ele>1622</ele>
        <time>2010-06-06T10:17:38Z</time>
      </trkpt>
      <trkpt lat="45.12775" lon="5.62352">
        <ele>1622</ele>
        <time>2010-06-06T10:17:39Z</time>
      </trkpt>
      <trkpt lat="45.12776" lon="5.62351">
        <ele>1622</ele>
        <time>2010-06-06T10:17:40Z</time>
      </trkpt>
      <trkpt lat="45.12778" lon="5.62351">
        <ele>1622</ele>
        <time>2010-06-06T10:17:41Z</time>
      </trkpt>
      <trkpt lat="45.12779" lon="5.6235">
        <ele>1622</ele>
        <time>2010-06-06T10:17:42Z</time>
      </trkpt>
      <trkpt lat="45.1278" lon="5.6235">
        <ele>1622</ele>
        <time>2010-06-06T10:17:43Z</time>
      </trkpt>
      <trkpt lat="45.12782" lon="5.6235">
        <ele>1622</ele>
        <time>2010-06-06T10:17:44Z</time>
      </trkpt>
      <trkpt lat="45.12783" lon="5.62351">
        <ele>1622</ele>
        <time>2010-06-06T10:17:45Z</time>
      </trkpt>
      <trkpt lat="45.12785" lon="5.62351">
        <ele>1622</ele>
        <time>2010-06-06T10:17:46Z</time>
      </trkpt>
      <trkpt lat="45.12786" lon="5.6235">
        <ele>1622</ele>
        <time>2010-06-06T10:17:47Z</time>
      </trkpt>
      <trkpt lat="45.12787" lon="5.6235">
        <ele>1622</ele>
        <time>2010-06-06T10:17:48Z</time>
      </trkpt>
      <trkpt lat="45.12789" lon="5.6235">
        <ele>1622</ele>
        <time>2010-06-06T10:17:49Z</time>
      </trkpt>
      <trkpt lat="45.1279" lon="5.62349">
        <ele>1623</ele>
        <time>2010-06-06T10:17:50Z</time>
      </trkpt>
      <trkpt lat="45.12792" lon="5.62349">
        <ele>1623</ele>
        <time>2010-06-06T10:17:51Z</time>
      </trkpt>
      <trkpt lat="45.12793" lon="5.62349">
        <ele>1623</ele>
        <time>2010-06-06T10:17:52Z</time>
      </trkpt>
      <trkpt lat="45.12795" lon="5.62349">
        <ele>1624</ele>
        <time>2010-06-06T10:17:53Z</time>
      </trkpt>
      <trkpt lat="45.12796" lon="5.62349">
        <ele>1624</ele>
        <time>2010-06-06T10:17:54Z</time>
      </trkpt>
      <trkpt lat="45.12797" lon="5.62349">
        <ele>1624</ele>
        <time>2010-06-06T10:17:55Z</time>
      </trkpt>
      <trkpt lat="45.12799" lon="5.62349">
        <ele>1625</ele>
        <time>2010-06-06T10:17:56Z</time>
      </trkpt>
      <trkpt lat="45.128" lon="5.62349">
        <ele>1625</ele>
        <time>2010-06-06T10:17:57Z</time>
      </trkpt>
      <trkpt lat="45.12801" lon="5.62349">
        <ele>1625</ele>
        <time>2010-06-06T10:17:58Z</time>
      </trkpt>
      <trkpt lat="45.12803" lon="5.62349">
        <ele>1626</ele>
        <time>2010-06-06T10:17:59Z</time>
      </trkpt>
      <trkpt lat="45.12804" lon="5.62349">
        <ele>1626</ele>
        <time>2010-06-06T10:18:00Z</time>
      </trkpt>
      <trkpt lat="45.12806" lon="5.62349">
        <ele>1626</ele>
        <time>2010-06-06T10:18:01Z</time>
      </trkpt>
      <trkpt lat="45.12807" lon="5.62349">
        <ele>1626</ele>
        <time>2010-06-06T10:18:02Z</time>
      </trkpt>
      <trkpt lat="45.12809" lon="5.6235">
        <ele>1627</ele>
        <time>2010-06-06T10:18:03Z</time>
      </trkpt>
      <trkpt lat="45.1281" lon="5.6235">
        <ele>1627</ele>
        <time>2010-06-06T10:18:04Z</time>
      </trkpt>
      <trkpt lat="45.12811" lon="5.62351">
        <ele>1627</ele>
        <time>2010-06-06T10:18:05Z</time>
      </trkpt>
      <trkpt lat="45.12813" lon="5.62352">
        <ele>1628</ele>
        <time>2010-06-06T10:18:07Z</time>
      </trkpt>
      <trkpt lat="45.12814" lon="5.62352">
        <ele>1629</ele>
        <time>2010-06-06T10:18:08Z</time>
      </trkpt>
      <trkpt lat="45.12816" lon="5.62352">
        <ele>1629</ele>
        <time>2010-06-06T10:18:09Z</time>
      </trkpt>
      <trkpt lat="45.12817" lon="5.62353">
        <ele>1629</ele>
        <time>2010-06-06T10:18:10Z</time>
      </trkpt>
      <trkpt lat="45.12818" lon="5.62353">
        <ele>1630</ele>
        <time>2010-06-06T10:18:11Z</time>
      </trkpt>
      <trkpt lat="45.12819" lon="5.62353">
        <ele>1630</ele>
        <time>2010-06-06T10:18:12Z</time>
      </trkpt>
      <trkpt lat="45.12821" lon="5.62354">
        <ele>1630</ele>
        <time>2010-06-06T10:18:13Z</time>
      </trkpt>
      <trkpt lat="45.12822" lon="5.62354">
        <ele>1630</ele>
        <time>2010-06-06T10:18:14Z</time>
      </trkpt>
      <trkpt lat="45.12823" lon="5.62354">
        <ele>1631</ele>
        <time>2010-06-06T10:18:15Z</time>
      </trkpt>
      <trkpt lat="45.12825" lon="5.62354">
        <ele>1631</ele>
        <time>2010-06-06T10:18:16Z</time>
      </trkpt>
      <trkpt lat="45.12826" lon="5.62353">
        <ele>1631</ele>
        <time>2010-06-06T10:18:17Z</time>
      </trkpt>
      <trkpt lat="45.12827" lon="5.62353">
        <ele>1631</ele>
        <time>2010-06-06T10:18:18Z</time>
      </trkpt>
      <trkpt lat="45.12828" lon="5.62353">
        <ele>1631</ele>
        <time>2010-06-06T10:18:19Z</time>
      </trkpt>
      <trkpt lat="45.1283" lon="5.62353">
        <ele>1632</ele>
        <time>2010-06-06T10:18:20Z</time>
      </trkpt>
      <trkpt lat="45.12831" lon="5.62353">
        <ele>1632</ele>
        <time>2010-06-06T10:18:21Z</time>
      </trkpt>
      <trkpt lat="45.12832" lon="5.62352">
        <ele>1632</ele>
        <time>2010-06-06T10:18:22Z</time>
      </trkpt>
      <trkpt lat="45.12833" lon="5.62352">
        <ele>1632</ele>
        <time>2010-06-06T10:18:23Z</time>
      </trkpt>
      <trkpt lat="45.12835" lon="5.62351">
        <ele>1633</ele>
        <time>2010-06-06T10:18:25Z</time>
      </trkpt>
      <trkpt lat="45.12837" lon="5.62351">
        <ele>1633</ele>
        <time>2010-06-06T10:18:26Z</time>
      </trkpt>
      <trkpt lat="45.12838" lon="5.62352">
        <ele>1633</ele>
        <time>2010-06-06T10:18:27Z</time>
      </trkpt>
      <trkpt lat="45.12839" lon="5.62352">
        <ele>1633</ele>
        <time>2010-06-06T10:18:28Z</time>
      </trkpt>
      <trkpt lat="45.12841" lon="5.62352">
        <ele>1634</ele>
        <time>2010-06-06T10:18:29Z</time>
      </trkpt>
      <trkpt lat="45.12842" lon="5.62352">
        <ele>1634</ele>
        <time>2010-06-06T10:18:30Z</time>
      </trkpt>
      <trkpt lat="45.12843" lon="5.62353">
        <ele>1634</ele>
        <time>2010-06-06T10:18:31Z</time>
      </trkpt>
      <trkpt lat="45.12844" lon="5.62353">
        <ele>1634</ele>
        <time>2010-06-06T10:18:32Z</time>
      </trkpt>
      <trkpt lat="45.12846" lon="5.62353">
        <ele>1635</ele>
        <time>2010-06-06T10:18:33Z</time>
      </trkpt>
      <trkpt lat="45.12847" lon="5.62353">
        <ele>1635</ele>
        <time>2010-06-06T10:18:34Z</time>
      </trkpt>
      <trkpt lat="45.12849" lon="5.62354">
        <ele>1635</ele>
        <time>2010-06-06T10:18:35Z</time>
      </trkpt>
      <trkpt lat="45.1285" lon="5.62354">
        <ele>1636</ele>
        <time>2010-06-06T10:18:36Z</time>
      </trkpt>
      <trkpt lat="45.12851" lon="5.62355">
        <ele>1636</ele>
        <time>2010-06-06T10:18:37Z</time>
      </trkpt>
      <trkpt lat="45.12852" lon="5.62356">
        <ele>1636</ele>
        <time>2010-06-06T10:18:38Z</time>
      </trkpt>
      <trkpt lat="45.12854" lon="5.62356">
        <ele>1637</ele>
        <time>2010-06-06T10:18:39Z</time>
      </trkpt>
      <trkpt lat="45.12855" lon="5.62356">
        <ele>1637</ele>
        <time>2010-06-06T10:18:40Z</time>
      </trkpt>
      <trkpt lat="45.12856" lon="5.62357">
        <ele>1637</ele>
        <time>2010-06-06T10:18:41Z</time>
      </trkpt>
      <trkpt lat="45.12857" lon="5.62357">
        <ele>1638</ele>
        <time>2010-06-06T10:18:42Z</time>
      </trkpt>
      <trkpt lat="45.12858" lon="5.62357">
        <ele>1638</ele>
        <time>2010-06-06T10:18:43Z</time>
      </trkpt>
      <trkpt lat="45.1286" lon="5.62357">
        <ele>1638</ele>
        <time>2010-06-06T10:18:44Z</time>
      </trkpt>
      <trkpt lat="45.12861" lon="5.62357">
        <ele>1638</ele>
        <time>2010-06-06T10:18:45Z</time>
      </trkpt>
      <trkpt lat="45.12862" lon="5.62357">
        <ele>1639</ele>
        <time>2010-06-06T10:18:46Z</time>
      </trkpt>
      <trkpt lat="45.12863" lon="5.62357">
        <ele>1639</ele>
        <time>2010-06-06T10:18:47Z</time>
      </trkpt>
      <trkpt lat="45.12864" lon="5.62357">
        <ele>1639</ele>
        <time>2010-06-06T10:18:48Z</time>
      </trkpt>
      <trkpt lat="45.12866" lon="5.62357">
        <ele>1639</ele>
        <time>2010-06-06T10:18:50Z</time>
      </trkpt>
      <trkpt lat="45.12867" lon="5.62358">
        <ele>1639</ele>
        <time>2010-06-06T10:18:51Z</time>
      </trkpt>
      <trkpt lat="45.12869" lon="5.62358">
        <ele>1639</ele>
        <time>2010-06-06T10:18:52Z</time>
      </trkpt>
      <trkpt lat="45.1287" lon="5.62358">
        <ele>1639</ele>
        <time>2010-06-06T10:18:53Z</time>
      </trkpt>
      <trkpt lat="45.12871" lon="5.62358">
        <ele>1639</ele>
        <time>2010-06-06T10:18:54Z</time>
      </trkpt>
      <trkpt lat="45.12872" lon="5.62359">
        <ele>1639</ele>
        <time>2010-06-06T10:18:55Z</time>
      </trkpt>
      <trkpt lat="45.12874" lon="5.62359">
        <ele>1639</ele>
        <time>2010-06-06T10:18:56Z</time>
      </trkpt>
      <trkpt lat="45.12875" lon="5.62359">
        <ele>1639</ele>
        <time>2010-06-06T10:18:57Z</time>
      </trkpt>
      <trkpt lat="45.12876" lon="5.62359">
        <ele>1639</ele>
        <time>2010-06-06T10:18:58Z</time>
      </trkpt>
      <trkpt lat="45.12878" lon="5.6236">
        <ele>1639</ele>
        <time>2010-06-06T10:18:59Z</time>
      </trkpt>
      <trkpt lat="45.12879" lon="5.62361">
        <ele>1639</ele>
        <time>2010-06-06T10:19:00Z</time>
      </trkpt>
      <trkpt lat="45.12881" lon="5.62364">
        <ele>1640</ele>
        <time>2010-06-06T10:19:02Z</time>
      </trkpt>
      <trkpt lat="45.12882" lon="5.62365">
        <ele>1640</ele>
        <time>2010-06-06T10:19:03Z</time>
      </trkpt>
      <trkpt lat="45.12884" lon="5.62368">
        <ele>1641</ele>
        <time>2010-06-06T10:19:05Z</time>
      </trkpt>
      <trkpt lat="45.12885" lon="5.6237">
        <ele>1641</ele>
        <time>2010-06-06T10:19:06Z</time>
      </trkpt>
      <trkpt lat="45.12886" lon="5.62371">
        <ele>1641</ele>
        <time>2010-06-06T10:19:07Z</time>
      </trkpt>
      <trkpt lat="45.12886" lon="5.62373">
        <ele>1642</ele>
        <time>2010-06-06T10:19:08Z</time>
      </trkpt>
      <trkpt lat="45.12887" lon="5.62375">
        <ele>1642</ele>
        <time>2010-06-06T10:19:09Z</time>
      </trkpt>
      <trkpt lat="45.12888" lon="5.62377">
        <ele>1642</ele>
        <time>2010-06-06T10:19:10Z</time>
      </trkpt>
      <trkpt lat="45.12889" lon="5.62378">
        <ele>1643</ele>
        <time>2010-06-06T10:19:11Z</time>
      </trkpt>
      <trkpt lat="45.1289" lon="5.6238">
        <ele>1643</ele>
        <time>2010-06-06T10:19:12Z</time>
      </trkpt>
      <trkpt lat="45.12891" lon="5.62381">
        <ele>1643</ele>
        <time>2010-06-06T10:19:13Z</time>
      </trkpt>
      <trkpt lat="45.12892" lon="5.62383">
        <ele>1644</ele>
        <time>2010-06-06T10:19:14Z</time>
      </trkpt>
      <trkpt lat="45.12893" lon="5.62384">
        <ele>1644</ele>
        <time>2010-06-06T10:19:15Z</time>
      </trkpt>
      <trkpt lat="45.12893" lon="5.62386">
        <ele>1645</ele>
        <time>2010-06-06T10:19:16Z</time>
      </trkpt>
      <trkpt lat="45.12894" lon="5.62388">
        <ele>1645</ele>
        <time>2010-06-06T10:19:17Z</time>
      </trkpt>
      <trkpt lat="45.12895" lon="5.6239">
        <ele>1645</ele>
        <time>2010-06-06T10:19:18Z</time>
      </trkpt>
      <trkpt lat="45.12896" lon="5.62392">
        <ele>1645</ele>
        <time>2010-06-06T10:19:19Z</time>
      </trkpt>
      <trkpt lat="45.12896" lon="5.62394">
        <ele>1646</ele>
        <time>2010-06-06T10:19:20Z</time>
      </trkpt>
      <trkpt lat="45.12897" lon="5.62396">
        <ele>1646</ele>
        <time>2010-06-06T10:19:21Z</time>
      </trkpt>
      <trkpt lat="45.12898" lon="5.62398">
        <ele>1646</ele>
        <time>2010-06-06T10:19:22Z</time>
      </trkpt>
      <trkpt lat="45.12898" lon="5.624">
        <ele>1646</ele>
        <time>2010-06-06T10:19:23Z</time>
      </trkpt>
      <trkpt lat="45.129" lon="5.62401">
        <ele>1646</ele>
        <time>2010-06-06T10:19:24Z</time>
      </trkpt>
      <trkpt lat="45.12901" lon="5.62403">
        <ele>1646</ele>
        <time>2010-06-06T10:19:25Z</time>
      </trkpt>
      <trkpt lat="45.12902" lon="5.62405">
        <ele>1646</ele>
        <time>2010-06-06T10:19:26Z</time>
      </trkpt>
      <trkpt lat="45.12903" lon="5.62406">
        <ele>1646</ele>
        <time>2010-06-06T10:19:27Z</time>
      </trkpt>
      <trkpt lat="45.12904" lon="5.62408">
        <ele>1647</ele>
        <time>2010-06-06T10:19:28Z</time>
      </trkpt>
      <trkpt lat="45.12905" lon="5.6241">
        <ele>1647</ele>
        <time>2010-06-06T10:19:29Z</time>
      </trkpt>
      <trkpt lat="45.12906" lon="5.62411">
        <ele>1647</ele>
        <time>2010-06-06T10:19:30Z</time>
      </trkpt>
      <trkpt lat="45.12906" lon="5.62413">
        <ele>1647</ele>
        <time>2010-06-06T10:19:31Z</time>
      </trkpt>
      <trkpt lat="45.12907" lon="5.62415">
        <ele>1647</ele>
        <time>2010-06-06T10:19:32Z</time>
      </trkpt>
      <trkpt lat="45.12908" lon="5.62417">
        <ele>1648</ele>
        <time>2010-06-06T10:19:33Z</time>
      </trkpt>
      <trkpt lat="45.12908" lon="5.62419">
        <ele>1648</ele>
        <time>2010-06-06T10:19:34Z</time>
      </trkpt>
      <trkpt lat="45.1291" lon="5.6242">
        <ele>1648</ele>
        <time>2010-06-06T10:19:35Z</time>
      </trkpt>
      <trkpt lat="45.1291" lon="5.62423">
        <ele>1648</ele>
        <time>2010-06-06T10:19:36Z</time>
      </trkpt>
      <trkpt lat="45.12911" lon="5.62425">
        <ele>1648</ele>
        <time>2010-06-06T10:19:37Z</time>
      </trkpt>
      <trkpt lat="45.12911" lon="5.62427">
        <ele>1648</ele>
        <time>2010-06-06T10:19:38Z</time>
      </trkpt>
      <trkpt lat="45.12912" lon="5.62429">
        <ele>1648</ele>
        <time>2010-06-06T10:19:39Z</time>
      </trkpt>
      <trkpt lat="45.12912" lon="5.62431">
        <ele>1648</ele>
        <time>2010-06-06T10:19:40Z</time>
      </trkpt>
      <trkpt lat="45.12912" lon="5.62433">
        <ele>1649</ele>
        <time>2010-06-06T10:19:41Z</time>
      </trkpt>
      <trkpt lat="45.12913" lon="5.62436">
        <ele>1649</ele>
        <time>2010-06-06T10:19:42Z</time>
      </trkpt>
      <trkpt lat="45.12914" lon="5.62438">
        <ele>1649</ele>
        <time>2010-06-06T10:19:43Z</time>
      </trkpt>
      <trkpt lat="45.12915" lon="5.62441">
        <ele>1649</ele>
        <time>2010-06-06T10:19:44Z</time>
      </trkpt>
      <trkpt lat="45.12916" lon="5.62443">
        <ele>1650</ele>
        <time>2010-06-06T10:19:45Z</time>
      </trkpt>
      <trkpt lat="45.12918" lon="5.62446">
        <ele>1650</ele>
        <time>2010-06-06T10:19:46Z</time>
      </trkpt>
      <trkpt lat="45.12919" lon="5.62449">
        <ele>1651</ele>
        <time>2010-06-06T10:19:47Z</time>
      </trkpt>
      <trkpt lat="45.1292" lon="5.62451">
        <ele>1652</ele>
        <time>2010-06-06T10:19:48Z</time>
      </trkpt>
      <trkpt lat="45.12921" lon="5.62454">
        <ele>1653</ele>
        <time>2010-06-06T10:19:49Z</time>
      </trkpt>
      <trkpt lat="45.12923" lon="5.62457">
        <ele>1654</ele>
        <time>2010-06-06T10:19:50Z</time>
      </trkpt>
      <trkpt lat="45.12924" lon="5.62459">
        <ele>1655</ele>
        <time>2010-06-06T10:19:51Z</time>
      </trkpt>
      <trkpt lat="45.12925" lon="5.62462">
        <ele>1655</ele>
        <time>2010-06-06T10:19:52Z</time>
      </trkpt>
      <trkpt lat="45.12926" lon="5.62465">
        <ele>1656</ele>
        <time>2010-06-06T10:19:53Z</time>
      </trkpt>
      <trkpt lat="45.12927" lon="5.62467">
        <ele>1657</ele>
        <time>2010-06-06T10:19:54Z</time>
      </trkpt>
      <trkpt lat="45.12929" lon="5.6247">
        <ele>1657</ele>
        <time>2010-06-06T10:19:55Z</time>
      </trkpt>
      <trkpt lat="45.1293" lon="5.62472">
        <ele>1658</ele>
        <time>2010-06-06T10:19:56Z</time>
      </trkpt>
      <trkpt lat="45.12932" lon="5.62474">
        <ele>1659</ele>
        <time>2010-06-06T10:19:57Z</time>
      </trkpt>
      <trkpt lat="45.12933" lon="5.62478">
        <ele>1659</ele>
        <time>2010-06-06T10:19:58Z</time>
      </trkpt>
      <trkpt lat="45.12935" lon="5.62481">
        <ele>1660</ele>
        <time>2010-06-06T10:19:59Z</time>
      </trkpt>
      <trkpt lat="45.12936" lon="5.62483">
        <ele>1660</ele>
        <time>2010-06-06T10:20:00Z</time>
      </trkpt>
      <trkpt lat="45.12937" lon="5.62485">
        <ele>1661</ele>
        <time>2010-06-06T10:20:01Z</time>
      </trkpt>
      <trkpt lat="45.12938" lon="5.62486">
        <ele>1661</ele>
        <time>2010-06-06T10:20:02Z</time>
      </trkpt>
      <trkpt lat="45.12939" lon="5.62488">
        <ele>1661</ele>
        <time>2010-06-06T10:20:03Z</time>
      </trkpt>
      <trkpt lat="45.12939" lon="5.6249">
        <ele>1661</ele>
        <time>2010-06-06T10:20:04Z</time>
      </trkpt>
      <trkpt lat="45.1294" lon="5.62492">
        <ele>1661</ele>
        <time>2010-06-06T10:20:05Z</time>
      </trkpt>
      <trkpt lat="45.1294" lon="5.62493">
        <ele>1661</ele>
        <time>2010-06-06T10:20:06Z</time>
      </trkpt>
      <trkpt lat="45.1294" lon="5.62495">
        <ele>1661</ele>
        <time>2010-06-06T10:20:07Z</time>
      </trkpt>
      <trkpt lat="45.12941" lon="5.62497">
        <ele>1661</ele>
        <time>2010-06-06T10:20:08Z</time>
      </trkpt>
      <trkpt lat="45.12942" lon="5.62498">
        <ele>1661</ele>
        <time>2010-06-06T10:20:09Z</time>
      </trkpt>
      <trkpt lat="45.12943" lon="5.62501">
        <ele>1661</ele>
        <time>2010-06-06T10:20:11Z</time>
      </trkpt>
      <trkpt lat="45.12946" lon="5.62504">
        <ele>1661</ele>
        <time>2010-06-06T10:20:13Z</time>
      </trkpt>
      <trkpt lat="45.12947" lon="5.62505">
        <ele>1661</ele>
        <time>2010-06-06T10:20:14Z</time>
      </trkpt>
      <trkpt lat="45.12948" lon="5.62507">
        <ele>1661</ele>
        <time>2010-06-06T10:20:15Z</time>
      </trkpt>
      <trkpt lat="45.12948" lon="5.62509">
        <ele>1662</ele>
        <time>2010-06-06T10:20:16Z</time>
      </trkpt>
      <trkpt lat="45.12949" lon="5.62511">
        <ele>1662</ele>
        <time>2010-06-06T10:20:17Z</time>
      </trkpt>
      <trkpt lat="45.1295" lon="5.62512">
        <ele>1662</ele>
        <time>2010-06-06T10:20:18Z</time>
      </trkpt>
      <trkpt lat="45.12951" lon="5.62514">
        <ele>1662</ele>
        <time>2010-06-06T10:20:19Z</time>
      </trkpt>
      <trkpt lat="45.12953" lon="5.62515">
        <ele>1662</ele>
        <time>2010-06-06T10:20:20Z</time>
      </trkpt>
      <trkpt lat="45.12954" lon="5.62516">
        <ele>1662</ele>
        <time>2010-06-06T10:20:21Z</time>
      </trkpt>
      <trkpt lat="45.12955" lon="5.62518">
        <ele>1662</ele>
        <time>2010-06-06T10:20:22Z</time>
      </trkpt>
      <trkpt lat="45.12956" lon="5.6252">
        <ele>1662</ele>
        <time>2010-06-06T10:20:23Z</time>
      </trkpt>
      <trkpt lat="45.12957" lon="5.62521">
        <ele>1663</ele>
        <time>2010-06-06T10:20:24Z</time>
      </trkpt>
      <trkpt lat="45.12958" lon="5.62522">
        <ele>1663</ele>
        <time>2010-06-06T10:20:25Z</time>
      </trkpt>
      <trkpt lat="45.1296" lon="5.62523">
        <ele>1663</ele>
        <time>2010-06-06T10:20:26Z</time>
      </trkpt>
      <trkpt lat="45.12961" lon="5.62525">
        <ele>1664</ele>
        <time>2010-06-06T10:20:27Z</time>
      </trkpt>
      <trkpt lat="45.12963" lon="5.62527">
        <ele>1665</ele>
        <time>2010-06-06T10:20:29Z</time>
      </trkpt>
      <trkpt lat="45.12965" lon="5.62528">
        <ele>1665</ele>
        <time>2010-06-06T10:20:30Z</time>
      </trkpt>
      <trkpt lat="45.12967" lon="5.6253">
        <ele>1666</ele>
        <time>2010-06-06T10:20:31Z</time>
      </trkpt>
      <trkpt lat="45.12968" lon="5.62532">
        <ele>1666</ele>
        <time>2010-06-06T10:20:32Z</time>
      </trkpt>
      <trkpt lat="45.1297" lon="5.62534">
        <ele>1667</ele>
        <time>2010-06-06T10:20:33Z</time>
      </trkpt>
      <trkpt lat="45.12972" lon="5.62536">
        <ele>1667</ele>
        <time>2010-06-06T10:20:34Z</time>
      </trkpt>
      <trkpt lat="45.12974" lon="5.62538">
        <ele>1667</ele>
        <time>2010-06-06T10:20:35Z</time>
      </trkpt>
      <trkpt lat="45.12976" lon="5.62539">
        <ele>1668</ele>
        <time>2010-06-06T10:20:36Z</time>
      </trkpt>
      <trkpt lat="45.12978" lon="5.62541">
        <ele>1668</ele>
        <time>2010-06-06T10:20:37Z</time>
      </trkpt>
      <trkpt lat="45.1298" lon="5.62542">
        <ele>1668</ele>
        <time>2010-06-06T10:20:38Z</time>
      </trkpt>
      <trkpt lat="45.12982" lon="5.62543">
        <ele>1669</ele>
        <time>2010-06-06T10:20:39Z</time>
      </trkpt>
      <trkpt lat="45.12985" lon="5.62544">
        <ele>1669</ele>
        <time>2010-06-06T10:20:40Z</time>
      </trkpt>
      <trkpt lat="45.12987" lon="5.62546">
        <ele>1669</ele>
        <time>2010-06-06T10:20:41Z</time>
      </trkpt>
      <trkpt lat="45.12989" lon="5.62547">
        <ele>1670</ele>
        <time>2010-06-06T10:20:42Z</time>
      </trkpt>
      <trkpt lat="45.12991" lon="5.62548">
        <ele>1670</ele>
        <time>2010-06-06T10:20:43Z</time>
      </trkpt>
      <trkpt lat="45.12994" lon="5.62549">
        <ele>1670</ele>
        <time>2010-06-06T10:20:44Z</time>
      </trkpt>
      <trkpt lat="45.12996" lon="5.6255">
        <ele>1671</ele>
        <time>2010-06-06T10:20:45Z</time>
      </trkpt>
      <trkpt lat="45.12999" lon="5.62551">
        <ele>1671</ele>
        <time>2010-06-06T10:20:46Z</time>
      </trkpt>
      <trkpt lat="45.13001" lon="5.62552">
        <ele>1671</ele>
        <time>2010-06-06T10:20:47Z</time>
      </trkpt>
      <trkpt lat="45.13003" lon="5.62553">
        <ele>1671</ele>
        <time>2010-06-06T10:20:48Z</time>
      </trkpt>
      <trkpt lat="45.13005" lon="5.62555">
        <ele>1672</ele>
        <time>2010-06-06T10:20:49Z</time>
      </trkpt>
      <trkpt lat="45.13008" lon="5.62556">
        <ele>1672</ele>
        <time>2010-06-06T10:20:50Z</time>
      </trkpt>
      <trkpt lat="45.1301" lon="5.62558">
        <ele>1672</ele>
        <time>2010-06-06T10:20:51Z</time>
      </trkpt>
      <trkpt lat="45.13013" lon="5.62559">
        <ele>1672</ele>
        <time>2010-06-06T10:20:52Z</time>
      </trkpt>
      <trkpt lat="45.13015" lon="5.62561">
        <ele>1672</ele>
        <time>2010-06-06T10:20:53Z</time>
      </trkpt>
      <trkpt lat="45.13017" lon="5.62562">
        <ele>1672</ele>
        <time>2010-06-06T10:20:54Z</time>
      </trkpt>
      <trkpt lat="45.13019" lon="5.62564">
        <ele>1672</ele>
        <time>2010-06-06T10:20:55Z</time>
      </trkpt>
      <trkpt lat="45.13021" lon="5.62565">
        <ele>1672</ele>
        <time>2010-06-06T10:20:56Z</time>
      </trkpt>
      <trkpt lat="45.13023" lon="5.62566">
        <ele>1672</ele>
        <time>2010-06-06T10:20:57Z</time>
      </trkpt>
      <trkpt lat="45.13026" lon="5.62568">
        <ele>1672</ele>
        <time>2010-06-06T10:20:58Z</time>
      </trkpt>
      <trkpt lat="45.13028" lon="5.6257">
        <ele>1672</ele>
        <time>2010-06-06T10:20:59Z</time>
      </trkpt>
      <trkpt lat="45.1303" lon="5.62571">
        <ele>1673</ele>
        <time>2010-06-06T10:21:00Z</time>
      </trkpt>
      <trkpt lat="45.13032" lon="5.62573">
        <ele>1673</ele>
        <time>2010-06-06T10:21:01Z</time>
      </trkpt>
      <trkpt lat="45.13035" lon="5.62574">
        <ele>1673</ele>
        <time>2010-06-06T10:21:02Z</time>
      </trkpt>
      <trkpt lat="45.13037" lon="5.62575">
        <ele>1673</ele>
        <time>2010-06-06T10:21:03Z</time>
      </trkpt>
      <trkpt lat="45.13039" lon="5.62577">
        <ele>1673</ele>
        <time>2010-06-06T10:21:04Z</time>
      </trkpt>
      <trkpt lat="45.13042" lon="5.62578">
        <ele>1674</ele>
        <time>2010-06-06T10:21:05Z</time>
      </trkpt>
      <trkpt lat="45.13044" lon="5.6258">
        <ele>1674</ele>
        <time>2010-06-06T10:21:06Z</time>
      </trkpt>
      <trkpt lat="45.13046" lon="5.62581">
        <ele>1674</ele>
        <time>2010-06-06T10:21:07Z</time>
      </trkpt>
      <trkpt lat="45.13048" lon="5.62583">
        <ele>1674</ele>
        <time>2010-06-06T10:21:08Z</time>
      </trkpt>
      <trkpt lat="45.1305" lon="5.62585">
        <ele>1674</ele>
        <time>2010-06-06T10:21:09Z</time>
      </trkpt>
      <trkpt lat="45.13052" lon="5.62586">
        <ele>1674</ele>
        <time>2010-06-06T10:21:10Z</time>
      </trkpt>
      <trkpt lat="45.13054" lon="5.62588">
        <ele>1675</ele>
        <time>2010-06-06T10:21:11Z</time>
      </trkpt>
      <trkpt lat="45.13057" lon="5.62589">
        <ele>1675</ele>
        <time>2010-06-06T10:21:12Z</time>
      </trkpt>
      <trkpt lat="45.13059" lon="5.6259">
        <ele>1675</ele>
        <time>2010-06-06T10:21:13Z</time>
      </trkpt>
      <trkpt lat="45.13061" lon="5.62592">
        <ele>1675</ele>
        <time>2010-06-06T10:21:14Z</time>
      </trkpt>
      <trkpt lat="45.13063" lon="5.62593">
        <ele>1675</ele>
        <time>2010-06-06T10:21:15Z</time>
      </trkpt>
      <trkpt lat="45.13066" lon="5.62594">
        <ele>1675</ele>
        <time>2010-06-06T10:21:16Z</time>
      </trkpt>
      <trkpt lat="45.13068" lon="5.62596">
        <ele>1675</ele>
        <time>2010-06-06T10:21:17Z</time>
      </trkpt>
      <trkpt lat="45.1307" lon="5.62597">
        <ele>1675</ele>
        <time>2010-06-06T10:21:18Z</time>
      </trkpt>
      <trkpt lat="45.13072" lon="5.62599">
        <ele>1675</ele>
        <time>2010-06-06T10:21:19Z</time>
      </trkpt>
      <trkpt lat="45.13074" lon="5.62601">
        <ele>1675</ele>
        <time>2010-06-06T10:21:20Z</time>
      </trkpt>
      <trkpt lat="45.13077" lon="5.62603">
        <ele>1675</ele>
        <time>2010-06-06T10:21:21Z</time>
      </trkpt>
      <trkpt lat="45.13079" lon="5.62604">
        <ele>1675</ele>
        <time>2010-06-06T10:21:22Z</time>
      </trkpt>
      <trkpt lat="45.13081" lon="5.62606">
        <ele>1675</ele>
        <time>2010-06-06T10:21:23Z</time>
      </trkpt>
      <trkpt lat="45.13083" lon="5.62607">
        <ele>1676</ele>
        <time>2010-06-06T10:21:24Z</time>
      </trkpt>
      <trkpt lat="45.13085" lon="5.62609">
        <ele>1676</ele>
        <time>2010-06-06T10:21:25Z</time>
      </trkpt>
      <trkpt lat="45.13087" lon="5.62611">
        <ele>1676</ele>
        <time>2010-06-06T10:21:26Z</time>
      </trkpt>
      <trkpt lat="45.13089" lon="5.62612">
        <ele>1677</ele>
        <time>2010-06-06T10:21:27Z</time>
      </trkpt>
      <trkpt lat="45.13091" lon="5.62614">
        <ele>1677</ele>
        <time>2010-06-06T10:21:28Z</time>
      </trkpt>
      <trkpt lat="45.13093" lon="5.62615">
        <ele>1677</ele>
        <time>2010-06-06T10:21:29Z</time>
      </trkpt>
      <trkpt lat="45.13095" lon="5.62617">
        <ele>1677</ele>
        <time>2010-06-06T10:21:30Z</time>
      </trkpt>
      <trkpt lat="45.13097" lon="5.62618">
        <ele>1678</ele>
        <time>2010-06-06T10:21:31Z</time>
      </trkpt>
      <trkpt lat="45.13098" lon="5.62619">
        <ele>1678</ele>
        <time>2010-06-06T10:21:32Z</time>
      </trkpt>
      <trkpt lat="45.131" lon="5.62621">
        <ele>1678</ele>
        <time>2010-06-06T10:21:34Z</time>
      </trkpt>
      <trkpt lat="45.13101" lon="5.62622">
        <ele>1678</ele>
        <time>2010-06-06T10:21:35Z</time>
      </trkpt>
      <trkpt lat="45.13102" lon="5.62622">
        <ele>1678</ele>
        <time>2010-06-06T10:21:36Z</time>
      </trkpt>
      <trkpt lat="45.13104" lon="5.62623">
        <ele>1678</ele>
        <time>2010-06-06T10:21:37Z</time>
      </trkpt>
      <trkpt lat="45.13105" lon="5.62624">
        <ele>1678</ele>
        <time>2010-06-06T10:21:38Z</time>
      </trkpt>
      <trkpt lat="45.13106" lon="5.62624">
        <ele>1678</ele>
        <time>2010-06-06T10:21:39Z</time>
      </trkpt>
      <trkpt lat="45.13108" lon="5.62625">
        <ele>1678</ele>
        <time>2010-06-06T10:21:40Z</time>
      </trkpt>
      <trkpt lat="45.1311" lon="5.62626">
        <ele>1678</ele>
        <time>2010-06-06T10:21:42Z</time>
      </trkpt>
      <trkpt lat="45.13111" lon="5.62628">
        <ele>1679</ele>
        <time>2010-06-06T10:21:43Z</time>
      </trkpt>
      <trkpt lat="45.13112" lon="5.62629">
        <ele>1679</ele>
        <time>2010-06-06T10:21:44Z</time>
      </trkpt>
      <trkpt lat="45.13112" lon="5.62631">
        <ele>1679</ele>
        <time>2010-06-06T10:21:45Z</time>
      </trkpt>
      <trkpt lat="45.13114" lon="5.62632">
        <ele>1679</ele>
        <time>2010-06-06T10:21:46Z</time>
      </trkpt>
      <trkpt lat="45.13115" lon="5.62633">
        <ele>1679</ele>
        <time>2010-06-06T10:21:47Z</time>
      </trkpt>
      <trkpt lat="45.13117" lon="5.62635">
        <ele>1679</ele>
        <time>2010-06-06T10:21:49Z</time>
      </trkpt>
      <trkpt lat="45.13119" lon="5.62637">
        <ele>1679</ele>
        <time>2010-06-06T10:21:51Z</time>
      </trkpt>
      <trkpt lat="45.13121" lon="5.62639">
        <ele>1679</ele>
        <time>2010-06-06T10:21:53Z</time>
      </trkpt>
      <trkpt lat="45.13122" lon="5.62639">
        <ele>1679</ele>
        <time>2010-06-06T10:21:54Z</time>
      </trkpt>
      <trkpt lat="45.13124" lon="5.62639">
        <ele>1679</ele>
        <time>2010-06-06T10:21:55Z</time>
      </trkpt>
      <trkpt lat="45.13125" lon="5.6264">
        <ele>1679</ele>
        <time>2010-06-06T10:21:56Z</time>
      </trkpt>
      <trkpt lat="45.13126" lon="5.62641">
        <ele>1679</ele>
        <time>2010-06-06T10:21:57Z</time>
      </trkpt>
      <trkpt lat="45.13128" lon="5.62642">
        <ele>1679</ele>
        <time>2010-06-06T10:21:59Z</time>
      </trkpt>
      <trkpt lat="45.1313" lon="5.62643">
        <ele>1680</ele>
        <time>2010-06-06T10:22:00Z</time>
      </trkpt>
      <trkpt lat="45.13132" lon="5.62645">
        <ele>1680</ele>
        <time>2010-06-06T10:22:02Z</time>
      </trkpt>
      <trkpt lat="45.13133" lon="5.62646">
        <ele>1680</ele>
        <time>2010-06-06T10:22:03Z</time>
      </trkpt>
      <trkpt lat="45.13134" lon="5.62646">
        <ele>1680</ele>
        <time>2010-06-06T10:22:04Z</time>
      </trkpt>
      <trkpt lat="45.13135" lon="5.62647">
        <ele>1680</ele>
        <time>2010-06-06T10:22:05Z</time>
      </trkpt>
      <trkpt lat="45.13137" lon="5.62648">
        <ele>1680</ele>
        <time>2010-06-06T10:22:06Z</time>
      </trkpt>
      <trkpt lat="45.13138" lon="5.62649">
        <ele>1680</ele>
        <time>2010-06-06T10:22:07Z</time>
      </trkpt>
      <trkpt lat="45.13139" lon="5.6265">
        <ele>1680</ele>
        <time>2010-06-06T10:22:08Z</time>
      </trkpt>
      <trkpt lat="45.1314" lon="5.6265">
        <ele>1680</ele>
        <time>2010-06-06T10:22:09Z</time>
      </trkpt>
      <trkpt lat="45.13142" lon="5.62651">
        <ele>1681</ele>
        <time>2010-06-06T10:22:10Z</time>
      </trkpt>
      <trkpt lat="45.13143" lon="5.62651">
        <ele>1681</ele>
        <time>2010-06-06T10:22:11Z</time>
      </trkpt>
      <trkpt lat="45.13144" lon="5.62651">
        <ele>1681</ele>
        <time>2010-06-06T10:22:12Z</time>
      </trkpt>
      <trkpt lat="45.13146" lon="5.62651">
        <ele>1682</ele>
        <time>2010-06-06T10:22:13Z</time>
      </trkpt>
      <trkpt lat="45.13148" lon="5.62652">
        <ele>1682</ele>
        <time>2010-06-06T10:22:14Z</time>
      </trkpt>
      <trkpt lat="45.1315" lon="5.62652">
        <ele>1682</ele>
        <time>2010-06-06T10:22:15Z</time>
      </trkpt>
      <trkpt lat="45.13152" lon="5.62653">
        <ele>1682</ele>
        <time>2010-06-06T10:22:16Z</time>
      </trkpt>
      <trkpt lat="45.13155" lon="5.62654">
        <ele>1682</ele>
        <time>2010-06-06T10:22:17Z</time>
      </trkpt>
      <trkpt lat="45.13157" lon="5.62655">
        <ele>1683</ele>
        <time>2010-06-06T10:22:18Z</time>
      </trkpt>
      <trkpt lat="45.13159" lon="5.62655">
        <ele>1683</ele>
        <time>2010-06-06T10:22:19Z</time>
      </trkpt>
      <trkpt lat="45.13162" lon="5.62656">
        <ele>1683</ele>
        <time>2010-06-06T10:22:20Z</time>
      </trkpt>
      <trkpt lat="45.13164" lon="5.62656">
        <ele>1683</ele>
        <time>2010-06-06T10:22:21Z</time>
      </trkpt>
      <trkpt lat="45.13166" lon="5.62656">
        <ele>1684</ele>
        <time>2010-06-06T10:22:22Z</time>
      </trkpt>
      <trkpt lat="45.13168" lon="5.62656">
        <ele>1684</ele>
        <time>2010-06-06T10:22:23Z</time>
      </trkpt>
      <trkpt lat="45.13171" lon="5.62656">
        <ele>1685</ele>
        <time>2010-06-06T10:22:24Z</time>
      </trkpt>
      <trkpt lat="45.13173" lon="5.62655">
        <ele>1685</ele>
        <time>2010-06-06T10:22:25Z</time>
      </trkpt>
      <trkpt lat="45.13175" lon="5.62655">
        <ele>1685</ele>
        <time>2010-06-06T10:22:26Z</time>
      </trkpt>
      <trkpt lat="45.13176" lon="5.62653">
        <ele>1686</ele>
        <time>2010-06-06T10:22:27Z</time>
      </trkpt>
      <trkpt lat="45.13178" lon="5.62651">
        <ele>1686</ele>
        <time>2010-06-06T10:22:28Z</time>
      </trkpt>
      <trkpt lat="45.1318" lon="5.62649">
        <ele>1687</ele>
        <time>2010-06-06T10:22:29Z</time>
      </trkpt>
      <trkpt lat="45.13182" lon="5.62648">
        <ele>1687</ele>
        <time>2010-06-06T10:22:30Z</time>
      </trkpt>
      <trkpt lat="45.13184" lon="5.62646">
        <ele>1687</ele>
        <time>2010-06-06T10:22:31Z</time>
      </trkpt>
      <trkpt lat="45.13186" lon="5.62644">
        <ele>1688</ele>
        <time>2010-06-06T10:22:32Z</time>
      </trkpt>
      <trkpt lat="45.13188" lon="5.62643">
        <ele>1688</ele>
        <time>2010-06-06T10:22:33Z</time>
      </trkpt>
      <trkpt lat="45.1319" lon="5.62642">
        <ele>1688</ele>
        <time>2010-06-06T10:22:34Z</time>
      </trkpt>
      <trkpt lat="45.13193" lon="5.6264">
        <ele>1688</ele>
        <time>2010-06-06T10:22:35Z</time>
      </trkpt>
      <trkpt lat="45.13195" lon="5.62639">
        <ele>1689</ele>
        <time>2010-06-06T10:22:36Z</time>
      </trkpt>
      <trkpt lat="45.13197" lon="5.62637">
        <ele>1689</ele>
        <time>2010-06-06T10:22:37Z</time>
      </trkpt>
      <trkpt lat="45.13199" lon="5.62636">
        <ele>1689</ele>
        <time>2010-06-06T10:22:38Z</time>
      </trkpt>
      <trkpt lat="45.13201" lon="5.62634">
        <ele>1689</ele>
        <time>2010-06-06T10:22:39Z</time>
      </trkpt>
      <trkpt lat="45.13203" lon="5.62633">
        <ele>1689</ele>
        <time>2010-06-06T10:22:40Z</time>
      </trkpt>
      <trkpt lat="45.13206" lon="5.62631">
        <ele>1689</ele>
        <time>2010-06-06T10:22:41Z</time>
      </trkpt>
      <trkpt lat="45.13208" lon="5.62629">
        <ele>1689</ele>
        <time>2010-06-06T10:22:42Z</time>
      </trkpt>
      <trkpt lat="45.1321" lon="5.62628">
        <ele>1690</ele>
        <time>2010-06-06T10:22:43Z</time>
      </trkpt>
      <trkpt lat="45.13212" lon="5.62627">
        <ele>1690</ele>
        <time>2010-06-06T10:22:44Z</time>
      </trkpt>
      <trkpt lat="45.13214" lon="5.62626">
        <ele>1690</ele>
        <time>2010-06-06T10:22:45Z</time>
      </trkpt>
      <trkpt lat="45.13217" lon="5.62625">
        <ele>1690</ele>
        <time>2010-06-06T10:22:46Z</time>
      </trkpt>
      <trkpt lat="45.13219" lon="5.62623">
        <ele>1691</ele>
        <time>2010-06-06T10:22:47Z</time>
      </trkpt>
      <trkpt lat="45.13221" lon="5.62622">
        <ele>1691</ele>
        <time>2010-06-06T10:22:48Z</time>
      </trkpt>
      <trkpt lat="45.13224" lon="5.62621">
        <ele>1691</ele>
        <time>2010-06-06T10:22:49Z</time>
      </trkpt>
      <trkpt lat="45.13226" lon="5.6262">
        <ele>1691</ele>
        <time>2010-06-06T10:22:50Z</time>
      </trkpt>
      <trkpt lat="45.13228" lon="5.62619">
        <ele>1691</ele>
        <time>2010-06-06T10:22:51Z</time>
      </trkpt>
      <trkpt lat="45.1323" lon="5.62619">
        <ele>1691</ele>
        <time>2010-06-06T10:22:52Z</time>
      </trkpt>
      <trkpt lat="45.13233" lon="5.62619">
        <ele>1691</ele>
        <time>2010-06-06T10:22:53Z</time>
      </trkpt>
      <trkpt lat="45.13234" lon="5.62618">
        <ele>1692</ele>
        <time>2010-06-06T10:22:54Z</time>
      </trkpt>
      <trkpt lat="45.13235" lon="5.62617">
        <ele>1692</ele>
        <time>2010-06-06T10:22:55Z</time>
      </trkpt>
      <trkpt lat="45.13237" lon="5.62617">
        <ele>1692</ele>
        <time>2010-06-06T10:22:56Z</time>
      </trkpt>
      <trkpt lat="45.13238" lon="5.62616">
        <ele>1693</ele>
        <time>2010-06-06T10:22:57Z</time>
      </trkpt>
      <trkpt lat="45.1324" lon="5.62616">
        <ele>1693</ele>
        <time>2010-06-06T10:22:58Z</time>
      </trkpt>
      <trkpt lat="45.13241" lon="5.62616">
        <ele>1693</ele>
        <time>2010-06-06T10:22:59Z</time>
      </trkpt>
      <trkpt lat="45.13242" lon="5.62616">
        <ele>1693</ele>
        <time>2010-06-06T10:23:00Z</time>
      </trkpt>
      <trkpt lat="45.13244" lon="5.62615">
        <ele>1694</ele>
        <time>2010-06-06T10:23:01Z</time>
      </trkpt>
      <trkpt lat="45.13245" lon="5.62615">
        <ele>1694</ele>
        <time>2010-06-06T10:23:02Z</time>
      </trkpt>
      <trkpt lat="45.13246" lon="5.62615">
        <ele>1694</ele>
        <time>2010-06-06T10:23:03Z</time>
      </trkpt>
      <trkpt lat="45.13248" lon="5.62615">
        <ele>1694</ele>
        <time>2010-06-06T10:23:04Z</time>
      </trkpt>
      <trkpt lat="45.13249" lon="5.62615">
        <ele>1694</ele>
        <time>2010-06-06T10:23:05Z</time>
      </trkpt>
      <trkpt lat="45.13251" lon="5.62615">
        <ele>1694</ele>
        <time>2010-06-06T10:23:06Z</time>
      </trkpt>
      <trkpt lat="45.13252" lon="5.62615">
        <ele>1694</ele>
        <time>2010-06-06T10:23:07Z</time>
      </trkpt>
      <trkpt lat="45.13253" lon="5.62615">
        <ele>1694</ele>
        <time>2010-06-06T10:23:08Z</time>
      </trkpt>
      <trkpt lat="45.13255" lon="5.62615">
        <ele>1694</ele>
        <time>2010-06-06T10:23:09Z</time>
      </trkpt>
      <trkpt lat="45.13256" lon="5.62615">
        <ele>1694</ele>
        <time>2010-06-06T10:23:10Z</time>
      </trkpt>
      <trkpt lat="45.13258" lon="5.62615">
        <ele>1695</ele>
        <time>2010-06-06T10:23:11Z</time>
      </trkpt>
      <trkpt lat="45.13259" lon="5.62615">
        <ele>1695</ele>
        <time>2010-06-06T10:23:12Z</time>
      </trkpt>
      <trkpt lat="45.1326" lon="5.62616">
        <ele>1695</ele>
        <time>2010-06-06T10:23:13Z</time>
      </trkpt>
      <trkpt lat="45.13262" lon="5.62616">
        <ele>1695</ele>
        <time>2010-06-06T10:23:14Z</time>
      </trkpt>
      <trkpt lat="45.13263" lon="5.62616">
        <ele>1695</ele>
        <time>2010-06-06T10:23:15Z</time>
      </trkpt>
      <trkpt lat="45.13264" lon="5.62616">
        <ele>1695</ele>
        <time>2010-06-06T10:23:16Z</time>
      </trkpt>
      <trkpt lat="45.13266" lon="5.62615">
        <ele>1695</ele>
        <time>2010-06-06T10:23:17Z</time>
      </trkpt>
      <trkpt lat="45.13268" lon="5.62615">
        <ele>1695</ele>
        <time>2010-06-06T10:23:18Z</time>
      </trkpt>
      <trkpt lat="45.13271" lon="5.62615">
        <ele>1695</ele>
        <time>2010-06-06T10:23:19Z</time>
      </trkpt>
      <trkpt lat="45.13273" lon="5.62615">
        <ele>1695</ele>
        <time>2010-06-06T10:23:20Z</time>
      </trkpt>
      <trkpt lat="45.13276" lon="5.62614">
        <ele>1696</ele>
        <time>2010-06-06T10:23:21Z</time>
      </trkpt>
      <trkpt lat="45.13279" lon="5.62614">
        <ele>1696</ele>
        <time>2010-06-06T10:23:22Z</time>
      </trkpt>
      <trkpt lat="45.13281" lon="5.62614">
        <ele>1697</ele>
        <time>2010-06-06T10:23:23Z</time>
      </trkpt>
      <trkpt lat="45.13284" lon="5.62614">
        <ele>1697</ele>
        <time>2010-06-06T10:23:24Z</time>
      </trkpt>
      <trkpt lat="45.13287" lon="5.62614">
        <ele>1697</ele>
        <time>2010-06-06T10:23:25Z</time>
      </trkpt>
      <trkpt lat="45.1329" lon="5.62614">
        <ele>1698</ele>
        <time>2010-06-06T10:23:26Z</time>
      </trkpt>
      <trkpt lat="45.13293" lon="5.62614">
        <ele>1698</ele>
        <time>2010-06-06T10:23:27Z</time>
      </trkpt>
      <trkpt lat="45.13296" lon="5.62614">
        <ele>1698</ele>
        <time>2010-06-06T10:23:28Z</time>
      </trkpt>
      <trkpt lat="45.13299" lon="5.62614">
        <ele>1698</ele>
        <time>2010-06-06T10:23:29Z</time>
      </trkpt>
      <trkpt lat="45.13301" lon="5.62615">
        <ele>1698</ele>
        <time>2010-06-06T10:23:30Z</time>
      </trkpt>
      <trkpt lat="45.13304" lon="5.62615">
        <ele>1699</ele>
        <time>2010-06-06T10:23:31Z</time>
      </trkpt>
      <trkpt lat="45.13307" lon="5.62615">
        <ele>1699</ele>
        <time>2010-06-06T10:23:32Z</time>
      </trkpt>
      <trkpt lat="45.1331" lon="5.62615">
        <ele>1699</ele>
        <time>2010-06-06T10:23:33Z</time>
      </trkpt>
      <trkpt lat="45.13313" lon="5.62615">
        <ele>1699</ele>
        <time>2010-06-06T10:23:34Z</time>
      </trkpt>
      <trkpt lat="45.13316" lon="5.62615">
        <ele>1700</ele>
        <time>2010-06-06T10:23:35Z</time>
      </trkpt>
      <trkpt lat="45.13319" lon="5.62615">
        <ele>1700</ele>
        <time>2010-06-06T10:23:36Z</time>
      </trkpt>
      <trkpt lat="45.13322" lon="5.62615">
        <ele>1700</ele>
        <time>2010-06-06T10:23:37Z</time>
      </trkpt>
      <trkpt lat="45.13325" lon="5.62615">
        <ele>1701</ele>
        <time>2010-06-06T10:23:38Z</time>
      </trkpt>
      <trkpt lat="45.13328" lon="5.62615">
        <ele>1701</ele>
        <time>2010-06-06T10:23:39Z</time>
      </trkpt>
      <trkpt lat="45.13331" lon="5.62615">
        <ele>1701</ele>
        <time>2010-06-06T10:23:40Z</time>
      </trkpt>
      <trkpt lat="45.13334" lon="5.62616">
        <ele>1701</ele>
        <time>2010-06-06T10:23:41Z</time>
      </trkpt>
      <trkpt lat="45.13337" lon="5.62616">
        <ele>1702</ele>
        <time>2010-06-06T10:23:42Z</time>
      </trkpt>
      <trkpt lat="45.1334" lon="5.62616">
        <ele>1702</ele>
        <time>2010-06-06T10:23:43Z</time>
      </trkpt>
      <trkpt lat="45.13343" lon="5.62617">
        <ele>1702</ele>
        <time>2010-06-06T10:23:44Z</time>
      </trkpt>
      <trkpt lat="45.13345" lon="5.62617">
        <ele>1702</ele>
        <time>2010-06-06T10:23:45Z</time>
      </trkpt>
      <trkpt lat="45.13348" lon="5.62617">
        <ele>1703</ele>
        <time>2010-06-06T10:23:46Z</time>
      </trkpt>
      <trkpt lat="45.13351" lon="5.62618">
        <ele>1703</ele>
        <time>2010-06-06T10:23:47Z</time>
      </trkpt>
      <trkpt lat="45.13354" lon="5.62618">
        <ele>1703</ele>
        <time>2010-06-06T10:23:48Z</time>
      </trkpt>
      <trkpt lat="45.13357" lon="5.62619">
        <ele>1703</ele>
        <time>2010-06-06T10:23:49Z</time>
      </trkpt>
      <trkpt lat="45.1336" lon="5.6262">
        <ele>1704</ele>
        <time>2010-06-06T10:23:50Z</time>
      </trkpt>
      <trkpt lat="45.13363" lon="5.62621">
        <ele>1704</ele>
        <time>2010-06-06T10:23:51Z</time>
      </trkpt>
      <trkpt lat="45.13366" lon="5.62622">
        <ele>1704</ele>
        <time>2010-06-06T10:23:52Z</time>
      </trkpt>
      <trkpt lat="45.13369" lon="5.62623">
        <ele>1704</ele>
        <time>2010-06-06T10:23:53Z</time>
      </trkpt>
      <trkpt lat="45.13372" lon="5.62624">
        <ele>1704</ele>
        <time>2010-06-06T10:23:54Z</time>
      </trkpt>
      <trkpt lat="45.13375" lon="5.62625">
        <ele>1704</ele>
        <time>2010-06-06T10:23:55Z</time>
      </trkpt>
      <trkpt lat="45.13378" lon="5.62626">
        <ele>1704</ele>
        <time>2010-06-06T10:23:56Z</time>
      </trkpt>
      <trkpt lat="45.1338" lon="5.62627">
        <ele>1705</ele>
        <time>2010-06-06T10:23:57Z</time>
      </trkpt>
      <trkpt lat="45.13383" lon="5.62629">
        <ele>1705</ele>
        <time>2010-06-06T10:23:58Z</time>
      </trkpt>
      <trkpt lat="45.13385" lon="5.6263">
        <ele>1705</ele>
        <time>2010-06-06T10:23:59Z</time>
      </trkpt>
      <trkpt lat="45.13388" lon="5.62631">
        <ele>1705</ele>
        <time>2010-06-06T10:24:00Z</time>
      </trkpt>
      <trkpt lat="45.13391" lon="5.62633">
        <ele>1705</ele>
        <time>2010-06-06T10:24:01Z</time>
      </trkpt>
      <trkpt lat="45.13393" lon="5.62634">
        <ele>1705</ele>
        <time>2010-06-06T10:24:02Z</time>
      </trkpt>
      <trkpt lat="45.13396" lon="5.62635">
        <ele>1705</ele>
        <time>2010-06-06T10:24:03Z</time>
      </trkpt>
      <trkpt lat="45.13399" lon="5.62637">
        <ele>1705</ele>
        <time>2010-06-06T10:24:04Z</time>
      </trkpt>
      <trkpt lat="45.13401" lon="5.62639">
        <ele>1706</ele>
        <time>2010-06-06T10:24:05Z</time>
      </trkpt>
      <trkpt lat="45.13404" lon="5.6264">
        <ele>1706</ele>
        <time>2010-06-06T10:24:06Z</time>
      </trkpt>
      <trkpt lat="45.13406" lon="5.62642">
        <ele>1706</ele>
        <time>2010-06-06T10:24:07Z</time>
      </trkpt>
      <trkpt lat="45.13409" lon="5.62643">
        <ele>1706</ele>
        <time>2010-06-06T10:24:08Z</time>
      </trkpt>
      <trkpt lat="45.13411" lon="5.62645">
        <ele>1706</ele>
        <time>2010-06-06T10:24:09Z</time>
      </trkpt>
      <trkpt lat="45.13414" lon="5.62647">
        <ele>1706</ele>
        <time>2010-06-06T10:24:10Z</time>
      </trkpt>
      <trkpt lat="45.13416" lon="5.62648">
        <ele>1706</ele>
        <time>2010-06-06T10:24:11Z</time>
      </trkpt>
      <trkpt lat="45.13419" lon="5.62649">
        <ele>1706</ele>
        <time>2010-06-06T10:24:12Z</time>
      </trkpt>
      <trkpt lat="45.13421" lon="5.62651">
        <ele>1707</ele>
        <time>2010-06-06T10:24:13Z</time>
      </trkpt>
      <trkpt lat="45.13423" lon="5.62653">
        <ele>1707</ele>
        <time>2010-06-06T10:24:14Z</time>
      </trkpt>
      <trkpt lat="45.13425" lon="5.62655">
        <ele>1707</ele>
        <time>2010-06-06T10:24:15Z</time>
      </trkpt>
      <trkpt lat="45.13428" lon="5.62657">
        <ele>1707</ele>
        <time>2010-06-06T10:24:16Z</time>
      </trkpt>
      <trkpt lat="45.1343" lon="5.6266">
        <ele>1707</ele>
        <time>2010-06-06T10:24:17Z</time>
      </trkpt>
      <trkpt lat="45.13432" lon="5.62662">
        <ele>1707</ele>
        <time>2010-06-06T10:24:18Z</time>
      </trkpt>
      <trkpt lat="45.13435" lon="5.62664">
        <ele>1707</ele>
        <time>2010-06-06T10:24:19Z</time>
      </trkpt>
      <trkpt lat="45.13437" lon="5.62667">
        <ele>1707</ele>
        <time>2010-06-06T10:24:20Z</time>
      </trkpt>
      <trkpt lat="45.1344" lon="5.62669">
        <ele>1707</ele>
        <time>2010-06-06T10:24:21Z</time>
      </trkpt>
      <trkpt lat="45.13442" lon="5.62671">
        <ele>1707</ele>
        <time>2010-06-06T10:24:22Z</time>
      </trkpt>
      <trkpt lat="45.13444" lon="5.62673">
        <ele>1707</ele>
        <time>2010-06-06T10:24:23Z</time>
      </trkpt>
      <trkpt lat="45.13447" lon="5.62676">
        <ele>1707</ele>
        <time>2010-06-06T10:24:24Z</time>
      </trkpt>
      <trkpt lat="45.1345" lon="5.62678">
        <ele>1707</ele>
        <time>2010-06-06T10:24:25Z</time>
      </trkpt>
      <trkpt lat="45.13452" lon="5.6268">
        <ele>1707</ele>
        <time>2010-06-06T10:24:26Z</time>
      </trkpt>
      <trkpt lat="45.13455" lon="5.62682">
        <ele>1707</ele>
        <time>2010-06-06T10:24:27Z</time>
      </trkpt>
      <trkpt lat="45.13457" lon="5.62683">
        <ele>1707</ele>
        <time>2010-06-06T10:24:28Z</time>
      </trkpt>
      <trkpt lat="45.13459" lon="5.62685">
        <ele>1708</ele>
        <time>2010-06-06T10:24:29Z</time>
      </trkpt>
      <trkpt lat="45.13461" lon="5.62687">
        <ele>1708</ele>
        <time>2010-06-06T10:24:30Z</time>
      </trkpt>
      <trkpt lat="45.13463" lon="5.6269">
        <ele>1708</ele>
        <time>2010-06-06T10:24:31Z</time>
      </trkpt>
      <trkpt lat="45.13466" lon="5.62692">
        <ele>1708</ele>
        <time>2010-06-06T10:24:32Z</time>
      </trkpt>
      <trkpt lat="45.13468" lon="5.62694">
        <ele>1709</ele>
        <time>2010-06-06T10:24:33Z</time>
      </trkpt>
      <trkpt lat="45.13469" lon="5.62697">
        <ele>1709</ele>
        <time>2010-06-06T10:24:34Z</time>
      </trkpt>
      <trkpt lat="45.13471" lon="5.627">
        <ele>1709</ele>
        <time>2010-06-06T10:24:35Z</time>
      </trkpt>
      <trkpt lat="45.13472" lon="5.62703">
        <ele>1709</ele>
        <time>2010-06-06T10:24:36Z</time>
      </trkpt>
      <trkpt lat="45.13473" lon="5.62706">
        <ele>1710</ele>
        <time>2010-06-06T10:24:37Z</time>
      </trkpt>
      <trkpt lat="45.13475" lon="5.62708">
        <ele>1710</ele>
        <time>2010-06-06T10:24:38Z</time>
      </trkpt>
      <trkpt lat="45.13475" lon="5.6271">
        <ele>1710</ele>
        <time>2010-06-06T10:24:39Z</time>
      </trkpt>
      <trkpt lat="45.13476" lon="5.62712">
        <ele>1710</ele>
        <time>2010-06-06T10:24:40Z</time>
      </trkpt>
      <trkpt lat="45.13476" lon="5.62715">
        <ele>1711</ele>
        <time>2010-06-06T10:24:41Z</time>
      </trkpt>
      <trkpt lat="45.13477" lon="5.62717">
        <ele>1711</ele>
        <time>2010-06-06T10:24:42Z</time>
      </trkpt>
      <trkpt lat="45.13478" lon="5.62719">
        <ele>1711</ele>
        <time>2010-06-06T10:24:43Z</time>
      </trkpt>
      <trkpt lat="45.13478" lon="5.6272">
        <ele>1711</ele>
        <time>2010-06-06T10:24:44Z</time>
      </trkpt>
      <trkpt lat="45.13479" lon="5.62722">
        <ele>1711</ele>
        <time>2010-06-06T10:24:45Z</time>
      </trkpt>
      <trkpt lat="45.13479" lon="5.62724">
        <ele>1711</ele>
        <time>2010-06-06T10:24:46Z</time>
      </trkpt>
      <trkpt lat="45.1348" lon="5.62726">
        <ele>1711</ele>
        <time>2010-06-06T10:24:47Z</time>
      </trkpt>
      <trkpt lat="45.1348" lon="5.62728">
        <ele>1711</ele>
        <time>2010-06-06T10:24:48Z</time>
      </trkpt>
      <trkpt lat="45.13481" lon="5.6273">
        <ele>1711</ele>
        <time>2010-06-06T10:24:49Z</time>
      </trkpt>
      <trkpt lat="45.13482" lon="5.62732">
        <ele>1711</ele>
        <time>2010-06-06T10:24:50Z</time>
      </trkpt>
      <trkpt lat="45.13482" lon="5.62735">
        <ele>1711</ele>
        <time>2010-06-06T10:24:51Z</time>
      </trkpt>
      <trkpt lat="45.13483" lon="5.62737">
        <ele>1711</ele>
        <time>2010-06-06T10:24:52Z</time>
      </trkpt>
      <trkpt lat="45.13483" lon="5.62739">
        <ele>1711</ele>
        <time>2010-06-06T10:24:53Z</time>
      </trkpt>
      <trkpt lat="45.13484" lon="5.62741">
        <ele>1711</ele>
        <time>2010-06-06T10:24:54Z</time>
      </trkpt>
      <trkpt lat="45.13485" lon="5.62743">
        <ele>1711</ele>
        <time>2010-06-06T10:24:55Z</time>
      </trkpt>
      <trkpt lat="45.13485" lon="5.62744">
        <ele>1711</ele>
        <time>2010-06-06T10:24:56Z</time>
      </trkpt>
      <trkpt lat="45.13486" lon="5.62746">
        <ele>1711</ele>
        <time>2010-06-06T10:24:57Z</time>
      </trkpt>
      <trkpt lat="45.13486" lon="5.62748">
        <ele>1711</ele>
        <time>2010-06-06T10:24:58Z</time>
      </trkpt>
      <trkpt lat="45.13487" lon="5.62751">
        <ele>1711</ele>
        <time>2010-06-06T10:24:59Z</time>
      </trkpt>
      <trkpt lat="45.13488" lon="5.62755">
        <ele>1711</ele>
        <time>2010-06-06T10:25:00Z</time>
      </trkpt>
      <trkpt lat="45.13489" lon="5.62759">
        <ele>1711</ele>
        <time>2010-06-06T10:25:01Z</time>
      </trkpt>
      <trkpt lat="45.13489" lon="5.62763">
        <ele>1711</ele>
        <time>2010-06-06T10:25:02Z</time>
      </trkpt>
      <trkpt lat="45.13489" lon="5.62767">
        <ele>1711</ele>
        <time>2010-06-06T10:25:03Z</time>
      </trkpt>
      <trkpt lat="45.13489" lon="5.62771">
        <ele>1712</ele>
        <time>2010-06-06T10:25:04Z</time>
      </trkpt>
      <trkpt lat="45.1349" lon="5.62775">
        <ele>1712</ele>
        <time>2010-06-06T10:25:05Z</time>
      </trkpt>
      <trkpt lat="45.1349" lon="5.62779">
        <ele>1712</ele>
        <time>2010-06-06T10:25:06Z</time>
      </trkpt>
      <trkpt lat="45.13491" lon="5.62783">
        <ele>1712</ele>
        <time>2010-06-06T10:25:07Z</time>
      </trkpt>
      <trkpt lat="45.13491" lon="5.62787">
        <ele>1713</ele>
        <time>2010-06-06T10:25:08Z</time>
      </trkpt>
      <trkpt lat="45.13491" lon="5.62791">
        <ele>1713</ele>
        <time>2010-06-06T10:25:09Z</time>
      </trkpt>
      <trkpt lat="45.13491" lon="5.62794">
        <ele>1713</ele>
        <time>2010-06-06T10:25:10Z</time>
      </trkpt>
      <trkpt lat="45.13491" lon="5.62799">
        <ele>1713</ele>
        <time>2010-06-06T10:25:11Z</time>
      </trkpt>
      <trkpt lat="45.13491" lon="5.62803">
        <ele>1713</ele>
        <time>2010-06-06T10:25:12Z</time>
      </trkpt>
      <trkpt lat="45.1349" lon="5.62807">
        <ele>1713</ele>
        <time>2010-06-06T10:25:13Z</time>
      </trkpt>
      <trkpt lat="45.13491" lon="5.62811">
        <ele>1714</ele>
        <time>2010-06-06T10:25:14Z</time>
      </trkpt>
      <trkpt lat="45.13491" lon="5.62815">
        <ele>1714</ele>
        <time>2010-06-06T10:25:15Z</time>
      </trkpt>
      <trkpt lat="45.1349" lon="5.6282">
        <ele>1714</ele>
        <time>2010-06-06T10:25:16Z</time>
      </trkpt>
      <trkpt lat="45.1349" lon="5.62824">
        <ele>1714</ele>
        <time>2010-06-06T10:25:17Z</time>
      </trkpt>
      <trkpt lat="45.1349" lon="5.62828">
        <ele>1714</ele>
        <time>2010-06-06T10:25:18Z</time>
      </trkpt>
      <trkpt lat="45.1349" lon="5.62832">
        <ele>1714</ele>
        <time>2010-06-06T10:25:19Z</time>
      </trkpt>
      <trkpt lat="45.13491" lon="5.62836">
        <ele>1714</ele>
        <time>2010-06-06T10:25:20Z</time>
      </trkpt>
      <trkpt lat="45.13491" lon="5.62841">
        <ele>1714</ele>
        <time>2010-06-06T10:25:21Z</time>
      </trkpt>
      <trkpt lat="45.13491" lon="5.62845">
        <ele>1714</ele>
        <time>2010-06-06T10:25:22Z</time>
      </trkpt>
      <trkpt lat="45.1349" lon="5.62849">
        <ele>1714</ele>
        <time>2010-06-06T10:25:23Z</time>
      </trkpt>
      <trkpt lat="45.13491" lon="5.62853">
        <ele>1714</ele>
        <time>2010-06-06T10:25:24Z</time>
      </trkpt>
      <trkpt lat="45.13492" lon="5.62857">
        <ele>1714</ele>
        <time>2010-06-06T10:25:25Z</time>
      </trkpt>
      <trkpt lat="45.13492" lon="5.62861">
        <ele>1714</ele>
        <time>2010-06-06T10:25:26Z</time>
      </trkpt>
      <trkpt lat="45.13493" lon="5.62865">
        <ele>1714</ele>
        <time>2010-06-06T10:25:27Z</time>
      </trkpt>
      <trkpt lat="45.13494" lon="5.62869">
        <ele>1714</ele>
        <time>2010-06-06T10:25:28Z</time>
      </trkpt>
      <trkpt lat="45.13494" lon="5.62873">
        <ele>1714</ele>
        <time>2010-06-06T10:25:29Z</time>
      </trkpt>
      <trkpt lat="45.13495" lon="5.62877">
        <ele>1714</ele>
        <time>2010-06-06T10:25:30Z</time>
      </trkpt>
      <trkpt lat="45.13496" lon="5.62881">
        <ele>1714</ele>
        <time>2010-06-06T10:25:31Z</time>
      </trkpt>
      <trkpt lat="45.13496" lon="5.62885">
        <ele>1714</ele>
        <time>2010-06-06T10:25:32Z</time>
      </trkpt>
      <trkpt lat="45.13497" lon="5.62889">
        <ele>1714</ele>
        <time>2010-06-06T10:25:33Z</time>
      </trkpt>
      <trkpt lat="45.13497" lon="5.62893">
        <ele>1714</ele>
        <time>2010-06-06T10:25:34Z</time>
      </trkpt>
      <trkpt lat="45.13498" lon="5.62897">
        <ele>1714</ele>
        <time>2010-06-06T10:25:35Z</time>
      </trkpt>
      <trkpt lat="45.13498" lon="5.62901">
        <ele>1714</ele>
        <time>2010-06-06T10:25:36Z</time>
      </trkpt>
      <trkpt lat="45.13499" lon="5.62905">
        <ele>1714</ele>
        <time>2010-06-06T10:25:37Z</time>
      </trkpt>
      <trkpt lat="45.13499" lon="5.62909">
        <ele>1714</ele>
        <time>2010-06-06T10:25:38Z</time>
      </trkpt>
      <trkpt lat="45.135" lon="5.62913">
        <ele>1714</ele>
        <time>2010-06-06T10:25:39Z</time>
      </trkpt>
      <trkpt lat="45.13501" lon="5.62917">
        <ele>1714</ele>
        <time>2010-06-06T10:25:40Z</time>
      </trkpt>
      <trkpt lat="45.13502" lon="5.62921">
        <ele>1714</ele>
        <time>2010-06-06T10:25:41Z</time>
      </trkpt>
      <trkpt lat="45.13503" lon="5.62924">
        <ele>1714</ele>
        <time>2010-06-06T10:25:42Z</time>
      </trkpt>
      <trkpt lat="45.13504" lon="5.62927">
        <ele>1714</ele>
        <time>2010-06-06T10:25:43Z</time>
      </trkpt>
      <trkpt lat="45.13505" lon="5.62929">
        <ele>1714</ele>
        <time>2010-06-06T10:25:44Z</time>
      </trkpt>
      <trkpt lat="45.13507" lon="5.62928">
        <ele>1714</ele>
        <time>2010-06-06T10:25:46Z</time>
      </trkpt>
      <trkpt lat="45.13508" lon="5.62925">
        <ele>1713</ele>
        <time>2010-06-06T10:25:47Z</time>
      </trkpt>
      <trkpt lat="45.13509" lon="5.6292">
        <ele>1712</ele>
        <time>2010-06-06T10:25:48Z</time>
      </trkpt>
      <trkpt lat="45.1351" lon="5.62916">
        <ele>1712</ele>
        <time>2010-06-06T10:25:49Z</time>
      </trkpt>
      <trkpt lat="45.1351" lon="5.62911">
        <ele>1711</ele>
        <time>2010-06-06T10:25:50Z</time>
      </trkpt>
      <trkpt lat="45.13511" lon="5.62906">
        <ele>1710</ele>
        <time>2010-06-06T10:25:51Z</time>
      </trkpt>
      <trkpt lat="45.13511" lon="5.62901">
        <ele>1710</ele>
        <time>2010-06-06T10:25:52Z</time>
      </trkpt>
      <trkpt lat="45.13512" lon="5.62896">
        <ele>1709</ele>
        <time>2010-06-06T10:25:53Z</time>
      </trkpt>
      <trkpt lat="45.13512" lon="5.62891">
        <ele>1709</ele>
        <time>2010-06-06T10:25:54Z</time>
      </trkpt>
      <trkpt lat="45.13513" lon="5.62887">
        <ele>1708</ele>
        <time>2010-06-06T10:25:55Z</time>
      </trkpt>
      <trkpt lat="45.13514" lon="5.62882">
        <ele>1708</ele>
        <time>2010-06-06T10:25:56Z</time>
      </trkpt>
      <trkpt lat="45.13515" lon="5.62877">
        <ele>1707</ele>
        <time>2010-06-06T10:25:57Z</time>
      </trkpt>
      <trkpt lat="45.13517" lon="5.62871">
        <ele>1707</ele>
        <time>2010-06-06T10:25:58Z</time>
      </trkpt>
      <trkpt lat="45.13518" lon="5.62866">
        <ele>1707</ele>
        <time>2010-06-06T10:25:59Z</time>
      </trkpt>
      <trkpt lat="45.13519" lon="5.62861">
        <ele>1707</ele>
        <time>2010-06-06T10:26:00Z</time>
      </trkpt>
      <trkpt lat="45.1352" lon="5.62857">
        <ele>1706</ele>
        <time>2010-06-06T10:26:01Z</time>
      </trkpt>
      <trkpt lat="45.13521" lon="5.62851">
        <ele>1706</ele>
        <time>2010-06-06T10:26:02Z</time>
      </trkpt>
      <trkpt lat="45.13522" lon="5.62846">
        <ele>1706</ele>
        <time>2010-06-06T10:26:03Z</time>
      </trkpt>
      <trkpt lat="45.13523" lon="5.62841">
        <ele>1705</ele>
        <time>2010-06-06T10:26:04Z</time>
      </trkpt>
      <trkpt lat="45.13524" lon="5.62836">
        <ele>1705</ele>
        <time>2010-06-06T10:26:05Z</time>
      </trkpt>
      <trkpt lat="45.13525" lon="5.62831">
        <ele>1704</ele>
        <time>2010-06-06T10:26:06Z</time>
      </trkpt>
      <trkpt lat="45.13525" lon="5.62826">
        <ele>1704</ele>
        <time>2010-06-06T10:26:07Z</time>
      </trkpt>
      <trkpt lat="45.13526" lon="5.62822">
        <ele>1703</ele>
        <time>2010-06-06T10:26:08Z</time>
      </trkpt>
      <trkpt lat="45.13528" lon="5.62817">
        <ele>1703</ele>
        <time>2010-06-06T10:26:09Z</time>
      </trkpt>
      <trkpt lat="45.13529" lon="5.62813">
        <ele>1702</ele>
        <time>2010-06-06T10:26:10Z</time>
      </trkpt>
      <trkpt lat="45.1353" lon="5.62808">
        <ele>1702</ele>
        <time>2010-06-06T10:26:11Z</time>
      </trkpt>
      <trkpt lat="45.1353" lon="5.62803">
        <ele>1701</ele>
        <time>2010-06-06T10:26:12Z</time>
      </trkpt>
      <trkpt lat="45.13531" lon="5.62797">
        <ele>1701</ele>
        <time>2010-06-06T10:26:13Z</time>
      </trkpt>
      <trkpt lat="45.13532" lon="5.62793">
        <ele>1701</ele>
        <time>2010-06-06T10:26:14Z</time>
      </trkpt>
      <trkpt lat="45.13533" lon="5.62788">
        <ele>1700</ele>
        <time>2010-06-06T10:26:15Z</time>
      </trkpt>
      <trkpt lat="45.13534" lon="5.62783">
        <ele>1699</ele>
        <time>2010-06-06T10:26:16Z</time>
      </trkpt>
      <trkpt lat="45.13535" lon="5.62778">
        <ele>1699</ele>
        <time>2010-06-06T10:26:17Z</time>
      </trkpt>
      <trkpt lat="45.13537" lon="5.62773">
        <ele>1698</ele>
        <time>2010-06-06T10:26:18Z</time>
      </trkpt>
      <trkpt lat="45.13539" lon="5.62769">
        <ele>1698</ele>
        <time>2010-06-06T10:26:19Z</time>
      </trkpt>
      <trkpt lat="45.1354" lon="5.62765">
        <ele>1697</ele>
        <time>2010-06-06T10:26:20Z</time>
      </trkpt>
      <trkpt lat="45.13541" lon="5.6276">
        <ele>1697</ele>
        <time>2010-06-06T10:26:21Z</time>
      </trkpt>
      <trkpt lat="45.13542" lon="5.62755">
        <ele>1696</ele>
        <time>2010-06-06T10:26:22Z</time>
      </trkpt>
      <trkpt lat="45.13543" lon="5.62751">
        <ele>1696</ele>
        <time>2010-06-06T10:26:23Z</time>
      </trkpt>
      <trkpt lat="45.13544" lon="5.62746">
        <ele>1695</ele>
        <time>2010-06-06T10:26:24Z</time>
      </trkpt>
      <trkpt lat="45.13545" lon="5.62742">
        <ele>1695</ele>
        <time>2010-06-06T10:26:25Z</time>
      </trkpt>
      <trkpt lat="45.13546" lon="5.62737">
        <ele>1695</ele>
        <time>2010-06-06T10:26:26Z</time>
      </trkpt>
      <trkpt lat="45.13547" lon="5.62732">
        <ele>1694</ele>
        <time>2010-06-06T10:26:27Z</time>
      </trkpt>
      <trkpt lat="45.13548" lon="5.62728">
        <ele>1694</ele>
        <time>2010-06-06T10:26:28Z</time>
      </trkpt>
      <trkpt lat="45.13549" lon="5.62723">
        <ele>1693</ele>
        <time>2010-06-06T10:26:29Z</time>
      </trkpt>
      <trkpt lat="45.13549" lon="5.62718">
        <ele>1693</ele>
        <time>2010-06-06T10:26:30Z</time>
      </trkpt>
      <trkpt lat="45.1355" lon="5.62713">
        <ele>1693</ele>
        <time>2010-06-06T10:26:31Z</time>
      </trkpt>
      <trkpt lat="45.1355" lon="5.62708">
        <ele>1693</ele>
        <time>2010-06-06T10:26:32Z</time>
      </trkpt>
      <trkpt lat="45.1355" lon="5.62703">
        <ele>1692</ele>
        <time>2010-06-06T10:26:33Z</time>
      </trkpt>
      <trkpt lat="45.1355" lon="5.62698">
        <ele>1692</ele>
        <time>2010-06-06T10:26:34Z</time>
      </trkpt>
      <trkpt lat="45.1355" lon="5.62694">
        <ele>1692</ele>
        <time>2010-06-06T10:26:35Z</time>
      </trkpt>
      <trkpt lat="45.1355" lon="5.62688">
        <ele>1692</ele>
        <time>2010-06-06T10:26:36Z</time>
      </trkpt>
      <trkpt lat="45.1355" lon="5.62683">
        <ele>1691</ele>
        <time>2010-06-06T10:26:37Z</time>
      </trkpt>
      <trkpt lat="45.13551" lon="5.62678">
        <ele>1691</ele>
        <time>2010-06-06T10:26:38Z</time>
      </trkpt>
      <trkpt lat="45.13552" lon="5.62672">
        <ele>1691</ele>
        <time>2010-06-06T10:26:39Z</time>
      </trkpt>
      <trkpt lat="45.13553" lon="5.62667">
        <ele>1690</ele>
        <time>2010-06-06T10:26:40Z</time>
      </trkpt>
      <trkpt lat="45.13554" lon="5.62662">
        <ele>1690</ele>
        <time>2010-06-06T10:26:41Z</time>
      </trkpt>
      <trkpt lat="45.13554" lon="5.62657">
        <ele>1690</ele>
        <time>2010-06-06T10:26:42Z</time>
      </trkpt>
      <trkpt lat="45.13555" lon="5.62652">
        <ele>1690</ele>
        <time>2010-06-06T10:26:43Z</time>
      </trkpt>
      <trkpt lat="45.13556" lon="5.62647">
        <ele>1689</ele>
        <time>2010-06-06T10:26:44Z</time>
      </trkpt>
      <trkpt lat="45.13557" lon="5.62643">
        <ele>1689</ele>
        <time>2010-06-06T10:26:45Z</time>
      </trkpt>
      <trkpt lat="45.13557" lon="5.62638">
        <ele>1688</ele>
        <time>2010-06-06T10:26:46Z</time>
      </trkpt>
      <trkpt lat="45.13557" lon="5.62633">
        <ele>1688</ele>
        <time>2010-06-06T10:26:47Z</time>
      </trkpt>
      <trkpt lat="45.13557" lon="5.62628">
        <ele>1687</ele>
        <time>2010-06-06T10:26:48Z</time>
      </trkpt>
      <trkpt lat="45.13557" lon="5.62623">
        <ele>1687</ele>
        <time>2010-06-06T10:26:49Z</time>
      </trkpt>
      <trkpt lat="45.13557" lon="5.62618">
        <ele>1687</ele>
        <time>2010-06-06T10:26:50Z</time>
      </trkpt>
      <trkpt lat="45.13557" lon="5.62613">
        <ele>1686</ele>
        <time>2010-06-06T10:26:51Z</time>
      </trkpt>
      <trkpt lat="45.13556" lon="5.62608">
        <ele>1686</ele>
        <time>2010-06-06T10:26:52Z</time>
      </trkpt>
      <trkpt lat="45.13555" lon="5.62603">
        <ele>1685</ele>
        <time>2010-06-06T10:26:53Z</time>
      </trkpt>
      <trkpt lat="45.13555" lon="5.62599">
        <ele>1685</ele>
        <time>2010-06-06T10:26:54Z</time>
      </trkpt>
      <trkpt lat="45.13553" lon="5.62595">
        <ele>1685</ele>
        <time>2010-06-06T10:26:55Z</time>
      </trkpt>
      <trkpt lat="45.13552" lon="5.62589">
        <ele>1684</ele>
        <time>2010-06-06T10:26:56Z</time>
      </trkpt>
      <trkpt lat="45.1355" lon="5.62585">
        <ele>1684</ele>
        <time>2010-06-06T10:26:57Z</time>
      </trkpt>
      <trkpt lat="45.13548" lon="5.62581">
        <ele>1684</ele>
        <time>2010-06-06T10:26:58Z</time>
      </trkpt>
      <trkpt lat="45.13546" lon="5.62577">
        <ele>1684</ele>
        <time>2010-06-06T10:26:59Z</time>
      </trkpt>
      <trkpt lat="45.13543" lon="5.62574">
        <ele>1683</ele>
        <time>2010-06-06T10:27:00Z</time>
      </trkpt>
      <trkpt lat="45.13541" lon="5.6257">
        <ele>1683</ele>
        <time>2010-06-06T10:27:01Z</time>
      </trkpt>
      <trkpt lat="45.13538" lon="5.62567">
        <ele>1682</ele>
        <time>2010-06-06T10:27:02Z</time>
      </trkpt>
      <trkpt lat="45.13535" lon="5.62563">
        <ele>1682</ele>
        <time>2010-06-06T10:27:03Z</time>
      </trkpt>
      <trkpt lat="45.13531" lon="5.6256">
        <ele>1682</ele>
        <time>2010-06-06T10:27:04Z</time>
      </trkpt>
      <trkpt lat="45.13528" lon="5.62557">
        <ele>1681</ele>
        <time>2010-06-06T10:27:05Z</time>
      </trkpt>
      <trkpt lat="45.13525" lon="5.62553">
        <ele>1681</ele>
        <time>2010-06-06T10:27:06Z</time>
      </trkpt>
      <trkpt lat="45.13523" lon="5.62549">
        <ele>1681</ele>
        <time>2010-06-06T10:27:07Z</time>
      </trkpt>
      <trkpt lat="45.13521" lon="5.62545">
        <ele>1680</ele>
        <time>2010-06-06T10:27:08Z</time>
      </trkpt>
      <trkpt lat="45.13519" lon="5.62541">
        <ele>1680</ele>
        <time>2010-06-06T10:27:09Z</time>
      </trkpt>
      <trkpt lat="45.13517" lon="5.62537">
        <ele>1679</ele>
        <time>2010-06-06T10:27:10Z</time>
      </trkpt>
      <trkpt lat="45.13515" lon="5.62533">
        <ele>1679</ele>
        <time>2010-06-06T10:27:11Z</time>
      </trkpt>
      <trkpt lat="45.13513" lon="5.62529">
        <ele>1678</ele>
        <time>2010-06-06T10:27:12Z</time>
      </trkpt>
      <trkpt lat="45.1351" lon="5.62526">
        <ele>1677</ele>
        <time>2010-06-06T10:27:13Z</time>
      </trkpt>
      <trkpt lat="45.13507" lon="5.62523">
        <ele>1677</ele>
        <time>2010-06-06T10:27:14Z</time>
      </trkpt>
      <trkpt lat="45.13504" lon="5.6252">
        <ele>1677</ele>
        <time>2010-06-06T10:27:15Z</time>
      </trkpt>
      <trkpt lat="45.13501" lon="5.62517">
        <ele>1676</ele>
        <time>2010-06-06T10:27:16Z</time>
      </trkpt>
      <trkpt lat="45.13498" lon="5.62513">
        <ele>1676</ele>
        <time>2010-06-06T10:27:17Z</time>
      </trkpt>
      <trkpt lat="45.13495" lon="5.6251">
        <ele>1676</ele>
        <time>2010-06-06T10:27:18Z</time>
      </trkpt>
      <trkpt lat="45.13492" lon="5.62506">
        <ele>1676</ele>
        <time>2010-06-06T10:27:19Z</time>
      </trkpt>
      <trkpt lat="45.1349" lon="5.62502">
        <ele>1676</ele>
        <time>2010-06-06T10:27:20Z</time>
      </trkpt>
      <trkpt lat="45.13487" lon="5.62499">
        <ele>1676</ele>
        <time>2010-06-06T10:27:21Z</time>
      </trkpt>
      <trkpt lat="45.13484" lon="5.62495">
        <ele>1676</ele>
        <time>2010-06-06T10:27:22Z</time>
      </trkpt>
      <trkpt lat="45.13481" lon="5.62492">
        <ele>1676</ele>
        <time>2010-06-06T10:27:23Z</time>
      </trkpt>
      <trkpt lat="45.13479" lon="5.62488">
        <ele>1675</ele>
        <time>2010-06-06T10:27:24Z</time>
      </trkpt>
      <trkpt lat="45.13476" lon="5.62484">
        <ele>1675</ele>
        <time>2010-06-06T10:27:25Z</time>
      </trkpt>
      <trkpt lat="45.13473" lon="5.6248">
        <ele>1675</ele>
        <time>2010-06-06T10:27:26Z</time>
      </trkpt>
      <trkpt lat="45.1347" lon="5.62477">
        <ele>1675</ele>
        <time>2010-06-06T10:27:27Z</time>
      </trkpt>
      <trkpt lat="45.13467" lon="5.62474">
        <ele>1675</ele>
        <time>2010-06-06T10:27:28Z</time>
      </trkpt>
      <trkpt lat="45.13464" lon="5.62471">
        <ele>1675</ele>
        <time>2010-06-06T10:27:29Z</time>
      </trkpt>
      <trkpt lat="45.1346" lon="5.62468">
        <ele>1675</ele>
        <time>2010-06-06T10:27:30Z</time>
      </trkpt>
      <trkpt lat="45.13457" lon="5.62465">
        <ele>1674</ele>
        <time>2010-06-06T10:27:31Z</time>
      </trkpt>
      <trkpt lat="45.13455" lon="5.62461">
        <ele>1674</ele>
        <time>2010-06-06T10:27:32Z</time>
      </trkpt>
      <trkpt lat="45.13452" lon="5.62458">
        <ele>1674</ele>
        <time>2010-06-06T10:27:33Z</time>
      </trkpt>
      <trkpt lat="45.13449" lon="5.62455">
        <ele>1674</ele>
        <time>2010-06-06T10:27:34Z</time>
      </trkpt>
      <trkpt lat="45.13446" lon="5.62452">
        <ele>1674</ele>
        <time>2010-06-06T10:27:35Z</time>
      </trkpt>
      <trkpt lat="45.13442" lon="5.6245">
        <ele>1674</ele>
        <time>2010-06-06T10:27:36Z</time>
      </trkpt>
      <trkpt lat="45.13439" lon="5.62447">
        <ele>1674</ele>
        <time>2010-06-06T10:27:37Z</time>
      </trkpt>
      <trkpt lat="45.13437" lon="5.62443">
        <ele>1674</ele>
        <time>2010-06-06T10:27:38Z</time>
      </trkpt>
      <trkpt lat="45.13434" lon="5.6244">
        <ele>1674</ele>
        <time>2010-06-06T10:27:39Z</time>
      </trkpt>
      <trkpt lat="45.13432" lon="5.62437">
        <ele>1674</ele>
        <time>2010-06-06T10:27:40Z</time>
      </trkpt>
      <trkpt lat="45.13429" lon="5.62433">
        <ele>1674</ele>
        <time>2010-06-06T10:27:41Z</time>
      </trkpt>
      <trkpt lat="45.13426" lon="5.6243">
        <ele>1674</ele>
        <time>2010-06-06T10:27:42Z</time>
      </trkpt>
      <trkpt lat="45.13423" lon="5.62425">
        <ele>1674</ele>
        <time>2010-06-06T10:27:43Z</time>
      </trkpt>
      <trkpt lat="45.1342" lon="5.62421">
        <ele>1674</ele>
        <time>2010-06-06T10:27:44Z</time>
      </trkpt>
      <trkpt lat="45.13417" lon="5.62418">
        <ele>1674</ele>
        <time>2010-06-06T10:27:45Z</time>
      </trkpt>
      <trkpt lat="45.13414" lon="5.62415">
        <ele>1674</ele>
        <time>2010-06-06T10:27:46Z</time>
      </trkpt>
      <trkpt lat="45.13412" lon="5.62411">
        <ele>1674</ele>
        <time>2010-06-06T10:27:47Z</time>
      </trkpt>
      <trkpt lat="45.13409" lon="5.62408">
        <ele>1674</ele>
        <time>2010-06-06T10:27:48Z</time>
      </trkpt>
      <trkpt lat="45.13407" lon="5.62405">
        <ele>1673</ele>
        <time>2010-06-06T10:27:49Z</time>
      </trkpt>
      <trkpt lat="45.13404" lon="5.62402">
        <ele>1673</ele>
        <time>2010-06-06T10:27:50Z</time>
      </trkpt>
      <trkpt lat="45.13401" lon="5.62399">
        <ele>1672</ele>
        <time>2010-06-06T10:27:51Z</time>
      </trkpt>
      <trkpt lat="45.13397" lon="5.62396">
        <ele>1672</ele>
        <time>2010-06-06T10:27:52Z</time>
      </trkpt>
      <trkpt lat="45.13394" lon="5.62393">
        <ele>1671</ele>
        <time>2010-06-06T10:27:53Z</time>
      </trkpt>
      <trkpt lat="45.13391" lon="5.6239">
        <ele>1671</ele>
        <time>2010-06-06T10:27:54Z</time>
      </trkpt>
      <trkpt lat="45.13388" lon="5.62387">
        <ele>1670</ele>
        <time>2010-06-06T10:27:55Z</time>
      </trkpt>
      <trkpt lat="45.13385" lon="5.62383">
        <ele>1669</ele>
        <time>2010-06-06T10:27:56Z</time>
      </trkpt>
      <trkpt lat="45.13384" lon="5.62378">
        <ele>1669</ele>
        <time>2010-06-06T10:27:57Z</time>
      </trkpt>
      <trkpt lat="45.13384" lon="5.62372">
        <ele>1668</ele>
        <time>2010-06-06T10:27:58Z</time>
      </trkpt>
      <trkpt lat="45.13384" lon="5.62367">
        <ele>1667</ele>
        <time>2010-06-06T10:27:59Z</time>
      </trkpt>
      <trkpt lat="45.13384" lon="5.62362">
        <ele>1667</ele>
        <time>2010-06-06T10:28:00Z</time>
      </trkpt>
      <trkpt lat="45.13384" lon="5.62358">
        <ele>1666</ele>
        <time>2010-06-06T10:28:01Z</time>
      </trkpt>
      <trkpt lat="45.13385" lon="5.62352">
        <ele>1666</ele>
        <time>2010-06-06T10:28:02Z</time>
      </trkpt>
      <trkpt lat="45.13385" lon="5.62347">
        <ele>1665</ele>
        <time>2010-06-06T10:28:03Z</time>
      </trkpt>
      <trkpt lat="45.13385" lon="5.62342">
        <ele>1664</ele>
        <time>2010-06-06T10:28:04Z</time>
      </trkpt>
      <trkpt lat="45.13385" lon="5.62338">
        <ele>1664</ele>
        <time>2010-06-06T10:28:05Z</time>
      </trkpt>
      <trkpt lat="45.13385" lon="5.62333">
        <ele>1663</ele>
        <time>2010-06-06T10:28:06Z</time>
      </trkpt>
      <trkpt lat="45.13384" lon="5.62329">
        <ele>1663</ele>
        <time>2010-06-06T10:28:07Z</time>
      </trkpt>
      <trkpt lat="45.13383" lon="5.62324">
        <ele>1662</ele>
        <time>2010-06-06T10:28:08Z</time>
      </trkpt>
      <trkpt lat="45.13381" lon="5.62319">
        <ele>1662</ele>
        <time>2010-06-06T10:28:09Z</time>
      </trkpt>
      <trkpt lat="45.1338" lon="5.62314">
        <ele>1661</ele>
        <time>2010-06-06T10:28:10Z</time>
      </trkpt>
      <trkpt lat="45.13379" lon="5.62309">
        <ele>1660</ele>
        <time>2010-06-06T10:28:11Z</time>
      </trkpt>
      <trkpt lat="45.13377" lon="5.62304">
        <ele>1660</ele>
        <time>2010-06-06T10:28:12Z</time>
      </trkpt>
      <trkpt lat="45.13375" lon="5.623">
        <ele>1659</ele>
        <time>2010-06-06T10:28:13Z</time>
      </trkpt>
      <trkpt lat="45.13373" lon="5.62296">
        <ele>1658</ele>
        <time>2010-06-06T10:28:14Z</time>
      </trkpt>
      <trkpt lat="45.1337" lon="5.62293">
        <ele>1657</ele>
        <time>2010-06-06T10:28:15Z</time>
      </trkpt>
      <trkpt lat="45.13368" lon="5.62289">
        <ele>1657</ele>
        <time>2010-06-06T10:28:16Z</time>
      </trkpt>
      <trkpt lat="45.13366" lon="5.62286">
        <ele>1656</ele>
        <time>2010-06-06T10:28:17Z</time>
      </trkpt>
      <trkpt lat="45.13364" lon="5.62282">
        <ele>1655</ele>
        <time>2010-06-06T10:28:18Z</time>
      </trkpt>
      <trkpt lat="45.13362" lon="5.62278">
        <ele>1655</ele>
        <time>2010-06-06T10:28:19Z</time>
      </trkpt>
      <trkpt lat="45.1336" lon="5.62275">
        <ele>1654</ele>
        <time>2010-06-06T10:28:20Z</time>
      </trkpt>
      <trkpt lat="45.13358" lon="5.62271">
        <ele>1654</ele>
        <time>2010-06-06T10:28:21Z</time>
      </trkpt>
      <trkpt lat="45.13355" lon="5.62267">
        <ele>1654</ele>
        <time>2010-06-06T10:28:22Z</time>
      </trkpt>
      <trkpt lat="45.13353" lon="5.62263">
        <ele>1654</ele>
        <time>2010-06-06T10:28:23Z</time>
      </trkpt>
      <trkpt lat="45.13351" lon="5.62259">
        <ele>1654</ele>
        <time>2010-06-06T10:28:24Z</time>
      </trkpt>
      <trkpt lat="45.13348" lon="5.62254">
        <ele>1654</ele>
        <time>2010-06-06T10:28:25Z</time>
      </trkpt>
      <trkpt lat="45.13346" lon="5.6225">
        <ele>1654</ele>
        <time>2010-06-06T10:28:26Z</time>
      </trkpt>
      <trkpt lat="45.13343" lon="5.62246">
        <ele>1654</ele>
        <time>2010-06-06T10:28:27Z</time>
      </trkpt>
      <trkpt lat="45.1334" lon="5.62242">
        <ele>1654</ele>
        <time>2010-06-06T10:28:28Z</time>
      </trkpt>
      <trkpt lat="45.13337" lon="5.62238">
        <ele>1654</ele>
        <time>2010-06-06T10:28:29Z</time>
      </trkpt>
      <trkpt lat="45.13334" lon="5.62235">
        <ele>1653</ele>
        <time>2010-06-06T10:28:30Z</time>
      </trkpt>
      <trkpt lat="45.13331" lon="5.62231">
        <ele>1653</ele>
        <time>2010-06-06T10:28:31Z</time>
      </trkpt>
      <trkpt lat="45.13329" lon="5.62228">
        <ele>1653</ele>
        <time>2010-06-06T10:28:32Z</time>
      </trkpt>
      <trkpt lat="45.13326" lon="5.62224">
        <ele>1653</ele>
        <time>2010-06-06T10:28:33Z</time>
      </trkpt>
      <trkpt lat="45.13323" lon="5.6222">
        <ele>1653</ele>
        <time>2010-06-06T10:28:34Z</time>
      </trkpt>
      <trkpt lat="45.13321" lon="5.62216">
        <ele>1653</ele>
        <time>2010-06-06T10:28:35Z</time>
      </trkpt>
      <trkpt lat="45.13318" lon="5.62213">
        <ele>1653</ele>
        <time>2010-06-06T10:28:36Z</time>
      </trkpt>
      <trkpt lat="45.13316" lon="5.62209">
        <ele>1653</ele>
        <time>2010-06-06T10:28:37Z</time>
      </trkpt>
      <trkpt lat="45.13313" lon="5.62205">
        <ele>1653</ele>
        <time>2010-06-06T10:28:38Z</time>
      </trkpt>
      <trkpt lat="45.13311" lon="5.62202">
        <ele>1653</ele>
        <time>2010-06-06T10:28:39Z</time>
      </trkpt>
      <trkpt lat="45.13307" lon="5.62199">
        <ele>1653</ele>
        <time>2010-06-06T10:28:40Z</time>
      </trkpt>
      <trkpt lat="45.13304" lon="5.62196">
        <ele>1653</ele>
        <time>2010-06-06T10:28:41Z</time>
      </trkpt>
      <trkpt lat="45.13301" lon="5.62193">
        <ele>1652</ele>
        <time>2010-06-06T10:28:42Z</time>
      </trkpt>
      <trkpt lat="45.13298" lon="5.6219">
        <ele>1652</ele>
        <time>2010-06-06T10:28:43Z</time>
      </trkpt>
      <trkpt lat="45.13295" lon="5.62187">
        <ele>1652</ele>
        <time>2010-06-06T10:28:44Z</time>
      </trkpt>
      <trkpt lat="45.13292" lon="5.62184">
        <ele>1651</ele>
        <time>2010-06-06T10:28:45Z</time>
      </trkpt>
      <trkpt lat="45.13289" lon="5.62182">
        <ele>1651</ele>
        <time>2010-06-06T10:28:46Z</time>
      </trkpt>
      <trkpt lat="45.13285" lon="5.6218">
        <ele>1650</ele>
        <time>2010-06-06T10:28:47Z</time>
      </trkpt>
      <trkpt lat="45.13282" lon="5.62178">
        <ele>1650</ele>
        <time>2010-06-06T10:28:48Z</time>
      </trkpt>
      <trkpt lat="45.13279" lon="5.62176">
        <ele>1649</ele>
        <time>2010-06-06T10:28:49Z</time>
      </trkpt>
      <trkpt lat="45.13276" lon="5.62174">
        <ele>1649</ele>
        <time>2010-06-06T10:28:50Z</time>
      </trkpt>
      <trkpt lat="45.13273" lon="5.62171">
        <ele>1648</ele>
        <time>2010-06-06T10:28:51Z</time>
      </trkpt>
      <trkpt lat="45.1327" lon="5.6217">
        <ele>1648</ele>
        <time>2010-06-06T10:28:52Z</time>
      </trkpt>
      <trkpt lat="45.13266" lon="5.62168">
        <ele>1647</ele>
        <time>2010-06-06T10:28:53Z</time>
      </trkpt>
      <trkpt lat="45.13263" lon="5.62166">
        <ele>1647</ele>
        <time>2010-06-06T10:28:54Z</time>
      </trkpt>
      <trkpt lat="45.1326" lon="5.62164">
        <ele>1646</ele>
        <time>2010-06-06T10:28:55Z</time>
      </trkpt>
      <trkpt lat="45.13257" lon="5.62162">
        <ele>1646</ele>
        <time>2010-06-06T10:28:56Z</time>
      </trkpt>
      <trkpt lat="45.13254" lon="5.6216">
        <ele>1646</ele>
        <time>2010-06-06T10:28:57Z</time>
      </trkpt>
      <trkpt lat="45.13251" lon="5.62159">
        <ele>1645</ele>
        <time>2010-06-06T10:28:58Z</time>
      </trkpt>
      <trkpt lat="45.13248" lon="5.62157">
        <ele>1645</ele>
        <time>2010-06-06T10:28:59Z</time>
      </trkpt>
      <trkpt lat="45.13245" lon="5.62155">
        <ele>1644</ele>
        <time>2010-06-06T10:29:00Z</time>
      </trkpt>
      <trkpt lat="45.13242" lon="5.62153">
        <ele>1644</ele>
        <time>2010-06-06T10:29:01Z</time>
      </trkpt>
      <trkpt lat="45.13239" lon="5.62151">
        <ele>1644</ele>
        <time>2010-06-06T10:29:02Z</time>
      </trkpt>
      <trkpt lat="45.13236" lon="5.62149">
        <ele>1643</ele>
        <time>2010-06-06T10:29:03Z</time>
      </trkpt>
      <trkpt lat="45.13233" lon="5.62145">
        <ele>1643</ele>
        <time>2010-06-06T10:29:04Z</time>
      </trkpt>
      <trkpt lat="45.13231" lon="5.62142">
        <ele>1643</ele>
        <time>2010-06-06T10:29:05Z</time>
      </trkpt>
      <trkpt lat="45.13229" lon="5.62138">
        <ele>1642</ele>
        <time>2010-06-06T10:29:06Z</time>
      </trkpt>
      <trkpt lat="45.13225" lon="5.62134">
        <ele>1642</ele>
        <time>2010-06-06T10:29:07Z</time>
      </trkpt>
      <trkpt lat="45.13222" lon="5.6213">
        <ele>1641</ele>
        <time>2010-06-06T10:29:08Z</time>
      </trkpt>
      <trkpt lat="45.13219" lon="5.62126">
        <ele>1640</ele>
        <time>2010-06-06T10:29:09Z</time>
      </trkpt>
      <trkpt lat="45.13217" lon="5.62122">
        <ele>1640</ele>
        <time>2010-06-06T10:29:10Z</time>
      </trkpt>
      <trkpt lat="45.13215" lon="5.62118">
        <ele>1639</ele>
        <time>2010-06-06T10:29:11Z</time>
      </trkpt>
      <trkpt lat="45.13213" lon="5.62115">
        <ele>1638</ele>
        <time>2010-06-06T10:29:12Z</time>
      </trkpt>
      <trkpt lat="45.13212" lon="5.62112">
        <ele>1638</ele>
        <time>2010-06-06T10:29:13Z</time>
      </trkpt>
      <trkpt lat="45.13209" lon="5.62108">
        <ele>1637</ele>
        <time>2010-06-06T10:29:14Z</time>
      </trkpt>
      <trkpt lat="45.13207" lon="5.62103">
        <ele>1636</ele>
        <time>2010-06-06T10:29:15Z</time>
      </trkpt>
      <trkpt lat="45.13205" lon="5.62099">
        <ele>1635</ele>
        <time>2010-06-06T10:29:16Z</time>
      </trkpt>
      <trkpt lat="45.13202" lon="5.62095">
        <ele>1635</ele>
        <time>2010-06-06T10:29:17Z</time>
      </trkpt>
      <trkpt lat="45.132" lon="5.62093">
        <ele>1634</ele>
        <time>2010-06-06T10:29:18Z</time>
      </trkpt>
      <trkpt lat="45.13197" lon="5.62089">
        <ele>1633</ele>
        <time>2010-06-06T10:29:19Z</time>
      </trkpt>
      <trkpt lat="45.13194" lon="5.62086">
        <ele>1632</ele>
        <time>2010-06-06T10:29:20Z</time>
      </trkpt>
      <trkpt lat="45.13192" lon="5.62083">
        <ele>1632</ele>
        <time>2010-06-06T10:29:21Z</time>
      </trkpt>
      <trkpt lat="45.13189" lon="5.62079">
        <ele>1631</ele>
        <time>2010-06-06T10:29:22Z</time>
      </trkpt>
      <trkpt lat="45.13186" lon="5.62076">
        <ele>1630</ele>
        <time>2010-06-06T10:29:23Z</time>
      </trkpt>
      <trkpt lat="45.13184" lon="5.62071">
        <ele>1629</ele>
        <time>2010-06-06T10:29:24Z</time>
      </trkpt>
      <trkpt lat="45.13182" lon="5.62067">
        <ele>1629</ele>
        <time>2010-06-06T10:29:25Z</time>
      </trkpt>
      <trkpt lat="45.13179" lon="5.62063">
        <ele>1629</ele>
        <time>2010-06-06T10:29:26Z</time>
      </trkpt>
      <trkpt lat="45.13177" lon="5.62059">
        <ele>1628</ele>
        <time>2010-06-06T10:29:27Z</time>
      </trkpt>
      <trkpt lat="45.13175" lon="5.62055">
        <ele>1628</ele>
        <time>2010-06-06T10:29:28Z</time>
      </trkpt>
      <trkpt lat="45.13173" lon="5.62051">
        <ele>1628</ele>
        <time>2010-06-06T10:29:29Z</time>
      </trkpt>
      <trkpt lat="45.13171" lon="5.62047">
        <ele>1628</ele>
        <time>2010-06-06T10:29:30Z</time>
      </trkpt>
      <trkpt lat="45.13169" lon="5.62043">
        <ele>1627</ele>
        <time>2010-06-06T10:29:31Z</time>
      </trkpt>
      <trkpt lat="45.13167" lon="5.6204">
        <ele>1627</ele>
        <time>2010-06-06T10:29:32Z</time>
      </trkpt>
      <trkpt lat="45.13165" lon="5.62036">
        <ele>1626</ele>
        <time>2010-06-06T10:29:33Z</time>
      </trkpt>
      <trkpt lat="45.13162" lon="5.62033">
        <ele>1626</ele>
        <time>2010-06-06T10:29:34Z</time>
      </trkpt>
      <trkpt lat="45.13159" lon="5.6203">
        <ele>1626</ele>
        <time>2010-06-06T10:29:35Z</time>
      </trkpt>
      <trkpt lat="45.13157" lon="5.62027">
        <ele>1625</ele>
        <time>2010-06-06T10:29:36Z</time>
      </trkpt>
      <trkpt lat="45.13155" lon="5.62023">
        <ele>1625</ele>
        <time>2010-06-06T10:29:37Z</time>
      </trkpt>
      <trkpt lat="45.13153" lon="5.62019">
        <ele>1625</ele>
        <time>2010-06-06T10:29:38Z</time>
      </trkpt>
      <trkpt lat="45.1315" lon="5.62016">
        <ele>1625</ele>
        <time>2010-06-06T10:29:39Z</time>
      </trkpt>
      <trkpt lat="45.13148" lon="5.62012">
        <ele>1625</ele>
        <time>2010-06-06T10:29:40Z</time>
      </trkpt>
      <trkpt lat="45.13146" lon="5.62009">
        <ele>1625</ele>
        <time>2010-06-06T10:29:41Z</time>
      </trkpt>
      <trkpt lat="45.13143" lon="5.62005">
        <ele>1625</ele>
        <time>2010-06-06T10:29:42Z</time>
      </trkpt>
      <trkpt lat="45.13141" lon="5.62002">
        <ele>1625</ele>
        <time>2010-06-06T10:29:43Z</time>
      </trkpt>
      <trkpt lat="45.13139" lon="5.61998">
        <ele>1625</ele>
        <time>2010-06-06T10:29:44Z</time>
      </trkpt>
      <trkpt lat="45.13136" lon="5.61995">
        <ele>1625</ele>
        <time>2010-06-06T10:29:45Z</time>
      </trkpt>
      <trkpt lat="45.13134" lon="5.61991">
        <ele>1625</ele>
        <time>2010-06-06T10:29:46Z</time>
      </trkpt>
      <trkpt lat="45.13132" lon="5.61988">
        <ele>1625</ele>
        <time>2010-06-06T10:29:47Z</time>
      </trkpt>
      <trkpt lat="45.1313" lon="5.61984">
        <ele>1625</ele>
        <time>2010-06-06T10:29:48Z</time>
      </trkpt>
      <trkpt lat="45.13127" lon="5.6198">
        <ele>1625</ele>
        <time>2010-06-06T10:29:49Z</time>
      </trkpt>
      <trkpt lat="45.13125" lon="5.61976">
        <ele>1625</ele>
        <time>2010-06-06T10:29:50Z</time>
      </trkpt>
      <trkpt lat="45.13123" lon="5.61971">
        <ele>1624</ele>
        <time>2010-06-06T10:29:51Z</time>
      </trkpt>
      <trkpt lat="45.13122" lon="5.61967">
        <ele>1624</ele>
        <time>2010-06-06T10:29:52Z</time>
      </trkpt>
      <trkpt lat="45.13122" lon="5.61962">
        <ele>1624</ele>
        <time>2010-06-06T10:29:53Z</time>
      </trkpt>
      <trkpt lat="45.13121" lon="5.61957">
        <ele>1623</ele>
        <time>2010-06-06T10:29:54Z</time>
      </trkpt>
      <trkpt lat="45.13121" lon="5.61951">
        <ele>1623</ele>
        <time>2010-06-06T10:29:55Z</time>
      </trkpt>
      <trkpt lat="45.13122" lon="5.61946">
        <ele>1623</ele>
        <time>2010-06-06T10:29:56Z</time>
      </trkpt>
      <trkpt lat="45.13123" lon="5.61941">
        <ele>1623</ele>
        <time>2010-06-06T10:29:57Z</time>
      </trkpt>
      <trkpt lat="45.13125" lon="5.61936">
        <ele>1623</ele>
        <time>2010-06-06T10:29:58Z</time>
      </trkpt>
      <trkpt lat="45.13127" lon="5.61931">
        <ele>1623</ele>
        <time>2010-06-06T10:29:59Z</time>
      </trkpt>
      <trkpt lat="45.13129" lon="5.61927">
        <ele>1623</ele>
        <time>2010-06-06T10:30:00Z</time>
      </trkpt>
      <trkpt lat="45.13131" lon="5.61923">
        <ele>1622</ele>
        <time>2010-06-06T10:30:01Z</time>
      </trkpt>
      <trkpt lat="45.13133" lon="5.61919">
        <ele>1622</ele>
        <time>2010-06-06T10:30:02Z</time>
      </trkpt>
      <trkpt lat="45.13135" lon="5.61916">
        <ele>1622</ele>
        <time>2010-06-06T10:30:03Z</time>
      </trkpt>
      <trkpt lat="45.13137" lon="5.61912">
        <ele>1621</ele>
        <time>2010-06-06T10:30:04Z</time>
      </trkpt>
      <trkpt lat="45.13139" lon="5.61908">
        <ele>1621</ele>
        <time>2010-06-06T10:30:05Z</time>
      </trkpt>
      <trkpt lat="45.13141" lon="5.61904">
        <ele>1620</ele>
        <time>2010-06-06T10:30:06Z</time>
      </trkpt>
      <trkpt lat="45.13143" lon="5.61899">
        <ele>1620</ele>
        <time>2010-06-06T10:30:07Z</time>
      </trkpt>
      <trkpt lat="45.13145" lon="5.61894">
        <ele>1620</ele>
        <time>2010-06-06T10:30:08Z</time>
      </trkpt>
      <trkpt lat="45.13147" lon="5.6189">
        <ele>1619</ele>
        <time>2010-06-06T10:30:09Z</time>
      </trkpt>
      <trkpt lat="45.13148" lon="5.61886">
        <ele>1619</ele>
        <time>2010-06-06T10:30:10Z</time>
      </trkpt>
      <trkpt lat="45.13149" lon="5.61882">
        <ele>1619</ele>
        <time>2010-06-06T10:30:11Z</time>
      </trkpt>
      <trkpt lat="45.13149" lon="5.61877">
        <ele>1619</ele>
        <time>2010-06-06T10:30:12Z</time>
      </trkpt>
      <trkpt lat="45.1315" lon="5.61873">
        <ele>1618</ele>
        <time>2010-06-06T10:30:13Z</time>
      </trkpt>
      <trkpt lat="45.1315" lon="5.61868">
        <ele>1618</ele>
        <time>2010-06-06T10:30:14Z</time>
      </trkpt>
      <trkpt lat="45.1315" lon="5.61863">
        <ele>1617</ele>
        <time>2010-06-06T10:30:15Z</time>
      </trkpt>
      <trkpt lat="45.1315" lon="5.61858">
        <ele>1617</ele>
        <time>2010-06-06T10:30:16Z</time>
      </trkpt>
      <trkpt lat="45.13149" lon="5.61853">
        <ele>1616</ele>
        <time>2010-06-06T10:30:17Z</time>
      </trkpt>
      <trkpt lat="45.13147" lon="5.61849">
        <ele>1615</ele>
        <time>2010-06-06T10:30:18Z</time>
      </trkpt>
      <trkpt lat="45.13145" lon="5.61847">
        <ele>1614</ele>
        <time>2010-06-06T10:30:19Z</time>
      </trkpt>
      <trkpt lat="45.13142" lon="5.61845">
        <ele>1614</ele>
        <time>2010-06-06T10:30:20Z</time>
      </trkpt>
      <trkpt lat="45.13139" lon="5.61843">
        <ele>1613</ele>
        <time>2010-06-06T10:30:21Z</time>
      </trkpt>
      <trkpt lat="45.13136" lon="5.61842">
        <ele>1612</ele>
        <time>2010-06-06T10:30:22Z</time>
      </trkpt>
      <trkpt lat="45.13133" lon="5.61842">
        <ele>1612</ele>
        <time>2010-06-06T10:30:23Z</time>
      </trkpt>
      <trkpt lat="45.1313" lon="5.61841">
        <ele>1611</ele>
        <time>2010-06-06T10:30:24Z</time>
      </trkpt>
      <trkpt lat="45.13127" lon="5.61841">
        <ele>1611</ele>
        <time>2010-06-06T10:30:25Z</time>
      </trkpt>
      <trkpt lat="45.13124" lon="5.61842">
        <ele>1610</ele>
        <time>2010-06-06T10:30:26Z</time>
      </trkpt>
      <trkpt lat="45.13121" lon="5.61842">
        <ele>1610</ele>
        <time>2010-06-06T10:30:27Z</time>
      </trkpt>
      <trkpt lat="45.13118" lon="5.61842">
        <ele>1609</ele>
        <time>2010-06-06T10:30:28Z</time>
      </trkpt>
      <trkpt lat="45.13116" lon="5.61843">
        <ele>1609</ele>
        <time>2010-06-06T10:30:29Z</time>
      </trkpt>
      <trkpt lat="45.13113" lon="5.61844">
        <ele>1609</ele>
        <time>2010-06-06T10:30:30Z</time>
      </trkpt>
      <trkpt lat="45.13111" lon="5.61846">
        <ele>1609</ele>
        <time>2010-06-06T10:30:31Z</time>
      </trkpt>
      <trkpt lat="45.13108" lon="5.61849">
        <ele>1609</ele>
        <time>2010-06-06T10:30:32Z</time>
      </trkpt>
      <trkpt lat="45.13105" lon="5.61852">
        <ele>1609</ele>
        <time>2010-06-06T10:30:33Z</time>
      </trkpt>
      <trkpt lat="45.13102" lon="5.61855">
        <ele>1609</ele>
        <time>2010-06-06T10:30:34Z</time>
      </trkpt>
      <trkpt lat="45.13099" lon="5.61858">
        <ele>1608</ele>
        <time>2010-06-06T10:30:35Z</time>
      </trkpt>
      <trkpt lat="45.13097" lon="5.61859">
        <ele>1608</ele>
        <time>2010-06-06T10:30:36Z</time>
      </trkpt>
      <trkpt lat="45.13094" lon="5.6186">
        <ele>1607</ele>
        <time>2010-06-06T10:30:37Z</time>
      </trkpt>
      <trkpt lat="45.13091" lon="5.6186">
        <ele>1606</ele>
        <time>2010-06-06T10:30:38Z</time>
      </trkpt>
      <trkpt lat="45.13088" lon="5.61859">
        <ele>1606</ele>
        <time>2010-06-06T10:30:39Z</time>
      </trkpt>
      <trkpt lat="45.13084" lon="5.61858">
        <ele>1605</ele>
        <time>2010-06-06T10:30:40Z</time>
      </trkpt>
      <trkpt lat="45.13081" lon="5.61859">
        <ele>1604</ele>
        <time>2010-06-06T10:30:41Z</time>
      </trkpt>
      <trkpt lat="45.13078" lon="5.61858">
        <ele>1603</ele>
        <time>2010-06-06T10:30:42Z</time>
      </trkpt>
      <trkpt lat="45.13075" lon="5.61856">
        <ele>1602</ele>
        <time>2010-06-06T10:30:43Z</time>
      </trkpt>
      <trkpt lat="45.13072" lon="5.61855">
        <ele>1601</ele>
        <time>2010-06-06T10:30:44Z</time>
      </trkpt>
      <trkpt lat="45.13069" lon="5.61853">
        <ele>1601</ele>
        <time>2010-06-06T10:30:45Z</time>
      </trkpt>
      <trkpt lat="45.13067" lon="5.61853">
        <ele>1600</ele>
        <time>2010-06-06T10:30:46Z</time>
      </trkpt>
      <trkpt lat="45.13063" lon="5.61853">
        <ele>1599</ele>
        <time>2010-06-06T10:30:47Z</time>
      </trkpt>
      <trkpt lat="45.1306" lon="5.61851">
        <ele>1599</ele>
        <time>2010-06-06T10:30:48Z</time>
      </trkpt>
      <trkpt lat="45.13058" lon="5.61849">
        <ele>1598</ele>
        <time>2010-06-06T10:30:49Z</time>
      </trkpt>
      <trkpt lat="45.13055" lon="5.61846">
        <ele>1598</ele>
        <time>2010-06-06T10:30:50Z</time>
      </trkpt>
      <trkpt lat="45.13054" lon="5.61844">
        <ele>1597</ele>
        <time>2010-06-06T10:30:51Z</time>
      </trkpt>
      <trkpt lat="45.13052" lon="5.61841">
        <ele>1596</ele>
        <time>2010-06-06T10:30:52Z</time>
      </trkpt>
      <trkpt lat="45.13051" lon="5.61838">
        <ele>1596</ele>
        <time>2010-06-06T10:30:53Z</time>
      </trkpt>
      <trkpt lat="45.1305" lon="5.61835">
        <ele>1595</ele>
        <time>2010-06-06T10:30:54Z</time>
      </trkpt>
      <trkpt lat="45.13048" lon="5.61831">
        <ele>1594</ele>
        <time>2010-06-06T10:30:55Z</time>
      </trkpt>
      <trkpt lat="45.13046" lon="5.61827">
        <ele>1594</ele>
        <time>2010-06-06T10:30:56Z</time>
      </trkpt>
      <trkpt lat="45.13044" lon="5.61824">
        <ele>1594</ele>
        <time>2010-06-06T10:30:57Z</time>
      </trkpt>
      <trkpt lat="45.13042" lon="5.61821">
        <ele>1594</ele>
        <time>2010-06-06T10:30:58Z</time>
      </trkpt>
      <trkpt lat="45.13041" lon="5.61817">
        <ele>1594</ele>
        <time>2010-06-06T10:30:59Z</time>
      </trkpt>
      <trkpt lat="45.13039" lon="5.61814">
        <ele>1593</ele>
        <time>2010-06-06T10:31:00Z</time>
      </trkpt>
      <trkpt lat="45.13037" lon="5.61811">
        <ele>1593</ele>
        <time>2010-06-06T10:31:01Z</time>
      </trkpt>
      <trkpt lat="45.13035" lon="5.61808">
        <ele>1593</ele>
        <time>2010-06-06T10:31:02Z</time>
      </trkpt>
      <trkpt lat="45.13034" lon="5.61805">
        <ele>1593</ele>
        <time>2010-06-06T10:31:03Z</time>
      </trkpt>
      <trkpt lat="45.13032" lon="5.61801">
        <ele>1592</ele>
        <time>2010-06-06T10:31:04Z</time>
      </trkpt>
      <trkpt lat="45.1303" lon="5.61799">
        <ele>1592</ele>
        <time>2010-06-06T10:31:05Z</time>
      </trkpt>
      <trkpt lat="45.13028" lon="5.61799">
        <ele>1592</ele>
        <time>2010-06-06T10:31:06Z</time>
      </trkpt>
      <trkpt lat="45.13026" lon="5.61798">
        <ele>1591</ele>
        <time>2010-06-06T10:31:07Z</time>
      </trkpt>
      <trkpt lat="45.13024" lon="5.61797">
        <ele>1591</ele>
        <time>2010-06-06T10:31:08Z</time>
      </trkpt>
      <trkpt lat="45.13022" lon="5.61796">
        <ele>1590</ele>
        <time>2010-06-06T10:31:09Z</time>
      </trkpt>
      <trkpt lat="45.13019" lon="5.61795">
        <ele>1590</ele>
        <time>2010-06-06T10:31:10Z</time>
      </trkpt>
      <trkpt lat="45.13016" lon="5.61795">
        <ele>1590</ele>
        <time>2010-06-06T10:31:11Z</time>
      </trkpt>
      <trkpt lat="45.13013" lon="5.61793">
        <ele>1590</ele>
        <time>2010-06-06T10:31:12Z</time>
      </trkpt>
      <trkpt lat="45.13011" lon="5.61791">
        <ele>1590</ele>
        <time>2010-06-06T10:31:13Z</time>
      </trkpt>
      <trkpt lat="45.13009" lon="5.6179">
        <ele>1589</ele>
        <time>2010-06-06T10:31:14Z</time>
      </trkpt>
      <trkpt lat="45.13006" lon="5.6179">
        <ele>1589</ele>
        <time>2010-06-06T10:31:15Z</time>
      </trkpt>
      <trkpt lat="45.13004" lon="5.61789">
        <ele>1589</ele>
        <time>2010-06-06T10:31:16Z</time>
      </trkpt>
      <trkpt lat="45.13002" lon="5.61788">
        <ele>1588</ele>
        <time>2010-06-06T10:31:17Z</time>
      </trkpt>
      <trkpt lat="45.13" lon="5.61787">
        <ele>1588</ele>
        <time>2010-06-06T10:31:18Z</time>
      </trkpt>
      <trkpt lat="45.12998" lon="5.61785">
        <ele>1588</ele>
        <time>2010-06-06T10:31:19Z</time>
      </trkpt>
      <trkpt lat="45.12995" lon="5.61784">
        <ele>1587</ele>
        <time>2010-06-06T10:31:20Z</time>
      </trkpt>
      <trkpt lat="45.12993" lon="5.61783">
        <ele>1586</ele>
        <time>2010-06-06T10:31:21Z</time>
      </trkpt>
      <trkpt lat="45.12991" lon="5.61782">
        <ele>1585</ele>
        <time>2010-06-06T10:31:22Z</time>
      </trkpt>
      <trkpt lat="45.12988" lon="5.61781">
        <ele>1584</ele>
        <time>2010-06-06T10:31:23Z</time>
      </trkpt>
      <trkpt lat="45.12985" lon="5.6178">
        <ele>1583</ele>
        <time>2010-06-06T10:31:24Z</time>
      </trkpt>
      <trkpt lat="45.12982" lon="5.61779">
        <ele>1582</ele>
        <time>2010-06-06T10:31:25Z</time>
      </trkpt>
      <trkpt lat="45.12979" lon="5.61777">
        <ele>1581</ele>
        <time>2010-06-06T10:31:26Z</time>
      </trkpt>
      <trkpt lat="45.12976" lon="5.61776">
        <ele>1580</ele>
        <time>2010-06-06T10:31:27Z</time>
      </trkpt>
      <trkpt lat="45.12973" lon="5.61775">
        <ele>1580</ele>
        <time>2010-06-06T10:31:28Z</time>
      </trkpt>
      <trkpt lat="45.1297" lon="5.61774">
        <ele>1579</ele>
        <time>2010-06-06T10:31:29Z</time>
      </trkpt>
      <trkpt lat="45.12968" lon="5.61773">
        <ele>1578</ele>
        <time>2010-06-06T10:31:30Z</time>
      </trkpt>
      <trkpt lat="45.12965" lon="5.61771">
        <ele>1577</ele>
        <time>2010-06-06T10:31:31Z</time>
      </trkpt>
      <trkpt lat="45.12962" lon="5.61769">
        <ele>1577</ele>
        <time>2010-06-06T10:31:32Z</time>
      </trkpt>
      <trkpt lat="45.12958" lon="5.61768">
        <ele>1576</ele>
        <time>2010-06-06T10:31:33Z</time>
      </trkpt>
      <trkpt lat="45.12955" lon="5.61767">
        <ele>1576</ele>
        <time>2010-06-06T10:31:34Z</time>
      </trkpt>
      <trkpt lat="45.12952" lon="5.61766">
        <ele>1575</ele>
        <time>2010-06-06T10:31:35Z</time>
      </trkpt>
      <trkpt lat="45.12949" lon="5.61765">
        <ele>1575</ele>
        <time>2010-06-06T10:31:36Z</time>
      </trkpt>
      <trkpt lat="45.12946" lon="5.61764">
        <ele>1575</ele>
        <time>2010-06-06T10:31:37Z</time>
      </trkpt>
      <trkpt lat="45.12943" lon="5.61762">
        <ele>1574</ele>
        <time>2010-06-06T10:31:38Z</time>
      </trkpt>
      <trkpt lat="45.12941" lon="5.61761">
        <ele>1574</ele>
        <time>2010-06-06T10:31:39Z</time>
      </trkpt>
      <trkpt lat="45.12938" lon="5.6176">
        <ele>1574</ele>
        <time>2010-06-06T10:31:40Z</time>
      </trkpt>
      <trkpt lat="45.12936" lon="5.61757">
        <ele>1574</ele>
        <time>2010-06-06T10:31:41Z</time>
      </trkpt>
      <trkpt lat="45.12934" lon="5.61755">
        <ele>1574</ele>
        <time>2010-06-06T10:31:42Z</time>
      </trkpt>
      <trkpt lat="45.12932" lon="5.61754">
        <ele>1573</ele>
        <time>2010-06-06T10:31:43Z</time>
      </trkpt>
      <trkpt lat="45.12928" lon="5.61754">
        <ele>1573</ele>
        <time>2010-06-06T10:31:44Z</time>
      </trkpt>
      <trkpt lat="45.12925" lon="5.61754">
        <ele>1573</ele>
        <time>2010-06-06T10:31:45Z</time>
      </trkpt>
      <trkpt lat="45.12922" lon="5.61754">
        <ele>1572</ele>
        <time>2010-06-06T10:31:46Z</time>
      </trkpt>
      <trkpt lat="45.12919" lon="5.61753">
        <ele>1572</ele>
        <time>2010-06-06T10:31:47Z</time>
      </trkpt>
      <trkpt lat="45.12916" lon="5.61752">
        <ele>1572</ele>
        <time>2010-06-06T10:31:48Z</time>
      </trkpt>
      <trkpt lat="45.12913" lon="5.61752">
        <ele>1571</ele>
        <time>2010-06-06T10:31:49Z</time>
      </trkpt>
      <trkpt lat="45.1291" lon="5.61752">
        <ele>1571</ele>
        <time>2010-06-06T10:31:50Z</time>
      </trkpt>
      <trkpt lat="45.12907" lon="5.61751">
        <ele>1570</ele>
        <time>2010-06-06T10:31:51Z</time>
      </trkpt>
      <trkpt lat="45.12904" lon="5.6175">
        <ele>1570</ele>
        <time>2010-06-06T10:31:52Z</time>
      </trkpt>
      <trkpt lat="45.12901" lon="5.6175">
        <ele>1570</ele>
        <time>2010-06-06T10:31:53Z</time>
      </trkpt>
      <trkpt lat="45.12899" lon="5.61749">
        <ele>1569</ele>
        <time>2010-06-06T10:31:54Z</time>
      </trkpt>
      <trkpt lat="45.12897" lon="5.61748">
        <ele>1569</ele>
        <time>2010-06-06T10:31:55Z</time>
      </trkpt>
      <trkpt lat="45.12895" lon="5.61748">
        <ele>1569</ele>
        <time>2010-06-06T10:31:56Z</time>
      </trkpt>
      <trkpt lat="45.12893" lon="5.61748">
        <ele>1568</ele>
        <time>2010-06-06T10:31:57Z</time>
      </trkpt>
      <trkpt lat="45.12891" lon="5.61749">
        <ele>1568</ele>
        <time>2010-06-06T10:31:58Z</time>
      </trkpt>
      <trkpt lat="45.12889" lon="5.61749">
        <ele>1567</ele>
        <time>2010-06-06T10:31:59Z</time>
      </trkpt>
      <trkpt lat="45.12887" lon="5.6175">
        <ele>1567</ele>
        <time>2010-06-06T10:32:00Z</time>
      </trkpt>
      <trkpt lat="45.12886" lon="5.6175">
        <ele>1566</ele>
        <time>2010-06-06T10:32:01Z</time>
      </trkpt>
      <trkpt lat="45.12884" lon="5.6175">
        <ele>1566</ele>
        <time>2010-06-06T10:32:02Z</time>
      </trkpt>
      <trkpt lat="45.12882" lon="5.61751">
        <ele>1565</ele>
        <time>2010-06-06T10:32:03Z</time>
      </trkpt>
      <trkpt lat="45.1288" lon="5.61751">
        <ele>1565</ele>
        <time>2010-06-06T10:32:04Z</time>
      </trkpt>
      <trkpt lat="45.12877" lon="5.61751">
        <ele>1564</ele>
        <time>2010-06-06T10:32:05Z</time>
      </trkpt>
      <trkpt lat="45.12875" lon="5.6175">
        <ele>1564</ele>
        <time>2010-06-06T10:32:06Z</time>
      </trkpt>
      <trkpt lat="45.12873" lon="5.61749">
        <ele>1563</ele>
        <time>2010-06-06T10:32:07Z</time>
      </trkpt>
      <trkpt lat="45.1287" lon="5.61747">
        <ele>1563</ele>
        <time>2010-06-06T10:32:08Z</time>
      </trkpt>
      <trkpt lat="45.12869" lon="5.61745">
        <ele>1562</ele>
        <time>2010-06-06T10:32:09Z</time>
      </trkpt>
      <trkpt lat="45.12866" lon="5.61744">
        <ele>1562</ele>
        <time>2010-06-06T10:32:10Z</time>
      </trkpt>
      <trkpt lat="45.12864" lon="5.61743">
        <ele>1562</ele>
        <time>2010-06-06T10:32:11Z</time>
      </trkpt>
      <trkpt lat="45.12862" lon="5.61742">
        <ele>1561</ele>
        <time>2010-06-06T10:32:12Z</time>
      </trkpt>
      <trkpt lat="45.12859" lon="5.61741">
        <ele>1561</ele>
        <time>2010-06-06T10:32:13Z</time>
      </trkpt>
      <trkpt lat="45.12857" lon="5.61739">
        <ele>1561</ele>
        <time>2010-06-06T10:32:14Z</time>
      </trkpt>
      <trkpt lat="45.12855" lon="5.61737">
        <ele>1560</ele>
        <time>2010-06-06T10:32:15Z</time>
      </trkpt>
      <trkpt lat="45.12853" lon="5.61736">
        <ele>1560</ele>
        <time>2010-06-06T10:32:16Z</time>
      </trkpt>
      <trkpt lat="45.12851" lon="5.61735">
        <ele>1559</ele>
        <time>2010-06-06T10:32:17Z</time>
      </trkpt>
      <trkpt lat="45.12848" lon="5.61734">
        <ele>1559</ele>
        <time>2010-06-06T10:32:18Z</time>
      </trkpt>
      <trkpt lat="45.12845" lon="5.61732">
        <ele>1558</ele>
        <time>2010-06-06T10:32:19Z</time>
      </trkpt>
      <trkpt lat="45.12843" lon="5.61731">
        <ele>1558</ele>
        <time>2010-06-06T10:32:20Z</time>
      </trkpt>
      <trkpt lat="45.1284" lon="5.61731">
        <ele>1557</ele>
        <time>2010-06-06T10:32:21Z</time>
      </trkpt>
      <trkpt lat="45.12838" lon="5.61731">
        <ele>1556</ele>
        <time>2010-06-06T10:32:22Z</time>
      </trkpt>
      <trkpt lat="45.12835" lon="5.6173">
        <ele>1556</ele>
        <time>2010-06-06T10:32:23Z</time>
      </trkpt>
      <trkpt lat="45.12832" lon="5.6173">
        <ele>1555</ele>
        <time>2010-06-06T10:32:24Z</time>
      </trkpt>
      <trkpt lat="45.1283" lon="5.6173">
        <ele>1554</ele>
        <time>2010-06-06T10:32:25Z</time>
      </trkpt>
      <trkpt lat="45.12827" lon="5.61731">
        <ele>1554</ele>
        <time>2010-06-06T10:32:26Z</time>
      </trkpt>
      <trkpt lat="45.12825" lon="5.61731">
        <ele>1553</ele>
        <time>2010-06-06T10:32:27Z</time>
      </trkpt>
      <trkpt lat="45.12824" lon="5.61732">
        <ele>1552</ele>
        <time>2010-06-06T10:32:28Z</time>
      </trkpt>
      <trkpt lat="45.12822" lon="5.61733">
        <ele>1551</ele>
        <time>2010-06-06T10:32:29Z</time>
      </trkpt>
      <trkpt lat="45.1282" lon="5.61732">
        <ele>1550</ele>
        <time>2010-06-06T10:32:30Z</time>
      </trkpt>
      <trkpt lat="45.12818" lon="5.61732">
        <ele>1550</ele>
        <time>2010-06-06T10:32:31Z</time>
      </trkpt>
      <trkpt lat="45.12816" lon="5.61732">
        <ele>1549</ele>
        <time>2010-06-06T10:32:32Z</time>
      </trkpt>
      <trkpt lat="45.12814" lon="5.61732">
        <ele>1548</ele>
        <time>2010-06-06T10:32:33Z</time>
      </trkpt>
      <trkpt lat="45.12812" lon="5.61733">
        <ele>1548</ele>
        <time>2010-06-06T10:32:34Z</time>
      </trkpt>
      <trkpt lat="45.1281" lon="5.61734">
        <ele>1547</ele>
        <time>2010-06-06T10:32:35Z</time>
      </trkpt>
      <trkpt lat="45.12809" lon="5.61734">
        <ele>1546</ele>
        <time>2010-06-06T10:32:36Z</time>
      </trkpt>
      <trkpt lat="45.12807" lon="5.61734">
        <ele>1546</ele>
        <time>2010-06-06T10:32:37Z</time>
      </trkpt>
      <trkpt lat="45.12806" lon="5.61734">
        <ele>1545</ele>
        <time>2010-06-06T10:32:38Z</time>
      </trkpt>
      <trkpt lat="45.12804" lon="5.61734">
        <ele>1544</ele>
        <time>2010-06-06T10:32:39Z</time>
      </trkpt>
      <trkpt lat="45.12801" lon="5.61734">
        <ele>1543</ele>
        <time>2010-06-06T10:32:40Z</time>
      </trkpt>
      <trkpt lat="45.12799" lon="5.61734">
        <ele>1543</ele>
        <time>2010-06-06T10:32:41Z</time>
      </trkpt>
      <trkpt lat="45.12797" lon="5.61735">
        <ele>1542</ele>
        <time>2010-06-06T10:32:42Z</time>
      </trkpt>
      <trkpt lat="45.12796" lon="5.61736">
        <ele>1541</ele>
        <time>2010-06-06T10:32:43Z</time>
      </trkpt>
      <trkpt lat="45.12794" lon="5.61737">
        <ele>1540</ele>
        <time>2010-06-06T10:32:44Z</time>
      </trkpt>
      <trkpt lat="45.12792" lon="5.61737">
        <ele>1539</ele>
        <time>2010-06-06T10:32:45Z</time>
      </trkpt>
      <trkpt lat="45.12789" lon="5.61737">
        <ele>1538</ele>
        <time>2010-06-06T10:32:46Z</time>
      </trkpt>
      <trkpt lat="45.12787" lon="5.61738">
        <ele>1537</ele>
        <time>2010-06-06T10:32:47Z</time>
      </trkpt>
      <trkpt lat="45.12786" lon="5.61739">
        <ele>1536</ele>
        <time>2010-06-06T10:32:48Z</time>
      </trkpt>
      <trkpt lat="45.12784" lon="5.6174">
        <ele>1535</ele>
        <time>2010-06-06T10:32:49Z</time>
      </trkpt>
      <trkpt lat="45.12781" lon="5.6174">
        <ele>1534</ele>
        <time>2010-06-06T10:32:50Z</time>
      </trkpt>
      <trkpt lat="45.12779" lon="5.61739">
        <ele>1533</ele>
        <time>2010-06-06T10:32:51Z</time>
      </trkpt>
      <trkpt lat="45.12777" lon="5.61738">
        <ele>1533</ele>
        <time>2010-06-06T10:32:52Z</time>
      </trkpt>
      <trkpt lat="45.12775" lon="5.61738">
        <ele>1533</ele>
        <time>2010-06-06T10:32:53Z</time>
      </trkpt>
      <trkpt lat="45.12773" lon="5.61739">
        <ele>1532</ele>
        <time>2010-06-06T10:32:54Z</time>
      </trkpt>
      <trkpt lat="45.12771" lon="5.61739">
        <ele>1532</ele>
        <time>2010-06-06T10:32:55Z</time>
      </trkpt>
      <trkpt lat="45.1277" lon="5.6174">
        <ele>1531</ele>
        <time>2010-06-06T10:32:56Z</time>
      </trkpt>
      <trkpt lat="45.12768" lon="5.61741">
        <ele>1531</ele>
        <time>2010-06-06T10:32:57Z</time>
      </trkpt>
      <trkpt lat="45.12767" lon="5.61742">
        <ele>1530</ele>
        <time>2010-06-06T10:32:58Z</time>
      </trkpt>
      <trkpt lat="45.12765" lon="5.61743">
        <ele>1530</ele>
        <time>2010-06-06T10:32:59Z</time>
      </trkpt>
      <trkpt lat="45.12764" lon="5.61745">
        <ele>1529</ele>
        <time>2010-06-06T10:33:00Z</time>
      </trkpt>
      <trkpt lat="45.12762" lon="5.61747">
        <ele>1528</ele>
        <time>2010-06-06T10:33:01Z</time>
      </trkpt>
      <trkpt lat="45.1276" lon="5.61747">
        <ele>1528</ele>
        <time>2010-06-06T10:33:02Z</time>
      </trkpt>
      <trkpt lat="45.12759" lon="5.61748">
        <ele>1527</ele>
        <time>2010-06-06T10:33:03Z</time>
      </trkpt>
      <trkpt lat="45.12757" lon="5.6175">
        <ele>1526</ele>
        <time>2010-06-06T10:33:04Z</time>
      </trkpt>
      <trkpt lat="45.12756" lon="5.61752">
        <ele>1525</ele>
        <time>2010-06-06T10:33:05Z</time>
      </trkpt>
      <trkpt lat="45.12754" lon="5.61752">
        <ele>1524</ele>
        <time>2010-06-06T10:33:06Z</time>
      </trkpt>
      <trkpt lat="45.12752" lon="5.61753">
        <ele>1523</ele>
        <time>2010-06-06T10:33:07Z</time>
      </trkpt>
      <trkpt lat="45.1275" lon="5.61753">
        <ele>1522</ele>
        <time>2010-06-06T10:33:08Z</time>
      </trkpt>
      <trkpt lat="45.12748" lon="5.61753">
        <ele>1521</ele>
        <time>2010-06-06T10:33:09Z</time>
      </trkpt>
      <trkpt lat="45.12745" lon="5.61752">
        <ele>1521</ele>
        <time>2010-06-06T10:33:10Z</time>
      </trkpt>
      <trkpt lat="45.12743" lon="5.6175">
        <ele>1520</ele>
        <time>2010-06-06T10:33:11Z</time>
      </trkpt>
      <trkpt lat="45.12741" lon="5.61749">
        <ele>1519</ele>
        <time>2010-06-06T10:33:12Z</time>
      </trkpt>
      <trkpt lat="45.12739" lon="5.61748">
        <ele>1518</ele>
        <time>2010-06-06T10:33:13Z</time>
      </trkpt>
      <trkpt lat="45.12735" lon="5.61748">
        <ele>1517</ele>
        <time>2010-06-06T10:33:14Z</time>
      </trkpt>
      <trkpt lat="45.12733" lon="5.61747">
        <ele>1517</ele>
        <time>2010-06-06T10:33:15Z</time>
      </trkpt>
      <trkpt lat="45.12731" lon="5.61748">
        <ele>1517</ele>
        <time>2010-06-06T10:33:16Z</time>
      </trkpt>
      <trkpt lat="45.12728" lon="5.61749">
        <ele>1516</ele>
        <time>2010-06-06T10:33:17Z</time>
      </trkpt>
      <trkpt lat="45.12726" lon="5.6175">
        <ele>1516</ele>
        <time>2010-06-06T10:33:18Z</time>
      </trkpt>
      <trkpt lat="45.12724" lon="5.61751">
        <ele>1516</ele>
        <time>2010-06-06T10:33:19Z</time>
      </trkpt>
      <trkpt lat="45.12722" lon="5.61752">
        <ele>1515</ele>
        <time>2010-06-06T10:33:20Z</time>
      </trkpt>
      <trkpt lat="45.12721" lon="5.61751">
        <ele>1515</ele>
        <time>2010-06-06T10:33:21Z</time>
      </trkpt>
      <trkpt lat="45.12719" lon="5.61753">
        <ele>1514</ele>
        <time>2010-06-06T10:33:22Z</time>
      </trkpt>
      <trkpt lat="45.12716" lon="5.61753">
        <ele>1513</ele>
        <time>2010-06-06T10:33:23Z</time>
      </trkpt>
      <trkpt lat="45.12714" lon="5.61753">
        <ele>1513</ele>
        <time>2010-06-06T10:33:24Z</time>
      </trkpt>
      <trkpt lat="45.12711" lon="5.61753">
        <ele>1512</ele>
        <time>2010-06-06T10:33:25Z</time>
      </trkpt>
      <trkpt lat="45.12709" lon="5.61752">
        <ele>1511</ele>
        <time>2010-06-06T10:33:26Z</time>
      </trkpt>
      <trkpt lat="45.12706" lon="5.61753">
        <ele>1510</ele>
        <time>2010-06-06T10:33:27Z</time>
      </trkpt>
      <trkpt lat="45.12704" lon="5.61754">
        <ele>1509</ele>
        <time>2010-06-06T10:33:28Z</time>
      </trkpt>
      <trkpt lat="45.12701" lon="5.61755">
        <ele>1508</ele>
        <time>2010-06-06T10:33:29Z</time>
      </trkpt>
      <trkpt lat="45.12698" lon="5.61757">
        <ele>1508</ele>
        <time>2010-06-06T10:33:30Z</time>
      </trkpt>
      <trkpt lat="45.12695" lon="5.61758">
        <ele>1507</ele>
        <time>2010-06-06T10:33:31Z</time>
      </trkpt>
      <trkpt lat="45.12692" lon="5.61758">
        <ele>1507</ele>
        <time>2010-06-06T10:33:32Z</time>
      </trkpt>
      <trkpt lat="45.12689" lon="5.61759">
        <ele>1506</ele>
        <time>2010-06-06T10:33:33Z</time>
      </trkpt>
      <trkpt lat="45.12685" lon="5.61759">
        <ele>1505</ele>
        <time>2010-06-06T10:33:34Z</time>
      </trkpt>
      <trkpt lat="45.12682" lon="5.61759">
        <ele>1505</ele>
        <time>2010-06-06T10:33:35Z</time>
      </trkpt>
      <trkpt lat="45.12679" lon="5.61758">
        <ele>1504</ele>
        <time>2010-06-06T10:33:36Z</time>
      </trkpt>
      <trkpt lat="45.12675" lon="5.61758">
        <ele>1503</ele>
        <time>2010-06-06T10:33:37Z</time>
      </trkpt>
      <trkpt lat="45.12672" lon="5.61758">
        <ele>1503</ele>
        <time>2010-06-06T10:33:38Z</time>
      </trkpt>
      <trkpt lat="45.12669" lon="5.61759">
        <ele>1502</ele>
        <time>2010-06-06T10:33:39Z</time>
      </trkpt>
      <trkpt lat="45.12666" lon="5.61758">
        <ele>1501</ele>
        <time>2010-06-06T10:33:40Z</time>
      </trkpt>
      <trkpt lat="45.12663" lon="5.61758">
        <ele>1501</ele>
        <time>2010-06-06T10:33:41Z</time>
      </trkpt>
      <trkpt lat="45.12661" lon="5.61758">
        <ele>1500</ele>
        <time>2010-06-06T10:33:42Z</time>
      </trkpt>
      <trkpt lat="45.12659" lon="5.61759">
        <ele>1499</ele>
        <time>2010-06-06T10:33:43Z</time>
      </trkpt>
      <trkpt lat="45.12656" lon="5.61761">
        <ele>1499</ele>
        <time>2010-06-06T10:33:44Z</time>
      </trkpt>
      <trkpt lat="45.12654" lon="5.61761">
        <ele>1498</ele>
        <time>2010-06-06T10:33:45Z</time>
      </trkpt>
      <trkpt lat="45.12652" lon="5.61761">
        <ele>1498</ele>
        <time>2010-06-06T10:33:46Z</time>
      </trkpt>
      <trkpt lat="45.1265" lon="5.61761">
        <ele>1497</ele>
        <time>2010-06-06T10:33:47Z</time>
      </trkpt>
      <trkpt lat="45.12649" lon="5.6176">
        <ele>1497</ele>
        <time>2010-06-06T10:33:48Z</time>
      </trkpt>
      <trkpt lat="45.12647" lon="5.6176">
        <ele>1496</ele>
        <time>2010-06-06T10:33:49Z</time>
      </trkpt>
      <trkpt lat="45.12646" lon="5.61759">
        <ele>1495</ele>
        <time>2010-06-06T10:33:50Z</time>
      </trkpt>
      <trkpt lat="45.12644" lon="5.61757">
        <ele>1495</ele>
        <time>2010-06-06T10:33:51Z</time>
      </trkpt>
      <trkpt lat="45.12642" lon="5.61756">
        <ele>1494</ele>
        <time>2010-06-06T10:33:52Z</time>
      </trkpt>
      <trkpt lat="45.1264" lon="5.61754">
        <ele>1494</ele>
        <time>2010-06-06T10:33:53Z</time>
      </trkpt>
      <trkpt lat="45.12639" lon="5.61752">
        <ele>1494</ele>
        <time>2010-06-06T10:33:54Z</time>
      </trkpt>
      <trkpt lat="45.12637" lon="5.6175">
        <ele>1494</ele>
        <time>2010-06-06T10:33:55Z</time>
      </trkpt>
      <trkpt lat="45.12636" lon="5.61748">
        <ele>1494</ele>
        <time>2010-06-06T10:33:56Z</time>
      </trkpt>
      <trkpt lat="45.12634" lon="5.61748">
        <ele>1494</ele>
        <time>2010-06-06T10:33:57Z</time>
      </trkpt>
      <trkpt lat="45.12632" lon="5.61748">
        <ele>1494</ele>
        <time>2010-06-06T10:33:58Z</time>
      </trkpt>
      <trkpt lat="45.1263" lon="5.61748">
        <ele>1494</ele>
        <time>2010-06-06T10:33:59Z</time>
      </trkpt>
      <trkpt lat="45.12628" lon="5.61748">
        <ele>1494</ele>
        <time>2010-06-06T10:34:00Z</time>
      </trkpt>
      <trkpt lat="45.12626" lon="5.61748">
        <ele>1494</ele>
        <time>2010-06-06T10:34:01Z</time>
      </trkpt>
      <trkpt lat="45.12625" lon="5.61749">
        <ele>1494</ele>
        <time>2010-06-06T10:34:02Z</time>
      </trkpt>
      <trkpt lat="45.12622" lon="5.6175">
        <ele>1494</ele>
        <time>2010-06-06T10:34:03Z</time>
      </trkpt>
      <trkpt lat="45.1262" lon="5.61749">
        <ele>1494</ele>
        <time>2010-06-06T10:34:04Z</time>
      </trkpt>
      <trkpt lat="45.12618" lon="5.61749">
        <ele>1494</ele>
        <time>2010-06-06T10:34:05Z</time>
      </trkpt>
      <trkpt lat="45.12616" lon="5.61747">
        <ele>1494</ele>
        <time>2010-06-06T10:34:06Z</time>
      </trkpt>
      <trkpt lat="45.12614" lon="5.61746">
        <ele>1494</ele>
        <time>2010-06-06T10:34:07Z</time>
      </trkpt>
      <trkpt lat="45.12612" lon="5.61744">
        <ele>1494</ele>
        <time>2010-06-06T10:34:08Z</time>
      </trkpt>
      <trkpt lat="45.12609" lon="5.61743">
        <ele>1494</ele>
        <time>2010-06-06T10:34:09Z</time>
      </trkpt>
      <trkpt lat="45.12606" lon="5.61741">
        <ele>1494</ele>
        <time>2010-06-06T10:34:10Z</time>
      </trkpt>
      <trkpt lat="45.12603" lon="5.61741">
        <ele>1494</ele>
        <time>2010-06-06T10:34:11Z</time>
      </trkpt>
      <trkpt lat="45.12602" lon="5.61741">
        <ele>1494</ele>
        <time>2010-06-06T10:34:12Z</time>
      </trkpt>
      <trkpt lat="45.12599" lon="5.61744">
        <ele>1493</ele>
        <time>2010-06-06T10:34:14Z</time>
      </trkpt>
      <trkpt lat="45.12598" lon="5.61744">
        <ele>1492</ele>
        <time>2010-06-06T10:34:15Z</time>
      </trkpt>
      <trkpt lat="45.12596" lon="5.61745">
        <ele>1492</ele>
        <time>2010-06-06T10:34:16Z</time>
      </trkpt>
      <trkpt lat="45.12593" lon="5.61745">
        <ele>1491</ele>
        <time>2010-06-06T10:34:17Z</time>
      </trkpt>
      <trkpt lat="45.12591" lon="5.61743">
        <ele>1490</ele>
        <time>2010-06-06T10:34:18Z</time>
      </trkpt>
      <trkpt lat="45.12589" lon="5.61742">
        <ele>1490</ele>
        <time>2010-06-06T10:34:19Z</time>
      </trkpt>
      <trkpt lat="45.12587" lon="5.61742">
        <ele>1489</ele>
        <time>2010-06-06T10:34:20Z</time>
      </trkpt>
      <trkpt lat="45.12584" lon="5.61742">
        <ele>1488</ele>
        <time>2010-06-06T10:34:21Z</time>
      </trkpt>
      <trkpt lat="45.12582" lon="5.6174">
        <ele>1488</ele>
        <time>2010-06-06T10:34:22Z</time>
      </trkpt>
      <trkpt lat="45.12579" lon="5.61739">
        <ele>1487</ele>
        <time>2010-06-06T10:34:23Z</time>
      </trkpt>
      <trkpt lat="45.12577" lon="5.61739">
        <ele>1486</ele>
        <time>2010-06-06T10:34:24Z</time>
      </trkpt>
      <trkpt lat="45.12575" lon="5.6174">
        <ele>1486</ele>
        <time>2010-06-06T10:34:25Z</time>
      </trkpt>
      <trkpt lat="45.12573" lon="5.61739">
        <ele>1485</ele>
        <time>2010-06-06T10:34:26Z</time>
      </trkpt>
      <trkpt lat="45.12571" lon="5.6174">
        <ele>1484</ele>
        <time>2010-06-06T10:34:27Z</time>
      </trkpt>
      <trkpt lat="45.1257" lon="5.6174">
        <ele>1484</ele>
        <time>2010-06-06T10:34:28Z</time>
      </trkpt>
      <trkpt lat="45.12568" lon="5.6174">
        <ele>1483</ele>
        <time>2010-06-06T10:34:29Z</time>
      </trkpt>
      <trkpt lat="45.12566" lon="5.6174">
        <ele>1483</ele>
        <time>2010-06-06T10:34:30Z</time>
      </trkpt>
      <trkpt lat="45.12564" lon="5.61738">
        <ele>1482</ele>
        <time>2010-06-06T10:34:31Z</time>
      </trkpt>
      <trkpt lat="45.12562" lon="5.61736">
        <ele>1481</ele>
        <time>2010-06-06T10:34:32Z</time>
      </trkpt>
      <trkpt lat="45.12561" lon="5.61733">
        <ele>1480</ele>
        <time>2010-06-06T10:34:33Z</time>
      </trkpt>
      <trkpt lat="45.12559" lon="5.61731">
        <ele>1479</ele>
        <time>2010-06-06T10:34:34Z</time>
      </trkpt>
      <trkpt lat="45.12557" lon="5.61728">
        <ele>1478</ele>
        <time>2010-06-06T10:34:35Z</time>
      </trkpt>
      <trkpt lat="45.12554" lon="5.61725">
        <ele>1478</ele>
        <time>2010-06-06T10:34:36Z</time>
      </trkpt>
      <trkpt lat="45.12551" lon="5.61723">
        <ele>1477</ele>
        <time>2010-06-06T10:34:37Z</time>
      </trkpt>
      <trkpt lat="45.12547" lon="5.61721">
        <ele>1476</ele>
        <time>2010-06-06T10:34:38Z</time>
      </trkpt>
      <trkpt lat="45.12544" lon="5.61718">
        <ele>1475</ele>
        <time>2010-06-06T10:34:39Z</time>
      </trkpt>
      <trkpt lat="45.12541" lon="5.61716">
        <ele>1474</ele>
        <time>2010-06-06T10:34:40Z</time>
      </trkpt>
      <trkpt lat="45.12538" lon="5.61713">
        <ele>1473</ele>
        <time>2010-06-06T10:34:41Z</time>
      </trkpt>
      <trkpt lat="45.12536" lon="5.6171">
        <ele>1472</ele>
        <time>2010-06-06T10:34:42Z</time>
      </trkpt>
      <trkpt lat="45.12534" lon="5.61706">
        <ele>1472</ele>
        <time>2010-06-06T10:34:43Z</time>
      </trkpt>
      <trkpt lat="45.12532" lon="5.61703">
        <ele>1471</ele>
        <time>2010-06-06T10:34:44Z</time>
      </trkpt>
      <trkpt lat="45.1253" lon="5.61701">
        <ele>1470</ele>
        <time>2010-06-06T10:34:45Z</time>
      </trkpt>
      <trkpt lat="45.12527" lon="5.61698">
        <ele>1470</ele>
        <time>2010-06-06T10:34:46Z</time>
      </trkpt>
      <trkpt lat="45.12526" lon="5.61694">
        <ele>1469</ele>
        <time>2010-06-06T10:34:47Z</time>
      </trkpt>
      <trkpt lat="45.12524" lon="5.6169">
        <ele>1469</ele>
        <time>2010-06-06T10:34:48Z</time>
      </trkpt>
      <trkpt lat="45.12521" lon="5.61687">
        <ele>1469</ele>
        <time>2010-06-06T10:34:49Z</time>
      </trkpt>
      <trkpt lat="45.12519" lon="5.61684">
        <ele>1468</ele>
        <time>2010-06-06T10:34:50Z</time>
      </trkpt>
      <trkpt lat="45.12517" lon="5.61681">
        <ele>1468</ele>
        <time>2010-06-06T10:34:51Z</time>
      </trkpt>
      <trkpt lat="45.12514" lon="5.61679">
        <ele>1468</ele>
        <time>2010-06-06T10:34:52Z</time>
      </trkpt>
      <trkpt lat="45.12512" lon="5.61678">
        <ele>1468</ele>
        <time>2010-06-06T10:34:53Z</time>
      </trkpt>
      <trkpt lat="45.12509" lon="5.61677">
        <ele>1468</ele>
        <time>2010-06-06T10:34:54Z</time>
      </trkpt>
      <trkpt lat="45.12506" lon="5.61677">
        <ele>1468</ele>
        <time>2010-06-06T10:34:55Z</time>
      </trkpt>
      <trkpt lat="45.12503" lon="5.61676">
        <ele>1468</ele>
        <time>2010-06-06T10:34:56Z</time>
      </trkpt>
      <trkpt lat="45.125" lon="5.61675">
        <ele>1468</ele>
        <time>2010-06-06T10:34:57Z</time>
      </trkpt>
      <trkpt lat="45.12498" lon="5.61673">
        <ele>1468</ele>
        <time>2010-06-06T10:34:58Z</time>
      </trkpt>
      <trkpt lat="45.12495" lon="5.61669">
        <ele>1467</ele>
        <time>2010-06-06T10:34:59Z</time>
      </trkpt>
      <trkpt lat="45.12494" lon="5.61665">
        <ele>1467</ele>
        <time>2010-06-06T10:35:00Z</time>
      </trkpt>
      <trkpt lat="45.12493" lon="5.61661">
        <ele>1467</ele>
        <time>2010-06-06T10:35:01Z</time>
      </trkpt>
      <trkpt lat="45.12493" lon="5.61656">
        <ele>1467</ele>
        <time>2010-06-06T10:35:02Z</time>
      </trkpt>
      <trkpt lat="45.12493" lon="5.61651">
        <ele>1467</ele>
        <time>2010-06-06T10:35:03Z</time>
      </trkpt>
      <trkpt lat="45.12494" lon="5.61646">
        <ele>1467</ele>
        <time>2010-06-06T10:35:04Z</time>
      </trkpt>
      <trkpt lat="45.12495" lon="5.61643">
        <ele>1467</ele>
        <time>2010-06-06T10:35:05Z</time>
      </trkpt>
      <trkpt lat="45.12497" lon="5.61642">
        <ele>1467</ele>
        <time>2010-06-06T10:35:06Z</time>
      </trkpt>
      <trkpt lat="45.125" lon="5.61642">
        <ele>1467</ele>
        <time>2010-06-06T10:35:07Z</time>
      </trkpt>
      <trkpt lat="45.12503" lon="5.61644">
        <ele>1467</ele>
        <time>2010-06-06T10:35:08Z</time>
      </trkpt>
      <trkpt lat="45.12507" lon="5.61645">
        <ele>1467</ele>
        <time>2010-06-06T10:35:09Z</time>
      </trkpt>
      <trkpt lat="45.12511" lon="5.61645">
        <ele>1467</ele>
        <time>2010-06-06T10:35:10Z</time>
      </trkpt>
      <trkpt lat="45.12514" lon="5.61645">
        <ele>1467</ele>
        <time>2010-06-06T10:35:11Z</time>
      </trkpt>
      <trkpt lat="45.12517" lon="5.61645">
        <ele>1467</ele>
        <time>2010-06-06T10:35:12Z</time>
      </trkpt>
      <trkpt lat="45.12519" lon="5.61644">
        <ele>1467</ele>
        <time>2010-06-06T10:35:13Z</time>
      </trkpt>
      <trkpt lat="45.12522" lon="5.61645">
        <ele>1467</ele>
        <time>2010-06-06T10:35:14Z</time>
      </trkpt>
      <trkpt lat="45.12524" lon="5.61645">
        <ele>1467</ele>
        <time>2010-06-06T10:35:15Z</time>
      </trkpt>
      <trkpt lat="45.12526" lon="5.61645">
        <ele>1467</ele>
        <time>2010-06-06T10:35:16Z</time>
      </trkpt>
      <trkpt lat="45.12528" lon="5.61646">
        <ele>1467</ele>
        <time>2010-06-06T10:35:17Z</time>
      </trkpt>
      <trkpt lat="45.12529" lon="5.61647">
        <ele>1467</ele>
        <time>2010-06-06T10:35:18Z</time>
      </trkpt>
      <trkpt lat="45.1253" lon="5.61647">
        <ele>1467</ele>
        <time>2010-06-06T10:35:19Z</time>
      </trkpt>
      <trkpt lat="45.12531" lon="5.61648">
        <ele>1467</ele>
        <time>2010-06-06T10:35:20Z</time>
      </trkpt>
      <trkpt lat="45.12533" lon="5.61648">
        <ele>1467</ele>
        <time>2010-06-06T10:35:21Z</time>
      </trkpt>
      <trkpt lat="45.12535" lon="5.61648">
        <ele>1467</ele>
        <time>2010-06-06T10:35:22Z</time>
      </trkpt>
      <trkpt lat="45.12537" lon="5.61647">
        <ele>1467</ele>
        <time>2010-06-06T10:35:23Z</time>
      </trkpt>
      <trkpt lat="45.12539" lon="5.61647">
        <ele>1467</ele>
        <time>2010-06-06T10:35:24Z</time>
      </trkpt>
      <trkpt lat="45.12541" lon="5.61646">
        <ele>1466</ele>
        <time>2010-06-06T10:35:25Z</time>
      </trkpt>
      <trkpt lat="45.12544" lon="5.61645">
        <ele>1466</ele>
        <time>2010-06-06T10:35:26Z</time>
      </trkpt>
      <trkpt lat="45.12546" lon="5.61645">
        <ele>1465</ele>
        <time>2010-06-06T10:35:27Z</time>
      </trkpt>
      <trkpt lat="45.12548" lon="5.61644">
        <ele>1464</ele>
        <time>2010-06-06T10:35:28Z</time>
      </trkpt>
      <trkpt lat="45.1255" lon="5.61643">
        <ele>1463</ele>
        <time>2010-06-06T10:35:29Z</time>
      </trkpt>
      <trkpt lat="45.12551" lon="5.6164">
        <ele>1462</ele>
        <time>2010-06-06T10:35:30Z</time>
      </trkpt>
      <trkpt lat="45.12553" lon="5.61638">
        <ele>1461</ele>
        <time>2010-06-06T10:35:31Z</time>
      </trkpt>
      <trkpt lat="45.12555" lon="5.61635">
        <ele>1460</ele>
        <time>2010-06-06T10:35:32Z</time>
      </trkpt>
      <trkpt lat="45.12557" lon="5.61633">
        <ele>1459</ele>
        <time>2010-06-06T10:35:33Z</time>
      </trkpt>
      <trkpt lat="45.12558" lon="5.61631">
        <ele>1458</ele>
        <time>2010-06-06T10:35:34Z</time>
      </trkpt>
      <trkpt lat="45.12557" lon="5.61629">
        <ele>1457</ele>
        <time>2010-06-06T10:35:35Z</time>
      </trkpt>
      <trkpt lat="45.12555" lon="5.61628">
        <ele>1456</ele>
        <time>2010-06-06T10:35:36Z</time>
      </trkpt>
      <trkpt lat="45.12553" lon="5.61627">
        <ele>1455</ele>
        <time>2010-06-06T10:35:37Z</time>
      </trkpt>
      <trkpt lat="45.12551" lon="5.61625">
        <ele>1454</ele>
        <time>2010-06-06T10:35:38Z</time>
      </trkpt>
      <trkpt lat="45.12549" lon="5.61625">
        <ele>1453</ele>
        <time>2010-06-06T10:35:39Z</time>
      </trkpt>
      <trkpt lat="45.12546" lon="5.61622">
        <ele>1452</ele>
        <time>2010-06-06T10:35:40Z</time>
      </trkpt>
      <trkpt lat="45.12544" lon="5.6162">
        <ele>1451</ele>
        <time>2010-06-06T10:35:41Z</time>
      </trkpt>
      <trkpt lat="45.12543" lon="5.61618">
        <ele>1450</ele>
        <time>2010-06-06T10:35:42Z</time>
      </trkpt>
      <trkpt lat="45.12543" lon="5.61614">
        <ele>1449</ele>
        <time>2010-06-06T10:35:43Z</time>
      </trkpt>
      <trkpt lat="45.12543" lon="5.61611">
        <ele>1448</ele>
        <time>2010-06-06T10:35:44Z</time>
      </trkpt>
      <trkpt lat="45.12545" lon="5.61609">
        <ele>1447</ele>
        <time>2010-06-06T10:35:45Z</time>
      </trkpt>
      <trkpt lat="45.12546" lon="5.61607">
        <ele>1446</ele>
        <time>2010-06-06T10:35:46Z</time>
      </trkpt>
      <trkpt lat="45.12547" lon="5.61604">
        <ele>1445</ele>
        <time>2010-06-06T10:35:47Z</time>
      </trkpt>
      <trkpt lat="45.12549" lon="5.61603">
        <ele>1444</ele>
        <time>2010-06-06T10:35:48Z</time>
      </trkpt>
      <trkpt lat="45.1255" lon="5.61599">
        <ele>1443</ele>
        <time>2010-06-06T10:35:49Z</time>
      </trkpt>
      <trkpt lat="45.12552" lon="5.61596">
        <ele>1442</ele>
        <time>2010-06-06T10:35:50Z</time>
      </trkpt>
      <trkpt lat="45.12554" lon="5.61592">
        <ele>1441</ele>
        <time>2010-06-06T10:35:51Z</time>
      </trkpt>
      <trkpt lat="45.12556" lon="5.61589">
        <ele>1440</ele>
        <time>2010-06-06T10:35:52Z</time>
      </trkpt>
      <trkpt lat="45.12558" lon="5.61586">
        <ele>1439</ele>
        <time>2010-06-06T10:35:53Z</time>
      </trkpt>
      <trkpt lat="45.12561" lon="5.61582">
        <ele>1438</ele>
        <time>2010-06-06T10:35:54Z</time>
      </trkpt>
      <trkpt lat="45.12564" lon="5.61579">
        <ele>1437</ele>
        <time>2010-06-06T10:35:55Z</time>
      </trkpt>
      <trkpt lat="45.12566" lon="5.61575">
        <ele>1436</ele>
        <time>2010-06-06T10:35:56Z</time>
      </trkpt>
      <trkpt lat="45.12569" lon="5.61571">
        <ele>1435</ele>
        <time>2010-06-06T10:35:57Z</time>
      </trkpt>
      <trkpt lat="45.12572" lon="5.61568">
        <ele>1434</ele>
        <time>2010-06-06T10:35:58Z</time>
      </trkpt>
      <trkpt lat="45.12575" lon="5.61565">
        <ele>1434</ele>
        <time>2010-06-06T10:35:59Z</time>
      </trkpt>
      <trkpt lat="45.12578" lon="5.61562">
        <ele>1433</ele>
        <time>2010-06-06T10:36:00Z</time>
      </trkpt>
      <trkpt lat="45.1258" lon="5.6156">
        <ele>1433</ele>
        <time>2010-06-06T10:36:01Z</time>
      </trkpt>
      <trkpt lat="45.12583" lon="5.61557">
        <ele>1433</ele>
        <time>2010-06-06T10:36:02Z</time>
      </trkpt>
      <trkpt lat="45.12585" lon="5.61554">
        <ele>1433</ele>
        <time>2010-06-06T10:36:03Z</time>
      </trkpt>
      <trkpt lat="45.12587" lon="5.61551">
        <ele>1433</ele>
        <time>2010-06-06T10:36:04Z</time>
      </trkpt>
      <trkpt lat="45.12589" lon="5.61547">
        <ele>1433</ele>
        <time>2010-06-06T10:36:05Z</time>
      </trkpt>
      <trkpt lat="45.12591" lon="5.61543">
        <ele>1432</ele>
        <time>2010-06-06T10:36:06Z</time>
      </trkpt>
      <trkpt lat="45.12594" lon="5.61539">
        <ele>1432</ele>
        <time>2010-06-06T10:36:07Z</time>
      </trkpt>
      <trkpt lat="45.12596" lon="5.61536">
        <ele>1432</ele>
        <time>2010-06-06T10:36:08Z</time>
      </trkpt>
      <trkpt lat="45.12598" lon="5.61532">
        <ele>1432</ele>
        <time>2010-06-06T10:36:09Z</time>
      </trkpt>
      <trkpt lat="45.12601" lon="5.61529">
        <ele>1432</ele>
        <time>2010-06-06T10:36:10Z</time>
      </trkpt>
      <trkpt lat="45.12604" lon="5.61526">
        <ele>1432</ele>
        <time>2010-06-06T10:36:11Z</time>
      </trkpt>
      <trkpt lat="45.12606" lon="5.61524">
        <ele>1432</ele>
        <time>2010-06-06T10:36:12Z</time>
      </trkpt>
      <trkpt lat="45.12608" lon="5.61521">
        <ele>1432</ele>
        <time>2010-06-06T10:36:13Z</time>
      </trkpt>
      <trkpt lat="45.1261" lon="5.61517">
        <ele>1432</ele>
        <time>2010-06-06T10:36:14Z</time>
      </trkpt>
      <trkpt lat="45.12611" lon="5.61514">
        <ele>1431</ele>
        <time>2010-06-06T10:36:15Z</time>
      </trkpt>
      <trkpt lat="45.12613" lon="5.61511">
        <ele>1431</ele>
        <time>2010-06-06T10:36:16Z</time>
      </trkpt>
      <trkpt lat="45.12614" lon="5.61507">
        <ele>1430</ele>
        <time>2010-06-06T10:36:17Z</time>
      </trkpt>
      <trkpt lat="45.12616" lon="5.61505">
        <ele>1430</ele>
        <time>2010-06-06T10:36:18Z</time>
      </trkpt>
      <trkpt lat="45.12618" lon="5.61503">
        <ele>1430</ele>
        <time>2010-06-06T10:36:19Z</time>
      </trkpt>
      <trkpt lat="45.1262" lon="5.615">
        <ele>1429</ele>
        <time>2010-06-06T10:36:20Z</time>
      </trkpt>
      <trkpt lat="45.12623" lon="5.61498">
        <ele>1429</ele>
        <time>2010-06-06T10:36:21Z</time>
      </trkpt>
      <trkpt lat="45.12625" lon="5.61495">
        <ele>1428</ele>
        <time>2010-06-06T10:36:22Z</time>
      </trkpt>
      <trkpt lat="45.12628" lon="5.61493">
        <ele>1427</ele>
        <time>2010-06-06T10:36:23Z</time>
      </trkpt>
      <trkpt lat="45.12631" lon="5.61492">
        <ele>1427</ele>
        <time>2010-06-06T10:36:24Z</time>
      </trkpt>
      <trkpt lat="45.12634" lon="5.6149">
        <ele>1426</ele>
        <time>2010-06-06T10:36:25Z</time>
      </trkpt>
      <trkpt lat="45.12638" lon="5.61489">
        <ele>1425</ele>
        <time>2010-06-06T10:36:26Z</time>
      </trkpt>
      <trkpt lat="45.12641" lon="5.61488">
        <ele>1425</ele>
        <time>2010-06-06T10:36:27Z</time>
      </trkpt>
      <trkpt lat="45.12645" lon="5.61488">
        <ele>1424</ele>
        <time>2010-06-06T10:36:28Z</time>
      </trkpt>
      <trkpt lat="45.12647" lon="5.61487">
        <ele>1424</ele>
        <time>2010-06-06T10:36:29Z</time>
      </trkpt>
      <trkpt lat="45.1265" lon="5.61487">
        <ele>1423</ele>
        <time>2010-06-06T10:36:30Z</time>
      </trkpt>
      <trkpt lat="45.12652" lon="5.61486">
        <ele>1423</ele>
        <time>2010-06-06T10:36:31Z</time>
      </trkpt>
      <trkpt lat="45.12655" lon="5.61484">
        <ele>1423</ele>
        <time>2010-06-06T10:36:32Z</time>
      </trkpt>
      <trkpt lat="45.12658" lon="5.61483">
        <ele>1422</ele>
        <time>2010-06-06T10:36:33Z</time>
      </trkpt>
      <trkpt lat="45.12661" lon="5.61483">
        <ele>1421</ele>
        <time>2010-06-06T10:36:34Z</time>
      </trkpt>
      <trkpt lat="45.12665" lon="5.61482">
        <ele>1421</ele>
        <time>2010-06-06T10:36:35Z</time>
      </trkpt>
      <trkpt lat="45.12668" lon="5.61482">
        <ele>1420</ele>
        <time>2010-06-06T10:36:36Z</time>
      </trkpt>
      <trkpt lat="45.12671" lon="5.61481">
        <ele>1419</ele>
        <time>2010-06-06T10:36:37Z</time>
      </trkpt>
      <trkpt lat="45.12674" lon="5.6148">
        <ele>1418</ele>
        <time>2010-06-06T10:36:38Z</time>
      </trkpt>
      <trkpt lat="45.12675" lon="5.61477">
        <ele>1418</ele>
        <time>2010-06-06T10:36:39Z</time>
      </trkpt>
      <trkpt lat="45.12677" lon="5.61476">
        <ele>1418</ele>
        <time>2010-06-06T10:36:40Z</time>
      </trkpt>
      <trkpt lat="45.1268" lon="5.61475">
        <ele>1418</ele>
        <time>2010-06-06T10:36:41Z</time>
      </trkpt>
      <trkpt lat="45.12684" lon="5.61474">
        <ele>1418</ele>
        <time>2010-06-06T10:36:42Z</time>
      </trkpt>
      <trkpt lat="45.12687" lon="5.61474">
        <ele>1417</ele>
        <time>2010-06-06T10:36:43Z</time>
      </trkpt>
      <trkpt lat="45.12691" lon="5.61474">
        <ele>1417</ele>
        <time>2010-06-06T10:36:44Z</time>
      </trkpt>
      <trkpt lat="45.12695" lon="5.61474">
        <ele>1416</ele>
        <time>2010-06-06T10:36:45Z</time>
      </trkpt>
      <trkpt lat="45.12698" lon="5.61473">
        <ele>1416</ele>
        <time>2010-06-06T10:36:46Z</time>
      </trkpt>
      <trkpt lat="45.12702" lon="5.61471">
        <ele>1416</ele>
        <time>2010-06-06T10:36:47Z</time>
      </trkpt>
      <trkpt lat="45.12706" lon="5.61472">
        <ele>1415</ele>
        <time>2010-06-06T10:36:48Z</time>
      </trkpt>
      <trkpt lat="45.12709" lon="5.6147">
        <ele>1415</ele>
        <time>2010-06-06T10:36:49Z</time>
      </trkpt>
      <trkpt lat="45.12712" lon="5.6147">
        <ele>1415</ele>
        <time>2010-06-06T10:36:50Z</time>
      </trkpt>
      <trkpt lat="45.12715" lon="5.6147">
        <ele>1414</ele>
        <time>2010-06-06T10:36:51Z</time>
      </trkpt>
      <trkpt lat="45.12719" lon="5.61469">
        <ele>1413</ele>
        <time>2010-06-06T10:36:52Z</time>
      </trkpt>
      <trkpt lat="45.12722" lon="5.61468">
        <ele>1412</ele>
        <time>2010-06-06T10:36:53Z</time>
      </trkpt>
      <trkpt lat="45.12726" lon="5.61468">
        <ele>1412</ele>
        <time>2010-06-06T10:36:54Z</time>
      </trkpt>
      <trkpt lat="45.1273" lon="5.61467">
        <ele>1411</ele>
        <time>2010-06-06T10:36:55Z</time>
      </trkpt>
      <trkpt lat="45.12734" lon="5.61469">
        <ele>1411</ele>
        <time>2010-06-06T10:36:56Z</time>
      </trkpt>
      <trkpt lat="45.12739" lon="5.61469">
        <ele>1410</ele>
        <time>2010-06-06T10:36:57Z</time>
      </trkpt>
      <trkpt lat="45.12742" lon="5.61469">
        <ele>1410</ele>
        <time>2010-06-06T10:36:58Z</time>
      </trkpt>
      <trkpt lat="45.12744" lon="5.61468">
        <ele>1410</ele>
        <time>2010-06-06T10:36:59Z</time>
      </trkpt>
      <trkpt lat="45.12747" lon="5.61468">
        <ele>1410</ele>
        <time>2010-06-06T10:37:00Z</time>
      </trkpt>
      <trkpt lat="45.12749" lon="5.61467">
        <ele>1410</ele>
        <time>2010-06-06T10:37:01Z</time>
      </trkpt>
      <trkpt lat="45.12752" lon="5.61465">
        <ele>1410</ele>
        <time>2010-06-06T10:37:02Z</time>
      </trkpt>
      <trkpt lat="45.12755" lon="5.61462">
        <ele>1410</ele>
        <time>2010-06-06T10:37:03Z</time>
      </trkpt>
      <trkpt lat="45.12758" lon="5.6146">
        <ele>1410</ele>
        <time>2010-06-06T10:37:04Z</time>
      </trkpt>
      <trkpt lat="45.12761" lon="5.61457">
        <ele>1410</ele>
        <time>2010-06-06T10:37:05Z</time>
      </trkpt>
      <trkpt lat="45.12764" lon="5.61455">
        <ele>1410</ele>
        <time>2010-06-06T10:37:06Z</time>
      </trkpt>
      <trkpt lat="45.12767" lon="5.61453">
        <ele>1409</ele>
        <time>2010-06-06T10:37:07Z</time>
      </trkpt>
      <trkpt lat="45.1277" lon="5.61452">
        <ele>1408</ele>
        <time>2010-06-06T10:37:08Z</time>
      </trkpt>
      <trkpt lat="45.12773" lon="5.61451">
        <ele>1408</ele>
        <time>2010-06-06T10:37:09Z</time>
      </trkpt>
      <trkpt lat="45.12776" lon="5.61451">
        <ele>1407</ele>
        <time>2010-06-06T10:37:10Z</time>
      </trkpt>
      <trkpt lat="45.12778" lon="5.61449">
        <ele>1406</ele>
        <time>2010-06-06T10:37:11Z</time>
      </trkpt>
      <trkpt lat="45.1278" lon="5.61447">
        <ele>1405</ele>
        <time>2010-06-06T10:37:12Z</time>
      </trkpt>
      <trkpt lat="45.12783" lon="5.61445">
        <ele>1404</ele>
        <time>2010-06-06T10:37:13Z</time>
      </trkpt>
      <trkpt lat="45.12786" lon="5.61444">
        <ele>1403</ele>
        <time>2010-06-06T10:37:14Z</time>
      </trkpt>
      <trkpt lat="45.1279" lon="5.61444">
        <ele>1403</ele>
        <time>2010-06-06T10:37:15Z</time>
      </trkpt>
      <trkpt lat="45.12793" lon="5.61443">
        <ele>1402</ele>
        <time>2010-06-06T10:37:16Z</time>
      </trkpt>
      <trkpt lat="45.12795" lon="5.61442">
        <ele>1401</ele>
        <time>2010-06-06T10:37:17Z</time>
      </trkpt>
      <trkpt lat="45.12797" lon="5.6144">
        <ele>1400</ele>
        <time>2010-06-06T10:37:18Z</time>
      </trkpt>
      <trkpt lat="45.128" lon="5.61438">
        <ele>1399</ele>
        <time>2010-06-06T10:37:19Z</time>
      </trkpt>
      <trkpt lat="45.12803" lon="5.61434">
        <ele>1398</ele>
        <time>2010-06-06T10:37:20Z</time>
      </trkpt>
      <trkpt lat="45.12805" lon="5.61431">
        <ele>1397</ele>
        <time>2010-06-06T10:37:21Z</time>
      </trkpt>
      <trkpt lat="45.12809" lon="5.61427">
        <ele>1397</ele>
        <time>2010-06-06T10:37:22Z</time>
      </trkpt>
      <trkpt lat="45.12811" lon="5.61425">
        <ele>1396</ele>
        <time>2010-06-06T10:37:23Z</time>
      </trkpt>
      <trkpt lat="45.12813" lon="5.61422">
        <ele>1396</ele>
        <time>2010-06-06T10:37:24Z</time>
      </trkpt>
      <trkpt lat="45.12815" lon="5.61419">
        <ele>1396</ele>
        <time>2010-06-06T10:37:25Z</time>
      </trkpt>
      <trkpt lat="45.12817" lon="5.61417">
        <ele>1395</ele>
        <time>2010-06-06T10:37:26Z</time>
      </trkpt>
      <trkpt lat="45.12819" lon="5.61414">
        <ele>1395</ele>
        <time>2010-06-06T10:37:27Z</time>
      </trkpt>
      <trkpt lat="45.12822" lon="5.61411">
        <ele>1394</ele>
        <time>2010-06-06T10:37:28Z</time>
      </trkpt>
      <trkpt lat="45.12824" lon="5.61409">
        <ele>1394</ele>
        <time>2010-06-06T10:37:29Z</time>
      </trkpt>
      <trkpt lat="45.12827" lon="5.61408">
        <ele>1393</ele>
        <time>2010-06-06T10:37:30Z</time>
      </trkpt>
      <trkpt lat="45.12831" lon="5.61405">
        <ele>1392</ele>
        <time>2010-06-06T10:37:31Z</time>
      </trkpt>
      <trkpt lat="45.12835" lon="5.61403">
        <ele>1391</ele>
        <time>2010-06-06T10:37:32Z</time>
      </trkpt>
      <trkpt lat="45.12838" lon="5.61402">
        <ele>1390</ele>
        <time>2010-06-06T10:37:33Z</time>
      </trkpt>
      <trkpt lat="45.12842" lon="5.61401">
        <ele>1389</ele>
        <time>2010-06-06T10:37:34Z</time>
      </trkpt>
      <trkpt lat="45.12846" lon="5.614">
        <ele>1388</ele>
        <time>2010-06-06T10:37:35Z</time>
      </trkpt>
      <trkpt lat="45.12849" lon="5.61398">
        <ele>1387</ele>
        <time>2010-06-06T10:37:36Z</time>
      </trkpt>
      <trkpt lat="45.12851" lon="5.61396">
        <ele>1386</ele>
        <time>2010-06-06T10:37:37Z</time>
      </trkpt>
      <trkpt lat="45.12854" lon="5.61395">
        <ele>1385</ele>
        <time>2010-06-06T10:37:38Z</time>
      </trkpt>
      <trkpt lat="45.12856" lon="5.61393">
        <ele>1384</ele>
        <time>2010-06-06T10:37:39Z</time>
      </trkpt>
      <trkpt lat="45.12858" lon="5.61391">
        <ele>1383</ele>
        <time>2010-06-06T10:37:40Z</time>
      </trkpt>
      <trkpt lat="45.12859" lon="5.61387">
        <ele>1382</ele>
        <time>2010-06-06T10:37:41Z</time>
      </trkpt>
      <trkpt lat="45.1286" lon="5.61384">
        <ele>1381</ele>
        <time>2010-06-06T10:37:42Z</time>
      </trkpt>
      <trkpt lat="45.12861" lon="5.61381">
        <ele>1380</ele>
        <time>2010-06-06T10:37:43Z</time>
      </trkpt>
      <trkpt lat="45.12862" lon="5.61378">
        <ele>1379</ele>
        <time>2010-06-06T10:37:44Z</time>
      </trkpt>
      <trkpt lat="45.12863" lon="5.61374">
        <ele>1378</ele>
        <time>2010-06-06T10:37:45Z</time>
      </trkpt>
      <trkpt lat="45.12863" lon="5.6137">
        <ele>1377</ele>
        <time>2010-06-06T10:37:46Z</time>
      </trkpt>
      <trkpt lat="45.12864" lon="5.61366">
        <ele>1376</ele>
        <time>2010-06-06T10:37:47Z</time>
      </trkpt>
      <trkpt lat="45.12864" lon="5.61362">
        <ele>1375</ele>
        <time>2010-06-06T10:37:48Z</time>
      </trkpt>
      <trkpt lat="45.12865" lon="5.61359">
        <ele>1374</ele>
        <time>2010-06-06T10:37:50Z</time>
      </trkpt>
      <trkpt lat="45.12867" lon="5.61356">
        <ele>1373</ele>
        <time>2010-06-06T10:37:50Z</time>
      </trkpt>
      <trkpt lat="45.12869" lon="5.61353">
        <ele>1372</ele>
        <time>2010-06-06T10:37:51Z</time>
      </trkpt>
      <trkpt lat="45.1287" lon="5.61351">
        <ele>1371</ele>
        <time>2010-06-06T10:37:52Z</time>
      </trkpt>
      <trkpt lat="45.12872" lon="5.61349">
        <ele>1370</ele>
        <time>2010-06-06T10:37:53Z</time>
      </trkpt>
      <trkpt lat="45.12872" lon="5.61347">
        <ele>1369</ele>
        <time>2010-06-06T10:37:54Z</time>
      </trkpt>
      <trkpt lat="45.12871" lon="5.61344">
        <ele>1368</ele>
        <time>2010-06-06T10:37:55Z</time>
      </trkpt>
      <trkpt lat="45.12871" lon="5.61341">
        <ele>1367</ele>
        <time>2010-06-06T10:37:56Z</time>
      </trkpt>
      <trkpt lat="45.12869" lon="5.61339">
        <ele>1366</ele>
        <time>2010-06-06T10:37:57Z</time>
      </trkpt>
      <trkpt lat="45.12868" lon="5.61336">
        <ele>1365</ele>
        <time>2010-06-06T10:37:58Z</time>
      </trkpt>
      <trkpt lat="45.12866" lon="5.61333">
        <ele>1364</ele>
        <time>2010-06-06T10:37:59Z</time>
      </trkpt>
      <trkpt lat="45.12864" lon="5.61331">
        <ele>1364</ele>
        <time>2010-06-06T10:38:00Z</time>
      </trkpt>
      <trkpt lat="45.12861" lon="5.61329">
        <ele>1363</ele>
        <time>2010-06-06T10:38:01Z</time>
      </trkpt>
      <trkpt lat="45.12858" lon="5.61328">
        <ele>1362</ele>
        <time>2010-06-06T10:38:02Z</time>
      </trkpt>
      <trkpt lat="45.12855" lon="5.61327">
        <ele>1362</ele>
        <time>2010-06-06T10:38:03Z</time>
      </trkpt>
      <trkpt lat="45.12852" lon="5.61326">
        <ele>1361</ele>
        <time>2010-06-06T10:38:04Z</time>
      </trkpt>
      <trkpt lat="45.12849" lon="5.61326">
        <ele>1360</ele>
        <time>2010-06-06T10:38:05Z</time>
      </trkpt>
      <trkpt lat="45.12846" lon="5.61326">
        <ele>1359</ele>
        <time>2010-06-06T10:38:06Z</time>
      </trkpt>
      <trkpt lat="45.12843" lon="5.61326">
        <ele>1358</ele>
        <time>2010-06-06T10:38:07Z</time>
      </trkpt>
      <trkpt lat="45.1284" lon="5.61325">
        <ele>1357</ele>
        <time>2010-06-06T10:38:08Z</time>
      </trkpt>
      <trkpt lat="45.12837" lon="5.61325">
        <ele>1357</ele>
        <time>2010-06-06T10:38:09Z</time>
      </trkpt>
      <trkpt lat="45.12834" lon="5.61324">
        <ele>1356</ele>
        <time>2010-06-06T10:38:10Z</time>
      </trkpt>
      <trkpt lat="45.12832" lon="5.61323">
        <ele>1355</ele>
        <time>2010-06-06T10:38:11Z</time>
      </trkpt>
      <trkpt lat="45.12829" lon="5.61322">
        <ele>1354</ele>
        <time>2010-06-06T10:38:12Z</time>
      </trkpt>
      <trkpt lat="45.12828" lon="5.61319">
        <ele>1354</ele>
        <time>2010-06-06T10:38:13Z</time>
      </trkpt>
      <trkpt lat="45.12827" lon="5.61316">
        <ele>1353</ele>
        <time>2010-06-06T10:38:14Z</time>
      </trkpt>
      <trkpt lat="45.12827" lon="5.61313">
        <ele>1352</ele>
        <time>2010-06-06T10:38:15Z</time>
      </trkpt>
      <trkpt lat="45.12826" lon="5.61311">
        <ele>1351</ele>
        <time>2010-06-06T10:38:16Z</time>
      </trkpt>
      <trkpt lat="45.12824" lon="5.6131">
        <ele>1351</ele>
        <time>2010-06-06T10:38:17Z</time>
      </trkpt>
      <trkpt lat="45.12821" lon="5.61308">
        <ele>1350</ele>
        <time>2010-06-06T10:38:18Z</time>
      </trkpt>
      <trkpt lat="45.12819" lon="5.61308">
        <ele>1350</ele>
        <time>2010-06-06T10:38:19Z</time>
      </trkpt>
      <trkpt lat="45.12817" lon="5.61308">
        <ele>1349</ele>
        <time>2010-06-06T10:38:20Z</time>
      </trkpt>
      <trkpt lat="45.12815" lon="5.61307">
        <ele>1349</ele>
        <time>2010-06-06T10:38:21Z</time>
      </trkpt>
      <trkpt lat="45.12812" lon="5.61306">
        <ele>1349</ele>
        <time>2010-06-06T10:38:22Z</time>
      </trkpt>
      <trkpt lat="45.1281" lon="5.61305">
        <ele>1349</ele>
        <time>2010-06-06T10:38:23Z</time>
      </trkpt>
      <trkpt lat="45.12808" lon="5.61304">
        <ele>1348</ele>
        <time>2010-06-06T10:38:24Z</time>
      </trkpt>
      <trkpt lat="45.12805" lon="5.61303">
        <ele>1348</ele>
        <time>2010-06-06T10:38:25Z</time>
      </trkpt>
      <trkpt lat="45.12802" lon="5.61303">
        <ele>1348</ele>
        <time>2010-06-06T10:38:26Z</time>
      </trkpt>
      <trkpt lat="45.12799" lon="5.61302">
        <ele>1347</ele>
        <time>2010-06-06T10:38:27Z</time>
      </trkpt>
      <trkpt lat="45.12796" lon="5.613">
        <ele>1347</ele>
        <time>2010-06-06T10:38:28Z</time>
      </trkpt>
      <trkpt lat="45.12793" lon="5.61299">
        <ele>1347</ele>
        <time>2010-06-06T10:38:29Z</time>
      </trkpt>
      <trkpt lat="45.12789" lon="5.61298">
        <ele>1346</ele>
        <time>2010-06-06T10:38:30Z</time>
      </trkpt>
      <trkpt lat="45.12787" lon="5.61297">
        <ele>1346</ele>
        <time>2010-06-06T10:38:31Z</time>
      </trkpt>
      <trkpt lat="45.12784" lon="5.61295">
        <ele>1346</ele>
        <time>2010-06-06T10:38:32Z</time>
      </trkpt>
      <trkpt lat="45.12782" lon="5.61293">
        <ele>1346</ele>
        <time>2010-06-06T10:38:33Z</time>
      </trkpt>
      <trkpt lat="45.12779" lon="5.61291">
        <ele>1345</ele>
        <time>2010-06-06T10:38:34Z</time>
      </trkpt>
      <trkpt lat="45.12776" lon="5.61289">
        <ele>1345</ele>
        <time>2010-06-06T10:38:35Z</time>
      </trkpt>
      <trkpt lat="45.12773" lon="5.61288">
        <ele>1344</ele>
        <time>2010-06-06T10:38:36Z</time>
      </trkpt>
      <trkpt lat="45.12771" lon="5.61286">
        <ele>1344</ele>
        <time>2010-06-06T10:38:37Z</time>
      </trkpt>
      <trkpt lat="45.12768" lon="5.61285">
        <ele>1343</ele>
        <time>2010-06-06T10:38:38Z</time>
      </trkpt>
      <trkpt lat="45.12766" lon="5.61284">
        <ele>1343</ele>
        <time>2010-06-06T10:38:39Z</time>
      </trkpt>
      <trkpt lat="45.12763" lon="5.61281">
        <ele>1343</ele>
        <time>2010-06-06T10:38:40Z</time>
      </trkpt>
      <trkpt lat="45.1276" lon="5.61278">
        <ele>1342</ele>
        <time>2010-06-06T10:38:41Z</time>
      </trkpt>
      <trkpt lat="45.12757" lon="5.61276">
        <ele>1342</ele>
        <time>2010-06-06T10:38:42Z</time>
      </trkpt>
      <trkpt lat="45.12752" lon="5.61274">
        <ele>1341</ele>
        <time>2010-06-06T10:38:43Z</time>
      </trkpt>
      <trkpt lat="45.12748" lon="5.61271">
        <ele>1340</ele>
        <time>2010-06-06T10:38:44Z</time>
      </trkpt>
      <trkpt lat="45.12744" lon="5.61269">
        <ele>1340</ele>
        <time>2010-06-06T10:38:45Z</time>
      </trkpt>
      <trkpt lat="45.12741" lon="5.61266">
        <ele>1339</ele>
        <time>2010-06-06T10:38:46Z</time>
      </trkpt>
      <trkpt lat="45.12738" lon="5.61264">
        <ele>1339</ele>
        <time>2010-06-06T10:38:47Z</time>
      </trkpt>
      <trkpt lat="45.12735" lon="5.61261">
        <ele>1339</ele>
        <time>2010-06-06T10:38:48Z</time>
      </trkpt>
      <trkpt lat="45.12732" lon="5.61258">
        <ele>1338</ele>
        <time>2010-06-06T10:38:49Z</time>
      </trkpt>
      <trkpt lat="45.1273" lon="5.61256">
        <ele>1338</ele>
        <time>2010-06-06T10:38:50Z</time>
      </trkpt>
      <trkpt lat="45.12728" lon="5.61254">
        <ele>1338</ele>
        <time>2010-06-06T10:38:51Z</time>
      </trkpt>
      <trkpt lat="45.12725" lon="5.61251">
        <ele>1338</ele>
        <time>2010-06-06T10:38:52Z</time>
      </trkpt>
      <trkpt lat="45.12722" lon="5.61249">
        <ele>1337</ele>
        <time>2010-06-06T10:38:53Z</time>
      </trkpt>
      <trkpt lat="45.12718" lon="5.61248">
        <ele>1337</ele>
        <time>2010-06-06T10:38:54Z</time>
      </trkpt>
      <trkpt lat="45.12714" lon="5.61248">
        <ele>1337</ele>
        <time>2010-06-06T10:38:55Z</time>
      </trkpt>
      <trkpt lat="45.12711" lon="5.61247">
        <ele>1336</ele>
        <time>2010-06-06T10:38:56Z</time>
      </trkpt>
      <trkpt lat="45.12708" lon="5.61246">
        <ele>1336</ele>
        <time>2010-06-06T10:38:57Z</time>
      </trkpt>
      <trkpt lat="45.12705" lon="5.61245">
        <ele>1335</ele>
        <time>2010-06-06T10:38:58Z</time>
      </trkpt>
      <trkpt lat="45.12702" lon="5.61244">
        <ele>1335</ele>
        <time>2010-06-06T10:38:59Z</time>
      </trkpt>
      <trkpt lat="45.127" lon="5.61242">
        <ele>1335</ele>
        <time>2010-06-06T10:39:00Z</time>
      </trkpt>
      <trkpt lat="45.12696" lon="5.61241">
        <ele>1334</ele>
        <time>2010-06-06T10:39:01Z</time>
      </trkpt>
      <trkpt lat="45.12692" lon="5.61241">
        <ele>1334</ele>
        <time>2010-06-06T10:39:02Z</time>
      </trkpt>
      <trkpt lat="45.12688" lon="5.6124">
        <ele>1333</ele>
        <time>2010-06-06T10:39:03Z</time>
      </trkpt>
      <trkpt lat="45.12686" lon="5.61238">
        <ele>1333</ele>
        <time>2010-06-06T10:39:04Z</time>
      </trkpt>
      <trkpt lat="45.12683" lon="5.61236">
        <ele>1333</ele>
        <time>2010-06-06T10:39:05Z</time>
      </trkpt>
      <trkpt lat="45.12681" lon="5.61234">
        <ele>1332</ele>
        <time>2010-06-06T10:39:06Z</time>
      </trkpt>
      <trkpt lat="45.12678" lon="5.61232">
        <ele>1332</ele>
        <time>2010-06-06T10:39:07Z</time>
      </trkpt>
      <trkpt lat="45.12676" lon="5.6123">
        <ele>1332</ele>
        <time>2010-06-06T10:39:08Z</time>
      </trkpt>
      <trkpt lat="45.12675" lon="5.61228">
        <ele>1331</ele>
        <time>2010-06-06T10:39:09Z</time>
      </trkpt>
      <trkpt lat="45.12673" lon="5.61227">
        <ele>1331</ele>
        <time>2010-06-06T10:39:10Z</time>
      </trkpt>
      <trkpt lat="45.12671" lon="5.61227">
        <ele>1330</ele>
        <time>2010-06-06T10:39:11Z</time>
      </trkpt>
      <trkpt lat="45.1267" lon="5.61225">
        <ele>1329</ele>
        <time>2010-06-06T10:39:12Z</time>
      </trkpt>
      <trkpt lat="45.12668" lon="5.61223">
        <ele>1329</ele>
        <time>2010-06-06T10:39:13Z</time>
      </trkpt>
      <trkpt lat="45.12666" lon="5.61221">
        <ele>1328</ele>
        <time>2010-06-06T10:39:14Z</time>
      </trkpt>
      <trkpt lat="45.12663" lon="5.61219">
        <ele>1327</ele>
        <time>2010-06-06T10:39:15Z</time>
      </trkpt>
      <trkpt lat="45.12659" lon="5.61214">
        <ele>1326</ele>
        <time>2010-06-06T10:39:16Z</time>
      </trkpt>
      <trkpt lat="45.12656" lon="5.61212">
        <ele>1325</ele>
        <time>2010-06-06T10:39:17Z</time>
      </trkpt>
      <trkpt lat="45.12652" lon="5.61209">
        <ele>1325</ele>
        <time>2010-06-06T10:39:18Z</time>
      </trkpt>
      <trkpt lat="45.1265" lon="5.61206">
        <ele>1324</ele>
        <time>2010-06-06T10:39:19Z</time>
      </trkpt>
      <trkpt lat="45.12647" lon="5.61204">
        <ele>1324</ele>
        <time>2010-06-06T10:39:20Z</time>
      </trkpt>
      <trkpt lat="45.12644" lon="5.61203">
        <ele>1324</ele>
        <time>2010-06-06T10:39:21Z</time>
      </trkpt>
      <trkpt lat="45.12642" lon="5.61201">
        <ele>1323</ele>
        <time>2010-06-06T10:39:22Z</time>
      </trkpt>
      <trkpt lat="45.1264" lon="5.61199">
        <ele>1323</ele>
        <time>2010-06-06T10:39:23Z</time>
      </trkpt>
      <trkpt lat="45.12637" lon="5.61197">
        <ele>1322</ele>
        <time>2010-06-06T10:39:24Z</time>
      </trkpt>
      <trkpt lat="45.12635" lon="5.61195">
        <ele>1322</ele>
        <time>2010-06-06T10:39:25Z</time>
      </trkpt>
      <trkpt lat="45.12633" lon="5.61192">
        <ele>1322</ele>
        <time>2010-06-06T10:39:26Z</time>
      </trkpt>
      <trkpt lat="45.12631" lon="5.6119">
        <ele>1321</ele>
        <time>2010-06-06T10:39:27Z</time>
      </trkpt>
      <trkpt lat="45.12629" lon="5.61188">
        <ele>1321</ele>
        <time>2010-06-06T10:39:28Z</time>
      </trkpt>
      <trkpt lat="45.12628" lon="5.61186">
        <ele>1321</ele>
        <time>2010-06-06T10:39:29Z</time>
      </trkpt>
      <trkpt lat="45.12626" lon="5.61185">
        <ele>1320</ele>
        <time>2010-06-06T10:39:30Z</time>
      </trkpt>
      <trkpt lat="45.12623" lon="5.61183">
        <ele>1319</ele>
        <time>2010-06-06T10:39:31Z</time>
      </trkpt>
      <trkpt lat="45.12621" lon="5.61181">
        <ele>1319</ele>
        <time>2010-06-06T10:39:32Z</time>
      </trkpt>
      <trkpt lat="45.12618" lon="5.6118">
        <ele>1318</ele>
        <time>2010-06-06T10:39:33Z</time>
      </trkpt>
      <trkpt lat="45.12615" lon="5.61179">
        <ele>1317</ele>
        <time>2010-06-06T10:39:34Z</time>
      </trkpt>
      <trkpt lat="45.12612" lon="5.61178">
        <ele>1316</ele>
        <time>2010-06-06T10:39:35Z</time>
      </trkpt>
      <trkpt lat="45.1261" lon="5.61177">
        <ele>1316</ele>
        <time>2010-06-06T10:39:36Z</time>
      </trkpt>
      <trkpt lat="45.12608" lon="5.61175">
        <ele>1315</ele>
        <time>2010-06-06T10:39:37Z</time>
      </trkpt>
      <trkpt lat="45.12605" lon="5.61174">
        <ele>1314</ele>
        <time>2010-06-06T10:39:38Z</time>
      </trkpt>
      <trkpt lat="45.12603" lon="5.61172">
        <ele>1313</ele>
        <time>2010-06-06T10:39:39Z</time>
      </trkpt>
      <trkpt lat="45.126" lon="5.61169">
        <ele>1313</ele>
        <time>2010-06-06T10:39:40Z</time>
      </trkpt>
      <trkpt lat="45.12597" lon="5.61168">
        <ele>1312</ele>
        <time>2010-06-06T10:39:41Z</time>
      </trkpt>
      <trkpt lat="45.12595" lon="5.61166">
        <ele>1311</ele>
        <time>2010-06-06T10:39:42Z</time>
      </trkpt>
      <trkpt lat="45.12593" lon="5.61163">
        <ele>1311</ele>
        <time>2010-06-06T10:39:43Z</time>
      </trkpt>
      <trkpt lat="45.12591" lon="5.61161">
        <ele>1310</ele>
        <time>2010-06-06T10:39:44Z</time>
      </trkpt>
      <trkpt lat="45.12589" lon="5.6116">
        <ele>1310</ele>
        <time>2010-06-06T10:39:45Z</time>
      </trkpt>
      <trkpt lat="45.12587" lon="5.61157">
        <ele>1309</ele>
        <time>2010-06-06T10:39:46Z</time>
      </trkpt>
      <trkpt lat="45.12585" lon="5.61155">
        <ele>1308</ele>
        <time>2010-06-06T10:39:47Z</time>
      </trkpt>
      <trkpt lat="45.12583" lon="5.61154">
        <ele>1308</ele>
        <time>2010-06-06T10:39:48Z</time>
      </trkpt>
      <trkpt lat="45.12581" lon="5.61153">
        <ele>1307</ele>
        <time>2010-06-06T10:39:49Z</time>
      </trkpt>
      <trkpt lat="45.1258" lon="5.61152">
        <ele>1306</ele>
        <time>2010-06-06T10:39:50Z</time>
      </trkpt>
      <trkpt lat="45.12578" lon="5.6115">
        <ele>1305</ele>
        <time>2010-06-06T10:39:51Z</time>
      </trkpt>
      <trkpt lat="45.12576" lon="5.61149">
        <ele>1305</ele>
        <time>2010-06-06T10:39:52Z</time>
      </trkpt>
      <trkpt lat="45.12574" lon="5.61146">
        <ele>1305</ele>
        <time>2010-06-06T10:39:53Z</time>
      </trkpt>
      <trkpt lat="45.12572" lon="5.61144">
        <ele>1304</ele>
        <time>2010-06-06T10:39:54Z</time>
      </trkpt>
      <trkpt lat="45.1257" lon="5.61142">
        <ele>1304</ele>
        <time>2010-06-06T10:39:55Z</time>
      </trkpt>
      <trkpt lat="45.12568" lon="5.61142">
        <ele>1304</ele>
        <time>2010-06-06T10:39:56Z</time>
      </trkpt>
      <trkpt lat="45.12565" lon="5.61141">
        <ele>1303</ele>
        <time>2010-06-06T10:39:57Z</time>
      </trkpt>
      <trkpt lat="45.12563" lon="5.6114">
        <ele>1303</ele>
        <time>2010-06-06T10:39:58Z</time>
      </trkpt>
      <trkpt lat="45.12562" lon="5.61139">
        <ele>1302</ele>
        <time>2010-06-06T10:39:59Z</time>
      </trkpt>
      <trkpt lat="45.12561" lon="5.61137">
        <ele>1301</ele>
        <time>2010-06-06T10:40:00Z</time>
      </trkpt>
      <trkpt lat="45.1256" lon="5.61134">
        <ele>1301</ele>
        <time>2010-06-06T10:40:01Z</time>
      </trkpt>
      <trkpt lat="45.12559" lon="5.6113">
        <ele>1300</ele>
        <time>2010-06-06T10:40:02Z</time>
      </trkpt>
      <trkpt lat="45.12559" lon="5.61126">
        <ele>1299</ele>
        <time>2010-06-06T10:40:03Z</time>
      </trkpt>
      <trkpt lat="45.12559" lon="5.61123">
        <ele>1298</ele>
        <time>2010-06-06T10:40:04Z</time>
      </trkpt>
      <trkpt lat="45.12559" lon="5.61119">
        <ele>1297</ele>
        <time>2010-06-06T10:40:05Z</time>
      </trkpt>
      <trkpt lat="45.1256" lon="5.61116">
        <ele>1296</ele>
        <time>2010-06-06T10:40:06Z</time>
      </trkpt>
      <trkpt lat="45.12561" lon="5.61113">
        <ele>1295</ele>
        <time>2010-06-06T10:40:07Z</time>
      </trkpt>
      <trkpt lat="45.12563" lon="5.61109">
        <ele>1295</ele>
        <time>2010-06-06T10:40:08Z</time>
      </trkpt>
      <trkpt lat="45.12564" lon="5.61106">
        <ele>1294</ele>
        <time>2010-06-06T10:40:09Z</time>
      </trkpt>
      <trkpt lat="45.12565" lon="5.61104">
        <ele>1293</ele>
        <time>2010-06-06T10:40:10Z</time>
      </trkpt>
      <trkpt lat="45.12565" lon="5.61102">
        <ele>1292</ele>
        <time>2010-06-06T10:40:11Z</time>
      </trkpt>
      <trkpt lat="45.12564" lon="5.611">
        <ele>1291</ele>
        <time>2010-06-06T10:40:12Z</time>
      </trkpt>
      <trkpt lat="45.12562" lon="5.611">
        <ele>1290</ele>
        <time>2010-06-06T10:40:13Z</time>
      </trkpt>
      <trkpt lat="45.12559" lon="5.61098">
        <ele>1288</ele>
        <time>2010-06-06T10:40:15Z</time>
      </trkpt>
      <trkpt lat="45.12558" lon="5.61097">
        <ele>1287</ele>
        <time>2010-06-06T10:40:16Z</time>
      </trkpt>
      <trkpt lat="45.12556" lon="5.61096">
        <ele>1286</ele>
        <time>2010-06-06T10:40:17Z</time>
      </trkpt>
      <trkpt lat="45.12554" lon="5.61095">
        <ele>1285</ele>
        <time>2010-06-06T10:40:18Z</time>
      </trkpt>
      <trkpt lat="45.1255" lon="5.61094">
        <ele>1284</ele>
        <time>2010-06-06T10:40:19Z</time>
      </trkpt>
      <trkpt lat="45.12547" lon="5.61092">
        <ele>1283</ele>
        <time>2010-06-06T10:40:20Z</time>
      </trkpt>
      <trkpt lat="45.12545" lon="5.61091">
        <ele>1282</ele>
        <time>2010-06-06T10:40:21Z</time>
      </trkpt>
      <trkpt lat="45.12542" lon="5.61089">
        <ele>1281</ele>
        <time>2010-06-06T10:40:22Z</time>
      </trkpt>
      <trkpt lat="45.12539" lon="5.61088">
        <ele>1280</ele>
        <time>2010-06-06T10:40:23Z</time>
      </trkpt>
      <trkpt lat="45.12538" lon="5.61087">
        <ele>1279</ele>
        <time>2010-06-06T10:40:24Z</time>
      </trkpt>
      <trkpt lat="45.12535" lon="5.61087">
        <ele>1278</ele>
        <time>2010-06-06T10:40:25Z</time>
      </trkpt>
      <trkpt lat="45.12534" lon="5.61087">
        <ele>1277</ele>
        <time>2010-06-06T10:40:26Z</time>
      </trkpt>
      <trkpt lat="45.12532" lon="5.61087">
        <ele>1276</ele>
        <time>2010-06-06T10:40:27Z</time>
      </trkpt>
      <trkpt lat="45.1253" lon="5.61088">
        <ele>1275</ele>
        <time>2010-06-06T10:40:28Z</time>
      </trkpt>
      <trkpt lat="45.12527" lon="5.61088">
        <ele>1274</ele>
        <time>2010-06-06T10:40:29Z</time>
      </trkpt>
      <trkpt lat="45.12524" lon="5.61088">
        <ele>1273</ele>
        <time>2010-06-06T10:40:30Z</time>
      </trkpt>
      <trkpt lat="45.12523" lon="5.61089">
        <ele>1272</ele>
        <time>2010-06-06T10:40:31Z</time>
      </trkpt>
      <trkpt lat="45.1252" lon="5.61091">
        <ele>1271</ele>
        <time>2010-06-06T10:40:32Z</time>
      </trkpt>
      <trkpt lat="45.12518" lon="5.61092">
        <ele>1270</ele>
        <time>2010-06-06T10:40:33Z</time>
      </trkpt>
      <trkpt lat="45.12516" lon="5.61094">
        <ele>1269</ele>
        <time>2010-06-06T10:40:34Z</time>
      </trkpt>
      <trkpt lat="45.12514" lon="5.61095">
        <ele>1268</ele>
        <time>2010-06-06T10:40:35Z</time>
      </trkpt>
      <trkpt lat="45.12513" lon="5.61094">
        <ele>1267</ele>
        <time>2010-06-06T10:40:36Z</time>
      </trkpt>
      <trkpt lat="45.12512" lon="5.61094">
        <ele>1266</ele>
        <time>2010-06-06T10:40:37Z</time>
      </trkpt>
      <trkpt lat="45.1251" lon="5.61093">
        <ele>1265</ele>
        <time>2010-06-06T10:40:38Z</time>
      </trkpt>
      <trkpt lat="45.12508" lon="5.61093">
        <ele>1264</ele>
        <time>2010-06-06T10:40:39Z</time>
      </trkpt>
      <trkpt lat="45.12507" lon="5.61091">
        <ele>1263</ele>
        <time>2010-06-06T10:40:40Z</time>
      </trkpt>
      <trkpt lat="45.12505" lon="5.6109">
        <ele>1262</ele>
        <time>2010-06-06T10:40:41Z</time>
      </trkpt>
      <trkpt lat="45.12503" lon="5.61088">
        <ele>1261</ele>
        <time>2010-06-06T10:40:42Z</time>
      </trkpt>
      <trkpt lat="45.12502" lon="5.61087">
        <ele>1261</ele>
        <time>2010-06-06T10:40:43Z</time>
      </trkpt>
      <trkpt lat="45.125" lon="5.61087">
        <ele>1260</ele>
        <time>2010-06-06T10:40:44Z</time>
      </trkpt>
      <trkpt lat="45.12497" lon="5.61088">
        <ele>1259</ele>
        <time>2010-06-06T10:40:45Z</time>
      </trkpt>
      <trkpt lat="45.12494" lon="5.6109">
        <ele>1258</ele>
        <time>2010-06-06T10:40:46Z</time>
      </trkpt>
      <trkpt lat="45.12491" lon="5.61091">
        <ele>1258</ele>
        <time>2010-06-06T10:40:47Z</time>
      </trkpt>
      <trkpt lat="45.12488" lon="5.61091">
        <ele>1257</ele>
        <time>2010-06-06T10:40:48Z</time>
      </trkpt>
      <trkpt lat="45.12484" lon="5.61091">
        <ele>1256</ele>
        <time>2010-06-06T10:40:49Z</time>
      </trkpt>
      <trkpt lat="45.12482" lon="5.6109">
        <ele>1256</ele>
        <time>2010-06-06T10:40:50Z</time>
      </trkpt>
      <trkpt lat="45.12478" lon="5.61088">
        <ele>1256</ele>
        <time>2010-06-06T10:40:51Z</time>
      </trkpt>
      <trkpt lat="45.12476" lon="5.61089">
        <ele>1256</ele>
        <time>2010-06-06T10:40:52Z</time>
      </trkpt>
      <trkpt lat="45.12474" lon="5.61089">
        <ele>1256</ele>
        <time>2010-06-06T10:40:53Z</time>
      </trkpt>
      <trkpt lat="45.12472" lon="5.61089">
        <ele>1256</ele>
        <time>2010-06-06T10:40:54Z</time>
      </trkpt>
      <trkpt lat="45.1247" lon="5.61088">
        <ele>1256</ele>
        <time>2010-06-06T10:40:55Z</time>
      </trkpt>
      <trkpt lat="45.12469" lon="5.61087">
        <ele>1255</ele>
        <time>2010-06-06T10:40:56Z</time>
      </trkpt>
      <trkpt lat="45.12467" lon="5.61085">
        <ele>1255</ele>
        <time>2010-06-06T10:40:57Z</time>
      </trkpt>
      <trkpt lat="45.12465" lon="5.61084">
        <ele>1255</ele>
        <time>2010-06-06T10:40:58Z</time>
      </trkpt>
      <trkpt lat="45.12462" lon="5.61083">
        <ele>1254</ele>
        <time>2010-06-06T10:40:59Z</time>
      </trkpt>
      <trkpt lat="45.12459" lon="5.61083">
        <ele>1253</ele>
        <time>2010-06-06T10:41:00Z</time>
      </trkpt>
      <trkpt lat="45.12456" lon="5.61082">
        <ele>1252</ele>
        <time>2010-06-06T10:41:01Z</time>
      </trkpt>
      <trkpt lat="45.12453" lon="5.61082">
        <ele>1251</ele>
        <time>2010-06-06T10:41:02Z</time>
      </trkpt>
      <trkpt lat="45.1245" lon="5.6108">
        <ele>1251</ele>
        <time>2010-06-06T10:41:03Z</time>
      </trkpt>
      <trkpt lat="45.12447" lon="5.61079">
        <ele>1251</ele>
        <time>2010-06-06T10:41:04Z</time>
      </trkpt>
      <trkpt lat="45.12443" lon="5.61078">
        <ele>1251</ele>
        <time>2010-06-06T10:41:05Z</time>
      </trkpt>
      <trkpt lat="45.12441" lon="5.61077">
        <ele>1250</ele>
        <time>2010-06-06T10:41:06Z</time>
      </trkpt>
      <trkpt lat="45.12438" lon="5.61076">
        <ele>1250</ele>
        <time>2010-06-06T10:41:07Z</time>
      </trkpt>
      <trkpt lat="45.12435" lon="5.61075">
        <ele>1250</ele>
        <time>2010-06-06T10:41:08Z</time>
      </trkpt>
      <trkpt lat="45.12432" lon="5.61075">
        <ele>1249</ele>
        <time>2010-06-06T10:41:09Z</time>
      </trkpt>
      <trkpt lat="45.12429" lon="5.61076">
        <ele>1249</ele>
        <time>2010-06-06T10:41:10Z</time>
      </trkpt>
      <trkpt lat="45.12425" lon="5.61077">
        <ele>1248</ele>
        <time>2010-06-06T10:41:11Z</time>
      </trkpt>
      <trkpt lat="45.12422" lon="5.61077">
        <ele>1247</ele>
        <time>2010-06-06T10:41:12Z</time>
      </trkpt>
      <trkpt lat="45.12418" lon="5.61078">
        <ele>1246</ele>
        <time>2010-06-06T10:41:13Z</time>
      </trkpt>
      <trkpt lat="45.12414" lon="5.61078">
        <ele>1245</ele>
        <time>2010-06-06T10:41:14Z</time>
      </trkpt>
      <trkpt lat="45.12411" lon="5.61077">
        <ele>1244</ele>
        <time>2010-06-06T10:41:15Z</time>
      </trkpt>
      <trkpt lat="45.12408" lon="5.61075">
        <ele>1244</ele>
        <time>2010-06-06T10:41:16Z</time>
      </trkpt>
      <trkpt lat="45.12405" lon="5.61075">
        <ele>1244</ele>
        <time>2010-06-06T10:41:17Z</time>
      </trkpt>
      <trkpt lat="45.12401" lon="5.61077">
        <ele>1244</ele>
        <time>2010-06-06T10:41:18Z</time>
      </trkpt>
      <trkpt lat="45.12397" lon="5.61079">
        <ele>1244</ele>
        <time>2010-06-06T10:41:19Z</time>
      </trkpt>
      <trkpt lat="45.12394" lon="5.61079">
        <ele>1244</ele>
        <time>2010-06-06T10:41:20Z</time>
      </trkpt>
      <trkpt lat="45.12391" lon="5.61077">
        <ele>1244</ele>
        <time>2010-06-06T10:41:21Z</time>
      </trkpt>
      <trkpt lat="45.12388" lon="5.61075">
        <ele>1244</ele>
        <time>2010-06-06T10:41:22Z</time>
      </trkpt>
      <trkpt lat="45.12385" lon="5.61073">
        <ele>1244</ele>
        <time>2010-06-06T10:41:23Z</time>
      </trkpt>
      <trkpt lat="45.12382" lon="5.6107">
        <ele>1244</ele>
        <time>2010-06-06T10:41:24Z</time>
      </trkpt>
      <trkpt lat="45.12379" lon="5.61068">
        <ele>1244</ele>
        <time>2010-06-06T10:41:25Z</time>
      </trkpt>
      <trkpt lat="45.12376" lon="5.61066">
        <ele>1244</ele>
        <time>2010-06-06T10:41:26Z</time>
      </trkpt>
      <trkpt lat="45.12374" lon="5.61064">
        <ele>1244</ele>
        <time>2010-06-06T10:41:27Z</time>
      </trkpt>
      <trkpt lat="45.12371" lon="5.61061">
        <ele>1244</ele>
        <time>2010-06-06T10:41:28Z</time>
      </trkpt>
      <trkpt lat="45.12369" lon="5.61058">
        <ele>1244</ele>
        <time>2010-06-06T10:41:29Z</time>
      </trkpt>
      <trkpt lat="45.12366" lon="5.61054">
        <ele>1244</ele>
        <time>2010-06-06T10:41:30Z</time>
      </trkpt>
      <trkpt lat="45.12362" lon="5.61051">
        <ele>1244</ele>
        <time>2010-06-06T10:41:31Z</time>
      </trkpt>
      <trkpt lat="45.1236" lon="5.61047">
        <ele>1243</ele>
        <time>2010-06-06T10:41:32Z</time>
      </trkpt>
      <trkpt lat="45.12357" lon="5.61044">
        <ele>1243</ele>
        <time>2010-06-06T10:41:33Z</time>
      </trkpt>
      <trkpt lat="45.12355" lon="5.61043">
        <ele>1243</ele>
        <time>2010-06-06T10:41:34Z</time>
      </trkpt>
      <trkpt lat="45.12353" lon="5.61041">
        <ele>1242</ele>
        <time>2010-06-06T10:41:35Z</time>
      </trkpt>
      <trkpt lat="45.12351" lon="5.61039">
        <ele>1242</ele>
        <time>2010-06-06T10:41:36Z</time>
      </trkpt>
      <trkpt lat="45.12349" lon="5.61036">
        <ele>1241</ele>
        <time>2010-06-06T10:41:37Z</time>
      </trkpt>
      <trkpt lat="45.12347" lon="5.61033">
        <ele>1240</ele>
        <time>2010-06-06T10:41:38Z</time>
      </trkpt>
      <trkpt lat="45.12345" lon="5.61029">
        <ele>1240</ele>
        <time>2010-06-06T10:41:39Z</time>
      </trkpt>
      <trkpt lat="45.12343" lon="5.61026">
        <ele>1240</ele>
        <time>2010-06-06T10:41:40Z</time>
      </trkpt>
      <trkpt lat="45.1234" lon="5.61023">
        <ele>1239</ele>
        <time>2010-06-06T10:41:41Z</time>
      </trkpt>
      <trkpt lat="45.12339" lon="5.6102">
        <ele>1239</ele>
        <time>2010-06-06T10:41:42Z</time>
      </trkpt>
      <trkpt lat="45.12337" lon="5.61017">
        <ele>1239</ele>
        <time>2010-06-06T10:41:43Z</time>
      </trkpt>
      <trkpt lat="45.12337" lon="5.61015">
        <ele>1238</ele>
        <time>2010-06-06T10:41:44Z</time>
      </trkpt>
      <trkpt lat="45.12337" lon="5.61012">
        <ele>1238</ele>
        <time>2010-06-06T10:41:45Z</time>
      </trkpt>
      <trkpt lat="45.12335" lon="5.61008">
        <ele>1237</ele>
        <time>2010-06-06T10:41:46Z</time>
      </trkpt>
      <trkpt lat="45.12333" lon="5.61005">
        <ele>1237</ele>
        <time>2010-06-06T10:41:47Z</time>
      </trkpt>
      <trkpt lat="45.12331" lon="5.61002">
        <ele>1236</ele>
        <time>2010-06-06T10:41:48Z</time>
      </trkpt>
      <trkpt lat="45.12328" lon="5.60998">
        <ele>1235</ele>
        <time>2010-06-06T10:41:49Z</time>
      </trkpt>
      <trkpt lat="45.12326" lon="5.60994">
        <ele>1235</ele>
        <time>2010-06-06T10:41:50Z</time>
      </trkpt>
      <trkpt lat="45.12324" lon="5.60988">
        <ele>1235</ele>
        <time>2010-06-06T10:41:51Z</time>
      </trkpt>
      <trkpt lat="45.12321" lon="5.60984">
        <ele>1235</ele>
        <time>2010-06-06T10:41:52Z</time>
      </trkpt>
      <trkpt lat="45.12319" lon="5.60979">
        <ele>1235</ele>
        <time>2010-06-06T10:41:53Z</time>
      </trkpt>
      <trkpt lat="45.12317" lon="5.60976">
        <ele>1235</ele>
        <time>2010-06-06T10:41:54Z</time>
      </trkpt>
      <trkpt lat="45.12315" lon="5.60973">
        <ele>1235</ele>
        <time>2010-06-06T10:41:55Z</time>
      </trkpt>
      <trkpt lat="45.12312" lon="5.60971">
        <ele>1235</ele>
        <time>2010-06-06T10:41:56Z</time>
      </trkpt>
      <trkpt lat="45.12309" lon="5.60967">
        <ele>1235</ele>
        <time>2010-06-06T10:41:57Z</time>
      </trkpt>
      <trkpt lat="45.12307" lon="5.60965">
        <ele>1235</ele>
        <time>2010-06-06T10:41:58Z</time>
      </trkpt>
      <trkpt lat="45.12305" lon="5.6096">
        <ele>1234</ele>
        <time>2010-06-06T10:41:59Z</time>
      </trkpt>
      <trkpt lat="45.12303" lon="5.60956">
        <ele>1233</ele>
        <time>2010-06-06T10:42:00Z</time>
      </trkpt>
      <trkpt lat="45.12302" lon="5.6095">
        <ele>1233</ele>
        <time>2010-06-06T10:42:01Z</time>
      </trkpt>
      <trkpt lat="45.12301" lon="5.60944">
        <ele>1233</ele>
        <time>2010-06-06T10:42:02Z</time>
      </trkpt>
      <trkpt lat="45.123" lon="5.60937">
        <ele>1233</ele>
        <time>2010-06-06T10:42:03Z</time>
      </trkpt>
      <trkpt lat="45.123" lon="5.60933">
        <ele>1233</ele>
        <time>2010-06-06T10:42:04Z</time>
      </trkpt>
      <trkpt lat="45.123" lon="5.6093">
        <ele>1233</ele>
        <time>2010-06-06T10:42:05Z</time>
      </trkpt>
      <trkpt lat="45.123" lon="5.60925">
        <ele>1232</ele>
        <time>2010-06-06T10:42:06Z</time>
      </trkpt>
      <trkpt lat="45.123" lon="5.60923">
        <ele>1231</ele>
        <time>2010-06-06T10:42:07Z</time>
      </trkpt>
      <trkpt lat="45.12299" lon="5.6092">
        <ele>1230</ele>
        <time>2010-06-06T10:42:08Z</time>
      </trkpt>
      <trkpt lat="45.12297" lon="5.60919">
        <ele>1229</ele>
        <time>2010-06-06T10:42:09Z</time>
      </trkpt>
      <trkpt lat="45.12296" lon="5.60917">
        <ele>1228</ele>
        <time>2010-06-06T10:42:10Z</time>
      </trkpt>
      <trkpt lat="45.12294" lon="5.60915">
        <ele>1227</ele>
        <time>2010-06-06T10:42:11Z</time>
      </trkpt>
      <trkpt lat="45.12292" lon="5.60914">
        <ele>1226</ele>
        <time>2010-06-06T10:42:12Z</time>
      </trkpt>
      <trkpt lat="45.1229" lon="5.60913">
        <ele>1225</ele>
        <time>2010-06-06T10:42:13Z</time>
      </trkpt>
      <trkpt lat="45.12288" lon="5.60911">
        <ele>1224</ele>
        <time>2010-06-06T10:42:14Z</time>
      </trkpt>
      <trkpt lat="45.12286" lon="5.60909">
        <ele>1223</ele>
        <time>2010-06-06T10:42:15Z</time>
      </trkpt>
      <trkpt lat="45.12284" lon="5.60907">
        <ele>1222</ele>
        <time>2010-06-06T10:42:16Z</time>
      </trkpt>
      <trkpt lat="45.12282" lon="5.60905">
        <ele>1221</ele>
        <time>2010-06-06T10:42:17Z</time>
      </trkpt>
      <trkpt lat="45.1228" lon="5.60903">
        <ele>1220</ele>
        <time>2010-06-06T10:42:18Z</time>
      </trkpt>
      <trkpt lat="45.12279" lon="5.60901">
        <ele>1219</ele>
        <time>2010-06-06T10:42:19Z</time>
      </trkpt>
      <trkpt lat="45.1228" lon="5.60898">
        <ele>1218</ele>
        <time>2010-06-06T10:42:20Z</time>
      </trkpt>
      <trkpt lat="45.12279" lon="5.60896">
        <ele>1217</ele>
        <time>2010-06-06T10:42:21Z</time>
      </trkpt>
      <trkpt lat="45.12277" lon="5.60892">
        <ele>1216</ele>
        <time>2010-06-06T10:42:22Z</time>
      </trkpt>
      <trkpt lat="45.12273" lon="5.6089">
        <ele>1216</ele>
        <time>2010-06-06T10:42:23Z</time>
      </trkpt>
      <trkpt lat="45.12269" lon="5.60886">
        <ele>1216</ele>
        <time>2010-06-06T10:42:24Z</time>
      </trkpt>
      <trkpt lat="45.12267" lon="5.60883">
        <ele>1216</ele>
        <time>2010-06-06T10:42:25Z</time>
      </trkpt>
      <trkpt lat="45.12264" lon="5.6088">
        <ele>1215</ele>
        <time>2010-06-06T10:42:26Z</time>
      </trkpt>
      <trkpt lat="45.12262" lon="5.60876">
        <ele>1214</ele>
        <time>2010-06-06T10:42:27Z</time>
      </trkpt>
      <trkpt lat="45.12259" lon="5.60873">
        <ele>1213</ele>
        <time>2010-06-06T10:42:28Z</time>
      </trkpt>
      <trkpt lat="45.12257" lon="5.6087">
        <ele>1213</ele>
        <time>2010-06-06T10:42:29Z</time>
      </trkpt>
      <trkpt lat="45.12255" lon="5.60868">
        <ele>1212</ele>
        <time>2010-06-06T10:42:30Z</time>
      </trkpt>
      <trkpt lat="45.12255" lon="5.60866">
        <ele>1211</ele>
        <time>2010-06-06T10:42:31Z</time>
      </trkpt>
      <trkpt lat="45.12252" lon="5.60862">
        <ele>1210</ele>
        <time>2010-06-06T10:42:32Z</time>
      </trkpt>
      <trkpt lat="45.1225" lon="5.60859">
        <ele>1210</ele>
        <time>2010-06-06T10:42:33Z</time>
      </trkpt>
      <trkpt lat="45.12248" lon="5.60854">
        <ele>1210</ele>
        <time>2010-06-06T10:42:34Z</time>
      </trkpt>
      <trkpt lat="45.12246" lon="5.60852">
        <ele>1210</ele>
        <time>2010-06-06T10:42:35Z</time>
      </trkpt>
      <trkpt lat="45.12244" lon="5.60848">
        <ele>1209</ele>
        <time>2010-06-06T10:42:36Z</time>
      </trkpt>
      <trkpt lat="45.12242" lon="5.60844">
        <ele>1208</ele>
        <time>2010-06-06T10:42:37Z</time>
      </trkpt>
      <trkpt lat="45.1224" lon="5.6084">
        <ele>1208</ele>
        <time>2010-06-06T10:42:38Z</time>
      </trkpt>
      <trkpt lat="45.12239" lon="5.60835">
        <ele>1207</ele>
        <time>2010-06-06T10:42:39Z</time>
      </trkpt>
      <trkpt lat="45.12238" lon="5.60831">
        <ele>1207</ele>
        <time>2010-06-06T10:42:40Z</time>
      </trkpt>
      <trkpt lat="45.12238" lon="5.60828">
        <ele>1207</ele>
        <time>2010-06-06T10:42:41Z</time>
      </trkpt>
      <trkpt lat="45.12237" lon="5.60824">
        <ele>1207</ele>
        <time>2010-06-06T10:42:42Z</time>
      </trkpt>
      <trkpt lat="45.12236" lon="5.60821">
        <ele>1207</ele>
        <time>2010-06-06T10:42:43Z</time>
      </trkpt>
      <trkpt lat="45.12234" lon="5.60818">
        <ele>1206</ele>
        <time>2010-06-06T10:42:44Z</time>
      </trkpt>
      <trkpt lat="45.12233" lon="5.60815">
        <ele>1205</ele>
        <time>2010-06-06T10:42:45Z</time>
      </trkpt>
      <trkpt lat="45.12232" lon="5.6081">
        <ele>1205</ele>
        <time>2010-06-06T10:42:46Z</time>
      </trkpt>
      <trkpt lat="45.1223" lon="5.60805">
        <ele>1204</ele>
        <time>2010-06-06T10:42:47Z</time>
      </trkpt>
      <trkpt lat="45.12228" lon="5.60801">
        <ele>1203</ele>
        <time>2010-06-06T10:42:48Z</time>
      </trkpt>
      <trkpt lat="45.12227" lon="5.60796">
        <ele>1202</ele>
        <time>2010-06-06T10:42:49Z</time>
      </trkpt>
      <trkpt lat="45.12225" lon="5.60792">
        <ele>1201</ele>
        <time>2010-06-06T10:42:50Z</time>
      </trkpt>
      <trkpt lat="45.12224" lon="5.60788">
        <ele>1200</ele>
        <time>2010-06-06T10:42:51Z</time>
      </trkpt>
      <trkpt lat="45.12223" lon="5.60785">
        <ele>1199</ele>
        <time>2010-06-06T10:42:52Z</time>
      </trkpt>
      <trkpt lat="45.12222" lon="5.60782">
        <ele>1198</ele>
        <time>2010-06-06T10:42:53Z</time>
      </trkpt>
      <trkpt lat="45.12221" lon="5.60779">
        <ele>1197</ele>
        <time>2010-06-06T10:42:54Z</time>
      </trkpt>
      <trkpt lat="45.12219" lon="5.60775">
        <ele>1196</ele>
        <time>2010-06-06T10:42:55Z</time>
      </trkpt>
      <trkpt lat="45.12219" lon="5.60773">
        <ele>1195</ele>
        <time>2010-06-06T10:42:56Z</time>
      </trkpt>
      <trkpt lat="45.12219" lon="5.6077">
        <ele>1194</ele>
        <time>2010-06-06T10:42:57Z</time>
      </trkpt>
      <trkpt lat="45.12219" lon="5.60765">
        <ele>1193</ele>
        <time>2010-06-06T10:42:58Z</time>
      </trkpt>
      <trkpt lat="45.12218" lon="5.6076">
        <ele>1192</ele>
        <time>2010-06-06T10:42:59Z</time>
      </trkpt>
      <trkpt lat="45.12218" lon="5.60756">
        <ele>1191</ele>
        <time>2010-06-06T10:43:00Z</time>
      </trkpt>
      <trkpt lat="45.12218" lon="5.6075">
        <ele>1190</ele>
        <time>2010-06-06T10:43:01Z</time>
      </trkpt>
      <trkpt lat="45.12216" lon="5.60745">
        <ele>1189</ele>
        <time>2010-06-06T10:43:02Z</time>
      </trkpt>
      <trkpt lat="45.12214" lon="5.6074">
        <ele>1189</ele>
        <time>2010-06-06T10:43:03Z</time>
      </trkpt>
      <trkpt lat="45.12214" lon="5.60735">
        <ele>1188</ele>
        <time>2010-06-06T10:43:04Z</time>
      </trkpt>
      <trkpt lat="45.12214" lon="5.60732">
        <ele>1187</ele>
        <time>2010-06-06T10:43:05Z</time>
      </trkpt>
      <trkpt lat="45.12214" lon="5.60728">
        <ele>1186</ele>
        <time>2010-06-06T10:43:06Z</time>
      </trkpt>
      <trkpt lat="45.12214" lon="5.60724">
        <ele>1185</ele>
        <time>2010-06-06T10:43:07Z</time>
      </trkpt>
      <trkpt lat="45.12215" lon="5.60719">
        <ele>1184</ele>
        <time>2010-06-06T10:43:08Z</time>
      </trkpt>
      <trkpt lat="45.12216" lon="5.60716">
        <ele>1183</ele>
        <time>2010-06-06T10:43:09Z</time>
      </trkpt>
      <trkpt lat="45.12216" lon="5.60713">
        <ele>1182</ele>
        <time>2010-06-06T10:43:10Z</time>
      </trkpt>
      <trkpt lat="45.12217" lon="5.60709">
        <ele>1181</ele>
        <time>2010-06-06T10:43:11Z</time>
      </trkpt>
      <trkpt lat="45.12216" lon="5.60705">
        <ele>1180</ele>
        <time>2010-06-06T10:43:12Z</time>
      </trkpt>
      <trkpt lat="45.12216" lon="5.60702">
        <ele>1179</ele>
        <time>2010-06-06T10:43:13Z</time>
      </trkpt>
      <trkpt lat="45.12216" lon="5.60698">
        <ele>1178</ele>
        <time>2010-06-06T10:43:14Z</time>
      </trkpt>
      <trkpt lat="45.12215" lon="5.60695">
        <ele>1177</ele>
        <time>2010-06-06T10:43:15Z</time>
      </trkpt>
      <trkpt lat="45.12215" lon="5.60691">
        <ele>1176</ele>
        <time>2010-06-06T10:43:16Z</time>
      </trkpt>
      <trkpt lat="45.12215" lon="5.60686">
        <ele>1175</ele>
        <time>2010-06-06T10:43:17Z</time>
      </trkpt>
      <trkpt lat="45.12215" lon="5.60682">
        <ele>1174</ele>
        <time>2010-06-06T10:43:18Z</time>
      </trkpt>
      <trkpt lat="45.12214" lon="5.60678">
        <ele>1173</ele>
        <time>2010-06-06T10:43:19Z</time>
      </trkpt>
      <trkpt lat="45.12213" lon="5.60674">
        <ele>1173</ele>
        <time>2010-06-06T10:43:20Z</time>
      </trkpt>
      <trkpt lat="45.12213" lon="5.6067">
        <ele>1172</ele>
        <time>2010-06-06T10:43:21Z</time>
      </trkpt>
      <trkpt lat="45.12213" lon="5.60667">
        <ele>1171</ele>
        <time>2010-06-06T10:43:22Z</time>
      </trkpt>
      <trkpt lat="45.12212" lon="5.60663">
        <ele>1171</ele>
        <time>2010-06-06T10:43:23Z</time>
      </trkpt>
      <trkpt lat="45.12211" lon="5.60658">
        <ele>1170</ele>
        <time>2010-06-06T10:43:24Z</time>
      </trkpt>
      <trkpt lat="45.1221" lon="5.60653">
        <ele>1169</ele>
        <time>2010-06-06T10:43:25Z</time>
      </trkpt>
      <trkpt lat="45.12209" lon="5.60648">
        <ele>1169</ele>
        <time>2010-06-06T10:43:26Z</time>
      </trkpt>
      <trkpt lat="45.12207" lon="5.60643">
        <ele>1168</ele>
        <time>2010-06-06T10:43:27Z</time>
      </trkpt>
      <trkpt lat="45.12207" lon="5.60639">
        <ele>1168</ele>
        <time>2010-06-06T10:43:28Z</time>
      </trkpt>
      <trkpt lat="45.12207" lon="5.60636">
        <ele>1167</ele>
        <time>2010-06-06T10:43:29Z</time>
      </trkpt>
      <trkpt lat="45.12206" lon="5.60631">
        <ele>1166</ele>
        <time>2010-06-06T10:43:30Z</time>
      </trkpt>
      <trkpt lat="45.12206" lon="5.60627">
        <ele>1165</ele>
        <time>2010-06-06T10:43:31Z</time>
      </trkpt>
      <trkpt lat="45.12207" lon="5.60622">
        <ele>1164</ele>
        <time>2010-06-06T10:43:32Z</time>
      </trkpt>
      <trkpt lat="45.12207" lon="5.60619">
        <ele>1163</ele>
        <time>2010-06-06T10:43:33Z</time>
      </trkpt>
      <trkpt lat="45.12206" lon="5.60615">
        <ele>1162</ele>
        <time>2010-06-06T10:43:34Z</time>
      </trkpt>
      <trkpt lat="45.12206" lon="5.60612">
        <ele>1161</ele>
        <time>2010-06-06T10:43:35Z</time>
      </trkpt>
      <trkpt lat="45.12205" lon="5.60609">
        <ele>1160</ele>
        <time>2010-06-06T10:43:36Z</time>
      </trkpt>
      <trkpt lat="45.12205" lon="5.60606">
        <ele>1159</ele>
        <time>2010-06-06T10:43:37Z</time>
      </trkpt>
      <trkpt lat="45.12204" lon="5.60602">
        <ele>1158</ele>
        <time>2010-06-06T10:43:38Z</time>
      </trkpt>
      <trkpt lat="45.12205" lon="5.60597">
        <ele>1157</ele>
        <time>2010-06-06T10:43:39Z</time>
      </trkpt>
      <trkpt lat="45.12205" lon="5.60593">
        <ele>1156</ele>
        <time>2010-06-06T10:43:40Z</time>
      </trkpt>
      <trkpt lat="45.12204" lon="5.60588">
        <ele>1155</ele>
        <time>2010-06-06T10:43:41Z</time>
      </trkpt>
      <trkpt lat="45.12205" lon="5.60584">
        <ele>1154</ele>
        <time>2010-06-06T10:43:42Z</time>
      </trkpt>
      <trkpt lat="45.12205" lon="5.6058">
        <ele>1153</ele>
        <time>2010-06-06T10:43:43Z</time>
      </trkpt>
      <trkpt lat="45.12205" lon="5.60576">
        <ele>1152</ele>
        <time>2010-06-06T10:43:44Z</time>
      </trkpt>
      <trkpt lat="45.12205" lon="5.60572">
        <ele>1151</ele>
        <time>2010-06-06T10:43:45Z</time>
      </trkpt>
      <trkpt lat="45.12205" lon="5.60569">
        <ele>1150</ele>
        <time>2010-06-06T10:43:46Z</time>
      </trkpt>
      <trkpt lat="45.12206" lon="5.60566">
        <ele>1149</ele>
        <time>2010-06-06T10:43:47Z</time>
      </trkpt>
      <trkpt lat="45.12207" lon="5.60562">
        <ele>1148</ele>
        <time>2010-06-06T10:43:48Z</time>
      </trkpt>
      <trkpt lat="45.12208" lon="5.60559">
        <ele>1147</ele>
        <time>2010-06-06T10:43:49Z</time>
      </trkpt>
      <trkpt lat="45.12209" lon="5.60555">
        <ele>1146</ele>
        <time>2010-06-06T10:43:50Z</time>
      </trkpt>
      <trkpt lat="45.1221" lon="5.60552">
        <ele>1145</ele>
        <time>2010-06-06T10:43:51Z</time>
      </trkpt>
      <trkpt lat="45.12211" lon="5.60549">
        <ele>1144</ele>
        <time>2010-06-06T10:43:52Z</time>
      </trkpt>
      <trkpt lat="45.12214" lon="5.60546">
        <ele>1143</ele>
        <time>2010-06-06T10:43:53Z</time>
      </trkpt>
      <trkpt lat="45.12216" lon="5.60544">
        <ele>1142</ele>
        <time>2010-06-06T10:43:54Z</time>
      </trkpt>
      <trkpt lat="45.12219" lon="5.60542">
        <ele>1141</ele>
        <time>2010-06-06T10:43:55Z</time>
      </trkpt>
      <trkpt lat="45.12222" lon="5.60539">
        <ele>1140</ele>
        <time>2010-06-06T10:43:56Z</time>
      </trkpt>
      <trkpt lat="45.12224" lon="5.60536">
        <ele>1139</ele>
        <time>2010-06-06T10:43:57Z</time>
      </trkpt>
      <trkpt lat="45.12227" lon="5.60534">
        <ele>1138</ele>
        <time>2010-06-06T10:43:58Z</time>
      </trkpt>
      <trkpt lat="45.12229" lon="5.60532">
        <ele>1137</ele>
        <time>2010-06-06T10:43:59Z</time>
      </trkpt>
      <trkpt lat="45.12232" lon="5.6053">
        <ele>1136</ele>
        <time>2010-06-06T10:44:00Z</time>
      </trkpt>
      <trkpt lat="45.12235" lon="5.60529">
        <ele>1135</ele>
        <time>2010-06-06T10:44:01Z</time>
      </trkpt>
      <trkpt lat="45.12238" lon="5.60528">
        <ele>1135</ele>
        <time>2010-06-06T10:44:02Z</time>
      </trkpt>
      <trkpt lat="45.12241" lon="5.60527">
        <ele>1134</ele>
        <time>2010-06-06T10:44:03Z</time>
      </trkpt>
      <trkpt lat="45.12244" lon="5.60528">
        <ele>1134</ele>
        <time>2010-06-06T10:44:04Z</time>
      </trkpt>
      <trkpt lat="45.12247" lon="5.60528">
        <ele>1133</ele>
        <time>2010-06-06T10:44:05Z</time>
      </trkpt>
      <trkpt lat="45.12251" lon="5.60528">
        <ele>1132</ele>
        <time>2010-06-06T10:44:06Z</time>
      </trkpt>
      <trkpt lat="45.12254" lon="5.60529">
        <ele>1132</ele>
        <time>2010-06-06T10:44:07Z</time>
      </trkpt>
      <trkpt lat="45.12257" lon="5.6053">
        <ele>1131</ele>
        <time>2010-06-06T10:44:08Z</time>
      </trkpt>
      <trkpt lat="45.1226" lon="5.60531">
        <ele>1131</ele>
        <time>2010-06-06T10:44:09Z</time>
      </trkpt>
      <trkpt lat="45.12263" lon="5.60532">
        <ele>1131</ele>
        <time>2010-06-06T10:44:10Z</time>
      </trkpt>
      <trkpt lat="45.12265" lon="5.60531">
        <ele>1130</ele>
        <time>2010-06-06T10:44:11Z</time>
      </trkpt>
      <trkpt lat="45.12266" lon="5.6053">
        <ele>1130</ele>
        <time>2010-06-06T10:44:12Z</time>
      </trkpt>
      <trkpt lat="45.12265" lon="5.60528">
        <ele>1129</ele>
        <time>2010-06-06T10:44:13Z</time>
      </trkpt>
      <trkpt lat="45.12261" lon="5.60525">
        <ele>1129</ele>
        <time>2010-06-06T10:44:14Z</time>
      </trkpt>
      <trkpt lat="45.12259" lon="5.60523">
        <ele>1129</ele>
        <time>2010-06-06T10:44:15Z</time>
      </trkpt>
      <trkpt lat="45.12255" lon="5.60522">
        <ele>1128</ele>
        <time>2010-06-06T10:44:16Z</time>
      </trkpt>
      <trkpt lat="45.12252" lon="5.6052">
        <ele>1127</ele>
        <time>2010-06-06T10:44:17Z</time>
      </trkpt>
      <trkpt lat="45.12249" lon="5.60518">
        <ele>1127</ele>
        <time>2010-06-06T10:44:18Z</time>
      </trkpt>
      <trkpt lat="45.12246" lon="5.60516">
        <ele>1126</ele>
        <time>2010-06-06T10:44:19Z</time>
      </trkpt>
      <trkpt lat="45.12243" lon="5.60514">
        <ele>1126</ele>
        <time>2010-06-06T10:44:20Z</time>
      </trkpt>
      <trkpt lat="45.1224" lon="5.60513">
        <ele>1125</ele>
        <time>2010-06-06T10:44:21Z</time>
      </trkpt>
      <trkpt lat="45.12236" lon="5.60512">
        <ele>1125</ele>
        <time>2010-06-06T10:44:22Z</time>
      </trkpt>
      <trkpt lat="45.12233" lon="5.60511">
        <ele>1125</ele>
        <time>2010-06-06T10:44:23Z</time>
      </trkpt>
      <trkpt lat="45.1223" lon="5.60511">
        <ele>1125</ele>
        <time>2010-06-06T10:44:24Z</time>
      </trkpt>
      <trkpt lat="45.12228" lon="5.6051">
        <ele>1124</ele>
        <time>2010-06-06T10:44:25Z</time>
      </trkpt>
      <trkpt lat="45.12224" lon="5.60509">
        <ele>1124</ele>
        <time>2010-06-06T10:44:26Z</time>
      </trkpt>
      <trkpt lat="45.12221" lon="5.60507">
        <ele>1124</ele>
        <time>2010-06-06T10:44:27Z</time>
      </trkpt>
      <trkpt lat="45.12217" lon="5.60506">
        <ele>1123</ele>
        <time>2010-06-06T10:44:28Z</time>
      </trkpt>
      <trkpt lat="45.12213" lon="5.60505">
        <ele>1123</ele>
        <time>2010-06-06T10:44:29Z</time>
      </trkpt>
      <trkpt lat="45.1221" lon="5.60504">
        <ele>1123</ele>
        <time>2010-06-06T10:44:30Z</time>
      </trkpt>
      <trkpt lat="45.12206" lon="5.60504">
        <ele>1123</ele>
        <time>2010-06-06T10:44:31Z</time>
      </trkpt>
      <trkpt lat="45.12203" lon="5.60503">
        <ele>1123</ele>
        <time>2010-06-06T10:44:32Z</time>
      </trkpt>
      <trkpt lat="45.12199" lon="5.60502">
        <ele>1123</ele>
        <time>2010-06-06T10:44:33Z</time>
      </trkpt>
      <trkpt lat="45.12195" lon="5.60501">
        <ele>1122</ele>
        <time>2010-06-06T10:44:34Z</time>
      </trkpt>
      <trkpt lat="45.12192" lon="5.60501">
        <ele>1122</ele>
        <time>2010-06-06T10:44:35Z</time>
      </trkpt>
      <trkpt lat="45.12188" lon="5.60501">
        <ele>1122</ele>
        <time>2010-06-06T10:44:36Z</time>
      </trkpt>
      <trkpt lat="45.12185" lon="5.605">
        <ele>1122</ele>
        <time>2010-06-06T10:44:37Z</time>
      </trkpt>
      <trkpt lat="45.12181" lon="5.60498">
        <ele>1122</ele>
        <time>2010-06-06T10:44:38Z</time>
      </trkpt>
      <trkpt lat="45.12178" lon="5.60497">
        <ele>1122</ele>
        <time>2010-06-06T10:44:39Z</time>
      </trkpt>
      <trkpt lat="45.12174" lon="5.60495">
        <ele>1122</ele>
        <time>2010-06-06T10:44:40Z</time>
      </trkpt>
      <trkpt lat="45.12171" lon="5.60494">
        <ele>1121</ele>
        <time>2010-06-06T10:44:41Z</time>
      </trkpt>
      <trkpt lat="45.12167" lon="5.60493">
        <ele>1121</ele>
        <time>2010-06-06T10:44:42Z</time>
      </trkpt>
      <trkpt lat="45.12164" lon="5.60491">
        <ele>1121</ele>
        <time>2010-06-06T10:44:43Z</time>
      </trkpt>
      <trkpt lat="45.12161" lon="5.60489">
        <ele>1121</ele>
        <time>2010-06-06T10:44:44Z</time>
      </trkpt>
      <trkpt lat="45.12158" lon="5.60486">
        <ele>1121</ele>
        <time>2010-06-06T10:44:45Z</time>
      </trkpt>
      <trkpt lat="45.12155" lon="5.60483">
        <ele>1121</ele>
        <time>2010-06-06T10:44:46Z</time>
      </trkpt>
      <trkpt lat="45.12153" lon="5.6048">
        <ele>1121</ele>
        <time>2010-06-06T10:44:47Z</time>
      </trkpt>
      <trkpt lat="45.1215" lon="5.60476">
        <ele>1121</ele>
        <time>2010-06-06T10:44:48Z</time>
      </trkpt>
      <trkpt lat="45.12148" lon="5.60472">
        <ele>1121</ele>
        <time>2010-06-06T10:44:49Z</time>
      </trkpt>
      <trkpt lat="45.12146" lon="5.60467">
        <ele>1121</ele>
        <time>2010-06-06T10:44:50Z</time>
      </trkpt>
      <trkpt lat="45.12143" lon="5.60463">
        <ele>1121</ele>
        <time>2010-06-06T10:44:51Z</time>
      </trkpt>
      <trkpt lat="45.12141" lon="5.60459">
        <ele>1121</ele>
        <time>2010-06-06T10:44:52Z</time>
      </trkpt>
      <trkpt lat="45.12138" lon="5.60456">
        <ele>1121</ele>
        <time>2010-06-06T10:44:53Z</time>
      </trkpt>
      <trkpt lat="45.12136" lon="5.60453">
        <ele>1121</ele>
        <time>2010-06-06T10:44:54Z</time>
      </trkpt>
      <trkpt lat="45.12134" lon="5.6045">
        <ele>1120</ele>
        <time>2010-06-06T10:44:55Z</time>
      </trkpt>
      <trkpt lat="45.12131" lon="5.60446">
        <ele>1120</ele>
        <time>2010-06-06T10:44:56Z</time>
      </trkpt>
      <trkpt lat="45.12128" lon="5.60443">
        <ele>1120</ele>
        <time>2010-06-06T10:44:57Z</time>
      </trkpt>
      <trkpt lat="45.12126" lon="5.6044">
        <ele>1119</ele>
        <time>2010-06-06T10:44:58Z</time>
      </trkpt>
      <trkpt lat="45.12124" lon="5.60436">
        <ele>1119</ele>
        <time>2010-06-06T10:44:59Z</time>
      </trkpt>
      <trkpt lat="45.12121" lon="5.60433">
        <ele>1119</ele>
        <time>2010-06-06T10:45:00Z</time>
      </trkpt>
      <trkpt lat="45.12119" lon="5.6043">
        <ele>1119</ele>
        <time>2010-06-06T10:45:01Z</time>
      </trkpt>
      <trkpt lat="45.12116" lon="5.60427">
        <ele>1118</ele>
        <time>2010-06-06T10:45:02Z</time>
      </trkpt>
      <trkpt lat="45.12114" lon="5.60424">
        <ele>1118</ele>
        <time>2010-06-06T10:45:03Z</time>
      </trkpt>
      <trkpt lat="45.12111" lon="5.60421">
        <ele>1118</ele>
        <time>2010-06-06T10:45:04Z</time>
      </trkpt>
      <trkpt lat="45.12109" lon="5.60417">
        <ele>1118</ele>
        <time>2010-06-06T10:45:05Z</time>
      </trkpt>
      <trkpt lat="45.12107" lon="5.60413">
        <ele>1117</ele>
        <time>2010-06-06T10:45:06Z</time>
      </trkpt>
      <trkpt lat="45.12104" lon="5.6041">
        <ele>1117</ele>
        <time>2010-06-06T10:45:07Z</time>
      </trkpt>
      <trkpt lat="45.12102" lon="5.60406">
        <ele>1117</ele>
        <time>2010-06-06T10:45:08Z</time>
      </trkpt>
      <trkpt lat="45.121" lon="5.60403">
        <ele>1117</ele>
        <time>2010-06-06T10:45:09Z</time>
      </trkpt>
      <trkpt lat="45.12097" lon="5.60399">
        <ele>1116</ele>
        <time>2010-06-06T10:45:10Z</time>
      </trkpt>
      <trkpt lat="45.12095" lon="5.60396">
        <ele>1116</ele>
        <time>2010-06-06T10:45:11Z</time>
      </trkpt>
      <trkpt lat="45.12093" lon="5.60393">
        <ele>1116</ele>
        <time>2010-06-06T10:45:12Z</time>
      </trkpt>
      <trkpt lat="45.1209" lon="5.6039">
        <ele>1116</ele>
        <time>2010-06-06T10:45:13Z</time>
      </trkpt>
      <trkpt lat="45.12088" lon="5.60388">
        <ele>1116</ele>
        <time>2010-06-06T10:45:14Z</time>
      </trkpt>
      <trkpt lat="45.12085" lon="5.60387">
        <ele>1116</ele>
        <time>2010-06-06T10:45:15Z</time>
      </trkpt>
      <trkpt lat="45.12083" lon="5.60386">
        <ele>1115</ele>
        <time>2010-06-06T10:45:16Z</time>
      </trkpt>
      <trkpt lat="45.1208" lon="5.60385">
        <ele>1115</ele>
        <time>2010-06-06T10:45:17Z</time>
      </trkpt>
      <trkpt lat="45.12079" lon="5.60385">
        <ele>1115</ele>
        <time>2010-06-06T10:45:18Z</time>
      </trkpt>
      <trkpt lat="45.12077" lon="5.60384">
        <ele>1115</ele>
        <time>2010-06-06T10:45:19Z</time>
      </trkpt>
      <trkpt lat="45.12076" lon="5.60385">
        <ele>1115</ele>
        <time>2010-06-06T10:45:21Z</time>
      </trkpt>
      <trkpt lat="45.12075" lon="5.60384">
        <ele>1114</ele>
        <time>2010-06-06T10:45:28Z</time>
      </trkpt>
      <trkpt lat="45.12074" lon="5.60385">
        <ele>1114</ele>
        <time>2010-06-06T10:45:34Z</time>
      </trkpt>
      <trkpt lat="45.12071" lon="5.60386">
        <ele>1114</ele>
        <time>2010-06-06T10:45:35Z</time>
      </trkpt>
      <trkpt lat="45.12069" lon="5.60386">
        <ele>1114</ele>
        <time>2010-06-06T10:45:36Z</time>
      </trkpt>
      <trkpt lat="45.12066" lon="5.60386">
        <ele>1114</ele>
        <time>2010-06-06T10:45:37Z</time>
      </trkpt>
      <trkpt lat="45.12063" lon="5.60386">
        <ele>1114</ele>
        <time>2010-06-06T10:45:38Z</time>
      </trkpt>
      <trkpt lat="45.12061" lon="5.60386">
        <ele>1114</ele>
        <time>2010-06-06T10:45:39Z</time>
      </trkpt>
      <trkpt lat="45.12058" lon="5.60386">
        <ele>1114</ele>
        <time>2010-06-06T10:45:40Z</time>
      </trkpt>
      <trkpt lat="45.12055" lon="5.60385">
        <ele>1114</ele>
        <time>2010-06-06T10:45:41Z</time>
      </trkpt>
      <trkpt lat="45.12052" lon="5.60384">
        <ele>1114</ele>
        <time>2010-06-06T10:45:42Z</time>
      </trkpt>
      <trkpt lat="45.12049" lon="5.60384">
        <ele>1114</ele>
        <time>2010-06-06T10:45:43Z</time>
      </trkpt>
      <trkpt lat="45.12046" lon="5.60383">
        <ele>1114</ele>
        <time>2010-06-06T10:45:44Z</time>
      </trkpt>
      <trkpt lat="45.12043" lon="5.60383">
        <ele>1114</ele>
        <time>2010-06-06T10:45:45Z</time>
      </trkpt>
      <trkpt lat="45.1204" lon="5.60382">
        <ele>1114</ele>
        <time>2010-06-06T10:45:46Z</time>
      </trkpt>
      <trkpt lat="45.12037" lon="5.60382">
        <ele>1114</ele>
        <time>2010-06-06T10:45:47Z</time>
      </trkpt>
      <trkpt lat="45.12034" lon="5.60381">
        <ele>1114</ele>
        <time>2010-06-06T10:45:48Z</time>
      </trkpt>
      <trkpt lat="45.12031" lon="5.6038">
        <ele>1114</ele>
        <time>2010-06-06T10:45:49Z</time>
      </trkpt>
      <trkpt lat="45.12029" lon="5.60379">
        <ele>1114</ele>
        <time>2010-06-06T10:45:50Z</time>
      </trkpt>
      <trkpt lat="45.12026" lon="5.60378">
        <ele>1114</ele>
        <time>2010-06-06T10:45:51Z</time>
      </trkpt>
      <trkpt lat="45.12023" lon="5.60377">
        <ele>1115</ele>
        <time>2010-06-06T10:45:52Z</time>
      </trkpt>
      <trkpt lat="45.1202" lon="5.60377">
        <ele>1115</ele>
        <time>2010-06-06T10:45:53Z</time>
      </trkpt>
      <trkpt lat="45.12017" lon="5.60376">
        <ele>1116</ele>
        <time>2010-06-06T10:45:54Z</time>
      </trkpt>
      <trkpt lat="45.12014" lon="5.60375">
        <ele>1117</ele>
        <time>2010-06-06T10:45:55Z</time>
      </trkpt>
      <trkpt lat="45.12012" lon="5.60374">
        <ele>1117</ele>
        <time>2010-06-06T10:45:56Z</time>
      </trkpt>
      <trkpt lat="45.12009" lon="5.60373">
        <ele>1118</ele>
        <time>2010-06-06T10:45:57Z</time>
      </trkpt>
      <trkpt lat="45.12007" lon="5.60373">
        <ele>1118</ele>
        <time>2010-06-06T10:45:58Z</time>
      </trkpt>
      <trkpt lat="45.12004" lon="5.60372">
        <ele>1118</ele>
        <time>2010-06-06T10:45:59Z</time>
      </trkpt>
      <trkpt lat="45.12001" lon="5.60371">
        <ele>1119</ele>
        <time>2010-06-06T10:46:00Z</time>
      </trkpt>
      <trkpt lat="45.11998" lon="5.60371">
        <ele>1119</ele>
        <time>2010-06-06T10:46:01Z</time>
      </trkpt>
      <trkpt lat="45.11995" lon="5.6037">
        <ele>1119</ele>
        <time>2010-06-06T10:46:02Z</time>
      </trkpt>
      <trkpt lat="45.11992" lon="5.60369">
        <ele>1120</ele>
        <time>2010-06-06T10:46:03Z</time>
      </trkpt>
      <trkpt lat="45.11989" lon="5.60369">
        <ele>1120</ele>
        <time>2010-06-06T10:46:04Z</time>
      </trkpt>
      <trkpt lat="45.11987" lon="5.60368">
        <ele>1120</ele>
        <time>2010-06-06T10:46:05Z</time>
      </trkpt>
      <trkpt lat="45.11984" lon="5.60368">
        <ele>1120</ele>
        <time>2010-06-06T10:46:06Z</time>
      </trkpt>
      <trkpt lat="45.11981" lon="5.60368">
        <ele>1121</ele>
        <time>2010-06-06T10:46:07Z</time>
      </trkpt>
      <trkpt lat="45.11978" lon="5.60368">
        <ele>1121</ele>
        <time>2010-06-06T10:46:08Z</time>
      </trkpt>
      <trkpt lat="45.11975" lon="5.60368">
        <ele>1121</ele>
        <time>2010-06-06T10:46:09Z</time>
      </trkpt>
      <trkpt lat="45.11972" lon="5.60367">
        <ele>1122</ele>
        <time>2010-06-06T10:46:10Z</time>
      </trkpt>
      <trkpt lat="45.11969" lon="5.60366">
        <ele>1122</ele>
        <time>2010-06-06T10:46:11Z</time>
      </trkpt>
      <trkpt lat="45.11967" lon="5.60366">
        <ele>1122</ele>
        <time>2010-06-06T10:46:12Z</time>
      </trkpt>
      <trkpt lat="45.11964" lon="5.60365">
        <ele>1123</ele>
        <time>2010-06-06T10:46:13Z</time>
      </trkpt>
      <trkpt lat="45.11962" lon="5.60363">
        <ele>1123</ele>
        <time>2010-06-06T10:46:14Z</time>
      </trkpt>
      <trkpt lat="45.11958" lon="5.60362">
        <ele>1124</ele>
        <time>2010-06-06T10:46:15Z</time>
      </trkpt>
      <trkpt lat="45.11957" lon="5.60362">
        <ele>1124</ele>
        <time>2010-06-06T10:46:16Z</time>
      </trkpt>
      <trkpt lat="45.11955" lon="5.60363">
        <ele>1125</ele>
        <time>2010-06-06T10:46:17Z</time>
      </trkpt>
      <trkpt lat="45.11952" lon="5.60363">
        <ele>1126</ele>
        <time>2010-06-06T10:46:18Z</time>
      </trkpt>
      <trkpt lat="45.11949" lon="5.60363">
        <ele>1126</ele>
        <time>2010-06-06T10:46:19Z</time>
      </trkpt>
      <trkpt lat="45.11946" lon="5.60364">
        <ele>1126</ele>
        <time>2010-06-06T10:46:20Z</time>
      </trkpt>
      <trkpt lat="45.11944" lon="5.60363">
        <ele>1126</ele>
        <time>2010-06-06T10:46:21Z</time>
      </trkpt>
      <trkpt lat="45.11941" lon="5.60363">
        <ele>1126</ele>
        <time>2010-06-06T10:46:22Z</time>
      </trkpt>
      <trkpt lat="45.11939" lon="5.60362">
        <ele>1126</ele>
        <time>2010-06-06T10:46:23Z</time>
      </trkpt>
      <trkpt lat="45.11936" lon="5.60361">
        <ele>1126</ele>
        <time>2010-06-06T10:46:24Z</time>
      </trkpt>
      <trkpt lat="45.11934" lon="5.6036">
        <ele>1126</ele>
        <time>2010-06-06T10:46:25Z</time>
      </trkpt>
      <trkpt lat="45.11931" lon="5.60359">
        <ele>1126</ele>
        <time>2010-06-06T10:46:26Z</time>
      </trkpt>
      <trkpt lat="45.11929" lon="5.60358">
        <ele>1126</ele>
        <time>2010-06-06T10:46:27Z</time>
      </trkpt>
      <trkpt lat="45.11926" lon="5.60357">
        <ele>1126</ele>
        <time>2010-06-06T10:46:28Z</time>
      </trkpt>
      <trkpt lat="45.11924" lon="5.60355">
        <ele>1126</ele>
        <time>2010-06-06T10:46:29Z</time>
      </trkpt>
      <trkpt lat="45.11922" lon="5.60353">
        <ele>1126</ele>
        <time>2010-06-06T10:46:30Z</time>
      </trkpt>
      <trkpt lat="45.11919" lon="5.60352">
        <ele>1126</ele>
        <time>2010-06-06T10:46:31Z</time>
      </trkpt>
      <trkpt lat="45.11917" lon="5.6035">
        <ele>1126</ele>
        <time>2010-06-06T10:46:32Z</time>
      </trkpt>
      <trkpt lat="45.11915" lon="5.60348">
        <ele>1126</ele>
        <time>2010-06-06T10:46:33Z</time>
      </trkpt>
      <trkpt lat="45.11912" lon="5.60346">
        <ele>1126</ele>
        <time>2010-06-06T10:46:34Z</time>
      </trkpt>
      <trkpt lat="45.1191" lon="5.60344">
        <ele>1126</ele>
        <time>2010-06-06T10:46:35Z</time>
      </trkpt>
      <trkpt lat="45.11908" lon="5.60342">
        <ele>1127</ele>
        <time>2010-06-06T10:46:36Z</time>
      </trkpt>
      <trkpt lat="45.11906" lon="5.6034">
        <ele>1127</ele>
        <time>2010-06-06T10:46:37Z</time>
      </trkpt>
      <trkpt lat="45.11903" lon="5.60338">
        <ele>1127</ele>
        <time>2010-06-06T10:46:38Z</time>
      </trkpt>
      <trkpt lat="45.11901" lon="5.60337">
        <ele>1127</ele>
        <time>2010-06-06T10:46:39Z</time>
      </trkpt>
      <trkpt lat="45.11899" lon="5.60335">
        <ele>1128</ele>
        <time>2010-06-06T10:46:40Z</time>
      </trkpt>
      <trkpt lat="45.11898" lon="5.60333">
        <ele>1128</ele>
        <time>2010-06-06T10:46:41Z</time>
      </trkpt>
      <trkpt lat="45.11896" lon="5.60331">
        <ele>1128</ele>
        <time>2010-06-06T10:46:42Z</time>
      </trkpt>
      <trkpt lat="45.11894" lon="5.6033">
        <ele>1128</ele>
        <time>2010-06-06T10:46:43Z</time>
      </trkpt>
      <trkpt lat="45.11892" lon="5.60329">
        <ele>1128</ele>
        <time>2010-06-06T10:46:44Z</time>
      </trkpt>
      <trkpt lat="45.11889" lon="5.60328">
        <ele>1128</ele>
        <time>2010-06-06T10:46:45Z</time>
      </trkpt>
      <trkpt lat="45.11887" lon="5.60327">
        <ele>1128</ele>
        <time>2010-06-06T10:46:46Z</time>
      </trkpt>
      <trkpt lat="45.11885" lon="5.60325">
        <ele>1128</ele>
        <time>2010-06-06T10:46:47Z</time>
      </trkpt>
      <trkpt lat="45.11883" lon="5.60324">
        <ele>1128</ele>
        <time>2010-06-06T10:46:48Z</time>
      </trkpt>
      <trkpt lat="45.1188" lon="5.60324">
        <ele>1128</ele>
        <time>2010-06-06T10:46:49Z</time>
      </trkpt>
      <trkpt lat="45.11878" lon="5.60322">
        <ele>1128</ele>
        <time>2010-06-06T10:46:50Z</time>
      </trkpt>
      <trkpt lat="45.11875" lon="5.60321">
        <ele>1128</ele>
        <time>2010-06-06T10:46:51Z</time>
      </trkpt>
      <trkpt lat="45.11872" lon="5.6032">
        <ele>1128</ele>
        <time>2010-06-06T10:46:52Z</time>
      </trkpt>
      <trkpt lat="45.1187" lon="5.60319">
        <ele>1128</ele>
        <time>2010-06-06T10:46:53Z</time>
      </trkpt>
      <trkpt lat="45.11867" lon="5.60317">
        <ele>1128</ele>
        <time>2010-06-06T10:46:54Z</time>
      </trkpt>
      <trkpt lat="45.11865" lon="5.60316">
        <ele>1128</ele>
        <time>2010-06-06T10:46:55Z</time>
      </trkpt>
      <trkpt lat="45.11862" lon="5.60314">
        <ele>1128</ele>
        <time>2010-06-06T10:46:56Z</time>
      </trkpt>
      <trkpt lat="45.1186" lon="5.60313">
        <ele>1128</ele>
        <time>2010-06-06T10:46:57Z</time>
      </trkpt>
      <trkpt lat="45.11858" lon="5.60311">
        <ele>1128</ele>
        <time>2010-06-06T10:46:58Z</time>
      </trkpt>
      <trkpt lat="45.11856" lon="5.6031">
        <ele>1128</ele>
        <time>2010-06-06T10:46:59Z</time>
      </trkpt>
      <trkpt lat="45.11854" lon="5.60309">
        <ele>1128</ele>
        <time>2010-06-06T10:47:00Z</time>
      </trkpt>
      <trkpt lat="45.11851" lon="5.60307">
        <ele>1128</ele>
        <time>2010-06-06T10:47:01Z</time>
      </trkpt>
      <trkpt lat="45.11849" lon="5.60306">
        <ele>1128</ele>
        <time>2010-06-06T10:47:02Z</time>
      </trkpt>
      <trkpt lat="45.11847" lon="5.60305">
        <ele>1128</ele>
        <time>2010-06-06T10:47:03Z</time>
      </trkpt>
      <trkpt lat="45.11845" lon="5.60304">
        <ele>1128</ele>
        <time>2010-06-06T10:47:04Z</time>
      </trkpt>
      <trkpt lat="45.11843" lon="5.60302">
        <ele>1128</ele>
        <time>2010-06-06T10:47:05Z</time>
      </trkpt>
      <trkpt lat="45.11841" lon="5.60301">
        <ele>1129</ele>
        <time>2010-06-06T10:47:06Z</time>
      </trkpt>
      <trkpt lat="45.11838" lon="5.603">
        <ele>1129</ele>
        <time>2010-06-06T10:47:07Z</time>
      </trkpt>
      <trkpt lat="45.11836" lon="5.603">
        <ele>1129</ele>
        <time>2010-06-06T10:47:08Z</time>
      </trkpt>
      <trkpt lat="45.11834" lon="5.60299">
        <ele>1129</ele>
        <time>2010-06-06T10:47:09Z</time>
      </trkpt>
      <trkpt lat="45.11831" lon="5.60297">
        <ele>1130</ele>
        <time>2010-06-06T10:47:10Z</time>
      </trkpt>
      <trkpt lat="45.11829" lon="5.60296">
        <ele>1130</ele>
        <time>2010-06-06T10:47:11Z</time>
      </trkpt>
      <trkpt lat="45.11826" lon="5.60295">
        <ele>1130</ele>
        <time>2010-06-06T10:47:12Z</time>
      </trkpt>
      <trkpt lat="45.11824" lon="5.60294">
        <ele>1130</ele>
        <time>2010-06-06T10:47:13Z</time>
      </trkpt>
      <trkpt lat="45.11822" lon="5.60292">
        <ele>1131</ele>
        <time>2010-06-06T10:47:14Z</time>
      </trkpt>
      <trkpt lat="45.1182" lon="5.60291">
        <ele>1131</ele>
        <time>2010-06-06T10:47:15Z</time>
      </trkpt>
      <trkpt lat="45.11818" lon="5.6029">
        <ele>1131</ele>
        <time>2010-06-06T10:47:16Z</time>
      </trkpt>
      <trkpt lat="45.11815" lon="5.60289">
        <ele>1131</ele>
        <time>2010-06-06T10:47:17Z</time>
      </trkpt>
      <trkpt lat="45.11813" lon="5.60288">
        <ele>1132</ele>
        <time>2010-06-06T10:47:18Z</time>
      </trkpt>
      <trkpt lat="45.1181" lon="5.60286">
        <ele>1132</ele>
        <time>2010-06-06T10:47:19Z</time>
      </trkpt>
      <trkpt lat="45.11808" lon="5.60285">
        <ele>1133</ele>
        <time>2010-06-06T10:47:20Z</time>
      </trkpt>
      <trkpt lat="45.11805" lon="5.60284">
        <ele>1133</ele>
        <time>2010-06-06T10:47:21Z</time>
      </trkpt>
      <trkpt lat="45.11803" lon="5.60283">
        <ele>1133</ele>
        <time>2010-06-06T10:47:22Z</time>
      </trkpt>
      <trkpt lat="45.11801" lon="5.60282">
        <ele>1133</ele>
        <time>2010-06-06T10:47:23Z</time>
      </trkpt>
      <trkpt lat="45.11799" lon="5.60281">
        <ele>1133</ele>
        <time>2010-06-06T10:47:24Z</time>
      </trkpt>
      <trkpt lat="45.11797" lon="5.6028">
        <ele>1133</ele>
        <time>2010-06-06T10:47:25Z</time>
      </trkpt>
      <trkpt lat="45.11795" lon="5.6028">
        <ele>1133</ele>
        <time>2010-06-06T10:47:26Z</time>
      </trkpt>
      <trkpt lat="45.11792" lon="5.60279">
        <ele>1133</ele>
        <time>2010-06-06T10:47:27Z</time>
      </trkpt>
      <trkpt lat="45.1179" lon="5.60279">
        <ele>1133</ele>
        <time>2010-06-06T10:47:28Z</time>
      </trkpt>
      <trkpt lat="45.11788" lon="5.60278">
        <ele>1133</ele>
        <time>2010-06-06T10:47:29Z</time>
      </trkpt>
      <trkpt lat="45.11786" lon="5.60277">
        <ele>1133</ele>
        <time>2010-06-06T10:47:30Z</time>
      </trkpt>
      <trkpt lat="45.11784" lon="5.60276">
        <ele>1133</ele>
        <time>2010-06-06T10:47:31Z</time>
      </trkpt>
      <trkpt lat="45.11782" lon="5.60275">
        <ele>1133</ele>
        <time>2010-06-06T10:47:32Z</time>
      </trkpt>
      <trkpt lat="45.11779" lon="5.60274">
        <ele>1133</ele>
        <time>2010-06-06T10:47:33Z</time>
      </trkpt>
      <trkpt lat="45.11777" lon="5.60274">
        <ele>1133</ele>
        <time>2010-06-06T10:47:34Z</time>
      </trkpt>
      <trkpt lat="45.11775" lon="5.60273">
        <ele>1133</ele>
        <time>2010-06-06T10:47:35Z</time>
      </trkpt>
      <trkpt lat="45.11774" lon="5.60272">
        <ele>1133</ele>
        <time>2010-06-06T10:47:36Z</time>
      </trkpt>
      <trkpt lat="45.11772" lon="5.60271">
        <ele>1133</ele>
        <time>2010-06-06T10:47:37Z</time>
      </trkpt>
      <trkpt lat="45.1177" lon="5.60271">
        <ele>1134</ele>
        <time>2010-06-06T10:47:38Z</time>
      </trkpt>
      <trkpt lat="45.11768" lon="5.60269">
        <ele>1134</ele>
        <time>2010-06-06T10:47:39Z</time>
      </trkpt>
      <trkpt lat="45.11765" lon="5.60267">
        <ele>1134</ele>
        <time>2010-06-06T10:47:40Z</time>
      </trkpt>
      <trkpt lat="45.11763" lon="5.60265">
        <ele>1134</ele>
        <time>2010-06-06T10:47:41Z</time>
      </trkpt>
      <trkpt lat="45.11761" lon="5.60263">
        <ele>1134</ele>
        <time>2010-06-06T10:47:42Z</time>
      </trkpt>
      <trkpt lat="45.11758" lon="5.60261">
        <ele>1135</ele>
        <time>2010-06-06T10:47:43Z</time>
      </trkpt>
      <trkpt lat="45.11756" lon="5.60259">
        <ele>1135</ele>
        <time>2010-06-06T10:47:44Z</time>
      </trkpt>
      <trkpt lat="45.11755" lon="5.60257">
        <ele>1136</ele>
        <time>2010-06-06T10:47:45Z</time>
      </trkpt>
      <trkpt lat="45.11753" lon="5.60257">
        <ele>1136</ele>
        <time>2010-06-06T10:47:46Z</time>
      </trkpt>
      <trkpt lat="45.11751" lon="5.60256">
        <ele>1137</ele>
        <time>2010-06-06T10:47:48Z</time>
      </trkpt>
      <trkpt lat="45.1175" lon="5.60255">
        <ele>1137</ele>
        <time>2010-06-06T10:47:49Z</time>
      </trkpt>
      <trkpt lat="45.11748" lon="5.60254">
        <ele>1137</ele>
        <time>2010-06-06T10:47:50Z</time>
      </trkpt>
      <trkpt lat="45.11747" lon="5.60253">
        <ele>1137</ele>
        <time>2010-06-06T10:47:51Z</time>
      </trkpt>
      <trkpt lat="45.11746" lon="5.60252">
        <ele>1137</ele>
        <time>2010-06-06T10:47:52Z</time>
      </trkpt>
      <trkpt lat="45.11745" lon="5.60251">
        <ele>1137</ele>
        <time>2010-06-06T10:47:53Z</time>
      </trkpt>
      <trkpt lat="45.11743" lon="5.60248">
        <ele>1137</ele>
        <time>2010-06-06T10:47:55Z</time>
      </trkpt>
      <trkpt lat="45.11741" lon="5.60248">
        <ele>1137</ele>
        <time>2010-06-06T10:47:56Z</time>
      </trkpt>
      <trkpt lat="45.1174" lon="5.60247">
        <ele>1137</ele>
        <time>2010-06-06T10:47:57Z</time>
      </trkpt>
      <trkpt lat="45.11739" lon="5.60246">
        <ele>1137</ele>
        <time>2010-06-06T10:47:58Z</time>
      </trkpt>
      <trkpt lat="45.11737" lon="5.60244">
        <ele>1137</ele>
        <time>2010-06-06T10:48:00Z</time>
      </trkpt>
      <trkpt lat="45.11735" lon="5.60243">
        <ele>1137</ele>
        <time>2010-06-06T10:48:01Z</time>
      </trkpt>
      <trkpt lat="45.11734" lon="5.60243">
        <ele>1137</ele>
        <time>2010-06-06T10:48:02Z</time>
      </trkpt>
      <trkpt lat="45.11731" lon="5.60242">
        <ele>1137</ele>
        <time>2010-06-06T10:48:03Z</time>
      </trkpt>
      <trkpt lat="45.1173" lon="5.6024">
        <ele>1138</ele>
        <time>2010-06-06T10:48:04Z</time>
      </trkpt>
      <trkpt lat="45.11729" lon="5.60239">
        <ele>1138</ele>
        <time>2010-06-06T10:48:05Z</time>
      </trkpt>
      <trkpt lat="45.11728" lon="5.60237">
        <ele>1138</ele>
        <time>2010-06-06T10:48:06Z</time>
      </trkpt>
      <trkpt lat="45.11727" lon="5.60236">
        <ele>1138</ele>
        <time>2010-06-06T10:48:07Z</time>
      </trkpt>
      <trkpt lat="45.11725" lon="5.60235">
        <ele>1138</ele>
        <time>2010-06-06T10:48:08Z</time>
      </trkpt>
      <trkpt lat="45.11724" lon="5.60234">
        <ele>1138</ele>
        <time>2010-06-06T10:48:09Z</time>
      </trkpt>
      <trkpt lat="45.11722" lon="5.60233">
        <ele>1138</ele>
        <time>2010-06-06T10:48:10Z</time>
      </trkpt>
      <trkpt lat="45.1172" lon="5.60232">
        <ele>1138</ele>
        <time>2010-06-06T10:48:11Z</time>
      </trkpt>
      <trkpt lat="45.11718" lon="5.60232">
        <ele>1138</ele>
        <time>2010-06-06T10:48:12Z</time>
      </trkpt>
      <trkpt lat="45.11716" lon="5.60232">
        <ele>1138</ele>
        <time>2010-06-06T10:48:13Z</time>
      </trkpt>
      <trkpt lat="45.11714" lon="5.6023">
        <ele>1138</ele>
        <time>2010-06-06T10:48:14Z</time>
      </trkpt>
      <trkpt lat="45.11712" lon="5.60227">
        <ele>1138</ele>
        <time>2010-06-06T10:48:15Z</time>
      </trkpt>
      <trkpt lat="45.1171" lon="5.60225">
        <ele>1138</ele>
        <time>2010-06-06T10:48:16Z</time>
      </trkpt>
      <trkpt lat="45.11708" lon="5.60223">
        <ele>1138</ele>
        <time>2010-06-06T10:48:17Z</time>
      </trkpt>
      <trkpt lat="45.11707" lon="5.60222">
        <ele>1138</ele>
        <time>2010-06-06T10:48:18Z</time>
      </trkpt>
      <trkpt lat="45.11706" lon="5.6022">
        <ele>1139</ele>
        <time>2010-06-06T10:48:19Z</time>
      </trkpt>
      <trkpt lat="45.11703" lon="5.60219">
        <ele>1139</ele>
        <time>2010-06-06T10:48:20Z</time>
      </trkpt>
      <trkpt lat="45.11701" lon="5.60218">
        <ele>1140</ele>
        <time>2010-06-06T10:48:21Z</time>
      </trkpt>
      <trkpt lat="45.11698" lon="5.60217">
        <ele>1141</ele>
        <time>2010-06-06T10:48:22Z</time>
      </trkpt>
      <trkpt lat="45.11696" lon="5.60216">
        <ele>1142</ele>
        <time>2010-06-06T10:48:23Z</time>
      </trkpt>
      <trkpt lat="45.11693" lon="5.60215">
        <ele>1143</ele>
        <time>2010-06-06T10:48:24Z</time>
      </trkpt>
      <trkpt lat="45.11691" lon="5.60214">
        <ele>1144</ele>
        <time>2010-06-06T10:48:25Z</time>
      </trkpt>
      <trkpt lat="45.11689" lon="5.60214">
        <ele>1145</ele>
        <time>2010-06-06T10:48:26Z</time>
      </trkpt>
      <trkpt lat="45.11687" lon="5.60214">
        <ele>1145</ele>
        <time>2010-06-06T10:48:27Z</time>
      </trkpt>
      <trkpt lat="45.11685" lon="5.60214">
        <ele>1146</ele>
        <time>2010-06-06T10:48:28Z</time>
      </trkpt>
      <trkpt lat="45.11683" lon="5.60214">
        <ele>1147</ele>
        <time>2010-06-06T10:48:29Z</time>
      </trkpt>
      <trkpt lat="45.11681" lon="5.60213">
        <ele>1147</ele>
        <time>2010-06-06T10:48:30Z</time>
      </trkpt>
      <trkpt lat="45.11679" lon="5.60212">
        <ele>1147</ele>
        <time>2010-06-06T10:48:31Z</time>
      </trkpt>
      <trkpt lat="45.11676" lon="5.60212">
        <ele>1147</ele>
        <time>2010-06-06T10:48:32Z</time>
      </trkpt>
      <trkpt lat="45.11675" lon="5.60212">
        <ele>1147</ele>
        <time>2010-06-06T10:48:33Z</time>
      </trkpt>
      <trkpt lat="45.11673" lon="5.60212">
        <ele>1147</ele>
        <time>2010-06-06T10:48:34Z</time>
      </trkpt>
      <trkpt lat="45.11671" lon="5.60211">
        <ele>1147</ele>
        <time>2010-06-06T10:48:35Z</time>
      </trkpt>
      <trkpt lat="45.11669" lon="5.6021">
        <ele>1148</ele>
        <time>2010-06-06T10:48:36Z</time>
      </trkpt>
      <trkpt lat="45.11666" lon="5.60209">
        <ele>1148</ele>
        <time>2010-06-06T10:48:37Z</time>
      </trkpt>
      <trkpt lat="45.11664" lon="5.60208">
        <ele>1148</ele>
        <time>2010-06-06T10:48:38Z</time>
      </trkpt>
      <trkpt lat="45.11661" lon="5.60207">
        <ele>1149</ele>
        <time>2010-06-06T10:48:39Z</time>
      </trkpt>
      <trkpt lat="45.11659" lon="5.60207">
        <ele>1149</ele>
        <time>2010-06-06T10:48:40Z</time>
      </trkpt>
      <trkpt lat="45.11657" lon="5.60207">
        <ele>1149</ele>
        <time>2010-06-06T10:48:41Z</time>
      </trkpt>
      <trkpt lat="45.11655" lon="5.60206">
        <ele>1150</ele>
        <time>2010-06-06T10:48:42Z</time>
      </trkpt>
      <trkpt lat="45.11653" lon="5.60205">
        <ele>1150</ele>
        <time>2010-06-06T10:48:43Z</time>
      </trkpt>
      <trkpt lat="45.1165" lon="5.60205">
        <ele>1150</ele>
        <time>2010-06-06T10:48:44Z</time>
      </trkpt>
      <trkpt lat="45.11648" lon="5.60203">
        <ele>1151</ele>
        <time>2010-06-06T10:48:45Z</time>
      </trkpt>
      <trkpt lat="45.11646" lon="5.60203">
        <ele>1151</ele>
        <time>2010-06-06T10:48:46Z</time>
      </trkpt>
      <trkpt lat="45.11644" lon="5.60203">
        <ele>1151</ele>
        <time>2010-06-06T10:48:47Z</time>
      </trkpt>
      <trkpt lat="45.11642" lon="5.60202">
        <ele>1152</ele>
        <time>2010-06-06T10:48:48Z</time>
      </trkpt>
      <trkpt lat="45.1164" lon="5.60201">
        <ele>1152</ele>
        <time>2010-06-06T10:48:49Z</time>
      </trkpt>
      <trkpt lat="45.11638" lon="5.60201">
        <ele>1152</ele>
        <time>2010-06-06T10:48:50Z</time>
      </trkpt>
      <trkpt lat="45.11637" lon="5.602">
        <ele>1153</ele>
        <time>2010-06-06T10:48:51Z</time>
      </trkpt>
      <trkpt lat="45.11636" lon="5.602">
        <ele>1153</ele>
        <time>2010-06-06T10:48:52Z</time>
      </trkpt>
      <trkpt lat="45.11633" lon="5.60199">
        <ele>1153</ele>
        <time>2010-06-06T10:48:54Z</time>
      </trkpt>
      <trkpt lat="45.11632" lon="5.60199">
        <ele>1154</ele>
        <time>2010-06-06T10:48:55Z</time>
      </trkpt>
      <trkpt lat="45.1163" lon="5.60199">
        <ele>1154</ele>
        <time>2010-06-06T10:48:56Z</time>
      </trkpt>
      <trkpt lat="45.11628" lon="5.60199">
        <ele>1154</ele>
        <time>2010-06-06T10:48:57Z</time>
      </trkpt>
      <trkpt lat="45.11627" lon="5.60198">
        <ele>1154</ele>
        <time>2010-06-06T10:48:58Z</time>
      </trkpt>
      <trkpt lat="45.11625" lon="5.60197">
        <ele>1154</ele>
        <time>2010-06-06T10:48:59Z</time>
      </trkpt>
      <trkpt lat="45.11624" lon="5.60196">
        <ele>1154</ele>
        <time>2010-06-06T10:49:00Z</time>
      </trkpt>
      <trkpt lat="45.11622" lon="5.60197">
        <ele>1154</ele>
        <time>2010-06-06T10:49:01Z</time>
      </trkpt>
      <trkpt lat="45.11621" lon="5.60196">
        <ele>1154</ele>
        <time>2010-06-06T10:49:02Z</time>
      </trkpt>
      <trkpt lat="45.11619" lon="5.60195">
        <ele>1154</ele>
        <time>2010-06-06T10:49:03Z</time>
      </trkpt>
      <trkpt lat="45.11618" lon="5.60195">
        <ele>1154</ele>
        <time>2010-06-06T10:49:04Z</time>
      </trkpt>
      <trkpt lat="45.11615" lon="5.60194">
        <ele>1155</ele>
        <time>2010-06-06T10:49:06Z</time>
      </trkpt>
      <trkpt lat="45.11614" lon="5.60193">
        <ele>1155</ele>
        <time>2010-06-06T10:49:08Z</time>
      </trkpt>
      <trkpt lat="45.11612" lon="5.60191">
        <ele>1155</ele>
        <time>2010-06-06T10:49:10Z</time>
      </trkpt>
      <trkpt lat="45.11611" lon="5.60191">
        <ele>1155</ele>
        <time>2010-06-06T10:49:11Z</time>
      </trkpt>
      <trkpt lat="45.11609" lon="5.6019">
        <ele>1155</ele>
        <time>2010-06-06T10:49:12Z</time>
      </trkpt>
      <trkpt lat="45.11608" lon="5.60189">
        <ele>1155</ele>
        <time>2010-06-06T10:49:13Z</time>
      </trkpt>
      <trkpt lat="45.11606" lon="5.60188">
        <ele>1155</ele>
        <time>2010-06-06T10:49:14Z</time>
      </trkpt>
      <trkpt lat="45.11605" lon="5.60187">
        <ele>1155</ele>
        <time>2010-06-06T10:49:15Z</time>
      </trkpt>
      <trkpt lat="45.11603" lon="5.60186">
        <ele>1153</ele>
        <time>2010-06-06T10:49:17Z</time>
      </trkpt>
      <trkpt lat="45.11601" lon="5.60187">
        <ele>1153</ele>
        <time>2010-06-06T10:49:18Z</time>
      </trkpt>
      <trkpt lat="45.11599" lon="5.60187">
        <ele>1153</ele>
        <time>2010-06-06T10:49:20Z</time>
      </trkpt>
      <trkpt lat="45.11598" lon="5.60186">
        <ele>1153</ele>
        <time>2010-06-06T10:49:21Z</time>
      </trkpt>
      <trkpt lat="45.11596" lon="5.60185">
        <ele>1153</ele>
        <time>2010-06-06T10:49:22Z</time>
      </trkpt>
      <trkpt lat="45.11595" lon="5.60185">
        <ele>1153</ele>
        <time>2010-06-06T10:49:23Z</time>
      </trkpt>
      <trkpt lat="45.11593" lon="5.60184">
        <ele>1153</ele>
        <time>2010-06-06T10:49:25Z</time>
      </trkpt>
      <trkpt lat="45.11592" lon="5.60184">
        <ele>1153</ele>
        <time>2010-06-06T10:49:26Z</time>
      </trkpt>
      <trkpt lat="45.1159" lon="5.60183">
        <ele>1153</ele>
        <time>2010-06-06T10:49:27Z</time>
      </trkpt>
      <trkpt lat="45.11588" lon="5.60182">
        <ele>1153</ele>
        <time>2010-06-06T10:49:28Z</time>
      </trkpt>
      <trkpt lat="45.11587" lon="5.60182">
        <ele>1153</ele>
        <time>2010-06-06T10:49:29Z</time>
      </trkpt>
      <trkpt lat="45.11585" lon="5.60182">
        <ele>1153</ele>
        <time>2010-06-06T10:49:30Z</time>
      </trkpt>
      <trkpt lat="45.11583" lon="5.60182">
        <ele>1153</ele>
        <time>2010-06-06T10:49:31Z</time>
      </trkpt>
      <trkpt lat="45.11582" lon="5.60182">
        <ele>1153</ele>
        <time>2010-06-06T10:49:32Z</time>
      </trkpt>
      <trkpt lat="45.1158" lon="5.60181">
        <ele>1153</ele>
        <time>2010-06-06T10:49:35Z</time>
      </trkpt>
      <trkpt lat="45.11579" lon="5.6018">
        <ele>1153</ele>
        <time>2010-06-06T10:49:37Z</time>
      </trkpt>
      <trkpt lat="45.11578" lon="5.60179">
        <ele>1153</ele>
        <time>2010-06-06T10:49:38Z</time>
      </trkpt>
      <trkpt lat="45.11576" lon="5.6018">
        <ele>1153</ele>
        <time>2010-06-06T10:49:40Z</time>
      </trkpt>
      <trkpt lat="45.11574" lon="5.6018">
        <ele>1153</ele>
        <time>2010-06-06T10:49:41Z</time>
      </trkpt>
      <trkpt lat="45.11571" lon="5.6018">
        <ele>1153</ele>
        <time>2010-06-06T10:49:42Z</time>
      </trkpt>
      <trkpt lat="45.11569" lon="5.60179">
        <ele>1153</ele>
        <time>2010-06-06T10:49:43Z</time>
      </trkpt>
      <trkpt lat="45.11568" lon="5.6018">
        <ele>1153</ele>
        <time>2010-06-06T10:49:44Z</time>
      </trkpt>
      <trkpt lat="45.11567" lon="5.60181">
        <ele>1153</ele>
        <time>2010-06-06T10:49:45Z</time>
      </trkpt>
      <trkpt lat="45.11565" lon="5.60181">
        <ele>1153</ele>
        <time>2010-06-06T10:49:46Z</time>
      </trkpt>
      <trkpt lat="45.11563" lon="5.6018">
        <ele>1153</ele>
        <time>2010-06-06T10:49:47Z</time>
      </trkpt>
      <trkpt lat="45.11561" lon="5.60179">
        <ele>1154</ele>
        <time>2010-06-06T10:49:48Z</time>
      </trkpt>
      <trkpt lat="45.1156" lon="5.60178">
        <ele>1154</ele>
        <time>2010-06-06T10:49:49Z</time>
      </trkpt>
      <trkpt lat="45.11558" lon="5.60178">
        <ele>1155</ele>
        <time>2010-06-06T10:49:50Z</time>
      </trkpt>
      <trkpt lat="45.11556" lon="5.60177">
        <ele>1156</ele>
        <time>2010-06-06T10:49:51Z</time>
      </trkpt>
      <trkpt lat="45.11555" lon="5.60177">
        <ele>1156</ele>
        <time>2010-06-06T10:49:52Z</time>
      </trkpt>
      <trkpt lat="45.11554" lon="5.60176">
        <ele>1156</ele>
        <time>2010-06-06T10:49:53Z</time>
      </trkpt>
      <trkpt lat="45.11552" lon="5.60176">
        <ele>1157</ele>
        <time>2010-06-06T10:49:54Z</time>
      </trkpt>
      <trkpt lat="45.1155" lon="5.60176">
        <ele>1157</ele>
        <time>2010-06-06T10:49:55Z</time>
      </trkpt>
      <trkpt lat="45.11549" lon="5.60176">
        <ele>1157</ele>
        <time>2010-06-06T10:49:56Z</time>
      </trkpt>
      <trkpt lat="45.11548" lon="5.60175">
        <ele>1158</ele>
        <time>2010-06-06T10:49:57Z</time>
      </trkpt>
      <trkpt lat="45.11546" lon="5.60175">
        <ele>1158</ele>
        <time>2010-06-06T10:49:58Z</time>
      </trkpt>
      <trkpt lat="45.11545" lon="5.60174">
        <ele>1159</ele>
        <time>2010-06-06T10:49:59Z</time>
      </trkpt>
      <trkpt lat="45.11543" lon="5.60172">
        <ele>1160</ele>
        <time>2010-06-06T10:50:01Z</time>
      </trkpt>
      <trkpt lat="45.11542" lon="5.60172">
        <ele>1161</ele>
        <time>2010-06-06T10:50:02Z</time>
      </trkpt>
      <trkpt lat="45.1154" lon="5.60171">
        <ele>1161</ele>
        <time>2010-06-06T10:50:03Z</time>
      </trkpt>
      <trkpt lat="45.11538" lon="5.60172">
        <ele>1161</ele>
        <time>2010-06-06T10:50:04Z</time>
      </trkpt>
      <trkpt lat="45.11537" lon="5.60172">
        <ele>1162</ele>
        <time>2010-06-06T10:50:05Z</time>
      </trkpt>
      <trkpt lat="45.11535" lon="5.60171">
        <ele>1162</ele>
        <time>2010-06-06T10:50:06Z</time>
      </trkpt>
      <trkpt lat="45.11534" lon="5.6017">
        <ele>1162</ele>
        <time>2010-06-06T10:50:07Z</time>
      </trkpt>
      <trkpt lat="45.11532" lon="5.6017">
        <ele>1163</ele>
        <time>2010-06-06T10:50:08Z</time>
      </trkpt>
      <trkpt lat="45.1153" lon="5.60169">
        <ele>1164</ele>
        <time>2010-06-06T10:50:10Z</time>
      </trkpt>
      <trkpt lat="45.11528" lon="5.6017">
        <ele>1165</ele>
        <time>2010-06-06T10:50:12Z</time>
      </trkpt>
      <trkpt lat="45.11526" lon="5.60169">
        <ele>1166</ele>
        <time>2010-06-06T10:50:13Z</time>
      </trkpt>
      <trkpt lat="45.11524" lon="5.60169">
        <ele>1167</ele>
        <time>2010-06-06T10:50:14Z</time>
      </trkpt>
      <trkpt lat="45.11522" lon="5.60169">
        <ele>1168</ele>
        <time>2010-06-06T10:50:15Z</time>
      </trkpt>
      <trkpt lat="45.1152" lon="5.60169">
        <ele>1168</ele>
        <time>2010-06-06T10:50:16Z</time>
      </trkpt>
      <trkpt lat="45.11518" lon="5.6017">
        <ele>1168</ele>
        <time>2010-06-06T10:50:17Z</time>
      </trkpt>
      <trkpt lat="45.11515" lon="5.6017">
        <ele>1168</ele>
        <time>2010-06-06T10:50:18Z</time>
      </trkpt>
      <trkpt lat="45.11512" lon="5.60171">
        <ele>1168</ele>
        <time>2010-06-06T10:50:19Z</time>
      </trkpt>
      <trkpt lat="45.11509" lon="5.60171">
        <ele>1168</ele>
        <time>2010-06-06T10:50:20Z</time>
      </trkpt>
      <trkpt lat="45.11506" lon="5.60172">
        <ele>1168</ele>
        <time>2010-06-06T10:50:21Z</time>
      </trkpt>
      <trkpt lat="45.11504" lon="5.60171">
        <ele>1168</ele>
        <time>2010-06-06T10:50:22Z</time>
      </trkpt>
      <trkpt lat="45.11502" lon="5.60171">
        <ele>1168</ele>
        <time>2010-06-06T10:50:23Z</time>
      </trkpt>
      <trkpt lat="45.11501" lon="5.6017">
        <ele>1168</ele>
        <time>2010-06-06T10:50:24Z</time>
      </trkpt>
      <trkpt lat="45.11499" lon="5.60169">
        <ele>1168</ele>
        <time>2010-06-06T10:50:25Z</time>
      </trkpt>
      <trkpt lat="45.11497" lon="5.60168">
        <ele>1168</ele>
        <time>2010-06-06T10:50:26Z</time>
      </trkpt>
      <trkpt lat="45.11494" lon="5.60167">
        <ele>1168</ele>
        <time>2010-06-06T10:50:27Z</time>
      </trkpt>
      <trkpt lat="45.11492" lon="5.60167">
        <ele>1168</ele>
        <time>2010-06-06T10:50:28Z</time>
      </trkpt>
      <trkpt lat="45.1149" lon="5.60169">
        <ele>1168</ele>
        <time>2010-06-06T10:50:29Z</time>
      </trkpt>
      <trkpt lat="45.11488" lon="5.60169">
        <ele>1168</ele>
        <time>2010-06-06T10:50:30Z</time>
      </trkpt>
      <trkpt lat="45.11486" lon="5.60169">
        <ele>1168</ele>
        <time>2010-06-06T10:50:31Z</time>
      </trkpt>
      <trkpt lat="45.11485" lon="5.60169">
        <ele>1168</ele>
        <time>2010-06-06T10:50:32Z</time>
      </trkpt>
      <trkpt lat="45.11483" lon="5.60168">
        <ele>1168</ele>
        <time>2010-06-06T10:50:33Z</time>
      </trkpt>
      <trkpt lat="45.11482" lon="5.60167">
        <ele>1168</ele>
        <time>2010-06-06T10:50:34Z</time>
      </trkpt>
      <trkpt lat="45.1148" lon="5.60166">
        <ele>1168</ele>
        <time>2010-06-06T10:50:35Z</time>
      </trkpt>
      <trkpt lat="45.11478" lon="5.60166">
        <ele>1168</ele>
        <time>2010-06-06T10:50:37Z</time>
      </trkpt>
      <trkpt lat="45.11476" lon="5.60165">
        <ele>1168</ele>
        <time>2010-06-06T10:50:38Z</time>
      </trkpt>
      <trkpt lat="45.11474" lon="5.60166">
        <ele>1168</ele>
        <time>2010-06-06T10:50:39Z</time>
      </trkpt>
      <trkpt lat="45.11472" lon="5.60165">
        <ele>1168</ele>
        <time>2010-06-06T10:50:40Z</time>
      </trkpt>
      <trkpt lat="45.11471" lon="5.60164">
        <ele>1168</ele>
        <time>2010-06-06T10:50:41Z</time>
      </trkpt>
      <trkpt lat="45.1147" lon="5.60163">
        <ele>1168</ele>
        <time>2010-06-06T10:50:42Z</time>
      </trkpt>
      <trkpt lat="45.11468" lon="5.60163">
        <ele>1168</ele>
        <time>2010-06-06T10:50:43Z</time>
      </trkpt>
      <trkpt lat="45.11467" lon="5.60162">
        <ele>1168</ele>
        <time>2010-06-06T10:50:44Z</time>
      </trkpt>
      <trkpt lat="45.11465" lon="5.60161">
        <ele>1168</ele>
        <time>2010-06-06T10:50:45Z</time>
      </trkpt>
      <trkpt lat="45.11464" lon="5.60162">
        <ele>1168</ele>
        <time>2010-06-06T10:50:46Z</time>
      </trkpt>
      <trkpt lat="45.11461" lon="5.60161">
        <ele>1168</ele>
        <time>2010-06-06T10:50:47Z</time>
      </trkpt>
      <trkpt lat="45.1146" lon="5.60162">
        <ele>1169</ele>
        <time>2010-06-06T10:50:48Z</time>
      </trkpt>
      <trkpt lat="45.11458" lon="5.60162">
        <ele>1169</ele>
        <time>2010-06-06T10:50:49Z</time>
      </trkpt>
      <trkpt lat="45.11456" lon="5.60161">
        <ele>1170</ele>
        <time>2010-06-06T10:50:50Z</time>
      </trkpt>
      <trkpt lat="45.11455" lon="5.60161">
        <ele>1170</ele>
        <time>2010-06-06T10:50:51Z</time>
      </trkpt>
      <trkpt lat="45.11453" lon="5.60161">
        <ele>1171</ele>
        <time>2010-06-06T10:50:52Z</time>
      </trkpt>
      <trkpt lat="45.11451" lon="5.60161">
        <ele>1171</ele>
        <time>2010-06-06T10:50:53Z</time>
      </trkpt>
      <trkpt lat="45.11449" lon="5.60161">
        <ele>1172</ele>
        <time>2010-06-06T10:50:54Z</time>
      </trkpt>
      <trkpt lat="45.11448" lon="5.6016">
        <ele>1173</ele>
        <time>2010-06-06T10:50:55Z</time>
      </trkpt>
      <trkpt lat="45.11446" lon="5.6016">
        <ele>1174</ele>
        <time>2010-06-06T10:50:56Z</time>
      </trkpt>
      <trkpt lat="45.11445" lon="5.6016">
        <ele>1174</ele>
        <time>2010-06-06T10:50:57Z</time>
      </trkpt>
      <trkpt lat="45.11444" lon="5.60159">
        <ele>1175</ele>
        <time>2010-06-06T10:50:58Z</time>
      </trkpt>
      <trkpt lat="45.11442" lon="5.60159">
        <ele>1175</ele>
        <time>2010-06-06T10:50:59Z</time>
      </trkpt>
      <trkpt lat="45.11441" lon="5.6016">
        <ele>1175</ele>
        <time>2010-06-06T10:51:00Z</time>
      </trkpt>
      <trkpt lat="45.11439" lon="5.6016">
        <ele>1176</ele>
        <time>2010-06-06T10:51:01Z</time>
      </trkpt>
      <trkpt lat="45.11438" lon="5.6016">
        <ele>1176</ele>
        <time>2010-06-06T10:51:02Z</time>
      </trkpt>
      <trkpt lat="45.11437" lon="5.6016">
        <ele>1176</ele>
        <time>2010-06-06T10:51:03Z</time>
      </trkpt>
      <trkpt lat="45.11435" lon="5.60159">
        <ele>1176</ele>
        <time>2010-06-06T10:51:04Z</time>
      </trkpt>
      <trkpt lat="45.11433" lon="5.6016">
        <ele>1177</ele>
        <time>2010-06-06T10:51:05Z</time>
      </trkpt>
      <trkpt lat="45.11432" lon="5.6016">
        <ele>1178</ele>
        <time>2010-06-06T10:51:06Z</time>
      </trkpt>
      <trkpt lat="45.1143" lon="5.60159">
        <ele>1178</ele>
        <time>2010-06-06T10:51:07Z</time>
      </trkpt>
      <trkpt lat="45.11428" lon="5.60159">
        <ele>1178</ele>
        <time>2010-06-06T10:51:08Z</time>
      </trkpt>
      <trkpt lat="45.11426" lon="5.60158">
        <ele>1179</ele>
        <time>2010-06-06T10:51:09Z</time>
      </trkpt>
      <trkpt lat="45.11425" lon="5.60159">
        <ele>1179</ele>
        <time>2010-06-06T10:51:10Z</time>
      </trkpt>
      <trkpt lat="45.11424" lon="5.6016">
        <ele>1179</ele>
        <time>2010-06-06T10:51:11Z</time>
      </trkpt>
      <trkpt lat="45.11422" lon="5.6016">
        <ele>1179</ele>
        <time>2010-06-06T10:51:12Z</time>
      </trkpt>
      <trkpt lat="45.1142" lon="5.6016">
        <ele>1179</ele>
        <time>2010-06-06T10:51:14Z</time>
      </trkpt>
      <trkpt lat="45.11418" lon="5.6016">
        <ele>1179</ele>
        <time>2010-06-06T10:51:15Z</time>
      </trkpt>
      <trkpt lat="45.11417" lon="5.60159">
        <ele>1179</ele>
        <time>2010-06-06T10:51:16Z</time>
      </trkpt>
      <trkpt lat="45.11416" lon="5.60157">
        <ele>1179</ele>
        <time>2010-06-06T10:51:18Z</time>
      </trkpt>
      <trkpt lat="45.11414" lon="5.60157">
        <ele>1179</ele>
        <time>2010-06-06T10:51:19Z</time>
      </trkpt>
      <trkpt lat="45.11413" lon="5.60157">
        <ele>1179</ele>
        <time>2010-06-06T10:51:20Z</time>
      </trkpt>
      <trkpt lat="45.11411" lon="5.60157">
        <ele>1179</ele>
        <time>2010-06-06T10:51:21Z</time>
      </trkpt>
      <trkpt lat="45.1141" lon="5.60157">
        <ele>1179</ele>
        <time>2010-06-06T10:51:22Z</time>
      </trkpt>
      <trkpt lat="45.11408" lon="5.60156">
        <ele>1179</ele>
        <time>2010-06-06T10:51:23Z</time>
      </trkpt>
      <trkpt lat="45.11406" lon="5.60157">
        <ele>1179</ele>
        <time>2010-06-06T10:51:24Z</time>
      </trkpt>
      <trkpt lat="45.11404" lon="5.60157">
        <ele>1179</ele>
        <time>2010-06-06T10:51:25Z</time>
      </trkpt>
      <trkpt lat="45.11403" lon="5.60157">
        <ele>1179</ele>
        <time>2010-06-06T10:51:26Z</time>
      </trkpt>
      <trkpt lat="45.114" lon="5.60156">
        <ele>1179</ele>
        <time>2010-06-06T10:51:28Z</time>
      </trkpt>
      <trkpt lat="45.11399" lon="5.60157">
        <ele>1179</ele>
        <time>2010-06-06T10:51:29Z</time>
      </trkpt>
      <trkpt lat="45.11397" lon="5.60158">
        <ele>1179</ele>
        <time>2010-06-06T10:51:30Z</time>
      </trkpt>
      <trkpt lat="45.11396" lon="5.60158">
        <ele>1179</ele>
        <time>2010-06-06T10:51:31Z</time>
      </trkpt>
      <trkpt lat="45.11394" lon="5.60159">
        <ele>1179</ele>
        <time>2010-06-06T10:51:33Z</time>
      </trkpt>
      <trkpt lat="45.11393" lon="5.6016">
        <ele>1179</ele>
        <time>2010-06-06T10:51:34Z</time>
      </trkpt>
      <trkpt lat="45.11392" lon="5.60161">
        <ele>1179</ele>
        <time>2010-06-06T10:51:35Z</time>
      </trkpt>
      <trkpt lat="45.1139" lon="5.60161">
        <ele>1179</ele>
        <time>2010-06-06T10:51:36Z</time>
      </trkpt>
      <trkpt lat="45.11389" lon="5.60161">
        <ele>1179</ele>
        <time>2010-06-06T10:51:37Z</time>
      </trkpt>
      <trkpt lat="45.11387" lon="5.60162">
        <ele>1179</ele>
        <time>2010-06-06T10:51:38Z</time>
      </trkpt>
      <trkpt lat="45.11385" lon="5.60162">
        <ele>1179</ele>
        <time>2010-06-06T10:51:39Z</time>
      </trkpt>
      <trkpt lat="45.11383" lon="5.60162">
        <ele>1179</ele>
        <time>2010-06-06T10:51:40Z</time>
      </trkpt>
      <trkpt lat="45.11381" lon="5.60163">
        <ele>1179</ele>
        <time>2010-06-06T10:51:41Z</time>
      </trkpt>
      <trkpt lat="45.11378" lon="5.60164">
        <ele>1179</ele>
        <time>2010-06-06T10:51:42Z</time>
      </trkpt>
      <trkpt lat="45.11375" lon="5.60165">
        <ele>1179</ele>
        <time>2010-06-06T10:51:43Z</time>
      </trkpt>
      <trkpt lat="45.11373" lon="5.60165">
        <ele>1179</ele>
        <time>2010-06-06T10:51:44Z</time>
      </trkpt>
      <trkpt lat="45.1137" lon="5.60165">
        <ele>1179</ele>
        <time>2010-06-06T10:51:45Z</time>
      </trkpt>
      <trkpt lat="45.11367" lon="5.60166">
        <ele>1179</ele>
        <time>2010-06-06T10:51:46Z</time>
      </trkpt>
      <trkpt lat="45.11364" lon="5.60166">
        <ele>1179</ele>
        <time>2010-06-06T10:51:47Z</time>
      </trkpt>
      <trkpt lat="45.11362" lon="5.60166">
        <ele>1179</ele>
        <time>2010-06-06T10:51:48Z</time>
      </trkpt>
      <trkpt lat="45.11359" lon="5.60166">
        <ele>1179</ele>
        <time>2010-06-06T10:51:49Z</time>
      </trkpt>
      <trkpt lat="45.11355" lon="5.60166">
        <ele>1179</ele>
        <time>2010-06-06T10:51:50Z</time>
      </trkpt>
      <trkpt lat="45.11352" lon="5.60165">
        <ele>1179</ele>
        <time>2010-06-06T10:51:51Z</time>
      </trkpt>
      <trkpt lat="45.11349" lon="5.60164">
        <ele>1179</ele>
        <time>2010-06-06T10:51:52Z</time>
      </trkpt>
      <trkpt lat="45.11347" lon="5.60164">
        <ele>1179</ele>
        <time>2010-06-06T10:51:53Z</time>
      </trkpt>
      <trkpt lat="45.11344" lon="5.60164">
        <ele>1179</ele>
        <time>2010-06-06T10:51:54Z</time>
      </trkpt>
      <trkpt lat="45.11341" lon="5.60164">
        <ele>1179</ele>
        <time>2010-06-06T10:51:55Z</time>
      </trkpt>
      <trkpt lat="45.11338" lon="5.60163">
        <ele>1179</ele>
        <time>2010-06-06T10:51:56Z</time>
      </trkpt>
      <trkpt lat="45.11335" lon="5.60163">
        <ele>1179</ele>
        <time>2010-06-06T10:51:57Z</time>
      </trkpt>
      <trkpt lat="45.11332" lon="5.60164">
        <ele>1180</ele>
        <time>2010-06-06T10:51:58Z</time>
      </trkpt>
      <trkpt lat="45.11329" lon="5.60165">
        <ele>1180</ele>
        <time>2010-06-06T10:51:59Z</time>
      </trkpt>
      <trkpt lat="45.11326" lon="5.60166">
        <ele>1181</ele>
        <time>2010-06-06T10:52:00Z</time>
      </trkpt>
      <trkpt lat="45.11323" lon="5.60167">
        <ele>1182</ele>
        <time>2010-06-06T10:52:01Z</time>
      </trkpt>
      <trkpt lat="45.1132" lon="5.60168">
        <ele>1183</ele>
        <time>2010-06-06T10:52:02Z</time>
      </trkpt>
      <trkpt lat="45.11318" lon="5.60168">
        <ele>1183</ele>
        <time>2010-06-06T10:52:03Z</time>
      </trkpt>
      <trkpt lat="45.11315" lon="5.60167">
        <ele>1183</ele>
        <time>2010-06-06T10:52:04Z</time>
      </trkpt>
      <trkpt lat="45.11313" lon="5.60165">
        <ele>1183</ele>
        <time>2010-06-06T10:52:05Z</time>
      </trkpt>
      <trkpt lat="45.1131" lon="5.60165">
        <ele>1183</ele>
        <time>2010-06-06T10:52:06Z</time>
      </trkpt>
      <trkpt lat="45.11308" lon="5.60166">
        <ele>1183</ele>
        <time>2010-06-06T10:52:07Z</time>
      </trkpt>
      <trkpt lat="45.11305" lon="5.60165">
        <ele>1183</ele>
        <time>2010-06-06T10:52:08Z</time>
      </trkpt>
      <trkpt lat="45.11302" lon="5.60164">
        <ele>1183</ele>
        <time>2010-06-06T10:52:09Z</time>
      </trkpt>
      <trkpt lat="45.11299" lon="5.60165">
        <ele>1183</ele>
        <time>2010-06-06T10:52:10Z</time>
      </trkpt>
      <trkpt lat="45.11297" lon="5.60164">
        <ele>1183</ele>
        <time>2010-06-06T10:52:11Z</time>
      </trkpt>
      <trkpt lat="45.11294" lon="5.60164">
        <ele>1183</ele>
        <time>2010-06-06T10:52:12Z</time>
      </trkpt>
      <trkpt lat="45.11292" lon="5.60163">
        <ele>1183</ele>
        <time>2010-06-06T10:52:13Z</time>
      </trkpt>
      <trkpt lat="45.11289" lon="5.60164">
        <ele>1183</ele>
        <time>2010-06-06T10:52:14Z</time>
      </trkpt>
      <trkpt lat="45.11286" lon="5.60164">
        <ele>1183</ele>
        <time>2010-06-06T10:52:15Z</time>
      </trkpt>
      <trkpt lat="45.11283" lon="5.60164">
        <ele>1183</ele>
        <time>2010-06-06T10:52:16Z</time>
      </trkpt>
      <trkpt lat="45.11281" lon="5.60165">
        <ele>1183</ele>
        <time>2010-06-06T10:52:17Z</time>
      </trkpt>
      <trkpt lat="45.11278" lon="5.60165">
        <ele>1183</ele>
        <time>2010-06-06T10:52:18Z</time>
      </trkpt>
      <trkpt lat="45.11276" lon="5.60166">
        <ele>1183</ele>
        <time>2010-06-06T10:52:19Z</time>
      </trkpt>
      <trkpt lat="45.11274" lon="5.60167">
        <ele>1184</ele>
        <time>2010-06-06T10:52:20Z</time>
      </trkpt>
      <trkpt lat="45.11271" lon="5.60166">
        <ele>1185</ele>
        <time>2010-06-06T10:52:21Z</time>
      </trkpt>
      <trkpt lat="45.11269" lon="5.60166">
        <ele>1185</ele>
        <time>2010-06-06T10:52:22Z</time>
      </trkpt>
      <trkpt lat="45.11266" lon="5.60166">
        <ele>1185</ele>
        <time>2010-06-06T10:52:23Z</time>
      </trkpt>
      <trkpt lat="45.11263" lon="5.60166">
        <ele>1185</ele>
        <time>2010-06-06T10:52:24Z</time>
      </trkpt>
      <trkpt lat="45.1126" lon="5.60169">
        <ele>1186</ele>
        <time>2010-06-06T10:52:25Z</time>
      </trkpt>
      <trkpt lat="45.11257" lon="5.6017">
        <ele>1186</ele>
        <time>2010-06-06T10:52:26Z</time>
      </trkpt>
      <trkpt lat="45.11255" lon="5.6017">
        <ele>1187</ele>
        <time>2010-06-06T10:52:27Z</time>
      </trkpt>
      <trkpt lat="45.11253" lon="5.60171">
        <ele>1188</ele>
        <time>2010-06-06T10:52:28Z</time>
      </trkpt>
      <trkpt lat="45.1125" lon="5.60172">
        <ele>1189</ele>
        <time>2010-06-06T10:52:29Z</time>
      </trkpt>
      <trkpt lat="45.11247" lon="5.60172">
        <ele>1189</ele>
        <time>2010-06-06T10:52:30Z</time>
      </trkpt>
      <trkpt lat="45.11245" lon="5.60173">
        <ele>1190</ele>
        <time>2010-06-06T10:52:31Z</time>
      </trkpt>
      <trkpt lat="45.11242" lon="5.60173">
        <ele>1190</ele>
        <time>2010-06-06T10:52:32Z</time>
      </trkpt>
      <trkpt lat="45.1124" lon="5.60175">
        <ele>1190</ele>
        <time>2010-06-06T10:52:33Z</time>
      </trkpt>
      <trkpt lat="45.11237" lon="5.60175">
        <ele>1190</ele>
        <time>2010-06-06T10:52:34Z</time>
      </trkpt>
      <trkpt lat="45.11235" lon="5.60175">
        <ele>1190</ele>
        <time>2010-06-06T10:52:35Z</time>
      </trkpt>
      <trkpt lat="45.11233" lon="5.60177">
        <ele>1190</ele>
        <time>2010-06-06T10:52:36Z</time>
      </trkpt>
      <trkpt lat="45.1123" lon="5.60181">
        <ele>1190</ele>
        <time>2010-06-06T10:52:37Z</time>
      </trkpt>
      <trkpt lat="45.11227" lon="5.60182">
        <ele>1191</ele>
        <time>2010-06-06T10:52:38Z</time>
      </trkpt>
      <trkpt lat="45.11225" lon="5.60182">
        <ele>1192</ele>
        <time>2010-06-06T10:52:39Z</time>
      </trkpt>
      <trkpt lat="45.11222" lon="5.60182">
        <ele>1193</ele>
        <time>2010-06-06T10:52:40Z</time>
      </trkpt>
      <trkpt lat="45.11219" lon="5.60182">
        <ele>1194</ele>
        <time>2010-06-06T10:52:41Z</time>
      </trkpt>
      <trkpt lat="45.11217" lon="5.60182">
        <ele>1194</ele>
        <time>2010-06-06T10:52:42Z</time>
      </trkpt>
      <trkpt lat="45.11216" lon="5.6018">
        <ele>1194</ele>
        <time>2010-06-06T10:52:43Z</time>
      </trkpt>
      <trkpt lat="45.11214" lon="5.6018">
        <ele>1194</ele>
        <time>2010-06-06T10:52:44Z</time>
      </trkpt>
      <trkpt lat="45.11213" lon="5.60179">
        <ele>1194</ele>
        <time>2010-06-06T10:52:45Z</time>
      </trkpt>
      <trkpt lat="45.11211" lon="5.6018">
        <ele>1194</ele>
        <time>2010-06-06T10:52:46Z</time>
      </trkpt>
      <trkpt lat="45.1121" lon="5.60181">
        <ele>1194</ele>
        <time>2010-06-06T10:52:47Z</time>
      </trkpt>
      <trkpt lat="45.11208" lon="5.6018">
        <ele>1194</ele>
        <time>2010-06-06T10:52:48Z</time>
      </trkpt>
      <trkpt lat="45.11207" lon="5.60181">
        <ele>1194</ele>
        <time>2010-06-06T10:52:49Z</time>
      </trkpt>
      <trkpt lat="45.11205" lon="5.60182">
        <ele>1194</ele>
        <time>2010-06-06T10:52:50Z</time>
      </trkpt>
      <trkpt lat="45.11204" lon="5.60181">
        <ele>1194</ele>
        <time>2010-06-06T10:52:51Z</time>
      </trkpt>
      <trkpt lat="45.11202" lon="5.60182">
        <ele>1194</ele>
        <time>2010-06-06T10:52:52Z</time>
      </trkpt>
      <trkpt lat="45.11201" lon="5.60181">
        <ele>1194</ele>
        <time>2010-06-06T10:52:53Z</time>
      </trkpt>
      <trkpt lat="45.11199" lon="5.6018">
        <ele>1194</ele>
        <time>2010-06-06T10:52:54Z</time>
      </trkpt>
      <trkpt lat="45.11198" lon="5.6018">
        <ele>1194</ele>
        <time>2010-06-06T10:52:56Z</time>
      </trkpt>
      <trkpt lat="45.11196" lon="5.6018">
        <ele>1194</ele>
        <time>2010-06-06T10:52:57Z</time>
      </trkpt>
      <trkpt lat="45.11195" lon="5.60179">
        <ele>1193</ele>
        <time>2010-06-06T10:52:58Z</time>
      </trkpt>
      <trkpt lat="45.11194" lon="5.60179">
        <ele>1193</ele>
        <time>2010-06-06T10:52:59Z</time>
      </trkpt>
      <trkpt lat="45.11192" lon="5.6018">
        <ele>1193</ele>
        <time>2010-06-06T10:53:00Z</time>
      </trkpt>
      <trkpt lat="45.11191" lon="5.6018">
        <ele>1193</ele>
        <time>2010-06-06T10:53:01Z</time>
      </trkpt>
      <trkpt lat="45.11189" lon="5.6018">
        <ele>1193</ele>
        <time>2010-06-06T10:53:02Z</time>
      </trkpt>
      <trkpt lat="45.11188" lon="5.6018">
        <ele>1193</ele>
        <time>2010-06-06T10:53:03Z</time>
      </trkpt>
      <trkpt lat="45.11186" lon="5.60178">
        <ele>1193</ele>
        <time>2010-06-06T10:53:04Z</time>
      </trkpt>
      <trkpt lat="45.11185" lon="5.60176">
        <ele>1193</ele>
        <time>2010-06-06T10:53:05Z</time>
      </trkpt>
      <trkpt lat="45.11184" lon="5.60174">
        <ele>1193</ele>
        <time>2010-06-06T10:53:06Z</time>
      </trkpt>
      <trkpt lat="45.11183" lon="5.60171">
        <ele>1193</ele>
        <time>2010-06-06T10:53:07Z</time>
      </trkpt>
      <trkpt lat="45.11182" lon="5.60168">
        <ele>1193</ele>
        <time>2010-06-06T10:53:08Z</time>
      </trkpt>
      <trkpt lat="45.11181" lon="5.60166">
        <ele>1193</ele>
        <time>2010-06-06T10:53:09Z</time>
      </trkpt>
      <trkpt lat="45.11181" lon="5.60164">
        <ele>1193</ele>
        <time>2010-06-06T10:53:10Z</time>
      </trkpt>
      <trkpt lat="45.11182" lon="5.60162">
        <ele>1193</ele>
        <time>2010-06-06T10:53:11Z</time>
      </trkpt>
      <trkpt lat="45.11185" lon="5.6016">
        <ele>1193</ele>
        <time>2010-06-06T10:53:13Z</time>
      </trkpt>
      <trkpt lat="45.11185" lon="5.60158">
        <ele>1193</ele>
        <time>2010-06-06T10:53:14Z</time>
      </trkpt>
      <trkpt lat="45.11186" lon="5.60156">
        <ele>1193</ele>
        <time>2010-06-06T10:53:15Z</time>
      </trkpt>
      <trkpt lat="45.11188" lon="5.60154">
        <ele>1193</ele>
        <time>2010-06-06T10:53:16Z</time>
      </trkpt>
      <trkpt lat="45.1119" lon="5.60153">
        <ele>1193</ele>
        <time>2010-06-06T10:53:17Z</time>
      </trkpt>
      <trkpt lat="45.11192" lon="5.60151">
        <ele>1193</ele>
        <time>2010-06-06T10:53:18Z</time>
      </trkpt>
      <trkpt lat="45.11193" lon="5.60148">
        <ele>1193</ele>
        <time>2010-06-06T10:53:19Z</time>
      </trkpt>
      <trkpt lat="45.11196" lon="5.60147">
        <ele>1193</ele>
        <time>2010-06-06T10:53:20Z</time>
      </trkpt>
      <trkpt lat="45.11198" lon="5.60144">
        <ele>1193</ele>
        <time>2010-06-06T10:53:21Z</time>
      </trkpt>
      <trkpt lat="45.11199" lon="5.6014">
        <ele>1194</ele>
        <time>2010-06-06T10:53:22Z</time>
      </trkpt>
      <trkpt lat="45.11201" lon="5.60139">
        <ele>1194</ele>
        <time>2010-06-06T10:53:23Z</time>
      </trkpt>
      <trkpt lat="45.11202" lon="5.60136">
        <ele>1196</ele>
        <time>2010-06-06T10:53:25Z</time>
      </trkpt>
      <trkpt lat="45.11203" lon="5.60134">
        <ele>1197</ele>
        <time>2010-06-06T10:53:26Z</time>
      </trkpt>
      <trkpt lat="45.11205" lon="5.60132">
        <ele>1200</ele>
        <time>2010-06-06T10:53:29Z</time>
      </trkpt>
      <trkpt lat="45.11206" lon="5.60129">
        <ele>1201</ele>
        <time>2010-06-06T10:53:30Z</time>
      </trkpt>
      <trkpt lat="45.11208" lon="5.60127">
        <ele>1202</ele>
        <time>2010-06-06T10:53:31Z</time>
      </trkpt>
      <trkpt lat="45.11209" lon="5.60126">
        <ele>1203</ele>
        <time>2010-06-06T10:53:32Z</time>
      </trkpt>
      <trkpt lat="45.11211" lon="5.60124">
        <ele>1204</ele>
        <time>2010-06-06T10:53:33Z</time>
      </trkpt>
      <trkpt lat="45.11212" lon="5.60122">
        <ele>1206</ele>
        <time>2010-06-06T10:53:35Z</time>
      </trkpt>
      <trkpt lat="45.11215" lon="5.60119">
        <ele>1207</ele>
        <time>2010-06-06T10:53:37Z</time>
      </trkpt>
      <trkpt lat="45.11215" lon="5.60117">
        <ele>1207</ele>
        <time>2010-06-06T10:53:38Z</time>
      </trkpt>
      <trkpt lat="45.11217" lon="5.60115">
        <ele>1208</ele>
        <time>2010-06-06T10:53:40Z</time>
      </trkpt>
      <trkpt lat="45.11217" lon="5.60113">
        <ele>1210</ele>
        <time>2010-06-06T10:53:42Z</time>
      </trkpt>
      <trkpt lat="45.11217" lon="5.60111">
        <ele>1211</ele>
        <time>2010-06-06T10:53:43Z</time>
      </trkpt>
      <trkpt lat="45.11217" lon="5.60109">
        <ele>1212</ele>
        <time>2010-06-06T10:53:45Z</time>
      </trkpt>
      <trkpt lat="45.11217" lon="5.60107">
        <ele>1212</ele>
        <time>2010-06-06T10:53:46Z</time>
      </trkpt>
      <trkpt lat="45.11219" lon="5.60105">
        <ele>1212</ele>
        <time>2010-06-06T10:53:48Z</time>
      </trkpt>
      <trkpt lat="45.1122" lon="5.60104">
        <ele>1213</ele>
        <time>2010-06-06T10:53:49Z</time>
      </trkpt>
      <trkpt lat="45.11221" lon="5.60102">
        <ele>1213</ele>
        <time>2010-06-06T10:53:50Z</time>
      </trkpt>
      <trkpt lat="45.11222" lon="5.601">
        <ele>1213</ele>
        <time>2010-06-06T10:53:52Z</time>
      </trkpt>
      <trkpt lat="45.11223" lon="5.60098">
        <ele>1213</ele>
        <time>2010-06-06T10:53:54Z</time>
      </trkpt>
      <trkpt lat="45.11226" lon="5.60097">
        <ele>1213</ele>
        <time>2010-06-06T10:53:56Z</time>
      </trkpt>
      <trkpt lat="45.11227" lon="5.60096">
        <ele>1212</ele>
        <time>2010-06-06T10:53:57Z</time>
      </trkpt>
      <trkpt lat="45.1123" lon="5.60094">
        <ele>1211</ele>
        <time>2010-06-06T10:53:58Z</time>
      </trkpt>
      <trkpt lat="45.11232" lon="5.60093">
        <ele>1211</ele>
        <time>2010-06-06T10:53:59Z</time>
      </trkpt>
      <trkpt lat="45.11233" lon="5.60093">
        <ele>1211</ele>
        <time>2010-06-06T10:54:00Z</time>
      </trkpt>
      <trkpt lat="45.11235" lon="5.60093">
        <ele>1211</ele>
        <time>2010-06-06T10:54:02Z</time>
      </trkpt>
      <trkpt lat="45.11237" lon="5.60093">
        <ele>1211</ele>
        <time>2010-06-06T10:54:03Z</time>
      </trkpt>
      <trkpt lat="45.11238" lon="5.60092">
        <ele>1211</ele>
        <time>2010-06-06T10:54:05Z</time>
      </trkpt>
      <trkpt lat="45.1124" lon="5.60091">
        <ele>1211</ele>
        <time>2010-06-06T10:54:06Z</time>
      </trkpt>
      <trkpt lat="45.11241" lon="5.6009">
        <ele>1211</ele>
        <time>2010-06-06T10:54:07Z</time>
      </trkpt>
      <trkpt lat="45.11243" lon="5.60088">
        <ele>1211</ele>
        <time>2010-06-06T10:54:08Z</time>
      </trkpt>
      <trkpt lat="45.11244" lon="5.60087">
        <ele>1211</ele>
        <time>2010-06-06T10:54:09Z</time>
      </trkpt>
      <trkpt lat="45.11245" lon="5.60087">
        <ele>1211</ele>
        <time>2010-06-06T10:54:10Z</time>
      </trkpt>
      <trkpt lat="45.11248" lon="5.60084">
        <ele>1211</ele>
        <time>2010-06-06T10:54:11Z</time>
      </trkpt>
      <trkpt lat="45.11249" lon="5.60081">
        <ele>1211</ele>
        <time>2010-06-06T10:54:12Z</time>
      </trkpt>
      <trkpt lat="45.1125" lon="5.60081">
        <ele>1211</ele>
        <time>2010-06-06T10:54:13Z</time>
      </trkpt>
      <trkpt lat="45.11252" lon="5.60079">
        <ele>1211</ele>
        <time>2010-06-06T10:54:14Z</time>
      </trkpt>
      <trkpt lat="45.11253" lon="5.60078">
        <ele>1211</ele>
        <time>2010-06-06T10:54:15Z</time>
      </trkpt>
      <trkpt lat="45.11255" lon="5.60075">
        <ele>1211</ele>
        <time>2010-06-06T10:54:19Z</time>
      </trkpt>
      <trkpt lat="45.11255" lon="5.60073">
        <ele>1211</ele>
        <time>2010-06-06T10:54:20Z</time>
      </trkpt>
      <trkpt lat="45.11256" lon="5.60072">
        <ele>1211</ele>
        <time>2010-06-06T10:54:21Z</time>
      </trkpt>
      <trkpt lat="45.11257" lon="5.60071">
        <ele>1211</ele>
        <time>2010-06-06T10:54:22Z</time>
      </trkpt>
      <trkpt lat="45.11259" lon="5.60069">
        <ele>1211</ele>
        <time>2010-06-06T10:54:24Z</time>
      </trkpt>
      <trkpt lat="45.11259" lon="5.60068">
        <ele>1211</ele>
        <time>2010-06-06T10:54:25Z</time>
      </trkpt>
      <trkpt lat="45.11259" lon="5.60066">
        <ele>1211</ele>
        <time>2010-06-06T10:54:26Z</time>
      </trkpt>
      <trkpt lat="45.11261" lon="5.60064">
        <ele>1211</ele>
        <time>2010-06-06T10:54:28Z</time>
      </trkpt>
      <trkpt lat="45.11262" lon="5.60063">
        <ele>1211</ele>
        <time>2010-06-06T10:54:29Z</time>
      </trkpt>
      <trkpt lat="45.11264" lon="5.60062">
        <ele>1211</ele>
        <time>2010-06-06T10:54:30Z</time>
      </trkpt>
      <trkpt lat="45.11266" lon="5.60059">
        <ele>1211</ele>
        <time>2010-06-06T10:54:32Z</time>
      </trkpt>
      <trkpt lat="45.11268" lon="5.60057">
        <ele>1211</ele>
        <time>2010-06-06T10:54:34Z</time>
      </trkpt>
      <trkpt lat="45.1127" lon="5.60055">
        <ele>1211</ele>
        <time>2010-06-06T10:54:36Z</time>
      </trkpt>
      <trkpt lat="45.11272" lon="5.60053">
        <ele>1211</ele>
        <time>2010-06-06T10:54:37Z</time>
      </trkpt>
      <trkpt lat="45.11273" lon="5.60052">
        <ele>1211</ele>
        <time>2010-06-06T10:54:39Z</time>
      </trkpt>
      <trkpt lat="45.11274" lon="5.60051">
        <ele>1211</ele>
        <time>2010-06-06T10:54:40Z</time>
      </trkpt>
      <trkpt lat="45.11276" lon="5.60048">
        <ele>1211</ele>
        <time>2010-06-06T10:54:42Z</time>
      </trkpt>
      <trkpt lat="45.11277" lon="5.60046">
        <ele>1211</ele>
        <time>2010-06-06T10:54:44Z</time>
      </trkpt>
      <trkpt lat="45.11278" lon="5.60044">
        <ele>1211</ele>
        <time>2010-06-06T10:54:46Z</time>
      </trkpt>
      <trkpt lat="45.11279" lon="5.60041">
        <ele>1211</ele>
        <time>2010-06-06T10:54:48Z</time>
      </trkpt>
      <trkpt lat="45.11279" lon="5.60039">
        <ele>1211</ele>
        <time>2010-06-06T10:54:50Z</time>
      </trkpt>
      <trkpt lat="45.11279" lon="5.60036">
        <ele>1211</ele>
        <time>2010-06-06T10:54:52Z</time>
      </trkpt>
      <trkpt lat="45.1128" lon="5.60034">
        <ele>1211</ele>
        <time>2010-06-06T10:54:53Z</time>
      </trkpt>
      <trkpt lat="45.11281" lon="5.60034">
        <ele>1211</ele>
        <time>2010-06-06T10:54:54Z</time>
      </trkpt>
      <trkpt lat="45.11283" lon="5.60033">
        <ele>1211</ele>
        <time>2010-06-06T10:54:55Z</time>
      </trkpt>
      <trkpt lat="45.11282" lon="5.6003">
        <ele>1211</ele>
        <time>2010-06-06T10:54:57Z</time>
      </trkpt>
      <trkpt lat="45.11284" lon="5.6003">
        <ele>1211</ele>
        <time>2010-06-06T10:54:59Z</time>
      </trkpt>
      <trkpt lat="45.11286" lon="5.60029">
        <ele>1212</ele>
        <time>2010-06-06T10:55:01Z</time>
      </trkpt>
      <trkpt lat="45.11287" lon="5.60027">
        <ele>1213</ele>
        <time>2010-06-06T10:55:02Z</time>
      </trkpt>
      <trkpt lat="45.11288" lon="5.60025">
        <ele>1214</ele>
        <time>2010-06-06T10:55:03Z</time>
      </trkpt>
      <trkpt lat="45.11289" lon="5.60023">
        <ele>1215</ele>
        <time>2010-06-06T10:55:05Z</time>
      </trkpt>
      <trkpt lat="45.1129" lon="5.60021">
        <ele>1215</ele>
        <time>2010-06-06T10:55:06Z</time>
      </trkpt>
      <trkpt lat="45.11292" lon="5.60021">
        <ele>1217</ele>
        <time>2010-06-06T10:55:08Z</time>
      </trkpt>
      <trkpt lat="45.11293" lon="5.60019">
        <ele>1219</ele>
        <time>2010-06-06T10:55:10Z</time>
      </trkpt>
      <trkpt lat="45.11296" lon="5.60015">
        <ele>1221</ele>
        <time>2010-06-06T10:55:13Z</time>
      </trkpt>
      <trkpt lat="45.11298" lon="5.60013">
        <ele>1221</ele>
        <time>2010-06-06T10:55:15Z</time>
      </trkpt>
      <trkpt lat="45.11299" lon="5.60011">
        <ele>1222</ele>
        <time>2010-06-06T10:55:17Z</time>
      </trkpt>
      <trkpt lat="45.113" lon="5.60009">
        <ele>1223</ele>
        <time>2010-06-06T10:55:19Z</time>
      </trkpt>
      <trkpt lat="45.11302" lon="5.6001">
        <ele>1226</ele>
        <time>2010-06-06T10:55:22Z</time>
      </trkpt>
      <trkpt lat="45.11303" lon="5.60008">
        <ele>1228</ele>
        <time>2010-06-06T10:55:24Z</time>
      </trkpt>
      <trkpt lat="45.11305" lon="5.60006">
        <ele>1230</ele>
        <time>2010-06-06T10:55:26Z</time>
      </trkpt>
      <trkpt lat="45.11306" lon="5.60004">
        <ele>1231</ele>
        <time>2010-06-06T10:55:27Z</time>
      </trkpt>
      <trkpt lat="45.11308" lon="5.60004">
        <ele>1232</ele>
        <time>2010-06-06T10:55:28Z</time>
      </trkpt>
      <trkpt lat="45.11309" lon="5.60003">
        <ele>1233</ele>
        <time>2010-06-06T10:55:29Z</time>
      </trkpt>
      <trkpt lat="45.11311" lon="5.6">
        <ele>1235</ele>
        <time>2010-06-06T10:55:31Z</time>
      </trkpt>
      <trkpt lat="45.11312" lon="5.59998">
        <ele>1236</ele>
        <time>2010-06-06T10:55:32Z</time>
      </trkpt>
      <trkpt lat="45.11313" lon="5.59997">
        <ele>1240</ele>
        <time>2010-06-06T10:55:36Z</time>
      </trkpt>
      <trkpt lat="45.11314" lon="5.59995">
        <ele>1241</ele>
        <time>2010-06-06T10:55:37Z</time>
      </trkpt>
      <trkpt lat="45.11315" lon="5.59993">
        <ele>1242</ele>
        <time>2010-06-06T10:55:38Z</time>
      </trkpt>
      <trkpt lat="45.11317" lon="5.59991">
        <ele>1243</ele>
        <time>2010-06-06T10:55:40Z</time>
      </trkpt>
      <trkpt lat="45.11319" lon="5.59989">
        <ele>1244</ele>
        <time>2010-06-06T10:55:41Z</time>
      </trkpt>
      <trkpt lat="45.1132" lon="5.59989">
        <ele>1245</ele>
        <time>2010-06-06T10:55:43Z</time>
      </trkpt>
      <trkpt lat="45.11321" lon="5.59988">
        <ele>1246</ele>
        <time>2010-06-06T10:55:45Z</time>
      </trkpt>
      <trkpt lat="45.11323" lon="5.59986">
        <ele>1246</ele>
        <time>2010-06-06T10:55:47Z</time>
      </trkpt>
      <trkpt lat="45.11324" lon="5.59984">
        <ele>1246</ele>
        <time>2010-06-06T10:55:50Z</time>
      </trkpt>
      <trkpt lat="45.11325" lon="5.59983">
        <ele>1246</ele>
        <time>2010-06-06T10:55:51Z</time>
      </trkpt>
      <trkpt lat="45.11326" lon="5.59981">
        <ele>1246</ele>
        <time>2010-06-06T10:55:53Z</time>
      </trkpt>
      <trkpt lat="45.11327" lon="5.59978">
        <ele>1246</ele>
        <time>2010-06-06T10:55:55Z</time>
      </trkpt>
      <trkpt lat="45.11329" lon="5.59977">
        <ele>1246</ele>
        <time>2010-06-06T10:55:57Z</time>
      </trkpt>
      <trkpt lat="45.11331" lon="5.59975">
        <ele>1246</ele>
        <time>2010-06-06T10:55:59Z</time>
      </trkpt>
      <trkpt lat="45.11332" lon="5.59973">
        <ele>1246</ele>
        <time>2010-06-06T10:56:01Z</time>
      </trkpt>
      <trkpt lat="45.11333" lon="5.59972">
        <ele>1247</ele>
        <time>2010-06-06T10:56:04Z</time>
      </trkpt>
      <trkpt lat="45.11336" lon="5.59971">
        <ele>1247</ele>
        <time>2010-06-06T10:56:06Z</time>
      </trkpt>
      <trkpt lat="45.11337" lon="5.5997">
        <ele>1248</ele>
        <time>2010-06-06T10:56:07Z</time>
      </trkpt>
      <trkpt lat="45.11339" lon="5.59969">
        <ele>1248</ele>
        <time>2010-06-06T10:56:09Z</time>
      </trkpt>
      <trkpt lat="45.11341" lon="5.59968">
        <ele>1249</ele>
        <time>2010-06-06T10:56:11Z</time>
      </trkpt>
      <trkpt lat="45.11342" lon="5.59965">
        <ele>1249</ele>
        <time>2010-06-06T10:56:13Z</time>
      </trkpt>
      <trkpt lat="45.11344" lon="5.59964">
        <ele>1249</ele>
        <time>2010-06-06T10:56:14Z</time>
      </trkpt>
      <trkpt lat="45.11345" lon="5.59963">
        <ele>1249</ele>
        <time>2010-06-06T10:56:15Z</time>
      </trkpt>
      <trkpt lat="45.11346" lon="5.59961">
        <ele>1249</ele>
        <time>2010-06-06T10:56:16Z</time>
      </trkpt>
      <trkpt lat="45.11348" lon="5.5996">
        <ele>1249</ele>
        <time>2010-06-06T10:56:17Z</time>
      </trkpt>
      <trkpt lat="45.11349" lon="5.5996">
        <ele>1249</ele>
        <time>2010-06-06T10:56:18Z</time>
      </trkpt>
      <trkpt lat="45.1135" lon="5.59959">
        <ele>1249</ele>
        <time>2010-06-06T10:56:19Z</time>
      </trkpt>
      <trkpt lat="45.11352" lon="5.59957">
        <ele>1249</ele>
        <time>2010-06-06T10:56:21Z</time>
      </trkpt>
      <trkpt lat="45.11354" lon="5.59955">
        <ele>1249</ele>
        <time>2010-06-06T10:56:23Z</time>
      </trkpt>
      <trkpt lat="45.11356" lon="5.59954">
        <ele>1249</ele>
        <time>2010-06-06T10:56:25Z</time>
      </trkpt>
      <trkpt lat="45.11357" lon="5.59953">
        <ele>1249</ele>
        <time>2010-06-06T10:56:27Z</time>
      </trkpt>
      <trkpt lat="45.11359" lon="5.59951">
        <ele>1249</ele>
        <time>2010-06-06T10:56:30Z</time>
      </trkpt>
      <trkpt lat="45.1136" lon="5.59949">
        <ele>1249</ele>
        <time>2010-06-06T10:56:32Z</time>
      </trkpt>
      <trkpt lat="45.11362" lon="5.59947">
        <ele>1249</ele>
        <time>2010-06-06T10:56:33Z</time>
      </trkpt>
      <trkpt lat="45.11363" lon="5.59946">
        <ele>1249</ele>
        <time>2010-06-06T10:56:34Z</time>
      </trkpt>
      <trkpt lat="45.11365" lon="5.59946">
        <ele>1249</ele>
        <time>2010-06-06T10:56:35Z</time>
      </trkpt>
      <trkpt lat="45.11366" lon="5.59944">
        <ele>1249</ele>
        <time>2010-06-06T10:56:37Z</time>
      </trkpt>
      <trkpt lat="45.11368" lon="5.59942">
        <ele>1250</ele>
        <time>2010-06-06T10:56:39Z</time>
      </trkpt>
      <trkpt lat="45.1137" lon="5.5994">
        <ele>1251</ele>
        <time>2010-06-06T10:56:41Z</time>
      </trkpt>
      <trkpt lat="45.11373" lon="5.59938">
        <ele>1253</ele>
        <time>2010-06-06T10:56:43Z</time>
      </trkpt>
      <trkpt lat="45.11374" lon="5.59937">
        <ele>1254</ele>
        <time>2010-06-06T10:56:44Z</time>
      </trkpt>
      <trkpt lat="45.11376" lon="5.59935">
        <ele>1255</ele>
        <time>2010-06-06T10:56:45Z</time>
      </trkpt>
      <trkpt lat="45.11378" lon="5.59934">
        <ele>1255</ele>
        <time>2010-06-06T10:56:46Z</time>
      </trkpt>
      <trkpt lat="45.11379" lon="5.59934">
        <ele>1256</ele>
        <time>2010-06-06T10:56:47Z</time>
      </trkpt>
      <trkpt lat="45.11381" lon="5.59933">
        <ele>1257</ele>
        <time>2010-06-06T10:56:48Z</time>
      </trkpt>
      <trkpt lat="45.11383" lon="5.59933">
        <ele>1257</ele>
        <time>2010-06-06T10:56:49Z</time>
      </trkpt>
      <trkpt lat="45.11385" lon="5.59932">
        <ele>1257</ele>
        <time>2010-06-06T10:56:50Z</time>
      </trkpt>
      <trkpt lat="45.11387" lon="5.59931">
        <ele>1257</ele>
        <time>2010-06-06T10:56:51Z</time>
      </trkpt>
      <trkpt lat="45.11389" lon="5.5993">
        <ele>1257</ele>
        <time>2010-06-06T10:56:52Z</time>
      </trkpt>
      <trkpt lat="45.11392" lon="5.59929">
        <ele>1257</ele>
        <time>2010-06-06T10:56:53Z</time>
      </trkpt>
      <trkpt lat="45.11394" lon="5.59927">
        <ele>1257</ele>
        <time>2010-06-06T10:56:54Z</time>
      </trkpt>
      <trkpt lat="45.11396" lon="5.59926">
        <ele>1258</ele>
        <time>2010-06-06T10:56:55Z</time>
      </trkpt>
      <trkpt lat="45.11398" lon="5.59924">
        <ele>1258</ele>
        <time>2010-06-06T10:56:56Z</time>
      </trkpt>
      <trkpt lat="45.114" lon="5.59921">
        <ele>1258</ele>
        <time>2010-06-06T10:56:57Z</time>
      </trkpt>
      <trkpt lat="45.11402" lon="5.5992">
        <ele>1258</ele>
        <time>2010-06-06T10:56:58Z</time>
      </trkpt>
      <trkpt lat="45.11405" lon="5.59918">
        <ele>1258</ele>
        <time>2010-06-06T10:56:59Z</time>
      </trkpt>
      <trkpt lat="45.11407" lon="5.59916">
        <ele>1258</ele>
        <time>2010-06-06T10:57:00Z</time>
      </trkpt>
      <trkpt lat="45.1141" lon="5.59914">
        <ele>1258</ele>
        <time>2010-06-06T10:57:01Z</time>
      </trkpt>
      <trkpt lat="45.11412" lon="5.59912">
        <ele>1258</ele>
        <time>2010-06-06T10:57:02Z</time>
      </trkpt>
      <trkpt lat="45.11415" lon="5.5991">
        <ele>1259</ele>
        <time>2010-06-06T10:57:03Z</time>
      </trkpt>
      <trkpt lat="45.11418" lon="5.59908">
        <ele>1259</ele>
        <time>2010-06-06T10:57:04Z</time>
      </trkpt>
      <trkpt lat="45.1142" lon="5.59905">
        <ele>1259</ele>
        <time>2010-06-06T10:57:05Z</time>
      </trkpt>
      <trkpt lat="45.11423" lon="5.59904">
        <ele>1259</ele>
        <time>2010-06-06T10:57:06Z</time>
      </trkpt>
      <trkpt lat="45.11426" lon="5.59902">
        <ele>1259</ele>
        <time>2010-06-06T10:57:07Z</time>
      </trkpt>
      <trkpt lat="45.11429" lon="5.59901">
        <ele>1259</ele>
        <time>2010-06-06T10:57:08Z</time>
      </trkpt>
      <trkpt lat="45.11431" lon="5.59899">
        <ele>1259</ele>
        <time>2010-06-06T10:57:09Z</time>
      </trkpt>
      <trkpt lat="45.11433" lon="5.59897">
        <ele>1259</ele>
        <time>2010-06-06T10:57:10Z</time>
      </trkpt>
      <trkpt lat="45.11436" lon="5.59896">
        <ele>1259</ele>
        <time>2010-06-06T10:57:11Z</time>
      </trkpt>
      <trkpt lat="45.11439" lon="5.59895">
        <ele>1259</ele>
        <time>2010-06-06T10:57:12Z</time>
      </trkpt>
      <trkpt lat="45.11442" lon="5.59893">
        <ele>1259</ele>
        <time>2010-06-06T10:57:13Z</time>
      </trkpt>
      <trkpt lat="45.11445" lon="5.59891">
        <ele>1259</ele>
        <time>2010-06-06T10:57:14Z</time>
      </trkpt>
      <trkpt lat="45.11447" lon="5.5989">
        <ele>1259</ele>
        <time>2010-06-06T10:57:15Z</time>
      </trkpt>
      <trkpt lat="45.1145" lon="5.59889">
        <ele>1259</ele>
        <time>2010-06-06T10:57:16Z</time>
      </trkpt>
      <trkpt lat="45.11454" lon="5.59889">
        <ele>1259</ele>
        <time>2010-06-06T10:57:17Z</time>
      </trkpt>
      <trkpt lat="45.11457" lon="5.59888">
        <ele>1259</ele>
        <time>2010-06-06T10:57:18Z</time>
      </trkpt>
      <trkpt lat="45.11459" lon="5.59889">
        <ele>1259</ele>
        <time>2010-06-06T10:57:19Z</time>
      </trkpt>
      <trkpt lat="45.11462" lon="5.59889">
        <ele>1259</ele>
        <time>2010-06-06T10:57:20Z</time>
      </trkpt>
      <trkpt lat="45.11464" lon="5.59888">
        <ele>1259</ele>
        <time>2010-06-06T10:57:21Z</time>
      </trkpt>
      <trkpt lat="45.11467" lon="5.59887">
        <ele>1259</ele>
        <time>2010-06-06T10:57:22Z</time>
      </trkpt>
      <trkpt lat="45.1147" lon="5.59887">
        <ele>1259</ele>
        <time>2010-06-06T10:57:23Z</time>
      </trkpt>
      <trkpt lat="45.11473" lon="5.59887">
        <ele>1258</ele>
        <time>2010-06-06T10:57:24Z</time>
      </trkpt>
      <trkpt lat="45.11476" lon="5.59887">
        <ele>1258</ele>
        <time>2010-06-06T10:57:25Z</time>
      </trkpt>
      <trkpt lat="45.1148" lon="5.59886">
        <ele>1258</ele>
        <time>2010-06-06T10:57:26Z</time>
      </trkpt>
      <trkpt lat="45.11483" lon="5.59886">
        <ele>1258</ele>
        <time>2010-06-06T10:57:27Z</time>
      </trkpt>
      <trkpt lat="45.11486" lon="5.59885">
        <ele>1258</ele>
        <time>2010-06-06T10:57:28Z</time>
      </trkpt>
      <trkpt lat="45.11488" lon="5.59884">
        <ele>1258</ele>
        <time>2010-06-06T10:57:29Z</time>
      </trkpt>
      <trkpt lat="45.11491" lon="5.59883">
        <ele>1258</ele>
        <time>2010-06-06T10:57:30Z</time>
      </trkpt>
      <trkpt lat="45.11493" lon="5.59882">
        <ele>1258</ele>
        <time>2010-06-06T10:57:31Z</time>
      </trkpt>
      <trkpt lat="45.11496" lon="5.59881">
        <ele>1258</ele>
        <time>2010-06-06T10:57:32Z</time>
      </trkpt>
      <trkpt lat="45.11498" lon="5.5988">
        <ele>1258</ele>
        <time>2010-06-06T10:57:33Z</time>
      </trkpt>
      <trkpt lat="45.11501" lon="5.59879">
        <ele>1258</ele>
        <time>2010-06-06T10:57:34Z</time>
      </trkpt>
      <trkpt lat="45.11503" lon="5.59878">
        <ele>1258</ele>
        <time>2010-06-06T10:57:35Z</time>
      </trkpt>
      <trkpt lat="45.11506" lon="5.59876">
        <ele>1258</ele>
        <time>2010-06-06T10:57:36Z</time>
      </trkpt>
      <trkpt lat="45.11509" lon="5.59876">
        <ele>1258</ele>
        <time>2010-06-06T10:57:37Z</time>
      </trkpt>
      <trkpt lat="45.11511" lon="5.59875">
        <ele>1258</ele>
        <time>2010-06-06T10:57:38Z</time>
      </trkpt>
      <trkpt lat="45.11513" lon="5.59874">
        <ele>1258</ele>
        <time>2010-06-06T10:57:39Z</time>
      </trkpt>
      <trkpt lat="45.11516" lon="5.59872">
        <ele>1258</ele>
        <time>2010-06-06T10:57:40Z</time>
      </trkpt>
      <trkpt lat="45.11519" lon="5.59872">
        <ele>1258</ele>
        <time>2010-06-06T10:57:41Z</time>
      </trkpt>
      <trkpt lat="45.11522" lon="5.59872">
        <ele>1258</ele>
        <time>2010-06-06T10:57:42Z</time>
      </trkpt>
      <trkpt lat="45.11525" lon="5.59871">
        <ele>1258</ele>
        <time>2010-06-06T10:57:43Z</time>
      </trkpt>
      <trkpt lat="45.11528" lon="5.59871">
        <ele>1258</ele>
        <time>2010-06-06T10:57:44Z</time>
      </trkpt>
      <trkpt lat="45.1153" lon="5.59871">
        <ele>1258</ele>
        <time>2010-06-06T10:57:45Z</time>
      </trkpt>
      <trkpt lat="45.11533" lon="5.59871">
        <ele>1258</ele>
        <time>2010-06-06T10:57:46Z</time>
      </trkpt>
      <trkpt lat="45.11536" lon="5.59871">
        <ele>1258</ele>
        <time>2010-06-06T10:57:47Z</time>
      </trkpt>
      <trkpt lat="45.11539" lon="5.59871">
        <ele>1258</ele>
        <time>2010-06-06T10:57:48Z</time>
      </trkpt>
      <trkpt lat="45.11542" lon="5.59871">
        <ele>1258</ele>
        <time>2010-06-06T10:57:49Z</time>
      </trkpt>
      <trkpt lat="45.11545" lon="5.59871">
        <ele>1258</ele>
        <time>2010-06-06T10:57:50Z</time>
      </trkpt>
      <trkpt lat="45.11547" lon="5.5987">
        <ele>1258</ele>
        <time>2010-06-06T10:57:51Z</time>
      </trkpt>
      <trkpt lat="45.1155" lon="5.5987">
        <ele>1258</ele>
        <time>2010-06-06T10:57:52Z</time>
      </trkpt>
      <trkpt lat="45.11553" lon="5.5987">
        <ele>1258</ele>
        <time>2010-06-06T10:57:53Z</time>
      </trkpt>
      <trkpt lat="45.11556" lon="5.59869">
        <ele>1258</ele>
        <time>2010-06-06T10:57:54Z</time>
      </trkpt>
      <trkpt lat="45.11558" lon="5.59869">
        <ele>1258</ele>
        <time>2010-06-06T10:57:55Z</time>
      </trkpt>
      <trkpt lat="45.11561" lon="5.59869">
        <ele>1258</ele>
        <time>2010-06-06T10:57:56Z</time>
      </trkpt>
      <trkpt lat="45.11564" lon="5.59868">
        <ele>1258</ele>
        <time>2010-06-06T10:57:57Z</time>
      </trkpt>
      <trkpt lat="45.11566" lon="5.59867">
        <ele>1258</ele>
        <time>2010-06-06T10:57:58Z</time>
      </trkpt>
      <trkpt lat="45.11568" lon="5.59867">
        <ele>1258</ele>
        <time>2010-06-06T10:57:59Z</time>
      </trkpt>
      <trkpt lat="45.11571" lon="5.59867">
        <ele>1258</ele>
        <time>2010-06-06T10:58:00Z</time>
      </trkpt>
      <trkpt lat="45.11572" lon="5.59866">
        <ele>1258</ele>
        <time>2010-06-06T10:58:01Z</time>
      </trkpt>
      <trkpt lat="45.11574" lon="5.59865">
        <ele>1258</ele>
        <time>2010-06-06T10:58:02Z</time>
      </trkpt>
      <trkpt lat="45.11575" lon="5.59865">
        <ele>1258</ele>
        <time>2010-06-06T10:58:03Z</time>
      </trkpt>
      <trkpt lat="45.11577" lon="5.59864">
        <ele>1258</ele>
        <time>2010-06-06T10:58:04Z</time>
      </trkpt>
      <trkpt lat="45.11579" lon="5.59863">
        <ele>1258</ele>
        <time>2010-06-06T10:58:06Z</time>
      </trkpt>
      <trkpt lat="45.1158" lon="5.59863">
        <ele>1258</ele>
        <time>2010-06-06T10:58:07Z</time>
      </trkpt>
      <trkpt lat="45.11582" lon="5.59862">
        <ele>1258</ele>
        <time>2010-06-06T10:58:09Z</time>
      </trkpt>
      <trkpt lat="45.11584" lon="5.59861">
        <ele>1258</ele>
        <time>2010-06-06T10:58:10Z</time>
      </trkpt>
      <trkpt lat="45.11586" lon="5.5986">
        <ele>1259</ele>
        <time>2010-06-06T10:58:12Z</time>
      </trkpt>
      <trkpt lat="45.11587" lon="5.59859">
        <ele>1259</ele>
        <time>2010-06-06T10:58:13Z</time>
      </trkpt>
      <trkpt lat="45.11589" lon="5.59858">
        <ele>1259</ele>
        <time>2010-06-06T10:58:14Z</time>
      </trkpt>
      <trkpt lat="45.11591" lon="5.59857">
        <ele>1259</ele>
        <time>2010-06-06T10:58:16Z</time>
      </trkpt>
      <trkpt lat="45.11592" lon="5.59856">
        <ele>1259</ele>
        <time>2010-06-06T10:58:17Z</time>
      </trkpt>
      <trkpt lat="45.11594" lon="5.59856">
        <ele>1259</ele>
        <time>2010-06-06T10:58:18Z</time>
      </trkpt>
      <trkpt lat="45.11595" lon="5.59856">
        <ele>1260</ele>
        <time>2010-06-06T10:58:19Z</time>
      </trkpt>
      <trkpt lat="45.11597" lon="5.59855">
        <ele>1260</ele>
        <time>2010-06-06T10:58:20Z</time>
      </trkpt>
      <trkpt lat="45.11598" lon="5.59854">
        <ele>1260</ele>
        <time>2010-06-06T10:58:21Z</time>
      </trkpt>
      <trkpt lat="45.116" lon="5.59854">
        <ele>1260</ele>
        <time>2010-06-06T10:58:22Z</time>
      </trkpt>
      <trkpt lat="45.11601" lon="5.59853">
        <ele>1260</ele>
        <time>2010-06-06T10:58:23Z</time>
      </trkpt>
      <trkpt lat="45.11603" lon="5.59852">
        <ele>1260</ele>
        <time>2010-06-06T10:58:25Z</time>
      </trkpt>
      <trkpt lat="45.11605" lon="5.59851">
        <ele>1260</ele>
        <time>2010-06-06T10:58:26Z</time>
      </trkpt>
      <trkpt lat="45.11606" lon="5.59851">
        <ele>1260</ele>
        <time>2010-06-06T10:58:27Z</time>
      </trkpt>
      <trkpt lat="45.11608" lon="5.5985">
        <ele>1260</ele>
        <time>2010-06-06T10:58:28Z</time>
      </trkpt>
      <trkpt lat="45.1161" lon="5.59848">
        <ele>1261</ele>
        <time>2010-06-06T10:58:30Z</time>
      </trkpt>
      <trkpt lat="45.11611" lon="5.59848">
        <ele>1261</ele>
        <time>2010-06-06T10:58:31Z</time>
      </trkpt>
      <trkpt lat="45.11613" lon="5.59846">
        <ele>1261</ele>
        <time>2010-06-06T10:58:33Z</time>
      </trkpt>
      <trkpt lat="45.11614" lon="5.59845">
        <ele>1261</ele>
        <time>2010-06-06T10:58:34Z</time>
      </trkpt>
      <trkpt lat="45.11615" lon="5.59845">
        <ele>1261</ele>
        <time>2010-06-06T10:58:35Z</time>
      </trkpt>
      <trkpt lat="45.11617" lon="5.59844">
        <ele>1261</ele>
        <time>2010-06-06T10:58:36Z</time>
      </trkpt>
      <trkpt lat="45.11618" lon="5.59844">
        <ele>1262</ele>
        <time>2010-06-06T10:58:37Z</time>
      </trkpt>
      <trkpt lat="45.1162" lon="5.59843">
        <ele>1262</ele>
        <time>2010-06-06T10:58:38Z</time>
      </trkpt>
      <trkpt lat="45.11621" lon="5.59842">
        <ele>1262</ele>
        <time>2010-06-06T10:58:39Z</time>
      </trkpt>
      <trkpt lat="45.11622" lon="5.59842">
        <ele>1262</ele>
        <time>2010-06-06T10:58:40Z</time>
      </trkpt>
      <trkpt lat="45.11624" lon="5.59841">
        <ele>1263</ele>
        <time>2010-06-06T10:58:41Z</time>
      </trkpt>
      <trkpt lat="45.11625" lon="5.59841">
        <ele>1263</ele>
        <time>2010-06-06T10:58:42Z</time>
      </trkpt>
      <trkpt lat="45.11627" lon="5.59841">
        <ele>1263</ele>
        <time>2010-06-06T10:58:43Z</time>
      </trkpt>
      <trkpt lat="45.11629" lon="5.59841">
        <ele>1263</ele>
        <time>2010-06-06T10:58:44Z</time>
      </trkpt>
      <trkpt lat="45.1163" lon="5.5984">
        <ele>1263</ele>
        <time>2010-06-06T10:58:45Z</time>
      </trkpt>
      <trkpt lat="45.11631" lon="5.5984">
        <ele>1263</ele>
        <time>2010-06-06T10:58:46Z</time>
      </trkpt>
      <trkpt lat="45.11633" lon="5.59839">
        <ele>1263</ele>
        <time>2010-06-06T10:58:47Z</time>
      </trkpt>
      <trkpt lat="45.11634" lon="5.59838">
        <ele>1263</ele>
        <time>2010-06-06T10:58:48Z</time>
      </trkpt>
      <trkpt lat="45.11635" lon="5.59837">
        <ele>1263</ele>
        <time>2010-06-06T10:58:49Z</time>
      </trkpt>
      <trkpt lat="45.11636" lon="5.59836">
        <ele>1263</ele>
        <time>2010-06-06T10:58:50Z</time>
      </trkpt>
      <trkpt lat="45.11637" lon="5.59836">
        <ele>1263</ele>
        <time>2010-06-06T10:58:51Z</time>
      </trkpt>
      <trkpt lat="45.11639" lon="5.59835">
        <ele>1264</ele>
        <time>2010-06-06T10:58:52Z</time>
      </trkpt>
      <trkpt lat="45.1164" lon="5.59835">
        <ele>1264</ele>
        <time>2010-06-06T10:58:53Z</time>
      </trkpt>
      <trkpt lat="45.11641" lon="5.59834">
        <ele>1264</ele>
        <time>2010-06-06T10:58:54Z</time>
      </trkpt>
      <trkpt lat="45.11643" lon="5.59834">
        <ele>1264</ele>
        <time>2010-06-06T10:58:55Z</time>
      </trkpt>
      <trkpt lat="45.11644" lon="5.59833">
        <ele>1264</ele>
        <time>2010-06-06T10:58:56Z</time>
      </trkpt>
      <trkpt lat="45.11646" lon="5.59833">
        <ele>1265</ele>
        <time>2010-06-06T10:58:57Z</time>
      </trkpt>
      <trkpt lat="45.11648" lon="5.59832">
        <ele>1265</ele>
        <time>2010-06-06T10:58:59Z</time>
      </trkpt>
      <trkpt lat="45.11649" lon="5.59831">
        <ele>1265</ele>
        <time>2010-06-06T10:59:00Z</time>
      </trkpt>
      <trkpt lat="45.11651" lon="5.59831">
        <ele>1265</ele>
        <time>2010-06-06T10:59:01Z</time>
      </trkpt>
      <trkpt lat="45.11652" lon="5.5983">
        <ele>1265</ele>
        <time>2010-06-06T10:59:02Z</time>
      </trkpt>
      <trkpt lat="45.11653" lon="5.59829">
        <ele>1266</ele>
        <time>2010-06-06T10:59:03Z</time>
      </trkpt>
      <trkpt lat="45.11655" lon="5.59829">
        <ele>1266</ele>
        <time>2010-06-06T10:59:04Z</time>
      </trkpt>
      <trkpt lat="45.11656" lon="5.59829">
        <ele>1266</ele>
        <time>2010-06-06T10:59:05Z</time>
      </trkpt>
      <trkpt lat="45.11657" lon="5.59828">
        <ele>1266</ele>
        <time>2010-06-06T10:59:06Z</time>
      </trkpt>
      <trkpt lat="45.11659" lon="5.59828">
        <ele>1267</ele>
        <time>2010-06-06T10:59:07Z</time>
      </trkpt>
      <trkpt lat="45.11661" lon="5.59827">
        <ele>1267</ele>
        <time>2010-06-06T10:59:08Z</time>
      </trkpt>
      <trkpt lat="45.11662" lon="5.59827">
        <ele>1267</ele>
        <time>2010-06-06T10:59:09Z</time>
      </trkpt>
      <trkpt lat="45.11664" lon="5.59827">
        <ele>1268</ele>
        <time>2010-06-06T10:59:10Z</time>
      </trkpt>
      <trkpt lat="45.11665" lon="5.59827">
        <ele>1268</ele>
        <time>2010-06-06T10:59:11Z</time>
      </trkpt>
      <trkpt lat="45.11667" lon="5.59827">
        <ele>1269</ele>
        <time>2010-06-06T10:59:13Z</time>
      </trkpt>
      <trkpt lat="45.1167" lon="5.59827">
        <ele>1270</ele>
        <time>2010-06-06T10:59:15Z</time>
      </trkpt>
      <trkpt lat="45.11672" lon="5.59826">
        <ele>1271</ele>
        <time>2010-06-06T10:59:16Z</time>
      </trkpt>
      <trkpt lat="45.11674" lon="5.59826">
        <ele>1272</ele>
        <time>2010-06-06T10:59:17Z</time>
      </trkpt>
      <trkpt lat="45.11675" lon="5.59825">
        <ele>1273</ele>
        <time>2010-06-06T10:59:18Z</time>
      </trkpt>
      <trkpt lat="45.11678" lon="5.59825">
        <ele>1273</ele>
        <time>2010-06-06T10:59:19Z</time>
      </trkpt>
      <trkpt lat="45.11681" lon="5.59826">
        <ele>1274</ele>
        <time>2010-06-06T10:59:20Z</time>
      </trkpt>
      <trkpt lat="45.11684" lon="5.59827">
        <ele>1275</ele>
        <time>2010-06-06T10:59:21Z</time>
      </trkpt>
      <trkpt lat="45.11687" lon="5.59828">
        <ele>1276</ele>
        <time>2010-06-06T10:59:22Z</time>
      </trkpt>
      <trkpt lat="45.1169" lon="5.59828">
        <ele>1276</ele>
        <time>2010-06-06T10:59:23Z</time>
      </trkpt>
      <trkpt lat="45.11693" lon="5.59829">
        <ele>1276</ele>
        <time>2010-06-06T10:59:24Z</time>
      </trkpt>
      <trkpt lat="45.11695" lon="5.5983">
        <ele>1277</ele>
        <time>2010-06-06T10:59:25Z</time>
      </trkpt>
      <trkpt lat="45.11698" lon="5.59831">
        <ele>1277</ele>
        <time>2010-06-06T10:59:26Z</time>
      </trkpt>
      <trkpt lat="45.11701" lon="5.59832">
        <ele>1277</ele>
        <time>2010-06-06T10:59:27Z</time>
      </trkpt>
      <trkpt lat="45.11704" lon="5.59833">
        <ele>1277</ele>
        <time>2010-06-06T10:59:28Z</time>
      </trkpt>
      <trkpt lat="45.11706" lon="5.59834">
        <ele>1277</ele>
        <time>2010-06-06T10:59:29Z</time>
      </trkpt>
      <trkpt lat="45.11709" lon="5.59835">
        <ele>1277</ele>
        <time>2010-06-06T10:59:30Z</time>
      </trkpt>
      <trkpt lat="45.11711" lon="5.59836">
        <ele>1277</ele>
        <time>2010-06-06T10:59:31Z</time>
      </trkpt>
      <trkpt lat="45.11714" lon="5.59838">
        <ele>1277</ele>
        <time>2010-06-06T10:59:32Z</time>
      </trkpt>
      <trkpt lat="45.11717" lon="5.5984">
        <ele>1277</ele>
        <time>2010-06-06T10:59:33Z</time>
      </trkpt>
      <trkpt lat="45.11719" lon="5.59842">
        <ele>1277</ele>
        <time>2010-06-06T10:59:34Z</time>
      </trkpt>
      <trkpt lat="45.11722" lon="5.59843">
        <ele>1277</ele>
        <time>2010-06-06T10:59:35Z</time>
      </trkpt>
      <trkpt lat="45.11724" lon="5.59845">
        <ele>1277</ele>
        <time>2010-06-06T10:59:36Z</time>
      </trkpt>
      <trkpt lat="45.11727" lon="5.59846">
        <ele>1277</ele>
        <time>2010-06-06T10:59:37Z</time>
      </trkpt>
      <trkpt lat="45.1173" lon="5.59848">
        <ele>1277</ele>
        <time>2010-06-06T10:59:38Z</time>
      </trkpt>
      <trkpt lat="45.11733" lon="5.59849">
        <ele>1277</ele>
        <time>2010-06-06T10:59:39Z</time>
      </trkpt>
      <trkpt lat="45.11736" lon="5.5985">
        <ele>1277</ele>
        <time>2010-06-06T10:59:40Z</time>
      </trkpt>
      <trkpt lat="45.11738" lon="5.59851">
        <ele>1277</ele>
        <time>2010-06-06T10:59:41Z</time>
      </trkpt>
      <trkpt lat="45.11741" lon="5.59852">
        <ele>1277</ele>
        <time>2010-06-06T10:59:42Z</time>
      </trkpt>
      <trkpt lat="45.11744" lon="5.59852">
        <ele>1277</ele>
        <time>2010-06-06T10:59:43Z</time>
      </trkpt>
      <trkpt lat="45.11747" lon="5.59852">
        <ele>1277</ele>
        <time>2010-06-06T10:59:44Z</time>
      </trkpt>
      <trkpt lat="45.1175" lon="5.59853">
        <ele>1277</ele>
        <time>2010-06-06T10:59:45Z</time>
      </trkpt>
      <trkpt lat="45.11753" lon="5.59854">
        <ele>1277</ele>
        <time>2010-06-06T10:59:46Z</time>
      </trkpt>
      <trkpt lat="45.11756" lon="5.59855">
        <ele>1277</ele>
        <time>2010-06-06T10:59:47Z</time>
      </trkpt>
      <trkpt lat="45.1176" lon="5.59856">
        <ele>1277</ele>
        <time>2010-06-06T10:59:48Z</time>
      </trkpt>
      <trkpt lat="45.11764" lon="5.59857">
        <ele>1277</ele>
        <time>2010-06-06T10:59:49Z</time>
      </trkpt>
      <trkpt lat="45.11767" lon="5.59858">
        <ele>1277</ele>
        <time>2010-06-06T10:59:50Z</time>
      </trkpt>
      <trkpt lat="45.1177" lon="5.59859">
        <ele>1277</ele>
        <time>2010-06-06T10:59:51Z</time>
      </trkpt>
      <trkpt lat="45.11773" lon="5.59859">
        <ele>1277</ele>
        <time>2010-06-06T10:59:52Z</time>
      </trkpt>
      <trkpt lat="45.11776" lon="5.59861">
        <ele>1277</ele>
        <time>2010-06-06T10:59:53Z</time>
      </trkpt>
      <trkpt lat="45.1178" lon="5.59863">
        <ele>1277</ele>
        <time>2010-06-06T10:59:54Z</time>
      </trkpt>
      <trkpt lat="45.11784" lon="5.59863">
        <ele>1276</ele>
        <time>2010-06-06T10:59:55Z</time>
      </trkpt>
      <trkpt lat="45.11788" lon="5.59864">
        <ele>1276</ele>
        <time>2010-06-06T10:59:56Z</time>
      </trkpt>
      <trkpt lat="45.11791" lon="5.59864">
        <ele>1275</ele>
        <time>2010-06-06T10:59:57Z</time>
      </trkpt>
      <trkpt lat="45.11794" lon="5.59864">
        <ele>1274</ele>
        <time>2010-06-06T10:59:58Z</time>
      </trkpt>
      <trkpt lat="45.11797" lon="5.59865">
        <ele>1273</ele>
        <time>2010-06-06T10:59:59Z</time>
      </trkpt>
      <trkpt lat="45.118" lon="5.59867">
        <ele>1272</ele>
        <time>2010-06-06T11:00:00Z</time>
      </trkpt>
      <trkpt lat="45.11803" lon="5.59869">
        <ele>1272</ele>
        <time>2010-06-06T11:00:01Z</time>
      </trkpt>
      <trkpt lat="45.11805" lon="5.59871">
        <ele>1272</ele>
        <time>2010-06-06T11:00:02Z</time>
      </trkpt>
      <trkpt lat="45.11808" lon="5.59872">
        <ele>1272</ele>
        <time>2010-06-06T11:00:03Z</time>
      </trkpt>
      <trkpt lat="45.11812" lon="5.59873">
        <ele>1272</ele>
        <time>2010-06-06T11:00:04Z</time>
      </trkpt>
      <trkpt lat="45.11816" lon="5.59874">
        <ele>1272</ele>
        <time>2010-06-06T11:00:05Z</time>
      </trkpt>
      <trkpt lat="45.11819" lon="5.59876">
        <ele>1272</ele>
        <time>2010-06-06T11:00:06Z</time>
      </trkpt>
      <trkpt lat="45.11822" lon="5.59877">
        <ele>1272</ele>
        <time>2010-06-06T11:00:07Z</time>
      </trkpt>
      <trkpt lat="45.11825" lon="5.59878">
        <ele>1272</ele>
        <time>2010-06-06T11:00:08Z</time>
      </trkpt>
      <trkpt lat="45.11828" lon="5.59879">
        <ele>1272</ele>
        <time>2010-06-06T11:00:09Z</time>
      </trkpt>
      <trkpt lat="45.1183" lon="5.59879">
        <ele>1272</ele>
        <time>2010-06-06T11:00:10Z</time>
      </trkpt>
      <trkpt lat="45.11832" lon="5.5988">
        <ele>1272</ele>
        <time>2010-06-06T11:00:11Z</time>
      </trkpt>
      <trkpt lat="45.11835" lon="5.5988">
        <ele>1272</ele>
        <time>2010-06-06T11:00:12Z</time>
      </trkpt>
      <trkpt lat="45.11839" lon="5.5988">
        <ele>1272</ele>
        <time>2010-06-06T11:00:13Z</time>
      </trkpt>
      <trkpt lat="45.11842" lon="5.59881">
        <ele>1272</ele>
        <time>2010-06-06T11:00:14Z</time>
      </trkpt>
      <trkpt lat="45.11845" lon="5.59881">
        <ele>1272</ele>
        <time>2010-06-06T11:00:15Z</time>
      </trkpt>
      <trkpt lat="45.11848" lon="5.59882">
        <ele>1272</ele>
        <time>2010-06-06T11:00:16Z</time>
      </trkpt>
      <trkpt lat="45.11851" lon="5.59883">
        <ele>1272</ele>
        <time>2010-06-06T11:00:17Z</time>
      </trkpt>
      <trkpt lat="45.11854" lon="5.59884">
        <ele>1273</ele>
        <time>2010-06-06T11:00:18Z</time>
      </trkpt>
      <trkpt lat="45.11856" lon="5.59885">
        <ele>1273</ele>
        <time>2010-06-06T11:00:19Z</time>
      </trkpt>
      <trkpt lat="45.11859" lon="5.59885">
        <ele>1273</ele>
        <time>2010-06-06T11:00:20Z</time>
      </trkpt>
      <trkpt lat="45.11862" lon="5.59886">
        <ele>1273</ele>
        <time>2010-06-06T11:00:21Z</time>
      </trkpt>
      <trkpt lat="45.11865" lon="5.59887">
        <ele>1273</ele>
        <time>2010-06-06T11:00:22Z</time>
      </trkpt>
      <trkpt lat="45.11868" lon="5.59889">
        <ele>1273</ele>
        <time>2010-06-06T11:00:23Z</time>
      </trkpt>
      <trkpt lat="45.11871" lon="5.59891">
        <ele>1273</ele>
        <time>2010-06-06T11:00:24Z</time>
      </trkpt>
      <trkpt lat="45.11873" lon="5.59893">
        <ele>1273</ele>
        <time>2010-06-06T11:00:25Z</time>
      </trkpt>
      <trkpt lat="45.11876" lon="5.59895">
        <ele>1273</ele>
        <time>2010-06-06T11:00:26Z</time>
      </trkpt>
      <trkpt lat="45.1188" lon="5.59895">
        <ele>1273</ele>
        <time>2010-06-06T11:00:27Z</time>
      </trkpt>
      <trkpt lat="45.11883" lon="5.59895">
        <ele>1273</ele>
        <time>2010-06-06T11:00:28Z</time>
      </trkpt>
      <trkpt lat="45.11887" lon="5.59895">
        <ele>1273</ele>
        <time>2010-06-06T11:00:29Z</time>
      </trkpt>
      <trkpt lat="45.11891" lon="5.59896">
        <ele>1273</ele>
        <time>2010-06-06T11:00:30Z</time>
      </trkpt>
      <trkpt lat="45.11895" lon="5.59897">
        <ele>1273</ele>
        <time>2010-06-06T11:00:31Z</time>
      </trkpt>
      <trkpt lat="45.11899" lon="5.59898">
        <ele>1273</ele>
        <time>2010-06-06T11:00:32Z</time>
      </trkpt>
      <trkpt lat="45.11902" lon="5.59898">
        <ele>1273</ele>
        <time>2010-06-06T11:00:33Z</time>
      </trkpt>
      <trkpt lat="45.11904" lon="5.59898">
        <ele>1273</ele>
        <time>2010-06-06T11:00:34Z</time>
      </trkpt>
      <trkpt lat="45.11907" lon="5.599">
        <ele>1273</ele>
        <time>2010-06-06T11:00:35Z</time>
      </trkpt>
      <trkpt lat="45.1191" lon="5.59901">
        <ele>1273</ele>
        <time>2010-06-06T11:00:36Z</time>
      </trkpt>
      <trkpt lat="45.11914" lon="5.59902">
        <ele>1273</ele>
        <time>2010-06-06T11:00:37Z</time>
      </trkpt>
      <trkpt lat="45.11918" lon="5.59903">
        <ele>1273</ele>
        <time>2010-06-06T11:00:38Z</time>
      </trkpt>
      <trkpt lat="45.11922" lon="5.59904">
        <ele>1273</ele>
        <time>2010-06-06T11:00:39Z</time>
      </trkpt>
      <trkpt lat="45.11925" lon="5.59904">
        <ele>1273</ele>
        <time>2010-06-06T11:00:40Z</time>
      </trkpt>
      <trkpt lat="45.11928" lon="5.59905">
        <ele>1273</ele>
        <time>2010-06-06T11:00:41Z</time>
      </trkpt>
      <trkpt lat="45.1193" lon="5.59906">
        <ele>1273</ele>
        <time>2010-06-06T11:00:42Z</time>
      </trkpt>
      <trkpt lat="45.11933" lon="5.59907">
        <ele>1273</ele>
        <time>2010-06-06T11:00:43Z</time>
      </trkpt>
      <trkpt lat="45.11936" lon="5.59908">
        <ele>1273</ele>
        <time>2010-06-06T11:00:44Z</time>
      </trkpt>
      <trkpt lat="45.11941" lon="5.59908">
        <ele>1273</ele>
        <time>2010-06-06T11:00:45Z</time>
      </trkpt>
      <trkpt lat="45.11945" lon="5.59909">
        <ele>1273</ele>
        <time>2010-06-06T11:00:46Z</time>
      </trkpt>
      <trkpt lat="45.11949" lon="5.59909">
        <ele>1273</ele>
        <time>2010-06-06T11:00:47Z</time>
      </trkpt>
      <trkpt lat="45.11953" lon="5.59909">
        <ele>1273</ele>
        <time>2010-06-06T11:00:48Z</time>
      </trkpt>
      <trkpt lat="45.11956" lon="5.59909">
        <ele>1273</ele>
        <time>2010-06-06T11:00:49Z</time>
      </trkpt>
      <trkpt lat="45.11959" lon="5.5991">
        <ele>1273</ele>
        <time>2010-06-06T11:00:50Z</time>
      </trkpt>
      <trkpt lat="45.11961" lon="5.5991">
        <ele>1273</ele>
        <time>2010-06-06T11:00:51Z</time>
      </trkpt>
      <trkpt lat="45.11964" lon="5.59912">
        <ele>1273</ele>
        <time>2010-06-06T11:00:52Z</time>
      </trkpt>
      <trkpt lat="45.11967" lon="5.59913">
        <ele>1273</ele>
        <time>2010-06-06T11:00:53Z</time>
      </trkpt>
      <trkpt lat="45.1197" lon="5.59916">
        <ele>1273</ele>
        <time>2010-06-06T11:00:54Z</time>
      </trkpt>
      <trkpt lat="45.11974" lon="5.59917">
        <ele>1273</ele>
        <time>2010-06-06T11:00:55Z</time>
      </trkpt>
      <trkpt lat="45.11978" lon="5.59918">
        <ele>1273</ele>
        <time>2010-06-06T11:00:56Z</time>
      </trkpt>
      <trkpt lat="45.11981" lon="5.59919">
        <ele>1273</ele>
        <time>2010-06-06T11:00:57Z</time>
      </trkpt>
      <trkpt lat="45.11985" lon="5.59919">
        <ele>1273</ele>
        <time>2010-06-06T11:00:58Z</time>
      </trkpt>
      <trkpt lat="45.11988" lon="5.5992">
        <ele>1273</ele>
        <time>2010-06-06T11:00:59Z</time>
      </trkpt>
      <trkpt lat="45.11991" lon="5.59921">
        <ele>1273</ele>
        <time>2010-06-06T11:01:00Z</time>
      </trkpt>
      <trkpt lat="45.11994" lon="5.59922">
        <ele>1273</ele>
        <time>2010-06-06T11:01:01Z</time>
      </trkpt>
      <trkpt lat="45.11996" lon="5.59923">
        <ele>1272</ele>
        <time>2010-06-06T11:01:02Z</time>
      </trkpt>
      <trkpt lat="45.11999" lon="5.59925">
        <ele>1271</ele>
        <time>2010-06-06T11:01:03Z</time>
      </trkpt>
      <trkpt lat="45.12001" lon="5.59925">
        <ele>1270</ele>
        <time>2010-06-06T11:01:04Z</time>
      </trkpt>
      <trkpt lat="45.12004" lon="5.59925">
        <ele>1269</ele>
        <time>2010-06-06T11:01:05Z</time>
      </trkpt>
      <trkpt lat="45.12006" lon="5.59926">
        <ele>1268</ele>
        <time>2010-06-06T11:01:06Z</time>
      </trkpt>
      <trkpt lat="45.12008" lon="5.59928">
        <ele>1267</ele>
        <time>2010-06-06T11:01:07Z</time>
      </trkpt>
      <trkpt lat="45.12009" lon="5.5993">
        <ele>1266</ele>
        <time>2010-06-06T11:01:08Z</time>
      </trkpt>
      <trkpt lat="45.12011" lon="5.59932">
        <ele>1265</ele>
        <time>2010-06-06T11:01:09Z</time>
      </trkpt>
      <trkpt lat="45.12013" lon="5.59934">
        <ele>1264</ele>
        <time>2010-06-06T11:01:10Z</time>
      </trkpt>
      <trkpt lat="45.12015" lon="5.59937">
        <ele>1263</ele>
        <time>2010-06-06T11:01:11Z</time>
      </trkpt>
      <trkpt lat="45.12016" lon="5.59939">
        <ele>1262</ele>
        <time>2010-06-06T11:01:12Z</time>
      </trkpt>
      <trkpt lat="45.12018" lon="5.59942">
        <ele>1260</ele>
        <time>2010-06-06T11:01:13Z</time>
      </trkpt>
      <trkpt lat="45.1202" lon="5.59944">
        <ele>1259</ele>
        <time>2010-06-06T11:01:14Z</time>
      </trkpt>
      <trkpt lat="45.12022" lon="5.59947">
        <ele>1257</ele>
        <time>2010-06-06T11:01:15Z</time>
      </trkpt>
      <trkpt lat="45.12023" lon="5.5995">
        <ele>1255</ele>
        <time>2010-06-06T11:01:16Z</time>
      </trkpt>
      <trkpt lat="45.12025" lon="5.59953">
        <ele>1254</ele>
        <time>2010-06-06T11:01:17Z</time>
      </trkpt>
      <trkpt lat="45.12027" lon="5.59956">
        <ele>1252</ele>
        <time>2010-06-06T11:01:18Z</time>
      </trkpt>
      <trkpt lat="45.12028" lon="5.59958">
        <ele>1251</ele>
        <time>2010-06-06T11:01:19Z</time>
      </trkpt>
      <trkpt lat="45.1203" lon="5.5996">
        <ele>1250</ele>
        <time>2010-06-06T11:01:20Z</time>
      </trkpt>
      <trkpt lat="45.12032" lon="5.59962">
        <ele>1249</ele>
        <time>2010-06-06T11:01:21Z</time>
      </trkpt>
      <trkpt lat="45.12034" lon="5.59964">
        <ele>1248</ele>
        <time>2010-06-06T11:01:22Z</time>
      </trkpt>
      <trkpt lat="45.12036" lon="5.59966">
        <ele>1247</ele>
        <time>2010-06-06T11:01:23Z</time>
      </trkpt>
      <trkpt lat="45.12038" lon="5.59967">
        <ele>1246</ele>
        <time>2010-06-06T11:01:24Z</time>
      </trkpt>
      <trkpt lat="45.1204" lon="5.59968">
        <ele>1245</ele>
        <time>2010-06-06T11:01:25Z</time>
      </trkpt>
      <trkpt lat="45.12042" lon="5.59969">
        <ele>1244</ele>
        <time>2010-06-06T11:01:26Z</time>
      </trkpt>
      <trkpt lat="45.12044" lon="5.5997">
        <ele>1243</ele>
        <time>2010-06-06T11:01:27Z</time>
      </trkpt>
      <trkpt lat="45.12046" lon="5.59972">
        <ele>1242</ele>
        <time>2010-06-06T11:01:28Z</time>
      </trkpt>
      <trkpt lat="45.12048" lon="5.59974">
        <ele>1241</ele>
        <time>2010-06-06T11:01:29Z</time>
      </trkpt>
      <trkpt lat="45.12051" lon="5.59976">
        <ele>1240</ele>
        <time>2010-06-06T11:01:30Z</time>
      </trkpt>
      <trkpt lat="45.12055" lon="5.59977">
        <ele>1239</ele>
        <time>2010-06-06T11:01:31Z</time>
      </trkpt>
      <trkpt lat="45.12058" lon="5.59979">
        <ele>1237</ele>
        <time>2010-06-06T11:01:32Z</time>
      </trkpt>
      <trkpt lat="45.1206" lon="5.59981">
        <ele>1236</ele>
        <time>2010-06-06T11:01:33Z</time>
      </trkpt>
      <trkpt lat="45.12062" lon="5.59982">
        <ele>1235</ele>
        <time>2010-06-06T11:01:34Z</time>
      </trkpt>
      <trkpt lat="45.12064" lon="5.59984">
        <ele>1233</ele>
        <time>2010-06-06T11:01:35Z</time>
      </trkpt>
      <trkpt lat="45.12067" lon="5.59986">
        <ele>1232</ele>
        <time>2010-06-06T11:01:36Z</time>
      </trkpt>
      <trkpt lat="45.12068" lon="5.59989">
        <ele>1231</ele>
        <time>2010-06-06T11:01:37Z</time>
      </trkpt>
      <trkpt lat="45.1207" lon="5.5999">
        <ele>1230</ele>
        <time>2010-06-06T11:01:38Z</time>
      </trkpt>
      <trkpt lat="45.12071" lon="5.59991">
        <ele>1229</ele>
        <time>2010-06-06T11:01:39Z</time>
      </trkpt>
      <trkpt lat="45.12073" lon="5.59992">
        <ele>1228</ele>
        <time>2010-06-06T11:01:40Z</time>
      </trkpt>
      <trkpt lat="45.12075" lon="5.59994">
        <ele>1227</ele>
        <time>2010-06-06T11:01:41Z</time>
      </trkpt>
      <trkpt lat="45.12077" lon="5.59996">
        <ele>1226</ele>
        <time>2010-06-06T11:01:42Z</time>
      </trkpt>
      <trkpt lat="45.1208" lon="5.59997">
        <ele>1225</ele>
        <time>2010-06-06T11:01:43Z</time>
      </trkpt>
      <trkpt lat="45.12081" lon="5.59999">
        <ele>1224</ele>
        <time>2010-06-06T11:01:44Z</time>
      </trkpt>
      <trkpt lat="45.12083" lon="5.60001">
        <ele>1223</ele>
        <time>2010-06-06T11:01:45Z</time>
      </trkpt>
      <trkpt lat="45.12085" lon="5.60003">
        <ele>1222</ele>
        <time>2010-06-06T11:01:46Z</time>
      </trkpt>
      <trkpt lat="45.12086" lon="5.60005">
        <ele>1221</ele>
        <time>2010-06-06T11:01:47Z</time>
      </trkpt>
      <trkpt lat="45.12089" lon="5.60007">
        <ele>1220</ele>
        <time>2010-06-06T11:01:48Z</time>
      </trkpt>
      <trkpt lat="45.12091" lon="5.60009">
        <ele>1219</ele>
        <time>2010-06-06T11:01:49Z</time>
      </trkpt>
      <trkpt lat="45.12093" lon="5.6001">
        <ele>1218</ele>
        <time>2010-06-06T11:01:50Z</time>
      </trkpt>
      <trkpt lat="45.12095" lon="5.60011">
        <ele>1218</ele>
        <time>2010-06-06T11:01:51Z</time>
      </trkpt>
      <trkpt lat="45.12098" lon="5.60011">
        <ele>1217</ele>
        <time>2010-06-06T11:01:52Z</time>
      </trkpt>
      <trkpt lat="45.12102" lon="5.60012">
        <ele>1216</ele>
        <time>2010-06-06T11:01:53Z</time>
      </trkpt>
      <trkpt lat="45.12106" lon="5.60013">
        <ele>1215</ele>
        <time>2010-06-06T11:01:54Z</time>
      </trkpt>
      <trkpt lat="45.1211" lon="5.60014">
        <ele>1214</ele>
        <time>2010-06-06T11:01:55Z</time>
      </trkpt>
      <trkpt lat="45.12113" lon="5.60014">
        <ele>1213</ele>
        <time>2010-06-06T11:01:56Z</time>
      </trkpt>
      <trkpt lat="45.12116" lon="5.60015">
        <ele>1212</ele>
        <time>2010-06-06T11:01:57Z</time>
      </trkpt>
      <trkpt lat="45.12118" lon="5.60017">
        <ele>1211</ele>
        <time>2010-06-06T11:01:58Z</time>
      </trkpt>
      <trkpt lat="45.12121" lon="5.60018">
        <ele>1210</ele>
        <time>2010-06-06T11:01:59Z</time>
      </trkpt>
      <trkpt lat="45.12123" lon="5.6002">
        <ele>1209</ele>
        <time>2010-06-06T11:02:00Z</time>
      </trkpt>
      <trkpt lat="45.12125" lon="5.60021">
        <ele>1208</ele>
        <time>2010-06-06T11:02:01Z</time>
      </trkpt>
      <trkpt lat="45.12126" lon="5.60022">
        <ele>1207</ele>
        <time>2010-06-06T11:02:02Z</time>
      </trkpt>
      <trkpt lat="45.12128" lon="5.60023">
        <ele>1206</ele>
        <time>2010-06-06T11:02:03Z</time>
      </trkpt>
      <trkpt lat="45.12131" lon="5.60023">
        <ele>1205</ele>
        <time>2010-06-06T11:02:04Z</time>
      </trkpt>
      <trkpt lat="45.12135" lon="5.60024">
        <ele>1204</ele>
        <time>2010-06-06T11:02:05Z</time>
      </trkpt>
      <trkpt lat="45.12138" lon="5.60024">
        <ele>1203</ele>
        <time>2010-06-06T11:02:06Z</time>
      </trkpt>
      <trkpt lat="45.12142" lon="5.60024">
        <ele>1202</ele>
        <time>2010-06-06T11:02:07Z</time>
      </trkpt>
      <trkpt lat="45.12146" lon="5.60024">
        <ele>1201</ele>
        <time>2010-06-06T11:02:08Z</time>
      </trkpt>
      <trkpt lat="45.12149" lon="5.60024">
        <ele>1200</ele>
        <time>2010-06-06T11:02:09Z</time>
      </trkpt>
      <trkpt lat="45.12153" lon="5.60024">
        <ele>1199</ele>
        <time>2010-06-06T11:02:10Z</time>
      </trkpt>
      <trkpt lat="45.12156" lon="5.60024">
        <ele>1198</ele>
        <time>2010-06-06T11:02:11Z</time>
      </trkpt>
      <trkpt lat="45.1216" lon="5.60025">
        <ele>1197</ele>
        <time>2010-06-06T11:02:12Z</time>
      </trkpt>
      <trkpt lat="45.12162" lon="5.60026">
        <ele>1196</ele>
        <time>2010-06-06T11:02:13Z</time>
      </trkpt>
      <trkpt lat="45.12165" lon="5.60027">
        <ele>1195</ele>
        <time>2010-06-06T11:02:14Z</time>
      </trkpt>
      <trkpt lat="45.12168" lon="5.60029">
        <ele>1194</ele>
        <time>2010-06-06T11:02:15Z</time>
      </trkpt>
      <trkpt lat="45.1217" lon="5.6003">
        <ele>1193</ele>
        <time>2010-06-06T11:02:16Z</time>
      </trkpt>
      <trkpt lat="45.12174" lon="5.6003">
        <ele>1192</ele>
        <time>2010-06-06T11:02:17Z</time>
      </trkpt>
      <trkpt lat="45.12176" lon="5.60031">
        <ele>1191</ele>
        <time>2010-06-06T11:02:18Z</time>
      </trkpt>
      <trkpt lat="45.12179" lon="5.60031">
        <ele>1190</ele>
        <time>2010-06-06T11:02:19Z</time>
      </trkpt>
      <trkpt lat="45.12182" lon="5.60031">
        <ele>1189</ele>
        <time>2010-06-06T11:02:20Z</time>
      </trkpt>
      <trkpt lat="45.12186" lon="5.60031">
        <ele>1188</ele>
        <time>2010-06-06T11:02:21Z</time>
      </trkpt>
      <trkpt lat="45.12189" lon="5.6003">
        <ele>1187</ele>
        <time>2010-06-06T11:02:22Z</time>
      </trkpt>
      <trkpt lat="45.12192" lon="5.6003">
        <ele>1186</ele>
        <time>2010-06-06T11:02:23Z</time>
      </trkpt>
      <trkpt lat="45.12195" lon="5.6003">
        <ele>1185</ele>
        <time>2010-06-06T11:02:24Z</time>
      </trkpt>
      <trkpt lat="45.12198" lon="5.60031">
        <ele>1184</ele>
        <time>2010-06-06T11:02:25Z</time>
      </trkpt>
      <trkpt lat="45.12201" lon="5.60032">
        <ele>1183</ele>
        <time>2010-06-06T11:02:26Z</time>
      </trkpt>
      <trkpt lat="45.12203" lon="5.60033">
        <ele>1182</ele>
        <time>2010-06-06T11:02:27Z</time>
      </trkpt>
      <trkpt lat="45.12206" lon="5.60034">
        <ele>1181</ele>
        <time>2010-06-06T11:02:28Z</time>
      </trkpt>
      <trkpt lat="45.12209" lon="5.60036">
        <ele>1180</ele>
        <time>2010-06-06T11:02:29Z</time>
      </trkpt>
      <trkpt lat="45.12212" lon="5.60038">
        <ele>1179</ele>
        <time>2010-06-06T11:02:30Z</time>
      </trkpt>
      <trkpt lat="45.12214" lon="5.6004">
        <ele>1178</ele>
        <time>2010-06-06T11:02:31Z</time>
      </trkpt>
      <trkpt lat="45.12217" lon="5.60041">
        <ele>1177</ele>
        <time>2010-06-06T11:02:32Z</time>
      </trkpt>
      <trkpt lat="45.12219" lon="5.60042">
        <ele>1177</ele>
        <time>2010-06-06T11:02:33Z</time>
      </trkpt>
      <trkpt lat="45.12222" lon="5.60042">
        <ele>1176</ele>
        <time>2010-06-06T11:02:34Z</time>
      </trkpt>
      <trkpt lat="45.12226" lon="5.60042">
        <ele>1176</ele>
        <time>2010-06-06T11:02:35Z</time>
      </trkpt>
      <trkpt lat="45.12228" lon="5.60042">
        <ele>1176</ele>
        <time>2010-06-06T11:02:36Z</time>
      </trkpt>
      <trkpt lat="45.12231" lon="5.60042">
        <ele>1175</ele>
        <time>2010-06-06T11:02:37Z</time>
      </trkpt>
      <trkpt lat="45.12234" lon="5.60042">
        <ele>1175</ele>
        <time>2010-06-06T11:02:38Z</time>
      </trkpt>
      <trkpt lat="45.12236" lon="5.60043">
        <ele>1175</ele>
        <time>2010-06-06T11:02:39Z</time>
      </trkpt>
      <trkpt lat="45.12239" lon="5.60043">
        <ele>1174</ele>
        <time>2010-06-06T11:02:40Z</time>
      </trkpt>
      <trkpt lat="45.12242" lon="5.60043">
        <ele>1174</ele>
        <time>2010-06-06T11:02:41Z</time>
      </trkpt>
      <trkpt lat="45.12245" lon="5.60044">
        <ele>1174</ele>
        <time>2010-06-06T11:02:42Z</time>
      </trkpt>
      <trkpt lat="45.12248" lon="5.60046">
        <ele>1174</ele>
        <time>2010-06-06T11:02:43Z</time>
      </trkpt>
      <trkpt lat="45.12252" lon="5.60046">
        <ele>1174</ele>
        <time>2010-06-06T11:02:44Z</time>
      </trkpt>
      <trkpt lat="45.12254" lon="5.6005">
        <ele>1174</ele>
        <time>2010-06-06T11:02:45Z</time>
      </trkpt>
      <trkpt lat="45.12258" lon="5.60052">
        <ele>1174</ele>
        <time>2010-06-06T11:02:46Z</time>
      </trkpt>
      <trkpt lat="45.12261" lon="5.60052">
        <ele>1174</ele>
        <time>2010-06-06T11:02:47Z</time>
      </trkpt>
      <trkpt lat="45.12265" lon="5.60053">
        <ele>1175</ele>
        <time>2010-06-06T11:02:48Z</time>
      </trkpt>
      <trkpt lat="45.12268" lon="5.60054">
        <ele>1176</ele>
        <time>2010-06-06T11:02:49Z</time>
      </trkpt>
      <trkpt lat="45.1227" lon="5.60054">
        <ele>1177</ele>
        <time>2010-06-06T11:02:50Z</time>
      </trkpt>
      <trkpt lat="45.12273" lon="5.60053">
        <ele>1178</ele>
        <time>2010-06-06T11:02:51Z</time>
      </trkpt>
      <trkpt lat="45.12277" lon="5.60053">
        <ele>1179</ele>
        <time>2010-06-06T11:02:52Z</time>
      </trkpt>
      <trkpt lat="45.1228" lon="5.60053">
        <ele>1180</ele>
        <time>2010-06-06T11:02:53Z</time>
      </trkpt>
      <trkpt lat="45.12283" lon="5.60053">
        <ele>1180</ele>
        <time>2010-06-06T11:02:54Z</time>
      </trkpt>
      <trkpt lat="45.12285" lon="5.60052">
        <ele>1180</ele>
        <time>2010-06-06T11:02:55Z</time>
      </trkpt>
      <trkpt lat="45.12288" lon="5.60052">
        <ele>1180</ele>
        <time>2010-06-06T11:02:56Z</time>
      </trkpt>
      <trkpt lat="45.12291" lon="5.60052">
        <ele>1180</ele>
        <time>2010-06-06T11:02:57Z</time>
      </trkpt>
      <trkpt lat="45.12293" lon="5.60051">
        <ele>1180</ele>
        <time>2010-06-06T11:02:58Z</time>
      </trkpt>
      <trkpt lat="45.12295" lon="5.6005">
        <ele>1180</ele>
        <time>2010-06-06T11:02:59Z</time>
      </trkpt>
      <trkpt lat="45.12297" lon="5.60048">
        <ele>1180</ele>
        <time>2010-06-06T11:03:00Z</time>
      </trkpt>
      <trkpt lat="45.12299" lon="5.60045">
        <ele>1180</ele>
        <time>2010-06-06T11:03:01Z</time>
      </trkpt>
      <trkpt lat="45.12302" lon="5.60043">
        <ele>1180</ele>
        <time>2010-06-06T11:03:02Z</time>
      </trkpt>
      <trkpt lat="45.12304" lon="5.6004">
        <ele>1180</ele>
        <time>2010-06-06T11:03:03Z</time>
      </trkpt>
      <trkpt lat="45.12305" lon="5.60037">
        <ele>1180</ele>
        <time>2010-06-06T11:03:04Z</time>
      </trkpt>
      <trkpt lat="45.12306" lon="5.60035">
        <ele>1180</ele>
        <time>2010-06-06T11:03:05Z</time>
      </trkpt>
      <trkpt lat="45.12307" lon="5.60031">
        <ele>1180</ele>
        <time>2010-06-06T11:03:06Z</time>
      </trkpt>
      <trkpt lat="45.12309" lon="5.60027">
        <ele>1180</ele>
        <time>2010-06-06T11:03:07Z</time>
      </trkpt>
      <trkpt lat="45.12311" lon="5.60024">
        <ele>1180</ele>
        <time>2010-06-06T11:03:08Z</time>
      </trkpt>
      <trkpt lat="45.12311" lon="5.6002">
        <ele>1180</ele>
        <time>2010-06-06T11:03:09Z</time>
      </trkpt>
      <trkpt lat="45.12312" lon="5.60016">
        <ele>1180</ele>
        <time>2010-06-06T11:03:10Z</time>
      </trkpt>
      <trkpt lat="45.12314" lon="5.60012">
        <ele>1179</ele>
        <time>2010-06-06T11:03:11Z</time>
      </trkpt>
      <trkpt lat="45.12314" lon="5.60008">
        <ele>1179</ele>
        <time>2010-06-06T11:03:12Z</time>
      </trkpt>
      <trkpt lat="45.12314" lon="5.60006">
        <ele>1178</ele>
        <time>2010-06-06T11:03:13Z</time>
      </trkpt>
      <trkpt lat="45.12314" lon="5.60003">
        <ele>1177</ele>
        <time>2010-06-06T11:03:14Z</time>
      </trkpt>
      <trkpt lat="45.12315" lon="5.6">
        <ele>1177</ele>
        <time>2010-06-06T11:03:15Z</time>
      </trkpt>
      <trkpt lat="45.12317" lon="5.59997">
        <ele>1176</ele>
        <time>2010-06-06T11:03:16Z</time>
      </trkpt>
      <trkpt lat="45.12319" lon="5.59995">
        <ele>1175</ele>
        <time>2010-06-06T11:03:17Z</time>
      </trkpt>
      <trkpt lat="45.12321" lon="5.59993">
        <ele>1174</ele>
        <time>2010-06-06T11:03:18Z</time>
      </trkpt>
      <trkpt lat="45.12322" lon="5.59989">
        <ele>1173</ele>
        <time>2010-06-06T11:03:19Z</time>
      </trkpt>
      <trkpt lat="45.12326" lon="5.59987">
        <ele>1172</ele>
        <time>2010-06-06T11:03:20Z</time>
      </trkpt>
      <trkpt lat="45.12329" lon="5.59986">
        <ele>1171</ele>
        <time>2010-06-06T11:03:21Z</time>
      </trkpt>
      <trkpt lat="45.12333" lon="5.59984">
        <ele>1170</ele>
        <time>2010-06-06T11:03:22Z</time>
      </trkpt>
      <trkpt lat="45.12335" lon="5.59981">
        <ele>1169</ele>
        <time>2010-06-06T11:03:23Z</time>
      </trkpt>
      <trkpt lat="45.12339" lon="5.5998">
        <ele>1168</ele>
        <time>2010-06-06T11:03:24Z</time>
      </trkpt>
      <trkpt lat="45.12341" lon="5.59978">
        <ele>1167</ele>
        <time>2010-06-06T11:03:25Z</time>
      </trkpt>
      <trkpt lat="45.12342" lon="5.59976">
        <ele>1166</ele>
        <time>2010-06-06T11:03:26Z</time>
      </trkpt>
      <trkpt lat="45.12344" lon="5.59974">
        <ele>1165</ele>
        <time>2010-06-06T11:03:27Z</time>
      </trkpt>
      <trkpt lat="45.12347" lon="5.59973">
        <ele>1164</ele>
        <time>2010-06-06T11:03:28Z</time>
      </trkpt>
      <trkpt lat="45.1235" lon="5.59973">
        <ele>1163</ele>
        <time>2010-06-06T11:03:29Z</time>
      </trkpt>
      <trkpt lat="45.12354" lon="5.59974">
        <ele>1163</ele>
        <time>2010-06-06T11:03:30Z</time>
      </trkpt>
      <trkpt lat="45.12357" lon="5.59973">
        <ele>1162</ele>
        <time>2010-06-06T11:03:31Z</time>
      </trkpt>
      <trkpt lat="45.12361" lon="5.59972">
        <ele>1161</ele>
        <time>2010-06-06T11:03:32Z</time>
      </trkpt>
      <trkpt lat="45.12365" lon="5.59971">
        <ele>1160</ele>
        <time>2010-06-06T11:03:33Z</time>
      </trkpt>
      <trkpt lat="45.12367" lon="5.59972">
        <ele>1159</ele>
        <time>2010-06-06T11:03:34Z</time>
      </trkpt>
      <trkpt lat="45.12369" lon="5.59972">
        <ele>1158</ele>
        <time>2010-06-06T11:03:35Z</time>
      </trkpt>
      <trkpt lat="45.12371" lon="5.59973">
        <ele>1158</ele>
        <time>2010-06-06T11:03:36Z</time>
      </trkpt>
      <trkpt lat="45.12373" lon="5.59973">
        <ele>1157</ele>
        <time>2010-06-06T11:03:37Z</time>
      </trkpt>
      <trkpt lat="45.12375" lon="5.59972">
        <ele>1157</ele>
        <time>2010-06-06T11:03:38Z</time>
      </trkpt>
      <trkpt lat="45.12377" lon="5.59972">
        <ele>1156</ele>
        <time>2010-06-06T11:03:39Z</time>
      </trkpt>
      <trkpt lat="45.12379" lon="5.59971">
        <ele>1155</ele>
        <time>2010-06-06T11:03:40Z</time>
      </trkpt>
      <trkpt lat="45.12381" lon="5.5997">
        <ele>1154</ele>
        <time>2010-06-06T11:03:41Z</time>
      </trkpt>
      <trkpt lat="45.12383" lon="5.59969">
        <ele>1153</ele>
        <time>2010-06-06T11:03:42Z</time>
      </trkpt>
      <trkpt lat="45.12385" lon="5.59969">
        <ele>1152</ele>
        <time>2010-06-06T11:03:43Z</time>
      </trkpt>
      <trkpt lat="45.12387" lon="5.59968">
        <ele>1151</ele>
        <time>2010-06-06T11:03:44Z</time>
      </trkpt>
      <trkpt lat="45.12389" lon="5.59967">
        <ele>1150</ele>
        <time>2010-06-06T11:03:45Z</time>
      </trkpt>
      <trkpt lat="45.12391" lon="5.59966">
        <ele>1149</ele>
        <time>2010-06-06T11:03:46Z</time>
      </trkpt>
      <trkpt lat="45.12393" lon="5.59964">
        <ele>1148</ele>
        <time>2010-06-06T11:03:47Z</time>
      </trkpt>
      <trkpt lat="45.12395" lon="5.59962">
        <ele>1147</ele>
        <time>2010-06-06T11:03:48Z</time>
      </trkpt>
      <trkpt lat="45.12396" lon="5.5996">
        <ele>1146</ele>
        <time>2010-06-06T11:03:49Z</time>
      </trkpt>
      <trkpt lat="45.12397" lon="5.59958">
        <ele>1145</ele>
        <time>2010-06-06T11:03:50Z</time>
      </trkpt>
      <trkpt lat="45.12398" lon="5.59955">
        <ele>1144</ele>
        <time>2010-06-06T11:03:51Z</time>
      </trkpt>
      <trkpt lat="45.12399" lon="5.59953">
        <ele>1143</ele>
        <time>2010-06-06T11:03:52Z</time>
      </trkpt>
      <trkpt lat="45.124" lon="5.5995">
        <ele>1142</ele>
        <time>2010-06-06T11:03:53Z</time>
      </trkpt>
      <trkpt lat="45.12401" lon="5.59947">
        <ele>1141</ele>
        <time>2010-06-06T11:03:54Z</time>
      </trkpt>
      <trkpt lat="45.12401" lon="5.59943">
        <ele>1140</ele>
        <time>2010-06-06T11:03:55Z</time>
      </trkpt>
      <trkpt lat="45.12401" lon="5.59939">
        <ele>1139</ele>
        <time>2010-06-06T11:03:56Z</time>
      </trkpt>
      <trkpt lat="45.12401" lon="5.59936">
        <ele>1138</ele>
        <time>2010-06-06T11:03:57Z</time>
      </trkpt>
      <trkpt lat="45.12401" lon="5.59933">
        <ele>1137</ele>
        <time>2010-06-06T11:03:58Z</time>
      </trkpt>
      <trkpt lat="45.12401" lon="5.5993">
        <ele>1136</ele>
        <time>2010-06-06T11:03:59Z</time>
      </trkpt>
      <trkpt lat="45.124" lon="5.59928">
        <ele>1135</ele>
        <time>2010-06-06T11:04:00Z</time>
      </trkpt>
      <trkpt lat="45.124" lon="5.59925">
        <ele>1134</ele>
        <time>2010-06-06T11:04:01Z</time>
      </trkpt>
      <trkpt lat="45.124" lon="5.59921">
        <ele>1133</ele>
        <time>2010-06-06T11:04:02Z</time>
      </trkpt>
      <trkpt lat="45.12401" lon="5.59918">
        <ele>1132</ele>
        <time>2010-06-06T11:04:03Z</time>
      </trkpt>
      <trkpt lat="45.12401" lon="5.59914">
        <ele>1131</ele>
        <time>2010-06-06T11:04:04Z</time>
      </trkpt>
      <trkpt lat="45.124" lon="5.59911">
        <ele>1130</ele>
        <time>2010-06-06T11:04:05Z</time>
      </trkpt>
      <trkpt lat="45.12399" lon="5.59907">
        <ele>1129</ele>
        <time>2010-06-06T11:04:06Z</time>
      </trkpt>
      <trkpt lat="45.12398" lon="5.59902">
        <ele>1128</ele>
        <time>2010-06-06T11:04:07Z</time>
      </trkpt>
      <trkpt lat="45.12397" lon="5.59898">
        <ele>1127</ele>
        <time>2010-06-06T11:04:08Z</time>
      </trkpt>
      <trkpt lat="45.12396" lon="5.59894">
        <ele>1126</ele>
        <time>2010-06-06T11:04:09Z</time>
      </trkpt>
      <trkpt lat="45.12396" lon="5.5989">
        <ele>1125</ele>
        <time>2010-06-06T11:04:10Z</time>
      </trkpt>
      <trkpt lat="45.12395" lon="5.59886">
        <ele>1125</ele>
        <time>2010-06-06T11:04:11Z</time>
      </trkpt>
      <trkpt lat="45.12395" lon="5.59883">
        <ele>1124</ele>
        <time>2010-06-06T11:04:12Z</time>
      </trkpt>
      <trkpt lat="45.12394" lon="5.59879">
        <ele>1123</ele>
        <time>2010-06-06T11:04:13Z</time>
      </trkpt>
      <trkpt lat="45.12394" lon="5.59875">
        <ele>1123</ele>
        <time>2010-06-06T11:04:14Z</time>
      </trkpt>
      <trkpt lat="45.12393" lon="5.59871">
        <ele>1122</ele>
        <time>2010-06-06T11:04:15Z</time>
      </trkpt>
      <trkpt lat="45.12393" lon="5.59867">
        <ele>1122</ele>
        <time>2010-06-06T11:04:16Z</time>
      </trkpt>
      <trkpt lat="45.12392" lon="5.59863">
        <ele>1121</ele>
        <time>2010-06-06T11:04:17Z</time>
      </trkpt>
      <trkpt lat="45.12391" lon="5.59859">
        <ele>1121</ele>
        <time>2010-06-06T11:04:18Z</time>
      </trkpt>
      <trkpt lat="45.1239" lon="5.59857">
        <ele>1120</ele>
        <time>2010-06-06T11:04:19Z</time>
      </trkpt>
      <trkpt lat="45.1239" lon="5.59853">
        <ele>1119</ele>
        <time>2010-06-06T11:04:20Z</time>
      </trkpt>
      <trkpt lat="45.12389" lon="5.5985">
        <ele>1119</ele>
        <time>2010-06-06T11:04:21Z</time>
      </trkpt>
      <trkpt lat="45.12388" lon="5.59847">
        <ele>1118</ele>
        <time>2010-06-06T11:04:22Z</time>
      </trkpt>
      <trkpt lat="45.12388" lon="5.59845">
        <ele>1118</ele>
        <time>2010-06-06T11:04:23Z</time>
      </trkpt>
      <trkpt lat="45.12388" lon="5.59841">
        <ele>1117</ele>
        <time>2010-06-06T11:04:24Z</time>
      </trkpt>
      <trkpt lat="45.12388" lon="5.59837">
        <ele>1117</ele>
        <time>2010-06-06T11:04:25Z</time>
      </trkpt>
      <trkpt lat="45.12388" lon="5.59833">
        <ele>1116</ele>
        <time>2010-06-06T11:04:26Z</time>
      </trkpt>
      <trkpt lat="45.12389" lon="5.5983">
        <ele>1115</ele>
        <time>2010-06-06T11:04:27Z</time>
      </trkpt>
      <trkpt lat="45.12389" lon="5.59828">
        <ele>1114</ele>
        <time>2010-06-06T11:04:28Z</time>
      </trkpt>
      <trkpt lat="45.12388" lon="5.59825">
        <ele>1114</ele>
        <time>2010-06-06T11:04:29Z</time>
      </trkpt>
      <trkpt lat="45.12388" lon="5.59823">
        <ele>1113</ele>
        <time>2010-06-06T11:04:30Z</time>
      </trkpt>
      <trkpt lat="45.12387" lon="5.5982">
        <ele>1112</ele>
        <time>2010-06-06T11:04:31Z</time>
      </trkpt>
      <trkpt lat="45.12386" lon="5.59816">
        <ele>1111</ele>
        <time>2010-06-06T11:04:32Z</time>
      </trkpt>
      <trkpt lat="45.12387" lon="5.59814">
        <ele>1111</ele>
        <time>2010-06-06T11:04:33Z</time>
      </trkpt>
      <trkpt lat="45.12387" lon="5.5981">
        <ele>1110</ele>
        <time>2010-06-06T11:04:34Z</time>
      </trkpt>
      <trkpt lat="45.12388" lon="5.59807">
        <ele>1109</ele>
        <time>2010-06-06T11:04:35Z</time>
      </trkpt>
      <trkpt lat="45.12388" lon="5.59802">
        <ele>1108</ele>
        <time>2010-06-06T11:04:36Z</time>
      </trkpt>
      <trkpt lat="45.12388" lon="5.59798">
        <ele>1108</ele>
        <time>2010-06-06T11:04:37Z</time>
      </trkpt>
      <trkpt lat="45.12388" lon="5.59795">
        <ele>1107</ele>
        <time>2010-06-06T11:04:38Z</time>
      </trkpt>
      <trkpt lat="45.12389" lon="5.59791">
        <ele>1106</ele>
        <time>2010-06-06T11:04:39Z</time>
      </trkpt>
      <trkpt lat="45.1239" lon="5.59787">
        <ele>1105</ele>
        <time>2010-06-06T11:04:40Z</time>
      </trkpt>
      <trkpt lat="45.1239" lon="5.59782">
        <ele>1105</ele>
        <time>2010-06-06T11:04:41Z</time>
      </trkpt>
      <trkpt lat="45.1239" lon="5.59777">
        <ele>1104</ele>
        <time>2010-06-06T11:04:42Z</time>
      </trkpt>
      <trkpt lat="45.12389" lon="5.59773">
        <ele>1103</ele>
        <time>2010-06-06T11:04:43Z</time>
      </trkpt>
      <trkpt lat="45.12388" lon="5.59769">
        <ele>1103</ele>
        <time>2010-06-06T11:04:44Z</time>
      </trkpt>
      <trkpt lat="45.12388" lon="5.59765">
        <ele>1102</ele>
        <time>2010-06-06T11:04:45Z</time>
      </trkpt>
      <trkpt lat="45.12387" lon="5.59761">
        <ele>1102</ele>
        <time>2010-06-06T11:04:46Z</time>
      </trkpt>
      <trkpt lat="45.12387" lon="5.59757">
        <ele>1101</ele>
        <time>2010-06-06T11:04:47Z</time>
      </trkpt>
      <trkpt lat="45.12387" lon="5.59752">
        <ele>1101</ele>
        <time>2010-06-06T11:04:48Z</time>
      </trkpt>
      <trkpt lat="45.12387" lon="5.59747">
        <ele>1100</ele>
        <time>2010-06-06T11:04:49Z</time>
      </trkpt>
      <trkpt lat="45.12387" lon="5.59743">
        <ele>1100</ele>
        <time>2010-06-06T11:04:50Z</time>
      </trkpt>
      <trkpt lat="45.12387" lon="5.59738">
        <ele>1099</ele>
        <time>2010-06-06T11:04:51Z</time>
      </trkpt>
      <trkpt lat="45.12387" lon="5.59734">
        <ele>1098</ele>
        <time>2010-06-06T11:04:52Z</time>
      </trkpt>
      <trkpt lat="45.12387" lon="5.5973">
        <ele>1098</ele>
        <time>2010-06-06T11:04:53Z</time>
      </trkpt>
      <trkpt lat="45.12387" lon="5.59725">
        <ele>1097</ele>
        <time>2010-06-06T11:04:54Z</time>
      </trkpt>
      <trkpt lat="45.12387" lon="5.5972">
        <ele>1096</ele>
        <time>2010-06-06T11:04:55Z</time>
      </trkpt>
      <trkpt lat="45.12387" lon="5.59716">
        <ele>1095</ele>
        <time>2010-06-06T11:04:56Z</time>
      </trkpt>
      <trkpt lat="45.12387" lon="5.59711">
        <ele>1095</ele>
        <time>2010-06-06T11:04:57Z</time>
      </trkpt>
      <trkpt lat="45.12388" lon="5.59708">
        <ele>1094</ele>
        <time>2010-06-06T11:04:58Z</time>
      </trkpt>
      <trkpt lat="45.12389" lon="5.59705">
        <ele>1093</ele>
        <time>2010-06-06T11:04:59Z</time>
      </trkpt>
      <trkpt lat="45.1239" lon="5.59701">
        <ele>1092</ele>
        <time>2010-06-06T11:05:00Z</time>
      </trkpt>
      <trkpt lat="45.12391" lon="5.59698">
        <ele>1091</ele>
        <time>2010-06-06T11:05:01Z</time>
      </trkpt>
      <trkpt lat="45.12392" lon="5.59694">
        <ele>1090</ele>
        <time>2010-06-06T11:05:02Z</time>
      </trkpt>
      <trkpt lat="45.12394" lon="5.59692">
        <ele>1089</ele>
        <time>2010-06-06T11:05:03Z</time>
      </trkpt>
      <trkpt lat="45.12396" lon="5.5969">
        <ele>1088</ele>
        <time>2010-06-06T11:05:04Z</time>
      </trkpt>
      <trkpt lat="45.12399" lon="5.59689">
        <ele>1087</ele>
        <time>2010-06-06T11:05:05Z</time>
      </trkpt>
      <trkpt lat="45.12402" lon="5.59688">
        <ele>1086</ele>
        <time>2010-06-06T11:05:06Z</time>
      </trkpt>
      <trkpt lat="45.12405" lon="5.59686">
        <ele>1085</ele>
        <time>2010-06-06T11:05:07Z</time>
      </trkpt>
      <trkpt lat="45.12409" lon="5.59684">
        <ele>1084</ele>
        <time>2010-06-06T11:05:08Z</time>
      </trkpt>
      <trkpt lat="45.12412" lon="5.59682">
        <ele>1083</ele>
        <time>2010-06-06T11:05:09Z</time>
      </trkpt>
      <trkpt lat="45.12415" lon="5.59681">
        <ele>1082</ele>
        <time>2010-06-06T11:05:10Z</time>
      </trkpt>
      <trkpt lat="45.12418" lon="5.5968">
        <ele>1081</ele>
        <time>2010-06-06T11:05:11Z</time>
      </trkpt>
      <trkpt lat="45.1242" lon="5.59678">
        <ele>1080</ele>
        <time>2010-06-06T11:05:12Z</time>
      </trkpt>
      <trkpt lat="45.12424" lon="5.59677">
        <ele>1079</ele>
        <time>2010-06-06T11:05:13Z</time>
      </trkpt>
      <trkpt lat="45.12427" lon="5.59676">
        <ele>1078</ele>
        <time>2010-06-06T11:05:14Z</time>
      </trkpt>
      <trkpt lat="45.1243" lon="5.59675">
        <ele>1077</ele>
        <time>2010-06-06T11:05:15Z</time>
      </trkpt>
      <trkpt lat="45.12433" lon="5.59675">
        <ele>1076</ele>
        <time>2010-06-06T11:05:16Z</time>
      </trkpt>
      <trkpt lat="45.12437" lon="5.59675">
        <ele>1075</ele>
        <time>2010-06-06T11:05:17Z</time>
      </trkpt>
      <trkpt lat="45.1244" lon="5.59675">
        <ele>1074</ele>
        <time>2010-06-06T11:05:18Z</time>
      </trkpt>
      <trkpt lat="45.12444" lon="5.59675">
        <ele>1073</ele>
        <time>2010-06-06T11:05:19Z</time>
      </trkpt>
      <trkpt lat="45.12448" lon="5.59676">
        <ele>1072</ele>
        <time>2010-06-06T11:05:20Z</time>
      </trkpt>
      <trkpt lat="45.12451" lon="5.59677">
        <ele>1071</ele>
        <time>2010-06-06T11:05:21Z</time>
      </trkpt>
      <trkpt lat="45.12454" lon="5.59679">
        <ele>1070</ele>
        <time>2010-06-06T11:05:22Z</time>
      </trkpt>
      <trkpt lat="45.12457" lon="5.5968">
        <ele>1069</ele>
        <time>2010-06-06T11:05:23Z</time>
      </trkpt>
      <trkpt lat="45.1246" lon="5.59681">
        <ele>1068</ele>
        <time>2010-06-06T11:05:24Z</time>
      </trkpt>
      <trkpt lat="45.12462" lon="5.59679">
        <ele>1067</ele>
        <time>2010-06-06T11:05:25Z</time>
      </trkpt>
      <trkpt lat="45.12462" lon="5.59675">
        <ele>1066</ele>
        <time>2010-06-06T11:05:26Z</time>
      </trkpt>
      <trkpt lat="45.12461" lon="5.59672">
        <ele>1065</ele>
        <time>2010-06-06T11:05:27Z</time>
      </trkpt>
      <trkpt lat="45.12459" lon="5.59669">
        <ele>1064</ele>
        <time>2010-06-06T11:05:28Z</time>
      </trkpt>
      <trkpt lat="45.12456" lon="5.59665">
        <ele>1063</ele>
        <time>2010-06-06T11:05:29Z</time>
      </trkpt>
      <trkpt lat="45.12454" lon="5.59662">
        <ele>1063</ele>
        <time>2010-06-06T11:05:30Z</time>
      </trkpt>
      <trkpt lat="45.1245" lon="5.59659">
        <ele>1062</ele>
        <time>2010-06-06T11:05:31Z</time>
      </trkpt>
      <trkpt lat="45.12447" lon="5.59657">
        <ele>1062</ele>
        <time>2010-06-06T11:05:32Z</time>
      </trkpt>
      <trkpt lat="45.12444" lon="5.59655">
        <ele>1062</ele>
        <time>2010-06-06T11:05:33Z</time>
      </trkpt>
      <trkpt lat="45.12441" lon="5.59653">
        <ele>1062</ele>
        <time>2010-06-06T11:05:34Z</time>
      </trkpt>
      <trkpt lat="45.12437" lon="5.59651">
        <ele>1062</ele>
        <time>2010-06-06T11:05:35Z</time>
      </trkpt>
      <trkpt lat="45.12434" lon="5.59649">
        <ele>1062</ele>
        <time>2010-06-06T11:05:36Z</time>
      </trkpt>
      <trkpt lat="45.12431" lon="5.59647">
        <ele>1062</ele>
        <time>2010-06-06T11:05:37Z</time>
      </trkpt>
      <trkpt lat="45.12427" lon="5.59646">
        <ele>1062</ele>
        <time>2010-06-06T11:05:38Z</time>
      </trkpt>
      <trkpt lat="45.12424" lon="5.59645">
        <ele>1062</ele>
        <time>2010-06-06T11:05:39Z</time>
      </trkpt>
      <trkpt lat="45.12421" lon="5.59644">
        <ele>1062</ele>
        <time>2010-06-06T11:05:40Z</time>
      </trkpt>
      <trkpt lat="45.12417" lon="5.59643">
        <ele>1062</ele>
        <time>2010-06-06T11:05:41Z</time>
      </trkpt>
      <trkpt lat="45.12414" lon="5.59641">
        <ele>1061</ele>
        <time>2010-06-06T11:05:42Z</time>
      </trkpt>
      <trkpt lat="45.12411" lon="5.5964">
        <ele>1061</ele>
        <time>2010-06-06T11:05:43Z</time>
      </trkpt>
      <trkpt lat="45.12407" lon="5.5964">
        <ele>1061</ele>
        <time>2010-06-06T11:05:44Z</time>
      </trkpt>
      <trkpt lat="45.12404" lon="5.59639">
        <ele>1060</ele>
        <time>2010-06-06T11:05:45Z</time>
      </trkpt>
      <trkpt lat="45.12401" lon="5.5964">
        <ele>1060</ele>
        <time>2010-06-06T11:05:46Z</time>
      </trkpt>
      <trkpt lat="45.12398" lon="5.59639">
        <ele>1060</ele>
        <time>2010-06-06T11:05:47Z</time>
      </trkpt>
      <trkpt lat="45.12395" lon="5.59639">
        <ele>1060</ele>
        <time>2010-06-06T11:05:48Z</time>
      </trkpt>
      <trkpt lat="45.12392" lon="5.59639">
        <ele>1060</ele>
        <time>2010-06-06T11:05:49Z</time>
      </trkpt>
      <trkpt lat="45.1239" lon="5.59639">
        <ele>1060</ele>
        <time>2010-06-06T11:05:50Z</time>
      </trkpt>
      <trkpt lat="45.12389" lon="5.59636">
        <ele>1060</ele>
        <time>2010-06-06T11:05:51Z</time>
      </trkpt>
      <trkpt lat="45.12389" lon="5.59632">
        <ele>1059</ele>
        <time>2010-06-06T11:05:52Z</time>
      </trkpt>
      <trkpt lat="45.12389" lon="5.59629">
        <ele>1059</ele>
        <time>2010-06-06T11:05:53Z</time>
      </trkpt>
      <trkpt lat="45.12391" lon="5.59628">
        <ele>1058</ele>
        <time>2010-06-06T11:05:54Z</time>
      </trkpt>
      <trkpt lat="45.12395" lon="5.59627">
        <ele>1058</ele>
        <time>2010-06-06T11:05:55Z</time>
      </trkpt>
      <trkpt lat="45.12398" lon="5.59626">
        <ele>1058</ele>
        <time>2010-06-06T11:05:56Z</time>
      </trkpt>
      <trkpt lat="45.12402" lon="5.59624">
        <ele>1058</ele>
        <time>2010-06-06T11:05:57Z</time>
      </trkpt>
      <trkpt lat="45.12405" lon="5.59623">
        <ele>1057</ele>
        <time>2010-06-06T11:05:58Z</time>
      </trkpt>
      <trkpt lat="45.12409" lon="5.59621">
        <ele>1057</ele>
        <time>2010-06-06T11:05:59Z</time>
      </trkpt>
      <trkpt lat="45.12412" lon="5.59619">
        <ele>1057</ele>
        <time>2010-06-06T11:06:00Z</time>
      </trkpt>
      <trkpt lat="45.12415" lon="5.59617">
        <ele>1056</ele>
        <time>2010-06-06T11:06:01Z</time>
      </trkpt>
      <trkpt lat="45.12418" lon="5.59616">
        <ele>1055</ele>
        <time>2010-06-06T11:06:02Z</time>
      </trkpt>
      <trkpt lat="45.12421" lon="5.59613">
        <ele>1055</ele>
        <time>2010-06-06T11:06:03Z</time>
      </trkpt>
      <trkpt lat="45.12424" lon="5.59611">
        <ele>1054</ele>
        <time>2010-06-06T11:06:04Z</time>
      </trkpt>
      <trkpt lat="45.12427" lon="5.59609">
        <ele>1053</ele>
        <time>2010-06-06T11:06:05Z</time>
      </trkpt>
      <trkpt lat="45.1243" lon="5.59608">
        <ele>1052</ele>
        <time>2010-06-06T11:06:06Z</time>
      </trkpt>
      <trkpt lat="45.12434" lon="5.59606">
        <ele>1051</ele>
        <time>2010-06-06T11:06:07Z</time>
      </trkpt>
      <trkpt lat="45.12438" lon="5.59603">
        <ele>1050</ele>
        <time>2010-06-06T11:06:08Z</time>
      </trkpt>
      <trkpt lat="45.12441" lon="5.59601">
        <ele>1049</ele>
        <time>2010-06-06T11:06:09Z</time>
      </trkpt>
      <trkpt lat="45.12445" lon="5.596">
        <ele>1048</ele>
        <time>2010-06-06T11:06:10Z</time>
      </trkpt>
      <trkpt lat="45.12448" lon="5.59599">
        <ele>1047</ele>
        <time>2010-06-06T11:06:11Z</time>
      </trkpt>
      <trkpt lat="45.12451" lon="5.59597">
        <ele>1046</ele>
        <time>2010-06-06T11:06:12Z</time>
      </trkpt>
      <trkpt lat="45.12456" lon="5.59597">
        <ele>1045</ele>
        <time>2010-06-06T11:06:13Z</time>
      </trkpt>
      <trkpt lat="45.12459" lon="5.59597">
        <ele>1045</ele>
        <time>2010-06-06T11:06:14Z</time>
      </trkpt>
      <trkpt lat="45.12463" lon="5.59597">
        <ele>1044</ele>
        <time>2010-06-06T11:06:15Z</time>
      </trkpt>
      <trkpt lat="45.12466" lon="5.59597">
        <ele>1043</ele>
        <time>2010-06-06T11:06:16Z</time>
      </trkpt>
      <trkpt lat="45.1247" lon="5.59598">
        <ele>1042</ele>
        <time>2010-06-06T11:06:17Z</time>
      </trkpt>
      <trkpt lat="45.12473" lon="5.59598">
        <ele>1041</ele>
        <time>2010-06-06T11:06:18Z</time>
      </trkpt>
      <trkpt lat="45.12477" lon="5.596">
        <ele>1040</ele>
        <time>2010-06-06T11:06:19Z</time>
      </trkpt>
      <trkpt lat="45.12481" lon="5.59602">
        <ele>1039</ele>
        <time>2010-06-06T11:06:20Z</time>
      </trkpt>
      <trkpt lat="45.12485" lon="5.59603">
        <ele>1038</ele>
        <time>2010-06-06T11:06:21Z</time>
      </trkpt>
      <trkpt lat="45.12488" lon="5.59606">
        <ele>1037</ele>
        <time>2010-06-06T11:06:22Z</time>
      </trkpt>
      <trkpt lat="45.12491" lon="5.59608">
        <ele>1036</ele>
        <time>2010-06-06T11:06:23Z</time>
      </trkpt>
      <trkpt lat="45.12494" lon="5.59611">
        <ele>1035</ele>
        <time>2010-06-06T11:06:24Z</time>
      </trkpt>
      <trkpt lat="45.12497" lon="5.59613">
        <ele>1035</ele>
        <time>2010-06-06T11:06:25Z</time>
      </trkpt>
      <trkpt lat="45.125" lon="5.59615">
        <ele>1034</ele>
        <time>2010-06-06T11:06:26Z</time>
      </trkpt>
      <trkpt lat="45.12502" lon="5.59617">
        <ele>1033</ele>
        <time>2010-06-06T11:06:27Z</time>
      </trkpt>
      <trkpt lat="45.12506" lon="5.59621">
        <ele>1033</ele>
        <time>2010-06-06T11:06:28Z</time>
      </trkpt>
      <trkpt lat="45.12509" lon="5.59624">
        <ele>1033</ele>
        <time>2010-06-06T11:06:29Z</time>
      </trkpt>
      <trkpt lat="45.12512" lon="5.59628">
        <ele>1032</ele>
        <time>2010-06-06T11:06:30Z</time>
      </trkpt>
      <trkpt lat="45.12515" lon="5.59632">
        <ele>1032</ele>
        <time>2010-06-06T11:06:31Z</time>
      </trkpt>
      <trkpt lat="45.12518" lon="5.59636">
        <ele>1032</ele>
        <time>2010-06-06T11:06:32Z</time>
      </trkpt>
      <trkpt lat="45.12521" lon="5.5964">
        <ele>1031</ele>
        <time>2010-06-06T11:06:33Z</time>
      </trkpt>
      <trkpt lat="45.12523" lon="5.59644">
        <ele>1031</ele>
        <time>2010-06-06T11:06:34Z</time>
      </trkpt>
      <trkpt lat="45.12526" lon="5.59647">
        <ele>1030</ele>
        <time>2010-06-06T11:06:35Z</time>
      </trkpt>
      <trkpt lat="45.12529" lon="5.5965">
        <ele>1029</ele>
        <time>2010-06-06T11:06:36Z</time>
      </trkpt>
      <trkpt lat="45.12531" lon="5.59653">
        <ele>1029</ele>
        <time>2010-06-06T11:06:37Z</time>
      </trkpt>
      <trkpt lat="45.12534" lon="5.59654">
        <ele>1029</ele>
        <time>2010-06-06T11:06:38Z</time>
      </trkpt>
      <trkpt lat="45.12536" lon="5.59655">
        <ele>1028</ele>
        <time>2010-06-06T11:06:39Z</time>
      </trkpt>
      <trkpt lat="45.12539" lon="5.59657">
        <ele>1028</ele>
        <time>2010-06-06T11:06:40Z</time>
      </trkpt>
      <trkpt lat="45.12542" lon="5.59659">
        <ele>1028</ele>
        <time>2010-06-06T11:06:41Z</time>
      </trkpt>
      <trkpt lat="45.12546" lon="5.59661">
        <ele>1028</ele>
        <time>2010-06-06T11:06:42Z</time>
      </trkpt>
      <trkpt lat="45.12548" lon="5.59662">
        <ele>1028</ele>
        <time>2010-06-06T11:06:43Z</time>
      </trkpt>
      <trkpt lat="45.12552" lon="5.59664">
        <ele>1028</ele>
        <time>2010-06-06T11:06:44Z</time>
      </trkpt>
      <trkpt lat="45.12555" lon="5.59664">
        <ele>1028</ele>
        <time>2010-06-06T11:06:45Z</time>
      </trkpt>
      <trkpt lat="45.12559" lon="5.59664">
        <ele>1028</ele>
        <time>2010-06-06T11:06:46Z</time>
      </trkpt>
      <trkpt lat="45.12562" lon="5.59664">
        <ele>1028</ele>
        <time>2010-06-06T11:06:47Z</time>
      </trkpt>
      <trkpt lat="45.12566" lon="5.59663">
        <ele>1028</ele>
        <time>2010-06-06T11:06:48Z</time>
      </trkpt>
      <trkpt lat="45.12571" lon="5.59661">
        <ele>1028</ele>
        <time>2010-06-06T11:06:49Z</time>
      </trkpt>
      <trkpt lat="45.12576" lon="5.5966">
        <ele>1028</ele>
        <time>2010-06-06T11:06:50Z</time>
      </trkpt>
      <trkpt lat="45.1258" lon="5.59658">
        <ele>1028</ele>
        <time>2010-06-06T11:06:51Z</time>
      </trkpt>
      <trkpt lat="45.12583" lon="5.59656">
        <ele>1028</ele>
        <time>2010-06-06T11:06:52Z</time>
      </trkpt>
      <trkpt lat="45.12587" lon="5.59653">
        <ele>1028</ele>
        <time>2010-06-06T11:06:53Z</time>
      </trkpt>
      <trkpt lat="45.1259" lon="5.59651">
        <ele>1028</ele>
        <time>2010-06-06T11:06:54Z</time>
      </trkpt>
      <trkpt lat="45.12593" lon="5.59649">
        <ele>1028</ele>
        <time>2010-06-06T11:06:55Z</time>
      </trkpt>
      <trkpt lat="45.12596" lon="5.59646">
        <ele>1028</ele>
        <time>2010-06-06T11:06:56Z</time>
      </trkpt>
      <trkpt lat="45.12599" lon="5.59644">
        <ele>1028</ele>
        <time>2010-06-06T11:06:57Z</time>
      </trkpt>
      <trkpt lat="45.12602" lon="5.59641">
        <ele>1028</ele>
        <time>2010-06-06T11:06:58Z</time>
      </trkpt>
      <trkpt lat="45.12604" lon="5.59638">
        <ele>1028</ele>
        <time>2010-06-06T11:06:59Z</time>
      </trkpt>
      <trkpt lat="45.12606" lon="5.59635">
        <ele>1028</ele>
        <time>2010-06-06T11:07:00Z</time>
      </trkpt>
      <trkpt lat="45.12607" lon="5.59631">
        <ele>1028</ele>
        <time>2010-06-06T11:07:01Z</time>
      </trkpt>
      <trkpt lat="45.12607" lon="5.59627">
        <ele>1028</ele>
        <time>2010-06-06T11:07:02Z</time>
      </trkpt>
      <trkpt lat="45.12608" lon="5.59622">
        <ele>1028</ele>
        <time>2010-06-06T11:07:03Z</time>
      </trkpt>
      <trkpt lat="45.12608" lon="5.59617">
        <ele>1028</ele>
        <time>2010-06-06T11:07:04Z</time>
      </trkpt>
      <trkpt lat="45.12609" lon="5.59612">
        <ele>1028</ele>
        <time>2010-06-06T11:07:05Z</time>
      </trkpt>
      <trkpt lat="45.1261" lon="5.59607">
        <ele>1028</ele>
        <time>2010-06-06T11:07:06Z</time>
      </trkpt>
      <trkpt lat="45.12611" lon="5.59603">
        <ele>1028</ele>
        <time>2010-06-06T11:07:07Z</time>
      </trkpt>
      <trkpt lat="45.12614" lon="5.59602">
        <ele>1028</ele>
        <time>2010-06-06T11:07:08Z</time>
      </trkpt>
      <trkpt lat="45.12617" lon="5.59602">
        <ele>1028</ele>
        <time>2010-06-06T11:07:09Z</time>
      </trkpt>
      <trkpt lat="45.12621" lon="5.59602">
        <ele>1028</ele>
        <time>2010-06-06T11:07:10Z</time>
      </trkpt>
      <trkpt lat="45.12624" lon="5.59601">
        <ele>1028</ele>
        <time>2010-06-06T11:07:11Z</time>
      </trkpt>
      <trkpt lat="45.12628" lon="5.59599">
        <ele>1028</ele>
        <time>2010-06-06T11:07:12Z</time>
      </trkpt>
      <trkpt lat="45.12631" lon="5.59597">
        <ele>1028</ele>
        <time>2010-06-06T11:07:13Z</time>
      </trkpt>
      <trkpt lat="45.12633" lon="5.59593">
        <ele>1028</ele>
        <time>2010-06-06T11:07:14Z</time>
      </trkpt>
      <trkpt lat="45.12635" lon="5.59589">
        <ele>1028</ele>
        <time>2010-06-06T11:07:15Z</time>
      </trkpt>
      <trkpt lat="45.12637" lon="5.59585">
        <ele>1028</ele>
        <time>2010-06-06T11:07:16Z</time>
      </trkpt>
      <trkpt lat="45.12638" lon="5.59581">
        <ele>1028</ele>
        <time>2010-06-06T11:07:17Z</time>
      </trkpt>
      <trkpt lat="45.1264" lon="5.59577">
        <ele>1028</ele>
        <time>2010-06-06T11:07:18Z</time>
      </trkpt>
      <trkpt lat="45.12641" lon="5.59573">
        <ele>1028</ele>
        <time>2010-06-06T11:07:19Z</time>
      </trkpt>
      <trkpt lat="45.12641" lon="5.59569">
        <ele>1028</ele>
        <time>2010-06-06T11:07:20Z</time>
      </trkpt>
      <trkpt lat="45.1264" lon="5.59564">
        <ele>1029</ele>
        <time>2010-06-06T11:07:21Z</time>
      </trkpt>
      <trkpt lat="45.12639" lon="5.5956">
        <ele>1029</ele>
        <time>2010-06-06T11:07:22Z</time>
      </trkpt>
      <trkpt lat="45.12636" lon="5.59556">
        <ele>1029</ele>
        <time>2010-06-06T11:07:23Z</time>
      </trkpt>
      <trkpt lat="45.12633" lon="5.59552">
        <ele>1029</ele>
        <time>2010-06-06T11:07:24Z</time>
      </trkpt>
      <trkpt lat="45.12629" lon="5.59549">
        <ele>1029</ele>
        <time>2010-06-06T11:07:25Z</time>
      </trkpt>
      <trkpt lat="45.12626" lon="5.59547">
        <ele>1029</ele>
        <time>2010-06-06T11:07:26Z</time>
      </trkpt>
      <trkpt lat="45.12622" lon="5.59544">
        <ele>1029</ele>
        <time>2010-06-06T11:07:27Z</time>
      </trkpt>
      <trkpt lat="45.12619" lon="5.59542">
        <ele>1029</ele>
        <time>2010-06-06T11:07:28Z</time>
      </trkpt>
      <trkpt lat="45.12615" lon="5.5954">
        <ele>1029</ele>
        <time>2010-06-06T11:07:29Z</time>
      </trkpt>
      <trkpt lat="45.12612" lon="5.59537">
        <ele>1029</ele>
        <time>2010-06-06T11:07:30Z</time>
      </trkpt>
      <trkpt lat="45.12609" lon="5.59535">
        <ele>1029</ele>
        <time>2010-06-06T11:07:31Z</time>
      </trkpt>
      <trkpt lat="45.12606" lon="5.59532">
        <ele>1029</ele>
        <time>2010-06-06T11:07:32Z</time>
      </trkpt>
      <trkpt lat="45.12603" lon="5.5953">
        <ele>1029</ele>
        <time>2010-06-06T11:07:33Z</time>
      </trkpt>
      <trkpt lat="45.126" lon="5.59528">
        <ele>1029</ele>
        <time>2010-06-06T11:07:34Z</time>
      </trkpt>
      <trkpt lat="45.12596" lon="5.59526">
        <ele>1030</ele>
        <time>2010-06-06T11:07:35Z</time>
      </trkpt>
      <trkpt lat="45.12593" lon="5.59523">
        <ele>1030</ele>
        <time>2010-06-06T11:07:36Z</time>
      </trkpt>
      <trkpt lat="45.1259" lon="5.5952">
        <ele>1030</ele>
        <time>2010-06-06T11:07:37Z</time>
      </trkpt>
      <trkpt lat="45.12587" lon="5.59517">
        <ele>1030</ele>
        <time>2010-06-06T11:07:38Z</time>
      </trkpt>
      <trkpt lat="45.12584" lon="5.59513">
        <ele>1031</ele>
        <time>2010-06-06T11:07:39Z</time>
      </trkpt>
      <trkpt lat="45.12582" lon="5.5951">
        <ele>1031</ele>
        <time>2010-06-06T11:07:40Z</time>
      </trkpt>
      <trkpt lat="45.12579" lon="5.59507">
        <ele>1031</ele>
        <time>2010-06-06T11:07:41Z</time>
      </trkpt>
      <trkpt lat="45.12577" lon="5.59503">
        <ele>1031</ele>
        <time>2010-06-06T11:07:42Z</time>
      </trkpt>
      <trkpt lat="45.12574" lon="5.595">
        <ele>1031</ele>
        <time>2010-06-06T11:07:43Z</time>
      </trkpt>
      <trkpt lat="45.12572" lon="5.59496">
        <ele>1031</ele>
        <time>2010-06-06T11:07:44Z</time>
      </trkpt>
      <trkpt lat="45.1257" lon="5.59492">
        <ele>1031</ele>
        <time>2010-06-06T11:07:45Z</time>
      </trkpt>
      <trkpt lat="45.12567" lon="5.59487">
        <ele>1031</ele>
        <time>2010-06-06T11:07:46Z</time>
      </trkpt>
      <trkpt lat="45.12565" lon="5.59483">
        <ele>1031</ele>
        <time>2010-06-06T11:07:47Z</time>
      </trkpt>
      <trkpt lat="45.12562" lon="5.5948">
        <ele>1031</ele>
        <time>2010-06-06T11:07:48Z</time>
      </trkpt>
      <trkpt lat="45.1256" lon="5.59477">
        <ele>1031</ele>
        <time>2010-06-06T11:07:49Z</time>
      </trkpt>
      <trkpt lat="45.12557" lon="5.59473">
        <ele>1031</ele>
        <time>2010-06-06T11:07:50Z</time>
      </trkpt>
      <trkpt lat="45.12554" lon="5.5947">
        <ele>1031</ele>
        <time>2010-06-06T11:07:51Z</time>
      </trkpt>
      <trkpt lat="45.12551" lon="5.59467">
        <ele>1031</ele>
        <time>2010-06-06T11:07:52Z</time>
      </trkpt>
      <trkpt lat="45.12549" lon="5.59463">
        <ele>1031</ele>
        <time>2010-06-06T11:07:53Z</time>
      </trkpt>
      <trkpt lat="45.12546" lon="5.5946">
        <ele>1031</ele>
        <time>2010-06-06T11:07:54Z</time>
      </trkpt>
      <trkpt lat="45.12544" lon="5.59456">
        <ele>1031</ele>
        <time>2010-06-06T11:07:55Z</time>
      </trkpt>
      <trkpt lat="45.12541" lon="5.59452">
        <ele>1031</ele>
        <time>2010-06-06T11:07:56Z</time>
      </trkpt>
      <trkpt lat="45.12539" lon="5.59448">
        <ele>1031</ele>
        <time>2010-06-06T11:07:57Z</time>
      </trkpt>
      <trkpt lat="45.12536" lon="5.59445">
        <ele>1031</ele>
        <time>2010-06-06T11:07:58Z</time>
      </trkpt>
      <trkpt lat="45.12534" lon="5.59441">
        <ele>1031</ele>
        <time>2010-06-06T11:07:59Z</time>
      </trkpt>
      <trkpt lat="45.12532" lon="5.59437">
        <ele>1031</ele>
        <time>2010-06-06T11:08:00Z</time>
      </trkpt>
      <trkpt lat="45.12529" lon="5.59433">
        <ele>1031</ele>
        <time>2010-06-06T11:08:01Z</time>
      </trkpt>
      <trkpt lat="45.12527" lon="5.5943">
        <ele>1031</ele>
        <time>2010-06-06T11:08:02Z</time>
      </trkpt>
      <trkpt lat="45.12524" lon="5.59426">
        <ele>1031</ele>
        <time>2010-06-06T11:08:03Z</time>
      </trkpt>
      <trkpt lat="45.12522" lon="5.59422">
        <ele>1031</ele>
        <time>2010-06-06T11:08:04Z</time>
      </trkpt>
      <trkpt lat="45.12519" lon="5.59418">
        <ele>1031</ele>
        <time>2010-06-06T11:08:05Z</time>
      </trkpt>
      <trkpt lat="45.12517" lon="5.59414">
        <ele>1031</ele>
        <time>2010-06-06T11:08:06Z</time>
      </trkpt>
      <trkpt lat="45.12515" lon="5.5941">
        <ele>1031</ele>
        <time>2010-06-06T11:08:07Z</time>
      </trkpt>
      <trkpt lat="45.12512" lon="5.59406">
        <ele>1031</ele>
        <time>2010-06-06T11:08:08Z</time>
      </trkpt>
      <trkpt lat="45.1251" lon="5.59402">
        <ele>1031</ele>
        <time>2010-06-06T11:08:09Z</time>
      </trkpt>
      <trkpt lat="45.12508" lon="5.59398">
        <ele>1031</ele>
        <time>2010-06-06T11:08:10Z</time>
      </trkpt>
      <trkpt lat="45.12505" lon="5.59394">
        <ele>1031</ele>
        <time>2010-06-06T11:08:11Z</time>
      </trkpt>
      <trkpt lat="45.12503" lon="5.5939">
        <ele>1030</ele>
        <time>2010-06-06T11:08:12Z</time>
      </trkpt>
      <trkpt lat="45.12501" lon="5.59386">
        <ele>1030</ele>
        <time>2010-06-06T11:08:13Z</time>
      </trkpt>
      <trkpt lat="45.12498" lon="5.59382">
        <ele>1029</ele>
        <time>2010-06-06T11:08:14Z</time>
      </trkpt>
      <trkpt lat="45.12496" lon="5.59378">
        <ele>1029</ele>
        <time>2010-06-06T11:08:15Z</time>
      </trkpt>
      <trkpt lat="45.12493" lon="5.59374">
        <ele>1028</ele>
        <time>2010-06-06T11:08:16Z</time>
      </trkpt>
      <trkpt lat="45.12491" lon="5.5937">
        <ele>1028</ele>
        <time>2010-06-06T11:08:17Z</time>
      </trkpt>
      <trkpt lat="45.12488" lon="5.59367">
        <ele>1027</ele>
        <time>2010-06-06T11:08:18Z</time>
      </trkpt>
      <trkpt lat="45.12485" lon="5.59363">
        <ele>1027</ele>
        <time>2010-06-06T11:08:19Z</time>
      </trkpt>
      <trkpt lat="45.12482" lon="5.5936">
        <ele>1026</ele>
        <time>2010-06-06T11:08:20Z</time>
      </trkpt>
      <trkpt lat="45.12479" lon="5.59357">
        <ele>1026</ele>
        <time>2010-06-06T11:08:21Z</time>
      </trkpt>
      <trkpt lat="45.12476" lon="5.59354">
        <ele>1026</ele>
        <time>2010-06-06T11:08:22Z</time>
      </trkpt>
      <trkpt lat="45.12473" lon="5.59351">
        <ele>1025</ele>
        <time>2010-06-06T11:08:23Z</time>
      </trkpt>
      <trkpt lat="45.1247" lon="5.59348">
        <ele>1025</ele>
        <time>2010-06-06T11:08:24Z</time>
      </trkpt>
      <trkpt lat="45.12467" lon="5.59344">
        <ele>1025</ele>
        <time>2010-06-06T11:08:25Z</time>
      </trkpt>
      <trkpt lat="45.12465" lon="5.59341">
        <ele>1024</ele>
        <time>2010-06-06T11:08:26Z</time>
      </trkpt>
      <trkpt lat="45.12462" lon="5.59337">
        <ele>1024</ele>
        <time>2010-06-06T11:08:27Z</time>
      </trkpt>
      <trkpt lat="45.1246" lon="5.59333">
        <ele>1024</ele>
        <time>2010-06-06T11:08:28Z</time>
      </trkpt>
      <trkpt lat="45.12457" lon="5.59329">
        <ele>1023</ele>
        <time>2010-06-06T11:08:29Z</time>
      </trkpt>
      <trkpt lat="45.12455" lon="5.59324">
        <ele>1023</ele>
        <time>2010-06-06T11:08:30Z</time>
      </trkpt>
      <trkpt lat="45.12453" lon="5.5932">
        <ele>1023</ele>
        <time>2010-06-06T11:08:31Z</time>
      </trkpt>
      <trkpt lat="45.12451" lon="5.59315">
        <ele>1023</ele>
        <time>2010-06-06T11:08:32Z</time>
      </trkpt>
      <trkpt lat="45.1245" lon="5.59311">
        <ele>1022</ele>
        <time>2010-06-06T11:08:33Z</time>
      </trkpt>
      <trkpt lat="45.12448" lon="5.59306">
        <ele>1022</ele>
        <time>2010-06-06T11:08:34Z</time>
      </trkpt>
      <trkpt lat="45.12447" lon="5.59302">
        <ele>1022</ele>
        <time>2010-06-06T11:08:35Z</time>
      </trkpt>
      <trkpt lat="45.12445" lon="5.59298">
        <ele>1021</ele>
        <time>2010-06-06T11:08:36Z</time>
      </trkpt>
      <trkpt lat="45.12444" lon="5.59293">
        <ele>1021</ele>
        <time>2010-06-06T11:08:37Z</time>
      </trkpt>
      <trkpt lat="45.12442" lon="5.59287">
        <ele>1021</ele>
        <time>2010-06-06T11:08:38Z</time>
      </trkpt>
      <trkpt lat="45.12441" lon="5.59282">
        <ele>1020</ele>
        <time>2010-06-06T11:08:39Z</time>
      </trkpt>
      <trkpt lat="45.1244" lon="5.59277">
        <ele>1020</ele>
        <time>2010-06-06T11:08:40Z</time>
      </trkpt>
      <trkpt lat="45.12439" lon="5.59272">
        <ele>1020</ele>
        <time>2010-06-06T11:08:41Z</time>
      </trkpt>
      <trkpt lat="45.12438" lon="5.59267">
        <ele>1020</ele>
        <time>2010-06-06T11:08:42Z</time>
      </trkpt>
      <trkpt lat="45.12436" lon="5.59263">
        <ele>1020</ele>
        <time>2010-06-06T11:08:43Z</time>
      </trkpt>
      <trkpt lat="45.12434" lon="5.59259">
        <ele>1020</ele>
        <time>2010-06-06T11:08:44Z</time>
      </trkpt>
      <trkpt lat="45.12432" lon="5.59256">
        <ele>1020</ele>
        <time>2010-06-06T11:08:45Z</time>
      </trkpt>
      <trkpt lat="45.1243" lon="5.59251">
        <ele>1020</ele>
        <time>2010-06-06T11:08:46Z</time>
      </trkpt>
      <trkpt lat="45.12428" lon="5.59247">
        <ele>1020</ele>
        <time>2010-06-06T11:08:47Z</time>
      </trkpt>
      <trkpt lat="45.12426" lon="5.59244">
        <ele>1020</ele>
        <time>2010-06-06T11:08:48Z</time>
      </trkpt>
      <trkpt lat="45.12423" lon="5.5924">
        <ele>1020</ele>
        <time>2010-06-06T11:08:49Z</time>
      </trkpt>
      <trkpt lat="45.12421" lon="5.59236">
        <ele>1020</ele>
        <time>2010-06-06T11:08:50Z</time>
      </trkpt>
      <trkpt lat="45.12419" lon="5.59232">
        <ele>1020</ele>
        <time>2010-06-06T11:08:51Z</time>
      </trkpt>
      <trkpt lat="45.12416" lon="5.59228">
        <ele>1019</ele>
        <time>2010-06-06T11:08:52Z</time>
      </trkpt>
      <trkpt lat="45.12414" lon="5.59224">
        <ele>1019</ele>
        <time>2010-06-06T11:08:53Z</time>
      </trkpt>
      <trkpt lat="45.12411" lon="5.59219">
        <ele>1019</ele>
        <time>2010-06-06T11:08:54Z</time>
      </trkpt>
      <trkpt lat="45.12408" lon="5.59214">
        <ele>1019</ele>
        <time>2010-06-06T11:08:55Z</time>
      </trkpt>
      <trkpt lat="45.12406" lon="5.59209">
        <ele>1019</ele>
        <time>2010-06-06T11:08:56Z</time>
      </trkpt>
      <trkpt lat="45.12404" lon="5.59204">
        <ele>1019</ele>
        <time>2010-06-06T11:08:57Z</time>
      </trkpt>
      <trkpt lat="45.12403" lon="5.59199">
        <ele>1019</ele>
        <time>2010-06-06T11:08:58Z</time>
      </trkpt>
      <trkpt lat="45.12403" lon="5.59194">
        <ele>1019</ele>
        <time>2010-06-06T11:08:59Z</time>
      </trkpt>
      <trkpt lat="45.12402" lon="5.59188">
        <ele>1019</ele>
        <time>2010-06-06T11:09:00Z</time>
      </trkpt>
      <trkpt lat="45.12402" lon="5.59183">
        <ele>1019</ele>
        <time>2010-06-06T11:09:01Z</time>
      </trkpt>
      <trkpt lat="45.12401" lon="5.59178">
        <ele>1019</ele>
        <time>2010-06-06T11:09:02Z</time>
      </trkpt>
      <trkpt lat="45.124" lon="5.59172">
        <ele>1018</ele>
        <time>2010-06-06T11:09:03Z</time>
      </trkpt>
      <trkpt lat="45.124" lon="5.59167">
        <ele>1018</ele>
        <time>2010-06-06T11:09:04Z</time>
      </trkpt>
      <trkpt lat="45.124" lon="5.59161">
        <ele>1018</ele>
        <time>2010-06-06T11:09:05Z</time>
      </trkpt>
      <trkpt lat="45.124" lon="5.59155">
        <ele>1018</ele>
        <time>2010-06-06T11:09:06Z</time>
      </trkpt>
      <trkpt lat="45.124" lon="5.59149">
        <ele>1018</ele>
        <time>2010-06-06T11:09:07Z</time>
      </trkpt>
      <trkpt lat="45.12401" lon="5.59144">
        <ele>1018</ele>
        <time>2010-06-06T11:09:08Z</time>
      </trkpt>
      <trkpt lat="45.124" lon="5.59138">
        <ele>1018</ele>
        <time>2010-06-06T11:09:09Z</time>
      </trkpt>
      <trkpt lat="45.124" lon="5.59134">
        <ele>1018</ele>
        <time>2010-06-06T11:09:10Z</time>
      </trkpt>
      <trkpt lat="45.12399" lon="5.5913">
        <ele>1018</ele>
        <time>2010-06-06T11:09:11Z</time>
      </trkpt>
      <trkpt lat="45.12399" lon="5.59129">
        <ele>1018</ele>
        <time>2010-06-06T11:09:12Z</time>
      </trkpt>
      <trkpt lat="45.12399" lon="5.59127">
        <ele>1018</ele>
        <time>2010-06-06T11:09:14Z</time>
      </trkpt>
      <trkpt lat="45.12399" lon="5.59125">
        <ele>1017</ele>
        <time>2010-06-06T11:09:16Z</time>
      </trkpt>
      <trkpt lat="45.124" lon="5.59124">
        <ele>1015</ele>
        <time>2010-06-06T11:09:23Z</time>
      </trkpt>
      <trkpt lat="45.12399" lon="5.59125">
        <ele>1014</ele>
        <time>2010-06-06T11:09:33Z</time>
      </trkpt>
      <trkpt lat="45.124" lon="5.59126">
        <ele>1014</ele>
        <time>2010-06-06T11:09:45Z</time>
      </trkpt>
      <trkpt lat="45.12399" lon="5.59127">
        <ele>1014</ele>
        <time>2010-06-06T11:09:55Z</time>
      </trkpt>
      <trkpt lat="45.124" lon="5.59128">
        <ele>1014</ele>
        <time>2010-06-06T11:10:00Z</time>
      </trkpt>
      <trkpt lat="45.12401" lon="5.5913">
        <ele>1014</ele>
        <time>2010-06-06T11:10:02Z</time>
      </trkpt>
      <trkpt lat="45.12401" lon="5.59132">
        <ele>1014</ele>
        <time>2010-06-06T11:10:03Z</time>
      </trkpt>
      <trkpt lat="45.12401" lon="5.59133">
        <ele>1014</ele>
        <time>2010-06-06T11:10:04Z</time>
      </trkpt>
      <trkpt lat="45.12402" lon="5.59136">
        <ele>1014</ele>
        <time>2010-06-06T11:10:06Z</time>
      </trkpt>
      <trkpt lat="45.12403" lon="5.59138">
        <ele>1014</ele>
        <time>2010-06-06T11:10:08Z</time>
      </trkpt>
      <trkpt lat="45.12403" lon="5.5914">
        <ele>1014</ele>
        <time>2010-06-06T11:10:10Z</time>
      </trkpt>
      <trkpt lat="45.12404" lon="5.59142">
        <ele>1014</ele>
        <time>2010-06-06T11:10:12Z</time>
      </trkpt>
      <trkpt lat="45.12405" lon="5.59144">
        <ele>1014</ele>
        <time>2010-06-06T11:10:15Z</time>
      </trkpt>
      <trkpt lat="45.12404" lon="5.59146">
        <ele>1014</ele>
        <time>2010-06-06T11:10:19Z</time>
      </trkpt>
      <trkpt lat="45.12404" lon="5.59148">
        <ele>1014</ele>
        <time>2010-06-06T11:10:22Z</time>
      </trkpt>
      <trkpt lat="45.12404" lon="5.5915">
        <ele>1014</ele>
        <time>2010-06-06T11:10:25Z</time>
      </trkpt>
      <trkpt lat="45.12405" lon="5.59152">
        <ele>1013</ele>
        <time>2010-06-06T11:10:27Z</time>
      </trkpt>
      <trkpt lat="45.12406" lon="5.59154">
        <ele>1013</ele>
        <time>2010-06-06T11:10:36Z</time>
      </trkpt>
      <trkpt lat="45.12406" lon="5.59155">
        <ele>1013</ele>
        <time>2010-06-06T11:10:45Z</time>
      </trkpt>
      <trkpt lat="45.12405" lon="5.59156">
        <ele>1013</ele>
        <time>2010-06-06T11:10:52Z</time>
      </trkpt>
    </trkseg>
  </trk>
</gpx>